﻿<?xml version="1.0" encoding="UTF-8"?>
<gpx version="v1.1.5" creator="iTravel Tech Inc. - http://www.itravel-tech.com" xmlns:xsi="http://www.w3.org/2001/XMLSchema-instance" xmlns="http://www.topografix.com/GPX/1/1" xsi:schemaLocation="http://www.topografix.com/GPX/1/1 http://www.topografix.com/GPX/1/1/gpx.xsd http://www.topografix.com/GPX/gpx_overlay/0/3 http://www.topografix.com/GPX/gpx_overlay/0/3/gpx_overlay.xsd http://www.topografix.com/GPX/gpx_modified/0/1 http://www.topografix.com/GPX/gpx_modified/0/1/gpx_modified.xsd">
<trk>
<name>Holux2012/04/30_14:02</name>
<trkseg>
<trkpt lat="42.956818" lon="19.577368">
<ele>843.961426</ele>
<time>2012-04-30T11:02:52Z</time>
<desc>lat.=42.956818, lon.=19.577368, Alt.=843.961426m. Speed=21.096001m/h.</desc>
<speed>5.860000</speed>
</trkpt>
<trkpt lat="42.956570" lon="19.577129">
<ele>834.586426</ele>
<time>2012-04-30T11:02:57Z</time>
<desc>lat.=42.956570, lon.=19.577129, Alt.=834.586426m. Speed=17.459999m/h.</desc>
<speed>4.850000</speed>
</trkpt>
<trkpt lat="42.956390" lon="19.576931">
<ele>833.555176</ele>
<time>2012-04-30T11:03:02Z</time>
<desc>lat.=42.956390, lon.=19.576931, Alt.=833.555176m. Speed=19.511999m/h.</desc>
<speed>5.420000</speed>
</trkpt>
<trkpt lat="42.956188" lon="19.576721">
<ele>835.477051</ele>
<time>2012-04-30T11:03:07Z</time>
<desc>lat.=42.956188, lon.=19.576721, Alt.=835.477051m. Speed=20.664000m/h.</desc>
<speed>5.740000</speed>
</trkpt>
<trkpt lat="42.956009" lon="19.576532">
<ele>835.133301</ele>
<time>2012-04-30T11:03:12Z</time>
<desc>lat.=42.956009, lon.=19.576532, Alt.=835.133301m. Speed=18.000000m/h.</desc>
<speed>5.000000</speed>
</trkpt>
<trkpt lat="42.955822" lon="19.576336">
<ele>834.570801</ele>
<time>2012-04-30T11:03:17Z</time>
<desc>lat.=42.955822, lon.=19.576336, Alt.=834.570801m. Speed=19.440001m/h.</desc>
<speed>5.400000</speed>
</trkpt>
<trkpt lat="42.955612" lon="19.576122">
<ele>834.555176</ele>
<time>2012-04-30T11:03:22Z</time>
<desc>lat.=42.955612, lon.=19.576122, Alt.=834.555176m. Speed=22.500000m/h.</desc>
<speed>6.250000</speed>
</trkpt>
<trkpt lat="42.955387" lon="19.575874">
<ele>835.023926</ele>
<time>2012-04-30T11:03:27Z</time>
<desc>lat.=42.955387, lon.=19.575874, Alt.=835.023926m. Speed=23.580000m/h.</desc>
<speed>6.550000</speed>
</trkpt>
<trkpt lat="42.955139" lon="19.575642">
<ele>833.648926</ele>
<time>2012-04-30T11:03:32Z</time>
<desc>lat.=42.955139, lon.=19.575642, Alt.=833.648926m. Speed=22.176001m/h.</desc>
<speed>6.160000</speed>
</trkpt>
<trkpt lat="42.954895" lon="19.575466">
<ele>830.742676</ele>
<time>2012-04-30T11:03:37Z</time>
<desc>lat.=42.954895, lon.=19.575466, Alt.=830.742676m. Speed=20.808001m/h.</desc>
<speed>5.780000</speed>
</trkpt>
<trkpt lat="42.954651" lon="19.575298">
<ele>828.602051</ele>
<time>2012-04-30T11:03:42Z</time>
<desc>lat.=42.954651, lon.=19.575298, Alt.=828.602051m. Speed=21.708000m/h.</desc>
<speed>6.030000</speed>
</trkpt>
<trkpt lat="42.954395" lon="19.575130">
<ele>827.133301</ele>
<time>2012-04-30T11:03:47Z</time>
<desc>lat.=42.954395, lon.=19.575130, Alt.=827.133301m. Speed=21.240000m/h.</desc>
<speed>5.900000</speed>
</trkpt>
<trkpt lat="42.954151" lon="19.574991">
<ele>826.492676</ele>
<time>2012-04-30T11:03:52Z</time>
<desc>lat.=42.954151, lon.=19.574991, Alt.=826.492676m. Speed=19.332001m/h.</desc>
<speed>5.370000</speed>
</trkpt>
<trkpt lat="42.953915" lon="19.574888">
<ele>825.211426</ele>
<time>2012-04-30T11:03:57Z</time>
<desc>lat.=42.953915, lon.=19.574888, Alt.=825.211426m. Speed=19.440001m/h.</desc>
<speed>5.400000</speed>
</trkpt>
<trkpt lat="42.953705" lon="19.574780">
<ele>824.742676</ele>
<time>2012-04-30T11:04:02Z</time>
<desc>lat.=42.953705, lon.=19.574780, Alt.=824.742676m. Speed=15.732000m/h.</desc>
<speed>4.370000</speed>
</trkpt>
<trkpt lat="42.953495" lon="19.574648">
<ele>824.414551</ele>
<time>2012-04-30T11:04:07Z</time>
<desc>lat.=42.953495, lon.=19.574648, Alt.=824.414551m. Speed=16.416000m/h.</desc>
<speed>4.560000</speed>
</trkpt>
<trkpt lat="42.953331" lon="19.574444">
<ele>824.602051</ele>
<time>2012-04-30T11:04:12Z</time>
<desc>lat.=42.953331, lon.=19.574444, Alt.=824.602051m. Speed=18.180000m/h.</desc>
<speed>5.050000</speed>
</trkpt>
<trkpt lat="42.953201" lon="19.574213">
<ele>826.648926</ele>
<time>2012-04-30T11:04:17Z</time>
<desc>lat.=42.953201, lon.=19.574213, Alt.=826.648926m. Speed=17.388000m/h.</desc>
<speed>4.830000</speed>
</trkpt>
<trkpt lat="42.953106" lon="19.574001">
<ele>829.789551</ele>
<time>2012-04-30T11:04:22Z</time>
<desc>lat.=42.953106, lon.=19.574001, Alt.=829.789551m. Speed=13.896000m/h.</desc>
<speed>3.860000</speed>
</trkpt>
<trkpt lat="42.953045" lon="19.573788">
<ele>832.367676</ele>
<time>2012-04-30T11:04:27Z</time>
<desc>lat.=42.953045, lon.=19.573788, Alt.=832.367676m. Speed=14.364000m/h.</desc>
<speed>3.990000</speed>
</trkpt>
<trkpt lat="42.952999" lon="19.573551">
<ele>834.398926</ele>
<time>2012-04-30T11:04:32Z</time>
<desc>lat.=42.952999, lon.=19.573551, Alt.=834.398926m. Speed=14.724000m/h.</desc>
<speed>4.090000</speed>
</trkpt>
<trkpt lat="42.952957" lon="19.573307">
<ele>836.320801</ele>
<time>2012-04-30T11:04:37Z</time>
<desc>lat.=42.952957, lon.=19.573307, Alt.=836.320801m. Speed=15.480000m/h.</desc>
<speed>4.300000</speed>
</trkpt>
<trkpt lat="42.952900" lon="19.573053">
<ele>838.586426</ele>
<time>2012-04-30T11:04:42Z</time>
<desc>lat.=42.952900, lon.=19.573053, Alt.=838.586426m. Speed=15.480000m/h.</desc>
<speed>4.300000</speed>
</trkpt>
<trkpt lat="42.952824" lon="19.572805">
<ele>840.820801</ele>
<time>2012-04-30T11:04:47Z</time>
<desc>lat.=42.952824, lon.=19.572805, Alt.=840.820801m. Speed=17.172001m/h.</desc>
<speed>4.770000</speed>
</trkpt>
<trkpt lat="42.952728" lon="19.572559">
<ele>843.086426</ele>
<time>2012-04-30T11:04:52Z</time>
<desc>lat.=42.952728, lon.=19.572559, Alt.=843.086426m. Speed=16.271999m/h.</desc>
<speed>4.520000</speed>
</trkpt>
<trkpt lat="42.952599" lon="19.572327">
<ele>844.117676</ele>
<time>2012-04-30T11:04:57Z</time>
<desc>lat.=42.952599, lon.=19.572327, Alt.=844.117676m. Speed=16.955999m/h.</desc>
<speed>4.710000</speed>
</trkpt>
<trkpt lat="42.952457" lon="19.572126">
<ele>844.758301</ele>
<time>2012-04-30T11:05:02Z</time>
<desc>lat.=42.952457, lon.=19.572126, Alt.=844.758301m. Speed=15.516000m/h.</desc>
<speed>4.310000</speed>
</trkpt>
<trkpt lat="42.952297" lon="19.571945">
<ele>844.430176</ele>
<time>2012-04-30T11:05:07Z</time>
<desc>lat.=42.952297, lon.=19.571945, Alt.=844.430176m. Speed=15.912000m/h.</desc>
<speed>4.420000</speed>
</trkpt>
<trkpt lat="42.952114" lon="19.571779">
<ele>844.602051</ele>
<time>2012-04-30T11:05:12Z</time>
<desc>lat.=42.952114, lon.=19.571779, Alt.=844.602051m. Speed=18.648001m/h.</desc>
<speed>5.180000</speed>
</trkpt>
<trkpt lat="42.951885" lon="19.571640">
<ele>845.758301</ele>
<time>2012-04-30T11:05:17Z</time>
<desc>lat.=42.951885, lon.=19.571640, Alt.=845.758301m. Speed=21.096001m/h.</desc>
<speed>5.860000</speed>
</trkpt>
<trkpt lat="42.951653" lon="19.571545">
<ele>846.805176</ele>
<time>2012-04-30T11:05:22Z</time>
<desc>lat.=42.951653, lon.=19.571545, Alt.=846.805176m. Speed=18.035999m/h.</desc>
<speed>5.010000</speed>
</trkpt>
<trkpt lat="42.951427" lon="19.571480">
<ele>848.148926</ele>
<time>2012-04-30T11:05:27Z</time>
<desc>lat.=42.951427, lon.=19.571480, Alt.=848.148926m. Speed=17.388000m/h.</desc>
<speed>4.830000</speed>
</trkpt>
<trkpt lat="42.951149" lon="19.571510">
<ele>849.820801</ele>
<time>2012-04-30T11:05:32Z</time>
<desc>lat.=42.951149, lon.=19.571510, Alt.=849.820801m. Speed=21.059999m/h.</desc>
<speed>5.850000</speed>
</trkpt>
<trkpt lat="42.950844" lon="19.571587">
<ele>851.367676</ele>
<time>2012-04-30T11:05:37Z</time>
<desc>lat.=42.950844, lon.=19.571587, Alt.=851.367676m. Speed=24.191999m/h.</desc>
<speed>6.720000</speed>
</trkpt>
<trkpt lat="42.950535" lon="19.571730">
<ele>851.367676</ele>
<time>2012-04-30T11:05:42Z</time>
<desc>lat.=42.950535, lon.=19.571730, Alt.=851.367676m. Speed=25.775999m/h.</desc>
<speed>7.160000</speed>
</trkpt>
<trkpt lat="42.950264" lon="19.571920">
<ele>848.758301</ele>
<time>2012-04-30T11:05:47Z</time>
<desc>lat.=42.950264, lon.=19.571920, Alt.=848.758301m. Speed=24.768000m/h.</desc>
<speed>6.880000</speed>
</trkpt>
<trkpt lat="42.950020" lon="19.572180">
<ele>846.430176</ele>
<time>2012-04-30T11:05:52Z</time>
<desc>lat.=42.950020, lon.=19.572180, Alt.=846.430176m. Speed=26.316000m/h.</desc>
<speed>7.310000</speed>
</trkpt>
<trkpt lat="42.949791" lon="19.572521">
<ele>844.539551</ele>
<time>2012-04-30T11:05:57Z</time>
<desc>lat.=42.949791, lon.=19.572521, Alt.=844.539551m. Speed=25.704000m/h.</desc>
<speed>7.140000</speed>
</trkpt>
<trkpt lat="42.949608" lon="19.572830">
<ele>841.492676</ele>
<time>2012-04-30T11:06:02Z</time>
<desc>lat.=42.949608, lon.=19.572830, Alt.=841.492676m. Speed=25.559999m/h.</desc>
<speed>7.100000</speed>
</trkpt>
<trkpt lat="42.949429" lon="19.573214">
<ele>837.086426</ele>
<time>2012-04-30T11:06:07Z</time>
<desc>lat.=42.949429, lon.=19.573214, Alt.=837.086426m. Speed=26.496000m/h.</desc>
<speed>7.360000</speed>
</trkpt>
<trkpt lat="42.949253" lon="19.573536">
<ele>836.773926</ele>
<time>2012-04-30T11:06:12Z</time>
<desc>lat.=42.949253, lon.=19.573536, Alt.=836.773926m. Speed=23.652000m/h.</desc>
<speed>6.570000</speed>
</trkpt>
<trkpt lat="42.949078" lon="19.573856">
<ele>836.883301</ele>
<time>2012-04-30T11:06:17Z</time>
<desc>lat.=42.949078, lon.=19.573856, Alt.=836.883301m. Speed=23.327999m/h.</desc>
<speed>6.480000</speed>
</trkpt>
<trkpt lat="42.948910" lon="19.574150">
<ele>836.789551</ele>
<time>2012-04-30T11:06:22Z</time>
<desc>lat.=42.948910, lon.=19.574150, Alt.=836.789551m. Speed=23.040001m/h.</desc>
<speed>6.400000</speed>
</trkpt>
<trkpt lat="42.948727" lon="19.574465">
<ele>837.820801</ele>
<time>2012-04-30T11:06:27Z</time>
<desc>lat.=42.948727, lon.=19.574465, Alt.=837.820801m. Speed=23.940001m/h.</desc>
<speed>6.650000</speed>
</trkpt>
<trkpt lat="42.948536" lon="19.574759">
<ele>837.461426</ele>
<time>2012-04-30T11:06:32Z</time>
<desc>lat.=42.948536, lon.=19.574759, Alt.=837.461426m. Speed=22.860001m/h.</desc>
<speed>6.350000</speed>
</trkpt>
<trkpt lat="42.948330" lon="19.575060">
<ele>834.336426</ele>
<time>2012-04-30T11:06:37Z</time>
<desc>lat.=42.948330, lon.=19.575060, Alt.=834.336426m. Speed=22.968000m/h.</desc>
<speed>6.380000</speed>
</trkpt>
<trkpt lat="42.948128" lon="19.575350">
<ele>832.336426</ele>
<time>2012-04-30T11:06:42Z</time>
<desc>lat.=42.948128, lon.=19.575350, Alt.=832.336426m. Speed=24.228001m/h.</desc>
<speed>6.730000</speed>
</trkpt>
<trkpt lat="42.947922" lon="19.575651">
<ele>831.695801</ele>
<time>2012-04-30T11:06:47Z</time>
<desc>lat.=42.947922, lon.=19.575651, Alt.=831.695801m. Speed=23.004000m/h.</desc>
<speed>6.390000</speed>
</trkpt>
<trkpt lat="42.947712" lon="19.575937">
<ele>830.914551</ele>
<time>2012-04-30T11:06:52Z</time>
<desc>lat.=42.947712, lon.=19.575937, Alt.=830.914551m. Speed=22.931999m/h.</desc>
<speed>6.370000</speed>
</trkpt>
<trkpt lat="42.947514" lon="19.576193">
<ele>830.680176</ele>
<time>2012-04-30T11:06:57Z</time>
<desc>lat.=42.947514, lon.=19.576193, Alt.=830.680176m. Speed=22.032000m/h.</desc>
<speed>6.120000</speed>
</trkpt>
<trkpt lat="42.947300" lon="19.576458">
<ele>830.602051</ele>
<time>2012-04-30T11:07:02Z</time>
<desc>lat.=42.947300, lon.=19.576458, Alt.=830.602051m. Speed=23.652000m/h.</desc>
<speed>6.570000</speed>
</trkpt>
<trkpt lat="42.947109" lon="19.576712">
<ele>830.820801</ele>
<time>2012-04-30T11:07:07Z</time>
<desc>lat.=42.947109, lon.=19.576712, Alt.=830.820801m. Speed=20.556000m/h.</desc>
<speed>5.710000</speed>
</trkpt>
<trkpt lat="42.946907" lon="19.576944">
<ele>830.555176</ele>
<time>2012-04-30T11:07:12Z</time>
<desc>lat.=42.946907, lon.=19.576944, Alt.=830.555176m. Speed=22.176001m/h.</desc>
<speed>6.160000</speed>
</trkpt>
<trkpt lat="42.946693" lon="19.577185">
<ele>830.320801</ele>
<time>2012-04-30T11:07:17Z</time>
<desc>lat.=42.946693, lon.=19.577185, Alt.=830.320801m. Speed=22.212000m/h.</desc>
<speed>6.170000</speed>
</trkpt>
<trkpt lat="42.946449" lon="19.577417">
<ele>830.414551</ele>
<time>2012-04-30T11:07:22Z</time>
<desc>lat.=42.946449, lon.=19.577417, Alt.=830.414551m. Speed=23.436001m/h.</desc>
<speed>6.510000</speed>
</trkpt>
<trkpt lat="42.946205" lon="19.577616">
<ele>830.727051</ele>
<time>2012-04-30T11:07:27Z</time>
<desc>lat.=42.946205, lon.=19.577616, Alt.=830.727051m. Speed=21.204000m/h.</desc>
<speed>5.890000</speed>
</trkpt>
<trkpt lat="42.945961" lon="19.577785">
<ele>830.977051</ele>
<time>2012-04-30T11:07:32Z</time>
<desc>lat.=42.945961, lon.=19.577785, Alt.=830.977051m. Speed=22.823999m/h.</desc>
<speed>6.340000</speed>
</trkpt>
<trkpt lat="42.945679" lon="19.577934">
<ele>830.977051</ele>
<time>2012-04-30T11:07:37Z</time>
<desc>lat.=42.945679, lon.=19.577934, Alt.=830.977051m. Speed=24.948000m/h.</desc>
<speed>6.930000</speed>
</trkpt>
<trkpt lat="42.945366" lon="19.578051">
<ele>830.758301</ele>
<time>2012-04-30T11:07:42Z</time>
<desc>lat.=42.945366, lon.=19.578051, Alt.=830.758301m. Speed=26.063999m/h.</desc>
<speed>7.240000</speed>
</trkpt>
<trkpt lat="42.945057" lon="19.578093">
<ele>830.039551</ele>
<time>2012-04-30T11:07:47Z</time>
<desc>lat.=42.945057, lon.=19.578093, Alt.=830.039551m. Speed=23.796000m/h.</desc>
<speed>6.610000</speed>
</trkpt>
<trkpt lat="42.944775" lon="19.578081">
<ele>828.102051</ele>
<time>2012-04-30T11:07:52Z</time>
<desc>lat.=42.944775, lon.=19.578081, Alt.=828.102051m. Speed=22.716000m/h.</desc>
<speed>6.310000</speed>
</trkpt>
<trkpt lat="42.944492" lon="19.578053">
<ele>828.117676</ele>
<time>2012-04-30T11:07:57Z</time>
<desc>lat.=42.944492, lon.=19.578053, Alt.=828.117676m. Speed=22.500000m/h.</desc>
<speed>6.250000</speed>
</trkpt>
<trkpt lat="42.944206" lon="19.577990">
<ele>827.602051</ele>
<time>2012-04-30T11:08:02Z</time>
<desc>lat.=42.944206, lon.=19.577990, Alt.=827.602051m. Speed=24.695999m/h.</desc>
<speed>6.860000</speed>
</trkpt>
<trkpt lat="42.943909" lon="19.577854">
<ele>827.352051</ele>
<time>2012-04-30T11:08:07Z</time>
<desc>lat.=42.943909, lon.=19.577854, Alt.=827.352051m. Speed=28.044001m/h.</desc>
<speed>7.790000</speed>
</trkpt>
<trkpt lat="42.943607" lon="19.577665">
<ele>828.023926</ele>
<time>2012-04-30T11:08:12Z</time>
<desc>lat.=42.943607, lon.=19.577665, Alt.=828.023926m. Speed=27.719999m/h.</desc>
<speed>7.700000</speed>
</trkpt>
<trkpt lat="42.943310" lon="19.577410">
<ele>828.039551</ele>
<time>2012-04-30T11:08:17Z</time>
<desc>lat.=42.943310, lon.=19.577410, Alt.=828.039551m. Speed=28.691999m/h.</desc>
<speed>7.970000</speed>
</trkpt>
<trkpt lat="42.943001" lon="19.577145">
<ele>827.930176</ele>
<time>2012-04-30T11:08:22Z</time>
<desc>lat.=42.943001, lon.=19.577145, Alt.=827.930176m. Speed=32.363998m/h.</desc>
<speed>8.990000</speed>
</trkpt>
<trkpt lat="42.942654" lon="19.576853">
<ele>828.320801</ele>
<time>2012-04-30T11:08:27Z</time>
<desc>lat.=42.942654, lon.=19.576853, Alt.=828.320801m. Speed=32.652000m/h.</desc>
<speed>9.070000</speed>
</trkpt>
<trkpt lat="42.942299" lon="19.576572">
<ele>829.039551</ele>
<time>2012-04-30T11:08:32Z</time>
<desc>lat.=42.942299, lon.=19.576572, Alt.=829.039551m. Speed=32.507999m/h.</desc>
<speed>9.030000</speed>
</trkpt>
<trkpt lat="42.941952" lon="19.576303">
<ele>828.523926</ele>
<time>2012-04-30T11:08:37Z</time>
<desc>lat.=42.941952, lon.=19.576303, Alt.=828.523926m. Speed=30.167999m/h.</desc>
<speed>8.380000</speed>
</trkpt>
<trkpt lat="42.941643" lon="19.576052">
<ele>828.695801</ele>
<time>2012-04-30T11:08:42Z</time>
<desc>lat.=42.941643, lon.=19.576052, Alt.=828.695801m. Speed=28.656000m/h.</desc>
<speed>7.960000</speed>
</trkpt>
<trkpt lat="42.941303" lon="19.575876">
<ele>830.695801</ele>
<time>2012-04-30T11:08:47Z</time>
<desc>lat.=42.941303, lon.=19.575876, Alt.=830.695801m. Speed=28.332001m/h.</desc>
<speed>7.870000</speed>
</trkpt>
<trkpt lat="42.940952" lon="19.575752">
<ele>829.414551</ele>
<time>2012-04-30T11:08:52Z</time>
<desc>lat.=42.940952, lon.=19.575752, Alt.=829.414551m. Speed=29.771999m/h.</desc>
<speed>8.270000</speed>
</trkpt>
<trkpt lat="42.940590" lon="19.575710">
<ele>829.180176</ele>
<time>2012-04-30T11:08:57Z</time>
<desc>lat.=42.940590, lon.=19.575710, Alt.=829.180176m. Speed=30.240000m/h.</desc>
<speed>8.400000</speed>
</trkpt>
<trkpt lat="42.940197" lon="19.575741">
<ele>827.820801</ele>
<time>2012-04-30T11:09:02Z</time>
<desc>lat.=42.940197, lon.=19.575741, Alt.=827.820801m. Speed=33.551998m/h.</desc>
<speed>9.319999</speed>
</trkpt>
<trkpt lat="42.939770" lon="19.575861">
<ele>825.383301</ele>
<time>2012-04-30T11:09:07Z</time>
<desc>lat.=42.939770, lon.=19.575861, Alt.=825.383301m. Speed=36.792000m/h.</desc>
<speed>10.220000</speed>
</trkpt>
<trkpt lat="42.939327" lon="19.575932">
<ele>823.961426</ele>
<time>2012-04-30T11:09:12Z</time>
<desc>lat.=42.939327, lon.=19.575932, Alt.=823.961426m. Speed=34.344002m/h.</desc>
<speed>9.540000</speed>
</trkpt>
<trkpt lat="42.938934" lon="19.575830">
<ele>823.336426</ele>
<time>2012-04-30T11:09:17Z</time>
<desc>lat.=42.938934, lon.=19.575830, Alt.=823.336426m. Speed=31.356001m/h.</desc>
<speed>8.710000</speed>
</trkpt>
<trkpt lat="42.938614" lon="19.575577">
<ele>824.664551</ele>
<time>2012-04-30T11:09:22Z</time>
<desc>lat.=42.938614, lon.=19.575577, Alt.=824.664551m. Speed=29.700001m/h.</desc>
<speed>8.250000</speed>
</trkpt>
<trkpt lat="42.938362" lon="19.575268">
<ele>828.820801</ele>
<time>2012-04-30T11:09:27Z</time>
<desc>lat.=42.938362, lon.=19.575268, Alt.=828.820801m. Speed=25.632000m/h.</desc>
<speed>7.120000</speed>
</trkpt>
<trkpt lat="42.938129" lon="19.574951">
<ele>832.398926</ele>
<time>2012-04-30T11:09:32Z</time>
<desc>lat.=42.938129, lon.=19.574951, Alt.=832.398926m. Speed=25.524000m/h.</desc>
<speed>7.090000</speed>
</trkpt>
<trkpt lat="42.937920" lon="19.574642">
<ele>835.039551</ele>
<time>2012-04-30T11:09:37Z</time>
<desc>lat.=42.937920, lon.=19.574642, Alt.=835.039551m. Speed=24.191999m/h.</desc>
<speed>6.720000</speed>
</trkpt>
<trkpt lat="42.937717" lon="19.574343">
<ele>837.664551</ele>
<time>2012-04-30T11:09:42Z</time>
<desc>lat.=42.937717, lon.=19.574343, Alt.=837.664551m. Speed=24.191999m/h.</desc>
<speed>6.720000</speed>
</trkpt>
<trkpt lat="42.937531" lon="19.574057">
<ele>839.055176</ele>
<time>2012-04-30T11:09:47Z</time>
<desc>lat.=42.937531, lon.=19.574057, Alt.=839.055176m. Speed=24.156000m/h.</desc>
<speed>6.710000</speed>
</trkpt>
<trkpt lat="42.937325" lon="19.573750">
<ele>839.805176</ele>
<time>2012-04-30T11:09:52Z</time>
<desc>lat.=42.937325, lon.=19.573750, Alt.=839.805176m. Speed=25.884001m/h.</desc>
<speed>7.190000</speed>
</trkpt>
<trkpt lat="42.937115" lon="19.573439">
<ele>839.820801</ele>
<time>2012-04-30T11:09:57Z</time>
<desc>lat.=42.937115, lon.=19.573439, Alt.=839.820801m. Speed=28.872000m/h.</desc>
<speed>8.020000</speed>
</trkpt>
<trkpt lat="42.936859" lon="19.573072">
<ele>839.023926</ele>
<time>2012-04-30T11:10:02Z</time>
<desc>lat.=42.936859, lon.=19.573072, Alt.=839.023926m. Speed=28.764000m/h.</desc>
<speed>7.990000</speed>
</trkpt>
<trkpt lat="42.936649" lon="19.572628">
<ele>838.617676</ele>
<time>2012-04-30T11:10:07Z</time>
<desc>lat.=42.936649, lon.=19.572628, Alt.=838.617676m. Speed=30.204000m/h.</desc>
<speed>8.390000</speed>
</trkpt>
<trkpt lat="42.936382" lon="19.572237">
<ele>838.977051</ele>
<time>2012-04-30T11:10:12Z</time>
<desc>lat.=42.936382, lon.=19.572237, Alt.=838.977051m. Speed=33.048000m/h.</desc>
<speed>9.180000</speed>
</trkpt>
<trkpt lat="42.936016" lon="19.571972">
<ele>838.320801</ele>
<time>2012-04-30T11:10:17Z</time>
<desc>lat.=42.936016, lon.=19.571972, Alt.=838.320801m. Speed=33.119999m/h.</desc>
<speed>9.200000</speed>
</trkpt>
<trkpt lat="42.935608" lon="19.571842">
<ele>838.867676</ele>
<time>2012-04-30T11:10:22Z</time>
<desc>lat.=42.935608, lon.=19.571842, Alt.=838.867676m. Speed=33.840000m/h.</desc>
<speed>9.400000</speed>
</trkpt>
<trkpt lat="42.935177" lon="19.571894">
<ele>837.742676</ele>
<time>2012-04-30T11:10:27Z</time>
<desc>lat.=42.935177, lon.=19.571894, Alt.=837.742676m. Speed=29.916000m/h.</desc>
<speed>8.310000</speed>
</trkpt>
<trkpt lat="42.934826" lon="19.571985">
<ele>835.648926</ele>
<time>2012-04-30T11:10:32Z</time>
<desc>lat.=42.934826, lon.=19.571985, Alt.=835.648926m. Speed=27.719999m/h.</desc>
<speed>7.700000</speed>
</trkpt>
<trkpt lat="42.934483" lon="19.572107">
<ele>830.711426</ele>
<time>2012-04-30T11:10:37Z</time>
<desc>lat.=42.934483, lon.=19.572107, Alt.=830.711426m. Speed=28.224001m/h.</desc>
<speed>7.840000</speed>
</trkpt>
<trkpt lat="42.934139" lon="19.572227">
<ele>828.664551</ele>
<time>2012-04-30T11:10:42Z</time>
<desc>lat.=42.934139, lon.=19.572227, Alt.=828.664551m. Speed=28.332001m/h.</desc>
<speed>7.870000</speed>
</trkpt>
<trkpt lat="42.933804" lon="19.572306">
<ele>828.305176</ele>
<time>2012-04-30T11:10:47Z</time>
<desc>lat.=42.933804, lon.=19.572306, Alt.=828.305176m. Speed=26.208000m/h.</desc>
<speed>7.280000</speed>
</trkpt>
<trkpt lat="42.933464" lon="19.572355">
<ele>828.664551</ele>
<time>2012-04-30T11:10:52Z</time>
<desc>lat.=42.933464, lon.=19.572355, Alt.=828.664551m. Speed=27.504000m/h.</desc>
<speed>7.640000</speed>
</trkpt>
<trkpt lat="42.933144" lon="19.572380">
<ele>829.992676</ele>
<time>2012-04-30T11:10:57Z</time>
<desc>lat.=42.933144, lon.=19.572380, Alt.=829.992676m. Speed=23.472000m/h.</desc>
<speed>6.520000</speed>
</trkpt>
<trkpt lat="42.932842" lon="19.572378">
<ele>830.805176</ele>
<time>2012-04-30T11:11:02Z</time>
<desc>lat.=42.932842, lon.=19.572378, Alt.=830.805176m. Speed=23.796000m/h.</desc>
<speed>6.610000</speed>
</trkpt>
<trkpt lat="42.932552" lon="19.572344">
<ele>831.430176</ele>
<time>2012-04-30T11:11:07Z</time>
<desc>lat.=42.932552, lon.=19.572344, Alt.=831.430176m. Speed=22.752001m/h.</desc>
<speed>6.320000</speed>
</trkpt>
<trkpt lat="42.932262" lon="19.572300">
<ele>833.836426</ele>
<time>2012-04-30T11:11:12Z</time>
<desc>lat.=42.932262, lon.=19.572300, Alt.=833.836426m. Speed=22.931999m/h.</desc>
<speed>6.370000</speed>
</trkpt>
<trkpt lat="42.931976" lon="19.572252">
<ele>834.961426</ele>
<time>2012-04-30T11:11:17Z</time>
<desc>lat.=42.931976, lon.=19.572252, Alt.=834.961426m. Speed=23.652000m/h.</desc>
<speed>6.570000</speed>
</trkpt>
<trkpt lat="42.931702" lon="19.572269">
<ele>836.414551</ele>
<time>2012-04-30T11:11:22Z</time>
<desc>lat.=42.931702, lon.=19.572269, Alt.=836.414551m. Speed=22.176001m/h.</desc>
<speed>6.160000</speed>
</trkpt>
<trkpt lat="42.931461" lon="19.572384">
<ele>837.289551</ele>
<time>2012-04-30T11:11:27Z</time>
<desc>lat.=42.931461, lon.=19.572384, Alt.=837.289551m. Speed=20.916000m/h.</desc>
<speed>5.810000</speed>
</trkpt>
<trkpt lat="42.931309" lon="19.572561">
<ele>838.164551</ele>
<time>2012-04-30T11:11:32Z</time>
<desc>lat.=42.931309, lon.=19.572561, Alt.=838.164551m. Speed=13.644000m/h.</desc>
<speed>3.790000</speed>
</trkpt>
<trkpt lat="42.931141" lon="19.572803">
<ele>841.055176</ele>
<time>2012-04-30T11:11:37Z</time>
<desc>lat.=42.931141, lon.=19.572803, Alt.=841.055176m. Speed=19.403999m/h.</desc>
<speed>5.390000</speed>
</trkpt>
<trkpt lat="42.931049" lon="19.573175">
<ele>842.227051</ele>
<time>2012-04-30T11:11:42Z</time>
<desc>lat.=42.931049, lon.=19.573175, Alt.=842.227051m. Speed=21.059999m/h.</desc>
<speed>5.850000</speed>
</trkpt>
<trkpt lat="42.930958" lon="19.573500">
<ele>843.414551</ele>
<time>2012-04-30T11:11:47Z</time>
<desc>lat.=42.930958, lon.=19.573500, Alt.=843.414551m. Speed=17.243999m/h.</desc>
<speed>4.790000</speed>
</trkpt>
<trkpt lat="42.930889" lon="19.573784">
<ele>842.992676</ele>
<time>2012-04-30T11:11:52Z</time>
<desc>lat.=42.930889, lon.=19.573784, Alt.=842.992676m. Speed=15.408000m/h.</desc>
<speed>4.280000</speed>
</trkpt>
<trkpt lat="42.930817" lon="19.574020">
<ele>842.695801</ele>
<time>2012-04-30T11:11:57Z</time>
<desc>lat.=42.930817, lon.=19.574020, Alt.=842.695801m. Speed=16.164000m/h.</desc>
<speed>4.490000</speed>
</trkpt>
<trkpt lat="42.930664" lon="19.574261">
<ele>843.398926</ele>
<time>2012-04-30T11:12:02Z</time>
<desc>lat.=42.930664, lon.=19.574261, Alt.=843.398926m. Speed=19.188000m/h.</desc>
<speed>5.330000</speed>
</trkpt>
<trkpt lat="42.930500" lon="19.574518">
<ele>844.352051</ele>
<time>2012-04-30T11:12:07Z</time>
<desc>lat.=42.930500, lon.=19.574518, Alt.=844.352051m. Speed=20.628000m/h.</desc>
<speed>5.730000</speed>
</trkpt>
<trkpt lat="42.930355" lon="19.574764">
<ele>845.164551</ele>
<time>2012-04-30T11:12:12Z</time>
<desc>lat.=42.930355, lon.=19.574764, Alt.=845.164551m. Speed=17.496000m/h.</desc>
<speed>4.860000</speed>
</trkpt>
<trkpt lat="42.930214" lon="19.575037">
<ele>846.742676</ele>
<time>2012-04-30T11:12:17Z</time>
<desc>lat.=42.930214, lon.=19.575037, Alt.=846.742676m. Speed=20.087999m/h.</desc>
<speed>5.580000</speed>
</trkpt>
<trkpt lat="42.930080" lon="19.575327">
<ele>847.586426</ele>
<time>2012-04-30T11:12:22Z</time>
<desc>lat.=42.930080, lon.=19.575327, Alt.=847.586426m. Speed=21.888000m/h.</desc>
<speed>6.080000</speed>
</trkpt>
<trkpt lat="42.929890" lon="19.575640">
<ele>847.727051</ele>
<time>2012-04-30T11:12:27Z</time>
<desc>lat.=42.929890, lon.=19.575640, Alt.=847.727051m. Speed=24.372000m/h.</desc>
<speed>6.770000</speed>
</trkpt>
<trkpt lat="42.929661" lon="19.575947">
<ele>846.148926</ele>
<time>2012-04-30T11:12:32Z</time>
<desc>lat.=42.929661, lon.=19.575947, Alt.=846.148926m. Speed=25.848000m/h.</desc>
<speed>7.180000</speed>
</trkpt>
<trkpt lat="42.929367" lon="19.576181">
<ele>843.414551</ele>
<time>2012-04-30T11:12:37Z</time>
<desc>lat.=42.929367, lon.=19.576181, Alt.=843.414551m. Speed=26.388000m/h.</desc>
<speed>7.330000</speed>
</trkpt>
<trkpt lat="42.929005" lon="19.576208">
<ele>842.492676</ele>
<time>2012-04-30T11:12:42Z</time>
<desc>lat.=42.929005, lon.=19.576208, Alt.=842.492676m. Speed=25.632000m/h.</desc>
<speed>7.120000</speed>
</trkpt>
<trkpt lat="42.928650" lon="19.576120">
<ele>840.992676</ele>
<time>2012-04-30T11:12:47Z</time>
<desc>lat.=42.928650, lon.=19.576120, Alt.=840.992676m. Speed=27.072001m/h.</desc>
<speed>7.520000</speed>
</trkpt>
<trkpt lat="42.928329" lon="19.576017">
<ele>840.711426</ele>
<time>2012-04-30T11:12:52Z</time>
<desc>lat.=42.928329, lon.=19.576017, Alt.=840.711426m. Speed=26.351999m/h.</desc>
<speed>7.320000</speed>
</trkpt>
<trkpt lat="42.928013" lon="19.575920">
<ele>840.148926</ele>
<time>2012-04-30T11:12:57Z</time>
<desc>lat.=42.928013, lon.=19.575920, Alt.=840.148926m. Speed=25.128000m/h.</desc>
<speed>6.980000</speed>
</trkpt>
<trkpt lat="42.927704" lon="19.575806">
<ele>839.320801</ele>
<time>2012-04-30T11:13:02Z</time>
<desc>lat.=42.927704, lon.=19.575806, Alt.=839.320801m. Speed=26.388000m/h.</desc>
<speed>7.330000</speed>
</trkpt>
<trkpt lat="42.927383" lon="19.575699">
<ele>838.320801</ele>
<time>2012-04-30T11:13:07Z</time>
<desc>lat.=42.927383, lon.=19.575699, Alt.=838.320801m. Speed=26.568001m/h.</desc>
<speed>7.380000</speed>
</trkpt>
<trkpt lat="42.927052" lon="19.575592">
<ele>839.711426</ele>
<time>2012-04-30T11:13:12Z</time>
<desc>lat.=42.927052, lon.=19.575592, Alt.=839.711426m. Speed=28.764000m/h.</desc>
<speed>7.990000</speed>
</trkpt>
<trkpt lat="42.926704" lon="19.575455">
<ele>840.430176</ele>
<time>2012-04-30T11:13:17Z</time>
<desc>lat.=42.926704, lon.=19.575455, Alt.=840.430176m. Speed=27.072001m/h.</desc>
<speed>7.520000</speed>
</trkpt>
<trkpt lat="42.926418" lon="19.575247">
<ele>841.227051</ele>
<time>2012-04-30T11:13:22Z</time>
<desc>lat.=42.926418, lon.=19.575247, Alt.=841.227051m. Speed=26.243999m/h.</desc>
<speed>7.290000</speed>
</trkpt>
<trkpt lat="42.926117" lon="19.574957">
<ele>843.211426</ele>
<time>2012-04-30T11:13:27Z</time>
<desc>lat.=42.926117, lon.=19.574957, Alt.=843.211426m. Speed=32.832001m/h.</desc>
<speed>9.120000</speed>
</trkpt>
<trkpt lat="42.925770" lon="19.574602">
<ele>845.039551</ele>
<time>2012-04-30T11:13:32Z</time>
<desc>lat.=42.925770, lon.=19.574602, Alt.=845.039551m. Speed=34.452000m/h.</desc>
<speed>9.570000</speed>
</trkpt>
<trkpt lat="42.925781" lon="19.573957">
<ele>843.852051</ele>
<time>2012-04-30T11:13:40Z</time>
<desc>lat.=42.925781, lon.=19.573957, Alt.=843.852051m. Speed=21.816000m/h.</desc>
<speed>6.060000</speed>
</trkpt>
<trkpt lat="42.925526" lon="19.573704">
<ele>851.102051</ele>
<time>2012-04-30T11:13:45Z</time>
<desc>lat.=42.925526, lon.=19.573704, Alt.=851.102051m. Speed=25.344000m/h.</desc>
<speed>7.040000</speed>
</trkpt>
<trkpt lat="42.925232" lon="19.573473">
<ele>850.320801</ele>
<time>2012-04-30T11:13:50Z</time>
<desc>lat.=42.925232, lon.=19.573473, Alt.=850.320801m. Speed=24.840000m/h.</desc>
<speed>6.900000</speed>
</trkpt>
<trkpt lat="42.924938" lon="19.573408">
<ele>850.242676</ele>
<time>2012-04-30T11:13:55Z</time>
<desc>lat.=42.924938, lon.=19.573408, Alt.=850.242676m. Speed=24.299999m/h.</desc>
<speed>6.750000</speed>
</trkpt>
<trkpt lat="42.924622" lon="19.573429">
<ele>849.523926</ele>
<time>2012-04-30T11:14:00Z</time>
<desc>lat.=42.924622, lon.=19.573429, Alt.=849.523926m. Speed=26.676001m/h.</desc>
<speed>7.410000</speed>
</trkpt>
<trkpt lat="42.924316" lon="19.573603">
<ele>849.961426</ele>
<time>2012-04-30T11:14:05Z</time>
<desc>lat.=42.924316, lon.=19.573603, Alt.=849.961426m. Speed=25.164000m/h.</desc>
<speed>6.990000</speed>
</trkpt>
<trkpt lat="42.924088" lon="19.573847">
<ele>851.617676</ele>
<time>2012-04-30T11:14:10Z</time>
<desc>lat.=42.924088, lon.=19.573847, Alt.=851.617676m. Speed=20.988001m/h.</desc>
<speed>5.830000</speed>
</trkpt>
<trkpt lat="42.923920" lon="19.574099">
<ele>853.617676</ele>
<time>2012-04-30T11:14:15Z</time>
<desc>lat.=42.923920, lon.=19.574099, Alt.=853.617676m. Speed=21.455999m/h.</desc>
<speed>5.960000</speed>
</trkpt>
<trkpt lat="42.923748" lon="19.574358">
<ele>854.977051</ele>
<time>2012-04-30T11:14:20Z</time>
<desc>lat.=42.923748, lon.=19.574358, Alt.=854.977051m. Speed=19.799999m/h.</desc>
<speed>5.500000</speed>
</trkpt>
<trkpt lat="42.923615" lon="19.574629">
<ele>856.461426</ele>
<time>2012-04-30T11:14:25Z</time>
<desc>lat.=42.923615, lon.=19.574629, Alt.=856.461426m. Speed=20.448000m/h.</desc>
<speed>5.680000</speed>
</trkpt>
<trkpt lat="42.923458" lon="19.574955">
<ele>857.695801</ele>
<time>2012-04-30T11:14:30Z</time>
<desc>lat.=42.923458, lon.=19.574955, Alt.=857.695801m. Speed=21.780001m/h.</desc>
<speed>6.050000</speed>
</trkpt>
<trkpt lat="42.923264" lon="19.575293">
<ele>853.961426</ele>
<time>2012-04-30T11:14:35Z</time>
<desc>lat.=42.923264, lon.=19.575293, Alt.=853.961426m. Speed=23.112000m/h.</desc>
<speed>6.420000</speed>
</trkpt>
<trkpt lat="42.923115" lon="19.575636">
<ele>853.977051</ele>
<time>2012-04-30T11:14:40Z</time>
<desc>lat.=42.923115, lon.=19.575636, Alt.=853.977051m. Speed=22.139999m/h.</desc>
<speed>6.150000</speed>
</trkpt>
<trkpt lat="42.922977" lon="19.575924">
<ele>852.508301</ele>
<time>2012-04-30T11:14:45Z</time>
<desc>lat.=42.922977, lon.=19.575924, Alt.=852.508301m. Speed=18.719999m/h.</desc>
<speed>5.200000</speed>
</trkpt>
<trkpt lat="42.922836" lon="19.576185">
<ele>851.258301</ele>
<time>2012-04-30T11:14:50Z</time>
<desc>lat.=42.922836, lon.=19.576185, Alt.=851.258301m. Speed=17.459999m/h.</desc>
<speed>4.850000</speed>
</trkpt>
<trkpt lat="42.922691" lon="19.576397">
<ele>849.555176</ele>
<time>2012-04-30T11:14:55Z</time>
<desc>lat.=42.922691, lon.=19.576397, Alt.=849.555176m. Speed=16.056000m/h.</desc>
<speed>4.460000</speed>
</trkpt>
<trkpt lat="42.922531" lon="19.576553">
<ele>847.820801</ele>
<time>2012-04-30T11:15:00Z</time>
<desc>lat.=42.922531, lon.=19.576553, Alt.=847.820801m. Speed=15.408000m/h.</desc>
<speed>4.280000</speed>
</trkpt>
<trkpt lat="42.922363" lon="19.576715">
<ele>846.195801</ele>
<time>2012-04-30T11:15:05Z</time>
<desc>lat.=42.922363, lon.=19.576715, Alt.=846.195801m. Speed=16.056000m/h.</desc>
<speed>4.460000</speed>
</trkpt>
<trkpt lat="42.922180" lon="19.576836">
<ele>844.977051</ele>
<time>2012-04-30T11:15:10Z</time>
<desc>lat.=42.922180, lon.=19.576836, Alt.=844.977051m. Speed=15.624000m/h.</desc>
<speed>4.340000</speed>
</trkpt>
<trkpt lat="42.921997" lon="19.576910">
<ele>845.008301</ele>
<time>2012-04-30T11:15:15Z</time>
<desc>lat.=42.921997, lon.=19.576910, Alt.=845.008301m. Speed=15.228000m/h.</desc>
<speed>4.230000</speed>
</trkpt>
<trkpt lat="42.921795" lon="19.576933">
<ele>847.430176</ele>
<time>2012-04-30T11:15:20Z</time>
<desc>lat.=42.921795, lon.=19.576933, Alt.=847.430176m. Speed=14.148000m/h.</desc>
<speed>3.930000</speed>
</trkpt>
<trkpt lat="42.921581" lon="19.576939">
<ele>849.195801</ele>
<time>2012-04-30T11:15:25Z</time>
<desc>lat.=42.921581, lon.=19.576939, Alt.=849.195801m. Speed=16.308001m/h.</desc>
<speed>4.530000</speed>
</trkpt>
<trkpt lat="42.921364" lon="19.576912">
<ele>849.727051</ele>
<time>2012-04-30T11:15:30Z</time>
<desc>lat.=42.921364, lon.=19.576912, Alt.=849.727051m. Speed=15.948000m/h.</desc>
<speed>4.430000</speed>
</trkpt>
<trkpt lat="42.921162" lon="19.576874">
<ele>849.883301</ele>
<time>2012-04-30T11:15:35Z</time>
<desc>lat.=42.921162, lon.=19.576874, Alt.=849.883301m. Speed=16.236000m/h.</desc>
<speed>4.510000</speed>
</trkpt>
<trkpt lat="42.920940" lon="19.576830">
<ele>850.523926</ele>
<time>2012-04-30T11:15:40Z</time>
<desc>lat.=42.920940, lon.=19.576830, Alt.=850.523926m. Speed=19.368000m/h.</desc>
<speed>5.380000</speed>
</trkpt>
<trkpt lat="42.920708" lon="19.576759">
<ele>851.258301</ele>
<time>2012-04-30T11:15:45Z</time>
<desc>lat.=42.920708, lon.=19.576759, Alt.=851.258301m. Speed=19.296000m/h.</desc>
<speed>5.360000</speed>
</trkpt>
<trkpt lat="42.920467" lon="19.576664">
<ele>852.508301</ele>
<time>2012-04-30T11:15:50Z</time>
<desc>lat.=42.920467, lon.=19.576664, Alt.=852.508301m. Speed=19.620001m/h.</desc>
<speed>5.450000</speed>
</trkpt>
<trkpt lat="42.920219" lon="19.576567">
<ele>852.883301</ele>
<time>2012-04-30T11:15:55Z</time>
<desc>lat.=42.920219, lon.=19.576567, Alt.=852.883301m. Speed=21.743999m/h.</desc>
<speed>6.040000</speed>
</trkpt>
<trkpt lat="42.919949" lon="19.576471">
<ele>853.695801</ele>
<time>2012-04-30T11:16:00Z</time>
<desc>lat.=42.919949, lon.=19.576471, Alt.=853.695801m. Speed=22.284000m/h.</desc>
<speed>6.190000</speed>
</trkpt>
<trkpt lat="42.919674" lon="19.576401">
<ele>854.586426</ele>
<time>2012-04-30T11:16:05Z</time>
<desc>lat.=42.919674, lon.=19.576401, Alt.=854.586426m. Speed=21.636000m/h.</desc>
<speed>6.010000</speed>
</trkpt>
<trkpt lat="42.919376" lon="19.576284">
<ele>855.258301</ele>
<time>2012-04-30T11:16:10Z</time>
<desc>lat.=42.919376, lon.=19.576284, Alt.=855.258301m. Speed=24.552000m/h.</desc>
<speed>6.820000</speed>
</trkpt>
<trkpt lat="42.919090" lon="19.576172">
<ele>855.930176</ele>
<time>2012-04-30T11:16:15Z</time>
<desc>lat.=42.919090, lon.=19.576172, Alt.=855.930176m. Speed=23.112000m/h.</desc>
<speed>6.420000</speed>
</trkpt>
<trkpt lat="42.918789" lon="19.576040">
<ele>856.039551</ele>
<time>2012-04-30T11:16:20Z</time>
<desc>lat.=42.918789, lon.=19.576040, Alt.=856.039551m. Speed=26.747999m/h.</desc>
<speed>7.430000</speed>
</trkpt>
<trkpt lat="42.918468" lon="19.575924">
<ele>856.055176</ele>
<time>2012-04-30T11:16:25Z</time>
<desc>lat.=42.918468, lon.=19.575924, Alt.=856.055176m. Speed=25.308001m/h.</desc>
<speed>7.030000</speed>
</trkpt>
<trkpt lat="42.918167" lon="19.575806">
<ele>856.117676</ele>
<time>2012-04-30T11:16:30Z</time>
<desc>lat.=42.918167, lon.=19.575806, Alt.=856.117676m. Speed=25.992001m/h.</desc>
<speed>7.220000</speed>
</trkpt>
<trkpt lat="42.917858" lon="19.575644">
<ele>856.539551</ele>
<time>2012-04-30T11:16:35Z</time>
<desc>lat.=42.917858, lon.=19.575644, Alt.=856.539551m. Speed=29.700001m/h.</desc>
<speed>8.250000</speed>
</trkpt>
<trkpt lat="42.917545" lon="19.575472">
<ele>857.055176</ele>
<time>2012-04-30T11:16:40Z</time>
<desc>lat.=42.917545, lon.=19.575472, Alt.=857.055176m. Speed=27.972000m/h.</desc>
<speed>7.770000</speed>
</trkpt>
<trkpt lat="42.917240" lon="19.575274">
<ele>857.977051</ele>
<time>2012-04-30T11:16:45Z</time>
<desc>lat.=42.917240, lon.=19.575274, Alt.=857.977051m. Speed=24.768000m/h.</desc>
<speed>6.880000</speed>
</trkpt>
<trkpt lat="42.916977" lon="19.575098">
<ele>858.352051</ele>
<time>2012-04-30T11:16:50Z</time>
<desc>lat.=42.916977, lon.=19.575098, Alt.=858.352051m. Speed=20.340000m/h.</desc>
<speed>5.650000</speed>
</trkpt>
<trkpt lat="42.916767" lon="19.574997">
<ele>857.727051</ele>
<time>2012-04-30T11:16:55Z</time>
<desc>lat.=42.916767, lon.=19.574997, Alt.=857.727051m. Speed=17.856001m/h.</desc>
<speed>4.960000</speed>
</trkpt>
<trkpt lat="42.916603" lon="19.574837">
<ele>858.883301</ele>
<time>2012-04-30T11:17:00Z</time>
<desc>lat.=42.916603, lon.=19.574837, Alt.=858.883301m. Speed=13.536000m/h.</desc>
<speed>3.760000</speed>
</trkpt>
<trkpt lat="42.916470" lon="19.574762">
<ele>860.398926</ele>
<time>2012-04-30T11:17:05Z</time>
<desc>lat.=42.916470, lon.=19.574762, Alt.=860.398926m. Speed=9.324000m/h.</desc>
<speed>2.590000</speed>
</trkpt>
<trkpt lat="42.916306" lon="19.574898">
<ele>859.945801</ele>
<time>2012-04-30T11:17:10Z</time>
<desc>lat.=42.916306, lon.=19.574898, Alt.=859.945801m. Speed=11.124000m/h.</desc>
<speed>3.090000</speed>
</trkpt>
<trkpt lat="42.916241" lon="19.574951">
<ele>858.820801</ele>
<time>2012-04-30T11:17:15Z</time>
<desc>lat.=42.916241, lon.=19.574951, Alt.=858.820801m. Speed=0.216000m/h.</desc>
<speed>0.060000</speed>
</trkpt>
<trkpt lat="42.916248" lon="19.574947">
<ele>858.695801</ele>
<time>2012-04-30T11:17:20Z</time>
<desc>lat.=42.916248, lon.=19.574947, Alt.=858.695801m. Speed=0.180000m/h.</desc>
<speed>0.050000</speed>
</trkpt>
<trkpt lat="42.916241" lon="19.574945">
<ele>858.586426</ele>
<time>2012-04-30T11:17:25Z</time>
<desc>lat.=42.916241, lon.=19.574945, Alt.=858.586426m. Speed=0.720000m/h.</desc>
<speed>0.200000</speed>
</trkpt>
<trkpt lat="42.916237" lon="19.574942">
<ele>858.492676</ele>
<time>2012-04-30T11:17:30Z</time>
<desc>lat.=42.916237, lon.=19.574942, Alt.=858.492676m. Speed=0.072000m/h.</desc>
<speed>0.020000</speed>
</trkpt>
<trkpt lat="42.916233" lon="19.574957">
<ele>858.242676</ele>
<time>2012-04-30T11:17:35Z</time>
<desc>lat.=42.916233, lon.=19.574957, Alt.=858.242676m. Speed=0.684000m/h.</desc>
<speed>0.190000</speed>
</trkpt>
<trkpt lat="42.916218" lon="19.574984">
<ele>858.133301</ele>
<time>2012-04-30T11:17:40Z</time>
<desc>lat.=42.916218, lon.=19.574984, Alt.=858.133301m. Speed=0.576000m/h.</desc>
<speed>0.160000</speed>
</trkpt>
<trkpt lat="42.916218" lon="19.574989">
<ele>858.023926</ele>
<time>2012-04-30T11:17:45Z</time>
<desc>lat.=42.916218, lon.=19.574989, Alt.=858.023926m. Speed=0.072000m/h.</desc>
<speed>0.020000</speed>
</trkpt>
<trkpt lat="42.916218" lon="19.574987">
<ele>858.070801</ele>
<time>2012-04-30T11:17:50Z</time>
<desc>lat.=42.916218, lon.=19.574987, Alt.=858.070801m. Speed=0.684000m/h.</desc>
<speed>0.190000</speed>
</trkpt>
<trkpt lat="42.916214" lon="19.574997">
<ele>858.133301</ele>
<time>2012-04-30T11:17:55Z</time>
<desc>lat.=42.916214, lon.=19.574997, Alt.=858.133301m. Speed=0.324000m/h.</desc>
<speed>0.090000</speed>
</trkpt>
<trkpt lat="42.916214" lon="19.574999">
<ele>858.133301</ele>
<time>2012-04-30T11:18:00Z</time>
<desc>lat.=42.916214, lon.=19.574999, Alt.=858.133301m. Speed=0.180000m/h.</desc>
<speed>0.050000</speed>
</trkpt>
<trkpt lat="42.916214" lon="19.574980">
<ele>856.820801</ele>
<time>2012-04-30T11:18:05Z</time>
<desc>lat.=42.916214, lon.=19.574980, Alt.=856.820801m. Speed=0.684000m/h.</desc>
<speed>0.190000</speed>
</trkpt>
<trkpt lat="42.916214" lon="19.574963">
<ele>855.289551</ele>
<time>2012-04-30T11:18:10Z</time>
<desc>lat.=42.916214, lon.=19.574963, Alt.=855.289551m. Speed=1.692000m/h.</desc>
<speed>0.470000</speed>
</trkpt>
<trkpt lat="42.916206" lon="19.574986">
<ele>854.273926</ele>
<time>2012-04-30T11:18:15Z</time>
<desc>lat.=42.916206, lon.=19.574986, Alt.=854.273926m. Speed=0.792000m/h.</desc>
<speed>0.220000</speed>
</trkpt>
<trkpt lat="42.916206" lon="19.574978">
<ele>853.492676</ele>
<time>2012-04-30T11:18:20Z</time>
<desc>lat.=42.916206, lon.=19.574978, Alt.=853.492676m. Speed=0.396000m/h.</desc>
<speed>0.110000</speed>
</trkpt>
<trkpt lat="42.916191" lon="19.574961">
<ele>852.523926</ele>
<time>2012-04-30T11:18:25Z</time>
<desc>lat.=42.916191, lon.=19.574961, Alt.=852.523926m. Speed=0.540000m/h.</desc>
<speed>0.150000</speed>
</trkpt>
<trkpt lat="42.916206" lon="19.574984">
<ele>852.086426</ele>
<time>2012-04-30T11:18:30Z</time>
<desc>lat.=42.916206, lon.=19.574984, Alt.=852.086426m. Speed=0.108000m/h.</desc>
<speed>0.030000</speed>
</trkpt>
<trkpt lat="42.916203" lon="19.574984">
<ele>850.852051</ele>
<time>2012-04-30T11:18:35Z</time>
<desc>lat.=42.916203, lon.=19.574984, Alt.=850.852051m. Speed=0.108000m/h.</desc>
<speed>0.030000</speed>
</trkpt>
<trkpt lat="42.916157" lon="19.575045">
<ele>849.852051</ele>
<time>2012-04-30T11:18:40Z</time>
<desc>lat.=42.916157, lon.=19.575045, Alt.=849.852051m. Speed=7.668000m/h.</desc>
<speed>2.130000</speed>
</trkpt>
<trkpt lat="42.916054" lon="19.575150">
<ele>848.773926</ele>
<time>2012-04-30T11:18:45Z</time>
<desc>lat.=42.916054, lon.=19.575150, Alt.=848.773926m. Speed=10.692000m/h.</desc>
<speed>2.970000</speed>
</trkpt>
<trkpt lat="42.915924" lon="19.575243">
<ele>847.211426</ele>
<time>2012-04-30T11:18:50Z</time>
<desc>lat.=42.915924, lon.=19.575243, Alt.=847.211426m. Speed=10.692000m/h.</desc>
<speed>2.970000</speed>
</trkpt>
<trkpt lat="42.915882" lon="19.575441">
<ele>846.273926</ele>
<time>2012-04-30T11:18:55Z</time>
<desc>lat.=42.915882, lon.=19.575441, Alt.=846.273926m. Speed=6.156000m/h.</desc>
<speed>1.710000</speed>
</trkpt>
<trkpt lat="42.915882" lon="19.575539">
<ele>847.398926</ele>
<time>2012-04-30T11:19:00Z</time>
<desc>lat.=42.915882, lon.=19.575539, Alt.=847.398926m. Speed=3.492000m/h.</desc>
<speed>0.970000</speed>
</trkpt>
<trkpt lat="42.915829" lon="19.575563">
<ele>848.633301</ele>
<time>2012-04-30T11:19:05Z</time>
<desc>lat.=42.915829, lon.=19.575563, Alt.=848.633301m. Speed=7.488000m/h.</desc>
<speed>2.080000</speed>
</trkpt>
<trkpt lat="42.915695" lon="19.575558">
<ele>850.008301</ele>
<time>2012-04-30T11:19:10Z</time>
<desc>lat.=42.915695, lon.=19.575558, Alt.=850.008301m. Speed=11.952000m/h.</desc>
<speed>3.320000</speed>
</trkpt>
<trkpt lat="42.915535" lon="19.575607">
<ele>851.258301</ele>
<time>2012-04-30T11:19:15Z</time>
<desc>lat.=42.915535, lon.=19.575607, Alt.=851.258301m. Speed=12.744000m/h.</desc>
<speed>3.540000</speed>
</trkpt>
<trkpt lat="42.915348" lon="19.575687">
<ele>851.117676</ele>
<time>2012-04-30T11:19:20Z</time>
<desc>lat.=42.915348, lon.=19.575687, Alt.=851.117676m. Speed=5.508000m/h.</desc>
<speed>1.530000</speed>
</trkpt>
<trkpt lat="42.915279" lon="19.575708">
<ele>852.164551</ele>
<time>2012-04-30T11:19:25Z</time>
<desc>lat.=42.915279, lon.=19.575708, Alt.=852.164551m. Speed=5.328000m/h.</desc>
<speed>1.480000</speed>
</trkpt>
<trkpt lat="42.915192" lon="19.575695">
<ele>853.680176</ele>
<time>2012-04-30T11:19:30Z</time>
<desc>lat.=42.915192, lon.=19.575695, Alt.=853.680176m. Speed=7.776000m/h.</desc>
<speed>2.160000</speed>
</trkpt>
<trkpt lat="42.915028" lon="19.575758">
<ele>855.852051</ele>
<time>2012-04-30T11:19:35Z</time>
<desc>lat.=42.915028, lon.=19.575758, Alt.=855.852051m. Speed=8.172000m/h.</desc>
<speed>2.270000</speed>
</trkpt>
<trkpt lat="42.914867" lon="19.575834">
<ele>859.992676</ele>
<time>2012-04-30T11:19:40Z</time>
<desc>lat.=42.914867, lon.=19.575834, Alt.=859.992676m. Speed=8.784000m/h.</desc>
<speed>2.440000</speed>
</trkpt>
<trkpt lat="42.914742" lon="19.575796">
<ele>863.133301</ele>
<time>2012-04-30T11:19:45Z</time>
<desc>lat.=42.914742, lon.=19.575796, Alt.=863.133301m. Speed=12.924000m/h.</desc>
<speed>3.590000</speed>
</trkpt>
<trkpt lat="42.914570" lon="19.575590">
<ele>866.836426</ele>
<time>2012-04-30T11:19:50Z</time>
<desc>lat.=42.914570, lon.=19.575590, Alt.=866.836426m. Speed=10.908000m/h.</desc>
<speed>3.030000</speed>
</trkpt>
<trkpt lat="42.914318" lon="19.575602">
<ele>865.336426</ele>
<time>2012-04-30T11:19:55Z</time>
<desc>lat.=42.914318, lon.=19.575602, Alt.=865.336426m. Speed=10.656000m/h.</desc>
<speed>2.960000</speed>
</trkpt>
<trkpt lat="42.914238" lon="19.575720">
<ele>865.430176</ele>
<time>2012-04-30T11:20:00Z</time>
<desc>lat.=42.914238, lon.=19.575720, Alt.=865.430176m. Speed=5.292000m/h.</desc>
<speed>1.470000</speed>
</trkpt>
<trkpt lat="42.914234" lon="19.575808">
<ele>866.883301</ele>
<time>2012-04-30T11:20:05Z</time>
<desc>lat.=42.914234, lon.=19.575808, Alt.=866.883301m. Speed=6.264000m/h.</desc>
<speed>1.740000</speed>
</trkpt>
<trkpt lat="42.914276" lon="19.575884">
<ele>867.742676</ele>
<time>2012-04-30T11:20:10Z</time>
<desc>lat.=42.914276, lon.=19.575884, Alt.=867.742676m. Speed=6.660000m/h.</desc>
<speed>1.850000</speed>
</trkpt>
<trkpt lat="42.914337" lon="19.575928">
<ele>868.336426</ele>
<time>2012-04-30T11:20:15Z</time>
<desc>lat.=42.914337, lon.=19.575928, Alt.=868.336426m. Speed=4.932000m/h.</desc>
<speed>1.370000</speed>
</trkpt>
<trkpt lat="42.914425" lon="19.575930">
<ele>868.133301</ele>
<time>2012-04-30T11:20:20Z</time>
<desc>lat.=42.914425, lon.=19.575930, Alt.=868.133301m. Speed=5.400000m/h.</desc>
<speed>1.500000</speed>
</trkpt>
<trkpt lat="42.914516" lon="19.575977">
<ele>868.664551</ele>
<time>2012-04-30T11:20:25Z</time>
<desc>lat.=42.914516, lon.=19.575977, Alt.=868.664551m. Speed=8.208000m/h.</desc>
<speed>2.280000</speed>
</trkpt>
<trkpt lat="42.914597" lon="19.576015">
<ele>869.883301</ele>
<time>2012-04-30T11:20:30Z</time>
<desc>lat.=42.914597, lon.=19.576015, Alt.=869.883301m. Speed=7.560000m/h.</desc>
<speed>2.100000</speed>
</trkpt>
<trkpt lat="42.914734" lon="19.576107">
<ele>870.070801</ele>
<time>2012-04-30T11:20:35Z</time>
<desc>lat.=42.914734, lon.=19.576107, Alt.=870.070801m. Speed=6.804000m/h.</desc>
<speed>1.890000</speed>
</trkpt>
<trkpt lat="42.914814" lon="19.576147">
<ele>870.898926</ele>
<time>2012-04-30T11:20:40Z</time>
<desc>lat.=42.914814, lon.=19.576147, Alt.=870.898926m. Speed=7.776000m/h.</desc>
<speed>2.160000</speed>
</trkpt>
<trkpt lat="42.914913" lon="19.576128">
<ele>869.961426</ele>
<time>2012-04-30T11:20:45Z</time>
<desc>lat.=42.914913, lon.=19.576128, Alt.=869.961426m. Speed=5.364000m/h.</desc>
<speed>1.490000</speed>
</trkpt>
<trkpt lat="42.915012" lon="19.576113">
<ele>870.867676</ele>
<time>2012-04-30T11:20:50Z</time>
<desc>lat.=42.915012, lon.=19.576113, Alt.=870.867676m. Speed=6.588000m/h.</desc>
<speed>1.830000</speed>
</trkpt>
<trkpt lat="42.915081" lon="19.576155">
<ele>870.961426</ele>
<time>2012-04-30T11:20:55Z</time>
<desc>lat.=42.915081, lon.=19.576155, Alt.=870.961426m. Speed=5.724000m/h.</desc>
<speed>1.590000</speed>
</trkpt>
<trkpt lat="42.915154" lon="19.576178">
<ele>871.820801</ele>
<time>2012-04-30T11:21:00Z</time>
<desc>lat.=42.915154, lon.=19.576178, Alt.=871.820801m. Speed=5.436000m/h.</desc>
<speed>1.510000</speed>
</trkpt>
<trkpt lat="42.915241" lon="19.576162">
<ele>872.414551</ele>
<time>2012-04-30T11:21:05Z</time>
<desc>lat.=42.915241, lon.=19.576162, Alt.=872.414551m. Speed=5.040000m/h.</desc>
<speed>1.400000</speed>
</trkpt>
<trkpt lat="42.915329" lon="19.576166">
<ele>874.523926</ele>
<time>2012-04-30T11:21:10Z</time>
<desc>lat.=42.915329, lon.=19.576166, Alt.=874.523926m. Speed=6.552000m/h.</desc>
<speed>1.820000</speed>
</trkpt>
<trkpt lat="42.915417" lon="19.576202">
<ele>877.695801</ele>
<time>2012-04-30T11:21:15Z</time>
<desc>lat.=42.915417, lon.=19.576202, Alt.=877.695801m. Speed=4.968000m/h.</desc>
<speed>1.380000</speed>
</trkpt>
<trkpt lat="42.915508" lon="19.576275">
<ele>879.711426</ele>
<time>2012-04-30T11:21:20Z</time>
<desc>lat.=42.915508, lon.=19.576275, Alt.=879.711426m. Speed=5.904000m/h.</desc>
<speed>1.640000</speed>
</trkpt>
<trkpt lat="42.915627" lon="19.576374">
<ele>881.945801</ele>
<time>2012-04-30T11:21:25Z</time>
<desc>lat.=42.915627, lon.=19.576374, Alt.=881.945801m. Speed=8.388000m/h.</desc>
<speed>2.330000</speed>
</trkpt>
<trkpt lat="42.915710" lon="19.576410">
<ele>883.977051</ele>
<time>2012-04-30T11:21:30Z</time>
<desc>lat.=42.915710, lon.=19.576410, Alt.=883.977051m. Speed=6.660000m/h.</desc>
<speed>1.850000</speed>
</trkpt>
<trkpt lat="42.915833" lon="19.576412">
<ele>886.820801</ele>
<time>2012-04-30T11:21:35Z</time>
<desc>lat.=42.915833, lon.=19.576412, Alt.=886.820801m. Speed=5.868000m/h.</desc>
<speed>1.630000</speed>
</trkpt>
<trkpt lat="42.915909" lon="19.576429">
<ele>889.820801</ele>
<time>2012-04-30T11:21:40Z</time>
<desc>lat.=42.915909, lon.=19.576429, Alt.=889.820801m. Speed=7.236000m/h.</desc>
<speed>2.010000</speed>
</trkpt>
<trkpt lat="42.916012" lon="19.576387">
<ele>893.383301</ele>
<time>2012-04-30T11:21:45Z</time>
<desc>lat.=42.916012, lon.=19.576387, Alt.=893.383301m. Speed=6.948000m/h.</desc>
<speed>1.930000</speed>
</trkpt>
<trkpt lat="42.916103" lon="19.576424">
<ele>894.883301</ele>
<time>2012-04-30T11:21:50Z</time>
<desc>lat.=42.916103, lon.=19.576424, Alt.=894.883301m. Speed=6.264000m/h.</desc>
<speed>1.740000</speed>
</trkpt>
<trkpt lat="42.916203" lon="19.576435">
<ele>893.023926</ele>
<time>2012-04-30T11:21:55Z</time>
<desc>lat.=42.916203, lon.=19.576435, Alt.=893.023926m. Speed=6.012000m/h.</desc>
<speed>1.670000</speed>
</trkpt>
<trkpt lat="42.916271" lon="19.576542">
<ele>890.695801</ele>
<time>2012-04-30T11:22:00Z</time>
<desc>lat.=42.916271, lon.=19.576542, Alt.=890.695801m. Speed=7.128000m/h.</desc>
<speed>1.980000</speed>
</trkpt>
<trkpt lat="42.916344" lon="19.576714">
<ele>887.867676</ele>
<time>2012-04-30T11:22:05Z</time>
<desc>lat.=42.916344, lon.=19.576714, Alt.=887.867676m. Speed=5.868000m/h.</desc>
<speed>1.630000</speed>
</trkpt>
<trkpt lat="42.916367" lon="19.576834">
<ele>885.992676</ele>
<time>2012-04-30T11:22:10Z</time>
<desc>lat.=42.916367, lon.=19.576834, Alt.=885.992676m. Speed=7.992000m/h.</desc>
<speed>2.220000</speed>
</trkpt>
<trkpt lat="42.916397" lon="19.576969">
<ele>884.414551</ele>
<time>2012-04-30T11:22:15Z</time>
<desc>lat.=42.916397, lon.=19.576969, Alt.=884.414551m. Speed=4.716000m/h.</desc>
<speed>1.310000</speed>
</trkpt>
<trkpt lat="42.916416" lon="19.577105">
<ele>882.836426</ele>
<time>2012-04-30T11:22:20Z</time>
<desc>lat.=42.916416, lon.=19.577105, Alt.=882.836426m. Speed=6.120000m/h.</desc>
<speed>1.700000</speed>
</trkpt>
<trkpt lat="42.916451" lon="19.577169">
<ele>881.086426</ele>
<time>2012-04-30T11:22:25Z</time>
<desc>lat.=42.916451, lon.=19.577169, Alt.=881.086426m. Speed=0.288000m/h.</desc>
<speed>0.080000</speed>
</trkpt>
<trkpt lat="42.916431" lon="19.577168">
<ele>880.961426</ele>
<time>2012-04-30T11:22:30Z</time>
<desc>lat.=42.916431, lon.=19.577168, Alt.=880.961426m. Speed=0.000000m/h.</desc>
<speed>0.000000</speed>
</trkpt>
<trkpt lat="42.916431" lon="19.577168">
<ele>880.914551</ele>
<time>2012-04-30T11:22:35Z</time>
<desc>lat.=42.916431, lon.=19.577168, Alt.=880.914551m. Speed=0.072000m/h.</desc>
<speed>0.020000</speed>
</trkpt>
<trkpt lat="42.916435" lon="19.577168">
<ele>880.930176</ele>
<time>2012-04-30T11:22:40Z</time>
<desc>lat.=42.916435, lon.=19.577168, Alt.=880.930176m. Speed=0.000000m/h.</desc>
<speed>0.000000</speed>
</trkpt>
<trkpt lat="42.916435" lon="19.577168">
<ele>881.008301</ele>
<time>2012-04-30T11:22:45Z</time>
<desc>lat.=42.916435, lon.=19.577168, Alt.=881.008301m. Speed=0.072000m/h.</desc>
<speed>0.020000</speed>
</trkpt>
<trkpt lat="42.916435" lon="19.577168">
<ele>880.961426</ele>
<time>2012-04-30T11:22:50Z</time>
<desc>lat.=42.916435, lon.=19.577168, Alt.=880.961426m. Speed=0.036000m/h.</desc>
<speed>0.010000</speed>
</trkpt>
<trkpt lat="42.916435" lon="19.577168">
<ele>880.977051</ele>
<time>2012-04-30T11:22:55Z</time>
<desc>lat.=42.916435, lon.=19.577168, Alt.=880.977051m. Speed=0.000000m/h.</desc>
<speed>0.000000</speed>
</trkpt>
<trkpt lat="42.916435" lon="19.577168">
<ele>880.945801</ele>
<time>2012-04-30T11:23:00Z</time>
<desc>lat.=42.916435, lon.=19.577168, Alt.=880.945801m. Speed=0.072000m/h.</desc>
<speed>0.020000</speed>
</trkpt>
<trkpt lat="42.916435" lon="19.577168">
<ele>880.930176</ele>
<time>2012-04-30T11:23:05Z</time>
<desc>lat.=42.916435, lon.=19.577168, Alt.=880.930176m. Speed=0.000000m/h.</desc>
<speed>0.000000</speed>
</trkpt>
<trkpt lat="42.916435" lon="19.577168">
<ele>880.898926</ele>
<time>2012-04-30T11:23:10Z</time>
<desc>lat.=42.916435, lon.=19.577168, Alt.=880.898926m. Speed=0.000000m/h.</desc>
<speed>0.000000</speed>
</trkpt>
<trkpt lat="42.916435" lon="19.577168">
<ele>880.883301</ele>
<time>2012-04-30T11:23:15Z</time>
<desc>lat.=42.916435, lon.=19.577168, Alt.=880.883301m. Speed=0.000000m/h.</desc>
<speed>0.000000</speed>
</trkpt>
<trkpt lat="42.916435" lon="19.577168">
<ele>880.883301</ele>
<time>2012-04-30T11:23:20Z</time>
<desc>lat.=42.916435, lon.=19.577168, Alt.=880.883301m. Speed=0.000000m/h.</desc>
<speed>0.000000</speed>
</trkpt>
<trkpt lat="42.916435" lon="19.577168">
<ele>880.883301</ele>
<time>2012-04-30T11:23:25Z</time>
<desc>lat.=42.916435, lon.=19.577168, Alt.=880.883301m. Speed=0.000000m/h.</desc>
<speed>0.000000</speed>
</trkpt>
<trkpt lat="42.916435" lon="19.577168">
<ele>880.898926</ele>
<time>2012-04-30T11:23:30Z</time>
<desc>lat.=42.916435, lon.=19.577168, Alt.=880.898926m. Speed=0.000000m/h.</desc>
<speed>0.000000</speed>
</trkpt>
<trkpt lat="42.916435" lon="19.577168">
<ele>880.898926</ele>
<time>2012-04-30T11:23:35Z</time>
<desc>lat.=42.916435, lon.=19.577168, Alt.=880.898926m. Speed=0.036000m/h.</desc>
<speed>0.010000</speed>
</trkpt>
<trkpt lat="42.916435" lon="19.577168">
<ele>880.898926</ele>
<time>2012-04-30T11:23:40Z</time>
<desc>lat.=42.916435, lon.=19.577168, Alt.=880.898926m. Speed=0.000000m/h.</desc>
<speed>0.000000</speed>
</trkpt>
<trkpt lat="42.916435" lon="19.577168">
<ele>880.898926</ele>
<time>2012-04-30T11:23:45Z</time>
<desc>lat.=42.916435, lon.=19.577168, Alt.=880.898926m. Speed=0.144000m/h.</desc>
<speed>0.040000</speed>
</trkpt>
<trkpt lat="42.916435" lon="19.577171">
<ele>880.898926</ele>
<time>2012-04-30T11:23:50Z</time>
<desc>lat.=42.916435, lon.=19.577171, Alt.=880.898926m. Speed=0.468000m/h.</desc>
<speed>0.130000</speed>
</trkpt>
<trkpt lat="42.916435" lon="19.577173">
<ele>880.883301</ele>
<time>2012-04-30T11:23:55Z</time>
<desc>lat.=42.916435, lon.=19.577173, Alt.=880.883301m. Speed=0.000000m/h.</desc>
<speed>0.000000</speed>
</trkpt>
<trkpt lat="42.916435" lon="19.577173">
<ele>880.852051</ele>
<time>2012-04-30T11:24:00Z</time>
<desc>lat.=42.916435, lon.=19.577173, Alt.=880.852051m. Speed=0.000000m/h.</desc>
<speed>0.000000</speed>
</trkpt>
<trkpt lat="42.916435" lon="19.577173">
<ele>880.836426</ele>
<time>2012-04-30T11:24:05Z</time>
<desc>lat.=42.916435, lon.=19.577173, Alt.=880.836426m. Speed=0.072000m/h.</desc>
<speed>0.020000</speed>
</trkpt>
<trkpt lat="42.916435" lon="19.577173">
<ele>880.836426</ele>
<time>2012-04-30T11:24:10Z</time>
<desc>lat.=42.916435, lon.=19.577173, Alt.=880.836426m. Speed=0.072000m/h.</desc>
<speed>0.020000</speed>
</trkpt>
<trkpt lat="42.916435" lon="19.577177">
<ele>880.820801</ele>
<time>2012-04-30T11:24:15Z</time>
<desc>lat.=42.916435, lon.=19.577177, Alt.=880.820801m. Speed=1.728000m/h.</desc>
<speed>0.480000</speed>
</trkpt>
<trkpt lat="42.916492" lon="19.577173">
<ele>880.180176</ele>
<time>2012-04-30T11:24:20Z</time>
<desc>lat.=42.916492, lon.=19.577173, Alt.=880.180176m. Speed=1.692000m/h.</desc>
<speed>0.470000</speed>
</trkpt>
<trkpt lat="42.916542" lon="19.577181">
<ele>880.102051</ele>
<time>2012-04-30T11:24:25Z</time>
<desc>lat.=42.916542, lon.=19.577181, Alt.=880.102051m. Speed=3.384000m/h.</desc>
<speed>0.940000</speed>
</trkpt>
<trkpt lat="42.916553" lon="19.577234">
<ele>880.117676</ele>
<time>2012-04-30T11:24:30Z</time>
<desc>lat.=42.916553, lon.=19.577234, Alt.=880.117676m. Speed=2.232000m/h.</desc>
<speed>0.620000</speed>
</trkpt>
<trkpt lat="42.916561" lon="19.577271">
<ele>878.664551</ele>
<time>2012-04-30T11:24:35Z</time>
<desc>lat.=42.916561, lon.=19.577271, Alt.=878.664551m. Speed=1.188000m/h.</desc>
<speed>0.330000</speed>
</trkpt>
<trkpt lat="42.916576" lon="19.577303">
<ele>878.008301</ele>
<time>2012-04-30T11:24:40Z</time>
<desc>lat.=42.916576, lon.=19.577303, Alt.=878.008301m. Speed=2.160000m/h.</desc>
<speed>0.600000</speed>
</trkpt>
<trkpt lat="42.916595" lon="19.577353">
<ele>877.383301</ele>
<time>2012-04-30T11:24:45Z</time>
<desc>lat.=42.916595, lon.=19.577353, Alt.=877.383301m. Speed=4.500000m/h.</desc>
<speed>1.250000</speed>
</trkpt>
<trkpt lat="42.916622" lon="19.577381">
<ele>876.352051</ele>
<time>2012-04-30T11:24:50Z</time>
<desc>lat.=42.916622, lon.=19.577381, Alt.=876.352051m. Speed=3.852000m/h.</desc>
<speed>1.070000</speed>
</trkpt>
<trkpt lat="42.916676" lon="19.577372">
<ele>875.930176</ele>
<time>2012-04-30T11:24:55Z</time>
<desc>lat.=42.916676, lon.=19.577372, Alt.=875.930176m. Speed=5.220000m/h.</desc>
<speed>1.450000</speed>
</trkpt>
<trkpt lat="42.916718" lon="19.577372">
<ele>874.758301</ele>
<time>2012-04-30T11:25:00Z</time>
<desc>lat.=42.916718, lon.=19.577372, Alt.=874.758301m. Speed=0.756000m/h.</desc>
<speed>0.210000</speed>
</trkpt>
<trkpt lat="42.916729" lon="19.577375">
<ele>874.352051</ele>
<time>2012-04-30T11:25:05Z</time>
<desc>lat.=42.916729, lon.=19.577375, Alt.=874.352051m. Speed=2.232000m/h.</desc>
<speed>0.620000</speed>
</trkpt>
<trkpt lat="42.916729" lon="19.577412">
<ele>875.367676</ele>
<time>2012-04-30T11:25:10Z</time>
<desc>lat.=42.916729, lon.=19.577412, Alt.=875.367676m. Speed=1.116000m/h.</desc>
<speed>0.310000</speed>
</trkpt>
<trkpt lat="42.916737" lon="19.577431">
<ele>875.898926</ele>
<time>2012-04-30T11:25:15Z</time>
<desc>lat.=42.916737, lon.=19.577431, Alt.=875.898926m. Speed=1.620000m/h.</desc>
<speed>0.450000</speed>
</trkpt>
<trkpt lat="42.916763" lon="19.577459">
<ele>876.289551</ele>
<time>2012-04-30T11:25:20Z</time>
<desc>lat.=42.916763, lon.=19.577459, Alt.=876.289551m. Speed=2.052000m/h.</desc>
<speed>0.570000</speed>
</trkpt>
<trkpt lat="42.916771" lon="19.577478">
<ele>876.680176</ele>
<time>2012-04-30T11:25:25Z</time>
<desc>lat.=42.916771, lon.=19.577478, Alt.=876.680176m. Speed=1.188000m/h.</desc>
<speed>0.330000</speed>
</trkpt>
<trkpt lat="42.916775" lon="19.577503">
<ele>877.492676</ele>
<time>2012-04-30T11:25:30Z</time>
<desc>lat.=42.916775, lon.=19.577503, Alt.=877.492676m. Speed=1.080000m/h.</desc>
<speed>0.300000</speed>
</trkpt>
<trkpt lat="42.916794" lon="19.577551">
<ele>879.383301</ele>
<time>2012-04-30T11:25:35Z</time>
<desc>lat.=42.916794, lon.=19.577551, Alt.=879.383301m. Speed=1.440000m/h.</desc>
<speed>0.400000</speed>
</trkpt>
<trkpt lat="42.916794" lon="19.577551">
<ele>879.711426</ele>
<time>2012-04-30T11:25:40Z</time>
<desc>lat.=42.916794, lon.=19.577551, Alt.=879.711426m. Speed=0.432000m/h.</desc>
<speed>0.120000</speed>
</trkpt>
<trkpt lat="42.916790" lon="19.577549">
<ele>879.836426</ele>
<time>2012-04-30T11:25:45Z</time>
<desc>lat.=42.916790, lon.=19.577549, Alt.=879.836426m. Speed=0.576000m/h.</desc>
<speed>0.160000</speed>
</trkpt>
<trkpt lat="42.916813" lon="19.577576">
<ele>880.398926</ele>
<time>2012-04-30T11:25:50Z</time>
<desc>lat.=42.916813, lon.=19.577576, Alt.=880.398926m. Speed=2.160000m/h.</desc>
<speed>0.600000</speed>
</trkpt>
<trkpt lat="42.916828" lon="19.577600">
<ele>881.148926</ele>
<time>2012-04-30T11:25:55Z</time>
<desc>lat.=42.916828, lon.=19.577600, Alt.=881.148926m. Speed=1.296000m/h.</desc>
<speed>0.360000</speed>
</trkpt>
<trkpt lat="42.916790" lon="19.577599">
<ele>881.539551</ele>
<time>2012-04-30T11:26:00Z</time>
<desc>lat.=42.916790, lon.=19.577599, Alt.=881.539551m. Speed=1.656000m/h.</desc>
<speed>0.460000</speed>
</trkpt>
<trkpt lat="42.916771" lon="19.577620">
<ele>882.805176</ele>
<time>2012-04-30T11:26:05Z</time>
<desc>lat.=42.916771, lon.=19.577620, Alt.=882.805176m. Speed=2.520000m/h.</desc>
<speed>0.700000</speed>
</trkpt>
<trkpt lat="42.916763" lon="19.577658">
<ele>883.602051</ele>
<time>2012-04-30T11:26:10Z</time>
<desc>lat.=42.916763, lon.=19.577658, Alt.=883.602051m. Speed=0.504000m/h.</desc>
<speed>0.140000</speed>
</trkpt>
<trkpt lat="42.916771" lon="19.577721">
<ele>883.133301</ele>
<time>2012-04-30T11:26:15Z</time>
<desc>lat.=42.916771, lon.=19.577721, Alt.=883.133301m. Speed=4.608000m/h.</desc>
<speed>1.280000</speed>
</trkpt>
<trkpt lat="42.916779" lon="19.577785">
<ele>883.461426</ele>
<time>2012-04-30T11:26:20Z</time>
<desc>lat.=42.916779, lon.=19.577785, Alt.=883.461426m. Speed=1.368000m/h.</desc>
<speed>0.380000</speed>
</trkpt>
<trkpt lat="42.916771" lon="19.577862">
<ele>883.758301</ele>
<time>2012-04-30T11:26:25Z</time>
<desc>lat.=42.916771, lon.=19.577862, Alt.=883.758301m. Speed=7.056000m/h.</desc>
<speed>1.960000</speed>
</trkpt>
<trkpt lat="42.916775" lon="19.577969">
<ele>884.070801</ele>
<time>2012-04-30T11:26:30Z</time>
<desc>lat.=42.916775, lon.=19.577969, Alt.=884.070801m. Speed=5.436000m/h.</desc>
<speed>1.510000</speed>
</trkpt>
<trkpt lat="42.916763" lon="19.578072">
<ele>883.789551</ele>
<time>2012-04-30T11:26:35Z</time>
<desc>lat.=42.916763, lon.=19.578072, Alt.=883.789551m. Speed=3.888000m/h.</desc>
<speed>1.080000</speed>
</trkpt>
<trkpt lat="42.916706" lon="19.578072">
<ele>883.820801</ele>
<time>2012-04-30T11:26:40Z</time>
<desc>lat.=42.916706, lon.=19.578072, Alt.=883.820801m. Speed=5.328000m/h.</desc>
<speed>1.480000</speed>
</trkpt>
<trkpt lat="42.916656" lon="19.577995">
<ele>885.008301</ele>
<time>2012-04-30T11:26:45Z</time>
<desc>lat.=42.916656, lon.=19.577995, Alt.=885.008301m. Speed=5.472000m/h.</desc>
<speed>1.520000</speed>
</trkpt>
<trkpt lat="42.916599" lon="19.577944">
<ele>885.289551</ele>
<time>2012-04-30T11:26:50Z</time>
<desc>lat.=42.916599, lon.=19.577944, Alt.=885.289551m. Speed=5.832000m/h.</desc>
<speed>1.620000</speed>
</trkpt>
<trkpt lat="42.916538" lon="19.577927">
<ele>885.414551</ele>
<time>2012-04-30T11:26:55Z</time>
<desc>lat.=42.916538, lon.=19.577927, Alt.=885.414551m. Speed=5.472000m/h.</desc>
<speed>1.520000</speed>
</trkpt>
<trkpt lat="42.916431" lon="19.577909">
<ele>885.242676</ele>
<time>2012-04-30T11:27:00Z</time>
<desc>lat.=42.916431, lon.=19.577909, Alt.=885.242676m. Speed=7.308000m/h.</desc>
<speed>2.030000</speed>
</trkpt>
<trkpt lat="42.916302" lon="19.577938">
<ele>886.430176</ele>
<time>2012-04-30T11:27:05Z</time>
<desc>lat.=42.916302, lon.=19.577938, Alt.=886.430176m. Speed=9.324000m/h.</desc>
<speed>2.590000</speed>
</trkpt>
<trkpt lat="42.916199" lon="19.578009">
<ele>887.570801</ele>
<time>2012-04-30T11:27:10Z</time>
<desc>lat.=42.916199, lon.=19.578009, Alt.=887.570801m. Speed=7.488000m/h.</desc>
<speed>2.080000</speed>
</trkpt>
<trkpt lat="42.916088" lon="19.578039">
<ele>887.711426</ele>
<time>2012-04-30T11:27:15Z</time>
<desc>lat.=42.916088, lon.=19.578039, Alt.=887.711426m. Speed=8.208000m/h.</desc>
<speed>2.280000</speed>
</trkpt>
<trkpt lat="42.915977" lon="19.578051">
<ele>888.602051</ele>
<time>2012-04-30T11:27:20Z</time>
<desc>lat.=42.915977, lon.=19.578051, Alt.=888.602051m. Speed=8.244000m/h.</desc>
<speed>2.290000</speed>
</trkpt>
<trkpt lat="42.915874" lon="19.578054">
<ele>889.477051</ele>
<time>2012-04-30T11:27:25Z</time>
<desc>lat.=42.915874, lon.=19.578054, Alt.=889.477051m. Speed=4.644000m/h.</desc>
<speed>1.290000</speed>
</trkpt>
<trkpt lat="42.915760" lon="19.578016">
<ele>891.711426</ele>
<time>2012-04-30T11:27:30Z</time>
<desc>lat.=42.915760, lon.=19.578016, Alt.=891.711426m. Speed=8.208000m/h.</desc>
<speed>2.280000</speed>
</trkpt>
<trkpt lat="42.915657" lon="19.577948">
<ele>892.320801</ele>
<time>2012-04-30T11:27:35Z</time>
<desc>lat.=42.915657, lon.=19.577948, Alt.=892.320801m. Speed=5.580000m/h.</desc>
<speed>1.550000</speed>
</trkpt>
<trkpt lat="42.915585" lon="19.577881">
<ele>892.695801</ele>
<time>2012-04-30T11:27:40Z</time>
<desc>lat.=42.915585, lon.=19.577881, Alt.=892.695801m. Speed=6.300000m/h.</desc>
<speed>1.750000</speed>
</trkpt>
<trkpt lat="42.915501" lon="19.577827">
<ele>893.555176</ele>
<time>2012-04-30T11:27:45Z</time>
<desc>lat.=42.915501, lon.=19.577827, Alt.=893.555176m. Speed=6.372000m/h.</desc>
<speed>1.770000</speed>
</trkpt>
<trkpt lat="42.915424" lon="19.577787">
<ele>894.383301</ele>
<time>2012-04-30T11:27:50Z</time>
<desc>lat.=42.915424, lon.=19.577787, Alt.=894.383301m. Speed=7.380000m/h.</desc>
<speed>2.050000</speed>
</trkpt>
<trkpt lat="42.915325" lon="19.577738">
<ele>895.242676</ele>
<time>2012-04-30T11:27:55Z</time>
<desc>lat.=42.915325, lon.=19.577738, Alt.=895.242676m. Speed=7.668000m/h.</desc>
<speed>2.130000</speed>
</trkpt>
<trkpt lat="42.915234" lon="19.577703">
<ele>897.414551</ele>
<time>2012-04-30T11:28:00Z</time>
<desc>lat.=42.915234, lon.=19.577703, Alt.=897.414551m. Speed=7.884000m/h.</desc>
<speed>2.190000</speed>
</trkpt>
<trkpt lat="42.915176" lon="19.577787">
<ele>899.195801</ele>
<time>2012-04-30T11:28:05Z</time>
<desc>lat.=42.915176, lon.=19.577787, Alt.=899.195801m. Speed=8.424000m/h.</desc>
<speed>2.340000</speed>
</trkpt>
<trkpt lat="42.915157" lon="19.577925">
<ele>901.164551</ele>
<time>2012-04-30T11:28:10Z</time>
<desc>lat.=42.915157, lon.=19.577925, Alt.=901.164551m. Speed=3.996000m/h.</desc>
<speed>1.110000</speed>
</trkpt>
<trkpt lat="42.915237" lon="19.577932">
<ele>902.195801</ele>
<time>2012-04-30T11:28:15Z</time>
<desc>lat.=42.915237, lon.=19.577932, Alt.=902.195801m. Speed=5.112000m/h.</desc>
<speed>1.420000</speed>
</trkpt>
<trkpt lat="42.915363" lon="19.577929">
<ele>902.789551</ele>
<time>2012-04-30T11:28:20Z</time>
<desc>lat.=42.915363, lon.=19.577929, Alt.=902.789551m. Speed=6.732000m/h.</desc>
<speed>1.870000</speed>
</trkpt>
<trkpt lat="42.915462" lon="19.577984">
<ele>902.102051</ele>
<time>2012-04-30T11:28:25Z</time>
<desc>lat.=42.915462, lon.=19.577984, Alt.=902.102051m. Speed=9.000000m/h.</desc>
<speed>2.500000</speed>
</trkpt>
<trkpt lat="42.915516" lon="19.578075">
<ele>901.617676</ele>
<time>2012-04-30T11:28:30Z</time>
<desc>lat.=42.915516, lon.=19.578075, Alt.=901.617676m. Speed=6.912000m/h.</desc>
<speed>1.920000</speed>
</trkpt>
<trkpt lat="42.915588" lon="19.578180">
<ele>900.617676</ele>
<time>2012-04-30T11:28:35Z</time>
<desc>lat.=42.915588, lon.=19.578180, Alt.=900.617676m. Speed=8.028000m/h.</desc>
<speed>2.230000</speed>
</trkpt>
<trkpt lat="42.915638" lon="19.578291">
<ele>900.117676</ele>
<time>2012-04-30T11:28:40Z</time>
<desc>lat.=42.915638, lon.=19.578291, Alt.=900.117676m. Speed=7.524000m/h.</desc>
<speed>2.090000</speed>
</trkpt>
<trkpt lat="42.915699" lon="19.578367">
<ele>900.492676</ele>
<time>2012-04-30T11:28:45Z</time>
<desc>lat.=42.915699, lon.=19.578367, Alt.=900.492676m. Speed=6.084000m/h.</desc>
<speed>1.690000</speed>
</trkpt>
<trkpt lat="42.915752" lon="19.578457">
<ele>901.398926</ele>
<time>2012-04-30T11:28:50Z</time>
<desc>lat.=42.915752, lon.=19.578457, Alt.=901.398926m. Speed=7.164000m/h.</desc>
<speed>1.990000</speed>
</trkpt>
<trkpt lat="42.915825" lon="19.578541">
<ele>901.305176</ele>
<time>2012-04-30T11:28:55Z</time>
<desc>lat.=42.915825, lon.=19.578541, Alt.=901.305176m. Speed=7.668000m/h.</desc>
<speed>2.130000</speed>
</trkpt>
<trkpt lat="42.915894" lon="19.578600">
<ele>901.352051</ele>
<time>2012-04-30T11:29:00Z</time>
<desc>lat.=42.915894, lon.=19.578600, Alt.=901.352051m. Speed=4.644000m/h.</desc>
<speed>1.290000</speed>
</trkpt>
<trkpt lat="42.915970" lon="19.578646">
<ele>903.695801</ele>
<time>2012-04-30T11:29:05Z</time>
<desc>lat.=42.915970, lon.=19.578646, Alt.=903.695801m. Speed=7.200000m/h.</desc>
<speed>2.000000</speed>
</trkpt>
<trkpt lat="42.916107" lon="19.578709">
<ele>904.445801</ele>
<time>2012-04-30T11:29:10Z</time>
<desc>lat.=42.916107, lon.=19.578709, Alt.=904.445801m. Speed=6.588000m/h.</desc>
<speed>1.830000</speed>
</trkpt>
<trkpt lat="42.916153" lon="19.578814">
<ele>904.227051</ele>
<time>2012-04-30T11:29:15Z</time>
<desc>lat.=42.916153, lon.=19.578814, Alt.=904.227051m. Speed=7.488000m/h.</desc>
<speed>2.080000</speed>
</trkpt>
<trkpt lat="42.916115" lon="19.578909">
<ele>907.258301</ele>
<time>2012-04-30T11:29:20Z</time>
<desc>lat.=42.916115, lon.=19.578909, Alt.=907.258301m. Speed=5.544000m/h.</desc>
<speed>1.540000</speed>
</trkpt>
<trkpt lat="42.916088" lon="19.578947">
<ele>909.086426</ele>
<time>2012-04-30T11:29:25Z</time>
<desc>lat.=42.916088, lon.=19.578947, Alt.=909.086426m. Speed=1.872000m/h.</desc>
<speed>0.520000</speed>
</trkpt>
<trkpt lat="42.916039" lon="19.578865">
<ele>913.336426</ele>
<time>2012-04-30T11:29:30Z</time>
<desc>lat.=42.916039, lon.=19.578865, Alt.=913.336426m. Speed=4.464000m/h.</desc>
<speed>1.240000</speed>
</trkpt>
<trkpt lat="42.915977" lon="19.578779">
<ele>915.914551</ele>
<time>2012-04-30T11:29:35Z</time>
<desc>lat.=42.915977, lon.=19.578779, Alt.=915.914551m. Speed=2.304000m/h.</desc>
<speed>0.640000</speed>
</trkpt>
<trkpt lat="42.915890" lon="19.578781">
<ele>919.117676</ele>
<time>2012-04-30T11:29:40Z</time>
<desc>lat.=42.915890, lon.=19.578781, Alt.=919.117676m. Speed=3.492000m/h.</desc>
<speed>0.970000</speed>
</trkpt>
<trkpt lat="42.915825" lon="19.578726">
<ele>921.258301</ele>
<time>2012-04-30T11:29:45Z</time>
<desc>lat.=42.915825, lon.=19.578726, Alt.=921.258301m. Speed=4.608000m/h.</desc>
<speed>1.280000</speed>
</trkpt>
<trkpt lat="42.915741" lon="19.578667">
<ele>923.133301</ele>
<time>2012-04-30T11:29:50Z</time>
<desc>lat.=42.915741, lon.=19.578667, Alt.=923.133301m. Speed=3.528000m/h.</desc>
<speed>0.980000</speed>
</trkpt>
<trkpt lat="42.915684" lon="19.578640">
<ele>924.867676</ele>
<time>2012-04-30T11:29:55Z</time>
<desc>lat.=42.915684, lon.=19.578640, Alt.=924.867676m. Speed=2.736000m/h.</desc>
<speed>0.760000</speed>
</trkpt>
<trkpt lat="42.915646" lon="19.578587">
<ele>926.867676</ele>
<time>2012-04-30T11:30:00Z</time>
<desc>lat.=42.915646, lon.=19.578587, Alt.=926.867676m. Speed=3.816000m/h.</desc>
<speed>1.060000</speed>
</trkpt>
<trkpt lat="42.915581" lon="19.578560">
<ele>928.633301</ele>
<time>2012-04-30T11:30:05Z</time>
<desc>lat.=42.915581, lon.=19.578560, Alt.=928.633301m. Speed=2.340000m/h.</desc>
<speed>0.650000</speed>
</trkpt>
<trkpt lat="42.915558" lon="19.578571">
<ele>930.195801</ele>
<time>2012-04-30T11:30:10Z</time>
<desc>lat.=42.915558, lon.=19.578571, Alt.=930.195801m. Speed=0.756000m/h.</desc>
<speed>0.210000</speed>
</trkpt>
<trkpt lat="42.915535" lon="19.578547">
<ele>931.461426</ele>
<time>2012-04-30T11:30:15Z</time>
<desc>lat.=42.915535, lon.=19.578547, Alt.=931.461426m. Speed=1.260000m/h.</desc>
<speed>0.350000</speed>
</trkpt>
<trkpt lat="42.915497" lon="19.578526">
<ele>932.633301</ele>
<time>2012-04-30T11:30:20Z</time>
<desc>lat.=42.915497, lon.=19.578526, Alt.=932.633301m. Speed=1.296000m/h.</desc>
<speed>0.360000</speed>
</trkpt>
<trkpt lat="42.915421" lon="19.578480">
<ele>933.992676</ele>
<time>2012-04-30T11:30:25Z</time>
<desc>lat.=42.915421, lon.=19.578480, Alt.=933.992676m. Speed=3.060000m/h.</desc>
<speed>0.850000</speed>
</trkpt>
<trkpt lat="42.915318" lon="19.578423">
<ele>936.461426</ele>
<time>2012-04-30T11:30:30Z</time>
<desc>lat.=42.915318, lon.=19.578423, Alt.=936.461426m. Speed=6.156000m/h.</desc>
<speed>1.710000</speed>
</trkpt>
<trkpt lat="42.915241" lon="19.578323">
<ele>940.039551</ele>
<time>2012-04-30T11:30:35Z</time>
<desc>lat.=42.915241, lon.=19.578323, Alt.=940.039551m. Speed=4.212000m/h.</desc>
<speed>1.170000</speed>
</trkpt>
<trkpt lat="42.915157" lon="19.578249">
<ele>944.477051</ele>
<time>2012-04-30T11:30:40Z</time>
<desc>lat.=42.915157, lon.=19.578249, Alt.=944.477051m. Speed=4.392000m/h.</desc>
<speed>1.220000</speed>
</trkpt>
<trkpt lat="42.915100" lon="19.578135">
<ele>948.805176</ele>
<time>2012-04-30T11:30:45Z</time>
<desc>lat.=42.915100, lon.=19.578135, Alt.=948.805176m. Speed=5.436000m/h.</desc>
<speed>1.510000</speed>
</trkpt>
<trkpt lat="42.915058" lon="19.578028">
<ele>952.430176</ele>
<time>2012-04-30T11:30:50Z</time>
<desc>lat.=42.915058, lon.=19.578028, Alt.=952.430176m. Speed=6.552000m/h.</desc>
<speed>1.820000</speed>
</trkpt>
<trkpt lat="42.914982" lon="19.577929">
<ele>954.867676</ele>
<time>2012-04-30T11:30:55Z</time>
<desc>lat.=42.914982, lon.=19.577929, Alt.=954.867676m. Speed=6.192000m/h.</desc>
<speed>1.720000</speed>
</trkpt>
<trkpt lat="42.914879" lon="19.577839">
<ele>957.727051</ele>
<time>2012-04-30T11:31:00Z</time>
<desc>lat.=42.914879, lon.=19.577839, Alt.=957.727051m. Speed=7.056000m/h.</desc>
<speed>1.960000</speed>
</trkpt>
<trkpt lat="42.914799" lon="19.577793">
<ele>958.023926</ele>
<time>2012-04-30T11:31:05Z</time>
<desc>lat.=42.914799, lon.=19.577793, Alt.=958.023926m. Speed=4.320000m/h.</desc>
<speed>1.200000</speed>
</trkpt>
<trkpt lat="42.914726" lon="19.577759">
<ele>958.086426</ele>
<time>2012-04-30T11:31:10Z</time>
<desc>lat.=42.914726, lon.=19.577759, Alt.=958.086426m. Speed=4.464000m/h.</desc>
<speed>1.240000</speed>
</trkpt>
<trkpt lat="42.914661" lon="19.577724">
<ele>958.336426</ele>
<time>2012-04-30T11:31:15Z</time>
<desc>lat.=42.914661, lon.=19.577724, Alt.=958.336426m. Speed=3.996000m/h.</desc>
<speed>1.110000</speed>
</trkpt>
<trkpt lat="42.914574" lon="19.577671">
<ele>957.211426</ele>
<time>2012-04-30T11:31:20Z</time>
<desc>lat.=42.914574, lon.=19.577671, Alt.=957.211426m. Speed=4.680000m/h.</desc>
<speed>1.300000</speed>
</trkpt>
<trkpt lat="42.914486" lon="19.577629">
<ele>957.070801</ele>
<time>2012-04-30T11:31:25Z</time>
<desc>lat.=42.914486, lon.=19.577629, Alt.=957.070801m. Speed=3.096000m/h.</desc>
<speed>0.860000</speed>
</trkpt>
<trkpt lat="42.914387" lon="19.577600">
<ele>958.586426</ele>
<time>2012-04-30T11:31:30Z</time>
<desc>lat.=42.914387, lon.=19.577600, Alt.=958.586426m. Speed=8.964000m/h.</desc>
<speed>2.490000</speed>
</trkpt>
<trkpt lat="42.914280" lon="19.577608">
<ele>960.539551</ele>
<time>2012-04-30T11:31:35Z</time>
<desc>lat.=42.914280, lon.=19.577608, Alt.=960.539551m. Speed=8.604000m/h.</desc>
<speed>2.390000</speed>
</trkpt>
<trkpt lat="42.914207" lon="19.577650">
<ele>963.461426</ele>
<time>2012-04-30T11:31:40Z</time>
<desc>lat.=42.914207, lon.=19.577650, Alt.=963.461426m. Speed=8.424000m/h.</desc>
<speed>2.340000</speed>
</trkpt>
<trkpt lat="42.914127" lon="19.577782">
<ele>964.523926</ele>
<time>2012-04-30T11:31:45Z</time>
<desc>lat.=42.914127, lon.=19.577782, Alt.=964.523926m. Speed=8.784000m/h.</desc>
<speed>2.440000</speed>
</trkpt>
<trkpt lat="42.914165" lon="19.577919">
<ele>965.039551</ele>
<time>2012-04-30T11:31:50Z</time>
<desc>lat.=42.914165, lon.=19.577919, Alt.=965.039551m. Speed=6.660000m/h.</desc>
<speed>1.850000</speed>
</trkpt>
<trkpt lat="42.914116" lon="19.577984">
<ele>965.414551</ele>
<time>2012-04-30T11:31:55Z</time>
<desc>lat.=42.914116, lon.=19.577984, Alt.=965.414551m. Speed=2.880000m/h.</desc>
<speed>0.800000</speed>
</trkpt>
<trkpt lat="42.914066" lon="19.578056">
<ele>965.305176</ele>
<time>2012-04-30T11:32:00Z</time>
<desc>lat.=42.914066, lon.=19.578056, Alt.=965.305176m. Speed=7.380000m/h.</desc>
<speed>2.050000</speed>
</trkpt>
<trkpt lat="42.914040" lon="19.578176">
<ele>965.539551</ele>
<time>2012-04-30T11:32:05Z</time>
<desc>lat.=42.914040, lon.=19.578176, Alt.=965.539551m. Speed=4.608000m/h.</desc>
<speed>1.280000</speed>
</trkpt>
<trkpt lat="42.914032" lon="19.578295">
<ele>966.508301</ele>
<time>2012-04-30T11:32:10Z</time>
<desc>lat.=42.914032, lon.=19.578295, Alt.=966.508301m. Speed=5.436000m/h.</desc>
<speed>1.510000</speed>
</trkpt>
<trkpt lat="42.913998" lon="19.578440">
<ele>968.258301</ele>
<time>2012-04-30T11:32:15Z</time>
<desc>lat.=42.913998, lon.=19.578440, Alt.=968.258301m. Speed=6.732000m/h.</desc>
<speed>1.870000</speed>
</trkpt>
<trkpt lat="42.913929" lon="19.578558">
<ele>970.211426</ele>
<time>2012-04-30T11:32:20Z</time>
<desc>lat.=42.913929, lon.=19.578558, Alt.=970.211426m. Speed=9.252000m/h.</desc>
<speed>2.570000</speed>
</trkpt>
<trkpt lat="42.913872" lon="19.578623">
<ele>972.008301</ele>
<time>2012-04-30T11:32:25Z</time>
<desc>lat.=42.913872, lon.=19.578623, Alt.=972.008301m. Speed=4.716000m/h.</desc>
<speed>1.310000</speed>
</trkpt>
<trkpt lat="42.913834" lon="19.578688">
<ele>973.883301</ele>
<time>2012-04-30T11:32:30Z</time>
<desc>lat.=42.913834, lon.=19.578688, Alt.=973.883301m. Speed=5.760000m/h.</desc>
<speed>1.600000</speed>
</trkpt>
<trkpt lat="42.913700" lon="19.578737">
<ele>975.336426</ele>
<time>2012-04-30T11:32:35Z</time>
<desc>lat.=42.913700, lon.=19.578737, Alt.=975.336426m. Speed=8.460000m/h.</desc>
<speed>2.350000</speed>
</trkpt>
<trkpt lat="42.913536" lon="19.578819">
<ele>976.227051</ele>
<time>2012-04-30T11:32:40Z</time>
<desc>lat.=42.913536, lon.=19.578819, Alt.=976.227051m. Speed=6.336000m/h.</desc>
<speed>1.760000</speed>
</trkpt>
<trkpt lat="42.913410" lon="19.578905">
<ele>977.273926</ele>
<time>2012-04-30T11:32:45Z</time>
<desc>lat.=42.913410, lon.=19.578905, Alt.=977.273926m. Speed=6.768000m/h.</desc>
<speed>1.880000</speed>
</trkpt>
<trkpt lat="42.913311" lon="19.579048">
<ele>975.680176</ele>
<time>2012-04-30T11:32:50Z</time>
<desc>lat.=42.913311, lon.=19.579048, Alt.=975.680176m. Speed=9.432000m/h.</desc>
<speed>2.620000</speed>
</trkpt>
<trkpt lat="42.913239" lon="19.579144">
<ele>975.492676</ele>
<time>2012-04-30T11:32:55Z</time>
<desc>lat.=42.913239, lon.=19.579144, Alt.=975.492676m. Speed=7.380000m/h.</desc>
<speed>2.050000</speed>
</trkpt>
<trkpt lat="42.913162" lon="19.579214">
<ele>973.758301</ele>
<time>2012-04-30T11:33:00Z</time>
<desc>lat.=42.913162, lon.=19.579214, Alt.=973.758301m. Speed=7.344000m/h.</desc>
<speed>2.040000</speed>
</trkpt>
<trkpt lat="42.913067" lon="19.579292">
<ele>972.852051</ele>
<time>2012-04-30T11:33:05Z</time>
<desc>lat.=42.913067, lon.=19.579292, Alt.=972.852051m. Speed=8.352000m/h.</desc>
<speed>2.320000</speed>
</trkpt>
<trkpt lat="42.912968" lon="19.579418">
<ele>972.930176</ele>
<time>2012-04-30T11:33:10Z</time>
<desc>lat.=42.912968, lon.=19.579418, Alt.=972.930176m. Speed=8.928000m/h.</desc>
<speed>2.480000</speed>
</trkpt>
<trkpt lat="42.912888" lon="19.579512">
<ele>974.602051</ele>
<time>2012-04-30T11:33:15Z</time>
<desc>lat.=42.912888, lon.=19.579512, Alt.=974.602051m. Speed=7.488000m/h.</desc>
<speed>2.080000</speed>
</trkpt>
<trkpt lat="42.912785" lon="19.579582">
<ele>976.289551</ele>
<time>2012-04-30T11:33:20Z</time>
<desc>lat.=42.912785, lon.=19.579582, Alt.=976.289551m. Speed=6.660000m/h.</desc>
<speed>1.850000</speed>
</trkpt>
<trkpt lat="42.912724" lon="19.579672">
<ele>976.477051</ele>
<time>2012-04-30T11:33:25Z</time>
<desc>lat.=42.912724, lon.=19.579672, Alt.=976.477051m. Speed=7.920000m/h.</desc>
<speed>2.200000</speed>
</trkpt>
<trkpt lat="42.912693" lon="19.579794">
<ele>975.805176</ele>
<time>2012-04-30T11:33:30Z</time>
<desc>lat.=42.912693, lon.=19.579794, Alt.=975.805176m. Speed=8.064000m/h.</desc>
<speed>2.240000</speed>
</trkpt>
<trkpt lat="42.912643" lon="19.579910">
<ele>974.430176</ele>
<time>2012-04-30T11:33:35Z</time>
<desc>lat.=42.912643, lon.=19.579910, Alt.=974.430176m. Speed=7.920000m/h.</desc>
<speed>2.200000</speed>
</trkpt>
<trkpt lat="42.912598" lon="19.580011">
<ele>973.602051</ele>
<time>2012-04-30T11:33:40Z</time>
<desc>lat.=42.912598, lon.=19.580011, Alt.=973.602051m. Speed=6.660000m/h.</desc>
<speed>1.850000</speed>
</trkpt>
<trkpt lat="42.912556" lon="19.580120">
<ele>972.961426</ele>
<time>2012-04-30T11:33:45Z</time>
<desc>lat.=42.912556, lon.=19.580120, Alt.=972.961426m. Speed=7.344000m/h.</desc>
<speed>2.040000</speed>
</trkpt>
<trkpt lat="42.912525" lon="19.580248">
<ele>972.195801</ele>
<time>2012-04-30T11:33:50Z</time>
<desc>lat.=42.912525, lon.=19.580248, Alt.=972.195801m. Speed=8.100000m/h.</desc>
<speed>2.250000</speed>
</trkpt>
<trkpt lat="42.912491" lon="19.580402">
<ele>971.258301</ele>
<time>2012-04-30T11:33:55Z</time>
<desc>lat.=42.912491, lon.=19.580402, Alt.=971.258301m. Speed=8.136000m/h.</desc>
<speed>2.260000</speed>
</trkpt>
<trkpt lat="42.912437" lon="19.580523">
<ele>971.477051</ele>
<time>2012-04-30T11:34:00Z</time>
<desc>lat.=42.912437, lon.=19.580523, Alt.=971.477051m. Speed=7.164000m/h.</desc>
<speed>1.990000</speed>
</trkpt>
<trkpt lat="42.912388" lon="19.580666">
<ele>970.367676</ele>
<time>2012-04-30T11:34:05Z</time>
<desc>lat.=42.912388, lon.=19.580666, Alt.=970.367676m. Speed=7.812000m/h.</desc>
<speed>2.170000</speed>
</trkpt>
<trkpt lat="42.912357" lon="19.580799">
<ele>970.820801</ele>
<time>2012-04-30T11:34:10Z</time>
<desc>lat.=42.912357, lon.=19.580799, Alt.=970.820801m. Speed=6.912000m/h.</desc>
<speed>1.920000</speed>
</trkpt>
<trkpt lat="42.912319" lon="19.580935">
<ele>970.680176</ele>
<time>2012-04-30T11:34:15Z</time>
<desc>lat.=42.912319, lon.=19.580935, Alt.=970.680176m. Speed=8.820000m/h.</desc>
<speed>2.450000</speed>
</trkpt>
<trkpt lat="42.912247" lon="19.581072">
<ele>970.461426</ele>
<time>2012-04-30T11:34:20Z</time>
<desc>lat.=42.912247, lon.=19.581072, Alt.=970.461426m. Speed=8.064000m/h.</desc>
<speed>2.240000</speed>
</trkpt>
<trkpt lat="42.912205" lon="19.581200">
<ele>969.523926</ele>
<time>2012-04-30T11:34:25Z</time>
<desc>lat.=42.912205, lon.=19.581200, Alt.=969.523926m. Speed=8.424000m/h.</desc>
<speed>2.340000</speed>
</trkpt>
<trkpt lat="42.912125" lon="19.581257">
<ele>969.445801</ele>
<time>2012-04-30T11:34:30Z</time>
<desc>lat.=42.912125, lon.=19.581257, Alt.=969.445801m. Speed=6.912000m/h.</desc>
<speed>1.920000</speed>
</trkpt>
<trkpt lat="42.912090" lon="19.581373">
<ele>968.961426</ele>
<time>2012-04-30T11:34:35Z</time>
<desc>lat.=42.912090, lon.=19.581373, Alt.=968.961426m. Speed=7.452000m/h.</desc>
<speed>2.070000</speed>
</trkpt>
<trkpt lat="42.912052" lon="19.581495">
<ele>969.133301</ele>
<time>2012-04-30T11:34:40Z</time>
<desc>lat.=42.912052, lon.=19.581495, Alt.=969.133301m. Speed=7.560000m/h.</desc>
<speed>2.100000</speed>
</trkpt>
<trkpt lat="42.912045" lon="19.581633">
<ele>968.602051</ele>
<time>2012-04-30T11:34:45Z</time>
<desc>lat.=42.912045, lon.=19.581633, Alt.=968.602051m. Speed=6.552000m/h.</desc>
<speed>1.820000</speed>
</trkpt>
<trkpt lat="42.912018" lon="19.581747">
<ele>968.617676</ele>
<time>2012-04-30T11:34:50Z</time>
<desc>lat.=42.912018, lon.=19.581747, Alt.=968.617676m. Speed=7.020000m/h.</desc>
<speed>1.950000</speed>
</trkpt>
<trkpt lat="42.911957" lon="19.581858">
<ele>968.633301</ele>
<time>2012-04-30T11:34:55Z</time>
<desc>lat.=42.911957, lon.=19.581858, Alt.=968.633301m. Speed=7.236000m/h.</desc>
<speed>2.010000</speed>
</trkpt>
<trkpt lat="42.911911" lon="19.582029">
<ele>969.258301</ele>
<time>2012-04-30T11:35:00Z</time>
<desc>lat.=42.911911, lon.=19.582029, Alt.=969.258301m. Speed=6.192000m/h.</desc>
<speed>1.720000</speed>
</trkpt>
<trkpt lat="42.911858" lon="19.582081">
<ele>971.461426</ele>
<time>2012-04-30T11:35:05Z</time>
<desc>lat.=42.911858, lon.=19.582081, Alt.=971.461426m. Speed=5.292000m/h.</desc>
<speed>1.470000</speed>
</trkpt>
<trkpt lat="42.911781" lon="19.582138">
<ele>972.898926</ele>
<time>2012-04-30T11:35:10Z</time>
<desc>lat.=42.911781, lon.=19.582138, Alt.=972.898926m. Speed=4.320000m/h.</desc>
<speed>1.200000</speed>
</trkpt>
<trkpt lat="42.911774" lon="19.582195">
<ele>972.492676</ele>
<time>2012-04-30T11:35:15Z</time>
<desc>lat.=42.911774, lon.=19.582195, Alt.=972.492676m. Speed=0.144000m/h.</desc>
<speed>0.040000</speed>
</trkpt>
<trkpt lat="42.911785" lon="19.582212">
<ele>972.430176</ele>
<time>2012-04-30T11:35:20Z</time>
<desc>lat.=42.911785, lon.=19.582212, Alt.=972.430176m. Speed=0.072000m/h.</desc>
<speed>0.020000</speed>
</trkpt>
<trkpt lat="42.911781" lon="19.582214">
<ele>972.414551</ele>
<time>2012-04-30T11:35:25Z</time>
<desc>lat.=42.911781, lon.=19.582214, Alt.=972.414551m. Speed=1.224000m/h.</desc>
<speed>0.340000</speed>
</trkpt>
<trkpt lat="42.911785" lon="19.582232">
<ele>974.992676</ele>
<time>2012-04-30T11:35:30Z</time>
<desc>lat.=42.911785, lon.=19.582232, Alt.=974.992676m. Speed=0.288000m/h.</desc>
<speed>0.080000</speed>
</trkpt>
<trkpt lat="42.911785" lon="19.582232">
<ele>975.039551</ele>
<time>2012-04-30T11:35:35Z</time>
<desc>lat.=42.911785, lon.=19.582232, Alt.=975.039551m. Speed=0.036000m/h.</desc>
<speed>0.010000</speed>
</trkpt>
<trkpt lat="42.911785" lon="19.582233">
<ele>975.008301</ele>
<time>2012-04-30T11:35:40Z</time>
<desc>lat.=42.911785, lon.=19.582233, Alt.=975.008301m. Speed=0.000000m/h.</desc>
<speed>0.000000</speed>
</trkpt>
<trkpt lat="42.911781" lon="19.582232">
<ele>974.914551</ele>
<time>2012-04-30T11:35:45Z</time>
<desc>lat.=42.911781, lon.=19.582232, Alt.=974.914551m. Speed=0.216000m/h.</desc>
<speed>0.060000</speed>
</trkpt>
<trkpt lat="42.911785" lon="19.582233">
<ele>974.836426</ele>
<time>2012-04-30T11:35:50Z</time>
<desc>lat.=42.911785, lon.=19.582233, Alt.=974.836426m. Speed=0.108000m/h.</desc>
<speed>0.030000</speed>
</trkpt>
<trkpt lat="42.911785" lon="19.582233">
<ele>974.805176</ele>
<time>2012-04-30T11:35:55Z</time>
<desc>lat.=42.911785, lon.=19.582233, Alt.=974.805176m. Speed=0.000000m/h.</desc>
<speed>0.000000</speed>
</trkpt>
<trkpt lat="42.911785" lon="19.582237">
<ele>974.789551</ele>
<time>2012-04-30T11:36:00Z</time>
<desc>lat.=42.911785, lon.=19.582237, Alt.=974.789551m. Speed=0.288000m/h.</desc>
<speed>0.080000</speed>
</trkpt>
<trkpt lat="42.911785" lon="19.582241">
<ele>974.805176</ele>
<time>2012-04-30T11:36:05Z</time>
<desc>lat.=42.911785, lon.=19.582241, Alt.=974.805176m. Speed=0.252000m/h.</desc>
<speed>0.070000</speed>
</trkpt>
<trkpt lat="42.911789" lon="19.582243">
<ele>974.789551</ele>
<time>2012-04-30T11:36:10Z</time>
<desc>lat.=42.911789, lon.=19.582243, Alt.=974.789551m. Speed=0.180000m/h.</desc>
<speed>0.050000</speed>
</trkpt>
<trkpt lat="42.911789" lon="19.582245">
<ele>974.883301</ele>
<time>2012-04-30T11:36:15Z</time>
<desc>lat.=42.911789, lon.=19.582245, Alt.=974.883301m. Speed=0.036000m/h.</desc>
<speed>0.010000</speed>
</trkpt>
<trkpt lat="42.911789" lon="19.582247">
<ele>974.961426</ele>
<time>2012-04-30T11:36:20Z</time>
<desc>lat.=42.911789, lon.=19.582247, Alt.=974.961426m. Speed=0.000000m/h.</desc>
<speed>0.000000</speed>
</trkpt>
<trkpt lat="42.911789" lon="19.582249">
<ele>974.898926</ele>
<time>2012-04-30T11:36:25Z</time>
<desc>lat.=42.911789, lon.=19.582249, Alt.=974.898926m. Speed=0.180000m/h.</desc>
<speed>0.050000</speed>
</trkpt>
<trkpt lat="42.911789" lon="19.582251">
<ele>974.883301</ele>
<time>2012-04-30T11:36:30Z</time>
<desc>lat.=42.911789, lon.=19.582251, Alt.=974.883301m. Speed=0.576000m/h.</desc>
<speed>0.160000</speed>
</trkpt>
<trkpt lat="42.911793" lon="19.582258">
<ele>974.852051</ele>
<time>2012-04-30T11:36:35Z</time>
<desc>lat.=42.911793, lon.=19.582258, Alt.=974.852051m. Speed=0.000000m/h.</desc>
<speed>0.000000</speed>
</trkpt>
<trkpt lat="42.911793" lon="19.582258">
<ele>974.836426</ele>
<time>2012-04-30T11:36:40Z</time>
<desc>lat.=42.911793, lon.=19.582258, Alt.=974.836426m. Speed=0.072000m/h.</desc>
<speed>0.020000</speed>
</trkpt>
<trkpt lat="42.911793" lon="19.582260">
<ele>974.789551</ele>
<time>2012-04-30T11:36:45Z</time>
<desc>lat.=42.911793, lon.=19.582260, Alt.=974.789551m. Speed=0.072000m/h.</desc>
<speed>0.020000</speed>
</trkpt>
<trkpt lat="42.911793" lon="19.582260">
<ele>974.789551</ele>
<time>2012-04-30T11:36:50Z</time>
<desc>lat.=42.911793, lon.=19.582260, Alt.=974.789551m. Speed=0.000000m/h.</desc>
<speed>0.000000</speed>
</trkpt>
<trkpt lat="42.911793" lon="19.582260">
<ele>974.836426</ele>
<time>2012-04-30T11:36:55Z</time>
<desc>lat.=42.911793, lon.=19.582260, Alt.=974.836426m. Speed=0.036000m/h.</desc>
<speed>0.010000</speed>
</trkpt>
<trkpt lat="42.911804" lon="19.582310">
<ele>974.367676</ele>
<time>2012-04-30T11:37:00Z</time>
<desc>lat.=42.911804, lon.=19.582310, Alt.=974.367676m. Speed=3.528000m/h.</desc>
<speed>0.980000</speed>
</trkpt>
<trkpt lat="42.911816" lon="19.582430">
<ele>973.945801</ele>
<time>2012-04-30T11:37:05Z</time>
<desc>lat.=42.911816, lon.=19.582430, Alt.=973.945801m. Speed=7.524000m/h.</desc>
<speed>2.090000</speed>
</trkpt>
<trkpt lat="42.911808" lon="19.582508">
<ele>973.602051</ele>
<time>2012-04-30T11:37:10Z</time>
<desc>lat.=42.911808, lon.=19.582508, Alt.=973.602051m. Speed=3.384000m/h.</desc>
<speed>0.940000</speed>
</trkpt>
<trkpt lat="42.911812" lon="19.582693">
<ele>973.758301</ele>
<time>2012-04-30T11:37:15Z</time>
<desc>lat.=42.911812, lon.=19.582693, Alt.=973.758301m. Speed=13.572000m/h.</desc>
<speed>3.770000</speed>
</trkpt>
<trkpt lat="42.911686" lon="19.582785">
<ele>974.961426</ele>
<time>2012-04-30T11:37:20Z</time>
<desc>lat.=42.911686, lon.=19.582785, Alt.=974.961426m. Speed=9.684000m/h.</desc>
<speed>2.690000</speed>
</trkpt>
<trkpt lat="42.911541" lon="19.582876">
<ele>976.305176</ele>
<time>2012-04-30T11:37:25Z</time>
<desc>lat.=42.911541, lon.=19.582876, Alt.=976.305176m. Speed=14.940000m/h.</desc>
<speed>4.150000</speed>
</trkpt>
<trkpt lat="42.911407" lon="19.583035">
<ele>977.648926</ele>
<time>2012-04-30T11:37:30Z</time>
<desc>lat.=42.911407, lon.=19.583035, Alt.=977.648926m. Speed=12.240000m/h.</desc>
<speed>3.400000</speed>
</trkpt>
<trkpt lat="42.911320" lon="19.583229">
<ele>978.586426</ele>
<time>2012-04-30T11:37:35Z</time>
<desc>lat.=42.911320, lon.=19.583229, Alt.=978.586426m. Speed=10.188000m/h.</desc>
<speed>2.830000</speed>
</trkpt>
<trkpt lat="42.911301" lon="19.583359">
<ele>979.727051</ele>
<time>2012-04-30T11:37:40Z</time>
<desc>lat.=42.911301, lon.=19.583359, Alt.=979.727051m. Speed=6.192000m/h.</desc>
<speed>1.720000</speed>
</trkpt>
<trkpt lat="42.911266" lon="19.583433">
<ele>980.758301</ele>
<time>2012-04-30T11:37:45Z</time>
<desc>lat.=42.911266, lon.=19.583433, Alt.=980.758301m. Speed=5.256000m/h.</desc>
<speed>1.460000</speed>
</trkpt>
<trkpt lat="42.911255" lon="19.583517">
<ele>981.242676</ele>
<time>2012-04-30T11:37:50Z</time>
<desc>lat.=42.911255, lon.=19.583517, Alt.=981.242676m. Speed=5.004000m/h.</desc>
<speed>1.390000</speed>
</trkpt>
<trkpt lat="42.911232" lon="19.583698">
<ele>982.367676</ele>
<time>2012-04-30T11:37:55Z</time>
<desc>lat.=42.911232, lon.=19.583698, Alt.=982.367676m. Speed=11.376000m/h.</desc>
<speed>3.160000</speed>
</trkpt>
<trkpt lat="42.911110" lon="19.583786">
<ele>983.883301</ele>
<time>2012-04-30T11:38:00Z</time>
<desc>lat.=42.911110, lon.=19.583786, Alt.=983.883301m. Speed=9.000000m/h.</desc>
<speed>2.500000</speed>
</trkpt>
<trkpt lat="42.911018" lon="19.583866">
<ele>984.117676</ele>
<time>2012-04-30T11:38:05Z</time>
<desc>lat.=42.911018, lon.=19.583866, Alt.=984.117676m. Speed=8.316000m/h.</desc>
<speed>2.310000</speed>
</trkpt>
<trkpt lat="42.910927" lon="19.583990">
<ele>985.039551</ele>
<time>2012-04-30T11:38:10Z</time>
<desc>lat.=42.910927, lon.=19.583990, Alt.=985.039551m. Speed=7.704000m/h.</desc>
<speed>2.140000</speed>
</trkpt>
<trkpt lat="42.910751" lon="19.584078">
<ele>985.773926</ele>
<time>2012-04-30T11:38:15Z</time>
<desc>lat.=42.910751, lon.=19.584078, Alt.=985.773926m. Speed=8.100000m/h.</desc>
<speed>2.250000</speed>
</trkpt>
<trkpt lat="42.910660" lon="19.584200">
<ele>986.648926</ele>
<time>2012-04-30T11:38:20Z</time>
<desc>lat.=42.910660, lon.=19.584200, Alt.=986.648926m. Speed=5.724000m/h.</desc>
<speed>1.590000</speed>
</trkpt>
<trkpt lat="42.910568" lon="19.584335">
<ele>987.742676</ele>
<time>2012-04-30T11:38:25Z</time>
<desc>lat.=42.910568, lon.=19.584335, Alt.=987.742676m. Speed=6.948000m/h.</desc>
<speed>1.930000</speed>
</trkpt>
<trkpt lat="42.910461" lon="19.584461">
<ele>987.898926</ele>
<time>2012-04-30T11:38:30Z</time>
<desc>lat.=42.910461, lon.=19.584461, Alt.=987.898926m. Speed=8.460000m/h.</desc>
<speed>2.350000</speed>
</trkpt>
<trkpt lat="42.910366" lon="19.584576">
<ele>987.961426</ele>
<time>2012-04-30T11:38:35Z</time>
<desc>lat.=42.910366, lon.=19.584576, Alt.=987.961426m. Speed=6.228000m/h.</desc>
<speed>1.730000</speed>
</trkpt>
<trkpt lat="42.910290" lon="19.584673">
<ele>988.508301</ele>
<time>2012-04-30T11:38:40Z</time>
<desc>lat.=42.910290, lon.=19.584673, Alt.=988.508301m. Speed=6.048000m/h.</desc>
<speed>1.680000</speed>
</trkpt>
<trkpt lat="42.910217" lon="19.584661">
<ele>988.070801</ele>
<time>2012-04-30T11:38:45Z</time>
<desc>lat.=42.910217, lon.=19.584661, Alt.=988.070801m. Speed=6.876000m/h.</desc>
<speed>1.910000</speed>
</trkpt>
<trkpt lat="42.910126" lon="19.584713">
<ele>988.023926</ele>
<time>2012-04-30T11:38:50Z</time>
<desc>lat.=42.910126, lon.=19.584713, Alt.=988.023926m. Speed=7.704000m/h.</desc>
<speed>2.140000</speed>
</trkpt>
<trkpt lat="42.910038" lon="19.584772">
<ele>989.367676</ele>
<time>2012-04-30T11:38:55Z</time>
<desc>lat.=42.910038, lon.=19.584772, Alt.=989.367676m. Speed=5.292000m/h.</desc>
<speed>1.470000</speed>
</trkpt>
<trkpt lat="42.909946" lon="19.584822">
<ele>990.680176</ele>
<time>2012-04-30T11:39:00Z</time>
<desc>lat.=42.909946, lon.=19.584822, Alt.=990.680176m. Speed=6.624000m/h.</desc>
<speed>1.840000</speed>
</trkpt>
<trkpt lat="42.909840" lon="19.584833">
<ele>992.664551</ele>
<time>2012-04-30T11:39:05Z</time>
<desc>lat.=42.909840, lon.=19.584833, Alt.=992.664551m. Speed=7.524000m/h.</desc>
<speed>2.090000</speed>
</trkpt>
<trkpt lat="42.909760" lon="19.584900">
<ele>992.773926</ele>
<time>2012-04-30T11:39:10Z</time>
<desc>lat.=42.909760, lon.=19.584900, Alt.=992.773926m. Speed=7.308000m/h.</desc>
<speed>2.030000</speed>
</trkpt>
<trkpt lat="42.909653" lon="19.584940">
<ele>993.258301</ele>
<time>2012-04-30T11:39:15Z</time>
<desc>lat.=42.909653, lon.=19.584940, Alt.=993.258301m. Speed=6.480000m/h.</desc>
<speed>1.800000</speed>
</trkpt>
<trkpt lat="42.909557" lon="19.584961">
<ele>993.461426</ele>
<time>2012-04-30T11:39:20Z</time>
<desc>lat.=42.909557, lon.=19.584961, Alt.=993.461426m. Speed=7.128000m/h.</desc>
<speed>1.980000</speed>
</trkpt>
<trkpt lat="42.909473" lon="19.585024">
<ele>993.977051</ele>
<time>2012-04-30T11:39:25Z</time>
<desc>lat.=42.909473, lon.=19.585024, Alt.=993.977051m. Speed=7.992000m/h.</desc>
<speed>2.220000</speed>
</trkpt>
<trkpt lat="42.909416" lon="19.585144">
<ele>993.195801</ele>
<time>2012-04-30T11:39:30Z</time>
<desc>lat.=42.909416, lon.=19.585144, Alt.=993.195801m. Speed=9.648000m/h.</desc>
<speed>2.680000</speed>
</trkpt>
<trkpt lat="42.909374" lon="19.585255">
<ele>993.023926</ele>
<time>2012-04-30T11:39:35Z</time>
<desc>lat.=42.909374, lon.=19.585255, Alt.=993.023926m. Speed=8.100000m/h.</desc>
<speed>2.250000</speed>
</trkpt>
<trkpt lat="42.909351" lon="19.585356">
<ele>996.914551</ele>
<time>2012-04-30T11:39:40Z</time>
<desc>lat.=42.909351, lon.=19.585356, Alt.=996.914551m. Speed=7.740000m/h.</desc>
<speed>2.150000</speed>
</trkpt>
<trkpt lat="42.909344" lon="19.585443">
<ele>999.039551</ele>
<time>2012-04-30T11:39:45Z</time>
<desc>lat.=42.909344, lon.=19.585443, Alt.=999.039551m. Speed=8.424000m/h.</desc>
<speed>2.340000</speed>
</trkpt>
<trkpt lat="42.909359" lon="19.585581">
<ele>1000.148926</ele>
<time>2012-04-30T11:39:50Z</time>
<desc>lat.=42.909359, lon.=19.585581, Alt.=1000.148926m. Speed=5.256000m/h.</desc>
<speed>1.460000</speed>
</trkpt>
<trkpt lat="42.909355" lon="19.585665">
<ele>1001.883301</ele>
<time>2012-04-30T11:39:55Z</time>
<desc>lat.=42.909355, lon.=19.585665, Alt.=1001.883301m. Speed=5.256000m/h.</desc>
<speed>1.460000</speed>
</trkpt>
<trkpt lat="42.909348" lon="19.585768">
<ele>1003.133301</ele>
<time>2012-04-30T11:40:00Z</time>
<desc>lat.=42.909348, lon.=19.585768, Alt.=1003.133301m. Speed=8.244000m/h.</desc>
<speed>2.290000</speed>
</trkpt>
<trkpt lat="42.909321" lon="19.585880">
<ele>1004.492676</ele>
<time>2012-04-30T11:40:05Z</time>
<desc>lat.=42.909321, lon.=19.585880, Alt.=1004.492676m. Speed=6.444000m/h.</desc>
<speed>1.790000</speed>
</trkpt>
<trkpt lat="42.909302" lon="19.586027">
<ele>1006.539551</ele>
<time>2012-04-30T11:40:10Z</time>
<desc>lat.=42.909302, lon.=19.586027, Alt.=1006.539551m. Speed=7.164000m/h.</desc>
<speed>1.990000</speed>
</trkpt>
<trkpt lat="42.909233" lon="19.586115">
<ele>1009.461426</ele>
<time>2012-04-30T11:40:15Z</time>
<desc>lat.=42.909233, lon.=19.586115, Alt.=1009.461426m. Speed=5.688000m/h.</desc>
<speed>1.580000</speed>
</trkpt>
<trkpt lat="42.909134" lon="19.586134">
<ele>1008.898926</ele>
<time>2012-04-30T11:40:20Z</time>
<desc>lat.=42.909134, lon.=19.586134, Alt.=1008.898926m. Speed=6.192000m/h.</desc>
<speed>1.720000</speed>
</trkpt>
<trkpt lat="42.909100" lon="19.586151">
<ele>1011.242676</ele>
<time>2012-04-30T11:40:25Z</time>
<desc>lat.=42.909100, lon.=19.586151, Alt.=1011.242676m. Speed=2.196000m/h.</desc>
<speed>0.610000</speed>
</trkpt>
<trkpt lat="42.909077" lon="19.586117">
<ele>1013.102051</ele>
<time>2012-04-30T11:40:30Z</time>
<desc>lat.=42.909077, lon.=19.586117, Alt.=1013.102051m. Speed=4.644000m/h.</desc>
<speed>1.290000</speed>
</trkpt>
<trkpt lat="42.909019" lon="19.586075">
<ele>1015.242676</ele>
<time>2012-04-30T11:40:35Z</time>
<desc>lat.=42.909019, lon.=19.586075, Alt.=1015.242676m. Speed=5.004000m/h.</desc>
<speed>1.390000</speed>
</trkpt>
<trkpt lat="42.908947" lon="19.586052">
<ele>1016.961426</ele>
<time>2012-04-30T11:40:40Z</time>
<desc>lat.=42.908947, lon.=19.586052, Alt.=1016.961426m. Speed=5.688000m/h.</desc>
<speed>1.580000</speed>
</trkpt>
<trkpt lat="42.908852" lon="19.586056">
<ele>1018.320801</ele>
<time>2012-04-30T11:40:45Z</time>
<desc>lat.=42.908852, lon.=19.586056, Alt.=1018.320801m. Speed=6.228000m/h.</desc>
<speed>1.730000</speed>
</trkpt>
<trkpt lat="42.908722" lon="19.586069">
<ele>1018.914551</ele>
<time>2012-04-30T11:40:50Z</time>
<desc>lat.=42.908722, lon.=19.586069, Alt.=1018.914551m. Speed=6.804000m/h.</desc>
<speed>1.890000</speed>
</trkpt>
<trkpt lat="42.908600" lon="19.586096">
<ele>1019.289551</ele>
<time>2012-04-30T11:40:55Z</time>
<desc>lat.=42.908600, lon.=19.586096, Alt.=1019.289551m. Speed=7.452000m/h.</desc>
<speed>2.070000</speed>
</trkpt>
<trkpt lat="42.908508" lon="19.586119">
<ele>1019.445801</ele>
<time>2012-04-30T11:41:00Z</time>
<desc>lat.=42.908508, lon.=19.586119, Alt.=1019.445801m. Speed=3.744000m/h.</desc>
<speed>1.040000</speed>
</trkpt>
<trkpt lat="42.908459" lon="19.586166">
<ele>1020.242676</ele>
<time>2012-04-30T11:41:05Z</time>
<desc>lat.=42.908459, lon.=19.586166, Alt.=1020.242676m. Speed=4.428000m/h.</desc>
<speed>1.230000</speed>
</trkpt>
<trkpt lat="42.908363" lon="19.586216">
<ele>1021.398926</ele>
<time>2012-04-30T11:41:10Z</time>
<desc>lat.=42.908363, lon.=19.586216, Alt.=1021.398926m. Speed=4.968000m/h.</desc>
<speed>1.380000</speed>
</trkpt>
<trkpt lat="42.908283" lon="19.586250">
<ele>1022.195801</ele>
<time>2012-04-30T11:41:15Z</time>
<desc>lat.=42.908283, lon.=19.586250, Alt.=1022.195801m. Speed=4.176000m/h.</desc>
<speed>1.160000</speed>
</trkpt>
<trkpt lat="42.908173" lon="19.586372">
<ele>1022.898926</ele>
<time>2012-04-30T11:41:20Z</time>
<desc>lat.=42.908173, lon.=19.586372, Alt.=1022.898926m. Speed=7.164000m/h.</desc>
<speed>1.990000</speed>
</trkpt>
<trkpt lat="42.908081" lon="19.586424">
<ele>1023.633301</ele>
<time>2012-04-30T11:41:25Z</time>
<desc>lat.=42.908081, lon.=19.586424, Alt.=1023.633301m. Speed=6.480000m/h.</desc>
<speed>1.800000</speed>
</trkpt>
<trkpt lat="42.908012" lon="19.586519">
<ele>1023.711426</ele>
<time>2012-04-30T11:41:30Z</time>
<desc>lat.=42.908012, lon.=19.586519, Alt.=1023.711426m. Speed=4.392000m/h.</desc>
<speed>1.220000</speed>
</trkpt>
<trkpt lat="42.907928" lon="19.586554">
<ele>1023.602051</ele>
<time>2012-04-30T11:41:35Z</time>
<desc>lat.=42.907928, lon.=19.586554, Alt.=1023.602051m. Speed=6.552000m/h.</desc>
<speed>1.820000</speed>
</trkpt>
<trkpt lat="42.907837" lon="19.586588">
<ele>1024.922852</ele>
<time>2012-04-30T11:41:40Z</time>
<desc>lat.=42.907837, lon.=19.586588, Alt.=1024.922852m. Speed=7.308000m/h.</desc>
<speed>2.030000</speed>
</trkpt>
<trkpt lat="42.907742" lon="19.586611">
<ele>1025.954102</ele>
<time>2012-04-30T11:41:45Z</time>
<desc>lat.=42.907742, lon.=19.586611, Alt.=1025.954102m. Speed=6.876000m/h.</desc>
<speed>1.910000</speed>
</trkpt>
<trkpt lat="42.907665" lon="19.586668">
<ele>1027.391602</ele>
<time>2012-04-30T11:41:50Z</time>
<desc>lat.=42.907665, lon.=19.586668, Alt.=1027.391602m. Speed=6.552000m/h.</desc>
<speed>1.820000</speed>
</trkpt>
<trkpt lat="42.907597" lon="19.586761">
<ele>1029.141602</ele>
<time>2012-04-30T11:41:55Z</time>
<desc>lat.=42.907597, lon.=19.586761, Alt.=1029.141602m. Speed=6.156000m/h.</desc>
<speed>1.710000</speed>
</trkpt>
<trkpt lat="42.907543" lon="19.586819">
<ele>1030.016602</ele>
<time>2012-04-30T11:42:00Z</time>
<desc>lat.=42.907543, lon.=19.586819, Alt.=1030.016602m. Speed=8.136000m/h.</desc>
<speed>2.260000</speed>
</trkpt>
<trkpt lat="42.907471" lon="19.586868">
<ele>1030.954102</ele>
<time>2012-04-30T11:42:05Z</time>
<desc>lat.=42.907471, lon.=19.586868, Alt.=1030.954102m. Speed=6.156000m/h.</desc>
<speed>1.710000</speed>
</trkpt>
<trkpt lat="42.907379" lon="19.586878">
<ele>1030.985352</ele>
<time>2012-04-30T11:42:10Z</time>
<desc>lat.=42.907379, lon.=19.586878, Alt.=1030.985352m. Speed=8.136000m/h.</desc>
<speed>2.260000</speed>
</trkpt>
<trkpt lat="42.907341" lon="19.586981">
<ele>1028.297852</ele>
<time>2012-04-30T11:42:15Z</time>
<desc>lat.=42.907341, lon.=19.586981, Alt.=1028.297852m. Speed=6.012000m/h.</desc>
<speed>1.670000</speed>
</trkpt>
<trkpt lat="42.907253" lon="19.587076">
<ele>1029.297852</ele>
<time>2012-04-30T11:42:20Z</time>
<desc>lat.=42.907253, lon.=19.587076, Alt.=1029.297852m. Speed=7.092000m/h.</desc>
<speed>1.970000</speed>
</trkpt>
<trkpt lat="42.907173" lon="19.587126">
<ele>1030.047852</ele>
<time>2012-04-30T11:42:25Z</time>
<desc>lat.=42.907173, lon.=19.587126, Alt.=1030.047852m. Speed=6.876000m/h.</desc>
<speed>1.910000</speed>
</trkpt>
<trkpt lat="42.907078" lon="19.587223">
<ele>1030.860352</ele>
<time>2012-04-30T11:42:30Z</time>
<desc>lat.=42.907078, lon.=19.587223, Alt.=1030.860352m. Speed=6.840000m/h.</desc>
<speed>1.900000</speed>
</trkpt>
<trkpt lat="42.906998" lon="19.587275">
<ele>1032.047852</ele>
<time>2012-04-30T11:42:35Z</time>
<desc>lat.=42.906998, lon.=19.587275, Alt.=1032.047852m. Speed=5.256000m/h.</desc>
<speed>1.460000</speed>
</trkpt>
<trkpt lat="42.906929" lon="19.587360">
<ele>1033.985352</ele>
<time>2012-04-30T11:42:40Z</time>
<desc>lat.=42.906929, lon.=19.587360, Alt.=1033.985352m. Speed=7.884000m/h.</desc>
<speed>2.190000</speed>
</trkpt>
<trkpt lat="42.906849" lon="19.587452">
<ele>1036.516602</ele>
<time>2012-04-30T11:42:45Z</time>
<desc>lat.=42.906849, lon.=19.587452, Alt.=1036.516602m. Speed=5.796000m/h.</desc>
<speed>1.610000</speed>
</trkpt>
<trkpt lat="42.906784" lon="19.587528">
<ele>1038.297852</ele>
<time>2012-04-30T11:42:50Z</time>
<desc>lat.=42.906784, lon.=19.587528, Alt.=1038.297852m. Speed=4.824000m/h.</desc>
<speed>1.340000</speed>
</trkpt>
<trkpt lat="42.906708" lon="19.587597">
<ele>1039.422852</ele>
<time>2012-04-30T11:42:55Z</time>
<desc>lat.=42.906708, lon.=19.587597, Alt.=1039.422852m. Speed=6.264000m/h.</desc>
<speed>1.740000</speed>
</trkpt>
<trkpt lat="42.906624" lon="19.587690">
<ele>1041.235352</ele>
<time>2012-04-30T11:43:00Z</time>
<desc>lat.=42.906624, lon.=19.587690, Alt.=1041.235352m. Speed=6.696000m/h.</desc>
<speed>1.860000</speed>
</trkpt>
<trkpt lat="42.906551" lon="19.587805">
<ele>1042.610352</ele>
<time>2012-04-30T11:43:05Z</time>
<desc>lat.=42.906551, lon.=19.587805, Alt.=1042.610352m. Speed=6.012000m/h.</desc>
<speed>1.670000</speed>
</trkpt>
<trkpt lat="42.906437" lon="19.587851">
<ele>1043.297852</ele>
<time>2012-04-30T11:43:10Z</time>
<desc>lat.=42.906437, lon.=19.587851, Alt.=1043.297852m. Speed=7.884000m/h.</desc>
<speed>2.190000</speed>
</trkpt>
<trkpt lat="42.906357" lon="19.587921">
<ele>1045.141602</ele>
<time>2012-04-30T11:43:15Z</time>
<desc>lat.=42.906357, lon.=19.587921, Alt.=1045.141602m. Speed=6.876000m/h.</desc>
<speed>1.910000</speed>
</trkpt>
<trkpt lat="42.906254" lon="19.587975">
<ele>1046.516602</ele>
<time>2012-04-30T11:43:20Z</time>
<desc>lat.=42.906254, lon.=19.587975, Alt.=1046.516602m. Speed=7.344000m/h.</desc>
<speed>2.040000</speed>
</trkpt>
<trkpt lat="42.906166" lon="19.588083">
<ele>1048.766602</ele>
<time>2012-04-30T11:43:25Z</time>
<desc>lat.=42.906166, lon.=19.588083, Alt.=1048.766602m. Speed=9.396000m/h.</desc>
<speed>2.610000</speed>
</trkpt>
<trkpt lat="42.906067" lon="19.588182">
<ele>1049.891602</ele>
<time>2012-04-30T11:43:30Z</time>
<desc>lat.=42.906067, lon.=19.588182, Alt.=1049.891602m. Speed=8.280000m/h.</desc>
<speed>2.300000</speed>
</trkpt>
<trkpt lat="42.905949" lon="19.588219">
<ele>1050.360352</ele>
<time>2012-04-30T11:43:35Z</time>
<desc>lat.=42.905949, lon.=19.588219, Alt.=1050.360352m. Speed=7.920000m/h.</desc>
<speed>2.200000</speed>
</trkpt>
<trkpt lat="42.905899" lon="19.588243">
<ele>1050.110352</ele>
<time>2012-04-30T11:43:40Z</time>
<desc>lat.=42.905899, lon.=19.588243, Alt.=1050.110352m. Speed=4.140000m/h.</desc>
<speed>1.150000</speed>
</trkpt>
<trkpt lat="42.905777" lon="19.588329">
<ele>1050.954102</ele>
<time>2012-04-30T11:43:45Z</time>
<desc>lat.=42.905777, lon.=19.588329, Alt.=1050.954102m. Speed=9.720000m/h.</desc>
<speed>2.700000</speed>
</trkpt>
<trkpt lat="42.905636" lon="19.588444">
<ele>1050.547852</ele>
<time>2012-04-30T11:43:50Z</time>
<desc>lat.=42.905636, lon.=19.588444, Alt.=1050.547852m. Speed=10.224000m/h.</desc>
<speed>2.840000</speed>
</trkpt>
<trkpt lat="42.905548" lon="19.588610">
<ele>1050.579102</ele>
<time>2012-04-30T11:43:55Z</time>
<desc>lat.=42.905548, lon.=19.588610, Alt.=1050.579102m. Speed=9.108000m/h.</desc>
<speed>2.530000</speed>
</trkpt>
<trkpt lat="42.905510" lon="19.588755">
<ele>1052.141602</ele>
<time>2012-04-30T11:44:00Z</time>
<desc>lat.=42.905510, lon.=19.588755, Alt.=1052.141602m. Speed=9.684000m/h.</desc>
<speed>2.690000</speed>
</trkpt>
<trkpt lat="42.905441" lon="19.588867">
<ele>1053.610352</ele>
<time>2012-04-30T11:44:05Z</time>
<desc>lat.=42.905441, lon.=19.588867, Alt.=1053.610352m. Speed=8.424000m/h.</desc>
<speed>2.340000</speed>
</trkpt>
<trkpt lat="42.905384" lon="19.588995">
<ele>1054.735352</ele>
<time>2012-04-30T11:44:10Z</time>
<desc>lat.=42.905384, lon.=19.588995, Alt.=1054.735352m. Speed=7.920000m/h.</desc>
<speed>2.200000</speed>
</trkpt>
<trkpt lat="42.905334" lon="19.589075">
<ele>1055.797852</ele>
<time>2012-04-30T11:44:15Z</time>
<desc>lat.=42.905334, lon.=19.589075, Alt.=1055.797852m. Speed=7.632000m/h.</desc>
<speed>2.120000</speed>
</trkpt>
<trkpt lat="42.905312" lon="19.589254">
<ele>1057.297852</ele>
<time>2012-04-30T11:44:20Z</time>
<desc>lat.=42.905312, lon.=19.589254, Alt.=1057.297852m. Speed=8.496000m/h.</desc>
<speed>2.360000</speed>
</trkpt>
<trkpt lat="42.905266" lon="19.589382">
<ele>1058.079102</ele>
<time>2012-04-30T11:44:25Z</time>
<desc>lat.=42.905266, lon.=19.589382, Alt.=1058.079102m. Speed=6.876000m/h.</desc>
<speed>1.910000</speed>
</trkpt>
<trkpt lat="42.905239" lon="19.589548">
<ele>1059.141602</ele>
<time>2012-04-30T11:44:30Z</time>
<desc>lat.=42.905239, lon.=19.589548, Alt.=1059.141602m. Speed=7.236000m/h.</desc>
<speed>2.010000</speed>
</trkpt>
<trkpt lat="42.905128" lon="19.589705">
<ele>1060.610352</ele>
<time>2012-04-30T11:44:35Z</time>
<desc>lat.=42.905128, lon.=19.589705, Alt.=1060.610352m. Speed=9.900000m/h.</desc>
<speed>2.750000</speed>
</trkpt>
<trkpt lat="42.905052" lon="19.589766">
<ele>1059.735352</ele>
<time>2012-04-30T11:44:40Z</time>
<desc>lat.=42.905052, lon.=19.589766, Alt.=1059.735352m. Speed=4.716000m/h.</desc>
<speed>1.310000</speed>
</trkpt>
<trkpt lat="42.904999" lon="19.589849">
<ele>1059.954102</ele>
<time>2012-04-30T11:44:45Z</time>
<desc>lat.=42.904999, lon.=19.589849, Alt.=1059.954102m. Speed=7.344000m/h.</desc>
<speed>2.040000</speed>
</trkpt>
<trkpt lat="42.904922" lon="19.589914">
<ele>1062.047852</ele>
<time>2012-04-30T11:44:50Z</time>
<desc>lat.=42.904922, lon.=19.589914, Alt.=1062.047852m. Speed=5.436000m/h.</desc>
<speed>1.510000</speed>
</trkpt>
<trkpt lat="42.904778" lon="19.589981">
<ele>1062.235352</ele>
<time>2012-04-30T11:44:55Z</time>
<desc>lat.=42.904778, lon.=19.589981, Alt.=1062.235352m. Speed=10.260000m/h.</desc>
<speed>2.850000</speed>
</trkpt>
<trkpt lat="42.904617" lon="19.590040">
<ele>1061.766602</ele>
<time>2012-04-30T11:45:00Z</time>
<desc>lat.=42.904617, lon.=19.590040, Alt.=1061.766602m. Speed=7.416000m/h.</desc>
<speed>2.060000</speed>
</trkpt>
<trkpt lat="42.904526" lon="19.590105">
<ele>1061.829102</ele>
<time>2012-04-30T11:45:05Z</time>
<desc>lat.=42.904526, lon.=19.590105, Alt.=1061.829102m. Speed=6.984000m/h.</desc>
<speed>1.940000</speed>
</trkpt>
<trkpt lat="42.904381" lon="19.590219">
<ele>1061.954102</ele>
<time>2012-04-30T11:45:10Z</time>
<desc>lat.=42.904381, lon.=19.590219, Alt.=1061.954102m. Speed=9.360000m/h.</desc>
<speed>2.600000</speed>
</trkpt>
<trkpt lat="42.904285" lon="19.590279">
<ele>1062.235352</ele>
<time>2012-04-30T11:45:15Z</time>
<desc>lat.=42.904285, lon.=19.590279, Alt.=1062.235352m. Speed=6.444000m/h.</desc>
<speed>1.790000</speed>
</trkpt>
<trkpt lat="42.904209" lon="19.590317">
<ele>1063.016602</ele>
<time>2012-04-30T11:45:20Z</time>
<desc>lat.=42.904209, lon.=19.590317, Alt.=1063.016602m. Speed=7.308000m/h.</desc>
<speed>2.030000</speed>
</trkpt>
<trkpt lat="42.904087" lon="19.590418">
<ele>1062.079102</ele>
<time>2012-04-30T11:45:25Z</time>
<desc>lat.=42.904087, lon.=19.590418, Alt.=1062.079102m. Speed=9.108000m/h.</desc>
<speed>2.530000</speed>
</trkpt>
<trkpt lat="42.903996" lon="19.590483">
<ele>1062.922852</ele>
<time>2012-04-30T11:45:30Z</time>
<desc>lat.=42.903996, lon.=19.590483, Alt.=1062.922852m. Speed=7.920000m/h.</desc>
<speed>2.200000</speed>
</trkpt>
<trkpt lat="42.903900" lon="19.590521">
<ele>1064.766602</ele>
<time>2012-04-30T11:45:35Z</time>
<desc>lat.=42.903900, lon.=19.590521, Alt.=1064.766602m. Speed=4.788000m/h.</desc>
<speed>1.330000</speed>
</trkpt>
<trkpt lat="42.903782" lon="19.590620">
<ele>1066.766602</ele>
<time>2012-04-30T11:45:40Z</time>
<desc>lat.=42.903782, lon.=19.590620, Alt.=1066.766602m. Speed=7.164000m/h.</desc>
<speed>1.990000</speed>
</trkpt>
<trkpt lat="42.903637" lon="19.590683">
<ele>1068.204102</ele>
<time>2012-04-30T11:45:45Z</time>
<desc>lat.=42.903637, lon.=19.590683, Alt.=1068.204102m. Speed=7.344000m/h.</desc>
<speed>2.040000</speed>
</trkpt>
<trkpt lat="42.903492" lon="19.590725">
<ele>1068.141602</ele>
<time>2012-04-30T11:45:50Z</time>
<desc>lat.=42.903492, lon.=19.590725, Alt.=1068.141602m. Speed=6.444000m/h.</desc>
<speed>1.790000</speed>
</trkpt>
<trkpt lat="42.903339" lon="19.590744">
<ele>1069.141602</ele>
<time>2012-04-30T11:45:55Z</time>
<desc>lat.=42.903339, lon.=19.590744, Alt.=1069.141602m. Speed=5.976000m/h.</desc>
<speed>1.660000</speed>
</trkpt>
<trkpt lat="42.903206" lon="19.590807">
<ele>1070.891602</ele>
<time>2012-04-30T11:46:00Z</time>
<desc>lat.=42.903206, lon.=19.590807, Alt.=1070.891602m. Speed=6.552000m/h.</desc>
<speed>1.820000</speed>
</trkpt>
<trkpt lat="42.903198" lon="19.590923">
<ele>1072.110352</ele>
<time>2012-04-30T11:46:05Z</time>
<desc>lat.=42.903198, lon.=19.590923, Alt.=1072.110352m. Speed=10.080000m/h.</desc>
<speed>2.800000</speed>
</trkpt>
<trkpt lat="42.903282" lon="19.591007">
<ele>1073.204102</ele>
<time>2012-04-30T11:46:10Z</time>
<desc>lat.=42.903282, lon.=19.591007, Alt.=1073.204102m. Speed=6.228000m/h.</desc>
<speed>1.730000</speed>
</trkpt>
<trkpt lat="42.903419" lon="19.591099">
<ele>1071.672852</ele>
<time>2012-04-30T11:46:15Z</time>
<desc>lat.=42.903419, lon.=19.591099, Alt.=1071.672852m. Speed=9.072000m/h.</desc>
<speed>2.520000</speed>
</trkpt>
<trkpt lat="42.903545" lon="19.591160">
<ele>1070.735352</ele>
<time>2012-04-30T11:46:20Z</time>
<desc>lat.=42.903545, lon.=19.591160, Alt.=1070.735352m. Speed=6.300000m/h.</desc>
<speed>1.750000</speed>
</trkpt>
<trkpt lat="42.903614" lon="19.591272">
<ele>1069.454102</ele>
<time>2012-04-30T11:46:25Z</time>
<desc>lat.=42.903614, lon.=19.591272, Alt.=1069.454102m. Speed=6.336000m/h.</desc>
<speed>1.760000</speed>
</trkpt>
<trkpt lat="42.903629" lon="19.591368">
<ele>1069.860352</ele>
<time>2012-04-30T11:46:30Z</time>
<desc>lat.=42.903629, lon.=19.591368, Alt.=1069.860352m. Speed=9.612000m/h.</desc>
<speed>2.670000</speed>
</trkpt>
<trkpt lat="42.903584" lon="19.591476">
<ele>1070.797852</ele>
<time>2012-04-30T11:46:35Z</time>
<desc>lat.=42.903584, lon.=19.591476, Alt.=1070.797852m. Speed=8.100000m/h.</desc>
<speed>2.250000</speed>
</trkpt>
<trkpt lat="42.903557" lon="19.591562">
<ele>1070.016602</ele>
<time>2012-04-30T11:46:40Z</time>
<desc>lat.=42.903557, lon.=19.591562, Alt.=1070.016602m. Speed=5.616000m/h.</desc>
<speed>1.560000</speed>
</trkpt>
<trkpt lat="42.903515" lon="19.591648">
<ele>1071.547852</ele>
<time>2012-04-30T11:46:45Z</time>
<desc>lat.=42.903515, lon.=19.591648, Alt.=1071.547852m. Speed=7.740000m/h.</desc>
<speed>2.150000</speed>
</trkpt>
<trkpt lat="42.903481" lon="19.591749">
<ele>1072.110352</ele>
<time>2012-04-30T11:46:50Z</time>
<desc>lat.=42.903481, lon.=19.591749, Alt.=1072.110352m. Speed=6.228000m/h.</desc>
<speed>1.730000</speed>
</trkpt>
<trkpt lat="42.903458" lon="19.591866">
<ele>1072.797852</ele>
<time>2012-04-30T11:46:55Z</time>
<desc>lat.=42.903458, lon.=19.591866, Alt.=1072.797852m. Speed=6.912000m/h.</desc>
<speed>1.920000</speed>
</trkpt>
<trkpt lat="42.903423" lon="19.591957">
<ele>1073.110352</ele>
<time>2012-04-30T11:47:00Z</time>
<desc>lat.=42.903423, lon.=19.591957, Alt.=1073.110352m. Speed=4.608000m/h.</desc>
<speed>1.280000</speed>
</trkpt>
<trkpt lat="42.903431" lon="19.592064">
<ele>1074.016602</ele>
<time>2012-04-30T11:47:05Z</time>
<desc>lat.=42.903431, lon.=19.592064, Alt.=1074.016602m. Speed=4.644000m/h.</desc>
<speed>1.290000</speed>
</trkpt>
<trkpt lat="42.903488" lon="19.592184">
<ele>1074.579102</ele>
<time>2012-04-30T11:47:10Z</time>
<desc>lat.=42.903488, lon.=19.592184, Alt.=1074.579102m. Speed=5.760000m/h.</desc>
<speed>1.600000</speed>
</trkpt>
<trkpt lat="42.903572" lon="19.592365">
<ele>1075.235352</ele>
<time>2012-04-30T11:47:15Z</time>
<desc>lat.=42.903572, lon.=19.592365, Alt.=1075.235352m. Speed=7.632000m/h.</desc>
<speed>2.120000</speed>
</trkpt>
<trkpt lat="42.903656" lon="19.592461">
<ele>1076.704102</ele>
<time>2012-04-30T11:47:20Z</time>
<desc>lat.=42.903656, lon.=19.592461, Alt.=1076.704102m. Speed=6.156000m/h.</desc>
<speed>1.710000</speed>
</trkpt>
<trkpt lat="42.903679" lon="19.592554">
<ele>1079.766602</ele>
<time>2012-04-30T11:47:25Z</time>
<desc>lat.=42.903679, lon.=19.592554, Alt.=1079.766602m. Speed=4.644000m/h.</desc>
<speed>1.290000</speed>
</trkpt>
<trkpt lat="42.903683" lon="19.592646">
<ele>1083.922852</ele>
<time>2012-04-30T11:47:30Z</time>
<desc>lat.=42.903683, lon.=19.592646, Alt.=1083.922852m. Speed=1.944000m/h.</desc>
<speed>0.540000</speed>
</trkpt>
<trkpt lat="42.903576" lon="19.592714">
<ele>1087.235352</ele>
<time>2012-04-30T11:47:35Z</time>
<desc>lat.=42.903576, lon.=19.592714, Alt.=1087.235352m. Speed=5.868000m/h.</desc>
<speed>1.630000</speed>
</trkpt>
<trkpt lat="42.903500" lon="19.592743">
<ele>1089.579102</ele>
<time>2012-04-30T11:47:40Z</time>
<desc>lat.=42.903500, lon.=19.592743, Alt.=1089.579102m. Speed=4.212000m/h.</desc>
<speed>1.170000</speed>
</trkpt>
<trkpt lat="42.903408" lon="19.592798">
<ele>1092.079102</ele>
<time>2012-04-30T11:47:45Z</time>
<desc>lat.=42.903408, lon.=19.592798, Alt.=1092.079102m. Speed=6.732000m/h.</desc>
<speed>1.870000</speed>
</trkpt>
<trkpt lat="42.903355" lon="19.592815">
<ele>1095.641602</ele>
<time>2012-04-30T11:47:50Z</time>
<desc>lat.=42.903355, lon.=19.592815, Alt.=1095.641602m. Speed=5.472000m/h.</desc>
<speed>1.520000</speed>
</trkpt>
<trkpt lat="42.903252" lon="19.592884">
<ele>1098.547852</ele>
<time>2012-04-30T11:47:55Z</time>
<desc>lat.=42.903252, lon.=19.592884, Alt.=1098.547852m. Speed=8.460000m/h.</desc>
<speed>2.350000</speed>
</trkpt>
<trkpt lat="42.903149" lon="19.592947">
<ele>1102.797852</ele>
<time>2012-04-30T11:48:00Z</time>
<desc>lat.=42.903149, lon.=19.592947, Alt.=1102.797852m. Speed=6.984000m/h.</desc>
<speed>1.940000</speed>
</trkpt>
<trkpt lat="42.903065" lon="19.593033">
<ele>1106.172852</ele>
<time>2012-04-30T11:48:05Z</time>
<desc>lat.=42.903065, lon.=19.593033, Alt.=1106.172852m. Speed=6.732000m/h.</desc>
<speed>1.870000</speed>
</trkpt>
<trkpt lat="42.902996" lon="19.593142">
<ele>1108.891602</ele>
<time>2012-04-30T11:48:10Z</time>
<desc>lat.=42.902996, lon.=19.593142, Alt.=1108.891602m. Speed=5.940000m/h.</desc>
<speed>1.650000</speed>
</trkpt>
<trkpt lat="42.902924" lon="19.593220">
<ele>1112.079102</ele>
<time>2012-04-30T11:48:15Z</time>
<desc>lat.=42.902924, lon.=19.593220, Alt.=1112.079102m. Speed=3.636000m/h.</desc>
<speed>1.010000</speed>
</trkpt>
<trkpt lat="42.902893" lon="19.593313">
<ele>1114.016602</ele>
<time>2012-04-30T11:48:20Z</time>
<desc>lat.=42.902893, lon.=19.593313, Alt.=1114.016602m. Speed=3.996000m/h.</desc>
<speed>1.110000</speed>
</trkpt>
<trkpt lat="42.902821" lon="19.593372">
<ele>1117.391602</ele>
<time>2012-04-30T11:48:25Z</time>
<desc>lat.=42.902821, lon.=19.593372, Alt.=1117.391602m. Speed=4.284000m/h.</desc>
<speed>1.190000</speed>
</trkpt>
<trkpt lat="42.902752" lon="19.593435">
<ele>1120.829102</ele>
<time>2012-04-30T11:48:30Z</time>
<desc>lat.=42.902752, lon.=19.593435, Alt.=1120.829102m. Speed=3.996000m/h.</desc>
<speed>1.110000</speed>
</trkpt>
<trkpt lat="42.902676" lon="19.593475">
<ele>1123.204102</ele>
<time>2012-04-30T11:48:35Z</time>
<desc>lat.=42.902676, lon.=19.593475, Alt.=1123.204102m. Speed=4.176000m/h.</desc>
<speed>1.160000</speed>
</trkpt>
<trkpt lat="42.902557" lon="19.593559">
<ele>1125.922852</ele>
<time>2012-04-30T11:48:40Z</time>
<desc>lat.=42.902557, lon.=19.593559, Alt.=1125.922852m. Speed=7.200000m/h.</desc>
<speed>2.000000</speed>
</trkpt>
<trkpt lat="42.902435" lon="19.593681">
<ele>1128.391602</ele>
<time>2012-04-30T11:48:45Z</time>
<desc>lat.=42.902435, lon.=19.593681, Alt.=1128.391602m. Speed=6.084000m/h.</desc>
<speed>1.690000</speed>
</trkpt>
<trkpt lat="42.902325" lon="19.593819">
<ele>1131.047852</ele>
<time>2012-04-30T11:48:50Z</time>
<desc>lat.=42.902325, lon.=19.593819, Alt.=1131.047852m. Speed=8.172000m/h.</desc>
<speed>2.270000</speed>
</trkpt>
<trkpt lat="42.902233" lon="19.593916">
<ele>1134.735352</ele>
<time>2012-04-30T11:48:55Z</time>
<desc>lat.=42.902233, lon.=19.593916, Alt.=1134.735352m. Speed=7.704000m/h.</desc>
<speed>2.140000</speed>
</trkpt>
<trkpt lat="42.902126" lon="19.593987">
<ele>1138.672852</ele>
<time>2012-04-30T11:49:00Z</time>
<desc>lat.=42.902126, lon.=19.593987, Alt.=1138.672852m. Speed=4.464000m/h.</desc>
<speed>1.240000</speed>
</trkpt>
<trkpt lat="42.902046" lon="19.594044">
<ele>1139.641602</ele>
<time>2012-04-30T11:49:05Z</time>
<desc>lat.=42.902046, lon.=19.594044, Alt.=1139.641602m. Speed=5.112000m/h.</desc>
<speed>1.420000</speed>
</trkpt>
<trkpt lat="42.902004" lon="19.594122">
<ele>1138.016602</ele>
<time>2012-04-30T11:49:10Z</time>
<desc>lat.=42.902004, lon.=19.594122, Alt.=1138.016602m. Speed=6.228000m/h.</desc>
<speed>1.730000</speed>
</trkpt>
<trkpt lat="42.901920" lon="19.594172">
<ele>1138.641602</ele>
<time>2012-04-30T11:49:15Z</time>
<desc>lat.=42.901920, lon.=19.594172, Alt.=1138.641602m. Speed=7.272000m/h.</desc>
<speed>2.020000</speed>
</trkpt>
<trkpt lat="42.901836" lon="19.594225">
<ele>1140.391602</ele>
<time>2012-04-30T11:49:20Z</time>
<desc>lat.=42.901836, lon.=19.594225, Alt.=1140.391602m. Speed=6.876000m/h.</desc>
<speed>1.910000</speed>
</trkpt>
<trkpt lat="42.901749" lon="19.594233">
<ele>1143.422852</ele>
<time>2012-04-30T11:49:25Z</time>
<desc>lat.=42.901749, lon.=19.594233, Alt.=1143.422852m. Speed=5.544000m/h.</desc>
<speed>1.540000</speed>
</trkpt>
<trkpt lat="42.901646" lon="19.594255">
<ele>1147.016602</ele>
<time>2012-04-30T11:49:30Z</time>
<desc>lat.=42.901646, lon.=19.594255, Alt.=1147.016602m. Speed=5.472000m/h.</desc>
<speed>1.520000</speed>
</trkpt>
<trkpt lat="42.901569" lon="19.594343">
<ele>1150.454102</ele>
<time>2012-04-30T11:49:35Z</time>
<desc>lat.=42.901569, lon.=19.594343, Alt.=1150.454102m. Speed=6.624000m/h.</desc>
<speed>1.840000</speed>
</trkpt>
<trkpt lat="42.901482" lon="19.594418">
<ele>1152.454102</ele>
<time>2012-04-30T11:49:40Z</time>
<desc>lat.=42.901482, lon.=19.594418, Alt.=1152.454102m. Speed=6.660000m/h.</desc>
<speed>1.850000</speed>
</trkpt>
<trkpt lat="42.901417" lon="19.594425">
<ele>1154.235352</ele>
<time>2012-04-30T11:49:45Z</time>
<desc>lat.=42.901417, lon.=19.594425, Alt.=1154.235352m. Speed=3.708000m/h.</desc>
<speed>1.030000</speed>
</trkpt>
<trkpt lat="42.901402" lon="19.594439">
<ele>1154.204102</ele>
<time>2012-04-30T11:49:50Z</time>
<desc>lat.=42.901402, lon.=19.594439, Alt.=1154.204102m. Speed=2.772000m/h.</desc>
<speed>0.770000</speed>
</trkpt>
<trkpt lat="42.901333" lon="19.594433">
<ele>1153.141602</ele>
<time>2012-04-30T11:49:55Z</time>
<desc>lat.=42.901333, lon.=19.594433, Alt.=1153.141602m. Speed=4.356000m/h.</desc>
<speed>1.210000</speed>
</trkpt>
<trkpt lat="42.901291" lon="19.594439">
<ele>1151.016602</ele>
<time>2012-04-30T11:50:00Z</time>
<desc>lat.=42.901291, lon.=19.594439, Alt.=1151.016602m. Speed=7.596000m/h.</desc>
<speed>2.110000</speed>
</trkpt>
<trkpt lat="42.901203" lon="19.594429">
<ele>1150.422852</ele>
<time>2012-04-30T11:50:05Z</time>
<desc>lat.=42.901203, lon.=19.594429, Alt.=1150.422852m. Speed=3.204000m/h.</desc>
<speed>0.890000</speed>
</trkpt>
<trkpt lat="42.901112" lon="19.594416">
<ele>1153.141602</ele>
<time>2012-04-30T11:50:10Z</time>
<desc>lat.=42.901112, lon.=19.594416, Alt.=1153.141602m. Speed=4.392000m/h.</desc>
<speed>1.220000</speed>
</trkpt>
<trkpt lat="42.901001" lon="19.594406">
<ele>1154.110352</ele>
<time>2012-04-30T11:50:15Z</time>
<desc>lat.=42.901001, lon.=19.594406, Alt.=1154.110352m. Speed=5.508000m/h.</desc>
<speed>1.530000</speed>
</trkpt>
<trkpt lat="42.900871" lon="19.594421">
<ele>1155.391602</ele>
<time>2012-04-30T11:50:20Z</time>
<desc>lat.=42.900871, lon.=19.594421, Alt.=1155.391602m. Speed=5.940000m/h.</desc>
<speed>1.650000</speed>
</trkpt>
<trkpt lat="42.900806" lon="19.594488">
<ele>1155.235352</ele>
<time>2012-04-30T11:50:25Z</time>
<desc>lat.=42.900806, lon.=19.594488, Alt.=1155.235352m. Speed=3.240000m/h.</desc>
<speed>0.900000</speed>
</trkpt>
<trkpt lat="42.900688" lon="19.594587">
<ele>1152.422852</ele>
<time>2012-04-30T11:50:30Z</time>
<desc>lat.=42.900688, lon.=19.594587, Alt.=1152.422852m. Speed=4.392000m/h.</desc>
<speed>1.220000</speed>
</trkpt>
<trkpt lat="42.900631" lon="19.594683">
<ele>1149.766602</ele>
<time>2012-04-30T11:50:35Z</time>
<desc>lat.=42.900631, lon.=19.594683, Alt.=1149.766602m. Speed=2.556000m/h.</desc>
<speed>0.710000</speed>
</trkpt>
<trkpt lat="42.900612" lon="19.594751">
<ele>1147.641602</ele>
<time>2012-04-30T11:50:40Z</time>
<desc>lat.=42.900612, lon.=19.594751, Alt.=1147.641602m. Speed=3.528000m/h.</desc>
<speed>0.980000</speed>
</trkpt>
<trkpt lat="42.900616" lon="19.594860">
<ele>1145.266602</ele>
<time>2012-04-30T11:50:45Z</time>
<desc>lat.=42.900616, lon.=19.594860, Alt.=1145.266602m. Speed=8.100000m/h.</desc>
<speed>2.250000</speed>
</trkpt>
<trkpt lat="42.900627" lon="19.594994">
<ele>1143.579102</ele>
<time>2012-04-30T11:50:50Z</time>
<desc>lat.=42.900627, lon.=19.594994, Alt.=1143.579102m. Speed=6.048000m/h.</desc>
<speed>1.680000</speed>
</trkpt>
<trkpt lat="42.900608" lon="19.595127">
<ele>1141.985352</ele>
<time>2012-04-30T11:50:55Z</time>
<desc>lat.=42.900608, lon.=19.595127, Alt.=1141.985352m. Speed=6.012000m/h.</desc>
<speed>1.670000</speed>
</trkpt>
<trkpt lat="42.900589" lon="19.595287">
<ele>1139.047852</ele>
<time>2012-04-30T11:51:00Z</time>
<desc>lat.=42.900589, lon.=19.595287, Alt.=1139.047852m. Speed=8.496000m/h.</desc>
<speed>2.360000</speed>
</trkpt>
<trkpt lat="42.900547" lon="19.595346">
<ele>1136.485352</ele>
<time>2012-04-30T11:51:05Z</time>
<desc>lat.=42.900547, lon.=19.595346, Alt.=1136.485352m. Speed=0.684000m/h.</desc>
<speed>0.190000</speed>
</trkpt>
<trkpt lat="42.900551" lon="19.595364">
<ele>1135.891602</ele>
<time>2012-04-30T11:51:10Z</time>
<desc>lat.=42.900551, lon.=19.595364, Alt.=1135.891602m. Speed=0.828000m/h.</desc>
<speed>0.230000</speed>
</trkpt>
<trkpt lat="42.900570" lon="19.595415">
<ele>1134.829102</ele>
<time>2012-04-30T11:51:15Z</time>
<desc>lat.=42.900570, lon.=19.595415, Alt.=1134.829102m. Speed=1.728000m/h.</desc>
<speed>0.480000</speed>
</trkpt>
<trkpt lat="42.900558" lon="19.595440">
<ele>1133.547852</ele>
<time>2012-04-30T11:51:20Z</time>
<desc>lat.=42.900558, lon.=19.595440, Alt.=1133.547852m. Speed=0.720000m/h.</desc>
<speed>0.200000</speed>
</trkpt>
<trkpt lat="42.900539" lon="19.595430">
<ele>1132.860352</ele>
<time>2012-04-30T11:51:25Z</time>
<desc>lat.=42.900539, lon.=19.595430, Alt.=1132.860352m. Speed=0.288000m/h.</desc>
<speed>0.080000</speed>
</trkpt>
<trkpt lat="42.900536" lon="19.595432">
<ele>1132.829102</ele>
<time>2012-04-30T11:51:30Z</time>
<desc>lat.=42.900536, lon.=19.595432, Alt.=1132.829102m. Speed=0.072000m/h.</desc>
<speed>0.020000</speed>
</trkpt>
<trkpt lat="42.900532" lon="19.595434">
<ele>1132.829102</ele>
<time>2012-04-30T11:51:35Z</time>
<desc>lat.=42.900532, lon.=19.595434, Alt.=1132.829102m. Speed=0.288000m/h.</desc>
<speed>0.080000</speed>
</trkpt>
<trkpt lat="42.900528" lon="19.595440">
<ele>1132.860352</ele>
<time>2012-04-30T11:51:40Z</time>
<desc>lat.=42.900528, lon.=19.595440, Alt.=1132.860352m. Speed=0.432000m/h.</desc>
<speed>0.120000</speed>
</trkpt>
<trkpt lat="42.900520" lon="19.595444">
<ele>1132.922852</ele>
<time>2012-04-30T11:51:45Z</time>
<desc>lat.=42.900520, lon.=19.595444, Alt.=1132.922852m. Speed=0.396000m/h.</desc>
<speed>0.110000</speed>
</trkpt>
<trkpt lat="42.900517" lon="19.595449">
<ele>1132.985352</ele>
<time>2012-04-30T11:51:50Z</time>
<desc>lat.=42.900517, lon.=19.595449, Alt.=1132.985352m. Speed=0.324000m/h.</desc>
<speed>0.090000</speed>
</trkpt>
<trkpt lat="42.900513" lon="19.595453">
<ele>1133.016602</ele>
<time>2012-04-30T11:51:55Z</time>
<desc>lat.=42.900513, lon.=19.595453, Alt.=1133.016602m. Speed=0.360000m/h.</desc>
<speed>0.100000</speed>
</trkpt>
<trkpt lat="42.900509" lon="19.595457">
<ele>1133.079102</ele>
<time>2012-04-30T11:52:00Z</time>
<desc>lat.=42.900509, lon.=19.595457, Alt.=1133.079102m. Speed=0.288000m/h.</desc>
<speed>0.080000</speed>
</trkpt>
<trkpt lat="42.900505" lon="19.595461">
<ele>1133.141602</ele>
<time>2012-04-30T11:52:05Z</time>
<desc>lat.=42.900505, lon.=19.595461, Alt.=1133.141602m. Speed=0.180000m/h.</desc>
<speed>0.050000</speed>
</trkpt>
<trkpt lat="42.900501" lon="19.595463">
<ele>1133.110352</ele>
<time>2012-04-30T11:52:10Z</time>
<desc>lat.=42.900501, lon.=19.595463, Alt.=1133.110352m. Speed=0.180000m/h.</desc>
<speed>0.050000</speed>
</trkpt>
<trkpt lat="42.900501" lon="19.595465">
<ele>1133.047852</ele>
<time>2012-04-30T11:52:15Z</time>
<desc>lat.=42.900501, lon.=19.595465, Alt.=1133.047852m. Speed=0.180000m/h.</desc>
<speed>0.050000</speed>
</trkpt>
<trkpt lat="42.900501" lon="19.595465">
<ele>1132.954102</ele>
<time>2012-04-30T11:52:20Z</time>
<desc>lat.=42.900501, lon.=19.595465, Alt.=1132.954102m. Speed=0.252000m/h.</desc>
<speed>0.070000</speed>
</trkpt>
<trkpt lat="42.900501" lon="19.595467">
<ele>1132.829102</ele>
<time>2012-04-30T11:52:25Z</time>
<desc>lat.=42.900501, lon.=19.595467, Alt.=1132.829102m. Speed=0.180000m/h.</desc>
<speed>0.050000</speed>
</trkpt>
<trkpt lat="42.900497" lon="19.595469">
<ele>1132.704102</ele>
<time>2012-04-30T11:52:30Z</time>
<desc>lat.=42.900497, lon.=19.595469, Alt.=1132.704102m. Speed=0.288000m/h.</desc>
<speed>0.080000</speed>
</trkpt>
<trkpt lat="42.900497" lon="19.595470">
<ele>1132.610352</ele>
<time>2012-04-30T11:52:35Z</time>
<desc>lat.=42.900497, lon.=19.595470, Alt.=1132.610352m. Speed=0.036000m/h.</desc>
<speed>0.010000</speed>
</trkpt>
<trkpt lat="42.900497" lon="19.595470">
<ele>1132.485352</ele>
<time>2012-04-30T11:52:40Z</time>
<desc>lat.=42.900497, lon.=19.595470, Alt.=1132.485352m. Speed=0.144000m/h.</desc>
<speed>0.040000</speed>
</trkpt>
<trkpt lat="42.900497" lon="19.595469">
<ele>1132.297852</ele>
<time>2012-04-30T11:52:45Z</time>
<desc>lat.=42.900497, lon.=19.595469, Alt.=1132.297852m. Speed=0.108000m/h.</desc>
<speed>0.030000</speed>
</trkpt>
<trkpt lat="42.900497" lon="19.595470">
<ele>1132.204102</ele>
<time>2012-04-30T11:52:50Z</time>
<desc>lat.=42.900497, lon.=19.595470, Alt.=1132.204102m. Speed=0.000000m/h.</desc>
<speed>0.000000</speed>
</trkpt>
<trkpt lat="42.900497" lon="19.595470">
<ele>1132.110352</ele>
<time>2012-04-30T11:52:55Z</time>
<desc>lat.=42.900497, lon.=19.595470, Alt.=1132.110352m. Speed=0.072000m/h.</desc>
<speed>0.020000</speed>
</trkpt>
<trkpt lat="42.900497" lon="19.595472">
<ele>1131.985352</ele>
<time>2012-04-30T11:53:00Z</time>
<desc>lat.=42.900497, lon.=19.595472, Alt.=1131.985352m. Speed=0.072000m/h.</desc>
<speed>0.020000</speed>
</trkpt>
<trkpt lat="42.900494" lon="19.595476">
<ele>1131.954102</ele>
<time>2012-04-30T11:53:05Z</time>
<desc>lat.=42.900494, lon.=19.595476, Alt.=1131.954102m. Speed=0.324000m/h.</desc>
<speed>0.090000</speed>
</trkpt>
<trkpt lat="42.900494" lon="19.595476">
<ele>1131.954102</ele>
<time>2012-04-30T11:53:10Z</time>
<desc>lat.=42.900494, lon.=19.595476, Alt.=1131.954102m. Speed=0.252000m/h.</desc>
<speed>0.070000</speed>
</trkpt>
<trkpt lat="42.900490" lon="19.595478">
<ele>1131.860352</ele>
<time>2012-04-30T11:53:15Z</time>
<desc>lat.=42.900490, lon.=19.595478, Alt.=1131.860352m. Speed=0.180000m/h.</desc>
<speed>0.050000</speed>
</trkpt>
<trkpt lat="42.900490" lon="19.595480">
<ele>1131.766602</ele>
<time>2012-04-30T11:53:20Z</time>
<desc>lat.=42.900490, lon.=19.595480, Alt.=1131.766602m. Speed=0.180000m/h.</desc>
<speed>0.050000</speed>
</trkpt>
<trkpt lat="42.900486" lon="19.595486">
<ele>1131.735352</ele>
<time>2012-04-30T11:53:25Z</time>
<desc>lat.=42.900486, lon.=19.595486, Alt.=1131.735352m. Speed=0.540000m/h.</desc>
<speed>0.150000</speed>
</trkpt>
<trkpt lat="42.900482" lon="19.595493">
<ele>1131.641602</ele>
<time>2012-04-30T11:53:30Z</time>
<desc>lat.=42.900482, lon.=19.595493, Alt.=1131.641602m. Speed=0.756000m/h.</desc>
<speed>0.210000</speed>
</trkpt>
<trkpt lat="42.900478" lon="19.595501">
<ele>1131.641602</ele>
<time>2012-04-30T11:53:35Z</time>
<desc>lat.=42.900478, lon.=19.595501, Alt.=1131.641602m. Speed=0.468000m/h.</desc>
<speed>0.130000</speed>
</trkpt>
<trkpt lat="42.900471" lon="19.595507">
<ele>1131.641602</ele>
<time>2012-04-30T11:53:40Z</time>
<desc>lat.=42.900471, lon.=19.595507, Alt.=1131.641602m. Speed=0.540000m/h.</desc>
<speed>0.150000</speed>
</trkpt>
<trkpt lat="42.900467" lon="19.595510">
<ele>1131.579102</ele>
<time>2012-04-30T11:53:45Z</time>
<desc>lat.=42.900467, lon.=19.595510, Alt.=1131.579102m. Speed=0.144000m/h.</desc>
<speed>0.040000</speed>
</trkpt>
<trkpt lat="42.900467" lon="19.595512">
<ele>1131.547852</ele>
<time>2012-04-30T11:53:50Z</time>
<desc>lat.=42.900467, lon.=19.595512, Alt.=1131.547852m. Speed=0.108000m/h.</desc>
<speed>0.030000</speed>
</trkpt>
<trkpt lat="42.900467" lon="19.595514">
<ele>1131.454102</ele>
<time>2012-04-30T11:53:55Z</time>
<desc>lat.=42.900467, lon.=19.595514, Alt.=1131.454102m. Speed=0.036000m/h.</desc>
<speed>0.010000</speed>
</trkpt>
<trkpt lat="42.900463" lon="19.595518">
<ele>1131.422852</ele>
<time>2012-04-30T11:54:00Z</time>
<desc>lat.=42.900463, lon.=19.595518, Alt.=1131.422852m. Speed=0.324000m/h.</desc>
<speed>0.090000</speed>
</trkpt>
<trkpt lat="42.900463" lon="19.595520">
<ele>1131.454102</ele>
<time>2012-04-30T11:54:05Z</time>
<desc>lat.=42.900463, lon.=19.595520, Alt.=1131.454102m. Speed=0.144000m/h.</desc>
<speed>0.040000</speed>
</trkpt>
<trkpt lat="42.900459" lon="19.595524">
<ele>1131.454102</ele>
<time>2012-04-30T11:54:10Z</time>
<desc>lat.=42.900459, lon.=19.595524, Alt.=1131.454102m. Speed=0.180000m/h.</desc>
<speed>0.050000</speed>
</trkpt>
<trkpt lat="42.900455" lon="19.595530">
<ele>1131.391602</ele>
<time>2012-04-30T11:54:15Z</time>
<desc>lat.=42.900455, lon.=19.595530, Alt.=1131.391602m. Speed=0.504000m/h.</desc>
<speed>0.140000</speed>
</trkpt>
<trkpt lat="42.900452" lon="19.595537">
<ele>1131.329102</ele>
<time>2012-04-30T11:54:20Z</time>
<desc>lat.=42.900452, lon.=19.595537, Alt.=1131.329102m. Speed=0.828000m/h.</desc>
<speed>0.230000</speed>
</trkpt>
<trkpt lat="42.900444" lon="19.595547">
<ele>1131.235352</ele>
<time>2012-04-30T11:54:25Z</time>
<desc>lat.=42.900444, lon.=19.595547, Alt.=1131.235352m. Speed=0.504000m/h.</desc>
<speed>0.140000</speed>
</trkpt>
<trkpt lat="42.900440" lon="19.595552">
<ele>1131.172852</ele>
<time>2012-04-30T11:54:30Z</time>
<desc>lat.=42.900440, lon.=19.595552, Alt.=1131.172852m. Speed=0.144000m/h.</desc>
<speed>0.040000</speed>
</trkpt>
<trkpt lat="42.900440" lon="19.595556">
<ele>1131.110352</ele>
<time>2012-04-30T11:54:35Z</time>
<desc>lat.=42.900440, lon.=19.595556, Alt.=1131.110352m. Speed=0.252000m/h.</desc>
<speed>0.070000</speed>
</trkpt>
<trkpt lat="42.900444" lon="19.595558">
<ele>1131.110352</ele>
<time>2012-04-30T11:54:40Z</time>
<desc>lat.=42.900444, lon.=19.595558, Alt.=1131.110352m. Speed=0.324000m/h.</desc>
<speed>0.090000</speed>
</trkpt>
<trkpt lat="42.900444" lon="19.595554">
<ele>1131.079102</ele>
<time>2012-04-30T11:54:45Z</time>
<desc>lat.=42.900444, lon.=19.595554, Alt.=1131.079102m. Speed=0.396000m/h.</desc>
<speed>0.110000</speed>
</trkpt>
<trkpt lat="42.900448" lon="19.595552">
<ele>1131.016602</ele>
<time>2012-04-30T11:54:50Z</time>
<desc>lat.=42.900448, lon.=19.595552, Alt.=1131.016602m. Speed=0.072000m/h.</desc>
<speed>0.020000</speed>
</trkpt>
<trkpt lat="42.900448" lon="19.595552">
<ele>1131.047852</ele>
<time>2012-04-30T11:54:55Z</time>
<desc>lat.=42.900448, lon.=19.595552, Alt.=1131.047852m. Speed=0.000000m/h.</desc>
<speed>0.000000</speed>
</trkpt>
<trkpt lat="42.900448" lon="19.595551">
<ele>1131.016602</ele>
<time>2012-04-30T11:55:00Z</time>
<desc>lat.=42.900448, lon.=19.595551, Alt.=1131.016602m. Speed=0.108000m/h.</desc>
<speed>0.030000</speed>
</trkpt>
<trkpt lat="42.900448" lon="19.595551">
<ele>1131.016602</ele>
<time>2012-04-30T11:55:05Z</time>
<desc>lat.=42.900448, lon.=19.595551, Alt.=1131.016602m. Speed=0.108000m/h.</desc>
<speed>0.030000</speed>
</trkpt>
<trkpt lat="42.900448" lon="19.595554">
<ele>1131.047852</ele>
<time>2012-04-30T11:55:10Z</time>
<desc>lat.=42.900448, lon.=19.595554, Alt.=1131.047852m. Speed=0.396000m/h.</desc>
<speed>0.110000</speed>
</trkpt>
<trkpt lat="42.900452" lon="19.595554">
<ele>1130.985352</ele>
<time>2012-04-30T11:55:15Z</time>
<desc>lat.=42.900452, lon.=19.595554, Alt.=1130.985352m. Speed=0.144000m/h.</desc>
<speed>0.040000</speed>
</trkpt>
<trkpt lat="42.900448" lon="19.595558">
<ele>1130.860352</ele>
<time>2012-04-30T11:55:20Z</time>
<desc>lat.=42.900448, lon.=19.595558, Alt.=1130.860352m. Speed=0.036000m/h.</desc>
<speed>0.010000</speed>
</trkpt>
<trkpt lat="42.900452" lon="19.595558">
<ele>1130.704102</ele>
<time>2012-04-30T11:55:25Z</time>
<desc>lat.=42.900452, lon.=19.595558, Alt.=1130.704102m. Speed=0.612000m/h.</desc>
<speed>0.170000</speed>
</trkpt>
<trkpt lat="42.900459" lon="19.595562">
<ele>1130.516602</ele>
<time>2012-04-30T11:55:30Z</time>
<desc>lat.=42.900459, lon.=19.595562, Alt.=1130.516602m. Speed=0.144000m/h.</desc>
<speed>0.040000</speed>
</trkpt>
<trkpt lat="42.900459" lon="19.595564">
<ele>1130.266602</ele>
<time>2012-04-30T11:55:35Z</time>
<desc>lat.=42.900459, lon.=19.595564, Alt.=1130.266602m. Speed=0.468000m/h.</desc>
<speed>0.130000</speed>
</trkpt>
<trkpt lat="42.900459" lon="19.595566">
<ele>1130.141602</ele>
<time>2012-04-30T11:55:40Z</time>
<desc>lat.=42.900459, lon.=19.595566, Alt.=1130.141602m. Speed=0.036000m/h.</desc>
<speed>0.010000</speed>
</trkpt>
<trkpt lat="42.900459" lon="19.595566">
<ele>1130.016602</ele>
<time>2012-04-30T11:55:45Z</time>
<desc>lat.=42.900459, lon.=19.595566, Alt.=1130.016602m. Speed=0.216000m/h.</desc>
<speed>0.060000</speed>
</trkpt>
<trkpt lat="42.900459" lon="19.595570">
<ele>1129.860352</ele>
<time>2012-04-30T11:55:50Z</time>
<desc>lat.=42.900459, lon.=19.595570, Alt.=1129.860352m. Speed=0.288000m/h.</desc>
<speed>0.080000</speed>
</trkpt>
<trkpt lat="42.900459" lon="19.595575">
<ele>1129.672852</ele>
<time>2012-04-30T11:55:55Z</time>
<desc>lat.=42.900459, lon.=19.595575, Alt.=1129.672852m. Speed=0.072000m/h.</desc>
<speed>0.020000</speed>
</trkpt>
<trkpt lat="42.900459" lon="19.595573">
<ele>1129.641602</ele>
<time>2012-04-30T11:56:00Z</time>
<desc>lat.=42.900459, lon.=19.595573, Alt.=1129.641602m. Speed=0.072000m/h.</desc>
<speed>0.020000</speed>
</trkpt>
<trkpt lat="42.900459" lon="19.595572">
<ele>1129.672852</ele>
<time>2012-04-30T11:56:05Z</time>
<desc>lat.=42.900459, lon.=19.595572, Alt.=1129.672852m. Speed=0.036000m/h.</desc>
<speed>0.010000</speed>
</trkpt>
<trkpt lat="42.900459" lon="19.595572">
<ele>1129.704102</ele>
<time>2012-04-30T11:56:10Z</time>
<desc>lat.=42.900459, lon.=19.595572, Alt.=1129.704102m. Speed=0.216000m/h.</desc>
<speed>0.060000</speed>
</trkpt>
<trkpt lat="42.900463" lon="19.595568">
<ele>1129.641602</ele>
<time>2012-04-30T11:56:15Z</time>
<desc>lat.=42.900463, lon.=19.595568, Alt.=1129.641602m. Speed=0.360000m/h.</desc>
<speed>0.100000</speed>
</trkpt>
<trkpt lat="42.900467" lon="19.595566">
<ele>1129.579102</ele>
<time>2012-04-30T11:56:20Z</time>
<desc>lat.=42.900467, lon.=19.595566, Alt.=1129.579102m. Speed=0.144000m/h.</desc>
<speed>0.040000</speed>
</trkpt>
<trkpt lat="42.900467" lon="19.595566">
<ele>1129.547852</ele>
<time>2012-04-30T11:56:25Z</time>
<desc>lat.=42.900467, lon.=19.595566, Alt.=1129.547852m. Speed=0.288000m/h.</desc>
<speed>0.080000</speed>
</trkpt>
<trkpt lat="42.900471" lon="19.595572">
<ele>1129.454102</ele>
<time>2012-04-30T11:56:30Z</time>
<desc>lat.=42.900471, lon.=19.595572, Alt.=1129.454102m. Speed=0.396000m/h.</desc>
<speed>0.110000</speed>
</trkpt>
<trkpt lat="42.900471" lon="19.595573">
<ele>1129.422852</ele>
<time>2012-04-30T11:56:35Z</time>
<desc>lat.=42.900471, lon.=19.595573, Alt.=1129.422852m. Speed=0.216000m/h.</desc>
<speed>0.060000</speed>
</trkpt>
<trkpt lat="42.900471" lon="19.595572">
<ele>1129.422852</ele>
<time>2012-04-30T11:56:40Z</time>
<desc>lat.=42.900471, lon.=19.595572, Alt.=1129.422852m. Speed=0.036000m/h.</desc>
<speed>0.010000</speed>
</trkpt>
<trkpt lat="42.900471" lon="19.595573">
<ele>1129.391602</ele>
<time>2012-04-30T11:56:45Z</time>
<desc>lat.=42.900471, lon.=19.595573, Alt.=1129.391602m. Speed=0.036000m/h.</desc>
<speed>0.010000</speed>
</trkpt>
<trkpt lat="42.900471" lon="19.595573">
<ele>1129.454102</ele>
<time>2012-04-30T11:56:50Z</time>
<desc>lat.=42.900471, lon.=19.595573, Alt.=1129.454102m. Speed=0.000000m/h.</desc>
<speed>0.000000</speed>
</trkpt>
<trkpt lat="42.900471" lon="19.595573">
<ele>1129.454102</ele>
<time>2012-04-30T11:56:55Z</time>
<desc>lat.=42.900471, lon.=19.595573, Alt.=1129.454102m. Speed=0.036000m/h.</desc>
<speed>0.010000</speed>
</trkpt>
<trkpt lat="42.900475" lon="19.595573">
<ele>1129.422852</ele>
<time>2012-04-30T11:57:00Z</time>
<desc>lat.=42.900475, lon.=19.595573, Alt.=1129.422852m. Speed=0.000000m/h.</desc>
<speed>0.000000</speed>
</trkpt>
<trkpt lat="42.900475" lon="19.595573">
<ele>1129.422852</ele>
<time>2012-04-30T11:57:05Z</time>
<desc>lat.=42.900475, lon.=19.595573, Alt.=1129.422852m. Speed=0.072000m/h.</desc>
<speed>0.020000</speed>
</trkpt>
<trkpt lat="42.900475" lon="19.595575">
<ele>1129.391602</ele>
<time>2012-04-30T11:57:10Z</time>
<desc>lat.=42.900475, lon.=19.595575, Alt.=1129.391602m. Speed=0.108000m/h.</desc>
<speed>0.030000</speed>
</trkpt>
<trkpt lat="42.900475" lon="19.595579">
<ele>1129.329102</ele>
<time>2012-04-30T11:57:15Z</time>
<desc>lat.=42.900475, lon.=19.595579, Alt.=1129.329102m. Speed=0.144000m/h.</desc>
<speed>0.040000</speed>
</trkpt>
<trkpt lat="42.900475" lon="19.595581">
<ele>1129.172852</ele>
<time>2012-04-30T11:57:20Z</time>
<desc>lat.=42.900475, lon.=19.595581, Alt.=1129.172852m. Speed=0.072000m/h.</desc>
<speed>0.020000</speed>
</trkpt>
<trkpt lat="42.900475" lon="19.595581">
<ele>1129.047852</ele>
<time>2012-04-30T11:57:25Z</time>
<desc>lat.=42.900475, lon.=19.595581, Alt.=1129.047852m. Speed=0.000000m/h.</desc>
<speed>0.000000</speed>
</trkpt>
<trkpt lat="42.900475" lon="19.595583">
<ele>1129.016602</ele>
<time>2012-04-30T11:57:30Z</time>
<desc>lat.=42.900475, lon.=19.595583, Alt.=1129.016602m. Speed=0.000000m/h.</desc>
<speed>0.000000</speed>
</trkpt>
<trkpt lat="42.900475" lon="19.595583">
<ele>1128.954102</ele>
<time>2012-04-30T11:57:35Z</time>
<desc>lat.=42.900475, lon.=19.595583, Alt.=1128.954102m. Speed=0.000000m/h.</desc>
<speed>0.000000</speed>
</trkpt>
<trkpt lat="42.900475" lon="19.595583">
<ele>1128.797852</ele>
<time>2012-04-30T11:57:40Z</time>
<desc>lat.=42.900475, lon.=19.595583, Alt.=1128.797852m. Speed=0.000000m/h.</desc>
<speed>0.000000</speed>
</trkpt>
<trkpt lat="42.900478" lon="19.595585">
<ele>1128.579102</ele>
<time>2012-04-30T11:57:45Z</time>
<desc>lat.=42.900478, lon.=19.595585, Alt.=1128.579102m. Speed=0.180000m/h.</desc>
<speed>0.050000</speed>
</trkpt>
<trkpt lat="42.900478" lon="19.595585">
<ele>1128.297852</ele>
<time>2012-04-30T11:57:50Z</time>
<desc>lat.=42.900478, lon.=19.595585, Alt.=1128.297852m. Speed=0.144000m/h.</desc>
<speed>0.040000</speed>
</trkpt>
<trkpt lat="42.900478" lon="19.595583">
<ele>1128.047852</ele>
<time>2012-04-30T11:57:55Z</time>
<desc>lat.=42.900478, lon.=19.595583, Alt.=1128.047852m. Speed=0.108000m/h.</desc>
<speed>0.030000</speed>
</trkpt>
<trkpt lat="42.900478" lon="19.595581">
<ele>1127.797852</ele>
<time>2012-04-30T11:58:00Z</time>
<desc>lat.=42.900478, lon.=19.595581, Alt.=1127.797852m. Speed=0.144000m/h.</desc>
<speed>0.040000</speed>
</trkpt>
<trkpt lat="42.900478" lon="19.595581">
<ele>1127.547852</ele>
<time>2012-04-30T11:58:05Z</time>
<desc>lat.=42.900478, lon.=19.595581, Alt.=1127.547852m. Speed=0.000000m/h.</desc>
<speed>0.000000</speed>
</trkpt>
<trkpt lat="42.900482" lon="19.595579">
<ele>1127.297852</ele>
<time>2012-04-30T11:58:10Z</time>
<desc>lat.=42.900482, lon.=19.595579, Alt.=1127.297852m. Speed=0.036000m/h.</desc>
<speed>0.010000</speed>
</trkpt>
<trkpt lat="42.900482" lon="19.595579">
<ele>1127.047852</ele>
<time>2012-04-30T11:58:15Z</time>
<desc>lat.=42.900482, lon.=19.595579, Alt.=1127.047852m. Speed=0.036000m/h.</desc>
<speed>0.010000</speed>
</trkpt>
<trkpt lat="42.900482" lon="19.595581">
<ele>1126.766602</ele>
<time>2012-04-30T11:58:20Z</time>
<desc>lat.=42.900482, lon.=19.595581, Alt.=1126.766602m. Speed=0.216000m/h.</desc>
<speed>0.060000</speed>
</trkpt>
<trkpt lat="42.900482" lon="19.595589">
<ele>1126.516602</ele>
<time>2012-04-30T11:58:25Z</time>
<desc>lat.=42.900482, lon.=19.595589, Alt.=1126.516602m. Speed=0.540000m/h.</desc>
<speed>0.150000</speed>
</trkpt>
<trkpt lat="42.900486" lon="19.595594">
<ele>1126.204102</ele>
<time>2012-04-30T11:58:30Z</time>
<desc>lat.=42.900486, lon.=19.595594, Alt.=1126.204102m. Speed=0.288000m/h.</desc>
<speed>0.080000</speed>
</trkpt>
<trkpt lat="42.900486" lon="19.595600">
<ele>1125.860352</ele>
<time>2012-04-30T11:58:35Z</time>
<desc>lat.=42.900486, lon.=19.595600, Alt.=1125.860352m. Speed=0.216000m/h.</desc>
<speed>0.060000</speed>
</trkpt>
<trkpt lat="42.900486" lon="19.595602">
<ele>1125.579102</ele>
<time>2012-04-30T11:58:40Z</time>
<desc>lat.=42.900486, lon.=19.595602, Alt.=1125.579102m. Speed=0.072000m/h.</desc>
<speed>0.020000</speed>
</trkpt>
<trkpt lat="42.900486" lon="19.595600">
<ele>1125.391602</ele>
<time>2012-04-30T11:58:45Z</time>
<desc>lat.=42.900486, lon.=19.595600, Alt.=1125.391602m. Speed=0.144000m/h.</desc>
<speed>0.040000</speed>
</trkpt>
<trkpt lat="42.900486" lon="19.595600">
<ele>1125.204102</ele>
<time>2012-04-30T11:58:50Z</time>
<desc>lat.=42.900486, lon.=19.595600, Alt.=1125.204102m. Speed=0.036000m/h.</desc>
<speed>0.010000</speed>
</trkpt>
<trkpt lat="42.900486" lon="19.595600">
<ele>1125.016602</ele>
<time>2012-04-30T11:58:55Z</time>
<desc>lat.=42.900486, lon.=19.595600, Alt.=1125.016602m. Speed=0.036000m/h.</desc>
<speed>0.010000</speed>
</trkpt>
<trkpt lat="42.900486" lon="19.595600">
<ele>1124.797852</ele>
<time>2012-04-30T11:59:00Z</time>
<desc>lat.=42.900486, lon.=19.595600, Alt.=1124.797852m. Speed=0.072000m/h.</desc>
<speed>0.020000</speed>
</trkpt>
<trkpt lat="42.900490" lon="19.595602">
<ele>1124.547852</ele>
<time>2012-04-30T11:59:05Z</time>
<desc>lat.=42.900490, lon.=19.595602, Alt.=1124.547852m. Speed=0.288000m/h.</desc>
<speed>0.080000</speed>
</trkpt>
<trkpt lat="42.900490" lon="19.595610">
<ele>1124.266602</ele>
<time>2012-04-30T11:59:10Z</time>
<desc>lat.=42.900490, lon.=19.595610, Alt.=1124.266602m. Speed=0.468000m/h.</desc>
<speed>0.130000</speed>
</trkpt>
<trkpt lat="42.900494" lon="19.595615">
<ele>1124.016602</ele>
<time>2012-04-30T11:59:15Z</time>
<desc>lat.=42.900494, lon.=19.595615, Alt.=1124.016602m. Speed=0.360000m/h.</desc>
<speed>0.100000</speed>
</trkpt>
<trkpt lat="42.900494" lon="19.595619">
<ele>1123.766602</ele>
<time>2012-04-30T11:59:20Z</time>
<desc>lat.=42.900494, lon.=19.595619, Alt.=1123.766602m. Speed=0.000000m/h.</desc>
<speed>0.000000</speed>
</trkpt>
<trkpt lat="42.900490" lon="19.595615">
<ele>1123.610352</ele>
<time>2012-04-30T11:59:25Z</time>
<desc>lat.=42.900490, lon.=19.595615, Alt.=1123.610352m. Speed=0.468000m/h.</desc>
<speed>0.130000</speed>
</trkpt>
<trkpt lat="42.900486" lon="19.595604">
<ele>1123.485352</ele>
<time>2012-04-30T11:59:30Z</time>
<desc>lat.=42.900486, lon.=19.595604, Alt.=1123.485352m. Speed=1.008000m/h.</desc>
<speed>0.280000</speed>
</trkpt>
<trkpt lat="42.900478" lon="19.595579">
<ele>1123.891602</ele>
<time>2012-04-30T11:59:35Z</time>
<desc>lat.=42.900478, lon.=19.595579, Alt.=1123.891602m. Speed=1.152000m/h.</desc>
<speed>0.320000</speed>
</trkpt>
<trkpt lat="42.900478" lon="19.595537">
<ele>1124.829102</ele>
<time>2012-04-30T11:59:40Z</time>
<desc>lat.=42.900478, lon.=19.595537, Alt.=1124.829102m. Speed=1.224000m/h.</desc>
<speed>0.340000</speed>
</trkpt>
<trkpt lat="42.900486" lon="19.595482">
<ele>1124.891602</ele>
<time>2012-04-30T11:59:45Z</time>
<desc>lat.=42.900486, lon.=19.595482, Alt.=1124.891602m. Speed=1.440000m/h.</desc>
<speed>0.400000</speed>
</trkpt>
<trkpt lat="42.900482" lon="19.595383">
<ele>1125.954102</ele>
<time>2012-04-30T11:59:50Z</time>
<desc>lat.=42.900482, lon.=19.595383, Alt.=1125.954102m. Speed=2.124000m/h.</desc>
<speed>0.590000</speed>
</trkpt>
<trkpt lat="42.900455" lon="19.595322">
<ele>1126.516602</ele>
<time>2012-04-30T11:59:55Z</time>
<desc>lat.=42.900455, lon.=19.595322, Alt.=1126.516602m. Speed=2.448000m/h.</desc>
<speed>0.680000</speed>
</trkpt>
<trkpt lat="42.900433" lon="19.595236">
<ele>1127.985352</ele>
<time>2012-04-30T12:00:00Z</time>
<desc>lat.=42.900433, lon.=19.595236, Alt.=1127.985352m. Speed=1.584000m/h.</desc>
<speed>0.440000</speed>
</trkpt>
<trkpt lat="42.900425" lon="19.595169">
<ele>1129.454102</ele>
<time>2012-04-30T12:00:05Z</time>
<desc>lat.=42.900425, lon.=19.595169, Alt.=1129.454102m. Speed=1.224000m/h.</desc>
<speed>0.340000</speed>
</trkpt>
<trkpt lat="42.900436" lon="19.595182">
<ele>1132.391602</ele>
<time>2012-04-30T12:00:10Z</time>
<desc>lat.=42.900436, lon.=19.595182, Alt.=1132.391602m. Speed=0.252000m/h.</desc>
<speed>0.070000</speed>
</trkpt>
<trkpt lat="42.900436" lon="19.595181">
<ele>1132.704102</ele>
<time>2012-04-30T12:00:15Z</time>
<desc>lat.=42.900436, lon.=19.595181, Alt.=1132.704102m. Speed=0.288000m/h.</desc>
<speed>0.080000</speed>
</trkpt>
<trkpt lat="42.900436" lon="19.595175">
<ele>1133.016602</ele>
<time>2012-04-30T12:00:20Z</time>
<desc>lat.=42.900436, lon.=19.595175, Alt.=1133.016602m. Speed=0.324000m/h.</desc>
<speed>0.090000</speed>
</trkpt>
<trkpt lat="42.900436" lon="19.595169">
<ele>1133.297852</ele>
<time>2012-04-30T12:00:25Z</time>
<desc>lat.=42.900436, lon.=19.595169, Alt.=1133.297852m. Speed=0.468000m/h.</desc>
<speed>0.130000</speed>
</trkpt>
<trkpt lat="42.900436" lon="19.595163">
<ele>1133.610352</ele>
<time>2012-04-30T12:00:30Z</time>
<desc>lat.=42.900436, lon.=19.595163, Alt.=1133.610352m. Speed=0.216000m/h.</desc>
<speed>0.060000</speed>
</trkpt>
<trkpt lat="42.900433" lon="19.595163">
<ele>1133.797852</ele>
<time>2012-04-30T12:00:35Z</time>
<desc>lat.=42.900433, lon.=19.595163, Alt.=1133.797852m. Speed=0.288000m/h.</desc>
<speed>0.080000</speed>
</trkpt>
<trkpt lat="42.900436" lon="19.595160">
<ele>1133.922852</ele>
<time>2012-04-30T12:00:40Z</time>
<desc>lat.=42.900436, lon.=19.595160, Alt.=1133.922852m. Speed=0.108000m/h.</desc>
<speed>0.030000</speed>
</trkpt>
<trkpt lat="42.900436" lon="19.595160">
<ele>1133.922852</ele>
<time>2012-04-30T12:00:45Z</time>
<desc>lat.=42.900436, lon.=19.595160, Alt.=1133.922852m. Speed=0.036000m/h.</desc>
<speed>0.010000</speed>
</trkpt>
<trkpt lat="42.900436" lon="19.595160">
<ele>1133.954102</ele>
<time>2012-04-30T12:00:50Z</time>
<desc>lat.=42.900436, lon.=19.595160, Alt.=1133.954102m. Speed=0.072000m/h.</desc>
<speed>0.020000</speed>
</trkpt>
<trkpt lat="42.900433" lon="19.595158">
<ele>1134.016602</ele>
<time>2012-04-30T12:00:55Z</time>
<desc>lat.=42.900433, lon.=19.595158, Alt.=1134.016602m. Speed=0.108000m/h.</desc>
<speed>0.030000</speed>
</trkpt>
<trkpt lat="42.900433" lon="19.595156">
<ele>1134.204102</ele>
<time>2012-04-30T12:01:00Z</time>
<desc>lat.=42.900433, lon.=19.595156, Alt.=1134.204102m. Speed=0.036000m/h.</desc>
<speed>0.010000</speed>
</trkpt>
<trkpt lat="42.900433" lon="19.595158">
<ele>1134.235352</ele>
<time>2012-04-30T12:01:05Z</time>
<desc>lat.=42.900433, lon.=19.595158, Alt.=1134.235352m. Speed=0.000000m/h.</desc>
<speed>0.000000</speed>
</trkpt>
<trkpt lat="42.900433" lon="19.595160">
<ele>1134.204102</ele>
<time>2012-04-30T12:01:10Z</time>
<desc>lat.=42.900433, lon.=19.595160, Alt.=1134.204102m. Speed=0.036000m/h.</desc>
<speed>0.010000</speed>
</trkpt>
<trkpt lat="42.900433" lon="19.595160">
<ele>1134.172852</ele>
<time>2012-04-30T12:01:15Z</time>
<desc>lat.=42.900433, lon.=19.595160, Alt.=1134.172852m. Speed=0.036000m/h.</desc>
<speed>0.010000</speed>
</trkpt>
<trkpt lat="42.900433" lon="19.595158">
<ele>1134.079102</ele>
<time>2012-04-30T12:01:20Z</time>
<desc>lat.=42.900433, lon.=19.595158, Alt.=1134.079102m. Speed=0.144000m/h.</desc>
<speed>0.040000</speed>
</trkpt>
<trkpt lat="42.900436" lon="19.595156">
<ele>1134.047852</ele>
<time>2012-04-30T12:01:25Z</time>
<desc>lat.=42.900436, lon.=19.595156, Alt.=1134.047852m. Speed=0.180000m/h.</desc>
<speed>0.050000</speed>
</trkpt>
<trkpt lat="42.900436" lon="19.595152">
<ele>1133.985352</ele>
<time>2012-04-30T12:01:30Z</time>
<desc>lat.=42.900436, lon.=19.595152, Alt.=1133.985352m. Speed=0.180000m/h.</desc>
<speed>0.050000</speed>
</trkpt>
<trkpt lat="42.900436" lon="19.595152">
<ele>1133.860352</ele>
<time>2012-04-30T12:01:35Z</time>
<desc>lat.=42.900436, lon.=19.595152, Alt.=1133.860352m. Speed=0.144000m/h.</desc>
<speed>0.040000</speed>
</trkpt>
<trkpt lat="42.900436" lon="19.595158">
<ele>1133.610352</ele>
<time>2012-04-30T12:01:40Z</time>
<desc>lat.=42.900436, lon.=19.595158, Alt.=1133.610352m. Speed=0.540000m/h.</desc>
<speed>0.150000</speed>
</trkpt>
<trkpt lat="42.900440" lon="19.595171">
<ele>1133.235352</ele>
<time>2012-04-30T12:01:45Z</time>
<desc>lat.=42.900440, lon.=19.595171, Alt.=1133.235352m. Speed=0.900000m/h.</desc>
<speed>0.250000</speed>
</trkpt>
<trkpt lat="42.900440" lon="19.595186">
<ele>1132.829102</ele>
<time>2012-04-30T12:01:50Z</time>
<desc>lat.=42.900440, lon.=19.595186, Alt.=1132.829102m. Speed=1.008000m/h.</desc>
<speed>0.280000</speed>
</trkpt>
<trkpt lat="42.900440" lon="19.595200">
<ele>1132.297852</ele>
<time>2012-04-30T12:01:55Z</time>
<desc>lat.=42.900440, lon.=19.595200, Alt.=1132.297852m. Speed=0.612000m/h.</desc>
<speed>0.170000</speed>
</trkpt>
<trkpt lat="42.900444" lon="19.595205">
<ele>1131.860352</ele>
<time>2012-04-30T12:02:00Z</time>
<desc>lat.=42.900444, lon.=19.595205, Alt.=1131.860352m. Speed=0.108000m/h.</desc>
<speed>0.030000</speed>
</trkpt>
<trkpt lat="42.900444" lon="19.595207">
<ele>1131.579102</ele>
<time>2012-04-30T12:02:05Z</time>
<desc>lat.=42.900444, lon.=19.595207, Alt.=1131.579102m. Speed=0.252000m/h.</desc>
<speed>0.070000</speed>
</trkpt>
<trkpt lat="42.900444" lon="19.595211">
<ele>1131.297852</ele>
<time>2012-04-30T12:02:10Z</time>
<desc>lat.=42.900444, lon.=19.595211, Alt.=1131.297852m. Speed=0.180000m/h.</desc>
<speed>0.050000</speed>
</trkpt>
<trkpt lat="42.900448" lon="19.595213">
<ele>1131.016602</ele>
<time>2012-04-30T12:02:15Z</time>
<desc>lat.=42.900448, lon.=19.595213, Alt.=1131.016602m. Speed=0.108000m/h.</desc>
<speed>0.030000</speed>
</trkpt>
<trkpt lat="42.900448" lon="19.595211">
<ele>1130.704102</ele>
<time>2012-04-30T12:02:20Z</time>
<desc>lat.=42.900448, lon.=19.595211, Alt.=1130.704102m. Speed=0.288000m/h.</desc>
<speed>0.080000</speed>
</trkpt>
<trkpt lat="42.900444" lon="19.595207">
<ele>1130.391602</ele>
<time>2012-04-30T12:02:25Z</time>
<desc>lat.=42.900444, lon.=19.595207, Alt.=1130.391602m. Speed=0.216000m/h.</desc>
<speed>0.060000</speed>
</trkpt>
<trkpt lat="42.900444" lon="19.595205">
<ele>1130.047852</ele>
<time>2012-04-30T12:02:30Z</time>
<desc>lat.=42.900444, lon.=19.595205, Alt.=1130.047852m. Speed=0.144000m/h.</desc>
<speed>0.040000</speed>
</trkpt>
<trkpt lat="42.900444" lon="19.595205">
<ele>1129.579102</ele>
<time>2012-04-30T12:02:35Z</time>
<desc>lat.=42.900444, lon.=19.595205, Alt.=1129.579102m. Speed=0.396000m/h.</desc>
<speed>0.110000</speed>
</trkpt>
<trkpt lat="42.900452" lon="19.595213">
<ele>1129.016602</ele>
<time>2012-04-30T12:02:40Z</time>
<desc>lat.=42.900452, lon.=19.595213, Alt.=1129.016602m. Speed=0.360000m/h.</desc>
<speed>0.100000</speed>
</trkpt>
<trkpt lat="42.900455" lon="19.595219">
<ele>1128.422852</ele>
<time>2012-04-30T12:02:45Z</time>
<desc>lat.=42.900455, lon.=19.595219, Alt.=1128.422852m. Speed=0.360000m/h.</desc>
<speed>0.100000</speed>
</trkpt>
<trkpt lat="42.900459" lon="19.595226">
<ele>1127.735352</ele>
<time>2012-04-30T12:02:50Z</time>
<desc>lat.=42.900459, lon.=19.595226, Alt.=1127.735352m. Speed=0.000000m/h.</desc>
<speed>0.000000</speed>
</trkpt>
<trkpt lat="42.900459" lon="19.595228">
<ele>1127.047852</ele>
<time>2012-04-30T12:02:55Z</time>
<desc>lat.=42.900459, lon.=19.595228, Alt.=1127.047852m. Speed=0.108000m/h.</desc>
<speed>0.030000</speed>
</trkpt>
<trkpt lat="42.900459" lon="19.595230">
<ele>1126.266602</ele>
<time>2012-04-30T12:03:00Z</time>
<desc>lat.=42.900459, lon.=19.595230, Alt.=1126.266602m. Speed=0.036000m/h.</desc>
<speed>0.010000</speed>
</trkpt>
<trkpt lat="42.900455" lon="19.595228">
<ele>1125.422852</ele>
<time>2012-04-30T12:03:05Z</time>
<desc>lat.=42.900455, lon.=19.595228, Alt.=1125.422852m. Speed=0.108000m/h.</desc>
<speed>0.030000</speed>
</trkpt>
<trkpt lat="42.900455" lon="19.595226">
<ele>1124.579102</ele>
<time>2012-04-30T12:03:10Z</time>
<desc>lat.=42.900455, lon.=19.595226, Alt.=1124.579102m. Speed=0.144000m/h.</desc>
<speed>0.040000</speed>
</trkpt>
<trkpt lat="42.900455" lon="19.595224">
<ele>1123.797852</ele>
<time>2012-04-30T12:03:15Z</time>
<desc>lat.=42.900455, lon.=19.595224, Alt.=1123.797852m. Speed=0.180000m/h.</desc>
<speed>0.050000</speed>
</trkpt>
<trkpt lat="42.900452" lon="19.595224">
<ele>1122.985352</ele>
<time>2012-04-30T12:03:20Z</time>
<desc>lat.=42.900452, lon.=19.595224, Alt.=1122.985352m. Speed=0.036000m/h.</desc>
<speed>0.010000</speed>
</trkpt>
<trkpt lat="42.900455" lon="19.595228">
<ele>1122.235352</ele>
<time>2012-04-30T12:03:25Z</time>
<desc>lat.=42.900455, lon.=19.595228, Alt.=1122.235352m. Speed=0.540000m/h.</desc>
<speed>0.150000</speed>
</trkpt>
<trkpt lat="42.900459" lon="19.595238">
<ele>1121.547852</ele>
<time>2012-04-30T12:03:30Z</time>
<desc>lat.=42.900459, lon.=19.595238, Alt.=1121.547852m. Speed=0.864000m/h.</desc>
<speed>0.240000</speed>
</trkpt>
<trkpt lat="42.900467" lon="19.595249">
<ele>1120.829102</ele>
<time>2012-04-30T12:03:35Z</time>
<desc>lat.=42.900467, lon.=19.595249, Alt.=1120.829102m. Speed=0.792000m/h.</desc>
<speed>0.220000</speed>
</trkpt>
<trkpt lat="42.900471" lon="19.595255">
<ele>1120.141602</ele>
<time>2012-04-30T12:03:40Z</time>
<desc>lat.=42.900471, lon.=19.595255, Alt.=1120.141602m. Speed=0.144000m/h.</desc>
<speed>0.040000</speed>
</trkpt>
<trkpt lat="42.900475" lon="19.595259">
<ele>1119.422852</ele>
<time>2012-04-30T12:03:45Z</time>
<desc>lat.=42.900475, lon.=19.595259, Alt.=1119.422852m. Speed=0.216000m/h.</desc>
<speed>0.060000</speed>
</trkpt>
<trkpt lat="42.900471" lon="19.595259">
<ele>1118.704102</ele>
<time>2012-04-30T12:03:50Z</time>
<desc>lat.=42.900471, lon.=19.595259, Alt.=1118.704102m. Speed=0.072000m/h.</desc>
<speed>0.020000</speed>
</trkpt>
<trkpt lat="42.900471" lon="19.595259">
<ele>1118.016602</ele>
<time>2012-04-30T12:03:55Z</time>
<desc>lat.=42.900471, lon.=19.595259, Alt.=1118.016602m. Speed=0.180000m/h.</desc>
<speed>0.050000</speed>
</trkpt>
<trkpt lat="42.900467" lon="19.595257">
<ele>1117.297852</ele>
<time>2012-04-30T12:04:00Z</time>
<desc>lat.=42.900467, lon.=19.595257, Alt.=1117.297852m. Speed=0.288000m/h.</desc>
<speed>0.080000</speed>
</trkpt>
<trkpt lat="42.900467" lon="19.595253">
<ele>1116.672852</ele>
<time>2012-04-30T12:04:05Z</time>
<desc>lat.=42.900467, lon.=19.595253, Alt.=1116.672852m. Speed=0.144000m/h.</desc>
<speed>0.040000</speed>
</trkpt>
<trkpt lat="42.900467" lon="19.595257">
<ele>1116.079102</ele>
<time>2012-04-30T12:04:10Z</time>
<desc>lat.=42.900467, lon.=19.595257, Alt.=1116.079102m. Speed=0.648000m/h.</desc>
<speed>0.180000</speed>
</trkpt>
<trkpt lat="42.900471" lon="19.595268">
<ele>1115.454102</ele>
<time>2012-04-30T12:04:15Z</time>
<desc>lat.=42.900471, lon.=19.595268, Alt.=1115.454102m. Speed=0.396000m/h.</desc>
<speed>0.110000</speed>
</trkpt>
<trkpt lat="42.900463" lon="19.595259">
<ele>1115.735352</ele>
<time>2012-04-30T12:04:20Z</time>
<desc>lat.=42.900463, lon.=19.595259, Alt.=1115.735352m. Speed=0.144000m/h.</desc>
<speed>0.040000</speed>
</trkpt>
<trkpt lat="42.900455" lon="19.595263">
<ele>1118.141602</ele>
<time>2012-04-30T12:04:25Z</time>
<desc>lat.=42.900455, lon.=19.595263, Alt.=1118.141602m. Speed=0.144000m/h.</desc>
<speed>0.040000</speed>
</trkpt>
<trkpt lat="42.900459" lon="19.595327">
<ele>1119.985352</ele>
<time>2012-04-30T12:04:30Z</time>
<desc>lat.=42.900459, lon.=19.595327, Alt.=1119.985352m. Speed=0.576000m/h.</desc>
<speed>0.160000</speed>
</trkpt>
<trkpt lat="42.900475" lon="19.595362">
<ele>1121.704102</ele>
<time>2012-04-30T12:04:35Z</time>
<desc>lat.=42.900475, lon.=19.595362, Alt.=1121.704102m. Speed=0.972000m/h.</desc>
<speed>0.270000</speed>
</trkpt>
<trkpt lat="42.900486" lon="19.595402">
<ele>1122.110352</ele>
<time>2012-04-30T12:04:40Z</time>
<desc>lat.=42.900486, lon.=19.595402, Alt.=1122.110352m. Speed=1.116000m/h.</desc>
<speed>0.310000</speed>
</trkpt>
<trkpt lat="42.900463" lon="19.595409">
<ele>1123.016602</ele>
<time>2012-04-30T12:04:45Z</time>
<desc>lat.=42.900463, lon.=19.595409, Alt.=1123.016602m. Speed=0.576000m/h.</desc>
<speed>0.160000</speed>
</trkpt>
<trkpt lat="42.900421" lon="19.595379">
<ele>1124.579102</ele>
<time>2012-04-30T12:04:50Z</time>
<desc>lat.=42.900421, lon.=19.595379, Alt.=1124.579102m. Speed=0.612000m/h.</desc>
<speed>0.170000</speed>
</trkpt>
<trkpt lat="42.900410" lon="19.595375">
<ele>1124.954102</ele>
<time>2012-04-30T12:04:55Z</time>
<desc>lat.=42.900410, lon.=19.595375, Alt.=1124.954102m. Speed=0.324000m/h.</desc>
<speed>0.090000</speed>
</trkpt>
<trkpt lat="42.900398" lon="19.595335">
<ele>1125.016602</ele>
<time>2012-04-30T12:05:00Z</time>
<desc>lat.=42.900398, lon.=19.595335, Alt.=1125.016602m. Speed=0.720000m/h.</desc>
<speed>0.200000</speed>
</trkpt>
<trkpt lat="42.900379" lon="19.595295">
<ele>1124.766602</ele>
<time>2012-04-30T12:05:05Z</time>
<desc>lat.=42.900379, lon.=19.595295, Alt.=1124.766602m. Speed=0.792000m/h.</desc>
<speed>0.220000</speed>
</trkpt>
<trkpt lat="42.900375" lon="19.595306">
<ele>1124.141602</ele>
<time>2012-04-30T12:05:10Z</time>
<desc>lat.=42.900375, lon.=19.595306, Alt.=1124.141602m. Speed=0.396000m/h.</desc>
<speed>0.110000</speed>
</trkpt>
<trkpt lat="42.900375" lon="19.595304">
<ele>1123.954102</ele>
<time>2012-04-30T12:05:15Z</time>
<desc>lat.=42.900375, lon.=19.595304, Alt.=1123.954102m. Speed=0.216000m/h.</desc>
<speed>0.060000</speed>
</trkpt>
<trkpt lat="42.900375" lon="19.595310">
<ele>1123.797852</ele>
<time>2012-04-30T12:05:20Z</time>
<desc>lat.=42.900375, lon.=19.595310, Alt.=1123.797852m. Speed=0.252000m/h.</desc>
<speed>0.070000</speed>
</trkpt>
<trkpt lat="42.900375" lon="19.595318">
<ele>1123.641602</ele>
<time>2012-04-30T12:05:25Z</time>
<desc>lat.=42.900375, lon.=19.595318, Alt.=1123.641602m. Speed=0.108000m/h.</desc>
<speed>0.030000</speed>
</trkpt>
<trkpt lat="42.900375" lon="19.595318">
<ele>1123.547852</ele>
<time>2012-04-30T12:05:30Z</time>
<desc>lat.=42.900375, lon.=19.595318, Alt.=1123.547852m. Speed=0.072000m/h.</desc>
<speed>0.020000</speed>
</trkpt>
<trkpt lat="42.900375" lon="19.595320">
<ele>1123.454102</ele>
<time>2012-04-30T12:05:35Z</time>
<desc>lat.=42.900375, lon.=19.595320, Alt.=1123.454102m. Speed=0.432000m/h.</desc>
<speed>0.120000</speed>
</trkpt>
<trkpt lat="42.900394" lon="19.595339">
<ele>1123.672852</ele>
<time>2012-04-30T12:05:40Z</time>
<desc>lat.=42.900394, lon.=19.595339, Alt.=1123.672852m. Speed=1.260000m/h.</desc>
<speed>0.350000</speed>
</trkpt>
<trkpt lat="42.900410" lon="19.595379">
<ele>1123.547852</ele>
<time>2012-04-30T12:05:45Z</time>
<desc>lat.=42.900410, lon.=19.595379, Alt.=1123.547852m. Speed=0.900000m/h.</desc>
<speed>0.250000</speed>
</trkpt>
<trkpt lat="42.900410" lon="19.595419">
<ele>1123.422852</ele>
<time>2012-04-30T12:05:50Z</time>
<desc>lat.=42.900410, lon.=19.595419, Alt.=1123.422852m. Speed=1.476000m/h.</desc>
<speed>0.410000</speed>
</trkpt>
<trkpt lat="42.900421" lon="19.595501">
<ele>1123.610352</ele>
<time>2012-04-30T12:05:55Z</time>
<desc>lat.=42.900421, lon.=19.595501, Alt.=1123.610352m. Speed=1.080000m/h.</desc>
<speed>0.300000</speed>
</trkpt>
<trkpt lat="42.900448" lon="19.595530">
<ele>1122.954102</ele>
<time>2012-04-30T12:06:00Z</time>
<desc>lat.=42.900448, lon.=19.595530, Alt.=1122.954102m. Speed=1.188000m/h.</desc>
<speed>0.330000</speed>
</trkpt>
<trkpt lat="42.900475" lon="19.595552">
<ele>1122.297852</ele>
<time>2012-04-30T12:06:05Z</time>
<desc>lat.=42.900475, lon.=19.595552, Alt.=1122.297852m. Speed=0.864000m/h.</desc>
<speed>0.240000</speed>
</trkpt>
<trkpt lat="42.900467" lon="19.595490">
<ele>1122.985352</ele>
<time>2012-04-30T12:06:10Z</time>
<desc>lat.=42.900467, lon.=19.595490, Alt.=1122.985352m. Speed=0.360000m/h.</desc>
<speed>0.100000</speed>
</trkpt>
<trkpt lat="42.900467" lon="19.595482">
<ele>1122.891602</ele>
<time>2012-04-30T12:06:15Z</time>
<desc>lat.=42.900467, lon.=19.595482, Alt.=1122.891602m. Speed=0.108000m/h.</desc>
<speed>0.030000</speed>
</trkpt>
<trkpt lat="42.900467" lon="19.595478">
<ele>1122.829102</ele>
<time>2012-04-30T12:06:20Z</time>
<desc>lat.=42.900467, lon.=19.595478, Alt.=1122.829102m. Speed=0.180000m/h.</desc>
<speed>0.050000</speed>
</trkpt>
<trkpt lat="42.900471" lon="19.595478">
<ele>1122.672852</ele>
<time>2012-04-30T12:06:25Z</time>
<desc>lat.=42.900471, lon.=19.595478, Alt.=1122.672852m. Speed=0.180000m/h.</desc>
<speed>0.050000</speed>
</trkpt>
<trkpt lat="42.900471" lon="19.595478">
<ele>1122.641602</ele>
<time>2012-04-30T12:06:30Z</time>
<desc>lat.=42.900471, lon.=19.595478, Alt.=1122.641602m. Speed=0.144000m/h.</desc>
<speed>0.040000</speed>
</trkpt>
<trkpt lat="42.900471" lon="19.595476">
<ele>1122.672852</ele>
<time>2012-04-30T12:06:35Z</time>
<desc>lat.=42.900471, lon.=19.595476, Alt.=1122.672852m. Speed=0.540000m/h.</desc>
<speed>0.150000</speed>
</trkpt>
<trkpt lat="42.900482" lon="19.595474">
<ele>1122.797852</ele>
<time>2012-04-30T12:06:40Z</time>
<desc>lat.=42.900482, lon.=19.595474, Alt.=1122.797852m. Speed=0.612000m/h.</desc>
<speed>0.170000</speed>
</trkpt>
<trkpt lat="42.900490" lon="19.595470">
<ele>1122.891602</ele>
<time>2012-04-30T12:06:45Z</time>
<desc>lat.=42.900490, lon.=19.595470, Alt.=1122.891602m. Speed=0.612000m/h.</desc>
<speed>0.170000</speed>
</trkpt>
<trkpt lat="42.900494" lon="19.595469">
<ele>1122.985352</ele>
<time>2012-04-30T12:06:50Z</time>
<desc>lat.=42.900494, lon.=19.595469, Alt.=1122.985352m. Speed=0.252000m/h.</desc>
<speed>0.070000</speed>
</trkpt>
<trkpt lat="42.900494" lon="19.595470">
<ele>1122.985352</ele>
<time>2012-04-30T12:06:55Z</time>
<desc>lat.=42.900494, lon.=19.595470, Alt.=1122.985352m. Speed=0.108000m/h.</desc>
<speed>0.030000</speed>
</trkpt>
<trkpt lat="42.900494" lon="19.595474">
<ele>1122.922852</ele>
<time>2012-04-30T12:07:00Z</time>
<desc>lat.=42.900494, lon.=19.595474, Alt.=1122.922852m. Speed=0.144000m/h.</desc>
<speed>0.040000</speed>
</trkpt>
<trkpt lat="42.900494" lon="19.595476">
<ele>1122.891602</ele>
<time>2012-04-30T12:07:05Z</time>
<desc>lat.=42.900494, lon.=19.595476, Alt.=1122.891602m. Speed=0.144000m/h.</desc>
<speed>0.040000</speed>
</trkpt>
<trkpt lat="42.900497" lon="19.595478">
<ele>1122.954102</ele>
<time>2012-04-30T12:07:10Z</time>
<desc>lat.=42.900497, lon.=19.595478, Alt.=1122.954102m. Speed=0.072000m/h.</desc>
<speed>0.020000</speed>
</trkpt>
<trkpt lat="42.900497" lon="19.595480">
<ele>1123.141602</ele>
<time>2012-04-30T12:07:15Z</time>
<desc>lat.=42.900497, lon.=19.595480, Alt.=1123.141602m. Speed=0.072000m/h.</desc>
<speed>0.020000</speed>
</trkpt>
<trkpt lat="42.900497" lon="19.595484">
<ele>1123.235352</ele>
<time>2012-04-30T12:07:20Z</time>
<desc>lat.=42.900497, lon.=19.595484, Alt.=1123.235352m. Speed=0.216000m/h.</desc>
<speed>0.060000</speed>
</trkpt>
<trkpt lat="42.900497" lon="19.595488">
<ele>1123.204102</ele>
<time>2012-04-30T12:07:25Z</time>
<desc>lat.=42.900497, lon.=19.595488, Alt.=1123.204102m. Speed=0.108000m/h.</desc>
<speed>0.030000</speed>
</trkpt>
<trkpt lat="42.900497" lon="19.595486">
<ele>1123.297852</ele>
<time>2012-04-30T12:07:30Z</time>
<desc>lat.=42.900497, lon.=19.595486, Alt.=1123.297852m. Speed=0.036000m/h.</desc>
<speed>0.010000</speed>
</trkpt>
<trkpt lat="42.900494" lon="19.595488">
<ele>1123.297852</ele>
<time>2012-04-30T12:07:35Z</time>
<desc>lat.=42.900494, lon.=19.595488, Alt.=1123.297852m. Speed=0.324000m/h.</desc>
<speed>0.090000</speed>
</trkpt>
<trkpt lat="42.900490" lon="19.595490">
<ele>1123.329102</ele>
<time>2012-04-30T12:07:40Z</time>
<desc>lat.=42.900490, lon.=19.595490, Alt.=1123.329102m. Speed=0.036000m/h.</desc>
<speed>0.010000</speed>
</trkpt>
<trkpt lat="42.900490" lon="19.595491">
<ele>1123.266602</ele>
<time>2012-04-30T12:07:45Z</time>
<desc>lat.=42.900490, lon.=19.595491, Alt.=1123.266602m. Speed=0.036000m/h.</desc>
<speed>0.010000</speed>
</trkpt>
<trkpt lat="42.900490" lon="19.595491">
<ele>1123.235352</ele>
<time>2012-04-30T12:07:50Z</time>
<desc>lat.=42.900490, lon.=19.595491, Alt.=1123.235352m. Speed=0.036000m/h.</desc>
<speed>0.010000</speed>
</trkpt>
<trkpt lat="42.900490" lon="19.595493">
<ele>1123.141602</ele>
<time>2012-04-30T12:07:55Z</time>
<desc>lat.=42.900490, lon.=19.595493, Alt.=1123.141602m. Speed=0.036000m/h.</desc>
<speed>0.010000</speed>
</trkpt>
<trkpt lat="42.900490" lon="19.595495">
<ele>1123.110352</ele>
<time>2012-04-30T12:08:00Z</time>
<desc>lat.=42.900490, lon.=19.595495, Alt.=1123.110352m. Speed=0.000000m/h.</desc>
<speed>0.000000</speed>
</trkpt>
<trkpt lat="42.900490" lon="19.595495">
<ele>1123.110352</ele>
<time>2012-04-30T12:08:05Z</time>
<desc>lat.=42.900490, lon.=19.595495, Alt.=1123.110352m. Speed=0.000000m/h.</desc>
<speed>0.000000</speed>
</trkpt>
<trkpt lat="42.900494" lon="19.595497">
<ele>1123.141602</ele>
<time>2012-04-30T12:08:10Z</time>
<desc>lat.=42.900494, lon.=19.595497, Alt.=1123.141602m. Speed=0.000000m/h.</desc>
<speed>0.000000</speed>
</trkpt>
<trkpt lat="42.900490" lon="19.595497">
<ele>1123.266602</ele>
<time>2012-04-30T12:08:15Z</time>
<desc>lat.=42.900490, lon.=19.595497, Alt.=1123.266602m. Speed=0.036000m/h.</desc>
<speed>0.010000</speed>
</trkpt>
<trkpt lat="42.900490" lon="19.595495">
<ele>1123.672852</ele>
<time>2012-04-30T12:08:20Z</time>
<desc>lat.=42.900490, lon.=19.595495, Alt.=1123.672852m. Speed=0.324000m/h.</desc>
<speed>0.090000</speed>
</trkpt>
<trkpt lat="42.900482" lon="19.595490">
<ele>1124.391602</ele>
<time>2012-04-30T12:08:25Z</time>
<desc>lat.=42.900482, lon.=19.595490, Alt.=1124.391602m. Speed=0.468000m/h.</desc>
<speed>0.130000</speed>
</trkpt>
<trkpt lat="42.900478" lon="19.595488">
<ele>1125.266602</ele>
<time>2012-04-30T12:08:30Z</time>
<desc>lat.=42.900478, lon.=19.595488, Alt.=1125.266602m. Speed=0.144000m/h.</desc>
<speed>0.040000</speed>
</trkpt>
<trkpt lat="42.900478" lon="19.595490">
<ele>1125.985352</ele>
<time>2012-04-30T12:08:35Z</time>
<desc>lat.=42.900478, lon.=19.595490, Alt.=1125.985352m. Speed=0.072000m/h.</desc>
<speed>0.020000</speed>
</trkpt>
<trkpt lat="42.900478" lon="19.595490">
<ele>1126.547852</ele>
<time>2012-04-30T12:08:40Z</time>
<desc>lat.=42.900478, lon.=19.595490, Alt.=1126.547852m. Speed=0.144000m/h.</desc>
<speed>0.040000</speed>
</trkpt>
<trkpt lat="42.900482" lon="19.595490">
<ele>1127.047852</ele>
<time>2012-04-30T12:08:45Z</time>
<desc>lat.=42.900482, lon.=19.595490, Alt.=1127.047852m. Speed=0.216000m/h.</desc>
<speed>0.060000</speed>
</trkpt>
<trkpt lat="42.900482" lon="19.595488">
<ele>1127.516602</ele>
<time>2012-04-30T12:08:50Z</time>
<desc>lat.=42.900482, lon.=19.595488, Alt.=1127.516602m. Speed=0.288000m/h.</desc>
<speed>0.080000</speed>
</trkpt>
<trkpt lat="42.900486" lon="19.595482">
<ele>1127.985352</ele>
<time>2012-04-30T12:08:55Z</time>
<desc>lat.=42.900486, lon.=19.595482, Alt.=1127.985352m. Speed=0.396000m/h.</desc>
<speed>0.110000</speed>
</trkpt>
<trkpt lat="42.900490" lon="19.595480">
<ele>1128.485352</ele>
<time>2012-04-30T12:09:00Z</time>
<desc>lat.=42.900490, lon.=19.595480, Alt.=1128.485352m. Speed=0.324000m/h.</desc>
<speed>0.090000</speed>
</trkpt>
<trkpt lat="42.900494" lon="19.595476">
<ele>1129.016602</ele>
<time>2012-04-30T12:09:05Z</time>
<desc>lat.=42.900494, lon.=19.595476, Alt.=1129.016602m. Speed=0.576000m/h.</desc>
<speed>0.160000</speed>
</trkpt>
<trkpt lat="42.900501" lon="19.595470">
<ele>1129.516602</ele>
<time>2012-04-30T12:09:10Z</time>
<desc>lat.=42.900501, lon.=19.595470, Alt.=1129.516602m. Speed=0.684000m/h.</desc>
<speed>0.190000</speed>
</trkpt>
<trkpt lat="42.900505" lon="19.595459">
<ele>1129.985352</ele>
<time>2012-04-30T12:09:15Z</time>
<desc>lat.=42.900505, lon.=19.595459, Alt.=1129.985352m. Speed=0.972000m/h.</desc>
<speed>0.270000</speed>
</trkpt>
<trkpt lat="42.900513" lon="19.595446">
<ele>1130.422852</ele>
<time>2012-04-30T12:09:20Z</time>
<desc>lat.=42.900513, lon.=19.595446, Alt.=1130.422852m. Speed=0.936000m/h.</desc>
<speed>0.260000</speed>
</trkpt>
<trkpt lat="42.900517" lon="19.595415">
<ele>1131.735352</ele>
<time>2012-04-30T12:09:25Z</time>
<desc>lat.=42.900517, lon.=19.595415, Alt.=1131.735352m. Speed=1.044000m/h.</desc>
<speed>0.290000</speed>
</trkpt>
<trkpt lat="42.900513" lon="19.595383">
<ele>1132.985352</ele>
<time>2012-04-30T12:09:30Z</time>
<desc>lat.=42.900513, lon.=19.595383, Alt.=1132.985352m. Speed=1.152000m/h.</desc>
<speed>0.320000</speed>
</trkpt>
<trkpt lat="42.900555" lon="19.595417">
<ele>1135.672852</ele>
<time>2012-04-30T12:09:35Z</time>
<desc>lat.=42.900555, lon.=19.595417, Alt.=1135.672852m. Speed=0.900000m/h.</desc>
<speed>0.250000</speed>
</trkpt>
<trkpt lat="42.900570" lon="19.595406">
<ele>1138.297852</ele>
<time>2012-04-30T12:09:40Z</time>
<desc>lat.=42.900570, lon.=19.595406, Alt.=1138.297852m. Speed=1.224000m/h.</desc>
<speed>0.340000</speed>
</trkpt>
<trkpt lat="42.900585" lon="19.595438">
<ele>1140.641602</ele>
<time>2012-04-30T12:09:45Z</time>
<desc>lat.=42.900585, lon.=19.595438, Alt.=1140.641602m. Speed=0.900000m/h.</desc>
<speed>0.250000</speed>
</trkpt>
<trkpt lat="42.900585" lon="19.595423">
<ele>1141.079102</ele>
<time>2012-04-30T12:09:50Z</time>
<desc>lat.=42.900585, lon.=19.595423, Alt.=1141.079102m. Speed=0.720000m/h.</desc>
<speed>0.200000</speed>
</trkpt>
<trkpt lat="42.900589" lon="19.595413">
<ele>1141.454102</ele>
<time>2012-04-30T12:09:55Z</time>
<desc>lat.=42.900589, lon.=19.595413, Alt.=1141.454102m. Speed=0.468000m/h.</desc>
<speed>0.130000</speed>
</trkpt>
<trkpt lat="42.900589" lon="19.595409">
<ele>1141.797852</ele>
<time>2012-04-30T12:10:00Z</time>
<desc>lat.=42.900589, lon.=19.595409, Alt.=1141.797852m. Speed=0.144000m/h.</desc>
<speed>0.040000</speed>
</trkpt>
<trkpt lat="42.900593" lon="19.595411">
<ele>1142.172852</ele>
<time>2012-04-30T12:10:05Z</time>
<desc>lat.=42.900593, lon.=19.595411, Alt.=1142.172852m. Speed=0.396000m/h.</desc>
<speed>0.110000</speed>
</trkpt>
<trkpt lat="42.900597" lon="19.595419">
<ele>1142.516602</ele>
<time>2012-04-30T12:10:10Z</time>
<desc>lat.=42.900597, lon.=19.595419, Alt.=1142.516602m. Speed=0.396000m/h.</desc>
<speed>0.110000</speed>
</trkpt>
<trkpt lat="42.900597" lon="19.595423">
<ele>1142.891602</ele>
<time>2012-04-30T12:10:15Z</time>
<desc>lat.=42.900597, lon.=19.595423, Alt.=1142.891602m. Speed=0.216000m/h.</desc>
<speed>0.060000</speed>
</trkpt>
<trkpt lat="42.900593" lon="19.595421">
<ele>1143.266602</ele>
<time>2012-04-30T12:10:20Z</time>
<desc>lat.=42.900593, lon.=19.595421, Alt.=1143.266602m. Speed=0.324000m/h.</desc>
<speed>0.090000</speed>
</trkpt>
<trkpt lat="42.900589" lon="19.595421">
<ele>1143.610352</ele>
<time>2012-04-30T12:10:25Z</time>
<desc>lat.=42.900589, lon.=19.595421, Alt.=1143.610352m. Speed=0.324000m/h.</desc>
<speed>0.090000</speed>
</trkpt>
<trkpt lat="42.900585" lon="19.595427">
<ele>1143.985352</ele>
<time>2012-04-30T12:10:30Z</time>
<desc>lat.=42.900585, lon.=19.595427, Alt.=1143.985352m. Speed=0.324000m/h.</desc>
<speed>0.090000</speed>
</trkpt>
<trkpt lat="42.900585" lon="19.595434">
<ele>1144.329102</ele>
<time>2012-04-30T12:10:35Z</time>
<desc>lat.=42.900585, lon.=19.595434, Alt.=1144.329102m. Speed=0.468000m/h.</desc>
<speed>0.130000</speed>
</trkpt>
<trkpt lat="42.900585" lon="19.595440">
<ele>1144.704102</ele>
<time>2012-04-30T12:10:40Z</time>
<desc>lat.=42.900585, lon.=19.595440, Alt.=1144.704102m. Speed=0.180000m/h.</desc>
<speed>0.050000</speed>
</trkpt>
<trkpt lat="42.900585" lon="19.595442">
<ele>1145.047852</ele>
<time>2012-04-30T12:10:45Z</time>
<desc>lat.=42.900585, lon.=19.595442, Alt.=1145.047852m. Speed=0.072000m/h.</desc>
<speed>0.020000</speed>
</trkpt>
<trkpt lat="42.900589" lon="19.595442">
<ele>1145.297852</ele>
<time>2012-04-30T12:10:50Z</time>
<desc>lat.=42.900589, lon.=19.595442, Alt.=1145.297852m. Speed=0.072000m/h.</desc>
<speed>0.020000</speed>
</trkpt>
<trkpt lat="42.900589" lon="19.595442">
<ele>1145.360352</ele>
<time>2012-04-30T12:10:55Z</time>
<desc>lat.=42.900589, lon.=19.595442, Alt.=1145.360352m. Speed=0.108000m/h.</desc>
<speed>0.030000</speed>
</trkpt>
<trkpt lat="42.900589" lon="19.595442">
<ele>1145.360352</ele>
<time>2012-04-30T12:11:00Z</time>
<desc>lat.=42.900589, lon.=19.595442, Alt.=1145.360352m. Speed=0.036000m/h.</desc>
<speed>0.010000</speed>
</trkpt>
<trkpt lat="42.900589" lon="19.595442">
<ele>1145.360352</ele>
<time>2012-04-30T12:11:05Z</time>
<desc>lat.=42.900589, lon.=19.595442, Alt.=1145.360352m. Speed=0.036000m/h.</desc>
<speed>0.010000</speed>
</trkpt>
<trkpt lat="42.900589" lon="19.595442">
<ele>1145.360352</ele>
<time>2012-04-30T12:11:10Z</time>
<desc>lat.=42.900589, lon.=19.595442, Alt.=1145.360352m. Speed=0.072000m/h.</desc>
<speed>0.020000</speed>
</trkpt>
<trkpt lat="42.900589" lon="19.595444">
<ele>1145.329102</ele>
<time>2012-04-30T12:11:15Z</time>
<desc>lat.=42.900589, lon.=19.595444, Alt.=1145.329102m. Speed=0.000000m/h.</desc>
<speed>0.000000</speed>
</trkpt>
<trkpt lat="42.900589" lon="19.595444">
<ele>1145.297852</ele>
<time>2012-04-30T12:11:20Z</time>
<desc>lat.=42.900589, lon.=19.595444, Alt.=1145.297852m. Speed=0.072000m/h.</desc>
<speed>0.020000</speed>
</trkpt>
<trkpt lat="42.900589" lon="19.595446">
<ele>1145.235352</ele>
<time>2012-04-30T12:11:25Z</time>
<desc>lat.=42.900589, lon.=19.595446, Alt.=1145.235352m. Speed=0.144000m/h.</desc>
<speed>0.040000</speed>
</trkpt>
<trkpt lat="42.900593" lon="19.595449">
<ele>1145.141602</ele>
<time>2012-04-30T12:11:30Z</time>
<desc>lat.=42.900593, lon.=19.595449, Alt.=1145.141602m. Speed=0.180000m/h.</desc>
<speed>0.050000</speed>
</trkpt>
<trkpt lat="42.900593" lon="19.595453">
<ele>1144.954102</ele>
<time>2012-04-30T12:11:35Z</time>
<desc>lat.=42.900593, lon.=19.595453, Alt.=1144.954102m. Speed=0.252000m/h.</desc>
<speed>0.070000</speed>
</trkpt>
<trkpt lat="42.900593" lon="19.595455">
<ele>1144.891602</ele>
<time>2012-04-30T12:11:40Z</time>
<desc>lat.=42.900593, lon.=19.595455, Alt.=1144.891602m. Speed=0.108000m/h.</desc>
<speed>0.030000</speed>
</trkpt>
<trkpt lat="42.900593" lon="19.595455">
<ele>1144.860352</ele>
<time>2012-04-30T12:11:45Z</time>
<desc>lat.=42.900593, lon.=19.595455, Alt.=1144.860352m. Speed=0.036000m/h.</desc>
<speed>0.010000</speed>
</trkpt>
<trkpt lat="42.900593" lon="19.595455">
<ele>1144.829102</ele>
<time>2012-04-30T12:11:50Z</time>
<desc>lat.=42.900593, lon.=19.595455, Alt.=1144.829102m. Speed=0.900000m/h.</desc>
<speed>0.250000</speed>
</trkpt>
<trkpt lat="42.900616" lon="19.595417">
<ele>1143.891602</ele>
<time>2012-04-30T12:11:55Z</time>
<desc>lat.=42.900616, lon.=19.595417, Alt.=1143.891602m. Speed=2.808000m/h.</desc>
<speed>0.780000</speed>
</trkpt>
<trkpt lat="42.900623" lon="19.595438">
<ele>1141.422852</ele>
<time>2012-04-30T12:12:00Z</time>
<desc>lat.=42.900623, lon.=19.595438, Alt.=1141.422852m. Speed=0.180000m/h.</desc>
<speed>0.050000</speed>
</trkpt>
<trkpt lat="42.900623" lon="19.595434">
<ele>1140.454102</ele>
<time>2012-04-30T12:12:05Z</time>
<desc>lat.=42.900623, lon.=19.595434, Alt.=1140.454102m. Speed=0.108000m/h.</desc>
<speed>0.030000</speed>
</trkpt>
<trkpt lat="42.900620" lon="19.595434">
<ele>1140.297852</ele>
<time>2012-04-30T12:12:10Z</time>
<desc>lat.=42.900620, lon.=19.595434, Alt.=1140.297852m. Speed=0.540000m/h.</desc>
<speed>0.150000</speed>
</trkpt>
<trkpt lat="42.900616" lon="19.595442">
<ele>1140.235352</ele>
<time>2012-04-30T12:12:15Z</time>
<desc>lat.=42.900616, lon.=19.595442, Alt.=1140.235352m. Speed=0.540000m/h.</desc>
<speed>0.150000</speed>
</trkpt>
<trkpt lat="42.900612" lon="19.595446">
<ele>1140.204102</ele>
<time>2012-04-30T12:12:20Z</time>
<desc>lat.=42.900612, lon.=19.595446, Alt.=1140.204102m. Speed=0.144000m/h.</desc>
<speed>0.040000</speed>
</trkpt>
<trkpt lat="42.900608" lon="19.595448">
<ele>1140.141602</ele>
<time>2012-04-30T12:12:25Z</time>
<desc>lat.=42.900608, lon.=19.595448, Alt.=1140.141602m. Speed=0.288000m/h.</desc>
<speed>0.080000</speed>
</trkpt>
<trkpt lat="42.900608" lon="19.595449">
<ele>1140.079102</ele>
<time>2012-04-30T12:12:30Z</time>
<desc>lat.=42.900608, lon.=19.595449, Alt.=1140.079102m. Speed=0.108000m/h.</desc>
<speed>0.030000</speed>
</trkpt>
<trkpt lat="42.900608" lon="19.595449">
<ele>1140.016602</ele>
<time>2012-04-30T12:12:35Z</time>
<desc>lat.=42.900608, lon.=19.595449, Alt.=1140.016602m. Speed=0.072000m/h.</desc>
<speed>0.020000</speed>
</trkpt>
<trkpt lat="42.900612" lon="19.595451">
<ele>1139.954102</ele>
<time>2012-04-30T12:12:40Z</time>
<desc>lat.=42.900612, lon.=19.595451, Alt.=1139.954102m. Speed=0.036000m/h.</desc>
<speed>0.010000</speed>
</trkpt>
<trkpt lat="42.900612" lon="19.595451">
<ele>1139.891602</ele>
<time>2012-04-30T12:12:45Z</time>
<desc>lat.=42.900612, lon.=19.595451, Alt.=1139.891602m. Speed=0.108000m/h.</desc>
<speed>0.030000</speed>
</trkpt>
<trkpt lat="42.900612" lon="19.595453">
<ele>1139.829102</ele>
<time>2012-04-30T12:12:50Z</time>
<desc>lat.=42.900612, lon.=19.595453, Alt.=1139.829102m. Speed=1.728000m/h.</desc>
<speed>0.480000</speed>
</trkpt>
<trkpt lat="42.900627" lon="19.595449">
<ele>1139.141602</ele>
<time>2012-04-30T12:12:55Z</time>
<desc>lat.=42.900627, lon.=19.595449, Alt.=1139.141602m. Speed=0.612000m/h.</desc>
<speed>0.170000</speed>
</trkpt>
<trkpt lat="42.900627" lon="19.595449">
<ele>1139.047852</ele>
<time>2012-04-30T12:13:00Z</time>
<desc>lat.=42.900627, lon.=19.595449, Alt.=1139.047852m. Speed=0.576000m/h.</desc>
<speed>0.160000</speed>
</trkpt>
<trkpt lat="42.900631" lon="19.595467">
<ele>1138.860352</ele>
<time>2012-04-30T12:13:05Z</time>
<desc>lat.=42.900631, lon.=19.595467, Alt.=1138.860352m. Speed=2.088000m/h.</desc>
<speed>0.580000</speed>
</trkpt>
<trkpt lat="42.900684" lon="19.595491">
<ele>1138.329102</ele>
<time>2012-04-30T12:13:10Z</time>
<desc>lat.=42.900684, lon.=19.595491, Alt.=1138.329102m. Speed=3.492000m/h.</desc>
<speed>0.970000</speed>
</trkpt>
<trkpt lat="42.900738" lon="19.595589">
<ele>1137.079102</ele>
<time>2012-04-30T12:13:15Z</time>
<desc>lat.=42.900738, lon.=19.595589, Alt.=1137.079102m. Speed=5.796000m/h.</desc>
<speed>1.610000</speed>
</trkpt>
<trkpt lat="42.900810" lon="19.595673">
<ele>1137.110352</ele>
<time>2012-04-30T12:13:20Z</time>
<desc>lat.=42.900810, lon.=19.595673, Alt.=1137.110352m. Speed=3.888000m/h.</desc>
<speed>1.080000</speed>
</trkpt>
<trkpt lat="42.900845" lon="19.595675">
<ele>1133.860352</ele>
<time>2012-04-30T12:13:25Z</time>
<desc>lat.=42.900845, lon.=19.595675, Alt.=1133.860352m. Speed=3.420000m/h.</desc>
<speed>0.950000</speed>
</trkpt>
<trkpt lat="42.900898" lon="19.595663">
<ele>1132.079102</ele>
<time>2012-04-30T12:13:30Z</time>
<desc>lat.=42.900898, lon.=19.595663, Alt.=1132.079102m. Speed=6.480000m/h.</desc>
<speed>1.800000</speed>
</trkpt>
<trkpt lat="42.900993" lon="19.595669">
<ele>1132.141602</ele>
<time>2012-04-30T12:13:35Z</time>
<desc>lat.=42.900993, lon.=19.595669, Alt.=1132.141602m. Speed=4.068000m/h.</desc>
<speed>1.130000</speed>
</trkpt>
<trkpt lat="42.901012" lon="19.595636">
<ele>1131.735352</ele>
<time>2012-04-30T12:13:40Z</time>
<desc>lat.=42.901012, lon.=19.595636, Alt.=1131.735352m. Speed=1.332000m/h.</desc>
<speed>0.370000</speed>
</trkpt>
<trkpt lat="42.901035" lon="19.595594">
<ele>1128.516602</ele>
<time>2012-04-30T12:13:45Z</time>
<desc>lat.=42.901035, lon.=19.595594, Alt.=1128.516602m. Speed=0.504000m/h.</desc>
<speed>0.140000</speed>
</trkpt>
<trkpt lat="42.901039" lon="19.595598">
<ele>1128.079102</ele>
<time>2012-04-30T12:13:50Z</time>
<desc>lat.=42.901039, lon.=19.595598, Alt.=1128.079102m. Speed=0.432000m/h.</desc>
<speed>0.120000</speed>
</trkpt>
<trkpt lat="42.901043" lon="19.595596">
<ele>1127.547852</ele>
<time>2012-04-30T12:13:55Z</time>
<desc>lat.=42.901043, lon.=19.595596, Alt.=1127.547852m. Speed=0.108000m/h.</desc>
<speed>0.030000</speed>
</trkpt>
<trkpt lat="42.901043" lon="19.595598">
<ele>1126.985352</ele>
<time>2012-04-30T12:14:00Z</time>
<desc>lat.=42.901043, lon.=19.595598, Alt.=1126.985352m. Speed=0.216000m/h.</desc>
<speed>0.060000</speed>
</trkpt>
<trkpt lat="42.901051" lon="19.595602">
<ele>1126.422852</ele>
<time>2012-04-30T12:14:05Z</time>
<desc>lat.=42.901051, lon.=19.595602, Alt.=1126.422852m. Speed=0.396000m/h.</desc>
<speed>0.110000</speed>
</trkpt>
<trkpt lat="42.901051" lon="19.595608">
<ele>1125.860352</ele>
<time>2012-04-30T12:14:10Z</time>
<desc>lat.=42.901051, lon.=19.595608, Alt.=1125.860352m. Speed=0.288000m/h.</desc>
<speed>0.080000</speed>
</trkpt>
<trkpt lat="42.901051" lon="19.595617">
<ele>1125.391602</ele>
<time>2012-04-30T12:14:15Z</time>
<desc>lat.=42.901051, lon.=19.595617, Alt.=1125.391602m. Speed=0.576000m/h.</desc>
<speed>0.160000</speed>
</trkpt>
<trkpt lat="42.901047" lon="19.595619">
<ele>1125.047852</ele>
<time>2012-04-30T12:14:20Z</time>
<desc>lat.=42.901047, lon.=19.595619, Alt.=1125.047852m. Speed=0.432000m/h.</desc>
<speed>0.120000</speed>
</trkpt>
<trkpt lat="42.901039" lon="19.595610">
<ele>1124.610352</ele>
<time>2012-04-30T12:14:25Z</time>
<desc>lat.=42.901039, lon.=19.595610, Alt.=1124.610352m. Speed=0.000000m/h.</desc>
<speed>0.000000</speed>
</trkpt>
<trkpt lat="42.901043" lon="19.595612">
<ele>1124.204102</ele>
<time>2012-04-30T12:14:30Z</time>
<desc>lat.=42.901043, lon.=19.595612, Alt.=1124.204102m. Speed=0.396000m/h.</desc>
<speed>0.110000</speed>
</trkpt>
<trkpt lat="42.901047" lon="19.595617">
<ele>1123.704102</ele>
<time>2012-04-30T12:14:35Z</time>
<desc>lat.=42.901047, lon.=19.595617, Alt.=1123.704102m. Speed=0.432000m/h.</desc>
<speed>0.120000</speed>
</trkpt>
<trkpt lat="42.901051" lon="19.595619">
<ele>1123.110352</ele>
<time>2012-04-30T12:14:40Z</time>
<desc>lat.=42.901051, lon.=19.595619, Alt.=1123.110352m. Speed=0.216000m/h.</desc>
<speed>0.060000</speed>
</trkpt>
<trkpt lat="42.901051" lon="19.595621">
<ele>1122.485352</ele>
<time>2012-04-30T12:14:45Z</time>
<desc>lat.=42.901051, lon.=19.595621, Alt.=1122.485352m. Speed=0.036000m/h.</desc>
<speed>0.010000</speed>
</trkpt>
<trkpt lat="42.901051" lon="19.595621">
<ele>1121.797852</ele>
<time>2012-04-30T12:14:50Z</time>
<desc>lat.=42.901051, lon.=19.595621, Alt.=1121.797852m. Speed=0.072000m/h.</desc>
<speed>0.020000</speed>
</trkpt>
<trkpt lat="42.901051" lon="19.595619">
<ele>1121.235352</ele>
<time>2012-04-30T12:14:55Z</time>
<desc>lat.=42.901051, lon.=19.595619, Alt.=1121.235352m. Speed=0.072000m/h.</desc>
<speed>0.020000</speed>
</trkpt>
<trkpt lat="42.901047" lon="19.595619">
<ele>1120.641602</ele>
<time>2012-04-30T12:15:00Z</time>
<desc>lat.=42.901047, lon.=19.595619, Alt.=1120.641602m. Speed=0.072000m/h.</desc>
<speed>0.020000</speed>
</trkpt>
<trkpt lat="42.901047" lon="19.595617">
<ele>1119.985352</ele>
<time>2012-04-30T12:15:05Z</time>
<desc>lat.=42.901047, lon.=19.595617, Alt.=1119.985352m. Speed=0.288000m/h.</desc>
<speed>0.080000</speed>
</trkpt>
<trkpt lat="42.901051" lon="19.595621">
<ele>1119.454102</ele>
<time>2012-04-30T12:15:10Z</time>
<desc>lat.=42.901051, lon.=19.595621, Alt.=1119.454102m. Speed=2.052000m/h.</desc>
<speed>0.570000</speed>
</trkpt>
<trkpt lat="42.901096" lon="19.595562">
<ele>1118.704102</ele>
<time>2012-04-30T12:15:15Z</time>
<desc>lat.=42.901096, lon.=19.595562, Alt.=1118.704102m. Speed=5.796000m/h.</desc>
<speed>1.610000</speed>
</trkpt>
<trkpt lat="42.901176" lon="19.595469">
<ele>1121.485352</ele>
<time>2012-04-30T12:15:20Z</time>
<desc>lat.=42.901176, lon.=19.595469, Alt.=1121.485352m. Speed=6.228000m/h.</desc>
<speed>1.730000</speed>
</trkpt>
<trkpt lat="42.901237" lon="19.595434">
<ele>1122.829102</ele>
<time>2012-04-30T12:15:25Z</time>
<desc>lat.=42.901237, lon.=19.595434, Alt.=1122.829102m. Speed=6.192000m/h.</desc>
<speed>1.720000</speed>
</trkpt>
<trkpt lat="42.901321" lon="19.595404">
<ele>1129.047852</ele>
<time>2012-04-30T12:15:30Z</time>
<desc>lat.=42.901321, lon.=19.595404, Alt.=1129.047852m. Speed=6.876000m/h.</desc>
<speed>1.910000</speed>
</trkpt>
<trkpt lat="42.901382" lon="19.595413">
<ele>1131.704102</ele>
<time>2012-04-30T12:15:35Z</time>
<desc>lat.=42.901382, lon.=19.595413, Alt.=1131.704102m. Speed=5.364000m/h.</desc>
<speed>1.490000</speed>
</trkpt>
<trkpt lat="42.901478" lon="19.595490">
<ele>1131.954102</ele>
<time>2012-04-30T12:15:40Z</time>
<desc>lat.=42.901478, lon.=19.595490, Alt.=1131.954102m. Speed=5.724000m/h.</desc>
<speed>1.590000</speed>
</trkpt>
<trkpt lat="42.901531" lon="19.595537">
<ele>1133.766602</ele>
<time>2012-04-30T12:15:45Z</time>
<desc>lat.=42.901531, lon.=19.595537, Alt.=1133.766602m. Speed=5.976000m/h.</desc>
<speed>1.660000</speed>
</trkpt>
<trkpt lat="42.901585" lon="19.595633">
<ele>1134.797852</ele>
<time>2012-04-30T12:15:50Z</time>
<desc>lat.=42.901585, lon.=19.595633, Alt.=1134.797852m. Speed=6.336000m/h.</desc>
<speed>1.760000</speed>
</trkpt>
<trkpt lat="42.901619" lon="19.595734">
<ele>1136.579102</ele>
<time>2012-04-30T12:15:55Z</time>
<desc>lat.=42.901619, lon.=19.595734, Alt.=1136.579102m. Speed=7.128000m/h.</desc>
<speed>1.980000</speed>
</trkpt>
<trkpt lat="42.901680" lon="19.595840">
<ele>1138.829102</ele>
<time>2012-04-30T12:16:00Z</time>
<desc>lat.=42.901680, lon.=19.595840, Alt.=1138.829102m. Speed=7.560000m/h.</desc>
<speed>2.100000</speed>
</trkpt>
<trkpt lat="42.901699" lon="19.595934">
<ele>1141.047852</ele>
<time>2012-04-30T12:16:05Z</time>
<desc>lat.=42.901699, lon.=19.595934, Alt.=1141.047852m. Speed=4.644000m/h.</desc>
<speed>1.290000</speed>
</trkpt>
<trkpt lat="42.901707" lon="19.595997">
<ele>1142.172852</ele>
<time>2012-04-30T12:16:10Z</time>
<desc>lat.=42.901707, lon.=19.595997, Alt.=1142.172852m. Speed=1.584000m/h.</desc>
<speed>0.440000</speed>
</trkpt>
<trkpt lat="42.901726" lon="19.596079">
<ele>1143.016602</ele>
<time>2012-04-30T12:16:15Z</time>
<desc>lat.=42.901726, lon.=19.596079, Alt.=1143.016602m. Speed=3.204000m/h.</desc>
<speed>0.890000</speed>
</trkpt>
<trkpt lat="42.901752" lon="19.596170">
<ele>1144.797852</ele>
<time>2012-04-30T12:16:20Z</time>
<desc>lat.=42.901752, lon.=19.596170, Alt.=1144.797852m. Speed=4.788000m/h.</desc>
<speed>1.330000</speed>
</trkpt>
<trkpt lat="42.901787" lon="19.596283">
<ele>1145.454102</ele>
<time>2012-04-30T12:16:25Z</time>
<desc>lat.=42.901787, lon.=19.596283, Alt.=1145.454102m. Speed=3.024000m/h.</desc>
<speed>0.840000</speed>
</trkpt>
<trkpt lat="42.901779" lon="19.596432">
<ele>1147.422852</ele>
<time>2012-04-30T12:16:30Z</time>
<desc>lat.=42.901779, lon.=19.596432, Alt.=1147.422852m. Speed=4.248000m/h.</desc>
<speed>1.180000</speed>
</trkpt>
<trkpt lat="42.901775" lon="19.596592">
<ele>1148.516602</ele>
<time>2012-04-30T12:16:35Z</time>
<desc>lat.=42.901775, lon.=19.596592, Alt.=1148.516602m. Speed=8.064000m/h.</desc>
<speed>2.240000</speed>
</trkpt>
<trkpt lat="42.901772" lon="19.596693">
<ele>1148.860352</ele>
<time>2012-04-30T12:16:40Z</time>
<desc>lat.=42.901772, lon.=19.596693, Alt.=1148.860352m. Speed=3.672000m/h.</desc>
<speed>1.020000</speed>
</trkpt>
<trkpt lat="42.901772" lon="19.596786">
<ele>1149.547852</ele>
<time>2012-04-30T12:16:45Z</time>
<desc>lat.=42.901772, lon.=19.596786, Alt.=1149.547852m. Speed=0.504000m/h.</desc>
<speed>0.140000</speed>
</trkpt>
<trkpt lat="42.901772" lon="19.596832">
<ele>1150.579102</ele>
<time>2012-04-30T12:16:50Z</time>
<desc>lat.=42.901772, lon.=19.596832, Alt.=1150.579102m. Speed=3.024000m/h.</desc>
<speed>0.840000</speed>
</trkpt>
<trkpt lat="42.901768" lon="19.596777">
<ele>1148.829102</ele>
<time>2012-04-30T12:16:55Z</time>
<desc>lat.=42.901768, lon.=19.596777, Alt.=1148.829102m. Speed=0.396000m/h.</desc>
<speed>0.110000</speed>
</trkpt>
<trkpt lat="42.901764" lon="19.596771">
<ele>1148.735352</ele>
<time>2012-04-30T12:17:00Z</time>
<desc>lat.=42.901764, lon.=19.596771, Alt.=1148.735352m. Speed=0.144000m/h.</desc>
<speed>0.040000</speed>
</trkpt>
<trkpt lat="42.901764" lon="19.596771">
<ele>1148.672852</ele>
<time>2012-04-30T12:17:05Z</time>
<desc>lat.=42.901764, lon.=19.596771, Alt.=1148.672852m. Speed=0.216000m/h.</desc>
<speed>0.060000</speed>
</trkpt>
<trkpt lat="42.901764" lon="19.596771">
<ele>1148.610352</ele>
<time>2012-04-30T12:17:10Z</time>
<desc>lat.=42.901764, lon.=19.596771, Alt.=1148.610352m. Speed=0.000000m/h.</desc>
<speed>0.000000</speed>
</trkpt>
<trkpt lat="42.901768" lon="19.596773">
<ele>1148.579102</ele>
<time>2012-04-30T12:17:15Z</time>
<desc>lat.=42.901768, lon.=19.596773, Alt.=1148.579102m. Speed=0.576000m/h.</desc>
<speed>0.160000</speed>
</trkpt>
<trkpt lat="42.901775" lon="19.596878">
<ele>1148.422852</ele>
<time>2012-04-30T12:17:20Z</time>
<desc>lat.=42.901775, lon.=19.596878, Alt.=1148.422852m. Speed=6.300000m/h.</desc>
<speed>1.750000</speed>
</trkpt>
<trkpt lat="42.901722" lon="19.597015">
<ele>1149.485352</ele>
<time>2012-04-30T12:17:25Z</time>
<desc>lat.=42.901722, lon.=19.597015, Alt.=1149.485352m. Speed=7.668000m/h.</desc>
<speed>2.130000</speed>
</trkpt>
<trkpt lat="42.901688" lon="19.597124">
<ele>1149.797852</ele>
<time>2012-04-30T12:17:30Z</time>
<desc>lat.=42.901688, lon.=19.597124, Alt.=1149.797852m. Speed=5.364000m/h.</desc>
<speed>1.490000</speed>
</trkpt>
<trkpt lat="42.901695" lon="19.597244">
<ele>1149.329102</ele>
<time>2012-04-30T12:17:35Z</time>
<desc>lat.=42.901695, lon.=19.597244, Alt.=1149.329102m. Speed=5.976000m/h.</desc>
<speed>1.660000</speed>
</trkpt>
<trkpt lat="42.901741" lon="19.597389">
<ele>1149.797852</ele>
<time>2012-04-30T12:17:40Z</time>
<desc>lat.=42.901741, lon.=19.597389, Alt.=1149.797852m. Speed=4.356000m/h.</desc>
<speed>1.210000</speed>
</trkpt>
<trkpt lat="42.901787" lon="19.597525">
<ele>1151.641602</ele>
<time>2012-04-30T12:17:45Z</time>
<desc>lat.=42.901787, lon.=19.597525, Alt.=1151.641602m. Speed=5.940000m/h.</desc>
<speed>1.650000</speed>
</trkpt>
<trkpt lat="42.901836" lon="19.597662">
<ele>1152.047852</ele>
<time>2012-04-30T12:17:50Z</time>
<desc>lat.=42.901836, lon.=19.597662, Alt.=1152.047852m. Speed=3.456000m/h.</desc>
<speed>0.960000</speed>
</trkpt>
<trkpt lat="42.901875" lon="19.597752">
<ele>1154.360352</ele>
<time>2012-04-30T12:17:55Z</time>
<desc>lat.=42.901875, lon.=19.597752, Alt.=1154.360352m. Speed=2.844000m/h.</desc>
<speed>0.790000</speed>
</trkpt>
<trkpt lat="42.901966" lon="19.597771">
<ele>1156.047852</ele>
<time>2012-04-30T12:18:00Z</time>
<desc>lat.=42.901966, lon.=19.597771, Alt.=1156.047852m. Speed=4.068000m/h.</desc>
<speed>1.130000</speed>
</trkpt>
<trkpt lat="42.902035" lon="19.597763">
<ele>1157.891602</ele>
<time>2012-04-30T12:18:05Z</time>
<desc>lat.=42.902035, lon.=19.597763, Alt.=1157.891602m. Speed=1.440000m/h.</desc>
<speed>0.400000</speed>
</trkpt>
<trkpt lat="42.902065" lon="19.597755">
<ele>1157.110352</ele>
<time>2012-04-30T12:18:10Z</time>
<desc>lat.=42.902065, lon.=19.597755, Alt.=1157.110352m. Speed=4.824000m/h.</desc>
<speed>1.340000</speed>
</trkpt>
<trkpt lat="42.902119" lon="19.597759">
<ele>1157.547852</ele>
<time>2012-04-30T12:18:15Z</time>
<desc>lat.=42.902119, lon.=19.597759, Alt.=1157.547852m. Speed=3.852000m/h.</desc>
<speed>1.070000</speed>
</trkpt>
<trkpt lat="42.902168" lon="19.597784">
<ele>1158.172852</ele>
<time>2012-04-30T12:18:20Z</time>
<desc>lat.=42.902168, lon.=19.597784, Alt.=1158.172852m. Speed=2.160000m/h.</desc>
<speed>0.600000</speed>
</trkpt>
<trkpt lat="42.902233" lon="19.597679">
<ele>1160.454102</ele>
<time>2012-04-30T12:18:25Z</time>
<desc>lat.=42.902233, lon.=19.597679, Alt.=1160.454102m. Speed=0.756000m/h.</desc>
<speed>0.210000</speed>
</trkpt>
<trkpt lat="42.902252" lon="19.597633">
<ele>1162.016602</ele>
<time>2012-04-30T12:18:30Z</time>
<desc>lat.=42.902252, lon.=19.597633, Alt.=1162.016602m. Speed=3.312000m/h.</desc>
<speed>0.920000</speed>
</trkpt>
<trkpt lat="42.902294" lon="19.597584">
<ele>1163.110352</ele>
<time>2012-04-30T12:18:35Z</time>
<desc>lat.=42.902294, lon.=19.597584, Alt.=1163.110352m. Speed=2.736000m/h.</desc>
<speed>0.760000</speed>
</trkpt>
<trkpt lat="42.902344" lon="19.597551">
<ele>1164.954102</ele>
<time>2012-04-30T12:18:40Z</time>
<desc>lat.=42.902344, lon.=19.597551, Alt.=1164.954102m. Speed=3.024000m/h.</desc>
<speed>0.840000</speed>
</trkpt>
<trkpt lat="42.902382" lon="19.597507">
<ele>1166.360352</ele>
<time>2012-04-30T12:18:45Z</time>
<desc>lat.=42.902382, lon.=19.597507, Alt.=1166.360352m. Speed=3.456000m/h.</desc>
<speed>0.960000</speed>
</trkpt>
<trkpt lat="42.902409" lon="19.597481">
<ele>1166.672852</ele>
<time>2012-04-30T12:18:50Z</time>
<desc>lat.=42.902409, lon.=19.597481, Alt.=1166.672852m. Speed=2.052000m/h.</desc>
<speed>0.570000</speed>
</trkpt>
<trkpt lat="42.902435" lon="19.597456">
<ele>1167.797852</ele>
<time>2012-04-30T12:18:55Z</time>
<desc>lat.=42.902435, lon.=19.597456, Alt.=1167.797852m. Speed=1.764000m/h.</desc>
<speed>0.490000</speed>
</trkpt>
<trkpt lat="42.902435" lon="19.597427">
<ele>1168.329102</ele>
<time>2012-04-30T12:19:00Z</time>
<desc>lat.=42.902435, lon.=19.597427, Alt.=1168.329102m. Speed=1.764000m/h.</desc>
<speed>0.490000</speed>
</trkpt>
<trkpt lat="42.902462" lon="19.597376">
<ele>1168.985352</ele>
<time>2012-04-30T12:19:05Z</time>
<desc>lat.=42.902462, lon.=19.597376, Alt.=1168.985352m. Speed=3.240000m/h.</desc>
<speed>0.900000</speed>
</trkpt>
<trkpt lat="42.902504" lon="19.597326">
<ele>1169.141602</ele>
<time>2012-04-30T12:19:10Z</time>
<desc>lat.=42.902504, lon.=19.597326, Alt.=1169.141602m. Speed=3.924000m/h.</desc>
<speed>1.090000</speed>
</trkpt>
<trkpt lat="42.902580" lon="19.597256">
<ele>1169.204102</ele>
<time>2012-04-30T12:19:15Z</time>
<desc>lat.=42.902580, lon.=19.597256, Alt.=1169.204102m. Speed=4.788000m/h.</desc>
<speed>1.330000</speed>
</trkpt>
<trkpt lat="42.902634" lon="19.597210">
<ele>1169.422852</ele>
<time>2012-04-30T12:19:20Z</time>
<desc>lat.=42.902634, lon.=19.597210, Alt.=1169.422852m. Speed=4.428000m/h.</desc>
<speed>1.230000</speed>
</trkpt>
<trkpt lat="42.902691" lon="19.597170">
<ele>1169.516602</ele>
<time>2012-04-30T12:19:25Z</time>
<desc>lat.=42.902691, lon.=19.597170, Alt.=1169.516602m. Speed=2.736000m/h.</desc>
<speed>0.760000</speed>
</trkpt>
<trkpt lat="42.902748" lon="19.597153">
<ele>1170.735352</ele>
<time>2012-04-30T12:19:30Z</time>
<desc>lat.=42.902748, lon.=19.597153, Alt.=1170.735352m. Speed=4.068000m/h.</desc>
<speed>1.130000</speed>
</trkpt>
<trkpt lat="42.902821" lon="19.597048">
<ele>1170.172852</ele>
<time>2012-04-30T12:19:35Z</time>
<desc>lat.=42.902821, lon.=19.597048, Alt.=1170.172852m. Speed=6.408000m/h.</desc>
<speed>1.780000</speed>
</trkpt>
<trkpt lat="42.902889" lon="19.596964">
<ele>1170.235352</ele>
<time>2012-04-30T12:19:40Z</time>
<desc>lat.=42.902889, lon.=19.596964, Alt.=1170.235352m. Speed=4.032000m/h.</desc>
<speed>1.120000</speed>
</trkpt>
<trkpt lat="42.902985" lon="19.596872">
<ele>1171.860352</ele>
<time>2012-04-30T12:19:45Z</time>
<desc>lat.=42.902985, lon.=19.596872, Alt.=1171.860352m. Speed=2.952000m/h.</desc>
<speed>0.820000</speed>
</trkpt>
<trkpt lat="42.903076" lon="19.596939">
<ele>1172.797852</ele>
<time>2012-04-30T12:19:50Z</time>
<desc>lat.=42.903076, lon.=19.596939, Alt.=1172.797852m. Speed=4.428000m/h.</desc>
<speed>1.230000</speed>
</trkpt>
<trkpt lat="42.903156" lon="19.596939">
<ele>1174.204102</ele>
<time>2012-04-30T12:19:55Z</time>
<desc>lat.=42.903156, lon.=19.596939, Alt.=1174.204102m. Speed=5.148000m/h.</desc>
<speed>1.430000</speed>
</trkpt>
<trkpt lat="42.903221" lon="19.596878">
<ele>1175.172852</ele>
<time>2012-04-30T12:20:00Z</time>
<desc>lat.=42.903221, lon.=19.596878, Alt.=1175.172852m. Speed=6.876000m/h.</desc>
<speed>1.910000</speed>
</trkpt>
<trkpt lat="42.903309" lon="19.596867">
<ele>1174.235352</ele>
<time>2012-04-30T12:20:05Z</time>
<desc>lat.=42.903309, lon.=19.596867, Alt.=1174.235352m. Speed=4.464000m/h.</desc>
<speed>1.240000</speed>
</trkpt>
<trkpt lat="42.903366" lon="19.596809">
<ele>1174.735352</ele>
<time>2012-04-30T12:20:10Z</time>
<desc>lat.=42.903366, lon.=19.596809, Alt.=1174.735352m. Speed=0.108000m/h.</desc>
<speed>0.030000</speed>
</trkpt>
<trkpt lat="42.903370" lon="19.596811">
<ele>1175.204102</ele>
<time>2012-04-30T12:20:15Z</time>
<desc>lat.=42.903370, lon.=19.596811, Alt.=1175.204102m. Speed=0.072000m/h.</desc>
<speed>0.020000</speed>
</trkpt>
<trkpt lat="42.903370" lon="19.596811">
<ele>1175.266602</ele>
<time>2012-04-30T12:20:20Z</time>
<desc>lat.=42.903370, lon.=19.596811, Alt.=1175.266602m. Speed=0.000000m/h.</desc>
<speed>0.000000</speed>
</trkpt>
<trkpt lat="42.903370" lon="19.596811">
<ele>1175.297852</ele>
<time>2012-04-30T12:20:25Z</time>
<desc>lat.=42.903370, lon.=19.596811, Alt.=1175.297852m. Speed=0.000000m/h.</desc>
<speed>0.000000</speed>
</trkpt>
<trkpt lat="42.903370" lon="19.596811">
<ele>1175.235352</ele>
<time>2012-04-30T12:20:30Z</time>
<desc>lat.=42.903370, lon.=19.596811, Alt.=1175.235352m. Speed=0.000000m/h.</desc>
<speed>0.000000</speed>
</trkpt>
<trkpt lat="42.903370" lon="19.596811">
<ele>1175.172852</ele>
<time>2012-04-30T12:20:35Z</time>
<desc>lat.=42.903370, lon.=19.596811, Alt.=1175.172852m. Speed=0.000000m/h.</desc>
<speed>0.000000</speed>
</trkpt>
<trkpt lat="42.903370" lon="19.596811">
<ele>1175.141602</ele>
<time>2012-04-30T12:20:40Z</time>
<desc>lat.=42.903370, lon.=19.596811, Alt.=1175.141602m. Speed=0.036000m/h.</desc>
<speed>0.010000</speed>
</trkpt>
<trkpt lat="42.903370" lon="19.596809">
<ele>1175.141602</ele>
<time>2012-04-30T12:20:45Z</time>
<desc>lat.=42.903370, lon.=19.596809, Alt.=1175.141602m. Speed=0.036000m/h.</desc>
<speed>0.010000</speed>
</trkpt>
<trkpt lat="42.903370" lon="19.596809">
<ele>1175.141602</ele>
<time>2012-04-30T12:20:50Z</time>
<desc>lat.=42.903370, lon.=19.596809, Alt.=1175.141602m. Speed=0.072000m/h.</desc>
<speed>0.020000</speed>
</trkpt>
<trkpt lat="42.903370" lon="19.596809">
<ele>1175.110352</ele>
<time>2012-04-30T12:20:55Z</time>
<desc>lat.=42.903370, lon.=19.596809, Alt.=1175.110352m. Speed=0.144000m/h.</desc>
<speed>0.040000</speed>
</trkpt>
<trkpt lat="42.903370" lon="19.596811">
<ele>1175.079102</ele>
<time>2012-04-30T12:21:00Z</time>
<desc>lat.=42.903370, lon.=19.596811, Alt.=1175.079102m. Speed=0.864000m/h.</desc>
<speed>0.240000</speed>
</trkpt>
<trkpt lat="42.903332" lon="19.596830">
<ele>1174.610352</ele>
<time>2012-04-30T12:21:05Z</time>
<desc>lat.=42.903332, lon.=19.596830, Alt.=1174.610352m. Speed=6.408000m/h.</desc>
<speed>1.780000</speed>
</trkpt>
<trkpt lat="42.903263" lon="19.596888">
<ele>1175.641602</ele>
<time>2012-04-30T12:21:10Z</time>
<desc>lat.=42.903263, lon.=19.596888, Alt.=1175.641602m. Speed=6.732000m/h.</desc>
<speed>1.870000</speed>
</trkpt>
<trkpt lat="42.903217" lon="19.596922">
<ele>1176.079102</ele>
<time>2012-04-30T12:21:15Z</time>
<desc>lat.=42.903217, lon.=19.596922, Alt.=1176.079102m. Speed=4.500000m/h.</desc>
<speed>1.250000</speed>
</trkpt>
<trkpt lat="42.903175" lon="19.596960">
<ele>1177.672852</ele>
<time>2012-04-30T12:21:20Z</time>
<desc>lat.=42.903175, lon.=19.596960, Alt.=1177.672852m. Speed=3.528000m/h.</desc>
<speed>0.980000</speed>
</trkpt>
<trkpt lat="42.903107" lon="19.597004">
<ele>1179.422852</ele>
<time>2012-04-30T12:21:25Z</time>
<desc>lat.=42.903107, lon.=19.597004, Alt.=1179.422852m. Speed=6.444000m/h.</desc>
<speed>1.790000</speed>
</trkpt>
<trkpt lat="42.902969" lon="19.597084">
<ele>1179.766602</ele>
<time>2012-04-30T12:21:30Z</time>
<desc>lat.=42.902969, lon.=19.597084, Alt.=1179.766602m. Speed=7.056000m/h.</desc>
<speed>1.960000</speed>
</trkpt>
<trkpt lat="42.902889" lon="19.597195">
<ele>1179.579102</ele>
<time>2012-04-30T12:21:35Z</time>
<desc>lat.=42.902889, lon.=19.597195, Alt.=1179.579102m. Speed=5.292000m/h.</desc>
<speed>1.470000</speed>
</trkpt>
<trkpt lat="42.902866" lon="19.597340">
<ele>1178.579102</ele>
<time>2012-04-30T12:21:40Z</time>
<desc>lat.=42.902866, lon.=19.597340, Alt.=1178.579102m. Speed=6.192000m/h.</desc>
<speed>1.720000</speed>
</trkpt>
<trkpt lat="42.902832" lon="19.597481">
<ele>1178.985352</ele>
<time>2012-04-30T12:21:45Z</time>
<desc>lat.=42.902832, lon.=19.597481, Alt.=1178.985352m. Speed=5.724000m/h.</desc>
<speed>1.590000</speed>
</trkpt>
<trkpt lat="42.902817" lon="19.597548">
<ele>1180.079102</ele>
<time>2012-04-30T12:21:50Z</time>
<desc>lat.=42.902817, lon.=19.597548, Alt.=1180.079102m. Speed=3.636000m/h.</desc>
<speed>1.010000</speed>
</trkpt>
<trkpt lat="42.902843" lon="19.597614">
<ele>1181.641602</ele>
<time>2012-04-30T12:21:55Z</time>
<desc>lat.=42.902843, lon.=19.597614, Alt.=1181.641602m. Speed=6.552000m/h.</desc>
<speed>1.820000</speed>
</trkpt>
<trkpt lat="42.902874" lon="19.597689">
<ele>1182.579102</ele>
<time>2012-04-30T12:22:00Z</time>
<desc>lat.=42.902874, lon.=19.597689, Alt.=1182.579102m. Speed=3.744000m/h.</desc>
<speed>1.040000</speed>
</trkpt>
<trkpt lat="42.902851" lon="19.597801">
<ele>1183.766602</ele>
<time>2012-04-30T12:22:05Z</time>
<desc>lat.=42.902851, lon.=19.597801, Alt.=1183.766602m. Speed=6.804000m/h.</desc>
<speed>1.890000</speed>
</trkpt>
<trkpt lat="42.902809" lon="19.597929">
<ele>1184.485352</ele>
<time>2012-04-30T12:22:10Z</time>
<desc>lat.=42.902809, lon.=19.597929, Alt.=1184.485352m. Speed=6.840000m/h.</desc>
<speed>1.900000</speed>
</trkpt>
<trkpt lat="42.902779" lon="19.598059">
<ele>1185.141602</ele>
<time>2012-04-30T12:22:15Z</time>
<desc>lat.=42.902779, lon.=19.598059, Alt.=1185.141602m. Speed=7.488000m/h.</desc>
<speed>2.080000</speed>
</trkpt>
<trkpt lat="42.902748" lon="19.598192">
<ele>1184.454102</ele>
<time>2012-04-30T12:22:20Z</time>
<desc>lat.=42.902748, lon.=19.598192, Alt.=1184.454102m. Speed=6.120000m/h.</desc>
<speed>1.700000</speed>
</trkpt>
<trkpt lat="42.902702" lon="19.598289">
<ele>1185.329102</ele>
<time>2012-04-30T12:22:25Z</time>
<desc>lat.=42.902702, lon.=19.598289, Alt.=1185.329102m. Speed=5.940000m/h.</desc>
<speed>1.650000</speed>
</trkpt>
<trkpt lat="42.902687" lon="19.598391">
<ele>1184.985352</ele>
<time>2012-04-30T12:22:30Z</time>
<desc>lat.=42.902687, lon.=19.598391, Alt.=1184.985352m. Speed=5.580000m/h.</desc>
<speed>1.550000</speed>
</trkpt>
<trkpt lat="42.902672" lon="19.598518">
<ele>1185.329102</ele>
<time>2012-04-30T12:22:35Z</time>
<desc>lat.=42.902672, lon.=19.598518, Alt.=1185.329102m. Speed=8.712000m/h.</desc>
<speed>2.420000</speed>
</trkpt>
<trkpt lat="42.902657" lon="19.598667">
<ele>1186.391602</ele>
<time>2012-04-30T12:22:40Z</time>
<desc>lat.=42.902657, lon.=19.598667, Alt.=1186.391602m. Speed=7.452000m/h.</desc>
<speed>2.070000</speed>
</trkpt>
<trkpt lat="42.902630" lon="19.598795">
<ele>1187.485352</ele>
<time>2012-04-30T12:22:45Z</time>
<desc>lat.=42.902630, lon.=19.598795, Alt.=1187.485352m. Speed=5.688000m/h.</desc>
<speed>1.580000</speed>
</trkpt>
<trkpt lat="42.902622" lon="19.598928">
<ele>1187.829102</ele>
<time>2012-04-30T12:22:50Z</time>
<desc>lat.=42.902622, lon.=19.598928, Alt.=1187.829102m. Speed=6.120000m/h.</desc>
<speed>1.700000</speed>
</trkpt>
<trkpt lat="42.902596" lon="19.599039">
<ele>1187.735352</ele>
<time>2012-04-30T12:22:55Z</time>
<desc>lat.=42.902596, lon.=19.599039, Alt.=1187.735352m. Speed=5.760000m/h.</desc>
<speed>1.600000</speed>
</trkpt>
<trkpt lat="42.902584" lon="19.599129">
<ele>1187.235352</ele>
<time>2012-04-30T12:23:00Z</time>
<desc>lat.=42.902584, lon.=19.599129, Alt.=1187.235352m. Speed=4.104000m/h.</desc>
<speed>1.140000</speed>
</trkpt>
<trkpt lat="42.902592" lon="19.599253">
<ele>1185.954102</ele>
<time>2012-04-30T12:23:05Z</time>
<desc>lat.=42.902592, lon.=19.599253, Alt.=1185.954102m. Speed=3.204000m/h.</desc>
<speed>0.890000</speed>
</trkpt>
<trkpt lat="42.902573" lon="19.599352">
<ele>1186.360352</ele>
<time>2012-04-30T12:23:10Z</time>
<desc>lat.=42.902573, lon.=19.599352, Alt.=1186.360352m. Speed=4.464000m/h.</desc>
<speed>1.240000</speed>
</trkpt>
<trkpt lat="42.902534" lon="19.599463">
<ele>1185.610352</ele>
<time>2012-04-30T12:23:15Z</time>
<desc>lat.=42.902534, lon.=19.599463, Alt.=1185.610352m. Speed=6.372000m/h.</desc>
<speed>1.770000</speed>
</trkpt>
<trkpt lat="42.902489" lon="19.599546">
<ele>1183.641602</ele>
<time>2012-04-30T12:23:20Z</time>
<desc>lat.=42.902489, lon.=19.599546, Alt.=1183.641602m. Speed=5.868000m/h.</desc>
<speed>1.630000</speed>
</trkpt>
<trkpt lat="42.902454" lon="19.599636">
<ele>1182.797852</ele>
<time>2012-04-30T12:23:25Z</time>
<desc>lat.=42.902454, lon.=19.599636, Alt.=1182.797852m. Speed=7.092000m/h.</desc>
<speed>1.970000</speed>
</trkpt>
<trkpt lat="42.902454" lon="19.599764">
<ele>1183.829102</ele>
<time>2012-04-30T12:23:30Z</time>
<desc>lat.=42.902454, lon.=19.599764, Alt.=1183.829102m. Speed=5.292000m/h.</desc>
<speed>1.470000</speed>
</trkpt>
<trkpt lat="42.902439" lon="19.599854">
<ele>1184.297852</ele>
<time>2012-04-30T12:23:35Z</time>
<desc>lat.=42.902439, lon.=19.599854, Alt.=1184.297852m. Speed=5.148000m/h.</desc>
<speed>1.430000</speed>
</trkpt>
<trkpt lat="42.902424" lon="19.599964">
<ele>1184.735352</ele>
<time>2012-04-30T12:23:40Z</time>
<desc>lat.=42.902424, lon.=19.599964, Alt.=1184.735352m. Speed=6.768000m/h.</desc>
<speed>1.880000</speed>
</trkpt>
<trkpt lat="42.902393" lon="19.600067">
<ele>1184.797852</ele>
<time>2012-04-30T12:23:45Z</time>
<desc>lat.=42.902393, lon.=19.600067, Alt.=1184.797852m. Speed=4.644000m/h.</desc>
<speed>1.290000</speed>
</trkpt>
<trkpt lat="42.902367" lon="19.600155">
<ele>1183.297852</ele>
<time>2012-04-30T12:23:50Z</time>
<desc>lat.=42.902367, lon.=19.600155, Alt.=1183.297852m. Speed=6.912000m/h.</desc>
<speed>1.920000</speed>
</trkpt>
<trkpt lat="42.902332" lon="19.600262">
<ele>1182.797852</ele>
<time>2012-04-30T12:23:55Z</time>
<desc>lat.=42.902332, lon.=19.600262, Alt.=1182.797852m. Speed=5.004000m/h.</desc>
<speed>1.390000</speed>
</trkpt>
<trkpt lat="42.902313" lon="19.600357">
<ele>1182.360352</ele>
<time>2012-04-30T12:24:00Z</time>
<desc>lat.=42.902313, lon.=19.600357, Alt.=1182.360352m. Speed=3.456000m/h.</desc>
<speed>0.960000</speed>
</trkpt>
<trkpt lat="42.902290" lon="19.600431">
<ele>1180.985352</ele>
<time>2012-04-30T12:24:05Z</time>
<desc>lat.=42.902290, lon.=19.600431, Alt.=1180.985352m. Speed=5.112000m/h.</desc>
<speed>1.420000</speed>
</trkpt>
<trkpt lat="42.902306" lon="19.600594">
<ele>1181.454102</ele>
<time>2012-04-30T12:24:10Z</time>
<desc>lat.=42.902306, lon.=19.600594, Alt.=1181.454102m. Speed=5.256000m/h.</desc>
<speed>1.460000</speed>
</trkpt>
<trkpt lat="42.902294" lon="19.600628">
<ele>1181.735352</ele>
<time>2012-04-30T12:24:15Z</time>
<desc>lat.=42.902294, lon.=19.600628, Alt.=1181.735352m. Speed=0.792000m/h.</desc>
<speed>0.220000</speed>
</trkpt>
<trkpt lat="42.902290" lon="19.600630">
<ele>1182.329102</ele>
<time>2012-04-30T12:24:20Z</time>
<desc>lat.=42.902290, lon.=19.600630, Alt.=1182.329102m. Speed=1.368000m/h.</desc>
<speed>0.380000</speed>
</trkpt>
<trkpt lat="42.902267" lon="19.600630">
<ele>1185.516602</ele>
<time>2012-04-30T12:24:25Z</time>
<desc>lat.=42.902267, lon.=19.600630, Alt.=1185.516602m. Speed=1.224000m/h.</desc>
<speed>0.340000</speed>
</trkpt>
<trkpt lat="42.902283" lon="19.600683">
<ele>1187.172852</ele>
<time>2012-04-30T12:24:30Z</time>
<desc>lat.=42.902283, lon.=19.600683, Alt.=1187.172852m. Speed=2.520000m/h.</desc>
<speed>0.700000</speed>
</trkpt>
<trkpt lat="42.902279" lon="19.600742">
<ele>1188.016602</ele>
<time>2012-04-30T12:24:35Z</time>
<desc>lat.=42.902279, lon.=19.600742, Alt.=1188.016602m. Speed=3.204000m/h.</desc>
<speed>0.890000</speed>
</trkpt>
<trkpt lat="42.902267" lon="19.600840">
<ele>1188.797852</ele>
<time>2012-04-30T12:24:40Z</time>
<desc>lat.=42.902267, lon.=19.600840, Alt.=1188.797852m. Speed=5.256000m/h.</desc>
<speed>1.460000</speed>
</trkpt>
<trkpt lat="42.902256" lon="19.600916">
<ele>1189.985352</ele>
<time>2012-04-30T12:24:45Z</time>
<desc>lat.=42.902256, lon.=19.600916, Alt.=1189.985352m. Speed=4.680000m/h.</desc>
<speed>1.300000</speed>
</trkpt>
<trkpt lat="42.902233" lon="19.600992">
<ele>1190.766602</ele>
<time>2012-04-30T12:24:50Z</time>
<desc>lat.=42.902233, lon.=19.600992, Alt.=1190.766602m. Speed=4.644000m/h.</desc>
<speed>1.290000</speed>
</trkpt>
<trkpt lat="42.902195" lon="19.601103">
<ele>1191.204102</ele>
<time>2012-04-30T12:24:55Z</time>
<desc>lat.=42.902195, lon.=19.601103, Alt.=1191.204102m. Speed=6.696000m/h.</desc>
<speed>1.860000</speed>
</trkpt>
<trkpt lat="42.902184" lon="19.601231">
<ele>1191.829102</ele>
<time>2012-04-30T12:25:00Z</time>
<desc>lat.=42.902184, lon.=19.601231, Alt.=1191.829102m. Speed=5.472000m/h.</desc>
<speed>1.520000</speed>
</trkpt>
<trkpt lat="42.902142" lon="19.601265">
<ele>1193.797852</ele>
<time>2012-04-30T12:25:05Z</time>
<desc>lat.=42.902142, lon.=19.601265, Alt.=1193.797852m. Speed=4.032000m/h.</desc>
<speed>1.120000</speed>
</trkpt>
<trkpt lat="42.902138" lon="19.601362">
<ele>1195.422852</ele>
<time>2012-04-30T12:25:10Z</time>
<desc>lat.=42.902138, lon.=19.601362, Alt.=1195.422852m. Speed=3.888000m/h.</desc>
<speed>1.080000</speed>
</trkpt>
<trkpt lat="42.902119" lon="19.601463">
<ele>1196.860352</ele>
<time>2012-04-30T12:25:15Z</time>
<desc>lat.=42.902119, lon.=19.601463, Alt.=1196.860352m. Speed=4.320000m/h.</desc>
<speed>1.200000</speed>
</trkpt>
<trkpt lat="42.902088" lon="19.601526">
<ele>1197.172852</ele>
<time>2012-04-30T12:25:20Z</time>
<desc>lat.=42.902088, lon.=19.601526, Alt.=1197.172852m. Speed=2.160000m/h.</desc>
<speed>0.600000</speed>
</trkpt>
<trkpt lat="42.902107" lon="19.601547">
<ele>1197.860352</ele>
<time>2012-04-30T12:25:25Z</time>
<desc>lat.=42.902107, lon.=19.601547, Alt.=1197.860352m. Speed=2.736000m/h.</desc>
<speed>0.760000</speed>
</trkpt>
<trkpt lat="42.902157" lon="19.601538">
<ele>1199.047852</ele>
<time>2012-04-30T12:25:30Z</time>
<desc>lat.=42.902157, lon.=19.601538, Alt.=1199.047852m. Speed=4.860000m/h.</desc>
<speed>1.350000</speed>
</trkpt>
<trkpt lat="42.902195" lon="19.601473">
<ele>1200.547852</ele>
<time>2012-04-30T12:25:35Z</time>
<desc>lat.=42.902195, lon.=19.601473, Alt.=1200.547852m. Speed=8.136000m/h.</desc>
<speed>2.260000</speed>
</trkpt>
<trkpt lat="42.902248" lon="19.601374">
<ele>1201.454102</ele>
<time>2012-04-30T12:25:40Z</time>
<desc>lat.=42.902248, lon.=19.601374, Alt.=1201.454102m. Speed=6.660000m/h.</desc>
<speed>1.850000</speed>
</trkpt>
<trkpt lat="42.902325" lon="19.601265">
<ele>1203.391602</ele>
<time>2012-04-30T12:25:45Z</time>
<desc>lat.=42.902325, lon.=19.601265, Alt.=1203.391602m. Speed=7.704000m/h.</desc>
<speed>2.140000</speed>
</trkpt>
<trkpt lat="42.902393" lon="19.601238">
<ele>1205.172852</ele>
<time>2012-04-30T12:25:50Z</time>
<desc>lat.=42.902393, lon.=19.601238, Alt.=1205.172852m. Speed=4.572000m/h.</desc>
<speed>1.270000</speed>
</trkpt>
<trkpt lat="42.902454" lon="19.601196">
<ele>1206.047852</ele>
<time>2012-04-30T12:25:55Z</time>
<desc>lat.=42.902454, lon.=19.601196, Alt.=1206.047852m. Speed=4.428000m/h.</desc>
<speed>1.230000</speed>
</trkpt>
<trkpt lat="42.902531" lon="19.601175">
<ele>1206.485352</ele>
<time>2012-04-30T12:26:00Z</time>
<desc>lat.=42.902531, lon.=19.601175, Alt.=1206.485352m. Speed=4.068000m/h.</desc>
<speed>1.130000</speed>
</trkpt>
<trkpt lat="42.902603" lon="19.601068">
<ele>1211.204102</ele>
<time>2012-04-30T12:26:05Z</time>
<desc>lat.=42.902603, lon.=19.601068, Alt.=1211.204102m. Speed=3.852000m/h.</desc>
<speed>1.070000</speed>
</trkpt>
<trkpt lat="42.902653" lon="19.601053">
<ele>1215.516602</ele>
<time>2012-04-30T12:26:10Z</time>
<desc>lat.=42.902653, lon.=19.601053, Alt.=1215.516602m. Speed=2.808000m/h.</desc>
<speed>0.780000</speed>
</trkpt>
<trkpt lat="42.902760" lon="19.601011">
<ele>1219.610352</ele>
<time>2012-04-30T12:26:15Z</time>
<desc>lat.=42.902760, lon.=19.601011, Alt.=1219.610352m. Speed=7.128000m/h.</desc>
<speed>1.980000</speed>
</trkpt>
<trkpt lat="42.902885" lon="19.600885">
<ele>1219.172852</ele>
<time>2012-04-30T12:26:20Z</time>
<desc>lat.=42.902885, lon.=19.600885, Alt.=1219.172852m. Speed=5.868000m/h.</desc>
<speed>1.630000</speed>
</trkpt>
<trkpt lat="42.902985" lon="19.600790">
<ele>1218.422852</ele>
<time>2012-04-30T12:26:25Z</time>
<desc>lat.=42.902985, lon.=19.600790, Alt.=1218.422852m. Speed=3.240000m/h.</desc>
<speed>0.900000</speed>
</trkpt>
<trkpt lat="42.903088" lon="19.600782">
<ele>1219.172852</ele>
<time>2012-04-30T12:26:30Z</time>
<desc>lat.=42.903088, lon.=19.600782, Alt.=1219.172852m. Speed=5.796000m/h.</desc>
<speed>1.610000</speed>
</trkpt>
<trkpt lat="42.903164" lon="19.600809">
<ele>1219.922852</ele>
<time>2012-04-30T12:26:35Z</time>
<desc>lat.=42.903164, lon.=19.600809, Alt.=1219.922852m. Speed=3.132000m/h.</desc>
<speed>0.870000</speed>
</trkpt>
<trkpt lat="42.903206" lon="19.600840">
<ele>1219.329102</ele>
<time>2012-04-30T12:26:40Z</time>
<desc>lat.=42.903206, lon.=19.600840, Alt.=1219.329102m. Speed=2.160000m/h.</desc>
<speed>0.600000</speed>
</trkpt>
<trkpt lat="42.903168" lon="19.600859">
<ele>1217.172852</ele>
<time>2012-04-30T12:26:45Z</time>
<desc>lat.=42.903168, lon.=19.600859, Alt.=1217.172852m. Speed=5.112000m/h.</desc>
<speed>1.420000</speed>
</trkpt>
<trkpt lat="42.903118" lon="19.600891">
<ele>1216.735352</ele>
<time>2012-04-30T12:26:50Z</time>
<desc>lat.=42.903118, lon.=19.600891, Alt.=1216.735352m. Speed=3.384000m/h.</desc>
<speed>0.940000</speed>
</trkpt>
<trkpt lat="42.903061" lon="19.600981">
<ele>1216.985352</ele>
<time>2012-04-30T12:26:55Z</time>
<desc>lat.=42.903061, lon.=19.600981, Alt.=1216.985352m. Speed=7.956000m/h.</desc>
<speed>2.210000</speed>
</trkpt>
<trkpt lat="42.902943" lon="19.601088">
<ele>1215.454102</ele>
<time>2012-04-30T12:27:00Z</time>
<desc>lat.=42.902943, lon.=19.601088, Alt.=1215.454102m. Speed=7.632000m/h.</desc>
<speed>2.120000</speed>
</trkpt>
<trkpt lat="42.902908" lon="19.601173">
<ele>1215.266602</ele>
<time>2012-04-30T12:27:05Z</time>
<desc>lat.=42.902908, lon.=19.601173, Alt.=1215.266602m. Speed=3.600000m/h.</desc>
<speed>1.000000</speed>
</trkpt>
<trkpt lat="42.902832" lon="19.601282">
<ele>1214.516602</ele>
<time>2012-04-30T12:27:10Z</time>
<desc>lat.=42.902832, lon.=19.601282, Alt.=1214.516602m. Speed=5.472000m/h.</desc>
<speed>1.520000</speed>
</trkpt>
<trkpt lat="42.902748" lon="19.601402">
<ele>1215.672852</ele>
<time>2012-04-30T12:27:15Z</time>
<desc>lat.=42.902748, lon.=19.601402, Alt.=1215.672852m. Speed=7.236000m/h.</desc>
<speed>2.010000</speed>
</trkpt>
<trkpt lat="42.902679" lon="19.601480">
<ele>1215.016602</ele>
<time>2012-04-30T12:27:20Z</time>
<desc>lat.=42.902679, lon.=19.601480, Alt.=1215.016602m. Speed=5.832000m/h.</desc>
<speed>1.620000</speed>
</trkpt>
<trkpt lat="42.902637" lon="19.601570">
<ele>1215.110352</ele>
<time>2012-04-30T12:27:25Z</time>
<desc>lat.=42.902637, lon.=19.601570, Alt.=1215.110352m. Speed=5.724000m/h.</desc>
<speed>1.590000</speed>
</trkpt>
<trkpt lat="42.902603" lon="19.601667">
<ele>1215.016602</ele>
<time>2012-04-30T12:27:30Z</time>
<desc>lat.=42.902603, lon.=19.601667, Alt.=1215.016602m. Speed=6.732000m/h.</desc>
<speed>1.870000</speed>
</trkpt>
<trkpt lat="42.902557" lon="19.601744">
<ele>1215.172852</ele>
<time>2012-04-30T12:27:35Z</time>
<desc>lat.=42.902557, lon.=19.601744, Alt.=1215.172852m. Speed=3.024000m/h.</desc>
<speed>0.840000</speed>
</trkpt>
<trkpt lat="42.902512" lon="19.601839">
<ele>1215.141602</ele>
<time>2012-04-30T12:27:40Z</time>
<desc>lat.=42.902512, lon.=19.601839, Alt.=1215.141602m. Speed=5.976000m/h.</desc>
<speed>1.660000</speed>
</trkpt>
<trkpt lat="42.902489" lon="19.602007">
<ele>1215.704102</ele>
<time>2012-04-30T12:27:45Z</time>
<desc>lat.=42.902489, lon.=19.602007, Alt.=1215.704102m. Speed=5.724000m/h.</desc>
<speed>1.590000</speed>
</trkpt>
<trkpt lat="42.902451" lon="19.602083">
<ele>1216.516602</ele>
<time>2012-04-30T12:27:50Z</time>
<desc>lat.=42.902451, lon.=19.602083, Alt.=1216.516602m. Speed=5.292000m/h.</desc>
<speed>1.470000</speed>
</trkpt>
<trkpt lat="42.902420" lon="19.602215">
<ele>1217.610352</ele>
<time>2012-04-30T12:27:55Z</time>
<desc>lat.=42.902420, lon.=19.602215, Alt.=1217.610352m. Speed=8.028000m/h.</desc>
<speed>2.230000</speed>
</trkpt>
<trkpt lat="42.902416" lon="19.602301">
<ele>1219.735352</ele>
<time>2012-04-30T12:28:00Z</time>
<desc>lat.=42.902416, lon.=19.602301, Alt.=1219.735352m. Speed=2.196000m/h.</desc>
<speed>0.610000</speed>
</trkpt>
<trkpt lat="42.902412" lon="19.602428">
<ele>1220.704102</ele>
<time>2012-04-30T12:28:05Z</time>
<desc>lat.=42.902412, lon.=19.602428, Alt.=1220.704102m. Speed=4.464000m/h.</desc>
<speed>1.240000</speed>
</trkpt>
<trkpt lat="42.902382" lon="19.602501">
<ele>1221.141602</ele>
<time>2012-04-30T12:28:10Z</time>
<desc>lat.=42.902382, lon.=19.602501, Alt.=1221.141602m. Speed=2.916000m/h.</desc>
<speed>0.810000</speed>
</trkpt>
<trkpt lat="42.902367" lon="19.602608">
<ele>1222.172852</ele>
<time>2012-04-30T12:28:15Z</time>
<desc>lat.=42.902367, lon.=19.602608, Alt.=1222.172852m. Speed=4.860000m/h.</desc>
<speed>1.350000</speed>
</trkpt>
<trkpt lat="42.902355" lon="19.602724">
<ele>1224.266602</ele>
<time>2012-04-30T12:28:20Z</time>
<desc>lat.=42.902355, lon.=19.602724, Alt.=1224.266602m. Speed=5.328000m/h.</desc>
<speed>1.480000</speed>
</trkpt>
<trkpt lat="42.902332" lon="19.602839">
<ele>1225.735352</ele>
<time>2012-04-30T12:28:25Z</time>
<desc>lat.=42.902332, lon.=19.602839, Alt.=1225.735352m. Speed=6.588000m/h.</desc>
<speed>1.830000</speed>
</trkpt>
<trkpt lat="42.902306" lon="19.602974">
<ele>1227.047852</ele>
<time>2012-04-30T12:28:30Z</time>
<desc>lat.=42.902306, lon.=19.602974, Alt.=1227.047852m. Speed=4.356000m/h.</desc>
<speed>1.210000</speed>
</trkpt>
<trkpt lat="42.902294" lon="19.603125">
<ele>1229.422852</ele>
<time>2012-04-30T12:28:35Z</time>
<desc>lat.=42.902294, lon.=19.603125, Alt.=1229.422852m. Speed=5.796000m/h.</desc>
<speed>1.610000</speed>
</trkpt>
<trkpt lat="42.902287" lon="19.603243">
<ele>1232.422852</ele>
<time>2012-04-30T12:28:40Z</time>
<desc>lat.=42.902287, lon.=19.603243, Alt.=1232.422852m. Speed=5.508000m/h.</desc>
<speed>1.530000</speed>
</trkpt>
<trkpt lat="42.902325" lon="19.603388">
<ele>1233.297852</ele>
<time>2012-04-30T12:28:45Z</time>
<desc>lat.=42.902325, lon.=19.603388, Alt.=1233.297852m. Speed=2.808000m/h.</desc>
<speed>0.780000</speed>
</trkpt>
<trkpt lat="42.902271" lon="19.603472">
<ele>1236.610352</ele>
<time>2012-04-30T12:28:50Z</time>
<desc>lat.=42.902271, lon.=19.603472, Alt.=1236.610352m. Speed=4.536000m/h.</desc>
<speed>1.260000</speed>
</trkpt>
<trkpt lat="42.902222" lon="19.603502">
<ele>1238.079102</ele>
<time>2012-04-30T12:28:55Z</time>
<desc>lat.=42.902222, lon.=19.603502, Alt.=1238.079102m. Speed=3.456000m/h.</desc>
<speed>0.960000</speed>
</trkpt>
<trkpt lat="42.902184" lon="19.603483">
<ele>1238.391602</ele>
<time>2012-04-30T12:29:00Z</time>
<desc>lat.=42.902184, lon.=19.603483, Alt.=1238.391602m. Speed=0.288000m/h.</desc>
<speed>0.080000</speed>
</trkpt>
<trkpt lat="42.902184" lon="19.603483">
<ele>1238.610352</ele>
<time>2012-04-30T12:29:05Z</time>
<desc>lat.=42.902184, lon.=19.603483, Alt.=1238.610352m. Speed=0.180000m/h.</desc>
<speed>0.050000</speed>
</trkpt>
<trkpt lat="42.902176" lon="19.603485">
<ele>1238.672852</ele>
<time>2012-04-30T12:29:10Z</time>
<desc>lat.=42.902176, lon.=19.603485, Alt.=1238.672852m. Speed=1.080000m/h.</desc>
<speed>0.300000</speed>
</trkpt>
<trkpt lat="42.902176" lon="19.603544">
<ele>1241.391602</ele>
<time>2012-04-30T12:29:15Z</time>
<desc>lat.=42.902176, lon.=19.603544, Alt.=1241.391602m. Speed=2.304000m/h.</desc>
<speed>0.640000</speed>
</trkpt>
<trkpt lat="42.902153" lon="19.603586">
<ele>1242.860352</ele>
<time>2012-04-30T12:29:20Z</time>
<desc>lat.=42.902153, lon.=19.603586, Alt.=1242.860352m. Speed=1.584000m/h.</desc>
<speed>0.440000</speed>
</trkpt>
<trkpt lat="42.902153" lon="19.603640">
<ele>1244.360352</ele>
<time>2012-04-30T12:29:25Z</time>
<desc>lat.=42.902153, lon.=19.603640, Alt.=1244.360352m. Speed=3.564000m/h.</desc>
<speed>0.990000</speed>
</trkpt>
<trkpt lat="42.902145" lon="19.603687">
<ele>1245.047852</ele>
<time>2012-04-30T12:29:30Z</time>
<desc>lat.=42.902145, lon.=19.603687, Alt.=1245.047852m. Speed=2.268000m/h.</desc>
<speed>0.630000</speed>
</trkpt>
<trkpt lat="42.902149" lon="19.603695">
<ele>1245.391602</ele>
<time>2012-04-30T12:29:35Z</time>
<desc>lat.=42.902149, lon.=19.603695, Alt.=1245.391602m. Speed=0.072000m/h.</desc>
<speed>0.020000</speed>
</trkpt>
<trkpt lat="42.902145" lon="19.603748">
<ele>1246.360352</ele>
<time>2012-04-30T12:29:40Z</time>
<desc>lat.=42.902145, lon.=19.603748, Alt.=1246.360352m. Speed=0.756000m/h.</desc>
<speed>0.210000</speed>
</trkpt>
<trkpt lat="42.902145" lon="19.603752">
<ele>1247.641602</ele>
<time>2012-04-30T12:29:45Z</time>
<desc>lat.=42.902145, lon.=19.603752, Alt.=1247.641602m. Speed=0.252000m/h.</desc>
<speed>0.070000</speed>
</trkpt>
<trkpt lat="42.902130" lon="19.603762">
<ele>1247.516602</ele>
<time>2012-04-30T12:29:50Z</time>
<desc>lat.=42.902130, lon.=19.603762, Alt.=1247.516602m. Speed=1.908000m/h.</desc>
<speed>0.530000</speed>
</trkpt>
<trkpt lat="42.902134" lon="19.603773">
<ele>1247.610352</ele>
<time>2012-04-30T12:29:55Z</time>
<desc>lat.=42.902134, lon.=19.603773, Alt.=1247.610352m. Speed=0.720000m/h.</desc>
<speed>0.200000</speed>
</trkpt>
<trkpt lat="42.902134" lon="19.603771">
<ele>1247.360352</ele>
<time>2012-04-30T12:30:00Z</time>
<desc>lat.=42.902134, lon.=19.603771, Alt.=1247.360352m. Speed=0.216000m/h.</desc>
<speed>0.060000</speed>
</trkpt>
<trkpt lat="42.902130" lon="19.603773">
<ele>1246.672852</ele>
<time>2012-04-30T12:30:05Z</time>
<desc>lat.=42.902130, lon.=19.603773, Alt.=1246.672852m. Speed=0.180000m/h.</desc>
<speed>0.050000</speed>
</trkpt>
<trkpt lat="42.902130" lon="19.603777">
<ele>1246.110352</ele>
<time>2012-04-30T12:30:10Z</time>
<desc>lat.=42.902130, lon.=19.603777, Alt.=1246.110352m. Speed=0.288000m/h.</desc>
<speed>0.080000</speed>
</trkpt>
<trkpt lat="42.902126" lon="19.603783">
<ele>1245.547852</ele>
<time>2012-04-30T12:30:15Z</time>
<desc>lat.=42.902126, lon.=19.603783, Alt.=1245.547852m. Speed=0.900000m/h.</desc>
<speed>0.250000</speed>
</trkpt>
<trkpt lat="42.902096" lon="19.603781">
<ele>1244.954102</ele>
<time>2012-04-30T12:30:20Z</time>
<desc>lat.=42.902096, lon.=19.603781, Alt.=1244.954102m. Speed=1.188000m/h.</desc>
<speed>0.330000</speed>
</trkpt>
<trkpt lat="42.902100" lon="19.603754">
<ele>1244.922852</ele>
<time>2012-04-30T12:30:25Z</time>
<desc>lat.=42.902100, lon.=19.603754, Alt.=1244.922852m. Speed=0.468000m/h.</desc>
<speed>0.130000</speed>
</trkpt>
<trkpt lat="42.902100" lon="19.603758">
<ele>1244.391602</ele>
<time>2012-04-30T12:30:30Z</time>
<desc>lat.=42.902100, lon.=19.603758, Alt.=1244.391602m. Speed=0.036000m/h.</desc>
<speed>0.010000</speed>
</trkpt>
<trkpt lat="42.902096" lon="19.603760">
<ele>1243.891602</ele>
<time>2012-04-30T12:30:35Z</time>
<desc>lat.=42.902096, lon.=19.603760, Alt.=1243.891602m. Speed=0.288000m/h.</desc>
<speed>0.080000</speed>
</trkpt>
<trkpt lat="42.902096" lon="19.603764">
<ele>1243.391602</ele>
<time>2012-04-30T12:30:40Z</time>
<desc>lat.=42.902096, lon.=19.603764, Alt.=1243.391602m. Speed=0.036000m/h.</desc>
<speed>0.010000</speed>
</trkpt>
<trkpt lat="42.902096" lon="19.603764">
<ele>1242.891602</ele>
<time>2012-04-30T12:30:45Z</time>
<desc>lat.=42.902096, lon.=19.603764, Alt.=1242.891602m. Speed=0.072000m/h.</desc>
<speed>0.020000</speed>
</trkpt>
<trkpt lat="42.902096" lon="19.603765">
<ele>1242.422852</ele>
<time>2012-04-30T12:30:50Z</time>
<desc>lat.=42.902096, lon.=19.603765, Alt.=1242.422852m. Speed=0.108000m/h.</desc>
<speed>0.030000</speed>
</trkpt>
<trkpt lat="42.902096" lon="19.603767">
<ele>1241.891602</ele>
<time>2012-04-30T12:30:55Z</time>
<desc>lat.=42.902096, lon.=19.603767, Alt.=1241.891602m. Speed=0.144000m/h.</desc>
<speed>0.040000</speed>
</trkpt>
<trkpt lat="42.902096" lon="19.603769">
<ele>1241.266602</ele>
<time>2012-04-30T12:31:00Z</time>
<desc>lat.=42.902096, lon.=19.603769, Alt.=1241.266602m. Speed=0.108000m/h.</desc>
<speed>0.030000</speed>
</trkpt>
<trkpt lat="42.902096" lon="19.603769">
<ele>1240.797852</ele>
<time>2012-04-30T12:31:05Z</time>
<desc>lat.=42.902096, lon.=19.603769, Alt.=1240.797852m. Speed=0.072000m/h.</desc>
<speed>0.020000</speed>
</trkpt>
<trkpt lat="42.902096" lon="19.603769">
<ele>1240.485352</ele>
<time>2012-04-30T12:31:10Z</time>
<desc>lat.=42.902096, lon.=19.603769, Alt.=1240.485352m. Speed=0.036000m/h.</desc>
<speed>0.010000</speed>
</trkpt>
<trkpt lat="42.902096" lon="19.603769">
<ele>1240.391602</ele>
<time>2012-04-30T12:31:15Z</time>
<desc>lat.=42.902096, lon.=19.603769, Alt.=1240.391602m. Speed=0.036000m/h.</desc>
<speed>0.010000</speed>
</trkpt>
<trkpt lat="42.902096" lon="19.603769">
<ele>1240.391602</ele>
<time>2012-04-30T12:31:20Z</time>
<desc>lat.=42.902096, lon.=19.603769, Alt.=1240.391602m. Speed=0.000000m/h.</desc>
<speed>0.000000</speed>
</trkpt>
<trkpt lat="42.902096" lon="19.603769">
<ele>1240.329102</ele>
<time>2012-04-30T12:31:25Z</time>
<desc>lat.=42.902096, lon.=19.603769, Alt.=1240.329102m. Speed=0.000000m/h.</desc>
<speed>0.000000</speed>
</trkpt>
<trkpt lat="42.902096" lon="19.603769">
<ele>1240.329102</ele>
<time>2012-04-30T12:31:30Z</time>
<desc>lat.=42.902096, lon.=19.603769, Alt.=1240.329102m. Speed=0.036000m/h.</desc>
<speed>0.010000</speed>
</trkpt>
<trkpt lat="42.902096" lon="19.603769">
<ele>1240.297852</ele>
<time>2012-04-30T12:31:35Z</time>
<desc>lat.=42.902096, lon.=19.603769, Alt.=1240.297852m. Speed=0.036000m/h.</desc>
<speed>0.010000</speed>
</trkpt>
<trkpt lat="42.902096" lon="19.603767">
<ele>1240.297852</ele>
<time>2012-04-30T12:31:40Z</time>
<desc>lat.=42.902096, lon.=19.603767, Alt.=1240.297852m. Speed=0.216000m/h.</desc>
<speed>0.060000</speed>
</trkpt>
<trkpt lat="42.902096" lon="19.603764">
<ele>1240.266602</ele>
<time>2012-04-30T12:31:45Z</time>
<desc>lat.=42.902096, lon.=19.603764, Alt.=1240.266602m. Speed=0.144000m/h.</desc>
<speed>0.040000</speed>
</trkpt>
<trkpt lat="42.902096" lon="19.603762">
<ele>1240.141602</ele>
<time>2012-04-30T12:31:50Z</time>
<desc>lat.=42.902096, lon.=19.603762, Alt.=1240.141602m. Speed=0.000000m/h.</desc>
<speed>0.000000</speed>
</trkpt>
<trkpt lat="42.902096" lon="19.603762">
<ele>1240.110352</ele>
<time>2012-04-30T12:31:55Z</time>
<desc>lat.=42.902096, lon.=19.603762, Alt.=1240.110352m. Speed=0.000000m/h.</desc>
<speed>0.000000</speed>
</trkpt>
<trkpt lat="42.902096" lon="19.603762">
<ele>1240.047852</ele>
<time>2012-04-30T12:32:00Z</time>
<desc>lat.=42.902096, lon.=19.603762, Alt.=1240.047852m. Speed=0.000000m/h.</desc>
<speed>0.000000</speed>
</trkpt>
<trkpt lat="42.902096" lon="19.603762">
<ele>1240.047852</ele>
<time>2012-04-30T12:32:05Z</time>
<desc>lat.=42.902096, lon.=19.603762, Alt.=1240.047852m. Speed=0.000000m/h.</desc>
<speed>0.000000</speed>
</trkpt>
<trkpt lat="42.902096" lon="19.603762">
<ele>1240.047852</ele>
<time>2012-04-30T12:32:10Z</time>
<desc>lat.=42.902096, lon.=19.603762, Alt.=1240.047852m. Speed=0.000000m/h.</desc>
<speed>0.000000</speed>
</trkpt>
<trkpt lat="42.902096" lon="19.603762">
<ele>1240.047852</ele>
<time>2012-04-30T12:32:15Z</time>
<desc>lat.=42.902096, lon.=19.603762, Alt.=1240.047852m. Speed=0.036000m/h.</desc>
<speed>0.010000</speed>
</trkpt>
<trkpt lat="42.902096" lon="19.603762">
<ele>1239.985352</ele>
<time>2012-04-30T12:32:20Z</time>
<desc>lat.=42.902096, lon.=19.603762, Alt.=1239.985352m. Speed=0.108000m/h.</desc>
<speed>0.030000</speed>
</trkpt>
<trkpt lat="42.902096" lon="19.603760">
<ele>1239.797852</ele>
<time>2012-04-30T12:32:25Z</time>
<desc>lat.=42.902096, lon.=19.603760, Alt.=1239.797852m. Speed=0.036000m/h.</desc>
<speed>0.010000</speed>
</trkpt>
<trkpt lat="42.902096" lon="19.603760">
<ele>1239.547852</ele>
<time>2012-04-30T12:32:30Z</time>
<desc>lat.=42.902096, lon.=19.603760, Alt.=1239.547852m. Speed=0.144000m/h.</desc>
<speed>0.040000</speed>
</trkpt>
<trkpt lat="42.902092" lon="19.603762">
<ele>1239.360352</ele>
<time>2012-04-30T12:32:35Z</time>
<desc>lat.=42.902092, lon.=19.603762, Alt.=1239.360352m. Speed=0.072000m/h.</desc>
<speed>0.020000</speed>
</trkpt>
<trkpt lat="42.902092" lon="19.603762">
<ele>1239.235352</ele>
<time>2012-04-30T12:32:40Z</time>
<desc>lat.=42.902092, lon.=19.603762, Alt.=1239.235352m. Speed=0.000000m/h.</desc>
<speed>0.000000</speed>
</trkpt>
<trkpt lat="42.902092" lon="19.603762">
<ele>1239.172852</ele>
<time>2012-04-30T12:32:45Z</time>
<desc>lat.=42.902092, lon.=19.603762, Alt.=1239.172852m. Speed=0.036000m/h.</desc>
<speed>0.010000</speed>
</trkpt>
<trkpt lat="42.902092" lon="19.603762">
<ele>1238.797852</ele>
<time>2012-04-30T12:32:50Z</time>
<desc>lat.=42.902092, lon.=19.603762, Alt.=1238.797852m. Speed=0.072000m/h.</desc>
<speed>0.020000</speed>
</trkpt>
<trkpt lat="42.902088" lon="19.603764">
<ele>1238.266602</ele>
<time>2012-04-30T12:32:55Z</time>
<desc>lat.=42.902088, lon.=19.603764, Alt.=1238.266602m. Speed=0.036000m/h.</desc>
<speed>0.010000</speed>
</trkpt>
<trkpt lat="42.902092" lon="19.603765">
<ele>1237.641602</ele>
<time>2012-04-30T12:33:00Z</time>
<desc>lat.=42.902092, lon.=19.603765, Alt.=1237.641602m. Speed=0.072000m/h.</desc>
<speed>0.020000</speed>
</trkpt>
<trkpt lat="42.902092" lon="19.603767">
<ele>1237.110352</ele>
<time>2012-04-30T12:33:05Z</time>
<desc>lat.=42.902092, lon.=19.603767, Alt.=1237.110352m. Speed=0.252000m/h.</desc>
<speed>0.070000</speed>
</trkpt>
<trkpt lat="42.902092" lon="19.603771">
<ele>1236.516602</ele>
<time>2012-04-30T12:33:10Z</time>
<desc>lat.=42.902092, lon.=19.603771, Alt.=1236.516602m. Speed=0.216000m/h.</desc>
<speed>0.060000</speed>
</trkpt>
<trkpt lat="42.902096" lon="19.603775">
<ele>1235.922852</ele>
<time>2012-04-30T12:33:15Z</time>
<desc>lat.=42.902096, lon.=19.603775, Alt.=1235.922852m. Speed=0.252000m/h.</desc>
<speed>0.070000</speed>
</trkpt>
<trkpt lat="42.902096" lon="19.603781">
<ele>1235.141602</ele>
<time>2012-04-30T12:33:20Z</time>
<desc>lat.=42.902096, lon.=19.603781, Alt.=1235.141602m. Speed=0.396000m/h.</desc>
<speed>0.110000</speed>
</trkpt>
<trkpt lat="42.902096" lon="19.603790">
<ele>1234.360352</ele>
<time>2012-04-30T12:33:25Z</time>
<desc>lat.=42.902096, lon.=19.603790, Alt.=1234.360352m. Speed=0.612000m/h.</desc>
<speed>0.170000</speed>
</trkpt>
<trkpt lat="42.902096" lon="19.603800">
<ele>1233.547852</ele>
<time>2012-04-30T12:33:30Z</time>
<desc>lat.=42.902096, lon.=19.603800, Alt.=1233.547852m. Speed=0.468000m/h.</desc>
<speed>0.130000</speed>
</trkpt>
<trkpt lat="42.902096" lon="19.603807">
<ele>1232.766602</ele>
<time>2012-04-30T12:33:35Z</time>
<desc>lat.=42.902096, lon.=19.603807, Alt.=1232.766602m. Speed=0.396000m/h.</desc>
<speed>0.110000</speed>
</trkpt>
<trkpt lat="42.902100" lon="19.603815">
<ele>1232.172852</ele>
<time>2012-04-30T12:33:40Z</time>
<desc>lat.=42.902100, lon.=19.603815, Alt.=1232.172852m. Speed=0.792000m/h.</desc>
<speed>0.220000</speed>
</trkpt>
<trkpt lat="42.902107" lon="19.603827">
<ele>1231.579102</ele>
<time>2012-04-30T12:33:45Z</time>
<desc>lat.=42.902107, lon.=19.603827, Alt.=1231.579102m. Speed=0.972000m/h.</desc>
<speed>0.270000</speed>
</trkpt>
<trkpt lat="42.902119" lon="19.603838">
<ele>1231.079102</ele>
<time>2012-04-30T12:33:50Z</time>
<desc>lat.=42.902119, lon.=19.603838, Alt.=1231.079102m. Speed=1.044000m/h.</desc>
<speed>0.290000</speed>
</trkpt>
<trkpt lat="42.902126" lon="19.603851">
<ele>1230.579102</ele>
<time>2012-04-30T12:33:55Z</time>
<desc>lat.=42.902126, lon.=19.603851, Alt.=1230.579102m. Speed=0.900000m/h.</desc>
<speed>0.250000</speed>
</trkpt>
<trkpt lat="42.902172" lon="19.603889">
<ele>1231.579102</ele>
<time>2012-04-30T12:34:00Z</time>
<desc>lat.=42.902172, lon.=19.603889, Alt.=1231.579102m. Speed=1.224000m/h.</desc>
<speed>0.340000</speed>
</trkpt>
<trkpt lat="42.902199" lon="19.603926">
<ele>1234.235352</ele>
<time>2012-04-30T12:34:05Z</time>
<desc>lat.=42.902199, lon.=19.603926, Alt.=1234.235352m. Speed=0.972000m/h.</desc>
<speed>0.270000</speed>
</trkpt>
<trkpt lat="42.902187" lon="19.603901">
<ele>1234.204102</ele>
<time>2012-04-30T12:34:10Z</time>
<desc>lat.=42.902187, lon.=19.603901, Alt.=1234.204102m. Speed=0.180000m/h.</desc>
<speed>0.050000</speed>
</trkpt>
<trkpt lat="42.902187" lon="19.603897">
<ele>1233.954102</ele>
<time>2012-04-30T12:34:15Z</time>
<desc>lat.=42.902187, lon.=19.603897, Alt.=1233.954102m. Speed=0.252000m/h.</desc>
<speed>0.070000</speed>
</trkpt>
<trkpt lat="42.902187" lon="19.603886">
<ele>1233.860352</ele>
<time>2012-04-30T12:34:20Z</time>
<desc>lat.=42.902187, lon.=19.603886, Alt.=1233.860352m. Speed=0.252000m/h.</desc>
<speed>0.070000</speed>
</trkpt>
<trkpt lat="42.902184" lon="19.603884">
<ele>1233.797852</ele>
<time>2012-04-30T12:34:25Z</time>
<desc>lat.=42.902184, lon.=19.603884, Alt.=1233.797852m. Speed=0.540000m/h.</desc>
<speed>0.150000</speed>
</trkpt>
<trkpt lat="42.902176" lon="19.603884">
<ele>1233.735352</ele>
<time>2012-04-30T12:34:30Z</time>
<desc>lat.=42.902176, lon.=19.603884, Alt.=1233.735352m. Speed=0.216000m/h.</desc>
<speed>0.060000</speed>
</trkpt>
<trkpt lat="42.902172" lon="19.603880">
<ele>1233.704102</ele>
<time>2012-04-30T12:34:35Z</time>
<desc>lat.=42.902172, lon.=19.603880, Alt.=1233.704102m. Speed=0.360000m/h.</desc>
<speed>0.100000</speed>
</trkpt>
<trkpt lat="42.902168" lon="19.603876">
<ele>1233.735352</ele>
<time>2012-04-30T12:34:40Z</time>
<desc>lat.=42.902168, lon.=19.603876, Alt.=1233.735352m. Speed=0.216000m/h.</desc>
<speed>0.060000</speed>
</trkpt>
<trkpt lat="42.902164" lon="19.603872">
<ele>1233.735352</ele>
<time>2012-04-30T12:34:45Z</time>
<desc>lat.=42.902164, lon.=19.603872, Alt.=1233.735352m. Speed=0.576000m/h.</desc>
<speed>0.160000</speed>
</trkpt>
<trkpt lat="42.902153" lon="19.603859">
<ele>1233.829102</ele>
<time>2012-04-30T12:34:50Z</time>
<desc>lat.=42.902153, lon.=19.603859, Alt.=1233.829102m. Speed=0.936000m/h.</desc>
<speed>0.260000</speed>
</trkpt>
<trkpt lat="42.902142" lon="19.603815">
<ele>1235.016602</ele>
<time>2012-04-30T12:34:55Z</time>
<desc>lat.=42.902142, lon.=19.603815, Alt.=1235.016602m. Speed=0.792000m/h.</desc>
<speed>0.220000</speed>
</trkpt>
<trkpt lat="42.902126" lon="19.603790">
<ele>1237.954102</ele>
<time>2012-04-30T12:35:00Z</time>
<desc>lat.=42.902126, lon.=19.603790, Alt.=1237.954102m. Speed=0.360000m/h.</desc>
<speed>0.100000</speed>
</trkpt>
<trkpt lat="42.902100" lon="19.603762">
<ele>1240.266602</ele>
<time>2012-04-30T12:35:05Z</time>
<desc>lat.=42.902100, lon.=19.603762, Alt.=1240.266602m. Speed=0.468000m/h.</desc>
<speed>0.130000</speed>
</trkpt>
<trkpt lat="42.902084" lon="19.603729">
<ele>1241.547852</ele>
<time>2012-04-30T12:35:10Z</time>
<desc>lat.=42.902084, lon.=19.603729, Alt.=1241.547852m. Speed=0.576000m/h.</desc>
<speed>0.160000</speed>
</trkpt>
<trkpt lat="42.902058" lon="19.603748">
<ele>1238.797852</ele>
<time>2012-04-30T12:35:15Z</time>
<desc>lat.=42.902058, lon.=19.603748, Alt.=1238.797852m. Speed=0.360000m/h.</desc>
<speed>0.100000</speed>
</trkpt>
<trkpt lat="42.902065" lon="19.603756">
<ele>1239.204102</ele>
<time>2012-04-30T12:35:20Z</time>
<desc>lat.=42.902065, lon.=19.603756, Alt.=1239.204102m. Speed=0.180000m/h.</desc>
<speed>0.050000</speed>
</trkpt>
<trkpt lat="42.902077" lon="19.603794">
<ele>1240.079102</ele>
<time>2012-04-30T12:35:25Z</time>
<desc>lat.=42.902077, lon.=19.603794, Alt.=1240.079102m. Speed=0.072000m/h.</desc>
<speed>0.020000</speed>
</trkpt>
<trkpt lat="42.902088" lon="19.603832">
<ele>1241.110352</ele>
<time>2012-04-30T12:35:30Z</time>
<desc>lat.=42.902088, lon.=19.603832, Alt.=1241.110352m. Speed=0.396000m/h.</desc>
<speed>0.110000</speed>
</trkpt>
<trkpt lat="42.902081" lon="19.603821">
<ele>1241.141602</ele>
<time>2012-04-30T12:35:35Z</time>
<desc>lat.=42.902081, lon.=19.603821, Alt.=1241.141602m. Speed=0.108000m/h.</desc>
<speed>0.030000</speed>
</trkpt>
<trkpt lat="42.902065" lon="19.603769">
<ele>1242.204102</ele>
<time>2012-04-30T12:35:40Z</time>
<desc>lat.=42.902065, lon.=19.603769, Alt.=1242.204102m. Speed=0.648000m/h.</desc>
<speed>0.180000</speed>
</trkpt>
<trkpt lat="42.902061" lon="19.603731">
<ele>1243.110352</ele>
<time>2012-04-30T12:35:45Z</time>
<desc>lat.=42.902061, lon.=19.603731, Alt.=1243.110352m. Speed=0.540000m/h.</desc>
<speed>0.150000</speed>
</trkpt>
<trkpt lat="42.902058" lon="19.603708">
<ele>1244.079102</ele>
<time>2012-04-30T12:35:50Z</time>
<desc>lat.=42.902058, lon.=19.603708, Alt.=1244.079102m. Speed=0.396000m/h.</desc>
<speed>0.110000</speed>
</trkpt>
<trkpt lat="42.902046" lon="19.603678">
<ele>1244.454102</ele>
<time>2012-04-30T12:35:55Z</time>
<desc>lat.=42.902046, lon.=19.603678, Alt.=1244.454102m. Speed=0.684000m/h.</desc>
<speed>0.190000</speed>
</trkpt>
<trkpt lat="42.902023" lon="19.603662">
<ele>1245.985352</ele>
<time>2012-04-30T12:36:00Z</time>
<desc>lat.=42.902023, lon.=19.603662, Alt.=1245.985352m. Speed=0.900000m/h.</desc>
<speed>0.250000</speed>
</trkpt>
<trkpt lat="42.902016" lon="19.603655">
<ele>1246.454102</ele>
<time>2012-04-30T12:36:05Z</time>
<desc>lat.=42.902016, lon.=19.603655, Alt.=1246.454102m. Speed=0.792000m/h.</desc>
<speed>0.220000</speed>
</trkpt>
<trkpt lat="42.902004" lon="19.603647">
<ele>1247.079102</ele>
<time>2012-04-30T12:36:10Z</time>
<desc>lat.=42.902004, lon.=19.603647, Alt.=1247.079102m. Speed=0.972000m/h.</desc>
<speed>0.270000</speed>
</trkpt>
<trkpt lat="42.901997" lon="19.603645">
<ele>1247.704102</ele>
<time>2012-04-30T12:36:15Z</time>
<desc>lat.=42.901997, lon.=19.603645, Alt.=1247.704102m. Speed=0.612000m/h.</desc>
<speed>0.170000</speed>
</trkpt>
<trkpt lat="42.901993" lon="19.603643">
<ele>1248.360352</ele>
<time>2012-04-30T12:36:20Z</time>
<desc>lat.=42.901993, lon.=19.603643, Alt.=1248.360352m. Speed=0.216000m/h.</desc>
<speed>0.060000</speed>
</trkpt>
<trkpt lat="42.902042" lon="19.603704">
<ele>1248.954102</ele>
<time>2012-04-30T12:36:25Z</time>
<desc>lat.=42.902042, lon.=19.603704, Alt.=1248.954102m. Speed=1.224000m/h.</desc>
<speed>0.340000</speed>
</trkpt>
<trkpt lat="42.902084" lon="19.603720">
<ele>1249.579102</ele>
<time>2012-04-30T12:36:30Z</time>
<desc>lat.=42.902084, lon.=19.603720, Alt.=1249.579102m. Speed=0.036000m/h.</desc>
<speed>0.010000</speed>
</trkpt>
<trkpt lat="42.902088" lon="19.603716">
<ele>1250.735352</ele>
<time>2012-04-30T12:36:35Z</time>
<desc>lat.=42.902088, lon.=19.603716, Alt.=1250.735352m. Speed=0.180000m/h.</desc>
<speed>0.050000</speed>
</trkpt>
<trkpt lat="42.902092" lon="19.603716">
<ele>1251.422852</ele>
<time>2012-04-30T12:36:40Z</time>
<desc>lat.=42.902092, lon.=19.603716, Alt.=1251.422852m. Speed=0.108000m/h.</desc>
<speed>0.030000</speed>
</trkpt>
<trkpt lat="42.902088" lon="19.603714">
<ele>1252.110352</ele>
<time>2012-04-30T12:36:45Z</time>
<desc>lat.=42.902088, lon.=19.603714, Alt.=1252.110352m. Speed=0.216000m/h.</desc>
<speed>0.060000</speed>
</trkpt>
<trkpt lat="42.902084" lon="19.603716">
<ele>1252.672852</ele>
<time>2012-04-30T12:36:50Z</time>
<desc>lat.=42.902084, lon.=19.603716, Alt.=1252.672852m. Speed=0.396000m/h.</desc>
<speed>0.110000</speed>
</trkpt>
<trkpt lat="42.902084" lon="19.603718">
<ele>1253.204102</ele>
<time>2012-04-30T12:36:55Z</time>
<desc>lat.=42.902084, lon.=19.603718, Alt.=1253.204102m. Speed=0.144000m/h.</desc>
<speed>0.040000</speed>
</trkpt>
<trkpt lat="42.902084" lon="19.603716">
<ele>1253.516602</ele>
<time>2012-04-30T12:37:00Z</time>
<desc>lat.=42.902084, lon.=19.603716, Alt.=1253.516602m. Speed=0.144000m/h.</desc>
<speed>0.040000</speed>
</trkpt>
<trkpt lat="42.902084" lon="19.603716">
<ele>1253.516602</ele>
<time>2012-04-30T12:37:05Z</time>
<desc>lat.=42.902084, lon.=19.603716, Alt.=1253.516602m. Speed=0.180000m/h.</desc>
<speed>0.050000</speed>
</trkpt>
<trkpt lat="42.902084" lon="19.603718">
<ele>1253.516602</ele>
<time>2012-04-30T12:37:10Z</time>
<desc>lat.=42.902084, lon.=19.603718, Alt.=1253.516602m. Speed=0.072000m/h.</desc>
<speed>0.020000</speed>
</trkpt>
<trkpt lat="42.902084" lon="19.603718">
<ele>1253.485352</ele>
<time>2012-04-30T12:37:15Z</time>
<desc>lat.=42.902084, lon.=19.603718, Alt.=1253.485352m. Speed=0.108000m/h.</desc>
<speed>0.030000</speed>
</trkpt>
<trkpt lat="42.902077" lon="19.603720">
<ele>1253.454102</ele>
<time>2012-04-30T12:37:20Z</time>
<desc>lat.=42.902077, lon.=19.603720, Alt.=1253.454102m. Speed=1.548000m/h.</desc>
<speed>0.430000</speed>
</trkpt>
<trkpt lat="42.902065" lon="19.603727">
<ele>1254.047852</ele>
<time>2012-04-30T12:37:25Z</time>
<desc>lat.=42.902065, lon.=19.603727, Alt.=1254.047852m. Speed=0.468000m/h.</desc>
<speed>0.130000</speed>
</trkpt>
<trkpt lat="42.902061" lon="19.603720">
<ele>1253.829102</ele>
<time>2012-04-30T12:37:30Z</time>
<desc>lat.=42.902061, lon.=19.603720, Alt.=1253.829102m. Speed=1.548000m/h.</desc>
<speed>0.430000</speed>
</trkpt>
<trkpt lat="42.902039" lon="19.603632">
<ele>1253.297852</ele>
<time>2012-04-30T12:37:35Z</time>
<desc>lat.=42.902039, lon.=19.603632, Alt.=1253.297852m. Speed=4.104000m/h.</desc>
<speed>1.140000</speed>
</trkpt>
<trkpt lat="42.901989" lon="19.603573">
<ele>1253.516602</ele>
<time>2012-04-30T12:37:40Z</time>
<desc>lat.=42.901989, lon.=19.603573, Alt.=1253.516602m. Speed=3.852000m/h.</desc>
<speed>1.070000</speed>
</trkpt>
<trkpt lat="42.901913" lon="19.603550">
<ele>1254.235352</ele>
<time>2012-04-30T12:37:45Z</time>
<desc>lat.=42.901913, lon.=19.603550, Alt.=1254.235352m. Speed=3.456000m/h.</desc>
<speed>0.960000</speed>
</trkpt>
<trkpt lat="42.901810" lon="19.603533">
<ele>1254.454102</ele>
<time>2012-04-30T12:37:50Z</time>
<desc>lat.=42.901810, lon.=19.603533, Alt.=1254.454102m. Speed=3.096000m/h.</desc>
<speed>0.860000</speed>
</trkpt>
<trkpt lat="42.901718" lon="19.603518">
<ele>1254.485352</ele>
<time>2012-04-30T12:37:55Z</time>
<desc>lat.=42.901718, lon.=19.603518, Alt.=1254.485352m. Speed=3.276000m/h.</desc>
<speed>0.910000</speed>
</trkpt>
<trkpt lat="42.901649" lon="19.603525">
<ele>1254.266602</ele>
<time>2012-04-30T12:38:00Z</time>
<desc>lat.=42.901649, lon.=19.603525, Alt.=1254.266602m. Speed=7.164000m/h.</desc>
<speed>1.990000</speed>
</trkpt>
<trkpt lat="42.901600" lon="19.603582">
<ele>1254.047852</ele>
<time>2012-04-30T12:38:05Z</time>
<desc>lat.=42.901600, lon.=19.603582, Alt.=1254.047852m. Speed=3.780000m/h.</desc>
<speed>1.050000</speed>
</trkpt>
<trkpt lat="42.901558" lon="19.603609">
<ele>1256.235352</ele>
<time>2012-04-30T12:38:10Z</time>
<desc>lat.=42.901558, lon.=19.603609, Alt.=1256.235352m. Speed=4.968000m/h.</desc>
<speed>1.380000</speed>
</trkpt>
<trkpt lat="42.901485" lon="19.603662">
<ele>1261.266602</ele>
<time>2012-04-30T12:38:15Z</time>
<desc>lat.=42.901485, lon.=19.603662, Alt.=1261.266602m. Speed=2.160000m/h.</desc>
<speed>0.600000</speed>
</trkpt>
<trkpt lat="42.901485" lon="19.603703">
<ele>1262.329102</ele>
<time>2012-04-30T12:38:20Z</time>
<desc>lat.=42.901485, lon.=19.603703, Alt.=1262.329102m. Speed=0.252000m/h.</desc>
<speed>0.070000</speed>
</trkpt>
<trkpt lat="42.901485" lon="19.603704">
<ele>1262.735352</ele>
<time>2012-04-30T12:38:25Z</time>
<desc>lat.=42.901485, lon.=19.603704, Alt.=1262.735352m. Speed=0.144000m/h.</desc>
<speed>0.040000</speed>
</trkpt>
<trkpt lat="42.901482" lon="19.603704">
<ele>1262.985352</ele>
<time>2012-04-30T12:38:30Z</time>
<desc>lat.=42.901482, lon.=19.603704, Alt.=1262.985352m. Speed=0.036000m/h.</desc>
<speed>0.010000</speed>
</trkpt>
<trkpt lat="42.901482" lon="19.603704">
<ele>1263.079102</ele>
<time>2012-04-30T12:38:35Z</time>
<desc>lat.=42.901482, lon.=19.603704, Alt.=1263.079102m. Speed=0.036000m/h.</desc>
<speed>0.010000</speed>
</trkpt>
<trkpt lat="42.901482" lon="19.603704">
<ele>1263.110352</ele>
<time>2012-04-30T12:38:40Z</time>
<desc>lat.=42.901482, lon.=19.603704, Alt.=1263.110352m. Speed=0.360000m/h.</desc>
<speed>0.100000</speed>
</trkpt>
<trkpt lat="42.901459" lon="19.603754">
<ele>1262.547852</ele>
<time>2012-04-30T12:38:45Z</time>
<desc>lat.=42.901459, lon.=19.603754, Alt.=1262.547852m. Speed=5.112000m/h.</desc>
<speed>1.420000</speed>
</trkpt>
<trkpt lat="42.901409" lon="19.603838">
<ele>1262.204102</ele>
<time>2012-04-30T12:38:50Z</time>
<desc>lat.=42.901409, lon.=19.603838, Alt.=1262.204102m. Speed=4.356000m/h.</desc>
<speed>1.210000</speed>
</trkpt>
<trkpt lat="42.901329" lon="19.603874">
<ele>1262.797852</ele>
<time>2012-04-30T12:38:55Z</time>
<desc>lat.=42.901329, lon.=19.603874, Alt.=1262.797852m. Speed=4.968000m/h.</desc>
<speed>1.380000</speed>
</trkpt>
<trkpt lat="42.901272" lon="19.603937">
<ele>1262.610352</ele>
<time>2012-04-30T12:39:00Z</time>
<desc>lat.=42.901272, lon.=19.603937, Alt.=1262.610352m. Speed=5.616000m/h.</desc>
<speed>1.560000</speed>
</trkpt>
<trkpt lat="42.901207" lon="19.604012">
<ele>1264.266602</ele>
<time>2012-04-30T12:39:05Z</time>
<desc>lat.=42.901207, lon.=19.604012, Alt.=1264.266602m. Speed=5.292000m/h.</desc>
<speed>1.470000</speed>
</trkpt>
<trkpt lat="42.901157" lon="19.604080">
<ele>1265.266602</ele>
<time>2012-04-30T12:39:10Z</time>
<desc>lat.=42.901157, lon.=19.604080, Alt.=1265.266602m. Speed=5.220000m/h.</desc>
<speed>1.450000</speed>
</trkpt>
<trkpt lat="42.901115" lon="19.604139">
<ele>1266.579102</ele>
<time>2012-04-30T12:39:15Z</time>
<desc>lat.=42.901115, lon.=19.604139, Alt.=1266.579102m. Speed=4.284000m/h.</desc>
<speed>1.190000</speed>
</trkpt>
<trkpt lat="42.901062" lon="19.604223">
<ele>1268.704102</ele>
<time>2012-04-30T12:39:20Z</time>
<desc>lat.=42.901062, lon.=19.604223, Alt.=1268.704102m. Speed=5.112000m/h.</desc>
<speed>1.420000</speed>
</trkpt>
<trkpt lat="42.901012" lon="19.604343">
<ele>1270.422852</ele>
<time>2012-04-30T12:39:25Z</time>
<desc>lat.=42.901012, lon.=19.604343, Alt.=1270.422852m. Speed=5.040000m/h.</desc>
<speed>1.400000</speed>
</trkpt>
<trkpt lat="42.900932" lon="19.604467">
<ele>1272.079102</ele>
<time>2012-04-30T12:39:30Z</time>
<desc>lat.=42.900932, lon.=19.604467, Alt.=1272.079102m. Speed=5.724000m/h.</desc>
<speed>1.590000</speed>
</trkpt>
<trkpt lat="42.900887" lon="19.604609">
<ele>1271.141602</ele>
<time>2012-04-30T12:39:35Z</time>
<desc>lat.=42.900887, lon.=19.604609, Alt.=1271.141602m. Speed=6.048000m/h.</desc>
<speed>1.680000</speed>
</trkpt>
<trkpt lat="42.900806" lon="19.604757">
<ele>1269.922852</ele>
<time>2012-04-30T12:39:40Z</time>
<desc>lat.=42.900806, lon.=19.604757, Alt.=1269.922852m. Speed=8.244000m/h.</desc>
<speed>2.290000</speed>
</trkpt>
<trkpt lat="42.900753" lon="19.604900">
<ele>1269.985352</ele>
<time>2012-04-30T12:39:45Z</time>
<desc>lat.=42.900753, lon.=19.604900, Alt.=1269.985352m. Speed=5.004000m/h.</desc>
<speed>1.390000</speed>
</trkpt>
<trkpt lat="42.900688" lon="19.605047">
<ele>1267.954102</ele>
<time>2012-04-30T12:39:50Z</time>
<desc>lat.=42.900688, lon.=19.605047, Alt.=1267.954102m. Speed=4.608000m/h.</desc>
<speed>1.280000</speed>
</trkpt>
<trkpt lat="42.900669" lon="19.605175">
<ele>1267.516602</ele>
<time>2012-04-30T12:39:55Z</time>
<desc>lat.=42.900669, lon.=19.605175, Alt.=1267.516602m. Speed=5.472000m/h.</desc>
<speed>1.520000</speed>
</trkpt>
<trkpt lat="42.900620" lon="19.605345">
<ele>1266.454102</ele>
<time>2012-04-30T12:40:00Z</time>
<desc>lat.=42.900620, lon.=19.605345, Alt.=1266.454102m. Speed=6.660000m/h.</desc>
<speed>1.850000</speed>
</trkpt>
<trkpt lat="42.900558" lon="19.605459">
<ele>1266.954102</ele>
<time>2012-04-30T12:40:05Z</time>
<desc>lat.=42.900558, lon.=19.605459, Alt.=1266.954102m. Speed=5.940000m/h.</desc>
<speed>1.650000</speed>
</trkpt>
<trkpt lat="42.900482" lon="19.605577">
<ele>1267.547852</ele>
<time>2012-04-30T12:40:10Z</time>
<desc>lat.=42.900482, lon.=19.605577, Alt.=1267.547852m. Speed=5.832000m/h.</desc>
<speed>1.620000</speed>
</trkpt>
<trkpt lat="42.900448" lon="19.605650">
<ele>1267.047852</ele>
<time>2012-04-30T12:40:15Z</time>
<desc>lat.=42.900448, lon.=19.605650, Alt.=1267.047852m. Speed=3.780000m/h.</desc>
<speed>1.050000</speed>
</trkpt>
<trkpt lat="42.900410" lon="19.605728">
<ele>1266.860352</ele>
<time>2012-04-30T12:40:20Z</time>
<desc>lat.=42.900410, lon.=19.605728, Alt.=1266.860352m. Speed=3.672000m/h.</desc>
<speed>1.020000</speed>
</trkpt>
<trkpt lat="42.900398" lon="19.605833">
<ele>1268.579102</ele>
<time>2012-04-30T12:40:25Z</time>
<desc>lat.=42.900398, lon.=19.605833, Alt.=1268.579102m. Speed=5.472000m/h.</desc>
<speed>1.520000</speed>
</trkpt>
<trkpt lat="42.900402" lon="19.606012">
<ele>1267.735352</ele>
<time>2012-04-30T12:40:30Z</time>
<desc>lat.=42.900402, lon.=19.606012, Alt.=1267.735352m. Speed=4.284000m/h.</desc>
<speed>1.190000</speed>
</trkpt>
<trkpt lat="42.900402" lon="19.606106">
<ele>1266.922852</ele>
<time>2012-04-30T12:40:35Z</time>
<desc>lat.=42.900402, lon.=19.606106, Alt.=1266.922852m. Speed=4.716000m/h.</desc>
<speed>1.310000</speed>
</trkpt>
<trkpt lat="42.900402" lon="19.606199">
<ele>1265.860352</ele>
<time>2012-04-30T12:40:40Z</time>
<desc>lat.=42.900402, lon.=19.606199, Alt.=1265.860352m. Speed=5.040000m/h.</desc>
<speed>1.400000</speed>
</trkpt>
<trkpt lat="42.900433" lon="19.606285">
<ele>1265.829102</ele>
<time>2012-04-30T12:40:45Z</time>
<desc>lat.=42.900433, lon.=19.606285, Alt.=1265.829102m. Speed=3.924000m/h.</desc>
<speed>1.090000</speed>
</trkpt>
<trkpt lat="42.900425" lon="19.606337">
<ele>1266.079102</ele>
<time>2012-04-30T12:40:50Z</time>
<desc>lat.=42.900425, lon.=19.606337, Alt.=1266.079102m. Speed=1.512000m/h.</desc>
<speed>0.420000</speed>
</trkpt>
<trkpt lat="42.900436" lon="19.606483">
<ele>1266.860352</ele>
<time>2012-04-30T12:40:55Z</time>
<desc>lat.=42.900436, lon.=19.606483, Alt.=1266.860352m. Speed=4.032000m/h.</desc>
<speed>1.120000</speed>
</trkpt>
<trkpt lat="42.900471" lon="19.606577">
<ele>1265.985352</ele>
<time>2012-04-30T12:41:00Z</time>
<desc>lat.=42.900471, lon.=19.606577, Alt.=1265.985352m. Speed=2.592000m/h.</desc>
<speed>0.720000</speed>
</trkpt>
<trkpt lat="42.900398" lon="19.606569">
<ele>1267.610352</ele>
<time>2012-04-30T12:41:05Z</time>
<desc>lat.=42.900398, lon.=19.606569, Alt.=1267.610352m. Speed=4.968000m/h.</desc>
<speed>1.380000</speed>
</trkpt>
<trkpt lat="42.900349" lon="19.606562">
<ele>1269.110352</ele>
<time>2012-04-30T12:41:10Z</time>
<desc>lat.=42.900349, lon.=19.606562, Alt.=1269.110352m. Speed=4.500000m/h.</desc>
<speed>1.250000</speed>
</trkpt>
<trkpt lat="42.900276" lon="19.606529">
<ele>1270.016602</ele>
<time>2012-04-30T12:41:15Z</time>
<desc>lat.=42.900276, lon.=19.606529, Alt.=1270.016602m. Speed=5.796000m/h.</desc>
<speed>1.610000</speed>
</trkpt>
<trkpt lat="42.900177" lon="19.606506">
<ele>1271.641602</ele>
<time>2012-04-30T12:41:20Z</time>
<desc>lat.=42.900177, lon.=19.606506, Alt.=1271.641602m. Speed=2.664000m/h.</desc>
<speed>0.740000</speed>
</trkpt>
<trkpt lat="42.900131" lon="19.606535">
<ele>1271.391602</ele>
<time>2012-04-30T12:41:25Z</time>
<desc>lat.=42.900131, lon.=19.606535, Alt.=1271.391602m. Speed=4.068000m/h.</desc>
<speed>1.130000</speed>
</trkpt>
<trkpt lat="42.900085" lon="19.606583">
<ele>1272.485352</ele>
<time>2012-04-30T12:41:30Z</time>
<desc>lat.=42.900085, lon.=19.606583, Alt.=1272.485352m. Speed=3.888000m/h.</desc>
<speed>1.080000</speed>
</trkpt>
<trkpt lat="42.900036" lon="19.606646">
<ele>1273.235352</ele>
<time>2012-04-30T12:41:35Z</time>
<desc>lat.=42.900036, lon.=19.606646, Alt.=1273.235352m. Speed=4.464000m/h.</desc>
<speed>1.240000</speed>
</trkpt>
<trkpt lat="42.899952" lon="19.606718">
<ele>1274.704102</ele>
<time>2012-04-30T12:41:40Z</time>
<desc>lat.=42.899952, lon.=19.606718, Alt.=1274.704102m. Speed=4.248000m/h.</desc>
<speed>1.180000</speed>
</trkpt>
<trkpt lat="42.899864" lon="19.606771">
<ele>1277.079102</ele>
<time>2012-04-30T12:41:45Z</time>
<desc>lat.=42.899864, lon.=19.606771, Alt.=1277.079102m. Speed=3.636000m/h.</desc>
<speed>1.010000</speed>
</trkpt>
<trkpt lat="42.899818" lon="19.606836">
<ele>1278.360352</ele>
<time>2012-04-30T12:41:50Z</time>
<desc>lat.=42.899818, lon.=19.606836, Alt.=1278.360352m. Speed=3.456000m/h.</desc>
<speed>0.960000</speed>
</trkpt>
<trkpt lat="42.899742" lon="19.606930">
<ele>1280.579102</ele>
<time>2012-04-30T12:41:55Z</time>
<desc>lat.=42.899742, lon.=19.606930, Alt.=1280.579102m. Speed=4.896000m/h.</desc>
<speed>1.360000</speed>
</trkpt>
<trkpt lat="42.899712" lon="19.607000">
<ele>1281.860352</ele>
<time>2012-04-30T12:42:00Z</time>
<desc>lat.=42.899712, lon.=19.607000, Alt.=1281.860352m. Speed=1.656000m/h.</desc>
<speed>0.460000</speed>
</trkpt>
<trkpt lat="42.899632" lon="19.607086">
<ele>1282.985352</ele>
<time>2012-04-30T12:42:05Z</time>
<desc>lat.=42.899632, lon.=19.607086, Alt.=1282.985352m. Speed=4.428000m/h.</desc>
<speed>1.230000</speed>
</trkpt>
<trkpt lat="42.899570" lon="19.607193">
<ele>1283.610352</ele>
<time>2012-04-30T12:42:10Z</time>
<desc>lat.=42.899570, lon.=19.607193, Alt.=1283.610352m. Speed=4.644000m/h.</desc>
<speed>1.290000</speed>
</trkpt>
<trkpt lat="42.899529" lon="19.607290">
<ele>1283.641602</ele>
<time>2012-04-30T12:42:15Z</time>
<desc>lat.=42.899529, lon.=19.607290, Alt.=1283.641602m. Speed=8.316000m/h.</desc>
<speed>2.310000</speed>
</trkpt>
<trkpt lat="42.899490" lon="19.607359">
<ele>1284.922852</ele>
<time>2012-04-30T12:42:20Z</time>
<desc>lat.=42.899490, lon.=19.607359, Alt.=1284.922852m. Speed=4.032000m/h.</desc>
<speed>1.120000</speed>
</trkpt>
<trkpt lat="42.899456" lon="19.607464">
<ele>1284.672852</ele>
<time>2012-04-30T12:42:25Z</time>
<desc>lat.=42.899456, lon.=19.607464, Alt.=1284.672852m. Speed=5.004000m/h.</desc>
<speed>1.390000</speed>
</trkpt>
<trkpt lat="42.899395" lon="19.607548">
<ele>1286.797852</ele>
<time>2012-04-30T12:42:30Z</time>
<desc>lat.=42.899395, lon.=19.607548, Alt.=1286.797852m. Speed=3.240000m/h.</desc>
<speed>0.900000</speed>
</trkpt>
<trkpt lat="42.899384" lon="19.607655">
<ele>1288.579102</ele>
<time>2012-04-30T12:42:35Z</time>
<desc>lat.=42.899384, lon.=19.607655, Alt.=1288.579102m. Speed=5.400000m/h.</desc>
<speed>1.500000</speed>
</trkpt>
<trkpt lat="42.899345" lon="19.607761">
<ele>1288.297852</ele>
<time>2012-04-30T12:42:40Z</time>
<desc>lat.=42.899345, lon.=19.607761, Alt.=1288.297852m. Speed=5.328000m/h.</desc>
<speed>1.480000</speed>
</trkpt>
<trkpt lat="42.899315" lon="19.607880">
<ele>1287.766602</ele>
<time>2012-04-30T12:42:45Z</time>
<desc>lat.=42.899315, lon.=19.607880, Alt.=1287.766602m. Speed=4.788000m/h.</desc>
<speed>1.330000</speed>
</trkpt>
<trkpt lat="42.899311" lon="19.608030">
<ele>1290.047852</ele>
<time>2012-04-30T12:42:50Z</time>
<desc>lat.=42.899311, lon.=19.608030, Alt.=1290.047852m. Speed=6.192000m/h.</desc>
<speed>1.720000</speed>
</trkpt>
<trkpt lat="42.899303" lon="19.608130">
<ele>1292.516602</ele>
<time>2012-04-30T12:42:55Z</time>
<desc>lat.=42.899303, lon.=19.608130, Alt.=1292.516602m. Speed=2.880000m/h.</desc>
<speed>0.800000</speed>
</trkpt>
<trkpt lat="42.899281" lon="19.608196">
<ele>1295.047852</ele>
<time>2012-04-30T12:43:00Z</time>
<desc>lat.=42.899281, lon.=19.608196, Alt.=1295.047852m. Speed=2.268000m/h.</desc>
<speed>0.630000</speed>
</trkpt>
<trkpt lat="42.899265" lon="19.608276">
<ele>1295.954102</ele>
<time>2012-04-30T12:43:05Z</time>
<desc>lat.=42.899265, lon.=19.608276, Alt.=1295.954102m. Speed=4.104000m/h.</desc>
<speed>1.140000</speed>
</trkpt>
<trkpt lat="42.899239" lon="19.608374">
<ele>1296.172852</ele>
<time>2012-04-30T12:43:10Z</time>
<desc>lat.=42.899239, lon.=19.608374, Alt.=1296.172852m. Speed=4.140000m/h.</desc>
<speed>1.150000</speed>
</trkpt>
<trkpt lat="42.899197" lon="19.608498">
<ele>1296.860352</ele>
<time>2012-04-30T12:43:15Z</time>
<desc>lat.=42.899197, lon.=19.608498, Alt.=1296.860352m. Speed=4.212000m/h.</desc>
<speed>1.170000</speed>
</trkpt>
<trkpt lat="42.899181" lon="19.608566">
<ele>1297.079102</ele>
<time>2012-04-30T12:43:20Z</time>
<desc>lat.=42.899181, lon.=19.608566, Alt.=1297.079102m. Speed=3.888000m/h.</desc>
<speed>1.080000</speed>
</trkpt>
<trkpt lat="42.899158" lon="19.608675">
<ele>1298.297852</ele>
<time>2012-04-30T12:43:25Z</time>
<desc>lat.=42.899158, lon.=19.608675, Alt.=1298.297852m. Speed=4.320000m/h.</desc>
<speed>1.200000</speed>
</trkpt>
<trkpt lat="42.899139" lon="19.608698">
<ele>1299.547852</ele>
<time>2012-04-30T12:43:30Z</time>
<desc>lat.=42.899139, lon.=19.608698, Alt.=1299.547852m. Speed=2.484000m/h.</desc>
<speed>0.690000</speed>
</trkpt>
<trkpt lat="42.899082" lon="19.608746">
<ele>1299.610352</ele>
<time>2012-04-30T12:43:35Z</time>
<desc>lat.=42.899082, lon.=19.608746, Alt.=1299.610352m. Speed=4.176000m/h.</desc>
<speed>1.160000</speed>
</trkpt>
<trkpt lat="42.899006" lon="19.608868">
<ele>1299.141602</ele>
<time>2012-04-30T12:43:40Z</time>
<desc>lat.=42.899006, lon.=19.608868, Alt.=1299.141602m. Speed=5.040000m/h.</desc>
<speed>1.400000</speed>
</trkpt>
<trkpt lat="42.898987" lon="19.608932">
<ele>1300.641602</ele>
<time>2012-04-30T12:43:45Z</time>
<desc>lat.=42.898987, lon.=19.608932, Alt.=1300.641602m. Speed=2.268000m/h.</desc>
<speed>0.630000</speed>
</trkpt>
<trkpt lat="42.898945" lon="19.609047">
<ele>1301.735352</ele>
<time>2012-04-30T12:43:50Z</time>
<desc>lat.=42.898945, lon.=19.609047, Alt.=1301.735352m. Speed=4.752000m/h.</desc>
<speed>1.320000</speed>
</trkpt>
<trkpt lat="42.898918" lon="19.609138">
<ele>1300.610352</ele>
<time>2012-04-30T12:43:55Z</time>
<desc>lat.=42.898918, lon.=19.609138, Alt.=1300.610352m. Speed=5.724000m/h.</desc>
<speed>1.590000</speed>
</trkpt>
<trkpt lat="42.898869" lon="19.609213">
<ele>1301.204102</ele>
<time>2012-04-30T12:44:00Z</time>
<desc>lat.=42.898869, lon.=19.609213, Alt.=1301.204102m. Speed=4.536000m/h.</desc>
<speed>1.260000</speed>
</trkpt>
<trkpt lat="42.898834" lon="19.609285">
<ele>1301.079102</ele>
<time>2012-04-30T12:44:05Z</time>
<desc>lat.=42.898834, lon.=19.609285, Alt.=1301.079102m. Speed=2.124000m/h.</desc>
<speed>0.590000</speed>
</trkpt>
<trkpt lat="42.898781" lon="19.609379">
<ele>1300.797852</ele>
<time>2012-04-30T12:44:10Z</time>
<desc>lat.=42.898781, lon.=19.609379, Alt.=1300.797852m. Speed=4.788000m/h.</desc>
<speed>1.330000</speed>
</trkpt>
<trkpt lat="42.898716" lon="19.609447">
<ele>1300.485352</ele>
<time>2012-04-30T12:44:15Z</time>
<desc>lat.=42.898716, lon.=19.609447, Alt.=1300.485352m. Speed=3.924000m/h.</desc>
<speed>1.090000</speed>
</trkpt>
<trkpt lat="42.898685" lon="19.609507">
<ele>1301.985352</ele>
<time>2012-04-30T12:44:20Z</time>
<desc>lat.=42.898685, lon.=19.609507, Alt.=1301.985352m. Speed=2.952000m/h.</desc>
<speed>0.820000</speed>
</trkpt>
<trkpt lat="42.898712" lon="19.609554">
<ele>1302.016602</ele>
<time>2012-04-30T12:44:25Z</time>
<desc>lat.=42.898712, lon.=19.609554, Alt.=1302.016602m. Speed=3.420000m/h.</desc>
<speed>0.950000</speed>
</trkpt>
<trkpt lat="42.898724" lon="19.609589">
<ele>1303.547852</ele>
<time>2012-04-30T12:44:30Z</time>
<desc>lat.=42.898724, lon.=19.609589, Alt.=1303.547852m. Speed=0.936000m/h.</desc>
<speed>0.260000</speed>
</trkpt>
<trkpt lat="42.898735" lon="19.609604">
<ele>1304.516602</ele>
<time>2012-04-30T12:44:35Z</time>
<desc>lat.=42.898735, lon.=19.609604, Alt.=1304.516602m. Speed=0.540000m/h.</desc>
<speed>0.150000</speed>
</trkpt>
<trkpt lat="42.898739" lon="19.609610">
<ele>1304.704102</ele>
<time>2012-04-30T12:44:40Z</time>
<desc>lat.=42.898739, lon.=19.609610, Alt.=1304.704102m. Speed=0.036000m/h.</desc>
<speed>0.010000</speed>
</trkpt>
<trkpt lat="42.898739" lon="19.609610">
<ele>1304.766602</ele>
<time>2012-04-30T12:44:45Z</time>
<desc>lat.=42.898739, lon.=19.609610, Alt.=1304.766602m. Speed=0.288000m/h.</desc>
<speed>0.080000</speed>
</trkpt>
<trkpt lat="42.898743" lon="19.609610">
<ele>1304.735352</ele>
<time>2012-04-30T12:44:50Z</time>
<desc>lat.=42.898743, lon.=19.609610, Alt.=1304.735352m. Speed=0.648000m/h.</desc>
<speed>0.180000</speed>
</trkpt>
<trkpt lat="42.898746" lon="19.609606">
<ele>1304.735352</ele>
<time>2012-04-30T12:44:55Z</time>
<desc>lat.=42.898746, lon.=19.609606, Alt.=1304.735352m. Speed=0.576000m/h.</desc>
<speed>0.160000</speed>
</trkpt>
<trkpt lat="42.898746" lon="19.609602">
<ele>1304.735352</ele>
<time>2012-04-30T12:45:00Z</time>
<desc>lat.=42.898746, lon.=19.609602, Alt.=1304.735352m. Speed=0.288000m/h.</desc>
<speed>0.080000</speed>
</trkpt>
<trkpt lat="42.898746" lon="19.609610">
<ele>1304.672852</ele>
<time>2012-04-30T12:45:05Z</time>
<desc>lat.=42.898746, lon.=19.609610, Alt.=1304.672852m. Speed=0.936000m/h.</desc>
<speed>0.260000</speed>
</trkpt>
<trkpt lat="42.898743" lon="19.609619">
<ele>1304.547852</ele>
<time>2012-04-30T12:45:10Z</time>
<desc>lat.=42.898743, lon.=19.609619, Alt.=1304.547852m. Speed=0.504000m/h.</desc>
<speed>0.140000</speed>
</trkpt>
<trkpt lat="42.898743" lon="19.609625">
<ele>1304.454102</ele>
<time>2012-04-30T12:45:15Z</time>
<desc>lat.=42.898743, lon.=19.609625, Alt.=1304.454102m. Speed=0.216000m/h.</desc>
<speed>0.060000</speed>
</trkpt>
<trkpt lat="42.898739" lon="19.609623">
<ele>1304.391602</ele>
<time>2012-04-30T12:45:20Z</time>
<desc>lat.=42.898739, lon.=19.609623, Alt.=1304.391602m. Speed=0.288000m/h.</desc>
<speed>0.080000</speed>
</trkpt>
<trkpt lat="42.898743" lon="19.609627">
<ele>1304.360352</ele>
<time>2012-04-30T12:45:25Z</time>
<desc>lat.=42.898743, lon.=19.609627, Alt.=1304.360352m. Speed=0.504000m/h.</desc>
<speed>0.140000</speed>
</trkpt>
<trkpt lat="42.898754" lon="19.609627">
<ele>1304.329102</ele>
<time>2012-04-30T12:45:30Z</time>
<desc>lat.=42.898754, lon.=19.609627, Alt.=1304.329102m. Speed=0.684000m/h.</desc>
<speed>0.190000</speed>
</trkpt>
<trkpt lat="42.898762" lon="19.609629">
<ele>1304.297852</ele>
<time>2012-04-30T12:45:35Z</time>
<desc>lat.=42.898762, lon.=19.609629, Alt.=1304.297852m. Speed=0.324000m/h.</desc>
<speed>0.090000</speed>
</trkpt>
<trkpt lat="42.898769" lon="19.609629">
<ele>1304.329102</ele>
<time>2012-04-30T12:45:40Z</time>
<desc>lat.=42.898769, lon.=19.609629, Alt.=1304.329102m. Speed=0.396000m/h.</desc>
<speed>0.110000</speed>
</trkpt>
<trkpt lat="42.898769" lon="19.609623">
<ele>1304.454102</ele>
<time>2012-04-30T12:45:45Z</time>
<desc>lat.=42.898769, lon.=19.609623, Alt.=1304.454102m. Speed=0.648000m/h.</desc>
<speed>0.180000</speed>
</trkpt>
<trkpt lat="42.898769" lon="19.609619">
<ele>1304.516602</ele>
<time>2012-04-30T12:45:50Z</time>
<desc>lat.=42.898769, lon.=19.609619, Alt.=1304.516602m. Speed=0.144000m/h.</desc>
<speed>0.040000</speed>
</trkpt>
<trkpt lat="42.898766" lon="19.609617">
<ele>1304.610352</ele>
<time>2012-04-30T12:45:55Z</time>
<desc>lat.=42.898766, lon.=19.609617, Alt.=1304.610352m. Speed=0.108000m/h.</desc>
<speed>0.030000</speed>
</trkpt>
<trkpt lat="42.898769" lon="19.609617">
<ele>1304.672852</ele>
<time>2012-04-30T12:46:00Z</time>
<desc>lat.=42.898769, lon.=19.609617, Alt.=1304.672852m. Speed=0.288000m/h.</desc>
<speed>0.080000</speed>
</trkpt>
<trkpt lat="42.898769" lon="19.609619">
<ele>1304.704102</ele>
<time>2012-04-30T12:46:05Z</time>
<desc>lat.=42.898769, lon.=19.609619, Alt.=1304.704102m. Speed=0.036000m/h.</desc>
<speed>0.010000</speed>
</trkpt>
<trkpt lat="42.898769" lon="19.609621">
<ele>1304.735352</ele>
<time>2012-04-30T12:46:10Z</time>
<desc>lat.=42.898769, lon.=19.609621, Alt.=1304.735352m. Speed=0.036000m/h.</desc>
<speed>0.010000</speed>
</trkpt>
<trkpt lat="42.898769" lon="19.609617">
<ele>1304.735352</ele>
<time>2012-04-30T12:46:15Z</time>
<desc>lat.=42.898769, lon.=19.609617, Alt.=1304.735352m. Speed=0.396000m/h.</desc>
<speed>0.110000</speed>
</trkpt>
<trkpt lat="42.898769" lon="19.609612">
<ele>1304.672852</ele>
<time>2012-04-30T12:46:20Z</time>
<desc>lat.=42.898769, lon.=19.609612, Alt.=1304.672852m. Speed=0.360000m/h.</desc>
<speed>0.100000</speed>
</trkpt>
<trkpt lat="42.898769" lon="19.609608">
<ele>1304.672852</ele>
<time>2012-04-30T12:46:25Z</time>
<desc>lat.=42.898769, lon.=19.609608, Alt.=1304.672852m. Speed=0.396000m/h.</desc>
<speed>0.110000</speed>
</trkpt>
<trkpt lat="42.898773" lon="19.609604">
<ele>1304.704102</ele>
<time>2012-04-30T12:46:30Z</time>
<desc>lat.=42.898773, lon.=19.609604, Alt.=1304.704102m. Speed=0.324000m/h.</desc>
<speed>0.090000</speed>
</trkpt>
<trkpt lat="42.898777" lon="19.609608">
<ele>1304.735352</ele>
<time>2012-04-30T12:46:35Z</time>
<desc>lat.=42.898777, lon.=19.609608, Alt.=1304.735352m. Speed=0.324000m/h.</desc>
<speed>0.090000</speed>
</trkpt>
<trkpt lat="42.898777" lon="19.609610">
<ele>1304.797852</ele>
<time>2012-04-30T12:46:40Z</time>
<desc>lat.=42.898777, lon.=19.609610, Alt.=1304.797852m. Speed=0.180000m/h.</desc>
<speed>0.050000</speed>
</trkpt>
<trkpt lat="42.898781" lon="19.609610">
<ele>1304.829102</ele>
<time>2012-04-30T12:46:45Z</time>
<desc>lat.=42.898781, lon.=19.609610, Alt.=1304.829102m. Speed=0.144000m/h.</desc>
<speed>0.040000</speed>
</trkpt>
<trkpt lat="42.898781" lon="19.609608">
<ele>1304.860352</ele>
<time>2012-04-30T12:46:50Z</time>
<desc>lat.=42.898781, lon.=19.609608, Alt.=1304.860352m. Speed=0.072000m/h.</desc>
<speed>0.020000</speed>
</trkpt>
<trkpt lat="42.898781" lon="19.609610">
<ele>1304.829102</ele>
<time>2012-04-30T12:46:55Z</time>
<desc>lat.=42.898781, lon.=19.609610, Alt.=1304.829102m. Speed=0.144000m/h.</desc>
<speed>0.040000</speed>
</trkpt>
<trkpt lat="42.898781" lon="19.609610">
<ele>1304.797852</ele>
<time>2012-04-30T12:47:00Z</time>
<desc>lat.=42.898781, lon.=19.609610, Alt.=1304.797852m. Speed=0.072000m/h.</desc>
<speed>0.020000</speed>
</trkpt>
<trkpt lat="42.898781" lon="19.609612">
<ele>1304.766602</ele>
<time>2012-04-30T12:47:05Z</time>
<desc>lat.=42.898781, lon.=19.609612, Alt.=1304.766602m. Speed=0.144000m/h.</desc>
<speed>0.040000</speed>
</trkpt>
<trkpt lat="42.898781" lon="19.609613">
<ele>1304.735352</ele>
<time>2012-04-30T12:47:10Z</time>
<desc>lat.=42.898781, lon.=19.609613, Alt.=1304.735352m. Speed=0.108000m/h.</desc>
<speed>0.030000</speed>
</trkpt>
<trkpt lat="42.898781" lon="19.609613">
<ele>1304.735352</ele>
<time>2012-04-30T12:47:15Z</time>
<desc>lat.=42.898781, lon.=19.609613, Alt.=1304.735352m. Speed=0.072000m/h.</desc>
<speed>0.020000</speed>
</trkpt>
<trkpt lat="42.898781" lon="19.609613">
<ele>1304.766602</ele>
<time>2012-04-30T12:47:20Z</time>
<desc>lat.=42.898781, lon.=19.609613, Alt.=1304.766602m. Speed=0.000000m/h.</desc>
<speed>0.000000</speed>
</trkpt>
<trkpt lat="42.898781" lon="19.609613">
<ele>1304.797852</ele>
<time>2012-04-30T12:47:25Z</time>
<desc>lat.=42.898781, lon.=19.609613, Alt.=1304.797852m. Speed=0.036000m/h.</desc>
<speed>0.010000</speed>
</trkpt>
<trkpt lat="42.898781" lon="19.609613">
<ele>1304.829102</ele>
<time>2012-04-30T12:47:30Z</time>
<desc>lat.=42.898781, lon.=19.609613, Alt.=1304.829102m. Speed=0.072000m/h.</desc>
<speed>0.020000</speed>
</trkpt>
<trkpt lat="42.898781" lon="19.609612">
<ele>1304.891602</ele>
<time>2012-04-30T12:47:35Z</time>
<desc>lat.=42.898781, lon.=19.609612, Alt.=1304.891602m. Speed=0.072000m/h.</desc>
<speed>0.020000</speed>
</trkpt>
<trkpt lat="42.898781" lon="19.609612">
<ele>1304.954102</ele>
<time>2012-04-30T12:47:40Z</time>
<desc>lat.=42.898781, lon.=19.609612, Alt.=1304.954102m. Speed=0.000000m/h.</desc>
<speed>0.000000</speed>
</trkpt>
<trkpt lat="42.898781" lon="19.609612">
<ele>1304.985352</ele>
<time>2012-04-30T12:47:45Z</time>
<desc>lat.=42.898781, lon.=19.609612, Alt.=1304.985352m. Speed=0.072000m/h.</desc>
<speed>0.020000</speed>
</trkpt>
<trkpt lat="42.898781" lon="19.609612">
<ele>1304.985352</ele>
<time>2012-04-30T12:47:50Z</time>
<desc>lat.=42.898781, lon.=19.609612, Alt.=1304.985352m. Speed=0.000000m/h.</desc>
<speed>0.000000</speed>
</trkpt>
<trkpt lat="42.898781" lon="19.609612">
<ele>1305.047852</ele>
<time>2012-04-30T12:47:55Z</time>
<desc>lat.=42.898781, lon.=19.609612, Alt.=1305.047852m. Speed=0.036000m/h.</desc>
<speed>0.010000</speed>
</trkpt>
<trkpt lat="42.898781" lon="19.609612">
<ele>1305.141602</ele>
<time>2012-04-30T12:48:00Z</time>
<desc>lat.=42.898781, lon.=19.609612, Alt.=1305.141602m. Speed=0.072000m/h.</desc>
<speed>0.020000</speed>
</trkpt>
<trkpt lat="42.898781" lon="19.609610">
<ele>1305.329102</ele>
<time>2012-04-30T12:48:05Z</time>
<desc>lat.=42.898781, lon.=19.609610, Alt.=1305.329102m. Speed=0.036000m/h.</desc>
<speed>0.010000</speed>
</trkpt>
<trkpt lat="42.898785" lon="19.609610">
<ele>1305.422852</ele>
<time>2012-04-30T12:48:10Z</time>
<desc>lat.=42.898785, lon.=19.609610, Alt.=1305.422852m. Speed=0.072000m/h.</desc>
<speed>0.020000</speed>
</trkpt>
<trkpt lat="42.898785" lon="19.609610">
<ele>1305.391602</ele>
<time>2012-04-30T12:48:15Z</time>
<desc>lat.=42.898785, lon.=19.609610, Alt.=1305.391602m. Speed=0.108000m/h.</desc>
<speed>0.030000</speed>
</trkpt>
<trkpt lat="42.898785" lon="19.609612">
<ele>1305.391602</ele>
<time>2012-04-30T12:48:20Z</time>
<desc>lat.=42.898785, lon.=19.609612, Alt.=1305.391602m. Speed=0.072000m/h.</desc>
<speed>0.020000</speed>
</trkpt>
<trkpt lat="42.898788" lon="19.609613">
<ele>1305.391602</ele>
<time>2012-04-30T12:48:25Z</time>
<desc>lat.=42.898788, lon.=19.609613, Alt.=1305.391602m. Speed=0.108000m/h.</desc>
<speed>0.030000</speed>
</trkpt>
<trkpt lat="42.898788" lon="19.609613">
<ele>1305.391602</ele>
<time>2012-04-30T12:48:30Z</time>
<desc>lat.=42.898788, lon.=19.609613, Alt.=1305.391602m. Speed=0.036000m/h.</desc>
<speed>0.010000</speed>
</trkpt>
<trkpt lat="42.898788" lon="19.609613">
<ele>1305.454102</ele>
<time>2012-04-30T12:48:35Z</time>
<desc>lat.=42.898788, lon.=19.609613, Alt.=1305.454102m. Speed=0.072000m/h.</desc>
<speed>0.020000</speed>
</trkpt>
<trkpt lat="42.898788" lon="19.609615">
<ele>1305.485352</ele>
<time>2012-04-30T12:48:40Z</time>
<desc>lat.=42.898788, lon.=19.609615, Alt.=1305.485352m. Speed=0.072000m/h.</desc>
<speed>0.020000</speed>
</trkpt>
<trkpt lat="42.898788" lon="19.609615">
<ele>1305.547852</ele>
<time>2012-04-30T12:48:45Z</time>
<desc>lat.=42.898788, lon.=19.609615, Alt.=1305.547852m. Speed=0.000000m/h.</desc>
<speed>0.000000</speed>
</trkpt>
<trkpt lat="42.898788" lon="19.609615">
<ele>1305.610352</ele>
<time>2012-04-30T12:48:50Z</time>
<desc>lat.=42.898788, lon.=19.609615, Alt.=1305.610352m. Speed=0.036000m/h.</desc>
<speed>0.010000</speed>
</trkpt>
<trkpt lat="42.898788" lon="19.609615">
<ele>1305.704102</ele>
<time>2012-04-30T12:48:55Z</time>
<desc>lat.=42.898788, lon.=19.609615, Alt.=1305.704102m. Speed=0.000000m/h.</desc>
<speed>0.000000</speed>
</trkpt>
<trkpt lat="42.898788" lon="19.609615">
<ele>1305.829102</ele>
<time>2012-04-30T12:49:00Z</time>
<desc>lat.=42.898788, lon.=19.609615, Alt.=1305.829102m. Speed=0.072000m/h.</desc>
<speed>0.020000</speed>
</trkpt>
<trkpt lat="42.898773" lon="19.609617">
<ele>1307.735352</ele>
<time>2012-04-30T12:49:05Z</time>
<desc>lat.=42.898773, lon.=19.609617, Alt.=1307.735352m. Speed=0.000000m/h.</desc>
<speed>0.000000</speed>
</trkpt>
<trkpt lat="42.898773" lon="19.609617">
<ele>1307.860352</ele>
<time>2012-04-30T12:49:10Z</time>
<desc>lat.=42.898773, lon.=19.609617, Alt.=1307.860352m. Speed=0.036000m/h.</desc>
<speed>0.010000</speed>
</trkpt>
<trkpt lat="42.898773" lon="19.609617">
<ele>1307.954102</ele>
<time>2012-04-30T12:49:15Z</time>
<desc>lat.=42.898773, lon.=19.609617, Alt.=1307.954102m. Speed=0.036000m/h.</desc>
<speed>0.010000</speed>
</trkpt>
<trkpt lat="42.898773" lon="19.609619">
<ele>1307.985352</ele>
<time>2012-04-30T12:49:20Z</time>
<desc>lat.=42.898773, lon.=19.609619, Alt.=1307.985352m. Speed=0.072000m/h.</desc>
<speed>0.020000</speed>
</trkpt>
<trkpt lat="42.898773" lon="19.609619">
<ele>1308.016602</ele>
<time>2012-04-30T12:49:25Z</time>
<desc>lat.=42.898773, lon.=19.609619, Alt.=1308.016602m. Speed=0.036000m/h.</desc>
<speed>0.010000</speed>
</trkpt>
<trkpt lat="42.898773" lon="19.609619">
<ele>1308.016602</ele>
<time>2012-04-30T12:49:30Z</time>
<desc>lat.=42.898773, lon.=19.609619, Alt.=1308.016602m. Speed=0.036000m/h.</desc>
<speed>0.010000</speed>
</trkpt>
<trkpt lat="42.898769" lon="19.609621">
<ele>1308.079102</ele>
<time>2012-04-30T12:49:35Z</time>
<desc>lat.=42.898769, lon.=19.609621, Alt.=1308.079102m. Speed=0.216000m/h.</desc>
<speed>0.060000</speed>
</trkpt>
<trkpt lat="42.898769" lon="19.609621">
<ele>1308.141602</ele>
<time>2012-04-30T12:49:40Z</time>
<desc>lat.=42.898769, lon.=19.609621, Alt.=1308.141602m. Speed=0.000000m/h.</desc>
<speed>0.000000</speed>
</trkpt>
<trkpt lat="42.898769" lon="19.609621">
<ele>1308.172852</ele>
<time>2012-04-30T12:49:45Z</time>
<desc>lat.=42.898769, lon.=19.609621, Alt.=1308.172852m. Speed=0.000000m/h.</desc>
<speed>0.000000</speed>
</trkpt>
<trkpt lat="42.898769" lon="19.609621">
<ele>1308.204102</ele>
<time>2012-04-30T12:49:50Z</time>
<desc>lat.=42.898769, lon.=19.609621, Alt.=1308.204102m. Speed=0.036000m/h.</desc>
<speed>0.010000</speed>
</trkpt>
<trkpt lat="42.898769" lon="19.609623">
<ele>1308.172852</ele>
<time>2012-04-30T12:49:55Z</time>
<desc>lat.=42.898769, lon.=19.609623, Alt.=1308.172852m. Speed=0.108000m/h.</desc>
<speed>0.030000</speed>
</trkpt>
<trkpt lat="42.898769" lon="19.609623">
<ele>1308.172852</ele>
<time>2012-04-30T12:50:00Z</time>
<desc>lat.=42.898769, lon.=19.609623, Alt.=1308.172852m. Speed=0.072000m/h.</desc>
<speed>0.020000</speed>
</trkpt>
<trkpt lat="42.898769" lon="19.609623">
<ele>1308.141602</ele>
<time>2012-04-30T12:50:05Z</time>
<desc>lat.=42.898769, lon.=19.609623, Alt.=1308.141602m. Speed=0.000000m/h.</desc>
<speed>0.000000</speed>
</trkpt>
<trkpt lat="42.898769" lon="19.609625">
<ele>1308.141602</ele>
<time>2012-04-30T12:50:10Z</time>
<desc>lat.=42.898769, lon.=19.609625, Alt.=1308.141602m. Speed=0.180000m/h.</desc>
<speed>0.050000</speed>
</trkpt>
<trkpt lat="42.898769" lon="19.609625">
<ele>1308.329102</ele>
<time>2012-04-30T12:50:15Z</time>
<desc>lat.=42.898769, lon.=19.609625, Alt.=1308.329102m. Speed=0.252000m/h.</desc>
<speed>0.070000</speed>
</trkpt>
<trkpt lat="42.898769" lon="19.609627">
<ele>1308.422852</ele>
<time>2012-04-30T12:50:20Z</time>
<desc>lat.=42.898769, lon.=19.609627, Alt.=1308.422852m. Speed=0.144000m/h.</desc>
<speed>0.040000</speed>
</trkpt>
<trkpt lat="42.898769" lon="19.609627">
<ele>1308.485352</ele>
<time>2012-04-30T12:50:25Z</time>
<desc>lat.=42.898769, lon.=19.609627, Alt.=1308.485352m. Speed=0.144000m/h.</desc>
<speed>0.040000</speed>
</trkpt>
<trkpt lat="42.898769" lon="19.609629">
<ele>1308.516602</ele>
<time>2012-04-30T12:50:30Z</time>
<desc>lat.=42.898769, lon.=19.609629, Alt.=1308.516602m. Speed=0.072000m/h.</desc>
<speed>0.020000</speed>
</trkpt>
<trkpt lat="42.898769" lon="19.609627">
<ele>1308.547852</ele>
<time>2012-04-30T12:50:35Z</time>
<desc>lat.=42.898769, lon.=19.609627, Alt.=1308.547852m. Speed=0.072000m/h.</desc>
<speed>0.020000</speed>
</trkpt>
<trkpt lat="42.898769" lon="19.609627">
<ele>1308.610352</ele>
<time>2012-04-30T12:50:40Z</time>
<desc>lat.=42.898769, lon.=19.609627, Alt.=1308.610352m. Speed=0.036000m/h.</desc>
<speed>0.010000</speed>
</trkpt>
<trkpt lat="42.898769" lon="19.609627">
<ele>1308.641602</ele>
<time>2012-04-30T12:50:45Z</time>
<desc>lat.=42.898769, lon.=19.609627, Alt.=1308.641602m. Speed=0.000000m/h.</desc>
<speed>0.000000</speed>
</trkpt>
<trkpt lat="42.898769" lon="19.609627">
<ele>1308.704102</ele>
<time>2012-04-30T12:50:50Z</time>
<desc>lat.=42.898769, lon.=19.609627, Alt.=1308.704102m. Speed=0.000000m/h.</desc>
<speed>0.000000</speed>
</trkpt>
<trkpt lat="42.898769" lon="19.609627">
<ele>1308.829102</ele>
<time>2012-04-30T12:50:55Z</time>
<desc>lat.=42.898769, lon.=19.609627, Alt.=1308.829102m. Speed=0.036000m/h.</desc>
<speed>0.010000</speed>
</trkpt>
<trkpt lat="42.898769" lon="19.609625">
<ele>1308.891602</ele>
<time>2012-04-30T12:51:00Z</time>
<desc>lat.=42.898769, lon.=19.609625, Alt.=1308.891602m. Speed=0.036000m/h.</desc>
<speed>0.010000</speed>
</trkpt>
<trkpt lat="42.898769" lon="19.609625">
<ele>1308.985352</ele>
<time>2012-04-30T12:51:05Z</time>
<desc>lat.=42.898769, lon.=19.609625, Alt.=1308.985352m. Speed=0.072000m/h.</desc>
<speed>0.020000</speed>
</trkpt>
<trkpt lat="42.898769" lon="19.609623">
<ele>1309.016602</ele>
<time>2012-04-30T12:51:10Z</time>
<desc>lat.=42.898769, lon.=19.609623, Alt.=1309.016602m. Speed=0.108000m/h.</desc>
<speed>0.030000</speed>
</trkpt>
<trkpt lat="42.898769" lon="19.609623">
<ele>1309.079102</ele>
<time>2012-04-30T12:51:15Z</time>
<desc>lat.=42.898769, lon.=19.609623, Alt.=1309.079102m. Speed=0.108000m/h.</desc>
<speed>0.030000</speed>
</trkpt>
<trkpt lat="42.898769" lon="19.609621">
<ele>1309.110352</ele>
<time>2012-04-30T12:51:20Z</time>
<desc>lat.=42.898769, lon.=19.609621, Alt.=1309.110352m. Speed=0.036000m/h.</desc>
<speed>0.010000</speed>
</trkpt>
<trkpt lat="42.898769" lon="19.609619">
<ele>1309.141602</ele>
<time>2012-04-30T12:51:25Z</time>
<desc>lat.=42.898769, lon.=19.609619, Alt.=1309.141602m. Speed=0.216000m/h.</desc>
<speed>0.060000</speed>
</trkpt>
<trkpt lat="42.898769" lon="19.609617">
<ele>1309.110352</ele>
<time>2012-04-30T12:51:30Z</time>
<desc>lat.=42.898769, lon.=19.609617, Alt.=1309.110352m. Speed=0.324000m/h.</desc>
<speed>0.090000</speed>
</trkpt>
<trkpt lat="42.898773" lon="19.609613">
<ele>1309.079102</ele>
<time>2012-04-30T12:51:35Z</time>
<desc>lat.=42.898773, lon.=19.609613, Alt.=1309.079102m. Speed=0.180000m/h.</desc>
<speed>0.050000</speed>
</trkpt>
<trkpt lat="42.898773" lon="19.609613">
<ele>1309.016602</ele>
<time>2012-04-30T12:51:40Z</time>
<desc>lat.=42.898773, lon.=19.609613, Alt.=1309.016602m. Speed=0.072000m/h.</desc>
<speed>0.020000</speed>
</trkpt>
<trkpt lat="42.898773" lon="19.609613">
<ele>1309.016602</ele>
<time>2012-04-30T12:51:45Z</time>
<desc>lat.=42.898773, lon.=19.609613, Alt.=1309.016602m. Speed=0.108000m/h.</desc>
<speed>0.030000</speed>
</trkpt>
<trkpt lat="42.898773" lon="19.609613">
<ele>1308.985352</ele>
<time>2012-04-30T12:51:50Z</time>
<desc>lat.=42.898773, lon.=19.609613, Alt.=1308.985352m. Speed=0.180000m/h.</desc>
<speed>0.050000</speed>
</trkpt>
<trkpt lat="42.898777" lon="19.609612">
<ele>1308.985352</ele>
<time>2012-04-30T12:51:55Z</time>
<desc>lat.=42.898777, lon.=19.609612, Alt.=1308.985352m. Speed=1.116000m/h.</desc>
<speed>0.310000</speed>
</trkpt>
<trkpt lat="42.898808" lon="19.609594">
<ele>1308.954102</ele>
<time>2012-04-30T12:52:00Z</time>
<desc>lat.=42.898808, lon.=19.609594, Alt.=1308.954102m. Speed=2.052000m/h.</desc>
<speed>0.570000</speed>
</trkpt>
<trkpt lat="42.898872" lon="19.609537">
<ele>1308.266602</ele>
<time>2012-04-30T12:52:05Z</time>
<desc>lat.=42.898872, lon.=19.609537, Alt.=1308.266602m. Speed=3.960000m/h.</desc>
<speed>1.100000</speed>
</trkpt>
<trkpt lat="42.898968" lon="19.609461">
<ele>1308.704102</ele>
<time>2012-04-30T12:52:10Z</time>
<desc>lat.=42.898968, lon.=19.609461, Alt.=1308.704102m. Speed=4.392000m/h.</desc>
<speed>1.220000</speed>
</trkpt>
<trkpt lat="42.899002" lon="19.609480">
<ele>1310.141602</ele>
<time>2012-04-30T12:52:15Z</time>
<desc>lat.=42.899002, lon.=19.609480, Alt.=1310.141602m. Speed=1.152000m/h.</desc>
<speed>0.320000</speed>
</trkpt>
<trkpt lat="42.899036" lon="19.609419">
<ele>1309.860352</ele>
<time>2012-04-30T12:52:20Z</time>
<desc>lat.=42.899036, lon.=19.609419, Alt.=1309.860352m. Speed=1.152000m/h.</desc>
<speed>0.320000</speed>
</trkpt>
<trkpt lat="42.899067" lon="19.609434">
<ele>1309.297852</ele>
<time>2012-04-30T12:52:25Z</time>
<desc>lat.=42.899067, lon.=19.609434, Alt.=1309.297852m. Speed=0.360000m/h.</desc>
<speed>0.100000</speed>
</trkpt>
<trkpt lat="42.899082" lon="19.609423">
<ele>1309.360352</ele>
<time>2012-04-30T12:52:30Z</time>
<desc>lat.=42.899082, lon.=19.609423, Alt.=1309.360352m. Speed=0.324000m/h.</desc>
<speed>0.090000</speed>
</trkpt>
<trkpt lat="42.899113" lon="19.609417">
<ele>1309.297852</ele>
<time>2012-04-30T12:52:35Z</time>
<desc>lat.=42.899113, lon.=19.609417, Alt.=1309.297852m. Speed=1.764000m/h.</desc>
<speed>0.490000</speed>
</trkpt>
<trkpt lat="42.899197" lon="19.609335">
<ele>1309.610352</ele>
<time>2012-04-30T12:52:40Z</time>
<desc>lat.=42.899197, lon.=19.609335, Alt.=1309.610352m. Speed=4.608000m/h.</desc>
<speed>1.280000</speed>
</trkpt>
<trkpt lat="42.899292" lon="19.609247">
<ele>1310.360352</ele>
<time>2012-04-30T12:52:45Z</time>
<desc>lat.=42.899292, lon.=19.609247, Alt.=1310.360352m. Speed=3.924000m/h.</desc>
<speed>1.090000</speed>
</trkpt>
<trkpt lat="42.899418" lon="19.609222">
<ele>1313.954102</ele>
<time>2012-04-30T12:52:50Z</time>
<desc>lat.=42.899418, lon.=19.609222, Alt.=1313.954102m. Speed=4.284000m/h.</desc>
<speed>1.190000</speed>
</trkpt>
<trkpt lat="42.899509" lon="19.609236">
<ele>1313.891602</ele>
<time>2012-04-30T12:52:55Z</time>
<desc>lat.=42.899509, lon.=19.609236, Alt.=1313.891602m. Speed=4.500000m/h.</desc>
<speed>1.250000</speed>
</trkpt>
<trkpt lat="42.899593" lon="19.609203">
<ele>1312.204102</ele>
<time>2012-04-30T12:53:00Z</time>
<desc>lat.=42.899593, lon.=19.609203, Alt.=1312.204102m. Speed=4.428000m/h.</desc>
<speed>1.230000</speed>
</trkpt>
<trkpt lat="42.899662" lon="19.609148">
<ele>1311.391602</ele>
<time>2012-04-30T12:53:05Z</time>
<desc>lat.=42.899662, lon.=19.609148, Alt.=1311.391602m. Speed=4.212000m/h.</desc>
<speed>1.170000</speed>
</trkpt>
<trkpt lat="42.899719" lon="19.609125">
<ele>1310.985352</ele>
<time>2012-04-30T12:53:10Z</time>
<desc>lat.=42.899719, lon.=19.609125, Alt.=1310.985352m. Speed=2.376000m/h.</desc>
<speed>0.660000</speed>
</trkpt>
<trkpt lat="42.899757" lon="19.609112">
<ele>1310.485352</ele>
<time>2012-04-30T12:53:15Z</time>
<desc>lat.=42.899757, lon.=19.609112, Alt.=1310.485352m. Speed=1.656000m/h.</desc>
<speed>0.460000</speed>
</trkpt>
<trkpt lat="42.899807" lon="19.609076">
<ele>1310.704102</ele>
<time>2012-04-30T12:53:20Z</time>
<desc>lat.=42.899807, lon.=19.609076, Alt.=1310.704102m. Speed=1.836000m/h.</desc>
<speed>0.510000</speed>
</trkpt>
<trkpt lat="42.899918" lon="19.608984">
<ele>1311.579102</ele>
<time>2012-04-30T12:53:25Z</time>
<desc>lat.=42.899918, lon.=19.608984, Alt.=1311.579102m. Speed=4.968000m/h.</desc>
<speed>1.380000</speed>
</trkpt>
<trkpt lat="42.900043" lon="19.608847">
<ele>1311.860352</ele>
<time>2012-04-30T12:53:30Z</time>
<desc>lat.=42.900043, lon.=19.608847, Alt.=1311.860352m. Speed=8.496000m/h.</desc>
<speed>2.360000</speed>
</trkpt>
<trkpt lat="42.900208" lon="19.608728">
<ele>1314.485352</ele>
<time>2012-04-30T12:53:35Z</time>
<desc>lat.=42.900208, lon.=19.608728, Alt.=1314.485352m. Speed=10.368000m/h.</desc>
<speed>2.880000</speed>
</trkpt>
<trkpt lat="42.900322" lon="19.608498">
<ele>1313.672852</ele>
<time>2012-04-30T12:53:40Z</time>
<desc>lat.=42.900322, lon.=19.608498, Alt.=1313.672852m. Speed=4.572000m/h.</desc>
<speed>1.270000</speed>
</trkpt>
<trkpt lat="42.900356" lon="19.608442">
<ele>1313.797852</ele>
<time>2012-04-30T12:53:45Z</time>
<desc>lat.=42.900356, lon.=19.608442, Alt.=1313.797852m. Speed=2.052000m/h.</desc>
<speed>0.570000</speed>
</trkpt>
<trkpt lat="42.900379" lon="19.608467">
<ele>1313.985352</ele>
<time>2012-04-30T12:53:50Z</time>
<desc>lat.=42.900379, lon.=19.608467, Alt.=1313.985352m. Speed=2.808000m/h.</desc>
<speed>0.780000</speed>
</trkpt>
<trkpt lat="42.900417" lon="19.608469">
<ele>1313.672852</ele>
<time>2012-04-30T12:53:55Z</time>
<desc>lat.=42.900417, lon.=19.608469, Alt.=1313.672852m. Speed=1.404000m/h.</desc>
<speed>0.390000</speed>
</trkpt>
<trkpt lat="42.900417" lon="19.608583">
<ele>1313.172852</ele>
<time>2012-04-30T12:54:00Z</time>
<desc>lat.=42.900417, lon.=19.608583, Alt.=1313.172852m. Speed=5.112000m/h.</desc>
<speed>1.420000</speed>
</trkpt>
<trkpt lat="42.900433" lon="19.608685">
<ele>1313.329102</ele>
<time>2012-04-30T12:54:05Z</time>
<desc>lat.=42.900433, lon.=19.608685, Alt.=1313.329102m. Speed=2.484000m/h.</desc>
<speed>0.690000</speed>
</trkpt>
<trkpt lat="42.900425" lon="19.608751">
<ele>1314.110352</ele>
<time>2012-04-30T12:54:10Z</time>
<desc>lat.=42.900425, lon.=19.608751, Alt.=1314.110352m. Speed=3.384000m/h.</desc>
<speed>0.940000</speed>
</trkpt>
<trkpt lat="42.900398" lon="19.608809">
<ele>1314.985352</ele>
<time>2012-04-30T12:54:15Z</time>
<desc>lat.=42.900398, lon.=19.608809, Alt.=1314.985352m. Speed=3.564000m/h.</desc>
<speed>0.990000</speed>
</trkpt>
<trkpt lat="42.900372" lon="19.608879">
<ele>1316.204102</ele>
<time>2012-04-30T12:54:20Z</time>
<desc>lat.=42.900372, lon.=19.608879, Alt.=1316.204102m. Speed=4.500000m/h.</desc>
<speed>1.250000</speed>
</trkpt>
<trkpt lat="42.900341" lon="19.608952">
<ele>1317.235352</ele>
<time>2012-04-30T12:54:25Z</time>
<desc>lat.=42.900341, lon.=19.608952, Alt.=1317.235352m. Speed=4.608000m/h.</desc>
<speed>1.280000</speed>
</trkpt>
<trkpt lat="42.900333" lon="19.609060">
<ele>1318.766602</ele>
<time>2012-04-30T12:54:30Z</time>
<desc>lat.=42.900333, lon.=19.609060, Alt.=1318.766602m. Speed=4.896000m/h.</desc>
<speed>1.360000</speed>
</trkpt>
<trkpt lat="42.900311" lon="19.609144">
<ele>1319.422852</ele>
<time>2012-04-30T12:54:35Z</time>
<desc>lat.=42.900311, lon.=19.609144, Alt.=1319.422852m. Speed=6.480000m/h.</desc>
<speed>1.800000</speed>
</trkpt>
<trkpt lat="42.900242" lon="19.609219">
<ele>1321.797852</ele>
<time>2012-04-30T12:54:40Z</time>
<desc>lat.=42.900242, lon.=19.609219, Alt.=1321.797852m. Speed=4.608000m/h.</desc>
<speed>1.280000</speed>
</trkpt>
<trkpt lat="42.900219" lon="19.609295">
<ele>1323.016602</ele>
<time>2012-04-30T12:54:45Z</time>
<desc>lat.=42.900219, lon.=19.609295, Alt.=1323.016602m. Speed=3.708000m/h.</desc>
<speed>1.030000</speed>
</trkpt>
<trkpt lat="42.900181" lon="19.609350">
<ele>1324.579102</ele>
<time>2012-04-30T12:54:50Z</time>
<desc>lat.=42.900181, lon.=19.609350, Alt.=1324.579102m. Speed=1.476000m/h.</desc>
<speed>0.410000</speed>
</trkpt>
<trkpt lat="42.900135" lon="19.609434">
<ele>1326.079102</ele>
<time>2012-04-30T12:54:55Z</time>
<desc>lat.=42.900135, lon.=19.609434, Alt.=1326.079102m. Speed=2.736000m/h.</desc>
<speed>0.760000</speed>
</trkpt>
<trkpt lat="42.900124" lon="19.609566">
<ele>1327.922852</ele>
<time>2012-04-30T12:55:00Z</time>
<desc>lat.=42.900124, lon.=19.609566, Alt.=1327.922852m. Speed=3.744000m/h.</desc>
<speed>1.040000</speed>
</trkpt>
<trkpt lat="42.900089" lon="19.609701">
<ele>1329.579102</ele>
<time>2012-04-30T12:55:05Z</time>
<desc>lat.=42.900089, lon.=19.609701, Alt.=1329.579102m. Speed=5.256000m/h.</desc>
<speed>1.460000</speed>
</trkpt>
<trkpt lat="42.900085" lon="19.609806">
<ele>1331.110352</ele>
<time>2012-04-30T12:55:10Z</time>
<desc>lat.=42.900085, lon.=19.609806, Alt.=1331.110352m. Speed=3.708000m/h.</desc>
<speed>1.030000</speed>
</trkpt>
<trkpt lat="42.900078" lon="19.609892">
<ele>1332.422852</ele>
<time>2012-04-30T12:55:15Z</time>
<desc>lat.=42.900078, lon.=19.609892, Alt.=1332.422852m. Speed=3.348000m/h.</desc>
<speed>0.930000</speed>
</trkpt>
<trkpt lat="42.900063" lon="19.609957">
<ele>1333.704102</ele>
<time>2012-04-30T12:55:20Z</time>
<desc>lat.=42.900063, lon.=19.609957, Alt.=1333.704102m. Speed=2.160000m/h.</desc>
<speed>0.600000</speed>
</trkpt>
<trkpt lat="42.900055" lon="19.610031">
<ele>1334.954102</ele>
<time>2012-04-30T12:55:25Z</time>
<desc>lat.=42.900055, lon.=19.610031, Alt.=1334.954102m. Speed=1.404000m/h.</desc>
<speed>0.390000</speed>
</trkpt>
<trkpt lat="42.900009" lon="19.610125">
<ele>1336.360352</ele>
<time>2012-04-30T12:55:30Z</time>
<desc>lat.=42.900009, lon.=19.610125, Alt.=1336.360352m. Speed=2.844000m/h.</desc>
<speed>0.790000</speed>
</trkpt>
<trkpt lat="42.899998" lon="19.610170">
<ele>1337.766602</ele>
<time>2012-04-30T12:55:35Z</time>
<desc>lat.=42.899998, lon.=19.610170, Alt.=1337.766602m. Speed=2.160000m/h.</desc>
<speed>0.600000</speed>
</trkpt>
<trkpt lat="42.899967" lon="19.610157">
<ele>1338.985352</ele>
<time>2012-04-30T12:55:40Z</time>
<desc>lat.=42.899967, lon.=19.610157, Alt.=1338.985352m. Speed=0.504000m/h.</desc>
<speed>0.140000</speed>
</trkpt>
<trkpt lat="42.899952" lon="19.610159">
<ele>1339.329102</ele>
<time>2012-04-30T12:55:45Z</time>
<desc>lat.=42.899952, lon.=19.610159, Alt.=1339.329102m. Speed=0.540000m/h.</desc>
<speed>0.150000</speed>
</trkpt>
<trkpt lat="42.899925" lon="19.610172">
<ele>1339.297852</ele>
<time>2012-04-30T12:55:50Z</time>
<desc>lat.=42.899925, lon.=19.610172, Alt.=1339.297852m. Speed=1.368000m/h.</desc>
<speed>0.380000</speed>
</trkpt>
<trkpt lat="42.899914" lon="19.610182">
<ele>1339.329102</ele>
<time>2012-04-30T12:55:55Z</time>
<desc>lat.=42.899914, lon.=19.610182, Alt.=1339.329102m. Speed=0.900000m/h.</desc>
<speed>0.250000</speed>
</trkpt>
<trkpt lat="42.899895" lon="19.610201">
<ele>1339.360352</ele>
<time>2012-04-30T12:56:00Z</time>
<desc>lat.=42.899895, lon.=19.610201, Alt.=1339.360352m. Speed=2.448000m/h.</desc>
<speed>0.680000</speed>
</trkpt>
<trkpt lat="42.899876" lon="19.610233">
<ele>1339.454102</ele>
<time>2012-04-30T12:56:05Z</time>
<desc>lat.=42.899876, lon.=19.610233, Alt.=1339.454102m. Speed=1.908000m/h.</desc>
<speed>0.530000</speed>
</trkpt>
<trkpt lat="42.899784" lon="19.610275">
<ele>1339.735352</ele>
<time>2012-04-30T12:56:10Z</time>
<desc>lat.=42.899784, lon.=19.610275, Alt.=1339.735352m. Speed=4.788000m/h.</desc>
<speed>1.330000</speed>
</trkpt>
<trkpt lat="42.899727" lon="19.610275">
<ele>1339.610352</ele>
<time>2012-04-30T12:56:15Z</time>
<desc>lat.=42.899727, lon.=19.610275, Alt.=1339.610352m. Speed=4.428000m/h.</desc>
<speed>1.230000</speed>
</trkpt>
<trkpt lat="42.899662" lon="19.610292">
<ele>1339.329102</ele>
<time>2012-04-30T12:56:20Z</time>
<desc>lat.=42.899662, lon.=19.610292, Alt.=1339.329102m. Speed=4.536000m/h.</desc>
<speed>1.260000</speed>
</trkpt>
<trkpt lat="42.899597" lon="19.610275">
<ele>1338.297852</ele>
<time>2012-04-30T12:56:25Z</time>
<desc>lat.=42.899597, lon.=19.610275, Alt.=1338.297852m. Speed=4.680000m/h.</desc>
<speed>1.300000</speed>
</trkpt>
<trkpt lat="42.899548" lon="19.610279">
<ele>1338.016602</ele>
<time>2012-04-30T12:56:30Z</time>
<desc>lat.=42.899548, lon.=19.610279, Alt.=1338.016602m. Speed=5.328000m/h.</desc>
<speed>1.480000</speed>
</trkpt>
<trkpt lat="42.899509" lon="19.610321">
<ele>1337.891602</ele>
<time>2012-04-30T12:56:35Z</time>
<desc>lat.=42.899509, lon.=19.610321, Alt.=1337.891602m. Speed=4.104000m/h.</desc>
<speed>1.140000</speed>
</trkpt>
<trkpt lat="42.899433" lon="19.610363">
<ele>1337.797852</ele>
<time>2012-04-30T12:56:40Z</time>
<desc>lat.=42.899433, lon.=19.610363, Alt.=1337.797852m. Speed=6.624000m/h.</desc>
<speed>1.840000</speed>
</trkpt>
<trkpt lat="42.899334" lon="19.610344">
<ele>1337.391602</ele>
<time>2012-04-30T12:56:45Z</time>
<desc>lat.=42.899334, lon.=19.610344, Alt.=1337.391602m. Speed=2.592000m/h.</desc>
<speed>0.720000</speed>
</trkpt>
<trkpt lat="42.899288" lon="19.610411">
<ele>1336.985352</ele>
<time>2012-04-30T12:56:50Z</time>
<desc>lat.=42.899288, lon.=19.610411, Alt.=1336.985352m. Speed=5.508000m/h.</desc>
<speed>1.530000</speed>
</trkpt>
<trkpt lat="42.899227" lon="19.610445">
<ele>1336.360352</ele>
<time>2012-04-30T12:56:55Z</time>
<desc>lat.=42.899227, lon.=19.610445, Alt.=1336.360352m. Speed=3.960000m/h.</desc>
<speed>1.100000</speed>
</trkpt>
<trkpt lat="42.899147" lon="19.610497">
<ele>1336.016602</ele>
<time>2012-04-30T12:57:00Z</time>
<desc>lat.=42.899147, lon.=19.610497, Alt.=1336.016602m. Speed=4.716000m/h.</desc>
<speed>1.310000</speed>
</trkpt>
<trkpt lat="42.899067" lon="19.610544">
<ele>1335.891602</ele>
<time>2012-04-30T12:57:05Z</time>
<desc>lat.=42.899067, lon.=19.610544, Alt.=1335.891602m. Speed=4.068000m/h.</desc>
<speed>1.130000</speed>
</trkpt>
<trkpt lat="42.899014" lon="19.610649">
<ele>1335.766602</ele>
<time>2012-04-30T12:57:10Z</time>
<desc>lat.=42.899014, lon.=19.610649, Alt.=1335.766602m. Speed=5.436000m/h.</desc>
<speed>1.510000</speed>
</trkpt>
<trkpt lat="42.898949" lon="19.610685">
<ele>1335.985352</ele>
<time>2012-04-30T12:57:15Z</time>
<desc>lat.=42.898949, lon.=19.610685, Alt.=1335.985352m. Speed=3.420000m/h.</desc>
<speed>0.950000</speed>
</trkpt>
<trkpt lat="42.898903" lon="19.610739">
<ele>1336.360352</ele>
<time>2012-04-30T12:57:20Z</time>
<desc>lat.=42.898903, lon.=19.610739, Alt.=1336.360352m. Speed=6.480000m/h.</desc>
<speed>1.800000</speed>
</trkpt>
<trkpt lat="42.898865" lon="19.610821">
<ele>1336.922852</ele>
<time>2012-04-30T12:57:25Z</time>
<desc>lat.=42.898865, lon.=19.610821, Alt.=1336.922852m. Speed=4.896000m/h.</desc>
<speed>1.360000</speed>
</trkpt>
<trkpt lat="42.898811" lon="19.610868">
<ele>1337.860352</ele>
<time>2012-04-30T12:57:30Z</time>
<desc>lat.=42.898811, lon.=19.610868, Alt.=1337.860352m. Speed=2.772000m/h.</desc>
<speed>0.770000</speed>
</trkpt>
<trkpt lat="42.898788" lon="19.610962">
<ele>1338.797852</ele>
<time>2012-04-30T12:57:35Z</time>
<desc>lat.=42.898788, lon.=19.610962, Alt.=1338.797852m. Speed=4.860000m/h.</desc>
<speed>1.350000</speed>
</trkpt>
<trkpt lat="42.898754" lon="19.611065">
<ele>1339.954102</ele>
<time>2012-04-30T12:57:40Z</time>
<desc>lat.=42.898754, lon.=19.611065, Alt.=1339.954102m. Speed=4.968000m/h.</desc>
<speed>1.380000</speed>
</trkpt>
<trkpt lat="42.898724" lon="19.611149">
<ele>1341.360352</ele>
<time>2012-04-30T12:57:45Z</time>
<desc>lat.=42.898724, lon.=19.611149, Alt.=1341.360352m. Speed=3.024000m/h.</desc>
<speed>0.840000</speed>
</trkpt>
<trkpt lat="42.898701" lon="19.611208">
<ele>1342.954102</ele>
<time>2012-04-30T12:57:50Z</time>
<desc>lat.=42.898701, lon.=19.611208, Alt.=1342.954102m. Speed=4.104000m/h.</desc>
<speed>1.140000</speed>
</trkpt>
<trkpt lat="42.898674" lon="19.611294">
<ele>1344.391602</ele>
<time>2012-04-30T12:57:55Z</time>
<desc>lat.=42.898674, lon.=19.611294, Alt.=1344.391602m. Speed=4.608000m/h.</desc>
<speed>1.280000</speed>
</trkpt>
<trkpt lat="42.898636" lon="19.611359">
<ele>1346.391602</ele>
<time>2012-04-30T12:58:00Z</time>
<desc>lat.=42.898636, lon.=19.611359, Alt.=1346.391602m. Speed=4.536000m/h.</desc>
<speed>1.260000</speed>
</trkpt>
<trkpt lat="42.898590" lon="19.611439">
<ele>1348.672852</ele>
<time>2012-04-30T12:58:05Z</time>
<desc>lat.=42.898590, lon.=19.611439, Alt.=1348.672852m. Speed=3.024000m/h.</desc>
<speed>0.840000</speed>
</trkpt>
<trkpt lat="42.898556" lon="19.611532">
<ele>1350.422852</ele>
<time>2012-04-30T12:58:10Z</time>
<desc>lat.=42.898556, lon.=19.611532, Alt.=1350.422852m. Speed=3.708000m/h.</desc>
<speed>1.030000</speed>
</trkpt>
<trkpt lat="42.898521" lon="19.611614">
<ele>1352.110352</ele>
<time>2012-04-30T12:58:15Z</time>
<desc>lat.=42.898521, lon.=19.611614, Alt.=1352.110352m. Speed=2.628000m/h.</desc>
<speed>0.730000</speed>
</trkpt>
<trkpt lat="42.898483" lon="19.611662">
<ele>1353.454102</ele>
<time>2012-04-30T12:58:20Z</time>
<desc>lat.=42.898483, lon.=19.611662, Alt.=1353.454102m. Speed=2.736000m/h.</desc>
<speed>0.760000</speed>
</trkpt>
<trkpt lat="42.898468" lon="19.611748">
<ele>1354.860352</ele>
<time>2012-04-30T12:58:25Z</time>
<desc>lat.=42.898468, lon.=19.611748, Alt.=1354.860352m. Speed=3.924000m/h.</desc>
<speed>1.090000</speed>
</trkpt>
<trkpt lat="42.898426" lon="19.611864">
<ele>1356.672852</ele>
<time>2012-04-30T12:58:30Z</time>
<desc>lat.=42.898426, lon.=19.611864, Alt.=1356.672852m. Speed=3.924000m/h.</desc>
<speed>1.090000</speed>
</trkpt>
<trkpt lat="42.898418" lon="19.611958">
<ele>1358.172852</ele>
<time>2012-04-30T12:58:35Z</time>
<desc>lat.=42.898418, lon.=19.611958, Alt.=1358.172852m. Speed=3.564000m/h.</desc>
<speed>0.990000</speed>
</trkpt>
<trkpt lat="42.898373" lon="19.612049">
<ele>1359.672852</ele>
<time>2012-04-30T12:58:40Z</time>
<desc>lat.=42.898373, lon.=19.612049, Alt.=1359.672852m. Speed=2.520000m/h.</desc>
<speed>0.700000</speed>
</trkpt>
<trkpt lat="42.898346" lon="19.612125">
<ele>1361.047852</ele>
<time>2012-04-30T12:58:45Z</time>
<desc>lat.=42.898346, lon.=19.612125, Alt.=1361.047852m. Speed=3.348000m/h.</desc>
<speed>0.930000</speed>
</trkpt>
<trkpt lat="42.898335" lon="19.612221">
<ele>1362.360352</ele>
<time>2012-04-30T12:58:50Z</time>
<desc>lat.=42.898335, lon.=19.612221, Alt.=1362.360352m. Speed=2.556000m/h.</desc>
<speed>0.710000</speed>
</trkpt>
<trkpt lat="42.898300" lon="19.612337">
<ele>1363.860352</ele>
<time>2012-04-30T12:58:55Z</time>
<desc>lat.=42.898300, lon.=19.612337, Alt.=1363.860352m. Speed=3.204000m/h.</desc>
<speed>0.890000</speed>
</trkpt>
<trkpt lat="42.898293" lon="19.612465">
<ele>1365.297852</ele>
<time>2012-04-30T12:59:00Z</time>
<desc>lat.=42.898293, lon.=19.612465, Alt.=1365.297852m. Speed=3.780000m/h.</desc>
<speed>1.050000</speed>
</trkpt>
<trkpt lat="42.898277" lon="19.612526">
<ele>1366.672852</ele>
<time>2012-04-30T12:59:05Z</time>
<desc>lat.=42.898277, lon.=19.612526, Alt.=1366.672852m. Speed=3.312000m/h.</desc>
<speed>0.920000</speed>
</trkpt>
<trkpt lat="42.898258" lon="19.612610">
<ele>1368.016602</ele>
<time>2012-04-30T12:59:10Z</time>
<desc>lat.=42.898258, lon.=19.612610, Alt.=1368.016602m. Speed=3.888000m/h.</desc>
<speed>1.080000</speed>
</trkpt>
<trkpt lat="42.898224" lon="19.612654">
<ele>1369.360352</ele>
<time>2012-04-30T12:59:15Z</time>
<desc>lat.=42.898224, lon.=19.612654, Alt.=1369.360352m. Speed=2.160000m/h.</desc>
<speed>0.600000</speed>
</trkpt>
<trkpt lat="42.898159" lon="19.612724">
<ele>1370.766602</ele>
<time>2012-04-30T12:59:20Z</time>
<desc>lat.=42.898159, lon.=19.612724, Alt.=1370.766602m. Speed=4.644000m/h.</desc>
<speed>1.290000</speed>
</trkpt>
<trkpt lat="42.898087" lon="19.612745">
<ele>1372.297852</ele>
<time>2012-04-30T12:59:25Z</time>
<desc>lat.=42.898087, lon.=19.612745, Alt.=1372.297852m. Speed=6.732000m/h.</desc>
<speed>1.870000</speed>
</trkpt>
<trkpt lat="42.898041" lon="19.612722">
<ele>1373.547852</ele>
<time>2012-04-30T12:59:30Z</time>
<desc>lat.=42.898041, lon.=19.612722, Alt.=1373.547852m. Speed=3.348000m/h.</desc>
<speed>0.930000</speed>
</trkpt>
<trkpt lat="42.897980" lon="19.612686">
<ele>1374.672852</ele>
<time>2012-04-30T12:59:35Z</time>
<desc>lat.=42.897980, lon.=19.612686, Alt.=1374.672852m. Speed=4.428000m/h.</desc>
<speed>1.230000</speed>
</trkpt>
<trkpt lat="42.897915" lon="19.612694">
<ele>1375.985352</ele>
<time>2012-04-30T12:59:40Z</time>
<desc>lat.=42.897915, lon.=19.612694, Alt.=1375.985352m. Speed=4.860000m/h.</desc>
<speed>1.350000</speed>
</trkpt>
<trkpt lat="42.897831" lon="19.612753">
<ele>1377.516602</ele>
<time>2012-04-30T12:59:45Z</time>
<desc>lat.=42.897831, lon.=19.612753, Alt.=1377.516602m. Speed=3.888000m/h.</desc>
<speed>1.080000</speed>
</trkpt>
<trkpt lat="42.897804" lon="19.612822">
<ele>1378.141602</ele>
<time>2012-04-30T12:59:50Z</time>
<desc>lat.=42.897804, lon.=19.612822, Alt.=1378.141602m. Speed=4.212000m/h.</desc>
<speed>1.170000</speed>
</trkpt>
<trkpt lat="42.897770" lon="19.612888">
<ele>1378.579102</ele>
<time>2012-04-30T12:59:55Z</time>
<desc>lat.=42.897770, lon.=19.612888, Alt.=1378.579102m. Speed=1.908000m/h.</desc>
<speed>0.530000</speed>
</trkpt>
<trkpt lat="42.897720" lon="19.612993">
<ele>1378.922852</ele>
<time>2012-04-30T13:00:00Z</time>
<desc>lat.=42.897720, lon.=19.612993, Alt.=1378.922852m. Speed=4.572000m/h.</desc>
<speed>1.270000</speed>
</trkpt>
<trkpt lat="42.897717" lon="19.613083">
<ele>1379.454102</ele>
<time>2012-04-30T13:00:05Z</time>
<desc>lat.=42.897717, lon.=19.613083, Alt.=1379.454102m. Speed=5.976000m/h.</desc>
<speed>1.660000</speed>
</trkpt>
<trkpt lat="42.897659" lon="19.613150">
<ele>1379.672852</ele>
<time>2012-04-30T13:00:10Z</time>
<desc>lat.=42.897659, lon.=19.613150, Alt.=1379.672852m. Speed=6.768000m/h.</desc>
<speed>1.880000</speed>
</trkpt>
<trkpt lat="42.897568" lon="19.613243">
<ele>1379.922852</ele>
<time>2012-04-30T13:00:15Z</time>
<desc>lat.=42.897568, lon.=19.613243, Alt.=1379.922852m. Speed=6.192000m/h.</desc>
<speed>1.720000</speed>
</trkpt>
<trkpt lat="42.897491" lon="19.613264">
<ele>1380.079102</ele>
<time>2012-04-30T13:00:20Z</time>
<desc>lat.=42.897491, lon.=19.613264, Alt.=1380.079102m. Speed=6.624000m/h.</desc>
<speed>1.840000</speed>
</trkpt>
<trkpt lat="42.897442" lon="19.613220">
<ele>1380.360352</ele>
<time>2012-04-30T13:00:25Z</time>
<desc>lat.=42.897442, lon.=19.613220, Alt.=1380.360352m. Speed=3.492000m/h.</desc>
<speed>0.970000</speed>
</trkpt>
<trkpt lat="42.897362" lon="19.613213">
<ele>1380.454102</ele>
<time>2012-04-30T13:00:30Z</time>
<desc>lat.=42.897362, lon.=19.613213, Alt.=1380.454102m. Speed=4.212000m/h.</desc>
<speed>1.170000</speed>
</trkpt>
<trkpt lat="42.897251" lon="19.613178">
<ele>1381.110352</ele>
<time>2012-04-30T13:00:35Z</time>
<desc>lat.=42.897251, lon.=19.613178, Alt.=1381.110352m. Speed=6.552000m/h.</desc>
<speed>1.820000</speed>
</trkpt>
<trkpt lat="42.897156" lon="19.613146">
<ele>1381.766602</ele>
<time>2012-04-30T13:00:40Z</time>
<desc>lat.=42.897156, lon.=19.613146, Alt.=1381.766602m. Speed=5.760000m/h.</desc>
<speed>1.600000</speed>
</trkpt>
<trkpt lat="42.897068" lon="19.613144">
<ele>1382.547852</ele>
<time>2012-04-30T13:00:45Z</time>
<desc>lat.=42.897068, lon.=19.613144, Alt.=1382.547852m. Speed=5.292000m/h.</desc>
<speed>1.470000</speed>
</trkpt>
<trkpt lat="42.897022" lon="19.613199">
<ele>1383.704102</ele>
<time>2012-04-30T13:00:50Z</time>
<desc>lat.=42.897022, lon.=19.613199, Alt.=1383.704102m. Speed=3.204000m/h.</desc>
<speed>0.890000</speed>
</trkpt>
<trkpt lat="42.897022" lon="19.613279">
<ele>1384.985352</ele>
<time>2012-04-30T13:00:55Z</time>
<desc>lat.=42.897022, lon.=19.613279, Alt.=1384.985352m. Speed=3.744000m/h.</desc>
<speed>1.040000</speed>
</trkpt>
<trkpt lat="42.896992" lon="19.613331">
<ele>1386.485352</ele>
<time>2012-04-30T13:01:00Z</time>
<desc>lat.=42.896992, lon.=19.613331, Alt.=1386.485352m. Speed=3.672000m/h.</desc>
<speed>1.020000</speed>
</trkpt>
<trkpt lat="42.896961" lon="19.613411">
<ele>1387.735352</ele>
<time>2012-04-30T13:01:05Z</time>
<desc>lat.=42.896961, lon.=19.613411, Alt.=1387.735352m. Speed=4.140000m/h.</desc>
<speed>1.150000</speed>
</trkpt>
<trkpt lat="42.896942" lon="19.613535">
<ele>1388.891602</ele>
<time>2012-04-30T13:01:10Z</time>
<desc>lat.=42.896942, lon.=19.613535, Alt.=1388.891602m. Speed=4.212000m/h.</desc>
<speed>1.170000</speed>
</trkpt>
<trkpt lat="42.896935" lon="19.613621">
<ele>1389.954102</ele>
<time>2012-04-30T13:01:15Z</time>
<desc>lat.=42.896935, lon.=19.613621, Alt.=1389.954102m. Speed=5.724000m/h.</desc>
<speed>1.590000</speed>
</trkpt>
<trkpt lat="42.896919" lon="19.613716">
<ele>1390.829102</ele>
<time>2012-04-30T13:01:20Z</time>
<desc>lat.=42.896919, lon.=19.613716, Alt.=1390.829102m. Speed=5.076000m/h.</desc>
<speed>1.410000</speed>
</trkpt>
<trkpt lat="42.896908" lon="19.613802">
<ele>1391.766602</ele>
<time>2012-04-30T13:01:25Z</time>
<desc>lat.=42.896908, lon.=19.613802, Alt.=1391.766602m. Speed=3.780000m/h.</desc>
<speed>1.050000</speed>
</trkpt>
<trkpt lat="42.896885" lon="19.613886">
<ele>1392.422852</ele>
<time>2012-04-30T13:01:30Z</time>
<desc>lat.=42.896885, lon.=19.613886, Alt.=1392.422852m. Speed=4.608000m/h.</desc>
<speed>1.280000</speed>
</trkpt>
<trkpt lat="42.896866" lon="19.614040">
<ele>1393.579102</ele>
<time>2012-04-30T13:01:35Z</time>
<desc>lat.=42.896866, lon.=19.614040, Alt.=1393.579102m. Speed=5.148000m/h.</desc>
<speed>1.430000</speed>
</trkpt>
<trkpt lat="42.896847" lon="19.614174">
<ele>1394.704102</ele>
<time>2012-04-30T13:01:40Z</time>
<desc>lat.=42.896847, lon.=19.614174, Alt.=1394.704102m. Speed=5.616000m/h.</desc>
<speed>1.560000</speed>
</trkpt>
<trkpt lat="42.896816" lon="19.614265">
<ele>1395.610352</ele>
<time>2012-04-30T13:01:45Z</time>
<desc>lat.=42.896816, lon.=19.614265, Alt.=1395.610352m. Speed=4.212000m/h.</desc>
<speed>1.170000</speed>
</trkpt>
<trkpt lat="42.896770" lon="19.614368">
<ele>1396.235352</ele>
<time>2012-04-30T13:01:50Z</time>
<desc>lat.=42.896770, lon.=19.614368, Alt.=1396.235352m. Speed=6.156000m/h.</desc>
<speed>1.710000</speed>
</trkpt>
<trkpt lat="42.896729" lon="19.614491">
<ele>1397.047852</ele>
<time>2012-04-30T13:01:55Z</time>
<desc>lat.=42.896729, lon.=19.614491, Alt.=1397.047852m. Speed=6.084000m/h.</desc>
<speed>1.690000</speed>
</trkpt>
<trkpt lat="42.896698" lon="19.614592">
<ele>1397.579102</ele>
<time>2012-04-30T13:02:00Z</time>
<desc>lat.=42.896698, lon.=19.614592, Alt.=1397.579102m. Speed=6.192000m/h.</desc>
<speed>1.720000</speed>
</trkpt>
<trkpt lat="42.896675" lon="19.614666">
<ele>1397.797852</ele>
<time>2012-04-30T13:02:05Z</time>
<desc>lat.=42.896675, lon.=19.614666, Alt.=1397.797852m. Speed=5.112000m/h.</desc>
<speed>1.420000</speed>
</trkpt>
<trkpt lat="42.896664" lon="19.614740">
<ele>1398.110352</ele>
<time>2012-04-30T13:02:10Z</time>
<desc>lat.=42.896664, lon.=19.614740, Alt.=1398.110352m. Speed=5.184000m/h.</desc>
<speed>1.440000</speed>
</trkpt>
<trkpt lat="42.896652" lon="19.614832">
<ele>1397.797852</ele>
<time>2012-04-30T13:02:15Z</time>
<desc>lat.=42.896652, lon.=19.614832, Alt.=1397.797852m. Speed=5.832000m/h.</desc>
<speed>1.620000</speed>
</trkpt>
<trkpt lat="42.896641" lon="19.614920">
<ele>1397.704102</ele>
<time>2012-04-30T13:02:20Z</time>
<desc>lat.=42.896641, lon.=19.614920, Alt.=1397.704102m. Speed=5.256000m/h.</desc>
<speed>1.460000</speed>
</trkpt>
<trkpt lat="42.896626" lon="19.615013">
<ele>1397.297852</ele>
<time>2012-04-30T13:02:25Z</time>
<desc>lat.=42.896626, lon.=19.615013, Alt.=1397.297852m. Speed=5.328000m/h.</desc>
<speed>1.480000</speed>
</trkpt>
<trkpt lat="42.896614" lon="19.615086">
<ele>1398.172852</ele>
<time>2012-04-30T13:02:30Z</time>
<desc>lat.=42.896614, lon.=19.615086, Alt.=1398.172852m. Speed=4.788000m/h.</desc>
<speed>1.330000</speed>
</trkpt>
<trkpt lat="42.896610" lon="19.615145">
<ele>1399.047852</ele>
<time>2012-04-30T13:02:35Z</time>
<desc>lat.=42.896610, lon.=19.615145, Alt.=1399.047852m. Speed=0.972000m/h.</desc>
<speed>0.270000</speed>
</trkpt>
<trkpt lat="42.896610" lon="19.615158">
<ele>1398.172852</ele>
<time>2012-04-30T13:02:40Z</time>
<desc>lat.=42.896610, lon.=19.615158, Alt.=1398.172852m. Speed=0.036000m/h.</desc>
<speed>0.010000</speed>
</trkpt>
<trkpt lat="42.896614" lon="19.615158">
<ele>1398.141602</ele>
<time>2012-04-30T13:02:45Z</time>
<desc>lat.=42.896614, lon.=19.615158, Alt.=1398.141602m. Speed=0.036000m/h.</desc>
<speed>0.010000</speed>
</trkpt>
<trkpt lat="42.896614" lon="19.615158">
<ele>1398.172852</ele>
<time>2012-04-30T13:02:50Z</time>
<desc>lat.=42.896614, lon.=19.615158, Alt.=1398.172852m. Speed=0.288000m/h.</desc>
<speed>0.080000</speed>
</trkpt>
<trkpt lat="42.896614" lon="19.615158">
<ele>1398.141602</ele>
<time>2012-04-30T13:02:55Z</time>
<desc>lat.=42.896614, lon.=19.615158, Alt.=1398.141602m. Speed=0.036000m/h.</desc>
<speed>0.010000</speed>
</trkpt>
<trkpt lat="42.896614" lon="19.615160">
<ele>1398.141602</ele>
<time>2012-04-30T13:03:00Z</time>
<desc>lat.=42.896614, lon.=19.615160, Alt.=1398.141602m. Speed=1.404000m/h.</desc>
<speed>0.390000</speed>
</trkpt>
<trkpt lat="42.896622" lon="19.615191">
<ele>1398.704102</ele>
<time>2012-04-30T13:03:05Z</time>
<desc>lat.=42.896622, lon.=19.615191, Alt.=1398.704102m. Speed=1.512000m/h.</desc>
<speed>0.420000</speed>
</trkpt>
<trkpt lat="42.896652" lon="19.615124">
<ele>1398.954102</ele>
<time>2012-04-30T13:03:10Z</time>
<desc>lat.=42.896652, lon.=19.615124, Alt.=1398.954102m. Speed=6.840000m/h.</desc>
<speed>1.900000</speed>
</trkpt>
<trkpt lat="42.896698" lon="19.615040">
<ele>1400.172852</ele>
<time>2012-04-30T13:03:15Z</time>
<desc>lat.=42.896698, lon.=19.615040, Alt.=1400.172852m. Speed=5.112000m/h.</desc>
<speed>1.420000</speed>
</trkpt>
<trkpt lat="42.896755" lon="19.614962">
<ele>1401.016602</ele>
<time>2012-04-30T13:03:20Z</time>
<desc>lat.=42.896755, lon.=19.614962, Alt.=1401.016602m. Speed=5.328000m/h.</desc>
<speed>1.480000</speed>
</trkpt>
<trkpt lat="42.896805" lon="19.614927">
<ele>1401.891602</ele>
<time>2012-04-30T13:03:25Z</time>
<desc>lat.=42.896805, lon.=19.614927, Alt.=1401.891602m. Speed=5.760000m/h.</desc>
<speed>1.600000</speed>
</trkpt>
<trkpt lat="42.896881" lon="19.614897">
<ele>1402.297852</ele>
<time>2012-04-30T13:03:30Z</time>
<desc>lat.=42.896881, lon.=19.614897, Alt.=1402.297852m. Speed=6.228000m/h.</desc>
<speed>1.730000</speed>
</trkpt>
<trkpt lat="42.896942" lon="19.614864">
<ele>1403.110352</ele>
<time>2012-04-30T13:03:35Z</time>
<desc>lat.=42.896942, lon.=19.614864, Alt.=1403.110352m. Speed=5.364000m/h.</desc>
<speed>1.490000</speed>
</trkpt>
<trkpt lat="42.896996" lon="19.614826">
<ele>1404.047852</ele>
<time>2012-04-30T13:03:40Z</time>
<desc>lat.=42.896996, lon.=19.614826, Alt.=1404.047852m. Speed=5.292000m/h.</desc>
<speed>1.470000</speed>
</trkpt>
<trkpt lat="42.897015" lon="19.614769">
<ele>1405.297852</ele>
<time>2012-04-30T13:03:45Z</time>
<desc>lat.=42.897015, lon.=19.614769, Alt.=1405.297852m. Speed=4.284000m/h.</desc>
<speed>1.190000</speed>
</trkpt>
<trkpt lat="42.897049" lon="19.614689">
<ele>1407.079102</ele>
<time>2012-04-30T13:03:50Z</time>
<desc>lat.=42.897049, lon.=19.614689, Alt.=1407.079102m. Speed=3.456000m/h.</desc>
<speed>0.960000</speed>
</trkpt>
<trkpt lat="42.897068" lon="19.614639">
<ele>1408.704102</ele>
<time>2012-04-30T13:03:55Z</time>
<desc>lat.=42.897068, lon.=19.614639, Alt.=1408.704102m. Speed=3.960000m/h.</desc>
<speed>1.100000</speed>
</trkpt>
<trkpt lat="42.897133" lon="19.614582">
<ele>1410.547852</ele>
<time>2012-04-30T13:04:00Z</time>
<desc>lat.=42.897133, lon.=19.614582, Alt.=1410.547852m. Speed=4.824000m/h.</desc>
<speed>1.340000</speed>
</trkpt>
<trkpt lat="42.897152" lon="19.614511">
<ele>1411.797852</ele>
<time>2012-04-30T13:04:05Z</time>
<desc>lat.=42.897152, lon.=19.614511, Alt.=1411.797852m. Speed=4.572000m/h.</desc>
<speed>1.270000</speed>
</trkpt>
<trkpt lat="42.897167" lon="19.614437">
<ele>1413.141602</ele>
<time>2012-04-30T13:04:10Z</time>
<desc>lat.=42.897167, lon.=19.614437, Alt.=1413.141602m. Speed=3.708000m/h.</desc>
<speed>1.030000</speed>
</trkpt>
<trkpt lat="42.897243" lon="19.614347">
<ele>1414.610352</ele>
<time>2012-04-30T13:04:15Z</time>
<desc>lat.=42.897243, lon.=19.614347, Alt.=1414.610352m. Speed=4.356000m/h.</desc>
<speed>1.210000</speed>
</trkpt>
<trkpt lat="42.897301" lon="19.614302">
<ele>1416.016602</ele>
<time>2012-04-30T13:04:20Z</time>
<desc>lat.=42.897301, lon.=19.614302, Alt.=1416.016602m. Speed=3.996000m/h.</desc>
<speed>1.110000</speed>
</trkpt>
<trkpt lat="42.897354" lon="19.614225">
<ele>1417.360352</ele>
<time>2012-04-30T13:04:25Z</time>
<desc>lat.=42.897354, lon.=19.614225, Alt.=1417.360352m. Speed=3.780000m/h.</desc>
<speed>1.050000</speed>
</trkpt>
<trkpt lat="42.897411" lon="19.614109">
<ele>1418.672852</ele>
<time>2012-04-30T13:04:30Z</time>
<desc>lat.=42.897411, lon.=19.614109, Alt.=1418.672852m. Speed=3.852000m/h.</desc>
<speed>1.070000</speed>
</trkpt>
<trkpt lat="42.897469" lon="19.614126">
<ele>1419.954102</ele>
<time>2012-04-30T13:04:35Z</time>
<desc>lat.=42.897469, lon.=19.614126, Alt.=1419.954102m. Speed=4.644000m/h.</desc>
<speed>1.290000</speed>
</trkpt>
<trkpt lat="42.897537" lon="19.614141">
<ele>1421.204102</ele>
<time>2012-04-30T13:04:40Z</time>
<desc>lat.=42.897537, lon.=19.614141, Alt.=1421.204102m. Speed=3.420000m/h.</desc>
<speed>0.950000</speed>
</trkpt>
<trkpt lat="42.897617" lon="19.614122">
<ele>1422.672852</ele>
<time>2012-04-30T13:04:45Z</time>
<desc>lat.=42.897617, lon.=19.614122, Alt.=1422.672852m. Speed=2.592000m/h.</desc>
<speed>0.720000</speed>
</trkpt>
<trkpt lat="42.897694" lon="19.614124">
<ele>1424.391602</ele>
<time>2012-04-30T13:04:50Z</time>
<desc>lat.=42.897694, lon.=19.614124, Alt.=1424.391602m. Speed=4.536000m/h.</desc>
<speed>1.260000</speed>
</trkpt>
<trkpt lat="42.897755" lon="19.614109">
<ele>1425.829102</ele>
<time>2012-04-30T13:04:55Z</time>
<desc>lat.=42.897755, lon.=19.614109, Alt.=1425.829102m. Speed=4.248000m/h.</desc>
<speed>1.180000</speed>
</trkpt>
<trkpt lat="42.897804" lon="19.614172">
<ele>1427.704102</ele>
<time>2012-04-30T13:05:00Z</time>
<desc>lat.=42.897804, lon.=19.614172, Alt.=1427.704102m. Speed=3.348000m/h.</desc>
<speed>0.930000</speed>
</trkpt>
<trkpt lat="42.897896" lon="19.614206">
<ele>1430.485352</ele>
<time>2012-04-30T13:05:05Z</time>
<desc>lat.=42.897896, lon.=19.614206, Alt.=1430.485352m. Speed=3.276000m/h.</desc>
<speed>0.910000</speed>
</trkpt>
<trkpt lat="42.897938" lon="19.614201">
<ele>1432.829102</ele>
<time>2012-04-30T13:05:10Z</time>
<desc>lat.=42.897938, lon.=19.614201, Alt.=1432.829102m. Speed=2.736000m/h.</desc>
<speed>0.760000</speed>
</trkpt>
<trkpt lat="42.897995" lon="19.614143">
<ele>1434.329102</ele>
<time>2012-04-30T13:05:15Z</time>
<desc>lat.=42.897995, lon.=19.614143, Alt.=1434.329102m. Speed=3.420000m/h.</desc>
<speed>0.950000</speed>
</trkpt>
<trkpt lat="42.898098" lon="19.614077">
<ele>1435.672852</ele>
<time>2012-04-30T13:05:20Z</time>
<desc>lat.=42.898098, lon.=19.614077, Alt.=1435.672852m. Speed=3.348000m/h.</desc>
<speed>0.930000</speed>
</trkpt>
<trkpt lat="42.898190" lon="19.613977">
<ele>1436.829102</ele>
<time>2012-04-30T13:05:25Z</time>
<desc>lat.=42.898190, lon.=19.613977, Alt.=1436.829102m. Speed=3.060000m/h.</desc>
<speed>0.850000</speed>
</trkpt>
<trkpt lat="42.898270" lon="19.613932">
<ele>1438.235352</ele>
<time>2012-04-30T13:05:30Z</time>
<desc>lat.=42.898270, lon.=19.613932, Alt.=1438.235352m. Speed=5.220000m/h.</desc>
<speed>1.450000</speed>
</trkpt>
<trkpt lat="42.898327" lon="19.613937">
<ele>1440.891602</ele>
<time>2012-04-30T13:05:35Z</time>
<desc>lat.=42.898327, lon.=19.613937, Alt.=1440.891602m. Speed=3.924000m/h.</desc>
<speed>1.090000</speed>
</trkpt>
<trkpt lat="42.898335" lon="19.614017">
<ele>1442.047852</ele>
<time>2012-04-30T13:05:40Z</time>
<desc>lat.=42.898335, lon.=19.614017, Alt.=1442.047852m. Speed=0.828000m/h.</desc>
<speed>0.230000</speed>
</trkpt>
<trkpt lat="42.898331" lon="19.614038">
<ele>1442.360352</ele>
<time>2012-04-30T13:05:45Z</time>
<desc>lat.=42.898331, lon.=19.614038, Alt.=1442.360352m. Speed=0.612000m/h.</desc>
<speed>0.170000</speed>
</trkpt>
<trkpt lat="42.898331" lon="19.614048">
<ele>1442.547852</ele>
<time>2012-04-30T13:05:50Z</time>
<desc>lat.=42.898331, lon.=19.614048, Alt.=1442.547852m. Speed=2.628000m/h.</desc>
<speed>0.730000</speed>
</trkpt>
<trkpt lat="42.898369" lon="19.614067">
<ele>1442.704102</ele>
<time>2012-04-30T13:05:55Z</time>
<desc>lat.=42.898369, lon.=19.614067, Alt.=1442.704102m. Speed=2.088000m/h.</desc>
<speed>0.580000</speed>
</trkpt>
<trkpt lat="42.898403" lon="19.614124">
<ele>1442.766602</ele>
<time>2012-04-30T13:06:00Z</time>
<desc>lat.=42.898403, lon.=19.614124, Alt.=1442.766602m. Speed=1.872000m/h.</desc>
<speed>0.520000</speed>
</trkpt>
<trkpt lat="42.898411" lon="19.614157">
<ele>1442.797852</ele>
<time>2012-04-30T13:06:05Z</time>
<desc>lat.=42.898411, lon.=19.614157, Alt.=1442.797852m. Speed=1.656000m/h.</desc>
<speed>0.460000</speed>
</trkpt>
<trkpt lat="42.898350" lon="19.614031">
<ele>1442.985352</ele>
<time>2012-04-30T13:06:10Z</time>
<desc>lat.=42.898350, lon.=19.614031, Alt.=1442.985352m. Speed=0.576000m/h.</desc>
<speed>0.160000</speed>
</trkpt>
<trkpt lat="42.898350" lon="19.614040">
<ele>1443.110352</ele>
<time>2012-04-30T13:06:15Z</time>
<desc>lat.=42.898350, lon.=19.614040, Alt.=1443.110352m. Speed=1.296000m/h.</desc>
<speed>0.360000</speed>
</trkpt>
<trkpt lat="42.898392" lon="19.614058">
<ele>1442.766602</ele>
<time>2012-04-30T13:06:20Z</time>
<desc>lat.=42.898392, lon.=19.614058, Alt.=1442.766602m. Speed=1.440000m/h.</desc>
<speed>0.400000</speed>
</trkpt>
<trkpt lat="42.898422" lon="19.614080">
<ele>1442.985352</ele>
<time>2012-04-30T13:06:25Z</time>
<desc>lat.=42.898422, lon.=19.614080, Alt.=1442.985352m. Speed=1.548000m/h.</desc>
<speed>0.430000</speed>
</trkpt>
<trkpt lat="42.898472" lon="19.614115">
<ele>1442.891602</ele>
<time>2012-04-30T13:06:30Z</time>
<desc>lat.=42.898472, lon.=19.614115, Alt.=1442.891602m. Speed=2.124000m/h.</desc>
<speed>0.590000</speed>
</trkpt>
<trkpt lat="42.898533" lon="19.614153">
<ele>1443.641602</ele>
<time>2012-04-30T13:06:35Z</time>
<desc>lat.=42.898533, lon.=19.614153, Alt.=1443.641602m. Speed=4.572000m/h.</desc>
<speed>1.270000</speed>
</trkpt>
<trkpt lat="42.898552" lon="19.614164">
<ele>1444.266602</ele>
<time>2012-04-30T13:06:40Z</time>
<desc>lat.=42.898552, lon.=19.614164, Alt.=1444.266602m. Speed=0.684000m/h.</desc>
<speed>0.190000</speed>
</trkpt>
<trkpt lat="42.898575" lon="19.614155">
<ele>1444.422852</ele>
<time>2012-04-30T13:06:45Z</time>
<desc>lat.=42.898575, lon.=19.614155, Alt.=1444.422852m. Speed=1.440000m/h.</desc>
<speed>0.400000</speed>
</trkpt>
<trkpt lat="42.898682" lon="19.614149">
<ele>1444.922852</ele>
<time>2012-04-30T13:06:50Z</time>
<desc>lat.=42.898682, lon.=19.614149, Alt.=1444.922852m. Speed=4.284000m/h.</desc>
<speed>1.190000</speed>
</trkpt>
<trkpt lat="42.898735" lon="19.614061">
<ele>1445.391602</ele>
<time>2012-04-30T13:06:55Z</time>
<desc>lat.=42.898735, lon.=19.614061, Alt.=1445.391602m. Speed=2.340000m/h.</desc>
<speed>0.650000</speed>
</trkpt>
<trkpt lat="42.898808" lon="19.613991">
<ele>1445.735352</ele>
<time>2012-04-30T13:07:00Z</time>
<desc>lat.=42.898808, lon.=19.613991, Alt.=1445.735352m. Speed=2.988000m/h.</desc>
<speed>0.830000</speed>
</trkpt>
<trkpt lat="42.898865" lon="19.613909">
<ele>1446.110352</ele>
<time>2012-04-30T13:07:05Z</time>
<desc>lat.=42.898865, lon.=19.613909, Alt.=1446.110352m. Speed=2.772000m/h.</desc>
<speed>0.770000</speed>
</trkpt>
<trkpt lat="42.898941" lon="19.613909">
<ele>1446.829102</ele>
<time>2012-04-30T13:07:10Z</time>
<desc>lat.=42.898941, lon.=19.613909, Alt.=1446.829102m. Speed=3.240000m/h.</desc>
<speed>0.900000</speed>
</trkpt>
<trkpt lat="42.898991" lon="19.613817">
<ele>1447.391602</ele>
<time>2012-04-30T13:07:15Z</time>
<desc>lat.=42.898991, lon.=19.613817, Alt.=1447.391602m. Speed=1.512000m/h.</desc>
<speed>0.420000</speed>
</trkpt>
<trkpt lat="42.898987" lon="19.613800">
<ele>1447.766602</ele>
<time>2012-04-30T13:07:20Z</time>
<desc>lat.=42.898987, lon.=19.613800, Alt.=1447.766602m. Speed=0.972000m/h.</desc>
<speed>0.270000</speed>
</trkpt>
<trkpt lat="42.899025" lon="19.613724">
<ele>1448.110352</ele>
<time>2012-04-30T13:07:25Z</time>
<desc>lat.=42.899025, lon.=19.613724, Alt.=1448.110352m. Speed=3.384000m/h.</desc>
<speed>0.940000</speed>
</trkpt>
<trkpt lat="42.899090" lon="19.613665">
<ele>1448.391602</ele>
<time>2012-04-30T13:07:30Z</time>
<desc>lat.=42.899090, lon.=19.613665, Alt.=1448.391602m. Speed=3.600000m/h.</desc>
<speed>1.000000</speed>
</trkpt>
<trkpt lat="42.899166" lon="19.613607">
<ele>1448.829102</ele>
<time>2012-04-30T13:07:35Z</time>
<desc>lat.=42.899166, lon.=19.613607, Alt.=1448.829102m. Speed=3.348000m/h.</desc>
<speed>0.930000</speed>
</trkpt>
<trkpt lat="42.899197" lon="19.613523">
<ele>1448.985352</ele>
<time>2012-04-30T13:07:40Z</time>
<desc>lat.=42.899197, lon.=19.613523, Alt.=1448.985352m. Speed=1.368000m/h.</desc>
<speed>0.380000</speed>
</trkpt>
<trkpt lat="42.899254" lon="19.613483">
<ele>1448.829102</ele>
<time>2012-04-30T13:07:45Z</time>
<desc>lat.=42.899254, lon.=19.613483, Alt.=1448.829102m. Speed=0.000000m/h.</desc>
<speed>0.000000</speed>
</trkpt>
<trkpt lat="42.899258" lon="19.613480">
<ele>1448.829102</ele>
<time>2012-04-30T13:07:50Z</time>
<desc>lat.=42.899258, lon.=19.613480, Alt.=1448.829102m. Speed=0.360000m/h.</desc>
<speed>0.100000</speed>
</trkpt>
<trkpt lat="42.899265" lon="19.613470">
<ele>1448.766602</ele>
<time>2012-04-30T13:07:55Z</time>
<desc>lat.=42.899265, lon.=19.613470, Alt.=1448.766602m. Speed=2.304000m/h.</desc>
<speed>0.640000</speed>
</trkpt>
<trkpt lat="42.899254" lon="19.613461">
<ele>1448.766602</ele>
<time>2012-04-30T13:08:00Z</time>
<desc>lat.=42.899254, lon.=19.613461, Alt.=1448.766602m. Speed=1.836000m/h.</desc>
<speed>0.510000</speed>
</trkpt>
<trkpt lat="42.899239" lon="19.613468">
<ele>1448.891602</ele>
<time>2012-04-30T13:08:05Z</time>
<desc>lat.=42.899239, lon.=19.613468, Alt.=1448.891602m. Speed=1.188000m/h.</desc>
<speed>0.330000</speed>
</trkpt>
<trkpt lat="42.899242" lon="19.613461">
<ele>1449.204102</ele>
<time>2012-04-30T13:08:10Z</time>
<desc>lat.=42.899242, lon.=19.613461, Alt.=1449.204102m. Speed=1.728000m/h.</desc>
<speed>0.480000</speed>
</trkpt>
<trkpt lat="42.899250" lon="19.613466">
<ele>1449.141602</ele>
<time>2012-04-30T13:08:15Z</time>
<desc>lat.=42.899250, lon.=19.613466, Alt.=1449.141602m. Speed=0.504000m/h.</desc>
<speed>0.140000</speed>
</trkpt>
<trkpt lat="42.899261" lon="19.613462">
<ele>1449.204102</ele>
<time>2012-04-30T13:08:20Z</time>
<desc>lat.=42.899261, lon.=19.613462, Alt.=1449.204102m. Speed=1.044000m/h.</desc>
<speed>0.290000</speed>
</trkpt>
<trkpt lat="42.899281" lon="19.613455">
<ele>1449.141602</ele>
<time>2012-04-30T13:08:25Z</time>
<desc>lat.=42.899281, lon.=19.613455, Alt.=1449.141602m. Speed=1.080000m/h.</desc>
<speed>0.300000</speed>
</trkpt>
<trkpt lat="42.899277" lon="19.613445">
<ele>1449.297852</ele>
<time>2012-04-30T13:08:30Z</time>
<desc>lat.=42.899277, lon.=19.613445, Alt.=1449.297852m. Speed=0.324000m/h.</desc>
<speed>0.090000</speed>
</trkpt>
<trkpt lat="42.899277" lon="19.613443">
<ele>1449.329102</ele>
<time>2012-04-30T13:08:35Z</time>
<desc>lat.=42.899277, lon.=19.613443, Alt.=1449.329102m. Speed=0.288000m/h.</desc>
<speed>0.080000</speed>
</trkpt>
<trkpt lat="42.899349" lon="19.613422">
<ele>1449.391602</ele>
<time>2012-04-30T13:08:40Z</time>
<desc>lat.=42.899349, lon.=19.613422, Alt.=1449.391602m. Speed=1.224000m/h.</desc>
<speed>0.340000</speed>
</trkpt>
<trkpt lat="42.899414" lon="19.613453">
<ele>1449.641602</ele>
<time>2012-04-30T13:08:45Z</time>
<desc>lat.=42.899414, lon.=19.613453, Alt.=1449.641602m. Speed=0.144000m/h.</desc>
<speed>0.040000</speed>
</trkpt>
<trkpt lat="42.899410" lon="19.613457">
<ele>1449.766602</ele>
<time>2012-04-30T13:08:50Z</time>
<desc>lat.=42.899410, lon.=19.613457, Alt.=1449.766602m. Speed=0.144000m/h.</desc>
<speed>0.040000</speed>
</trkpt>
<trkpt lat="42.899410" lon="19.613457">
<ele>1449.891602</ele>
<time>2012-04-30T13:08:55Z</time>
<desc>lat.=42.899410, lon.=19.613457, Alt.=1449.891602m. Speed=0.180000m/h.</desc>
<speed>0.050000</speed>
</trkpt>
<trkpt lat="42.899410" lon="19.613461">
<ele>1449.922852</ele>
<time>2012-04-30T13:09:00Z</time>
<desc>lat.=42.899410, lon.=19.613461, Alt.=1449.922852m. Speed=0.288000m/h.</desc>
<speed>0.080000</speed>
</trkpt>
<trkpt lat="42.899406" lon="19.613464">
<ele>1449.922852</ele>
<time>2012-04-30T13:09:05Z</time>
<desc>lat.=42.899406, lon.=19.613464, Alt.=1449.922852m. Speed=0.684000m/h.</desc>
<speed>0.190000</speed>
</trkpt>
<trkpt lat="42.899395" lon="19.613476">
<ele>1450.047852</ele>
<time>2012-04-30T13:09:10Z</time>
<desc>lat.=42.899395, lon.=19.613476, Alt.=1450.047852m. Speed=1.008000m/h.</desc>
<speed>0.280000</speed>
</trkpt>
<trkpt lat="42.899384" lon="19.613518">
<ele>1450.422852</ele>
<time>2012-04-30T13:09:15Z</time>
<desc>lat.=42.899384, lon.=19.613518, Alt.=1450.422852m. Speed=0.612000m/h.</desc>
<speed>0.170000</speed>
</trkpt>
<trkpt lat="42.899376" lon="19.613520">
<ele>1450.547852</ele>
<time>2012-04-30T13:09:20Z</time>
<desc>lat.=42.899376, lon.=19.613520, Alt.=1450.547852m. Speed=0.396000m/h.</desc>
<speed>0.110000</speed>
</trkpt>
<trkpt lat="42.899372" lon="19.613529">
<ele>1450.735352</ele>
<time>2012-04-30T13:09:25Z</time>
<desc>lat.=42.899372, lon.=19.613529, Alt.=1450.735352m. Speed=0.432000m/h.</desc>
<speed>0.120000</speed>
</trkpt>
<trkpt lat="42.899368" lon="19.613533">
<ele>1450.954102</ele>
<time>2012-04-30T13:09:30Z</time>
<desc>lat.=42.899368, lon.=19.613533, Alt.=1450.954102m. Speed=0.108000m/h.</desc>
<speed>0.030000</speed>
</trkpt>
<trkpt lat="42.899368" lon="19.613531">
<ele>1451.172852</ele>
<time>2012-04-30T13:09:35Z</time>
<desc>lat.=42.899368, lon.=19.613531, Alt.=1451.172852m. Speed=0.180000m/h.</desc>
<speed>0.050000</speed>
</trkpt>
<trkpt lat="42.899368" lon="19.613531">
<ele>1451.235352</ele>
<time>2012-04-30T13:09:40Z</time>
<desc>lat.=42.899368, lon.=19.613531, Alt.=1451.235352m. Speed=0.072000m/h.</desc>
<speed>0.020000</speed>
</trkpt>
<trkpt lat="42.899368" lon="19.613531">
<ele>1451.235352</ele>
<time>2012-04-30T13:09:45Z</time>
<desc>lat.=42.899368, lon.=19.613531, Alt.=1451.235352m. Speed=0.072000m/h.</desc>
<speed>0.020000</speed>
</trkpt>
<trkpt lat="42.899364" lon="19.613533">
<ele>1451.235352</ele>
<time>2012-04-30T13:09:50Z</time>
<desc>lat.=42.899364, lon.=19.613533, Alt.=1451.235352m. Speed=0.036000m/h.</desc>
<speed>0.010000</speed>
</trkpt>
<trkpt lat="42.899364" lon="19.613531">
<ele>1451.235352</ele>
<time>2012-04-30T13:09:55Z</time>
<desc>lat.=42.899364, lon.=19.613531, Alt.=1451.235352m. Speed=0.036000m/h.</desc>
<speed>0.010000</speed>
</trkpt>
<trkpt lat="42.899364" lon="19.613531">
<ele>1451.266602</ele>
<time>2012-04-30T13:10:00Z</time>
<desc>lat.=42.899364, lon.=19.613531, Alt.=1451.266602m. Speed=0.036000m/h.</desc>
<speed>0.010000</speed>
</trkpt>
<trkpt lat="42.899364" lon="19.613531">
<ele>1451.235352</ele>
<time>2012-04-30T13:10:05Z</time>
<desc>lat.=42.899364, lon.=19.613531, Alt.=1451.235352m. Speed=0.000000m/h.</desc>
<speed>0.000000</speed>
</trkpt>
<trkpt lat="42.899364" lon="19.613531">
<ele>1451.235352</ele>
<time>2012-04-30T13:10:10Z</time>
<desc>lat.=42.899364, lon.=19.613531, Alt.=1451.235352m. Speed=0.000000m/h.</desc>
<speed>0.000000</speed>
</trkpt>
<trkpt lat="42.899364" lon="19.613529">
<ele>1451.266602</ele>
<time>2012-04-30T13:10:15Z</time>
<desc>lat.=42.899364, lon.=19.613529, Alt.=1451.266602m. Speed=0.036000m/h.</desc>
<speed>0.010000</speed>
</trkpt>
<trkpt lat="42.899364" lon="19.613529">
<ele>1451.297852</ele>
<time>2012-04-30T13:10:20Z</time>
<desc>lat.=42.899364, lon.=19.613529, Alt.=1451.297852m. Speed=0.036000m/h.</desc>
<speed>0.010000</speed>
</trkpt>
<trkpt lat="42.899364" lon="19.613529">
<ele>1451.329102</ele>
<time>2012-04-30T13:10:25Z</time>
<desc>lat.=42.899364, lon.=19.613529, Alt.=1451.329102m. Speed=0.072000m/h.</desc>
<speed>0.020000</speed>
</trkpt>
<trkpt lat="42.899364" lon="19.613527">
<ele>1451.360352</ele>
<time>2012-04-30T13:10:30Z</time>
<desc>lat.=42.899364, lon.=19.613527, Alt.=1451.360352m. Speed=0.108000m/h.</desc>
<speed>0.030000</speed>
</trkpt>
<trkpt lat="42.899364" lon="19.613527">
<ele>1451.391602</ele>
<time>2012-04-30T13:10:35Z</time>
<desc>lat.=42.899364, lon.=19.613527, Alt.=1451.391602m. Speed=0.036000m/h.</desc>
<speed>0.010000</speed>
</trkpt>
<trkpt lat="42.899364" lon="19.613525">
<ele>1451.454102</ele>
<time>2012-04-30T13:10:40Z</time>
<desc>lat.=42.899364, lon.=19.613525, Alt.=1451.454102m. Speed=0.108000m/h.</desc>
<speed>0.030000</speed>
</trkpt>
<trkpt lat="42.899364" lon="19.613523">
<ele>1451.485352</ele>
<time>2012-04-30T13:10:45Z</time>
<desc>lat.=42.899364, lon.=19.613523, Alt.=1451.485352m. Speed=0.072000m/h.</desc>
<speed>0.020000</speed>
</trkpt>
<trkpt lat="42.899364" lon="19.613523">
<ele>1451.516602</ele>
<time>2012-04-30T13:10:50Z</time>
<desc>lat.=42.899364, lon.=19.613523, Alt.=1451.516602m. Speed=0.036000m/h.</desc>
<speed>0.010000</speed>
</trkpt>
<trkpt lat="42.899364" lon="19.613522">
<ele>1451.516602</ele>
<time>2012-04-30T13:10:55Z</time>
<desc>lat.=42.899364, lon.=19.613522, Alt.=1451.516602m. Speed=0.108000m/h.</desc>
<speed>0.030000</speed>
</trkpt>
<trkpt lat="42.899364" lon="19.613522">
<ele>1451.516602</ele>
<time>2012-04-30T13:11:00Z</time>
<desc>lat.=42.899364, lon.=19.613522, Alt.=1451.516602m. Speed=0.108000m/h.</desc>
<speed>0.030000</speed>
</trkpt>
<trkpt lat="42.899368" lon="19.613523">
<ele>1451.547852</ele>
<time>2012-04-30T13:11:05Z</time>
<desc>lat.=42.899368, lon.=19.613523, Alt.=1451.547852m. Speed=0.216000m/h.</desc>
<speed>0.060000</speed>
</trkpt>
<trkpt lat="42.899368" lon="19.613523">
<ele>1451.610352</ele>
<time>2012-04-30T13:11:10Z</time>
<desc>lat.=42.899368, lon.=19.613523, Alt.=1451.610352m. Speed=0.000000m/h.</desc>
<speed>0.000000</speed>
</trkpt>
<trkpt lat="42.899368" lon="19.613523">
<ele>1451.641602</ele>
<time>2012-04-30T13:11:15Z</time>
<desc>lat.=42.899368, lon.=19.613523, Alt.=1451.641602m. Speed=0.000000m/h.</desc>
<speed>0.000000</speed>
</trkpt>
<trkpt lat="42.899368" lon="19.613523">
<ele>1451.672852</ele>
<time>2012-04-30T13:11:20Z</time>
<desc>lat.=42.899368, lon.=19.613523, Alt.=1451.672852m. Speed=0.000000m/h.</desc>
<speed>0.000000</speed>
</trkpt>
<trkpt lat="42.899368" lon="19.613523">
<ele>1451.672852</ele>
<time>2012-04-30T13:11:25Z</time>
<desc>lat.=42.899368, lon.=19.613523, Alt.=1451.672852m. Speed=0.000000m/h.</desc>
<speed>0.000000</speed>
</trkpt>
<trkpt lat="42.899368" lon="19.613523">
<ele>1451.641602</ele>
<time>2012-04-30T13:11:30Z</time>
<desc>lat.=42.899368, lon.=19.613523, Alt.=1451.641602m. Speed=0.108000m/h.</desc>
<speed>0.030000</speed>
</trkpt>
<trkpt lat="42.899368" lon="19.613523">
<ele>1451.641602</ele>
<time>2012-04-30T13:11:35Z</time>
<desc>lat.=42.899368, lon.=19.613523, Alt.=1451.641602m. Speed=0.036000m/h.</desc>
<speed>0.010000</speed>
</trkpt>
<trkpt lat="42.899368" lon="19.613523">
<ele>1451.641602</ele>
<time>2012-04-30T13:11:40Z</time>
<desc>lat.=42.899368, lon.=19.613523, Alt.=1451.641602m. Speed=0.180000m/h.</desc>
<speed>0.050000</speed>
</trkpt>
<trkpt lat="42.899368" lon="19.613523">
<ele>1451.672852</ele>
<time>2012-04-30T13:11:45Z</time>
<desc>lat.=42.899368, lon.=19.613523, Alt.=1451.672852m. Speed=0.108000m/h.</desc>
<speed>0.030000</speed>
</trkpt>
<trkpt lat="42.899368" lon="19.613522">
<ele>1451.704102</ele>
<time>2012-04-30T13:11:50Z</time>
<desc>lat.=42.899368, lon.=19.613522, Alt.=1451.704102m. Speed=0.000000m/h.</desc>
<speed>0.000000</speed>
</trkpt>
<trkpt lat="42.899368" lon="19.613520">
<ele>1451.766602</ele>
<time>2012-04-30T13:11:55Z</time>
<desc>lat.=42.899368, lon.=19.613520, Alt.=1451.766602m. Speed=0.180000m/h.</desc>
<speed>0.050000</speed>
</trkpt>
<trkpt lat="42.899368" lon="19.613518">
<ele>1451.954102</ele>
<time>2012-04-30T13:12:00Z</time>
<desc>lat.=42.899368, lon.=19.613518, Alt.=1451.954102m. Speed=0.036000m/h.</desc>
<speed>0.010000</speed>
</trkpt>
<trkpt lat="42.899368" lon="19.613518">
<ele>1452.110352</ele>
<time>2012-04-30T13:12:05Z</time>
<desc>lat.=42.899368, lon.=19.613518, Alt.=1452.110352m. Speed=0.036000m/h.</desc>
<speed>0.010000</speed>
</trkpt>
<trkpt lat="42.899368" lon="19.613518">
<ele>1452.141602</ele>
<time>2012-04-30T13:12:10Z</time>
<desc>lat.=42.899368, lon.=19.613518, Alt.=1452.141602m. Speed=0.000000m/h.</desc>
<speed>0.000000</speed>
</trkpt>
<trkpt lat="42.899368" lon="19.613518">
<ele>1452.172852</ele>
<time>2012-04-30T13:12:15Z</time>
<desc>lat.=42.899368, lon.=19.613518, Alt.=1452.172852m. Speed=0.000000m/h.</desc>
<speed>0.000000</speed>
</trkpt>
<trkpt lat="42.899368" lon="19.613518">
<ele>1452.235352</ele>
<time>2012-04-30T13:12:20Z</time>
<desc>lat.=42.899368, lon.=19.613518, Alt.=1452.235352m. Speed=0.000000m/h.</desc>
<speed>0.000000</speed>
</trkpt>
<trkpt lat="42.899368" lon="19.613518">
<ele>1452.266602</ele>
<time>2012-04-30T13:12:25Z</time>
<desc>lat.=42.899368, lon.=19.613518, Alt.=1452.266602m. Speed=0.000000m/h.</desc>
<speed>0.000000</speed>
</trkpt>
<trkpt lat="42.899368" lon="19.613516">
<ele>1452.360352</ele>
<time>2012-04-30T13:12:30Z</time>
<desc>lat.=42.899368, lon.=19.613516, Alt.=1452.360352m. Speed=0.108000m/h.</desc>
<speed>0.030000</speed>
</trkpt>
<trkpt lat="42.899368" lon="19.613516">
<ele>1452.485352</ele>
<time>2012-04-30T13:12:35Z</time>
<desc>lat.=42.899368, lon.=19.613516, Alt.=1452.485352m. Speed=0.036000m/h.</desc>
<speed>0.010000</speed>
</trkpt>
<trkpt lat="42.899368" lon="19.613516">
<ele>1452.547852</ele>
<time>2012-04-30T13:12:40Z</time>
<desc>lat.=42.899368, lon.=19.613516, Alt.=1452.547852m. Speed=0.036000m/h.</desc>
<speed>0.010000</speed>
</trkpt>
<trkpt lat="42.899368" lon="19.613516">
<ele>1452.610352</ele>
<time>2012-04-30T13:12:45Z</time>
<desc>lat.=42.899368, lon.=19.613516, Alt.=1452.610352m. Speed=0.036000m/h.</desc>
<speed>0.010000</speed>
</trkpt>
<trkpt lat="42.899368" lon="19.613516">
<ele>1452.704102</ele>
<time>2012-04-30T13:12:50Z</time>
<desc>lat.=42.899368, lon.=19.613516, Alt.=1452.704102m. Speed=0.000000m/h.</desc>
<speed>0.000000</speed>
</trkpt>
<trkpt lat="42.899368" lon="19.613518">
<ele>1452.735352</ele>
<time>2012-04-30T13:12:55Z</time>
<desc>lat.=42.899368, lon.=19.613518, Alt.=1452.735352m. Speed=0.072000m/h.</desc>
<speed>0.020000</speed>
</trkpt>
<trkpt lat="42.899368" lon="19.613518">
<ele>1452.735352</ele>
<time>2012-04-30T13:13:00Z</time>
<desc>lat.=42.899368, lon.=19.613518, Alt.=1452.735352m. Speed=0.072000m/h.</desc>
<speed>0.020000</speed>
</trkpt>
<trkpt lat="42.899372" lon="19.613518">
<ele>1452.766602</ele>
<time>2012-04-30T13:13:05Z</time>
<desc>lat.=42.899372, lon.=19.613518, Alt.=1452.766602m. Speed=0.036000m/h.</desc>
<speed>0.010000</speed>
</trkpt>
<trkpt lat="42.899372" lon="19.613520">
<ele>1452.766602</ele>
<time>2012-04-30T13:13:10Z</time>
<desc>lat.=42.899372, lon.=19.613520, Alt.=1452.766602m. Speed=0.036000m/h.</desc>
<speed>0.010000</speed>
</trkpt>
<trkpt lat="42.899372" lon="19.613518">
<ele>1452.797852</ele>
<time>2012-04-30T13:13:15Z</time>
<desc>lat.=42.899372, lon.=19.613518, Alt.=1452.797852m. Speed=0.036000m/h.</desc>
<speed>0.010000</speed>
</trkpt>
<trkpt lat="42.899372" lon="19.613518">
<ele>1452.860352</ele>
<time>2012-04-30T13:13:20Z</time>
<desc>lat.=42.899372, lon.=19.613518, Alt.=1452.860352m. Speed=0.036000m/h.</desc>
<speed>0.010000</speed>
</trkpt>
<trkpt lat="42.899372" lon="19.613518">
<ele>1453.016602</ele>
<time>2012-04-30T13:13:25Z</time>
<desc>lat.=42.899372, lon.=19.613518, Alt.=1453.016602m. Speed=0.252000m/h.</desc>
<speed>0.070000</speed>
</trkpt>
<trkpt lat="42.899372" lon="19.613514">
<ele>1453.266602</ele>
<time>2012-04-30T13:13:30Z</time>
<desc>lat.=42.899372, lon.=19.613514, Alt.=1453.266602m. Speed=0.216000m/h.</desc>
<speed>0.060000</speed>
</trkpt>
<trkpt lat="42.899376" lon="19.613510">
<ele>1453.360352</ele>
<time>2012-04-30T13:13:35Z</time>
<desc>lat.=42.899376, lon.=19.613510, Alt.=1453.360352m. Speed=0.072000m/h.</desc>
<speed>0.020000</speed>
</trkpt>
<trkpt lat="42.899376" lon="19.613508">
<ele>1453.422852</ele>
<time>2012-04-30T13:13:40Z</time>
<desc>lat.=42.899376, lon.=19.613508, Alt.=1453.422852m. Speed=0.144000m/h.</desc>
<speed>0.040000</speed>
</trkpt>
<trkpt lat="42.899372" lon="19.613506">
<ele>1453.391602</ele>
<time>2012-04-30T13:13:45Z</time>
<desc>lat.=42.899372, lon.=19.613506, Alt.=1453.391602m. Speed=0.036000m/h.</desc>
<speed>0.010000</speed>
</trkpt>
<trkpt lat="42.899372" lon="19.613504">
<ele>1453.391602</ele>
<time>2012-04-30T13:13:50Z</time>
<desc>lat.=42.899372, lon.=19.613504, Alt.=1453.391602m. Speed=0.072000m/h.</desc>
<speed>0.020000</speed>
</trkpt>
<trkpt lat="42.899372" lon="19.613504">
<ele>1453.422852</ele>
<time>2012-04-30T13:13:55Z</time>
<desc>lat.=42.899372, lon.=19.613504, Alt.=1453.422852m. Speed=0.036000m/h.</desc>
<speed>0.010000</speed>
</trkpt>
<trkpt lat="42.899372" lon="19.613504">
<ele>1453.454102</ele>
<time>2012-04-30T13:14:00Z</time>
<desc>lat.=42.899372, lon.=19.613504, Alt.=1453.454102m. Speed=0.072000m/h.</desc>
<speed>0.020000</speed>
</trkpt>
<trkpt lat="42.899372" lon="19.613504">
<ele>1453.454102</ele>
<time>2012-04-30T13:14:05Z</time>
<desc>lat.=42.899372, lon.=19.613504, Alt.=1453.454102m. Speed=0.036000m/h.</desc>
<speed>0.010000</speed>
</trkpt>
<trkpt lat="42.899372" lon="19.613503">
<ele>1453.485352</ele>
<time>2012-04-30T13:14:10Z</time>
<desc>lat.=42.899372, lon.=19.613503, Alt.=1453.485352m. Speed=0.180000m/h.</desc>
<speed>0.050000</speed>
</trkpt>
<trkpt lat="42.899376" lon="19.613503">
<ele>1453.516602</ele>
<time>2012-04-30T13:14:15Z</time>
<desc>lat.=42.899376, lon.=19.613503, Alt.=1453.516602m. Speed=0.036000m/h.</desc>
<speed>0.010000</speed>
</trkpt>
<trkpt lat="42.899376" lon="19.613503">
<ele>1453.547852</ele>
<time>2012-04-30T13:14:20Z</time>
<desc>lat.=42.899376, lon.=19.613503, Alt.=1453.547852m. Speed=0.000000m/h.</desc>
<speed>0.000000</speed>
</trkpt>
<trkpt lat="42.899376" lon="19.613503">
<ele>1453.547852</ele>
<time>2012-04-30T13:14:25Z</time>
<desc>lat.=42.899376, lon.=19.613503, Alt.=1453.547852m. Speed=0.072000m/h.</desc>
<speed>0.020000</speed>
</trkpt>
<trkpt lat="42.899376" lon="19.613503">
<ele>1453.547852</ele>
<time>2012-04-30T13:14:30Z</time>
<desc>lat.=42.899376, lon.=19.613503, Alt.=1453.547852m. Speed=0.072000m/h.</desc>
<speed>0.020000</speed>
</trkpt>
<trkpt lat="42.899376" lon="19.613503">
<ele>1453.547852</ele>
<time>2012-04-30T13:14:35Z</time>
<desc>lat.=42.899376, lon.=19.613503, Alt.=1453.547852m. Speed=0.108000m/h.</desc>
<speed>0.030000</speed>
</trkpt>
<trkpt lat="42.899376" lon="19.613501">
<ele>1453.547852</ele>
<time>2012-04-30T13:14:40Z</time>
<desc>lat.=42.899376, lon.=19.613501, Alt.=1453.547852m. Speed=0.108000m/h.</desc>
<speed>0.030000</speed>
</trkpt>
<trkpt lat="42.899376" lon="19.613503">
<ele>1453.516602</ele>
<time>2012-04-30T13:14:45Z</time>
<desc>lat.=42.899376, lon.=19.613503, Alt.=1453.516602m. Speed=0.108000m/h.</desc>
<speed>0.030000</speed>
</trkpt>
<trkpt lat="42.899376" lon="19.613503">
<ele>1453.516602</ele>
<time>2012-04-30T13:14:50Z</time>
<desc>lat.=42.899376, lon.=19.613503, Alt.=1453.516602m. Speed=0.000000m/h.</desc>
<speed>0.000000</speed>
</trkpt>
<trkpt lat="42.899376" lon="19.613503">
<ele>1453.516602</ele>
<time>2012-04-30T13:14:55Z</time>
<desc>lat.=42.899376, lon.=19.613503, Alt.=1453.516602m. Speed=0.036000m/h.</desc>
<speed>0.010000</speed>
</trkpt>
<trkpt lat="42.899376" lon="19.613504">
<ele>1453.516602</ele>
<time>2012-04-30T13:15:00Z</time>
<desc>lat.=42.899376, lon.=19.613504, Alt.=1453.516602m. Speed=0.144000m/h.</desc>
<speed>0.040000</speed>
</trkpt>
<trkpt lat="42.899376" lon="19.613504">
<ele>1453.547852</ele>
<time>2012-04-30T13:15:05Z</time>
<desc>lat.=42.899376, lon.=19.613504, Alt.=1453.547852m. Speed=0.036000m/h.</desc>
<speed>0.010000</speed>
</trkpt>
<trkpt lat="42.899376" lon="19.613504">
<ele>1453.579102</ele>
<time>2012-04-30T13:15:10Z</time>
<desc>lat.=42.899376, lon.=19.613504, Alt.=1453.579102m. Speed=0.036000m/h.</desc>
<speed>0.010000</speed>
</trkpt>
<trkpt lat="42.899376" lon="19.613504">
<ele>1453.579102</ele>
<time>2012-04-30T13:15:15Z</time>
<desc>lat.=42.899376, lon.=19.613504, Alt.=1453.579102m. Speed=0.036000m/h.</desc>
<speed>0.010000</speed>
</trkpt>
<trkpt lat="42.899376" lon="19.613506">
<ele>1453.610352</ele>
<time>2012-04-30T13:15:20Z</time>
<desc>lat.=42.899376, lon.=19.613506, Alt.=1453.610352m. Speed=0.072000m/h.</desc>
<speed>0.020000</speed>
</trkpt>
<trkpt lat="42.899380" lon="19.613506">
<ele>1453.641602</ele>
<time>2012-04-30T13:15:25Z</time>
<desc>lat.=42.899380, lon.=19.613506, Alt.=1453.641602m. Speed=0.000000m/h.</desc>
<speed>0.000000</speed>
</trkpt>
<trkpt lat="42.899380" lon="19.613506">
<ele>1453.641602</ele>
<time>2012-04-30T13:15:30Z</time>
<desc>lat.=42.899380, lon.=19.613506, Alt.=1453.641602m. Speed=0.036000m/h.</desc>
<speed>0.010000</speed>
</trkpt>
<trkpt lat="42.899376" lon="19.613506">
<ele>1453.672852</ele>
<time>2012-04-30T13:15:35Z</time>
<desc>lat.=42.899376, lon.=19.613506, Alt.=1453.672852m. Speed=0.108000m/h.</desc>
<speed>0.030000</speed>
</trkpt>
<trkpt lat="42.899376" lon="19.613506">
<ele>1453.704102</ele>
<time>2012-04-30T13:15:40Z</time>
<desc>lat.=42.899376, lon.=19.613506, Alt.=1453.704102m. Speed=0.036000m/h.</desc>
<speed>0.010000</speed>
</trkpt>
<trkpt lat="42.899376" lon="19.613506">
<ele>1453.735352</ele>
<time>2012-04-30T13:15:45Z</time>
<desc>lat.=42.899376, lon.=19.613506, Alt.=1453.735352m. Speed=0.216000m/h.</desc>
<speed>0.060000</speed>
</trkpt>
<trkpt lat="42.899376" lon="19.613506">
<ele>1453.766602</ele>
<time>2012-04-30T13:15:50Z</time>
<desc>lat.=42.899376, lon.=19.613506, Alt.=1453.766602m. Speed=0.036000m/h.</desc>
<speed>0.010000</speed>
</trkpt>
<trkpt lat="42.899376" lon="19.613506">
<ele>1453.797852</ele>
<time>2012-04-30T13:15:55Z</time>
<desc>lat.=42.899376, lon.=19.613506, Alt.=1453.797852m. Speed=0.072000m/h.</desc>
<speed>0.020000</speed>
</trkpt>
<trkpt lat="42.899376" lon="19.613506">
<ele>1453.860352</ele>
<time>2012-04-30T13:16:00Z</time>
<desc>lat.=42.899376, lon.=19.613506, Alt.=1453.860352m. Speed=0.072000m/h.</desc>
<speed>0.020000</speed>
</trkpt>
<trkpt lat="42.899372" lon="19.613506">
<ele>1453.954102</ele>
<time>2012-04-30T13:16:05Z</time>
<desc>lat.=42.899372, lon.=19.613506, Alt.=1453.954102m. Speed=0.036000m/h.</desc>
<speed>0.010000</speed>
</trkpt>
<trkpt lat="42.899376" lon="19.613504">
<ele>1454.016602</ele>
<time>2012-04-30T13:16:10Z</time>
<desc>lat.=42.899376, lon.=19.613504, Alt.=1454.016602m. Speed=0.108000m/h.</desc>
<speed>0.030000</speed>
</trkpt>
<trkpt lat="42.899376" lon="19.613503">
<ele>1454.047852</ele>
<time>2012-04-30T13:16:15Z</time>
<desc>lat.=42.899376, lon.=19.613503, Alt.=1454.047852m. Speed=0.108000m/h.</desc>
<speed>0.030000</speed>
</trkpt>
<trkpt lat="42.899376" lon="19.613503">
<ele>1454.172852</ele>
<time>2012-04-30T13:16:20Z</time>
<desc>lat.=42.899376, lon.=19.613503, Alt.=1454.172852m. Speed=0.072000m/h.</desc>
<speed>0.020000</speed>
</trkpt>
<trkpt lat="42.899376" lon="19.613501">
<ele>1454.235352</ele>
<time>2012-04-30T13:16:25Z</time>
<desc>lat.=42.899376, lon.=19.613501, Alt.=1454.235352m. Speed=0.072000m/h.</desc>
<speed>0.020000</speed>
</trkpt>
<trkpt lat="42.899376" lon="19.613501">
<ele>1454.266602</ele>
<time>2012-04-30T13:16:30Z</time>
<desc>lat.=42.899376, lon.=19.613501, Alt.=1454.266602m. Speed=0.036000m/h.</desc>
<speed>0.010000</speed>
</trkpt>
<trkpt lat="42.899376" lon="19.613501">
<ele>1454.235352</ele>
<time>2012-04-30T13:16:35Z</time>
<desc>lat.=42.899376, lon.=19.613501, Alt.=1454.235352m. Speed=0.108000m/h.</desc>
<speed>0.030000</speed>
</trkpt>
<trkpt lat="42.899376" lon="19.613503">
<ele>1454.204102</ele>
<time>2012-04-30T13:16:40Z</time>
<desc>lat.=42.899376, lon.=19.613503, Alt.=1454.204102m. Speed=0.036000m/h.</desc>
<speed>0.010000</speed>
</trkpt>
<trkpt lat="42.899376" lon="19.613503">
<ele>1454.204102</ele>
<time>2012-04-30T13:16:45Z</time>
<desc>lat.=42.899376, lon.=19.613503, Alt.=1454.204102m. Speed=0.000000m/h.</desc>
<speed>0.000000</speed>
</trkpt>
<trkpt lat="42.899376" lon="19.613503">
<ele>1454.204102</ele>
<time>2012-04-30T13:16:50Z</time>
<desc>lat.=42.899376, lon.=19.613503, Alt.=1454.204102m. Speed=0.000000m/h.</desc>
<speed>0.000000</speed>
</trkpt>
<trkpt lat="42.899376" lon="19.613503">
<ele>1454.204102</ele>
<time>2012-04-30T13:16:55Z</time>
<desc>lat.=42.899376, lon.=19.613503, Alt.=1454.204102m. Speed=0.036000m/h.</desc>
<speed>0.010000</speed>
</trkpt>
<trkpt lat="42.899376" lon="19.613503">
<ele>1454.172852</ele>
<time>2012-04-30T13:17:00Z</time>
<desc>lat.=42.899376, lon.=19.613503, Alt.=1454.172852m. Speed=0.036000m/h.</desc>
<speed>0.010000</speed>
</trkpt>
<trkpt lat="42.899376" lon="19.613504">
<ele>1454.141602</ele>
<time>2012-04-30T13:17:05Z</time>
<desc>lat.=42.899376, lon.=19.613504, Alt.=1454.141602m. Speed=0.036000m/h.</desc>
<speed>0.010000</speed>
</trkpt>
<trkpt lat="42.899376" lon="19.613504">
<ele>1454.172852</ele>
<time>2012-04-30T13:17:10Z</time>
<desc>lat.=42.899376, lon.=19.613504, Alt.=1454.172852m. Speed=0.072000m/h.</desc>
<speed>0.020000</speed>
</trkpt>
<trkpt lat="42.899376" lon="19.613504">
<ele>1454.204102</ele>
<time>2012-04-30T13:17:15Z</time>
<desc>lat.=42.899376, lon.=19.613504, Alt.=1454.204102m. Speed=0.036000m/h.</desc>
<speed>0.010000</speed>
</trkpt>
<trkpt lat="42.899376" lon="19.613504">
<ele>1454.235352</ele>
<time>2012-04-30T13:17:20Z</time>
<desc>lat.=42.899376, lon.=19.613504, Alt.=1454.235352m. Speed=0.036000m/h.</desc>
<speed>0.010000</speed>
</trkpt>
<trkpt lat="42.899376" lon="19.613504">
<ele>1454.329102</ele>
<time>2012-04-30T13:17:25Z</time>
<desc>lat.=42.899376, lon.=19.613504, Alt.=1454.329102m. Speed=0.072000m/h.</desc>
<speed>0.020000</speed>
</trkpt>
<trkpt lat="42.899372" lon="19.613504">
<ele>1454.329102</ele>
<time>2012-04-30T13:17:30Z</time>
<desc>lat.=42.899372, lon.=19.613504, Alt.=1454.329102m. Speed=0.000000m/h.</desc>
<speed>0.000000</speed>
</trkpt>
<trkpt lat="42.899372" lon="19.613504">
<ele>1454.329102</ele>
<time>2012-04-30T13:17:35Z</time>
<desc>lat.=42.899372, lon.=19.613504, Alt.=1454.329102m. Speed=0.000000m/h.</desc>
<speed>0.000000</speed>
</trkpt>
<trkpt lat="42.899372" lon="19.613504">
<ele>1454.329102</ele>
<time>2012-04-30T13:17:40Z</time>
<desc>lat.=42.899372, lon.=19.613504, Alt.=1454.329102m. Speed=0.036000m/h.</desc>
<speed>0.010000</speed>
</trkpt>
<trkpt lat="42.899372" lon="19.613504">
<ele>1454.329102</ele>
<time>2012-04-30T13:17:45Z</time>
<desc>lat.=42.899372, lon.=19.613504, Alt.=1454.329102m. Speed=0.036000m/h.</desc>
<speed>0.010000</speed>
</trkpt>
<trkpt lat="42.899372" lon="19.613504">
<ele>1454.360352</ele>
<time>2012-04-30T13:17:50Z</time>
<desc>lat.=42.899372, lon.=19.613504, Alt.=1454.360352m. Speed=0.288000m/h.</desc>
<speed>0.080000</speed>
</trkpt>
<trkpt lat="42.899372" lon="19.613504">
<ele>1454.360352</ele>
<time>2012-04-30T13:17:55Z</time>
<desc>lat.=42.899372, lon.=19.613504, Alt.=1454.360352m. Speed=0.108000m/h.</desc>
<speed>0.030000</speed>
</trkpt>
<trkpt lat="42.899372" lon="19.613501">
<ele>1454.391602</ele>
<time>2012-04-30T13:18:00Z</time>
<desc>lat.=42.899372, lon.=19.613501, Alt.=1454.391602m. Speed=0.108000m/h.</desc>
<speed>0.030000</speed>
</trkpt>
<trkpt lat="42.899372" lon="19.613501">
<ele>1454.454102</ele>
<time>2012-04-30T13:18:05Z</time>
<desc>lat.=42.899372, lon.=19.613501, Alt.=1454.454102m. Speed=0.036000m/h.</desc>
<speed>0.010000</speed>
</trkpt>
<trkpt lat="42.899372" lon="19.613499">
<ele>1454.485352</ele>
<time>2012-04-30T13:18:10Z</time>
<desc>lat.=42.899372, lon.=19.613499, Alt.=1454.485352m. Speed=0.108000m/h.</desc>
<speed>0.030000</speed>
</trkpt>
<trkpt lat="42.899372" lon="19.613499">
<ele>1454.516602</ele>
<time>2012-04-30T13:18:15Z</time>
<desc>lat.=42.899372, lon.=19.613499, Alt.=1454.516602m. Speed=0.036000m/h.</desc>
<speed>0.010000</speed>
</trkpt>
<trkpt lat="42.899372" lon="19.613499">
<ele>1454.547852</ele>
<time>2012-04-30T13:18:20Z</time>
<desc>lat.=42.899372, lon.=19.613499, Alt.=1454.547852m. Speed=0.000000m/h.</desc>
<speed>0.000000</speed>
</trkpt>
<trkpt lat="42.899372" lon="19.613499">
<ele>1454.547852</ele>
<time>2012-04-30T13:18:25Z</time>
<desc>lat.=42.899372, lon.=19.613499, Alt.=1454.547852m. Speed=0.036000m/h.</desc>
<speed>0.010000</speed>
</trkpt>
<trkpt lat="42.899372" lon="19.613497">
<ele>1454.547852</ele>
<time>2012-04-30T13:18:30Z</time>
<desc>lat.=42.899372, lon.=19.613497, Alt.=1454.547852m. Speed=0.360000m/h.</desc>
<speed>0.100000</speed>
</trkpt>
<trkpt lat="42.899372" lon="19.613497">
<ele>1454.547852</ele>
<time>2012-04-30T13:18:35Z</time>
<desc>lat.=42.899372, lon.=19.613497, Alt.=1454.547852m. Speed=0.036000m/h.</desc>
<speed>0.010000</speed>
</trkpt>
<trkpt lat="42.899372" lon="19.613497">
<ele>1454.547852</ele>
<time>2012-04-30T13:18:40Z</time>
<desc>lat.=42.899372, lon.=19.613497, Alt.=1454.547852m. Speed=0.288000m/h.</desc>
<speed>0.080000</speed>
</trkpt>
<trkpt lat="42.899326" lon="19.613510">
<ele>1455.016602</ele>
<time>2012-04-30T13:18:45Z</time>
<desc>lat.=42.899326, lon.=19.613510, Alt.=1455.016602m. Speed=5.544000m/h.</desc>
<speed>1.540000</speed>
</trkpt>
<trkpt lat="42.899265" lon="19.613571">
<ele>1455.297852</ele>
<time>2012-04-30T13:18:50Z</time>
<desc>lat.=42.899265, lon.=19.613571, Alt.=1455.297852m. Speed=2.556000m/h.</desc>
<speed>0.710000</speed>
</trkpt>
<trkpt lat="42.899227" lon="19.613602">
<ele>1455.547852</ele>
<time>2012-04-30T13:18:55Z</time>
<desc>lat.=42.899227, lon.=19.613602, Alt.=1455.547852m. Speed=4.680000m/h.</desc>
<speed>1.300000</speed>
</trkpt>
<trkpt lat="42.899132" lon="19.613626">
<ele>1456.922852</ele>
<time>2012-04-30T13:19:00Z</time>
<desc>lat.=42.899132, lon.=19.613626, Alt.=1456.922852m. Speed=2.664000m/h.</desc>
<speed>0.740000</speed>
</trkpt>
<trkpt lat="42.899033" lon="19.613695">
<ele>1458.454102</ele>
<time>2012-04-30T13:19:05Z</time>
<desc>lat.=42.899033, lon.=19.613695, Alt.=1458.454102m. Speed=4.176000m/h.</desc>
<speed>1.160000</speed>
</trkpt>
<trkpt lat="42.898960" lon="19.613785">
<ele>1459.516602</ele>
<time>2012-04-30T13:19:10Z</time>
<desc>lat.=42.898960, lon.=19.613785, Alt.=1459.516602m. Speed=4.176000m/h.</desc>
<speed>1.160000</speed>
</trkpt>
<trkpt lat="42.898911" lon="19.613855">
<ele>1459.860352</ele>
<time>2012-04-30T13:19:15Z</time>
<desc>lat.=42.898911, lon.=19.613855, Alt.=1459.860352m. Speed=4.176000m/h.</desc>
<speed>1.160000</speed>
</trkpt>
<trkpt lat="42.898838" lon="19.613962">
<ele>1461.047852</ele>
<time>2012-04-30T13:19:20Z</time>
<desc>lat.=42.898838, lon.=19.613962, Alt.=1461.047852m. Speed=5.184000m/h.</desc>
<speed>1.440000</speed>
</trkpt>
<trkpt lat="42.898800" lon="19.614119">
<ele>1461.922852</ele>
<time>2012-04-30T13:19:25Z</time>
<desc>lat.=42.898800, lon.=19.614119, Alt.=1461.922852m. Speed=5.580000m/h.</desc>
<speed>1.550000</speed>
</trkpt>
<trkpt lat="42.898773" lon="19.614260">
<ele>1463.516602</ele>
<time>2012-04-30T13:19:30Z</time>
<desc>lat.=42.898773, lon.=19.614260, Alt.=1463.516602m. Speed=4.860000m/h.</desc>
<speed>1.350000</speed>
</trkpt>
<trkpt lat="42.898697" lon="19.614363">
<ele>1465.110352</ele>
<time>2012-04-30T13:19:35Z</time>
<desc>lat.=42.898697, lon.=19.614363, Alt.=1465.110352m. Speed=6.264000m/h.</desc>
<speed>1.740000</speed>
</trkpt>
<trkpt lat="42.898605" lon="19.614437">
<ele>1466.172852</ele>
<time>2012-04-30T13:19:40Z</time>
<desc>lat.=42.898605, lon.=19.614437, Alt.=1466.172852m. Speed=3.132000m/h.</desc>
<speed>0.870000</speed>
</trkpt>
<trkpt lat="42.898571" lon="19.614492">
<ele>1467.985352</ele>
<time>2012-04-30T13:19:45Z</time>
<desc>lat.=42.898571, lon.=19.614492, Alt.=1467.985352m. Speed=3.348000m/h.</desc>
<speed>0.930000</speed>
</trkpt>
<trkpt lat="42.898483" lon="19.614491">
<ele>1470.797852</ele>
<time>2012-04-30T13:19:50Z</time>
<desc>lat.=42.898483, lon.=19.614491, Alt.=1470.797852m. Speed=6.840000m/h.</desc>
<speed>1.900000</speed>
</trkpt>
<trkpt lat="42.898369" lon="19.614523">
<ele>1472.235352</ele>
<time>2012-04-30T13:19:55Z</time>
<desc>lat.=42.898369, lon.=19.614523, Alt.=1472.235352m. Speed=2.880000m/h.</desc>
<speed>0.800000</speed>
</trkpt>
<trkpt lat="42.898304" lon="19.614567">
<ele>1472.641602</ele>
<time>2012-04-30T13:20:00Z</time>
<desc>lat.=42.898304, lon.=19.614567, Alt.=1472.641602m. Speed=3.924000m/h.</desc>
<speed>1.090000</speed>
</trkpt>
<trkpt lat="42.898243" lon="19.614685">
<ele>1470.860352</ele>
<time>2012-04-30T13:20:05Z</time>
<desc>lat.=42.898243, lon.=19.614685, Alt.=1470.860352m. Speed=5.292000m/h.</desc>
<speed>1.470000</speed>
</trkpt>
<trkpt lat="42.898163" lon="19.614748">
<ele>1471.422852</ele>
<time>2012-04-30T13:20:10Z</time>
<desc>lat.=42.898163, lon.=19.614748, Alt.=1471.422852m. Speed=5.436000m/h.</desc>
<speed>1.510000</speed>
</trkpt>
<trkpt lat="42.898079" lon="19.614782">
<ele>1471.547852</ele>
<time>2012-04-30T13:20:15Z</time>
<desc>lat.=42.898079, lon.=19.614782, Alt.=1471.547852m. Speed=5.832000m/h.</desc>
<speed>1.620000</speed>
</trkpt>
<trkpt lat="42.898056" lon="19.614868">
<ele>1471.985352</ele>
<time>2012-04-30T13:20:20Z</time>
<desc>lat.=42.898056, lon.=19.614868, Alt.=1471.985352m. Speed=5.832000m/h.</desc>
<speed>1.620000</speed>
</trkpt>
<trkpt lat="42.897980" lon="19.614922">
<ele>1471.391602</ele>
<time>2012-04-30T13:20:25Z</time>
<desc>lat.=42.897980, lon.=19.614922, Alt.=1471.391602m. Speed=3.816000m/h.</desc>
<speed>1.060000</speed>
</trkpt>
<trkpt lat="42.897930" lon="19.614977">
<ele>1471.079102</ele>
<time>2012-04-30T13:20:30Z</time>
<desc>lat.=42.897930, lon.=19.614977, Alt.=1471.079102m. Speed=4.284000m/h.</desc>
<speed>1.190000</speed>
</trkpt>
<trkpt lat="42.897869" lon="19.615044">
<ele>1472.641602</ele>
<time>2012-04-30T13:20:35Z</time>
<desc>lat.=42.897869, lon.=19.615044, Alt.=1472.641602m. Speed=4.680000m/h.</desc>
<speed>1.300000</speed>
</trkpt>
<trkpt lat="42.897839" lon="19.615074">
<ele>1473.485352</ele>
<time>2012-04-30T13:20:40Z</time>
<desc>lat.=42.897839, lon.=19.615074, Alt.=1473.485352m. Speed=3.600000m/h.</desc>
<speed>1.000000</speed>
</trkpt>
<trkpt lat="42.897831" lon="19.615147">
<ele>1475.360352</ele>
<time>2012-04-30T13:20:45Z</time>
<desc>lat.=42.897831, lon.=19.615147, Alt.=1475.360352m. Speed=3.240000m/h.</desc>
<speed>0.900000</speed>
</trkpt>
<trkpt lat="42.897816" lon="19.615322">
<ele>1473.641602</ele>
<time>2012-04-30T13:20:50Z</time>
<desc>lat.=42.897816, lon.=19.615322, Alt.=1473.641602m. Speed=4.500000m/h.</desc>
<speed>1.250000</speed>
</trkpt>
<trkpt lat="42.897800" lon="19.615398">
<ele>1473.860352</ele>
<time>2012-04-30T13:20:55Z</time>
<desc>lat.=42.897800, lon.=19.615398, Alt.=1473.860352m. Speed=2.016000m/h.</desc>
<speed>0.560000</speed>
</trkpt>
<trkpt lat="42.897789" lon="19.615538">
<ele>1473.672852</ele>
<time>2012-04-30T13:21:00Z</time>
<desc>lat.=42.897789, lon.=19.615538, Alt.=1473.672852m. Speed=3.672000m/h.</desc>
<speed>1.020000</speed>
</trkpt>
<trkpt lat="42.897800" lon="19.615631">
<ele>1475.047852</ele>
<time>2012-04-30T13:21:05Z</time>
<desc>lat.=42.897800, lon.=19.615631, Alt.=1475.047852m. Speed=3.960000m/h.</desc>
<speed>1.100000</speed>
</trkpt>
<trkpt lat="42.897804" lon="19.615761">
<ele>1474.766602</ele>
<time>2012-04-30T13:21:10Z</time>
<desc>lat.=42.897804, lon.=19.615761, Alt.=1474.766602m. Speed=5.256000m/h.</desc>
<speed>1.460000</speed>
</trkpt>
<trkpt lat="42.897797" lon="19.615873">
<ele>1474.766602</ele>
<time>2012-04-30T13:21:15Z</time>
<desc>lat.=42.897797, lon.=19.615873, Alt.=1474.766602m. Speed=4.032000m/h.</desc>
<speed>1.120000</speed>
</trkpt>
<trkpt lat="42.897842" lon="19.615889">
<ele>1475.360352</ele>
<time>2012-04-30T13:21:20Z</time>
<desc>lat.=42.897842, lon.=19.615889, Alt.=1475.360352m. Speed=1.044000m/h.</desc>
<speed>0.290000</speed>
</trkpt>
<trkpt lat="42.897839" lon="19.615835">
<ele>1475.329102</ele>
<time>2012-04-30T13:21:25Z</time>
<desc>lat.=42.897839, lon.=19.615835, Alt.=1475.329102m. Speed=4.032000m/h.</desc>
<speed>1.120000</speed>
</trkpt>
<trkpt lat="42.897865" lon="19.615770">
<ele>1475.110352</ele>
<time>2012-04-30T13:21:30Z</time>
<desc>lat.=42.897865, lon.=19.615770, Alt.=1475.110352m. Speed=3.852000m/h.</desc>
<speed>1.070000</speed>
</trkpt>
<trkpt lat="42.897884" lon="19.615730">
<ele>1475.797852</ele>
<time>2012-04-30T13:21:35Z</time>
<desc>lat.=42.897884, lon.=19.615730, Alt.=1475.797852m. Speed=3.024000m/h.</desc>
<speed>0.840000</speed>
</trkpt>
<trkpt lat="42.897911" lon="19.615667">
<ele>1476.516602</ele>
<time>2012-04-30T13:21:40Z</time>
<desc>lat.=42.897911, lon.=19.615667, Alt.=1476.516602m. Speed=5.292000m/h.</desc>
<speed>1.470000</speed>
</trkpt>
<trkpt lat="42.897980" lon="19.615635">
<ele>1478.579102</ele>
<time>2012-04-30T13:21:45Z</time>
<desc>lat.=42.897980, lon.=19.615635, Alt.=1478.579102m. Speed=4.248000m/h.</desc>
<speed>1.180000</speed>
</trkpt>
<trkpt lat="42.898041" lon="19.615561">
<ele>1479.172852</ele>
<time>2012-04-30T13:21:50Z</time>
<desc>lat.=42.898041, lon.=19.615561, Alt.=1479.172852m. Speed=5.940000m/h.</desc>
<speed>1.650000</speed>
</trkpt>
<trkpt lat="42.898079" lon="19.615480">
<ele>1478.829102</ele>
<time>2012-04-30T13:21:55Z</time>
<desc>lat.=42.898079, lon.=19.615480, Alt.=1478.829102m. Speed=3.672000m/h.</desc>
<speed>1.020000</speed>
</trkpt>
<trkpt lat="42.898170" lon="19.615423">
<ele>1478.329102</ele>
<time>2012-04-30T13:22:00Z</time>
<desc>lat.=42.898170, lon.=19.615423, Alt.=1478.329102m. Speed=4.068000m/h.</desc>
<speed>1.130000</speed>
</trkpt>
<trkpt lat="42.898224" lon="19.615364">
<ele>1478.047852</ele>
<time>2012-04-30T13:22:05Z</time>
<desc>lat.=42.898224, lon.=19.615364, Alt.=1478.047852m. Speed=3.168000m/h.</desc>
<speed>0.880000</speed>
</trkpt>
<trkpt lat="42.898331" lon="19.615358">
<ele>1483.110352</ele>
<time>2012-04-30T13:22:10Z</time>
<desc>lat.=42.898331, lon.=19.615358, Alt.=1483.110352m. Speed=4.176000m/h.</desc>
<speed>1.160000</speed>
</trkpt>
<trkpt lat="42.898426" lon="19.615318">
<ele>1483.704102</ele>
<time>2012-04-30T13:22:15Z</time>
<desc>lat.=42.898426, lon.=19.615318, Alt.=1483.704102m. Speed=2.196000m/h.</desc>
<speed>0.610000</speed>
</trkpt>
<trkpt lat="42.898518" lon="19.615322">
<ele>1485.235352</ele>
<time>2012-04-30T13:22:20Z</time>
<desc>lat.=42.898518, lon.=19.615322, Alt.=1485.235352m. Speed=4.176000m/h.</desc>
<speed>1.160000</speed>
</trkpt>
<trkpt lat="42.898586" lon="19.615349">
<ele>1487.579102</ele>
<time>2012-04-30T13:22:25Z</time>
<desc>lat.=42.898586, lon.=19.615349, Alt.=1487.579102m. Speed=4.068000m/h.</desc>
<speed>1.130000</speed>
</trkpt>
<trkpt lat="42.898659" lon="19.615307">
<ele>1490.391602</ele>
<time>2012-04-30T13:22:30Z</time>
<desc>lat.=42.898659, lon.=19.615307, Alt.=1490.391602m. Speed=3.852000m/h.</desc>
<speed>1.070000</speed>
</trkpt>
<trkpt lat="42.898727" lon="19.615301">
<ele>1493.735352</ele>
<time>2012-04-30T13:22:35Z</time>
<desc>lat.=42.898727, lon.=19.615301, Alt.=1493.735352m. Speed=4.176000m/h.</desc>
<speed>1.160000</speed>
</trkpt>
<trkpt lat="42.898788" lon="19.615223">
<ele>1494.454102</ele>
<time>2012-04-30T13:22:40Z</time>
<desc>lat.=42.898788, lon.=19.615223, Alt.=1494.454102m. Speed=3.168000m/h.</desc>
<speed>0.880000</speed>
</trkpt>
<trkpt lat="42.898876" lon="19.615194">
<ele>1496.704102</ele>
<time>2012-04-30T13:22:45Z</time>
<desc>lat.=42.898876, lon.=19.615194, Alt.=1496.704102m. Speed=2.592000m/h.</desc>
<speed>0.720000</speed>
</trkpt>
<trkpt lat="42.898922" lon="19.615145">
<ele>1498.485352</ele>
<time>2012-04-30T13:22:50Z</time>
<desc>lat.=42.898922, lon.=19.615145, Alt.=1498.485352m. Speed=3.528000m/h.</desc>
<speed>0.980000</speed>
</trkpt>
<trkpt lat="42.898972" lon="19.615112">
<ele>1500.672852</ele>
<time>2012-04-30T13:22:55Z</time>
<desc>lat.=42.898972, lon.=19.615112, Alt.=1500.672852m. Speed=2.448000m/h.</desc>
<speed>0.680000</speed>
</trkpt>
<trkpt lat="42.898998" lon="19.615055">
<ele>1501.797852</ele>
<time>2012-04-30T13:23:00Z</time>
<desc>lat.=42.898998, lon.=19.615055, Alt.=1501.797852m. Speed=1.980000m/h.</desc>
<speed>0.550000</speed>
</trkpt>
<trkpt lat="42.899071" lon="19.614992">
<ele>1504.172852</ele>
<time>2012-04-30T13:23:05Z</time>
<desc>lat.=42.899071, lon.=19.614992, Alt.=1504.172852m. Speed=2.376000m/h.</desc>
<speed>0.660000</speed>
</trkpt>
<trkpt lat="42.899147" lon="19.614933">
<ele>1506.110352</ele>
<time>2012-04-30T13:23:10Z</time>
<desc>lat.=42.899147, lon.=19.614933, Alt.=1506.110352m. Speed=4.068000m/h.</desc>
<speed>1.130000</speed>
</trkpt>
<trkpt lat="42.899220" lon="19.614885">
<ele>1507.579102</ele>
<time>2012-04-30T13:23:15Z</time>
<desc>lat.=42.899220, lon.=19.614885, Alt.=1507.579102m. Speed=3.744000m/h.</desc>
<speed>1.040000</speed>
</trkpt>
<trkpt lat="42.899269" lon="19.614830">
<ele>1509.141602</ele>
<time>2012-04-30T13:23:20Z</time>
<desc>lat.=42.899269, lon.=19.614830, Alt.=1509.141602m. Speed=2.844000m/h.</desc>
<speed>0.790000</speed>
</trkpt>
<trkpt lat="42.899307" lon="19.614784">
<ele>1510.016602</ele>
<time>2012-04-30T13:23:25Z</time>
<desc>lat.=42.899307, lon.=19.614784, Alt.=1510.016602m. Speed=1.728000m/h.</desc>
<speed>0.480000</speed>
</trkpt>
<trkpt lat="42.899338" lon="19.614719">
<ele>1511.579102</ele>
<time>2012-04-30T13:23:30Z</time>
<desc>lat.=42.899338, lon.=19.614719, Alt.=1511.579102m. Speed=1.908000m/h.</desc>
<speed>0.530000</speed>
</trkpt>
<trkpt lat="42.899403" lon="19.614639">
<ele>1511.266602</ele>
<time>2012-04-30T13:23:35Z</time>
<desc>lat.=42.899403, lon.=19.614639, Alt.=1511.266602m. Speed=3.528000m/h.</desc>
<speed>0.980000</speed>
</trkpt>
<trkpt lat="42.899506" lon="19.614605">
<ele>1512.266602</ele>
<time>2012-04-30T13:23:40Z</time>
<desc>lat.=42.899506, lon.=19.614605, Alt.=1512.266602m. Speed=2.520000m/h.</desc>
<speed>0.700000</speed>
</trkpt>
<trkpt lat="42.899555" lon="19.614574">
<ele>1512.766602</ele>
<time>2012-04-30T13:23:45Z</time>
<desc>lat.=42.899555, lon.=19.614574, Alt.=1512.766602m. Speed=4.392000m/h.</desc>
<speed>1.220000</speed>
</trkpt>
<trkpt lat="42.899479" lon="19.614561">
<ele>1514.110352</ele>
<time>2012-04-30T13:23:50Z</time>
<desc>lat.=42.899479, lon.=19.614561, Alt.=1514.110352m. Speed=2.880000m/h.</desc>
<speed>0.800000</speed>
</trkpt>
<trkpt lat="42.899448" lon="19.614559">
<ele>1515.141602</ele>
<time>2012-04-30T13:23:55Z</time>
<desc>lat.=42.899448, lon.=19.614559, Alt.=1515.141602m. Speed=4.320000m/h.</desc>
<speed>1.200000</speed>
</trkpt>
<trkpt lat="42.899448" lon="19.614590">
<ele>1514.797852</ele>
<time>2012-04-30T13:24:00Z</time>
<desc>lat.=42.899448, lon.=19.614590, Alt.=1514.797852m. Speed=3.024000m/h.</desc>
<speed>0.840000</speed>
</trkpt>
<trkpt lat="42.899418" lon="19.614635">
<ele>1514.922852</ele>
<time>2012-04-30T13:24:05Z</time>
<desc>lat.=42.899418, lon.=19.614635, Alt.=1514.922852m. Speed=3.384000m/h.</desc>
<speed>0.940000</speed>
</trkpt>
<trkpt lat="42.899395" lon="19.614676">
<ele>1514.547852</ele>
<time>2012-04-30T13:24:10Z</time>
<desc>lat.=42.899395, lon.=19.614676, Alt.=1514.547852m. Speed=4.140000m/h.</desc>
<speed>1.150000</speed>
</trkpt>
<trkpt lat="42.899349" lon="19.614723">
<ele>1515.204102</ele>
<time>2012-04-30T13:24:15Z</time>
<desc>lat.=42.899349, lon.=19.614723, Alt.=1515.204102m. Speed=4.104000m/h.</desc>
<speed>1.140000</speed>
</trkpt>
<trkpt lat="42.899307" lon="19.614790">
<ele>1516.547852</ele>
<time>2012-04-30T13:24:20Z</time>
<desc>lat.=42.899307, lon.=19.614790, Alt.=1516.547852m. Speed=1.764000m/h.</desc>
<speed>0.490000</speed>
</trkpt>
<trkpt lat="42.899303" lon="19.614897">
<ele>1516.860352</ele>
<time>2012-04-30T13:24:25Z</time>
<desc>lat.=42.899303, lon.=19.614897, Alt.=1516.860352m. Speed=2.412000m/h.</desc>
<speed>0.670000</speed>
</trkpt>
<trkpt lat="42.899261" lon="19.614983">
<ele>1518.610352</ele>
<time>2012-04-30T13:24:30Z</time>
<desc>lat.=42.899261, lon.=19.614983, Alt.=1518.610352m. Speed=3.312000m/h.</desc>
<speed>0.920000</speed>
</trkpt>
<trkpt lat="42.899246" lon="19.615097">
<ele>1517.704102</ele>
<time>2012-04-30T13:24:35Z</time>
<desc>lat.=42.899246, lon.=19.615097, Alt.=1517.704102m. Speed=3.492000m/h.</desc>
<speed>0.970000</speed>
</trkpt>
<trkpt lat="42.899223" lon="19.615145">
<ele>1517.172852</ele>
<time>2012-04-30T13:24:40Z</time>
<desc>lat.=42.899223, lon.=19.615145, Alt.=1517.172852m. Speed=2.700000m/h.</desc>
<speed>0.750000</speed>
</trkpt>
<trkpt lat="42.899178" lon="19.615194">
<ele>1517.672852</ele>
<time>2012-04-30T13:24:45Z</time>
<desc>lat.=42.899178, lon.=19.615194, Alt.=1517.672852m. Speed=2.952000m/h.</desc>
<speed>0.820000</speed>
</trkpt>
<trkpt lat="42.899124" lon="19.615229">
<ele>1517.891602</ele>
<time>2012-04-30T13:24:50Z</time>
<desc>lat.=42.899124, lon.=19.615229, Alt.=1517.891602m. Speed=2.952000m/h.</desc>
<speed>0.820000</speed>
</trkpt>
<trkpt lat="42.899101" lon="19.615290">
<ele>1519.016602</ele>
<time>2012-04-30T13:24:55Z</time>
<desc>lat.=42.899101, lon.=19.615290, Alt.=1519.016602m. Speed=2.628000m/h.</desc>
<speed>0.730000</speed>
</trkpt>
<trkpt lat="42.899036" lon="19.615353">
<ele>1518.547852</ele>
<time>2012-04-30T13:25:00Z</time>
<desc>lat.=42.899036, lon.=19.615353, Alt.=1518.547852m. Speed=4.608000m/h.</desc>
<speed>1.280000</speed>
</trkpt>
<trkpt lat="42.898968" lon="19.615459">
<ele>1519.266602</ele>
<time>2012-04-30T13:25:05Z</time>
<desc>lat.=42.898968, lon.=19.615459, Alt.=1519.266602m. Speed=6.120000m/h.</desc>
<speed>1.700000</speed>
</trkpt>
<trkpt lat="42.898911" lon="19.615568">
<ele>1518.579102</ele>
<time>2012-04-30T13:25:10Z</time>
<desc>lat.=42.898911, lon.=19.615568, Alt.=1518.579102m. Speed=5.040000m/h.</desc>
<speed>1.400000</speed>
</trkpt>
<trkpt lat="42.898861" lon="19.615669">
<ele>1519.204102</ele>
<time>2012-04-30T13:25:15Z</time>
<desc>lat.=42.898861, lon.=19.615669, Alt.=1519.204102m. Speed=4.536000m/h.</desc>
<speed>1.260000</speed>
</trkpt>
<trkpt lat="42.898811" lon="19.615683">
<ele>1519.297852</ele>
<time>2012-04-30T13:25:20Z</time>
<desc>lat.=42.898811, lon.=19.615683, Alt.=1519.297852m. Speed=2.736000m/h.</desc>
<speed>0.760000</speed>
</trkpt>
<trkpt lat="42.898811" lon="19.615740">
<ele>1519.766602</ele>
<time>2012-04-30T13:25:25Z</time>
<desc>lat.=42.898811, lon.=19.615740, Alt.=1519.766602m. Speed=2.664000m/h.</desc>
<speed>0.740000</speed>
</trkpt>
<trkpt lat="42.898754" lon="19.615805">
<ele>1521.266602</ele>
<time>2012-04-30T13:25:30Z</time>
<desc>lat.=42.898754, lon.=19.615805, Alt.=1521.266602m. Speed=7.524000m/h.</desc>
<speed>2.090000</speed>
</trkpt>
<trkpt lat="42.898659" lon="19.615858">
<ele>1522.110352</ele>
<time>2012-04-30T13:25:35Z</time>
<desc>lat.=42.898659, lon.=19.615858, Alt.=1522.110352m. Speed=4.932000m/h.</desc>
<speed>1.370000</speed>
</trkpt>
<trkpt lat="42.898590" lon="19.615900">
<ele>1521.954102</ele>
<time>2012-04-30T13:25:40Z</time>
<desc>lat.=42.898590, lon.=19.615900, Alt.=1521.954102m. Speed=3.420000m/h.</desc>
<speed>0.950000</speed>
</trkpt>
<trkpt lat="42.898521" lon="19.615927">
<ele>1522.641602</ele>
<time>2012-04-30T13:25:45Z</time>
<desc>lat.=42.898521, lon.=19.615927, Alt.=1522.641602m. Speed=5.112000m/h.</desc>
<speed>1.420000</speed>
</trkpt>
<trkpt lat="42.898495" lon="19.616009">
<ele>1520.985352</ele>
<time>2012-04-30T13:25:50Z</time>
<desc>lat.=42.898495, lon.=19.616009, Alt.=1520.985352m. Speed=2.592000m/h.</desc>
<speed>0.720000</speed>
</trkpt>
<trkpt lat="42.898491" lon="19.616074">
<ele>1520.016602</ele>
<time>2012-04-30T13:25:55Z</time>
<desc>lat.=42.898491, lon.=19.616074, Alt.=1520.016602m. Speed=2.664000m/h.</desc>
<speed>0.740000</speed>
</trkpt>
<trkpt lat="42.898483" lon="19.616167">
<ele>1517.891602</ele>
<time>2012-04-30T13:26:00Z</time>
<desc>lat.=42.898483, lon.=19.616167, Alt.=1517.891602m. Speed=3.420000m/h.</desc>
<speed>0.950000</speed>
</trkpt>
<trkpt lat="42.898506" lon="19.616245">
<ele>1517.266602</ele>
<time>2012-04-30T13:26:05Z</time>
<desc>lat.=42.898506, lon.=19.616245, Alt.=1517.266602m. Speed=4.104000m/h.</desc>
<speed>1.140000</speed>
</trkpt>
<trkpt lat="42.898552" lon="19.616285">
<ele>1518.297852</ele>
<time>2012-04-30T13:26:10Z</time>
<desc>lat.=42.898552, lon.=19.616285, Alt.=1518.297852m. Speed=1.440000m/h.</desc>
<speed>0.400000</speed>
</trkpt>
<trkpt lat="42.898552" lon="19.616304">
<ele>1518.641602</ele>
<time>2012-04-30T13:26:15Z</time>
<desc>lat.=42.898552, lon.=19.616304, Alt.=1518.641602m. Speed=0.684000m/h.</desc>
<speed>0.190000</speed>
</trkpt>
<trkpt lat="42.898540" lon="19.616316">
<ele>1518.516602</ele>
<time>2012-04-30T13:26:20Z</time>
<desc>lat.=42.898540, lon.=19.616316, Alt.=1518.516602m. Speed=0.180000m/h.</desc>
<speed>0.050000</speed>
</trkpt>
<trkpt lat="42.898571" lon="19.616331">
<ele>1518.860352</ele>
<time>2012-04-30T13:26:25Z</time>
<desc>lat.=42.898571, lon.=19.616331, Alt.=1518.860352m. Speed=2.016000m/h.</desc>
<speed>0.560000</speed>
</trkpt>
<trkpt lat="42.898586" lon="19.616306">
<ele>1520.360352</ele>
<time>2012-04-30T13:26:30Z</time>
<desc>lat.=42.898586, lon.=19.616306, Alt.=1520.360352m. Speed=2.124000m/h.</desc>
<speed>0.590000</speed>
</trkpt>
<trkpt lat="42.898624" lon="19.616295">
<ele>1521.641602</ele>
<time>2012-04-30T13:26:35Z</time>
<desc>lat.=42.898624, lon.=19.616295, Alt.=1521.641602m. Speed=1.800000m/h.</desc>
<speed>0.500000</speed>
</trkpt>
<trkpt lat="42.898670" lon="19.616287">
<ele>1523.235352</ele>
<time>2012-04-30T13:26:40Z</time>
<desc>lat.=42.898670, lon.=19.616287, Alt.=1523.235352m. Speed=2.880000m/h.</desc>
<speed>0.800000</speed>
</trkpt>
<trkpt lat="42.898685" lon="19.616243">
<ele>1523.922852</ele>
<time>2012-04-30T13:26:45Z</time>
<desc>lat.=42.898685, lon.=19.616243, Alt.=1523.922852m. Speed=0.504000m/h.</desc>
<speed>0.140000</speed>
</trkpt>
<trkpt lat="42.898697" lon="19.616224">
<ele>1522.891602</ele>
<time>2012-04-30T13:26:50Z</time>
<desc>lat.=42.898697, lon.=19.616224, Alt.=1522.891602m. Speed=0.288000m/h.</desc>
<speed>0.080000</speed>
</trkpt>
<trkpt lat="42.898689" lon="19.616196">
<ele>1522.610352</ele>
<time>2012-04-30T13:26:55Z</time>
<desc>lat.=42.898689, lon.=19.616196, Alt.=1522.610352m. Speed=0.108000m/h.</desc>
<speed>0.030000</speed>
</trkpt>
<trkpt lat="42.898689" lon="19.616184">
<ele>1522.391602</ele>
<time>2012-04-30T13:27:00Z</time>
<desc>lat.=42.898689, lon.=19.616184, Alt.=1522.391602m. Speed=0.108000m/h.</desc>
<speed>0.030000</speed>
</trkpt>
<trkpt lat="42.898689" lon="19.616184">
<ele>1522.329102</ele>
<time>2012-04-30T13:27:05Z</time>
<desc>lat.=42.898689, lon.=19.616184, Alt.=1522.329102m. Speed=0.144000m/h.</desc>
<speed>0.040000</speed>
</trkpt>
<trkpt lat="42.898693" lon="19.616179">
<ele>1522.297852</ele>
<time>2012-04-30T13:27:10Z</time>
<desc>lat.=42.898693, lon.=19.616179, Alt.=1522.297852m. Speed=0.972000m/h.</desc>
<speed>0.270000</speed>
</trkpt>
<trkpt lat="42.898708" lon="19.616192">
<ele>1522.329102</ele>
<time>2012-04-30T13:27:15Z</time>
<desc>lat.=42.898708, lon.=19.616192, Alt.=1522.329102m. Speed=0.468000m/h.</desc>
<speed>0.130000</speed>
</trkpt>
<trkpt lat="42.898705" lon="19.616188">
<ele>1522.329102</ele>
<time>2012-04-30T13:27:20Z</time>
<desc>lat.=42.898705, lon.=19.616188, Alt.=1522.329102m. Speed=0.216000m/h.</desc>
<speed>0.060000</speed>
</trkpt>
<trkpt lat="42.898701" lon="19.616182">
<ele>1522.422852</ele>
<time>2012-04-30T13:27:25Z</time>
<desc>lat.=42.898701, lon.=19.616182, Alt.=1522.422852m. Speed=0.324000m/h.</desc>
<speed>0.090000</speed>
</trkpt>
<trkpt lat="42.898697" lon="19.616179">
<ele>1522.485352</ele>
<time>2012-04-30T13:27:30Z</time>
<desc>lat.=42.898697, lon.=19.616179, Alt.=1522.485352m. Speed=0.216000m/h.</desc>
<speed>0.060000</speed>
</trkpt>
<trkpt lat="42.898697" lon="19.616177">
<ele>1522.360352</ele>
<time>2012-04-30T13:27:35Z</time>
<desc>lat.=42.898697, lon.=19.616177, Alt.=1522.360352m. Speed=0.036000m/h.</desc>
<speed>0.010000</speed>
</trkpt>
<trkpt lat="42.898697" lon="19.616175">
<ele>1522.235352</ele>
<time>2012-04-30T13:27:40Z</time>
<desc>lat.=42.898697, lon.=19.616175, Alt.=1522.235352m. Speed=0.036000m/h.</desc>
<speed>0.010000</speed>
</trkpt>
<trkpt lat="42.898697" lon="19.616175">
<ele>1522.235352</ele>
<time>2012-04-30T13:27:45Z</time>
<desc>lat.=42.898697, lon.=19.616175, Alt.=1522.235352m. Speed=0.144000m/h.</desc>
<speed>0.040000</speed>
</trkpt>
<trkpt lat="42.898697" lon="19.616175">
<ele>1522.235352</ele>
<time>2012-04-30T13:27:50Z</time>
<desc>lat.=42.898697, lon.=19.616175, Alt.=1522.235352m. Speed=0.036000m/h.</desc>
<speed>0.010000</speed>
</trkpt>
<trkpt lat="42.898697" lon="19.616175">
<ele>1522.235352</ele>
<time>2012-04-30T13:27:55Z</time>
<desc>lat.=42.898697, lon.=19.616175, Alt.=1522.235352m. Speed=0.036000m/h.</desc>
<speed>0.010000</speed>
</trkpt>
<trkpt lat="42.898697" lon="19.616173">
<ele>1522.235352</ele>
<time>2012-04-30T13:28:00Z</time>
<desc>lat.=42.898697, lon.=19.616173, Alt.=1522.235352m. Speed=0.036000m/h.</desc>
<speed>0.010000</speed>
</trkpt>
<trkpt lat="42.898697" lon="19.616173">
<ele>1522.235352</ele>
<time>2012-04-30T13:28:05Z</time>
<desc>lat.=42.898697, lon.=19.616173, Alt.=1522.235352m. Speed=0.000000m/h.</desc>
<speed>0.000000</speed>
</trkpt>
<trkpt lat="42.898697" lon="19.616173">
<ele>1522.235352</ele>
<time>2012-04-30T13:28:10Z</time>
<desc>lat.=42.898697, lon.=19.616173, Alt.=1522.235352m. Speed=0.036000m/h.</desc>
<speed>0.010000</speed>
</trkpt>
<trkpt lat="42.898697" lon="19.616175">
<ele>1522.172852</ele>
<time>2012-04-30T13:28:15Z</time>
<desc>lat.=42.898697, lon.=19.616175, Alt.=1522.172852m. Speed=0.252000m/h.</desc>
<speed>0.070000</speed>
</trkpt>
<trkpt lat="42.898697" lon="19.616175">
<ele>1522.141602</ele>
<time>2012-04-30T13:28:20Z</time>
<desc>lat.=42.898697, lon.=19.616175, Alt.=1522.141602m. Speed=0.180000m/h.</desc>
<speed>0.050000</speed>
</trkpt>
<trkpt lat="42.898701" lon="19.616177">
<ele>1522.110352</ele>
<time>2012-04-30T13:28:25Z</time>
<desc>lat.=42.898701, lon.=19.616177, Alt.=1522.110352m. Speed=0.036000m/h.</desc>
<speed>0.010000</speed>
</trkpt>
<trkpt lat="42.898701" lon="19.616179">
<ele>1522.110352</ele>
<time>2012-04-30T13:28:30Z</time>
<desc>lat.=42.898701, lon.=19.616179, Alt.=1522.110352m. Speed=0.036000m/h.</desc>
<speed>0.010000</speed>
</trkpt>
<trkpt lat="42.898701" lon="19.616179">
<ele>1522.110352</ele>
<time>2012-04-30T13:28:35Z</time>
<desc>lat.=42.898701, lon.=19.616179, Alt.=1522.110352m. Speed=0.108000m/h.</desc>
<speed>0.030000</speed>
</trkpt>
<trkpt lat="42.898697" lon="19.616177">
<ele>1522.141602</ele>
<time>2012-04-30T13:28:40Z</time>
<desc>lat.=42.898697, lon.=19.616177, Alt.=1522.141602m. Speed=0.180000m/h.</desc>
<speed>0.050000</speed>
</trkpt>
<trkpt lat="42.898697" lon="19.616177">
<ele>1522.172852</ele>
<time>2012-04-30T13:28:45Z</time>
<desc>lat.=42.898697, lon.=19.616177, Alt.=1522.172852m. Speed=0.000000m/h.</desc>
<speed>0.000000</speed>
</trkpt>
<trkpt lat="42.898697" lon="19.616179">
<ele>1522.204102</ele>
<time>2012-04-30T13:28:50Z</time>
<desc>lat.=42.898697, lon.=19.616179, Alt.=1522.204102m. Speed=0.036000m/h.</desc>
<speed>0.010000</speed>
</trkpt>
<trkpt lat="42.898697" lon="19.616179">
<ele>1522.172852</ele>
<time>2012-04-30T13:28:55Z</time>
<desc>lat.=42.898697, lon.=19.616179, Alt.=1522.172852m. Speed=0.000000m/h.</desc>
<speed>0.000000</speed>
</trkpt>
<trkpt lat="42.898697" lon="19.616179">
<ele>1522.172852</ele>
<time>2012-04-30T13:29:00Z</time>
<desc>lat.=42.898697, lon.=19.616179, Alt.=1522.172852m. Speed=0.036000m/h.</desc>
<speed>0.010000</speed>
</trkpt>
<trkpt lat="42.898697" lon="19.616179">
<ele>1522.141602</ele>
<time>2012-04-30T13:29:05Z</time>
<desc>lat.=42.898697, lon.=19.616179, Alt.=1522.141602m. Speed=0.000000m/h.</desc>
<speed>0.000000</speed>
</trkpt>
<trkpt lat="42.898697" lon="19.616179">
<ele>1522.172852</ele>
<time>2012-04-30T13:29:10Z</time>
<desc>lat.=42.898697, lon.=19.616179, Alt.=1522.172852m. Speed=0.036000m/h.</desc>
<speed>0.010000</speed>
</trkpt>
<trkpt lat="42.898697" lon="19.616179">
<ele>1522.172852</ele>
<time>2012-04-30T13:29:15Z</time>
<desc>lat.=42.898697, lon.=19.616179, Alt.=1522.172852m. Speed=0.036000m/h.</desc>
<speed>0.010000</speed>
</trkpt>
<trkpt lat="42.898693" lon="19.616179">
<ele>1522.141602</ele>
<time>2012-04-30T13:29:20Z</time>
<desc>lat.=42.898693, lon.=19.616179, Alt.=1522.141602m. Speed=0.072000m/h.</desc>
<speed>0.020000</speed>
</trkpt>
<trkpt lat="42.898693" lon="19.616179">
<ele>1522.079102</ele>
<time>2012-04-30T13:29:25Z</time>
<desc>lat.=42.898693, lon.=19.616179, Alt.=1522.079102m. Speed=0.072000m/h.</desc>
<speed>0.020000</speed>
</trkpt>
<trkpt lat="42.898693" lon="19.616177">
<ele>1522.047852</ele>
<time>2012-04-30T13:29:30Z</time>
<desc>lat.=42.898693, lon.=19.616177, Alt.=1522.047852m. Speed=0.072000m/h.</desc>
<speed>0.020000</speed>
</trkpt>
<trkpt lat="42.898693" lon="19.616177">
<ele>1522.016602</ele>
<time>2012-04-30T13:29:35Z</time>
<desc>lat.=42.898693, lon.=19.616177, Alt.=1522.016602m. Speed=0.180000m/h.</desc>
<speed>0.050000</speed>
</trkpt>
<trkpt lat="42.898689" lon="19.616177">
<ele>1521.860352</ele>
<time>2012-04-30T13:29:40Z</time>
<desc>lat.=42.898689, lon.=19.616177, Alt.=1521.860352m. Speed=0.180000m/h.</desc>
<speed>0.050000</speed>
</trkpt>
<trkpt lat="42.898689" lon="19.616177">
<ele>1521.766602</ele>
<time>2012-04-30T13:29:45Z</time>
<desc>lat.=42.898689, lon.=19.616177, Alt.=1521.766602m. Speed=0.072000m/h.</desc>
<speed>0.020000</speed>
</trkpt>
<trkpt lat="42.898689" lon="19.616177">
<ele>1521.766602</ele>
<time>2012-04-30T13:29:50Z</time>
<desc>lat.=42.898689, lon.=19.616177, Alt.=1521.766602m. Speed=0.000000m/h.</desc>
<speed>0.000000</speed>
</trkpt>
<trkpt lat="42.898689" lon="19.616177">
<ele>1521.735352</ele>
<time>2012-04-30T13:29:55Z</time>
<desc>lat.=42.898689, lon.=19.616177, Alt.=1521.735352m. Speed=0.000000m/h.</desc>
<speed>0.000000</speed>
</trkpt>
<trkpt lat="42.898689" lon="19.616177">
<ele>1521.766602</ele>
<time>2012-04-30T13:30:00Z</time>
<desc>lat.=42.898689, lon.=19.616177, Alt.=1521.766602m. Speed=0.036000m/h.</desc>
<speed>0.010000</speed>
</trkpt>
<trkpt lat="42.898689" lon="19.616177">
<ele>1521.797852</ele>
<time>2012-04-30T13:30:05Z</time>
<desc>lat.=42.898689, lon.=19.616177, Alt.=1521.797852m. Speed=0.000000m/h.</desc>
<speed>0.000000</speed>
</trkpt>
<trkpt lat="42.898685" lon="19.616175">
<ele>1521.797852</ele>
<time>2012-04-30T13:30:10Z</time>
<desc>lat.=42.898685, lon.=19.616175, Alt.=1521.797852m. Speed=0.180000m/h.</desc>
<speed>0.050000</speed>
</trkpt>
<trkpt lat="42.898682" lon="19.616175">
<ele>1521.797852</ele>
<time>2012-04-30T13:30:15Z</time>
<desc>lat.=42.898682, lon.=19.616175, Alt.=1521.797852m. Speed=0.108000m/h.</desc>
<speed>0.030000</speed>
</trkpt>
<trkpt lat="42.898682" lon="19.616175">
<ele>1521.829102</ele>
<time>2012-04-30T13:30:20Z</time>
<desc>lat.=42.898682, lon.=19.616175, Alt.=1521.829102m. Speed=0.036000m/h.</desc>
<speed>0.010000</speed>
</trkpt>
<trkpt lat="42.898682" lon="19.616175">
<ele>1521.860352</ele>
<time>2012-04-30T13:30:25Z</time>
<desc>lat.=42.898682, lon.=19.616175, Alt.=1521.860352m. Speed=0.036000m/h.</desc>
<speed>0.010000</speed>
</trkpt>
<trkpt lat="42.898682" lon="19.616175">
<ele>1521.891602</ele>
<time>2012-04-30T13:30:30Z</time>
<desc>lat.=42.898682, lon.=19.616175, Alt.=1521.891602m. Speed=0.072000m/h.</desc>
<speed>0.020000</speed>
</trkpt>
<trkpt lat="42.898682" lon="19.616175">
<ele>1521.922852</ele>
<time>2012-04-30T13:30:35Z</time>
<desc>lat.=42.898682, lon.=19.616175, Alt.=1521.922852m. Speed=0.000000m/h.</desc>
<speed>0.000000</speed>
</trkpt>
<trkpt lat="42.898682" lon="19.616175">
<ele>1521.922852</ele>
<time>2012-04-30T13:30:40Z</time>
<desc>lat.=42.898682, lon.=19.616175, Alt.=1521.922852m. Speed=0.000000m/h.</desc>
<speed>0.000000</speed>
</trkpt>
<trkpt lat="42.898682" lon="19.616175">
<ele>1521.954102</ele>
<time>2012-04-30T13:30:45Z</time>
<desc>lat.=42.898682, lon.=19.616175, Alt.=1521.954102m. Speed=0.036000m/h.</desc>
<speed>0.010000</speed>
</trkpt>
<trkpt lat="42.898682" lon="19.616175">
<ele>1521.954102</ele>
<time>2012-04-30T13:30:50Z</time>
<desc>lat.=42.898682, lon.=19.616175, Alt.=1521.954102m. Speed=0.000000m/h.</desc>
<speed>0.000000</speed>
</trkpt>
<trkpt lat="42.898682" lon="19.616175">
<ele>1521.954102</ele>
<time>2012-04-30T13:30:55Z</time>
<desc>lat.=42.898682, lon.=19.616175, Alt.=1521.954102m. Speed=0.000000m/h.</desc>
<speed>0.000000</speed>
</trkpt>
<trkpt lat="42.898682" lon="19.616175">
<ele>1521.954102</ele>
<time>2012-04-30T13:31:00Z</time>
<desc>lat.=42.898682, lon.=19.616175, Alt.=1521.954102m. Speed=0.216000m/h.</desc>
<speed>0.060000</speed>
</trkpt>
<trkpt lat="42.898682" lon="19.616175">
<ele>1521.954102</ele>
<time>2012-04-30T13:31:05Z</time>
<desc>lat.=42.898682, lon.=19.616175, Alt.=1521.954102m. Speed=0.036000m/h.</desc>
<speed>0.010000</speed>
</trkpt>
<trkpt lat="42.898682" lon="19.616175">
<ele>1521.954102</ele>
<time>2012-04-30T13:31:10Z</time>
<desc>lat.=42.898682, lon.=19.616175, Alt.=1521.954102m. Speed=0.036000m/h.</desc>
<speed>0.010000</speed>
</trkpt>
<trkpt lat="42.898682" lon="19.616175">
<ele>1521.954102</ele>
<time>2012-04-30T13:31:15Z</time>
<desc>lat.=42.898682, lon.=19.616175, Alt.=1521.954102m. Speed=0.036000m/h.</desc>
<speed>0.010000</speed>
</trkpt>
<trkpt lat="42.898678" lon="19.616175">
<ele>1521.954102</ele>
<time>2012-04-30T13:31:20Z</time>
<desc>lat.=42.898678, lon.=19.616175, Alt.=1521.954102m. Speed=0.036000m/h.</desc>
<speed>0.010000</speed>
</trkpt>
<trkpt lat="42.898678" lon="19.616175">
<ele>1521.954102</ele>
<time>2012-04-30T13:31:25Z</time>
<desc>lat.=42.898678, lon.=19.616175, Alt.=1521.954102m. Speed=0.000000m/h.</desc>
<speed>0.000000</speed>
</trkpt>
<trkpt lat="42.898678" lon="19.616175">
<ele>1521.954102</ele>
<time>2012-04-30T13:31:30Z</time>
<desc>lat.=42.898678, lon.=19.616175, Alt.=1521.954102m. Speed=0.036000m/h.</desc>
<speed>0.010000</speed>
</trkpt>
<trkpt lat="42.898678" lon="19.616175">
<ele>1521.985352</ele>
<time>2012-04-30T13:31:35Z</time>
<desc>lat.=42.898678, lon.=19.616175, Alt.=1521.985352m. Speed=0.036000m/h.</desc>
<speed>0.010000</speed>
</trkpt>
<trkpt lat="42.898678" lon="19.616177">
<ele>1521.985352</ele>
<time>2012-04-30T13:31:40Z</time>
<desc>lat.=42.898678, lon.=19.616177, Alt.=1521.985352m. Speed=0.000000m/h.</desc>
<speed>0.000000</speed>
</trkpt>
<trkpt lat="42.898678" lon="19.616177">
<ele>1521.985352</ele>
<time>2012-04-30T13:31:45Z</time>
<desc>lat.=42.898678, lon.=19.616177, Alt.=1521.985352m. Speed=0.036000m/h.</desc>
<speed>0.010000</speed>
</trkpt>
<trkpt lat="42.898678" lon="19.616175">
<ele>1522.016602</ele>
<time>2012-04-30T13:31:50Z</time>
<desc>lat.=42.898678, lon.=19.616175, Alt.=1522.016602m. Speed=0.144000m/h.</desc>
<speed>0.040000</speed>
</trkpt>
<trkpt lat="42.898678" lon="19.616175">
<ele>1522.047852</ele>
<time>2012-04-30T13:31:55Z</time>
<desc>lat.=42.898678, lon.=19.616175, Alt.=1522.047852m. Speed=0.252000m/h.</desc>
<speed>0.070000</speed>
</trkpt>
<trkpt lat="42.898674" lon="19.616173">
<ele>1522.079102</ele>
<time>2012-04-30T13:32:00Z</time>
<desc>lat.=42.898674, lon.=19.616173, Alt.=1522.079102m. Speed=0.000000m/h.</desc>
<speed>0.000000</speed>
</trkpt>
<trkpt lat="42.898674" lon="19.616173">
<ele>1522.079102</ele>
<time>2012-04-30T13:32:05Z</time>
<desc>lat.=42.898674, lon.=19.616173, Alt.=1522.079102m. Speed=0.036000m/h.</desc>
<speed>0.010000</speed>
</trkpt>
<trkpt lat="42.898674" lon="19.616175">
<ele>1522.079102</ele>
<time>2012-04-30T13:32:10Z</time>
<desc>lat.=42.898674, lon.=19.616175, Alt.=1522.079102m. Speed=0.000000m/h.</desc>
<speed>0.000000</speed>
</trkpt>
<trkpt lat="42.898674" lon="19.616175">
<ele>1522.079102</ele>
<time>2012-04-30T13:32:15Z</time>
<desc>lat.=42.898674, lon.=19.616175, Alt.=1522.079102m. Speed=0.036000m/h.</desc>
<speed>0.010000</speed>
</trkpt>
<trkpt lat="42.898674" lon="19.616175">
<ele>1522.079102</ele>
<time>2012-04-30T13:32:20Z</time>
<desc>lat.=42.898674, lon.=19.616175, Alt.=1522.079102m. Speed=0.072000m/h.</desc>
<speed>0.020000</speed>
</trkpt>
<trkpt lat="42.898674" lon="19.616173">
<ele>1522.141602</ele>
<time>2012-04-30T13:32:25Z</time>
<desc>lat.=42.898674, lon.=19.616173, Alt.=1522.141602m. Speed=0.108000m/h.</desc>
<speed>0.030000</speed>
</trkpt>
<trkpt lat="42.898670" lon="19.616173">
<ele>1522.141602</ele>
<time>2012-04-30T13:32:30Z</time>
<desc>lat.=42.898670, lon.=19.616173, Alt.=1522.141602m. Speed=0.072000m/h.</desc>
<speed>0.020000</speed>
</trkpt>
<trkpt lat="42.898670" lon="19.616173">
<ele>1522.141602</ele>
<time>2012-04-30T13:32:35Z</time>
<desc>lat.=42.898670, lon.=19.616173, Alt.=1522.141602m. Speed=0.000000m/h.</desc>
<speed>0.000000</speed>
</trkpt>
<trkpt lat="42.898670" lon="19.616173">
<ele>1522.141602</ele>
<time>2012-04-30T13:32:40Z</time>
<desc>lat.=42.898670, lon.=19.616173, Alt.=1522.141602m. Speed=0.036000m/h.</desc>
<speed>0.010000</speed>
</trkpt>
<trkpt lat="42.898670" lon="19.616173">
<ele>1522.110352</ele>
<time>2012-04-30T13:32:45Z</time>
<desc>lat.=42.898670, lon.=19.616173, Alt.=1522.110352m. Speed=0.000000m/h.</desc>
<speed>0.000000</speed>
</trkpt>
<trkpt lat="42.898670" lon="19.616173">
<ele>1522.110352</ele>
<time>2012-04-30T13:32:50Z</time>
<desc>lat.=42.898670, lon.=19.616173, Alt.=1522.110352m. Speed=0.000000m/h.</desc>
<speed>0.000000</speed>
</trkpt>
<trkpt lat="42.898670" lon="19.616173">
<ele>1522.110352</ele>
<time>2012-04-30T13:32:55Z</time>
<desc>lat.=42.898670, lon.=19.616173, Alt.=1522.110352m. Speed=0.000000m/h.</desc>
<speed>0.000000</speed>
</trkpt>
<trkpt lat="42.898670" lon="19.616173">
<ele>1522.141602</ele>
<time>2012-04-30T13:33:00Z</time>
<desc>lat.=42.898670, lon.=19.616173, Alt.=1522.141602m. Speed=0.000000m/h.</desc>
<speed>0.000000</speed>
</trkpt>
<trkpt lat="42.898670" lon="19.616173">
<ele>1522.141602</ele>
<time>2012-04-30T13:33:05Z</time>
<desc>lat.=42.898670, lon.=19.616173, Alt.=1522.141602m. Speed=0.000000m/h.</desc>
<speed>0.000000</speed>
</trkpt>
<trkpt lat="42.898670" lon="19.616173">
<ele>1522.172852</ele>
<time>2012-04-30T13:33:10Z</time>
<desc>lat.=42.898670, lon.=19.616173, Alt.=1522.172852m. Speed=0.072000m/h.</desc>
<speed>0.020000</speed>
</trkpt>
<trkpt lat="42.898670" lon="19.616173">
<ele>1522.172852</ele>
<time>2012-04-30T13:33:15Z</time>
<desc>lat.=42.898670, lon.=19.616173, Alt.=1522.172852m. Speed=0.036000m/h.</desc>
<speed>0.010000</speed>
</trkpt>
<trkpt lat="42.898670" lon="19.616173">
<ele>1522.204102</ele>
<time>2012-04-30T13:33:20Z</time>
<desc>lat.=42.898670, lon.=19.616173, Alt.=1522.204102m. Speed=0.072000m/h.</desc>
<speed>0.020000</speed>
</trkpt>
<trkpt lat="42.898670" lon="19.616173">
<ele>1522.204102</ele>
<time>2012-04-30T13:33:25Z</time>
<desc>lat.=42.898670, lon.=19.616173, Alt.=1522.204102m. Speed=0.036000m/h.</desc>
<speed>0.010000</speed>
</trkpt>
<trkpt lat="42.898674" lon="19.616173">
<ele>1521.516602</ele>
<time>2012-04-30T13:33:30Z</time>
<desc>lat.=42.898674, lon.=19.616173, Alt.=1521.516602m. Speed=0.360000m/h.</desc>
<speed>0.100000</speed>
</trkpt>
<trkpt lat="42.898670" lon="19.616161">
<ele>1522.047852</ele>
<time>2012-04-30T13:33:35Z</time>
<desc>lat.=42.898670, lon.=19.616161, Alt.=1522.047852m. Speed=0.504000m/h.</desc>
<speed>0.140000</speed>
</trkpt>
<trkpt lat="42.898666" lon="19.616171">
<ele>1520.672852</ele>
<time>2012-04-30T13:33:40Z</time>
<desc>lat.=42.898666, lon.=19.616171, Alt.=1520.672852m. Speed=0.036000m/h.</desc>
<speed>0.010000</speed>
</trkpt>
<trkpt lat="42.898666" lon="19.616171">
<ele>1520.610352</ele>
<time>2012-04-30T13:33:45Z</time>
<desc>lat.=42.898666, lon.=19.616171, Alt.=1520.610352m. Speed=0.000000m/h.</desc>
<speed>0.000000</speed>
</trkpt>
<trkpt lat="42.898666" lon="19.616171">
<ele>1520.610352</ele>
<time>2012-04-30T13:33:50Z</time>
<desc>lat.=42.898666, lon.=19.616171, Alt.=1520.610352m. Speed=0.000000m/h.</desc>
<speed>0.000000</speed>
</trkpt>
<trkpt lat="42.898666" lon="19.616171">
<ele>1520.610352</ele>
<time>2012-04-30T13:33:55Z</time>
<desc>lat.=42.898666, lon.=19.616171, Alt.=1520.610352m. Speed=0.000000m/h.</desc>
<speed>0.000000</speed>
</trkpt>
<trkpt lat="42.898666" lon="19.616171">
<ele>1520.610352</ele>
<time>2012-04-30T13:34:00Z</time>
<desc>lat.=42.898666, lon.=19.616171, Alt.=1520.610352m. Speed=0.000000m/h.</desc>
<speed>0.000000</speed>
</trkpt>
<trkpt lat="42.898666" lon="19.616171">
<ele>1520.641602</ele>
<time>2012-04-30T13:34:05Z</time>
<desc>lat.=42.898666, lon.=19.616171, Alt.=1520.641602m. Speed=0.036000m/h.</desc>
<speed>0.010000</speed>
</trkpt>
<trkpt lat="42.898666" lon="19.616171">
<ele>1520.672852</ele>
<time>2012-04-30T13:34:10Z</time>
<desc>lat.=42.898666, lon.=19.616171, Alt.=1520.672852m. Speed=0.000000m/h.</desc>
<speed>0.000000</speed>
</trkpt>
<trkpt lat="42.898663" lon="19.616171">
<ele>1520.704102</ele>
<time>2012-04-30T13:34:15Z</time>
<desc>lat.=42.898663, lon.=19.616171, Alt.=1520.704102m. Speed=0.036000m/h.</desc>
<speed>0.010000</speed>
</trkpt>
<trkpt lat="42.898663" lon="19.616171">
<ele>1520.735352</ele>
<time>2012-04-30T13:34:20Z</time>
<desc>lat.=42.898663, lon.=19.616171, Alt.=1520.735352m. Speed=0.540000m/h.</desc>
<speed>0.150000</speed>
</trkpt>
<trkpt lat="42.898670" lon="19.616169">
<ele>1520.797852</ele>
<time>2012-04-30T13:34:25Z</time>
<desc>lat.=42.898670, lon.=19.616169, Alt.=1520.797852m. Speed=0.036000m/h.</desc>
<speed>0.010000</speed>
</trkpt>
<trkpt lat="42.898670" lon="19.616169">
<ele>1520.829102</ele>
<time>2012-04-30T13:34:30Z</time>
<desc>lat.=42.898670, lon.=19.616169, Alt.=1520.829102m. Speed=0.036000m/h.</desc>
<speed>0.010000</speed>
</trkpt>
<trkpt lat="42.898670" lon="19.616169">
<ele>1520.797852</ele>
<time>2012-04-30T13:34:35Z</time>
<desc>lat.=42.898670, lon.=19.616169, Alt.=1520.797852m. Speed=0.036000m/h.</desc>
<speed>0.010000</speed>
</trkpt>
<trkpt lat="42.898670" lon="19.616169">
<ele>1520.797852</ele>
<time>2012-04-30T13:34:40Z</time>
<desc>lat.=42.898670, lon.=19.616169, Alt.=1520.797852m. Speed=0.072000m/h.</desc>
<speed>0.020000</speed>
</trkpt>
<trkpt lat="42.898670" lon="19.616169">
<ele>1520.829102</ele>
<time>2012-04-30T13:34:45Z</time>
<desc>lat.=42.898670, lon.=19.616169, Alt.=1520.829102m. Speed=0.324000m/h.</desc>
<speed>0.090000</speed>
</trkpt>
<trkpt lat="42.898678" lon="19.616165">
<ele>1520.954102</ele>
<time>2012-04-30T13:34:50Z</time>
<desc>lat.=42.898678, lon.=19.616165, Alt.=1520.954102m. Speed=1.188000m/h.</desc>
<speed>0.330000</speed>
</trkpt>
<trkpt lat="42.898735" lon="19.616148">
<ele>1521.110352</ele>
<time>2012-04-30T13:34:55Z</time>
<desc>lat.=42.898735, lon.=19.616148, Alt.=1521.110352m. Speed=3.672000m/h.</desc>
<speed>1.020000</speed>
</trkpt>
<trkpt lat="42.898834" lon="19.616125">
<ele>1521.860352</ele>
<time>2012-04-30T13:35:00Z</time>
<desc>lat.=42.898834, lon.=19.616125, Alt.=1521.860352m. Speed=5.112000m/h.</desc>
<speed>1.420000</speed>
</trkpt>
<trkpt lat="42.898914" lon="19.616087">
<ele>1524.016602</ele>
<time>2012-04-30T13:35:05Z</time>
<desc>lat.=42.898914, lon.=19.616087, Alt.=1524.016602m. Speed=3.852000m/h.</desc>
<speed>1.070000</speed>
</trkpt>
<trkpt lat="42.898975" lon="19.616083">
<ele>1525.266602</ele>
<time>2012-04-30T13:35:10Z</time>
<desc>lat.=42.898975, lon.=19.616083, Alt.=1525.266602m. Speed=2.952000m/h.</desc>
<speed>0.820000</speed>
</trkpt>
<trkpt lat="42.899052" lon="19.616072">
<ele>1527.547852</ele>
<time>2012-04-30T13:35:15Z</time>
<desc>lat.=42.899052, lon.=19.616072, Alt.=1527.547852m. Speed=3.960000m/h.</desc>
<speed>1.100000</speed>
</trkpt>
<trkpt lat="42.899136" lon="19.616060">
<ele>1529.172852</ele>
<time>2012-04-30T13:35:20Z</time>
<desc>lat.=42.899136, lon.=19.616060, Alt.=1529.172852m. Speed=2.268000m/h.</desc>
<speed>0.630000</speed>
</trkpt>
<trkpt lat="42.899197" lon="19.616013">
<ele>1529.391602</ele>
<time>2012-04-30T13:35:25Z</time>
<desc>lat.=42.899197, lon.=19.616013, Alt.=1529.391602m. Speed=3.348000m/h.</desc>
<speed>0.930000</speed>
</trkpt>
<trkpt lat="42.899250" lon="19.615980">
<ele>1531.141602</ele>
<time>2012-04-30T13:35:30Z</time>
<desc>lat.=42.899250, lon.=19.615980, Alt.=1531.141602m. Speed=2.340000m/h.</desc>
<speed>0.650000</speed>
</trkpt>
<trkpt lat="42.899342" lon="19.615887">
<ele>1534.547852</ele>
<time>2012-04-30T13:35:35Z</time>
<desc>lat.=42.899342, lon.=19.615887, Alt.=1534.547852m. Speed=4.068000m/h.</desc>
<speed>1.130000</speed>
</trkpt>
<trkpt lat="42.899406" lon="19.615852">
<ele>1537.391602</ele>
<time>2012-04-30T13:35:40Z</time>
<desc>lat.=42.899406, lon.=19.615852, Alt.=1537.391602m. Speed=2.412000m/h.</desc>
<speed>0.670000</speed>
</trkpt>
<trkpt lat="42.899479" lon="19.615793">
<ele>1540.360352</ele>
<time>2012-04-30T13:35:45Z</time>
<desc>lat.=42.899479, lon.=19.615793, Alt.=1540.360352m. Speed=2.736000m/h.</desc>
<speed>0.760000</speed>
</trkpt>
<trkpt lat="42.899544" lon="19.615709">
<ele>1542.922852</ele>
<time>2012-04-30T13:35:50Z</time>
<desc>lat.=42.899544, lon.=19.615709, Alt.=1542.922852m. Speed=2.988000m/h.</desc>
<speed>0.830000</speed>
</trkpt>
<trkpt lat="42.899582" lon="19.615648">
<ele>1543.516602</ele>
<time>2012-04-30T13:35:55Z</time>
<desc>lat.=42.899582, lon.=19.615648, Alt.=1543.516602m. Speed=3.276000m/h.</desc>
<speed>0.910000</speed>
</trkpt>
<trkpt lat="42.899632" lon="19.615578">
<ele>1544.735352</ele>
<time>2012-04-30T13:36:00Z</time>
<desc>lat.=42.899632, lon.=19.615578, Alt.=1544.735352m. Speed=4.536000m/h.</desc>
<speed>1.260000</speed>
</trkpt>
<trkpt lat="42.899681" lon="19.615484">
<ele>1543.985352</ele>
<time>2012-04-30T13:36:05Z</time>
<desc>lat.=42.899681, lon.=19.615484, Alt.=1543.985352m. Speed=3.672000m/h.</desc>
<speed>1.020000</speed>
</trkpt>
<trkpt lat="42.899769" lon="19.615452">
<ele>1541.079102</ele>
<time>2012-04-30T13:36:10Z</time>
<desc>lat.=42.899769, lon.=19.615452, Alt.=1541.079102m. Speed=4.716000m/h.</desc>
<speed>1.310000</speed>
</trkpt>
<trkpt lat="42.899857" lon="19.615404">
<ele>1538.141602</ele>
<time>2012-04-30T13:36:15Z</time>
<desc>lat.=42.899857, lon.=19.615404, Alt.=1538.141602m. Speed=4.500000m/h.</desc>
<speed>1.250000</speed>
</trkpt>
<trkpt lat="42.899902" lon="19.615290">
<ele>1535.704102</ele>
<time>2012-04-30T13:36:20Z</time>
<desc>lat.=42.899902, lon.=19.615290, Alt.=1535.704102m. Speed=1.872000m/h.</desc>
<speed>0.520000</speed>
</trkpt>
<trkpt lat="42.899937" lon="19.615328">
<ele>1536.016602</ele>
<time>2012-04-30T13:36:25Z</time>
<desc>lat.=42.899937, lon.=19.615328, Alt.=1536.016602m. Speed=3.240000m/h.</desc>
<speed>0.900000</speed>
</trkpt>
<trkpt lat="42.899910" lon="19.615353">
<ele>1538.422852</ele>
<time>2012-04-30T13:36:30Z</time>
<desc>lat.=42.899910, lon.=19.615353, Alt.=1538.422852m. Speed=5.256000m/h.</desc>
<speed>1.460000</speed>
</trkpt>
<trkpt lat="42.899864" lon="19.615355">
<ele>1539.297852</ele>
<time>2012-04-30T13:36:35Z</time>
<desc>lat.=42.899864, lon.=19.615355, Alt.=1539.297852m. Speed=4.608000m/h.</desc>
<speed>1.280000</speed>
</trkpt>
<trkpt lat="42.899807" lon="19.615379">
<ele>1541.641602</ele>
<time>2012-04-30T13:36:40Z</time>
<desc>lat.=42.899807, lon.=19.615379, Alt.=1541.641602m. Speed=3.636000m/h.</desc>
<speed>1.010000</speed>
</trkpt>
<trkpt lat="42.899765" lon="19.615461">
<ele>1540.547852</ele>
<time>2012-04-30T13:36:45Z</time>
<desc>lat.=42.899765, lon.=19.615461, Alt.=1540.547852m. Speed=3.204000m/h.</desc>
<speed>0.890000</speed>
</trkpt>
<trkpt lat="42.899742" lon="19.615498">
<ele>1540.735352</ele>
<time>2012-04-30T13:36:50Z</time>
<desc>lat.=42.899742, lon.=19.615498, Alt.=1540.735352m. Speed=2.700000m/h.</desc>
<speed>0.750000</speed>
</trkpt>
<trkpt lat="42.899704" lon="19.615572">
<ele>1541.266602</ele>
<time>2012-04-30T13:36:55Z</time>
<desc>lat.=42.899704, lon.=19.615572, Alt.=1541.266602m. Speed=2.268000m/h.</desc>
<speed>0.630000</speed>
</trkpt>
<trkpt lat="42.899677" lon="19.615679">
<ele>1541.204102</ele>
<time>2012-04-30T13:37:00Z</time>
<desc>lat.=42.899677, lon.=19.615679, Alt.=1541.204102m. Speed=3.060000m/h.</desc>
<speed>0.850000</speed>
</trkpt>
<trkpt lat="42.899662" lon="19.615795">
<ele>1541.016602</ele>
<time>2012-04-30T13:37:05Z</time>
<desc>lat.=42.899662, lon.=19.615795, Alt.=1541.016602m. Speed=4.104000m/h.</desc>
<speed>1.140000</speed>
</trkpt>
<trkpt lat="42.899654" lon="19.615839">
<ele>1541.672852</ele>
<time>2012-04-30T13:37:10Z</time>
<desc>lat.=42.899654, lon.=19.615839, Alt.=1541.672852m. Speed=3.816000m/h.</desc>
<speed>1.060000</speed>
</trkpt>
<trkpt lat="42.899616" lon="19.615881">
<ele>1542.860352</ele>
<time>2012-04-30T13:37:15Z</time>
<desc>lat.=42.899616, lon.=19.615881, Alt.=1542.860352m. Speed=2.988000m/h.</desc>
<speed>0.830000</speed>
</trkpt>
<trkpt lat="42.899559" lon="19.615921">
<ele>1544.579102</ele>
<time>2012-04-30T13:37:20Z</time>
<desc>lat.=42.899559, lon.=19.615921, Alt.=1544.579102m. Speed=2.664000m/h.</desc>
<speed>0.740000</speed>
</trkpt>
<trkpt lat="42.899487" lon="19.615969">
<ele>1546.235352</ele>
<time>2012-04-30T13:37:25Z</time>
<desc>lat.=42.899487, lon.=19.615969, Alt.=1546.235352m. Speed=2.268000m/h.</desc>
<speed>0.630000</speed>
</trkpt>
<trkpt lat="42.899448" lon="19.616007">
<ele>1548.016602</ele>
<time>2012-04-30T13:37:30Z</time>
<desc>lat.=42.899448, lon.=19.616007, Alt.=1548.016602m. Speed=3.240000m/h.</desc>
<speed>0.900000</speed>
</trkpt>
<trkpt lat="42.899384" lon="19.616056">
<ele>1550.297852</ele>
<time>2012-04-30T13:37:35Z</time>
<desc>lat.=42.899384, lon.=19.616056, Alt.=1550.297852m. Speed=4.752000m/h.</desc>
<speed>1.320000</speed>
</trkpt>
<trkpt lat="42.899334" lon="19.616205">
<ele>1551.485352</ele>
<time>2012-04-30T13:37:40Z</time>
<desc>lat.=42.899334, lon.=19.616205, Alt.=1551.485352m. Speed=3.168000m/h.</desc>
<speed>0.880000</speed>
</trkpt>
<trkpt lat="42.899277" lon="19.616344">
<ele>1552.985352</ele>
<time>2012-04-30T13:37:45Z</time>
<desc>lat.=42.899277, lon.=19.616344, Alt.=1552.985352m. Speed=4.716000m/h.</desc>
<speed>1.310000</speed>
</trkpt>
<trkpt lat="42.899216" lon="19.616470">
<ele>1554.047852</ele>
<time>2012-04-30T13:37:50Z</time>
<desc>lat.=42.899216, lon.=19.616470, Alt.=1554.047852m. Speed=5.832000m/h.</desc>
<speed>1.620000</speed>
</trkpt>
<trkpt lat="42.899124" lon="19.616558">
<ele>1556.329102</ele>
<time>2012-04-30T13:37:55Z</time>
<desc>lat.=42.899124, lon.=19.616558, Alt.=1556.329102m. Speed=7.056000m/h.</desc>
<speed>1.960000</speed>
</trkpt>
<trkpt lat="42.899044" lon="19.616665">
<ele>1555.454102</ele>
<time>2012-04-30T13:38:00Z</time>
<desc>lat.=42.899044, lon.=19.616665, Alt.=1555.454102m. Speed=3.348000m/h.</desc>
<speed>0.930000</speed>
</trkpt>
<trkpt lat="42.899029" lon="19.616648">
<ele>1557.641602</ele>
<time>2012-04-30T13:38:05Z</time>
<desc>lat.=42.899029, lon.=19.616648, Alt.=1557.641602m. Speed=1.116000m/h.</desc>
<speed>0.310000</speed>
</trkpt>
<trkpt lat="42.899044" lon="19.616619">
<ele>1559.704102</ele>
<time>2012-04-30T13:38:10Z</time>
<desc>lat.=42.899044, lon.=19.616619, Alt.=1559.704102m. Speed=2.592000m/h.</desc>
<speed>0.720000</speed>
</trkpt>
<trkpt lat="42.899124" lon="19.616634">
<ele>1560.954102</ele>
<time>2012-04-30T13:38:15Z</time>
<desc>lat.=42.899124, lon.=19.616634, Alt.=1560.954102m. Speed=5.868000m/h.</desc>
<speed>1.630000</speed>
</trkpt>
<trkpt lat="42.899189" lon="19.616646">
<ele>1562.172852</ele>
<time>2012-04-30T13:38:20Z</time>
<desc>lat.=42.899189, lon.=19.616646, Alt.=1562.172852m. Speed=2.916000m/h.</desc>
<speed>0.810000</speed>
</trkpt>
<trkpt lat="42.899239" lon="19.616648">
<ele>1564.891602</ele>
<time>2012-04-30T13:38:25Z</time>
<desc>lat.=42.899239, lon.=19.616648, Alt.=1564.891602m. Speed=0.828000m/h.</desc>
<speed>0.230000</speed>
</trkpt>
<trkpt lat="42.899242" lon="19.616655">
<ele>1563.672852</ele>
<time>2012-04-30T13:38:30Z</time>
<desc>lat.=42.899242, lon.=19.616655, Alt.=1563.672852m. Speed=0.216000m/h.</desc>
<speed>0.060000</speed>
</trkpt>
<trkpt lat="42.899242" lon="19.616657">
<ele>1563.922852</ele>
<time>2012-04-30T13:38:35Z</time>
<desc>lat.=42.899242, lon.=19.616657, Alt.=1563.922852m. Speed=1.260000m/h.</desc>
<speed>0.350000</speed>
</trkpt>
<trkpt lat="42.899311" lon="19.616621">
<ele>1563.266602</ele>
<time>2012-04-30T13:38:40Z</time>
<desc>lat.=42.899311, lon.=19.616621, Alt.=1563.266602m. Speed=3.672000m/h.</desc>
<speed>1.020000</speed>
</trkpt>
<trkpt lat="42.899357" lon="19.616590">
<ele>1563.235352</ele>
<time>2012-04-30T13:38:45Z</time>
<desc>lat.=42.899357, lon.=19.616590, Alt.=1563.235352m. Speed=1.836000m/h.</desc>
<speed>0.510000</speed>
</trkpt>
<trkpt lat="42.899399" lon="19.616495">
<ele>1562.297852</ele>
<time>2012-04-30T13:38:50Z</time>
<desc>lat.=42.899399, lon.=19.616495, Alt.=1562.297852m. Speed=4.896000m/h.</desc>
<speed>1.360000</speed>
</trkpt>
<trkpt lat="42.899452" lon="19.616436">
<ele>1561.797852</ele>
<time>2012-04-30T13:38:55Z</time>
<desc>lat.=42.899452, lon.=19.616436, Alt.=1561.797852m. Speed=4.068000m/h.</desc>
<speed>1.130000</speed>
</trkpt>
<trkpt lat="42.899506" lon="19.616404">
<ele>1562.641602</ele>
<time>2012-04-30T13:39:00Z</time>
<desc>lat.=42.899506, lon.=19.616404, Alt.=1562.641602m. Speed=2.124000m/h.</desc>
<speed>0.590000</speed>
</trkpt>
<trkpt lat="42.899563" lon="19.616329">
<ele>1563.047852</ele>
<time>2012-04-30T13:39:05Z</time>
<desc>lat.=42.899563, lon.=19.616329, Alt.=1563.047852m. Speed=3.312000m/h.</desc>
<speed>0.920000</speed>
</trkpt>
<trkpt lat="42.899628" lon="19.616289">
<ele>1563.610352</ele>
<time>2012-04-30T13:39:10Z</time>
<desc>lat.=42.899628, lon.=19.616289, Alt.=1563.610352m. Speed=2.376000m/h.</desc>
<speed>0.660000</speed>
</trkpt>
<trkpt lat="42.899673" lon="19.616205">
<ele>1564.829102</ele>
<time>2012-04-30T13:39:15Z</time>
<desc>lat.=42.899673, lon.=19.616205, Alt.=1564.829102m. Speed=2.304000m/h.</desc>
<speed>0.640000</speed>
</trkpt>
<trkpt lat="42.899754" lon="19.616161">
<ele>1564.985352</ele>
<time>2012-04-30T13:39:20Z</time>
<desc>lat.=42.899754, lon.=19.616161, Alt.=1564.985352m. Speed=5.328000m/h.</desc>
<speed>1.480000</speed>
</trkpt>
<trkpt lat="42.899822" lon="19.616129">
<ele>1565.641602</ele>
<time>2012-04-30T13:39:25Z</time>
<desc>lat.=42.899822, lon.=19.616129, Alt.=1565.641602m. Speed=4.428000m/h.</desc>
<speed>1.230000</speed>
</trkpt>
<trkpt lat="42.899887" lon="19.616070">
<ele>1564.766602</ele>
<time>2012-04-30T13:39:30Z</time>
<desc>lat.=42.899887, lon.=19.616070, Alt.=1564.766602m. Speed=2.340000m/h.</desc>
<speed>0.650000</speed>
</trkpt>
<trkpt lat="42.899948" lon="19.616024">
<ele>1563.672852</ele>
<time>2012-04-30T13:39:35Z</time>
<desc>lat.=42.899948, lon.=19.616024, Alt.=1563.672852m. Speed=2.340000m/h.</desc>
<speed>0.650000</speed>
</trkpt>
<trkpt lat="42.900005" lon="19.615969">
<ele>1564.672852</ele>
<time>2012-04-30T13:39:40Z</time>
<desc>lat.=42.900005, lon.=19.615969, Alt.=1564.672852m. Speed=2.232000m/h.</desc>
<speed>0.620000</speed>
</trkpt>
<trkpt lat="42.900036" lon="19.615915">
<ele>1566.204102</ele>
<time>2012-04-30T13:39:45Z</time>
<desc>lat.=42.900036, lon.=19.615915, Alt.=1566.204102m. Speed=1.692000m/h.</desc>
<speed>0.470000</speed>
</trkpt>
<trkpt lat="42.900028" lon="19.615959">
<ele>1567.516602</ele>
<time>2012-04-30T13:39:50Z</time>
<desc>lat.=42.900028, lon.=19.615959, Alt.=1567.516602m. Speed=3.636000m/h.</desc>
<speed>1.010000</speed>
</trkpt>
<trkpt lat="42.899990" lon="19.616003">
<ele>1570.672852</ele>
<time>2012-04-30T13:39:55Z</time>
<desc>lat.=42.899990, lon.=19.616003, Alt.=1570.672852m. Speed=6.192000m/h.</desc>
<speed>1.720000</speed>
</trkpt>
<trkpt lat="42.899921" lon="19.616062">
<ele>1571.704102</ele>
<time>2012-04-30T13:40:00Z</time>
<desc>lat.=42.899921, lon.=19.616062, Alt.=1571.704102m. Speed=4.068000m/h.</desc>
<speed>1.130000</speed>
</trkpt>
<trkpt lat="42.899879" lon="19.616188">
<ele>1572.735352</ele>
<time>2012-04-30T13:40:05Z</time>
<desc>lat.=42.899879, lon.=19.616188, Alt.=1572.735352m. Speed=3.564000m/h.</desc>
<speed>0.990000</speed>
</trkpt>
<trkpt lat="42.899845" lon="19.616302">
<ele>1572.954102</ele>
<time>2012-04-30T13:40:10Z</time>
<desc>lat.=42.899845, lon.=19.616302, Alt.=1572.954102m. Speed=6.300000m/h.</desc>
<speed>1.750000</speed>
</trkpt>
<trkpt lat="42.899788" lon="19.616404">
<ele>1573.860352</ele>
<time>2012-04-30T13:40:15Z</time>
<desc>lat.=42.899788, lon.=19.616404, Alt.=1573.860352m. Speed=4.788000m/h.</desc>
<speed>1.330000</speed>
</trkpt>
<trkpt lat="42.899734" lon="19.616467">
<ele>1575.172852</ele>
<time>2012-04-30T13:40:20Z</time>
<desc>lat.=42.899734, lon.=19.616467, Alt.=1575.172852m. Speed=6.912000m/h.</desc>
<speed>1.920000</speed>
</trkpt>
<trkpt lat="42.899681" lon="19.616558">
<ele>1574.235352</ele>
<time>2012-04-30T13:40:25Z</time>
<desc>lat.=42.899681, lon.=19.616558, Alt.=1574.235352m. Speed=8.100000m/h.</desc>
<speed>2.250000</speed>
</trkpt>
<trkpt lat="42.899605" lon="19.616693">
<ele>1575.735352</ele>
<time>2012-04-30T13:40:30Z</time>
<desc>lat.=42.899605, lon.=19.616693, Alt.=1575.735352m. Speed=10.188000m/h.</desc>
<speed>2.830000</speed>
</trkpt>
<trkpt lat="42.899532" lon="19.616850">
<ele>1575.579102</ele>
<time>2012-04-30T13:40:35Z</time>
<desc>lat.=42.899532, lon.=19.616850, Alt.=1575.579102m. Speed=7.416000m/h.</desc>
<speed>2.060000</speed>
</trkpt>
<trkpt lat="42.899494" lon="19.616924">
<ele>1575.485352</ele>
<time>2012-04-30T13:40:40Z</time>
<desc>lat.=42.899494, lon.=19.616924, Alt.=1575.485352m. Speed=8.172000m/h.</desc>
<speed>2.270000</speed>
</trkpt>
<trkpt lat="42.899414" lon="19.616999">
<ele>1575.516602</ele>
<time>2012-04-30T13:40:45Z</time>
<desc>lat.=42.899414, lon.=19.616999, Alt.=1575.516602m. Speed=8.244000m/h.</desc>
<speed>2.290000</speed>
</trkpt>
<trkpt lat="42.899323" lon="19.617088">
<ele>1575.391602</ele>
<time>2012-04-30T13:40:50Z</time>
<desc>lat.=42.899323, lon.=19.617088, Alt.=1575.391602m. Speed=6.768000m/h.</desc>
<speed>1.880000</speed>
</trkpt>
<trkpt lat="42.899273" lon="19.617199">
<ele>1575.485352</ele>
<time>2012-04-30T13:40:55Z</time>
<desc>lat.=42.899273, lon.=19.617199, Alt.=1575.485352m. Speed=8.028000m/h.</desc>
<speed>2.230000</speed>
</trkpt>
<trkpt lat="42.899258" lon="19.617325">
<ele>1576.329102</ele>
<time>2012-04-30T13:41:00Z</time>
<desc>lat.=42.899258, lon.=19.617325, Alt.=1576.329102m. Speed=7.884000m/h.</desc>
<speed>2.190000</speed>
</trkpt>
<trkpt lat="42.899284" lon="19.617451">
<ele>1576.735352</ele>
<time>2012-04-30T13:41:05Z</time>
<desc>lat.=42.899284, lon.=19.617451, Alt.=1576.735352m. Speed=6.912000m/h.</desc>
<speed>1.920000</speed>
</trkpt>
<trkpt lat="42.899319" lon="19.617565">
<ele>1576.047852</ele>
<time>2012-04-30T13:41:10Z</time>
<desc>lat.=42.899319, lon.=19.617565, Alt.=1576.047852m. Speed=8.064000m/h.</desc>
<speed>2.240000</speed>
</trkpt>
<trkpt lat="42.899368" lon="19.617666">
<ele>1576.360352</ele>
<time>2012-04-30T13:41:15Z</time>
<desc>lat.=42.899368, lon.=19.617666, Alt.=1576.360352m. Speed=6.048000m/h.</desc>
<speed>1.680000</speed>
</trkpt>
<trkpt lat="42.899426" lon="19.617735">
<ele>1576.391602</ele>
<time>2012-04-30T13:41:20Z</time>
<desc>lat.=42.899426, lon.=19.617735, Alt.=1576.391602m. Speed=5.040000m/h.</desc>
<speed>1.400000</speed>
</trkpt>
<trkpt lat="42.899479" lon="19.617838">
<ele>1576.422852</ele>
<time>2012-04-30T13:41:25Z</time>
<desc>lat.=42.899479, lon.=19.617838, Alt.=1576.422852m. Speed=7.848000m/h.</desc>
<speed>2.180000</speed>
</trkpt>
<trkpt lat="42.899521" lon="19.617903">
<ele>1576.329102</ele>
<time>2012-04-30T13:41:30Z</time>
<desc>lat.=42.899521, lon.=19.617903, Alt.=1576.329102m. Speed=4.356000m/h.</desc>
<speed>1.210000</speed>
</trkpt>
<trkpt lat="42.899548" lon="19.617970">
<ele>1575.610352</ele>
<time>2012-04-30T13:41:35Z</time>
<desc>lat.=42.899548, lon.=19.617970, Alt.=1575.610352m. Speed=3.168000m/h.</desc>
<speed>0.880000</speed>
</trkpt>
<trkpt lat="42.899548" lon="19.617977">
<ele>1575.016602</ele>
<time>2012-04-30T13:41:40Z</time>
<desc>lat.=42.899548, lon.=19.617977, Alt.=1575.016602m. Speed=0.000000m/h.</desc>
<speed>0.000000</speed>
</trkpt>
<trkpt lat="42.899548" lon="19.617977">
<ele>1575.016602</ele>
<time>2012-04-30T13:41:45Z</time>
<desc>lat.=42.899548, lon.=19.617977, Alt.=1575.016602m. Speed=0.072000m/h.</desc>
<speed>0.020000</speed>
</trkpt>
<trkpt lat="42.899548" lon="19.617977">
<ele>1575.016602</ele>
<time>2012-04-30T13:41:50Z</time>
<desc>lat.=42.899548, lon.=19.617977, Alt.=1575.016602m. Speed=0.036000m/h.</desc>
<speed>0.010000</speed>
</trkpt>
<trkpt lat="42.899548" lon="19.617977">
<ele>1575.016602</ele>
<time>2012-04-30T13:41:55Z</time>
<desc>lat.=42.899548, lon.=19.617977, Alt.=1575.016602m. Speed=0.108000m/h.</desc>
<speed>0.030000</speed>
</trkpt>
<trkpt lat="42.899548" lon="19.617977">
<ele>1574.954102</ele>
<time>2012-04-30T13:42:00Z</time>
<desc>lat.=42.899548, lon.=19.617977, Alt.=1574.954102m. Speed=0.000000m/h.</desc>
<speed>0.000000</speed>
</trkpt>
<trkpt lat="42.899548" lon="19.617977">
<ele>1574.954102</ele>
<time>2012-04-30T13:42:05Z</time>
<desc>lat.=42.899548, lon.=19.617977, Alt.=1574.954102m. Speed=0.252000m/h.</desc>
<speed>0.070000</speed>
</trkpt>
<trkpt lat="42.899570" lon="19.617992">
<ele>1574.610352</ele>
<time>2012-04-30T13:42:10Z</time>
<desc>lat.=42.899570, lon.=19.617992, Alt.=1574.610352m. Speed=3.276000m/h.</desc>
<speed>0.910000</speed>
</trkpt>
<trkpt lat="42.899582" lon="19.617996">
<ele>1574.985352</ele>
<time>2012-04-30T13:42:15Z</time>
<desc>lat.=42.899582, lon.=19.617996, Alt.=1574.985352m. Speed=0.432000m/h.</desc>
<speed>0.120000</speed>
</trkpt>
<trkpt lat="42.899586" lon="19.617992">
<ele>1575.391602</ele>
<time>2012-04-30T13:42:20Z</time>
<desc>lat.=42.899586, lon.=19.617992, Alt.=1575.391602m. Speed=0.072000m/h.</desc>
<speed>0.020000</speed>
</trkpt>
<trkpt lat="42.899597" lon="19.617989">
<ele>1575.860352</ele>
<time>2012-04-30T13:42:25Z</time>
<desc>lat.=42.899597, lon.=19.617989, Alt.=1575.860352m. Speed=1.728000m/h.</desc>
<speed>0.480000</speed>
</trkpt>
<trkpt lat="42.899616" lon="19.617996">
<ele>1577.079102</ele>
<time>2012-04-30T13:42:30Z</time>
<desc>lat.=42.899616, lon.=19.617996, Alt.=1577.079102m. Speed=2.160000m/h.</desc>
<speed>0.600000</speed>
</trkpt>
<trkpt lat="42.899643" lon="19.617992">
<ele>1578.047852</ele>
<time>2012-04-30T13:42:35Z</time>
<desc>lat.=42.899643, lon.=19.617992, Alt.=1578.047852m. Speed=1.980000m/h.</desc>
<speed>0.550000</speed>
</trkpt>
<trkpt lat="42.899666" lon="19.618004">
<ele>1579.485352</ele>
<time>2012-04-30T13:42:40Z</time>
<desc>lat.=42.899666, lon.=19.618004, Alt.=1579.485352m. Speed=1.584000m/h.</desc>
<speed>0.440000</speed>
</trkpt>
<trkpt lat="42.899685" lon="19.618008">
<ele>1581.422852</ele>
<time>2012-04-30T13:42:45Z</time>
<desc>lat.=42.899685, lon.=19.618008, Alt.=1581.422852m. Speed=0.144000m/h.</desc>
<speed>0.040000</speed>
</trkpt>
<trkpt lat="42.899681" lon="19.618025">
<ele>1581.735352</ele>
<time>2012-04-30T13:42:50Z</time>
<desc>lat.=42.899681, lon.=19.618025, Alt.=1581.735352m. Speed=2.412000m/h.</desc>
<speed>0.670000</speed>
</trkpt>
<trkpt lat="42.899708" lon="19.617985">
<ele>1580.985352</ele>
<time>2012-04-30T13:42:55Z</time>
<desc>lat.=42.899708, lon.=19.617985, Alt.=1580.985352m. Speed=2.592000m/h.</desc>
<speed>0.720000</speed>
</trkpt>
<trkpt lat="42.899708" lon="19.617939">
<ele>1581.110352</ele>
<time>2012-04-30T13:43:00Z</time>
<desc>lat.=42.899708, lon.=19.617939, Alt.=1581.110352m. Speed=3.276000m/h.</desc>
<speed>0.910000</speed>
</trkpt>
<trkpt lat="42.899704" lon="19.617893">
<ele>1581.016602</ele>
<time>2012-04-30T13:43:05Z</time>
<desc>lat.=42.899704, lon.=19.617893, Alt.=1581.016602m. Speed=0.000000m/h.</desc>
<speed>0.000000</speed>
</trkpt>
<trkpt lat="42.899708" lon="19.617887">
<ele>1580.204102</ele>
<time>2012-04-30T13:43:10Z</time>
<desc>lat.=42.899708, lon.=19.617887, Alt.=1580.204102m. Speed=0.072000m/h.</desc>
<speed>0.020000</speed>
</trkpt>
<trkpt lat="42.899708" lon="19.617891">
<ele>1579.985352</ele>
<time>2012-04-30T13:43:15Z</time>
<desc>lat.=42.899708, lon.=19.617891, Alt.=1579.985352m. Speed=0.036000m/h.</desc>
<speed>0.010000</speed>
</trkpt>
<trkpt lat="42.899708" lon="19.617891">
<ele>1579.985352</ele>
<time>2012-04-30T13:43:20Z</time>
<desc>lat.=42.899708, lon.=19.617891, Alt.=1579.985352m. Speed=0.036000m/h.</desc>
<speed>0.010000</speed>
</trkpt>
<trkpt lat="42.899708" lon="19.617891">
<ele>1579.985352</ele>
<time>2012-04-30T13:43:25Z</time>
<desc>lat.=42.899708, lon.=19.617891, Alt.=1579.985352m. Speed=0.036000m/h.</desc>
<speed>0.010000</speed>
</trkpt>
<trkpt lat="42.899708" lon="19.617891">
<ele>1579.985352</ele>
<time>2012-04-30T13:43:30Z</time>
<desc>lat.=42.899708, lon.=19.617891, Alt.=1579.985352m. Speed=0.036000m/h.</desc>
<speed>0.010000</speed>
</trkpt>
<trkpt lat="42.899712" lon="19.617891">
<ele>1579.985352</ele>
<time>2012-04-30T13:43:35Z</time>
<desc>lat.=42.899712, lon.=19.617891, Alt.=1579.985352m. Speed=0.036000m/h.</desc>
<speed>0.010000</speed>
</trkpt>
<trkpt lat="42.899712" lon="19.617891">
<ele>1579.954102</ele>
<time>2012-04-30T13:43:40Z</time>
<desc>lat.=42.899712, lon.=19.617891, Alt.=1579.954102m. Speed=0.000000m/h.</desc>
<speed>0.000000</speed>
</trkpt>
<trkpt lat="42.899712" lon="19.617891">
<ele>1579.954102</ele>
<time>2012-04-30T13:43:45Z</time>
<desc>lat.=42.899712, lon.=19.617891, Alt.=1579.954102m. Speed=0.072000m/h.</desc>
<speed>0.020000</speed>
</trkpt>
<trkpt lat="42.899712" lon="19.617891">
<ele>1579.922852</ele>
<time>2012-04-30T13:43:50Z</time>
<desc>lat.=42.899712, lon.=19.617891, Alt.=1579.922852m. Speed=0.000000m/h.</desc>
<speed>0.000000</speed>
</trkpt>
<trkpt lat="42.899712" lon="19.617891">
<ele>1579.922852</ele>
<time>2012-04-30T13:43:55Z</time>
<desc>lat.=42.899712, lon.=19.617891, Alt.=1579.922852m. Speed=0.000000m/h.</desc>
<speed>0.000000</speed>
</trkpt>
<trkpt lat="42.899712" lon="19.617893">
<ele>1579.954102</ele>
<time>2012-04-30T13:44:00Z</time>
<desc>lat.=42.899712, lon.=19.617893, Alt.=1579.954102m. Speed=0.000000m/h.</desc>
<speed>0.000000</speed>
</trkpt>
<trkpt lat="42.899712" lon="19.617893">
<ele>1579.954102</ele>
<time>2012-04-30T13:44:05Z</time>
<desc>lat.=42.899712, lon.=19.617893, Alt.=1579.954102m. Speed=0.000000m/h.</desc>
<speed>0.000000</speed>
</trkpt>
<trkpt lat="42.899712" lon="19.617893">
<ele>1579.954102</ele>
<time>2012-04-30T13:44:10Z</time>
<desc>lat.=42.899712, lon.=19.617893, Alt.=1579.954102m. Speed=0.540000m/h.</desc>
<speed>0.150000</speed>
</trkpt>
<trkpt lat="42.899712" lon="19.617893">
<ele>1579.954102</ele>
<time>2012-04-30T13:44:15Z</time>
<desc>lat.=42.899712, lon.=19.617893, Alt.=1579.954102m. Speed=0.000000m/h.</desc>
<speed>0.000000</speed>
</trkpt>
<trkpt lat="42.899712" lon="19.617893">
<ele>1579.954102</ele>
<time>2012-04-30T13:44:20Z</time>
<desc>lat.=42.899712, lon.=19.617893, Alt.=1579.954102m. Speed=0.612000m/h.</desc>
<speed>0.170000</speed>
</trkpt>
<trkpt lat="42.899712" lon="19.617891">
<ele>1580.735352</ele>
<time>2012-04-30T13:44:25Z</time>
<desc>lat.=42.899712, lon.=19.617891, Alt.=1580.735352m. Speed=0.144000m/h.</desc>
<speed>0.040000</speed>
</trkpt>
<trkpt lat="42.899715" lon="19.617891">
<ele>1580.797852</ele>
<time>2012-04-30T13:44:30Z</time>
<desc>lat.=42.899715, lon.=19.617891, Alt.=1580.797852m. Speed=0.000000m/h.</desc>
<speed>0.000000</speed>
</trkpt>
<trkpt lat="42.899715" lon="19.617891">
<ele>1580.829102</ele>
<time>2012-04-30T13:44:35Z</time>
<desc>lat.=42.899715, lon.=19.617891, Alt.=1580.829102m. Speed=0.000000m/h.</desc>
<speed>0.000000</speed>
</trkpt>
<trkpt lat="42.899715" lon="19.617891">
<ele>1580.829102</ele>
<time>2012-04-30T13:44:40Z</time>
<desc>lat.=42.899715, lon.=19.617891, Alt.=1580.829102m. Speed=0.000000m/h.</desc>
<speed>0.000000</speed>
</trkpt>
<trkpt lat="42.899715" lon="19.617891">
<ele>1580.860352</ele>
<time>2012-04-30T13:44:45Z</time>
<desc>lat.=42.899715, lon.=19.617891, Alt.=1580.860352m. Speed=0.072000m/h.</desc>
<speed>0.020000</speed>
</trkpt>
<trkpt lat="42.899715" lon="19.617891">
<ele>1580.891602</ele>
<time>2012-04-30T13:44:50Z</time>
<desc>lat.=42.899715, lon.=19.617891, Alt.=1580.891602m. Speed=0.036000m/h.</desc>
<speed>0.010000</speed>
</trkpt>
<trkpt lat="42.899715" lon="19.617891">
<ele>1580.922852</ele>
<time>2012-04-30T13:44:55Z</time>
<desc>lat.=42.899715, lon.=19.617891, Alt.=1580.922852m. Speed=0.000000m/h.</desc>
<speed>0.000000</speed>
</trkpt>
<trkpt lat="42.899715" lon="19.617891">
<ele>1580.954102</ele>
<time>2012-04-30T13:45:00Z</time>
<desc>lat.=42.899715, lon.=19.617891, Alt.=1580.954102m. Speed=0.000000m/h.</desc>
<speed>0.000000</speed>
</trkpt>
<trkpt lat="42.899715" lon="19.617891">
<ele>1580.985352</ele>
<time>2012-04-30T13:45:05Z</time>
<desc>lat.=42.899715, lon.=19.617891, Alt.=1580.985352m. Speed=0.072000m/h.</desc>
<speed>0.020000</speed>
</trkpt>
<trkpt lat="42.899715" lon="19.617891">
<ele>1581.016602</ele>
<time>2012-04-30T13:45:10Z</time>
<desc>lat.=42.899715, lon.=19.617891, Alt.=1581.016602m. Speed=0.000000m/h.</desc>
<speed>0.000000</speed>
</trkpt>
<trkpt lat="42.899715" lon="19.617891">
<ele>1581.047852</ele>
<time>2012-04-30T13:45:15Z</time>
<desc>lat.=42.899715, lon.=19.617891, Alt.=1581.047852m. Speed=0.000000m/h.</desc>
<speed>0.000000</speed>
</trkpt>
<trkpt lat="42.899715" lon="19.617891">
<ele>1581.079102</ele>
<time>2012-04-30T13:45:20Z</time>
<desc>lat.=42.899715, lon.=19.617891, Alt.=1581.079102m. Speed=0.036000m/h.</desc>
<speed>0.010000</speed>
</trkpt>
<trkpt lat="42.899715" lon="19.617891">
<ele>1581.110352</ele>
<time>2012-04-30T13:45:25Z</time>
<desc>lat.=42.899715, lon.=19.617891, Alt.=1581.110352m. Speed=0.000000m/h.</desc>
<speed>0.000000</speed>
</trkpt>
<trkpt lat="42.899715" lon="19.617891">
<ele>1581.110352</ele>
<time>2012-04-30T13:45:30Z</time>
<desc>lat.=42.899715, lon.=19.617891, Alt.=1581.110352m. Speed=0.000000m/h.</desc>
<speed>0.000000</speed>
</trkpt>
<trkpt lat="42.899715" lon="19.617891">
<ele>1581.141602</ele>
<time>2012-04-30T13:45:35Z</time>
<desc>lat.=42.899715, lon.=19.617891, Alt.=1581.141602m. Speed=0.000000m/h.</desc>
<speed>0.000000</speed>
</trkpt>
<trkpt lat="42.899715" lon="19.617891">
<ele>1581.172852</ele>
<time>2012-04-30T13:45:40Z</time>
<desc>lat.=42.899715, lon.=19.617891, Alt.=1581.172852m. Speed=0.000000m/h.</desc>
<speed>0.000000</speed>
</trkpt>
<trkpt lat="42.899715" lon="19.617891">
<ele>1581.204102</ele>
<time>2012-04-30T13:45:45Z</time>
<desc>lat.=42.899715, lon.=19.617891, Alt.=1581.204102m. Speed=0.000000m/h.</desc>
<speed>0.000000</speed>
</trkpt>
<trkpt lat="42.899715" lon="19.617891">
<ele>1581.235352</ele>
<time>2012-04-30T13:45:50Z</time>
<desc>lat.=42.899715, lon.=19.617891, Alt.=1581.235352m. Speed=0.000000m/h.</desc>
<speed>0.000000</speed>
</trkpt>
<trkpt lat="42.899715" lon="19.617891">
<ele>1581.235352</ele>
<time>2012-04-30T13:45:55Z</time>
<desc>lat.=42.899715, lon.=19.617891, Alt.=1581.235352m. Speed=0.000000m/h.</desc>
<speed>0.000000</speed>
</trkpt>
<trkpt lat="42.899715" lon="19.617891">
<ele>1581.266602</ele>
<time>2012-04-30T13:46:00Z</time>
<desc>lat.=42.899715, lon.=19.617891, Alt.=1581.266602m. Speed=0.000000m/h.</desc>
<speed>0.000000</speed>
</trkpt>
<trkpt lat="42.899715" lon="19.617891">
<ele>1581.297852</ele>
<time>2012-04-30T13:46:05Z</time>
<desc>lat.=42.899715, lon.=19.617891, Alt.=1581.297852m. Speed=0.000000m/h.</desc>
<speed>0.000000</speed>
</trkpt>
<trkpt lat="42.899715" lon="19.617891">
<ele>1581.297852</ele>
<time>2012-04-30T13:46:10Z</time>
<desc>lat.=42.899715, lon.=19.617891, Alt.=1581.297852m. Speed=0.072000m/h.</desc>
<speed>0.020000</speed>
</trkpt>
<trkpt lat="42.899715" lon="19.617891">
<ele>1581.329102</ele>
<time>2012-04-30T13:46:15Z</time>
<desc>lat.=42.899715, lon.=19.617891, Alt.=1581.329102m. Speed=0.000000m/h.</desc>
<speed>0.000000</speed>
</trkpt>
<trkpt lat="42.899715" lon="19.617891">
<ele>1581.360352</ele>
<time>2012-04-30T13:46:20Z</time>
<desc>lat.=42.899715, lon.=19.617891, Alt.=1581.360352m. Speed=0.072000m/h.</desc>
<speed>0.020000</speed>
</trkpt>
<trkpt lat="42.899715" lon="19.617891">
<ele>1581.422852</ele>
<time>2012-04-30T13:46:25Z</time>
<desc>lat.=42.899715, lon.=19.617891, Alt.=1581.422852m. Speed=0.252000m/h.</desc>
<speed>0.070000</speed>
</trkpt>
<trkpt lat="42.899715" lon="19.617870">
<ele>1581.641602</ele>
<time>2012-04-30T13:46:30Z</time>
<desc>lat.=42.899715, lon.=19.617870, Alt.=1581.641602m. Speed=3.816000m/h.</desc>
<speed>1.060000</speed>
</trkpt>
<trkpt lat="42.899700" lon="19.617767">
<ele>1582.422852</ele>
<time>2012-04-30T13:46:35Z</time>
<desc>lat.=42.899700, lon.=19.617767, Alt.=1582.422852m. Speed=7.128000m/h.</desc>
<speed>1.980000</speed>
</trkpt>
<trkpt lat="42.899700" lon="19.617643">
<ele>1583.391602</ele>
<time>2012-04-30T13:46:40Z</time>
<desc>lat.=42.899700, lon.=19.617643, Alt.=1583.391602m. Speed=6.660000m/h.</desc>
<speed>1.850000</speed>
</trkpt>
<trkpt lat="42.899681" lon="19.617508">
<ele>1585.110352</ele>
<time>2012-04-30T13:46:45Z</time>
<desc>lat.=42.899681, lon.=19.617508, Alt.=1585.110352m. Speed=6.444000m/h.</desc>
<speed>1.790000</speed>
</trkpt>
<trkpt lat="42.899670" lon="19.617399">
<ele>1587.110352</ele>
<time>2012-04-30T13:46:50Z</time>
<desc>lat.=42.899670, lon.=19.617399, Alt.=1587.110352m. Speed=7.056000m/h.</desc>
<speed>1.960000</speed>
</trkpt>
<trkpt lat="42.899662" lon="19.617281">
<ele>1587.547852</ele>
<time>2012-04-30T13:46:55Z</time>
<desc>lat.=42.899662, lon.=19.617281, Alt.=1587.547852m. Speed=7.596000m/h.</desc>
<speed>2.110000</speed>
</trkpt>
<trkpt lat="42.899673" lon="19.617161">
<ele>1588.829102</ele>
<time>2012-04-30T13:47:00Z</time>
<desc>lat.=42.899673, lon.=19.617161, Alt.=1588.829102m. Speed=6.696000m/h.</desc>
<speed>1.860000</speed>
</trkpt>
<trkpt lat="42.899715" lon="19.617043">
<ele>1589.391602</ele>
<time>2012-04-30T13:47:05Z</time>
<desc>lat.=42.899715, lon.=19.617043, Alt.=1589.391602m. Speed=7.056000m/h.</desc>
<speed>1.960000</speed>
</trkpt>
<trkpt lat="42.899754" lon="19.616947">
<ele>1590.329102</ele>
<time>2012-04-30T13:47:10Z</time>
<desc>lat.=42.899754, lon.=19.616947, Alt.=1590.329102m. Speed=6.120000m/h.</desc>
<speed>1.700000</speed>
</trkpt>
<trkpt lat="42.899788" lon="19.616867">
<ele>1591.110352</ele>
<time>2012-04-30T13:47:15Z</time>
<desc>lat.=42.899788, lon.=19.616867, Alt.=1591.110352m. Speed=5.292000m/h.</desc>
<speed>1.470000</speed>
</trkpt>
<trkpt lat="42.899834" lon="19.616798">
<ele>1593.079102</ele>
<time>2012-04-30T13:47:20Z</time>
<desc>lat.=42.899834, lon.=19.616798, Alt.=1593.079102m. Speed=5.328000m/h.</desc>
<speed>1.480000</speed>
</trkpt>
<trkpt lat="42.899895" lon="19.616726">
<ele>1592.297852</ele>
<time>2012-04-30T13:47:25Z</time>
<desc>lat.=42.899895, lon.=19.616726, Alt.=1592.297852m. Speed=4.608000m/h.</desc>
<speed>1.280000</speed>
</trkpt>
<trkpt lat="42.899944" lon="19.616669">
<ele>1592.985352</ele>
<time>2012-04-30T13:47:30Z</time>
<desc>lat.=42.899944, lon.=19.616669, Alt.=1592.985352m. Speed=1.800000m/h.</desc>
<speed>0.500000</speed>
</trkpt>
<trkpt lat="42.899994" lon="19.616638">
<ele>1593.391602</ele>
<time>2012-04-30T13:47:35Z</time>
<desc>lat.=42.899994, lon.=19.616638, Alt.=1593.391602m. Speed=4.680000m/h.</desc>
<speed>1.300000</speed>
</trkpt>
<trkpt lat="42.900055" lon="19.616632">
<ele>1593.860352</ele>
<time>2012-04-30T13:47:40Z</time>
<desc>lat.=42.900055, lon.=19.616632, Alt.=1593.860352m. Speed=2.304000m/h.</desc>
<speed>0.640000</speed>
</trkpt>
<trkpt lat="42.900124" lon="19.616648">
<ele>1597.329102</ele>
<time>2012-04-30T13:47:45Z</time>
<desc>lat.=42.900124, lon.=19.616648, Alt.=1597.329102m. Speed=5.256000m/h.</desc>
<speed>1.460000</speed>
</trkpt>
<trkpt lat="42.900204" lon="19.616699">
<ele>1598.641602</ele>
<time>2012-04-30T13:47:50Z</time>
<desc>lat.=42.900204, lon.=19.616699, Alt.=1598.641602m. Speed=6.336000m/h.</desc>
<speed>1.760000</speed>
</trkpt>
<trkpt lat="42.900284" lon="19.616745">
<ele>1600.110352</ele>
<time>2012-04-30T13:47:55Z</time>
<desc>lat.=42.900284, lon.=19.616745, Alt.=1600.110352m. Speed=5.076000m/h.</desc>
<speed>1.410000</speed>
</trkpt>
<trkpt lat="42.900364" lon="19.616772">
<ele>1602.391602</ele>
<time>2012-04-30T13:48:00Z</time>
<desc>lat.=42.900364, lon.=19.616772, Alt.=1602.391602m. Speed=5.580000m/h.</desc>
<speed>1.550000</speed>
</trkpt>
<trkpt lat="42.900421" lon="19.616787">
<ele>1605.454102</ele>
<time>2012-04-30T13:48:05Z</time>
<desc>lat.=42.900421, lon.=19.616787, Alt.=1605.454102m. Speed=2.628000m/h.</desc>
<speed>0.730000</speed>
</trkpt>
<trkpt lat="42.900463" lon="19.616827">
<ele>1603.172852</ele>
<time>2012-04-30T13:48:10Z</time>
<desc>lat.=42.900463, lon.=19.616827, Alt.=1603.172852m. Speed=4.176000m/h.</desc>
<speed>1.160000</speed>
</trkpt>
<trkpt lat="42.900486" lon="19.616877">
<ele>1605.766602</ele>
<time>2012-04-30T13:48:15Z</time>
<desc>lat.=42.900486, lon.=19.616877, Alt.=1605.766602m. Speed=2.232000m/h.</desc>
<speed>0.620000</speed>
</trkpt>
<trkpt lat="42.900440" lon="19.616898">
<ele>1606.172852</ele>
<time>2012-04-30T13:48:20Z</time>
<desc>lat.=42.900440, lon.=19.616898, Alt.=1606.172852m. Speed=4.464000m/h.</desc>
<speed>1.240000</speed>
</trkpt>
<trkpt lat="42.900364" lon="19.616867">
<ele>1606.454102</ele>
<time>2012-04-30T13:48:25Z</time>
<desc>lat.=42.900364, lon.=19.616867, Alt.=1606.454102m. Speed=5.508000m/h.</desc>
<speed>1.530000</speed>
</trkpt>
<trkpt lat="42.900272" lon="19.616859">
<ele>1607.172852</ele>
<time>2012-04-30T13:48:30Z</time>
<desc>lat.=42.900272, lon.=19.616859, Alt.=1607.172852m. Speed=5.544000m/h.</desc>
<speed>1.540000</speed>
</trkpt>
<trkpt lat="42.900185" lon="19.616880">
<ele>1605.204102</ele>
<time>2012-04-30T13:48:35Z</time>
<desc>lat.=42.900185, lon.=19.616880, Alt.=1605.204102m. Speed=7.884000m/h.</desc>
<speed>2.190000</speed>
</trkpt>
<trkpt lat="42.900089" lon="19.616898">
<ele>1604.641602</ele>
<time>2012-04-30T13:48:40Z</time>
<desc>lat.=42.900089, lon.=19.616898, Alt.=1604.641602m. Speed=6.480000m/h.</desc>
<speed>1.800000</speed>
</trkpt>
<trkpt lat="42.900036" lon="19.616980">
<ele>1604.516602</ele>
<time>2012-04-30T13:48:45Z</time>
<desc>lat.=42.900036, lon.=19.616980, Alt.=1604.516602m. Speed=6.336000m/h.</desc>
<speed>1.760000</speed>
</trkpt>
<trkpt lat="42.900043" lon="19.617086">
<ele>1603.797852</ele>
<time>2012-04-30T13:48:50Z</time>
<desc>lat.=42.900043, lon.=19.617086, Alt.=1603.797852m. Speed=9.180000m/h.</desc>
<speed>2.550000</speed>
</trkpt>
<trkpt lat="42.900078" lon="19.617178">
<ele>1604.485352</ele>
<time>2012-04-30T13:48:55Z</time>
<desc>lat.=42.900078, lon.=19.617178, Alt.=1604.485352m. Speed=6.372000m/h.</desc>
<speed>1.770000</speed>
</trkpt>
<trkpt lat="42.900116" lon="19.617256">
<ele>1606.329102</ele>
<time>2012-04-30T13:49:00Z</time>
<desc>lat.=42.900116, lon.=19.617256, Alt.=1606.329102m. Speed=5.868000m/h.</desc>
<speed>1.630000</speed>
</trkpt>
<trkpt lat="42.900146" lon="19.617334">
<ele>1609.610352</ele>
<time>2012-04-30T13:49:05Z</time>
<desc>lat.=42.900146, lon.=19.617334, Alt.=1609.610352m. Speed=4.572000m/h.</desc>
<speed>1.270000</speed>
</trkpt>
<trkpt lat="42.900177" lon="19.617409">
<ele>1610.360352</ele>
<time>2012-04-30T13:49:10Z</time>
<desc>lat.=42.900177, lon.=19.617409, Alt.=1610.360352m. Speed=5.004000m/h.</desc>
<speed>1.390000</speed>
</trkpt>
<trkpt lat="42.900230" lon="19.617476">
<ele>1610.110352</ele>
<time>2012-04-30T13:49:15Z</time>
<desc>lat.=42.900230, lon.=19.617476, Alt.=1610.110352m. Speed=5.364000m/h.</desc>
<speed>1.490000</speed>
</trkpt>
<trkpt lat="42.900265" lon="19.617542">
<ele>1610.579102</ele>
<time>2012-04-30T13:49:20Z</time>
<desc>lat.=42.900265, lon.=19.617542, Alt.=1610.579102m. Speed=5.184000m/h.</desc>
<speed>1.440000</speed>
</trkpt>
<trkpt lat="42.900295" lon="19.617630">
<ele>1613.641602</ele>
<time>2012-04-30T13:49:25Z</time>
<desc>lat.=42.900295, lon.=19.617630, Alt.=1613.641602m. Speed=5.508000m/h.</desc>
<speed>1.530000</speed>
</trkpt>
<trkpt lat="42.900314" lon="19.617716">
<ele>1614.485352</ele>
<time>2012-04-30T13:49:30Z</time>
<desc>lat.=42.900314, lon.=19.617716, Alt.=1614.485352m. Speed=5.940000m/h.</desc>
<speed>1.650000</speed>
</trkpt>
<trkpt lat="42.900333" lon="19.617805">
<ele>1615.360352</ele>
<time>2012-04-30T13:49:35Z</time>
<desc>lat.=42.900333, lon.=19.617805, Alt.=1615.360352m. Speed=6.660000m/h.</desc>
<speed>1.850000</speed>
</trkpt>
<trkpt lat="42.900345" lon="19.617897">
<ele>1616.016602</ele>
<time>2012-04-30T13:49:40Z</time>
<desc>lat.=42.900345, lon.=19.617897, Alt.=1616.016602m. Speed=5.940000m/h.</desc>
<speed>1.650000</speed>
</trkpt>
<trkpt lat="42.900341" lon="19.618019">
<ele>1617.079102</ele>
<time>2012-04-30T13:49:45Z</time>
<desc>lat.=42.900341, lon.=19.618019, Alt.=1617.079102m. Speed=5.832000m/h.</desc>
<speed>1.620000</speed>
</trkpt>
<trkpt lat="42.900326" lon="19.618111">
<ele>1617.422852</ele>
<time>2012-04-30T13:49:50Z</time>
<desc>lat.=42.900326, lon.=19.618111, Alt.=1617.422852m. Speed=4.104000m/h.</desc>
<speed>1.140000</speed>
</trkpt>
<trkpt lat="42.900284" lon="19.618219">
<ele>1618.422852</ele>
<time>2012-04-30T13:49:55Z</time>
<desc>lat.=42.900284, lon.=19.618219, Alt.=1618.422852m. Speed=6.084000m/h.</desc>
<speed>1.690000</speed>
</trkpt>
<trkpt lat="42.900269" lon="19.618269">
<ele>1620.110352</ele>
<time>2012-04-30T13:50:00Z</time>
<desc>lat.=42.900269, lon.=19.618269, Alt.=1620.110352m. Speed=3.816000m/h.</desc>
<speed>1.060000</speed>
</trkpt>
<trkpt lat="42.900253" lon="19.618305">
<ele>1621.954102</ele>
<time>2012-04-30T13:50:05Z</time>
<desc>lat.=42.900253, lon.=19.618305, Alt.=1621.954102m. Speed=1.224000m/h.</desc>
<speed>0.340000</speed>
</trkpt>
<trkpt lat="42.900261" lon="19.618328">
<ele>1623.079102</ele>
<time>2012-04-30T13:50:10Z</time>
<desc>lat.=42.900261, lon.=19.618328, Alt.=1623.079102m. Speed=1.260000m/h.</desc>
<speed>0.350000</speed>
</trkpt>
<trkpt lat="42.900249" lon="19.618410">
<ele>1624.860352</ele>
<time>2012-04-30T13:50:15Z</time>
<desc>lat.=42.900249, lon.=19.618410, Alt.=1624.860352m. Speed=3.636000m/h.</desc>
<speed>1.010000</speed>
</trkpt>
<trkpt lat="42.900234" lon="19.618460">
<ele>1626.485352</ele>
<time>2012-04-30T13:50:20Z</time>
<desc>lat.=42.900234, lon.=19.618460, Alt.=1626.485352m. Speed=2.628000m/h.</desc>
<speed>0.730000</speed>
</trkpt>
<trkpt lat="42.900234" lon="19.618513">
<ele>1627.454102</ele>
<time>2012-04-30T13:50:25Z</time>
<desc>lat.=42.900234, lon.=19.618513, Alt.=1627.454102m. Speed=2.952000m/h.</desc>
<speed>0.820000</speed>
</trkpt>
<trkpt lat="42.900204" lon="19.618582">
<ele>1627.922852</ele>
<time>2012-04-30T13:50:30Z</time>
<desc>lat.=42.900204, lon.=19.618582, Alt.=1627.922852m. Speed=2.988000m/h.</desc>
<speed>0.830000</speed>
</trkpt>
<trkpt lat="42.900196" lon="19.618645">
<ele>1627.922852</ele>
<time>2012-04-30T13:50:35Z</time>
<desc>lat.=42.900196, lon.=19.618645, Alt.=1627.922852m. Speed=2.592000m/h.</desc>
<speed>0.720000</speed>
</trkpt>
<trkpt lat="42.900139" lon="19.618696">
<ele>1629.110352</ele>
<time>2012-04-30T13:50:40Z</time>
<desc>lat.=42.900139, lon.=19.618696, Alt.=1629.110352m. Speed=3.096000m/h.</desc>
<speed>0.860000</speed>
</trkpt>
<trkpt lat="42.900143" lon="19.618721">
<ele>1630.422852</ele>
<time>2012-04-30T13:50:45Z</time>
<desc>lat.=42.900143, lon.=19.618721, Alt.=1630.422852m. Speed=0.900000m/h.</desc>
<speed>0.250000</speed>
</trkpt>
<trkpt lat="42.900143" lon="19.618755">
<ele>1630.766602</ele>
<time>2012-04-30T13:50:50Z</time>
<desc>lat.=42.900143, lon.=19.618755, Alt.=1630.766602m. Speed=1.116000m/h.</desc>
<speed>0.310000</speed>
</trkpt>
<trkpt lat="42.900108" lon="19.618799">
<ele>1630.266602</ele>
<time>2012-04-30T13:50:55Z</time>
<desc>lat.=42.900108, lon.=19.618799, Alt.=1630.266602m. Speed=3.924000m/h.</desc>
<speed>1.090000</speed>
</trkpt>
<trkpt lat="42.900047" lon="19.618847">
<ele>1629.860352</ele>
<time>2012-04-30T13:51:00Z</time>
<desc>lat.=42.900047, lon.=19.618847, Alt.=1629.860352m. Speed=3.168000m/h.</desc>
<speed>0.880000</speed>
</trkpt>
<trkpt lat="42.900032" lon="19.618910">
<ele>1630.235352</ele>
<time>2012-04-30T13:51:05Z</time>
<desc>lat.=42.900032, lon.=19.618910, Alt.=1630.235352m. Speed=3.492000m/h.</desc>
<speed>0.970000</speed>
</trkpt>
<trkpt lat="42.900002" lon="19.618965">
<ele>1631.641602</ele>
<time>2012-04-30T13:51:10Z</time>
<desc>lat.=42.900002, lon.=19.618965, Alt.=1631.641602m. Speed=2.772000m/h.</desc>
<speed>0.770000</speed>
</trkpt>
<trkpt lat="42.899956" lon="19.619001">
<ele>1632.704102</ele>
<time>2012-04-30T13:51:15Z</time>
<desc>lat.=42.899956, lon.=19.619001, Alt.=1632.704102m. Speed=3.600000m/h.</desc>
<speed>1.000000</speed>
</trkpt>
<trkpt lat="42.899933" lon="19.619051">
<ele>1634.547852</ele>
<time>2012-04-30T13:51:20Z</time>
<desc>lat.=42.899933, lon.=19.619051, Alt.=1634.547852m. Speed=2.592000m/h.</desc>
<speed>0.720000</speed>
</trkpt>
<trkpt lat="42.899910" lon="19.619068">
<ele>1636.704102</ele>
<time>2012-04-30T13:51:25Z</time>
<desc>lat.=42.899910, lon.=19.619068, Alt.=1636.704102m. Speed=1.728000m/h.</desc>
<speed>0.480000</speed>
</trkpt>
<trkpt lat="42.899891" lon="19.619089">
<ele>1637.985352</ele>
<time>2012-04-30T13:51:30Z</time>
<desc>lat.=42.899891, lon.=19.619089, Alt.=1637.985352m. Speed=1.404000m/h.</desc>
<speed>0.390000</speed>
</trkpt>
<trkpt lat="42.899868" lon="19.619112">
<ele>1638.922852</ele>
<time>2012-04-30T13:51:35Z</time>
<desc>lat.=42.899868, lon.=19.619112, Alt.=1638.922852m. Speed=1.656000m/h.</desc>
<speed>0.460000</speed>
</trkpt>
<trkpt lat="42.899887" lon="19.619108">
<ele>1639.860352</ele>
<time>2012-04-30T13:51:40Z</time>
<desc>lat.=42.899887, lon.=19.619108, Alt.=1639.860352m. Speed=2.448000m/h.</desc>
<speed>0.680000</speed>
</trkpt>
<trkpt lat="42.899910" lon="19.619083">
<ele>1640.891602</ele>
<time>2012-04-30T13:51:45Z</time>
<desc>lat.=42.899910, lon.=19.619083, Alt.=1640.891602m. Speed=2.448000m/h.</desc>
<speed>0.680000</speed>
</trkpt>
<trkpt lat="42.899956" lon="19.619080">
<ele>1642.235352</ele>
<time>2012-04-30T13:51:50Z</time>
<desc>lat.=42.899956, lon.=19.619080, Alt.=1642.235352m. Speed=2.124000m/h.</desc>
<speed>0.590000</speed>
</trkpt>
<trkpt lat="42.899967" lon="19.619064">
<ele>1643.391602</ele>
<time>2012-04-30T13:51:55Z</time>
<desc>lat.=42.899967, lon.=19.619064, Alt.=1643.391602m. Speed=1.260000m/h.</desc>
<speed>0.350000</speed>
</trkpt>
<trkpt lat="42.899982" lon="19.619040">
<ele>1643.641602</ele>
<time>2012-04-30T13:52:00Z</time>
<desc>lat.=42.899982, lon.=19.619040, Alt.=1643.641602m. Speed=2.124000m/h.</desc>
<speed>0.590000</speed>
</trkpt>
<trkpt lat="42.900051" lon="19.618971">
<ele>1644.391602</ele>
<time>2012-04-30T13:52:05Z</time>
<desc>lat.=42.900051, lon.=19.618971, Alt.=1644.391602m. Speed=3.204000m/h.</desc>
<speed>0.890000</speed>
</trkpt>
<trkpt lat="42.900112" lon="19.618931">
<ele>1645.922852</ele>
<time>2012-04-30T13:52:10Z</time>
<desc>lat.=42.900112, lon.=19.618931, Alt.=1645.922852m. Speed=2.844000m/h.</desc>
<speed>0.790000</speed>
</trkpt>
<trkpt lat="42.900139" lon="19.618864">
<ele>1647.235352</ele>
<time>2012-04-30T13:52:15Z</time>
<desc>lat.=42.900139, lon.=19.618864, Alt.=1647.235352m. Speed=3.744000m/h.</desc>
<speed>1.040000</speed>
</trkpt>
<trkpt lat="42.900166" lon="19.618814">
<ele>1648.985352</ele>
<time>2012-04-30T13:52:20Z</time>
<desc>lat.=42.900166, lon.=19.618814, Alt.=1648.985352m. Speed=4.356000m/h.</desc>
<speed>1.210000</speed>
</trkpt>
<trkpt lat="42.900192" lon="19.618761">
<ele>1650.485352</ele>
<time>2012-04-30T13:52:25Z</time>
<desc>lat.=42.900192, lon.=19.618761, Alt.=1650.485352m. Speed=2.736000m/h.</desc>
<speed>0.760000</speed>
</trkpt>
<trkpt lat="42.900204" lon="19.618713">
<ele>1652.829102</ele>
<time>2012-04-30T13:52:30Z</time>
<desc>lat.=42.900204, lon.=19.618713, Alt.=1652.829102m. Speed=1.224000m/h.</desc>
<speed>0.340000</speed>
</trkpt>
<trkpt lat="42.900215" lon="19.618681">
<ele>1653.985352</ele>
<time>2012-04-30T13:52:35Z</time>
<desc>lat.=42.900215, lon.=19.618681, Alt.=1653.985352m. Speed=1.260000m/h.</desc>
<speed>0.350000</speed>
</trkpt>
<trkpt lat="42.900227" lon="19.618643">
<ele>1652.579102</ele>
<time>2012-04-30T13:52:40Z</time>
<desc>lat.=42.900227, lon.=19.618643, Alt.=1652.579102m. Speed=1.656000m/h.</desc>
<speed>0.460000</speed>
</trkpt>
<trkpt lat="42.900269" lon="19.618601">
<ele>1653.422852</ele>
<time>2012-04-30T13:52:45Z</time>
<desc>lat.=42.900269, lon.=19.618601, Alt.=1653.422852m. Speed=3.852000m/h.</desc>
<speed>1.070000</speed>
</trkpt>
<trkpt lat="42.900299" lon="19.618538">
<ele>1653.891602</ele>
<time>2012-04-30T13:52:50Z</time>
<desc>lat.=42.900299, lon.=19.618538, Alt.=1653.891602m. Speed=2.340000m/h.</desc>
<speed>0.650000</speed>
</trkpt>
<trkpt lat="42.900322" lon="19.618467">
<ele>1654.360352</ele>
<time>2012-04-30T13:52:55Z</time>
<desc>lat.=42.900322, lon.=19.618467, Alt.=1654.360352m. Speed=3.600000m/h.</desc>
<speed>1.000000</speed>
</trkpt>
<trkpt lat="42.900352" lon="19.618408">
<ele>1654.797852</ele>
<time>2012-04-30T13:53:00Z</time>
<desc>lat.=42.900352, lon.=19.618408, Alt.=1654.797852m. Speed=2.700000m/h.</desc>
<speed>0.750000</speed>
</trkpt>
<trkpt lat="42.900406" lon="19.618343">
<ele>1654.735352</ele>
<time>2012-04-30T13:53:05Z</time>
<desc>lat.=42.900406, lon.=19.618343, Alt.=1654.735352m. Speed=2.880000m/h.</desc>
<speed>0.800000</speed>
</trkpt>
<trkpt lat="42.900436" lon="19.618296">
<ele>1653.360352</ele>
<time>2012-04-30T13:53:10Z</time>
<desc>lat.=42.900436, lon.=19.618296, Alt.=1653.360352m. Speed=2.340000m/h.</desc>
<speed>0.650000</speed>
</trkpt>
<trkpt lat="42.900475" lon="19.618269">
<ele>1653.172852</ele>
<time>2012-04-30T13:53:15Z</time>
<desc>lat.=42.900475, lon.=19.618269, Alt.=1653.172852m. Speed=1.332000m/h.</desc>
<speed>0.370000</speed>
</trkpt>
<trkpt lat="42.900482" lon="19.618191">
<ele>1653.704102</ele>
<time>2012-04-30T13:53:20Z</time>
<desc>lat.=42.900482, lon.=19.618191, Alt.=1653.704102m. Speed=3.492000m/h.</desc>
<speed>0.970000</speed>
</trkpt>
<trkpt lat="42.900520" lon="19.618118">
<ele>1652.047852</ele>
<time>2012-04-30T13:53:25Z</time>
<desc>lat.=42.900520, lon.=19.618118, Alt.=1652.047852m. Speed=3.096000m/h.</desc>
<speed>0.860000</speed>
</trkpt>
<trkpt lat="42.900555" lon="19.618052">
<ele>1650.110352</ele>
<time>2012-04-30T13:53:30Z</time>
<desc>lat.=42.900555, lon.=19.618052, Alt.=1650.110352m. Speed=4.032000m/h.</desc>
<speed>1.120000</speed>
</trkpt>
<trkpt lat="42.900585" lon="19.618006">
<ele>1649.110352</ele>
<time>2012-04-30T13:53:35Z</time>
<desc>lat.=42.900585, lon.=19.618006, Alt.=1649.110352m. Speed=3.276000m/h.</desc>
<speed>0.910000</speed>
</trkpt>
<trkpt lat="42.900620" lon="19.617928">
<ele>1647.797852</ele>
<time>2012-04-30T13:53:40Z</time>
<desc>lat.=42.900620, lon.=19.617928, Alt.=1647.797852m. Speed=4.212000m/h.</desc>
<speed>1.170000</speed>
</trkpt>
<trkpt lat="42.900646" lon="19.617851">
<ele>1647.047852</ele>
<time>2012-04-30T13:53:45Z</time>
<desc>lat.=42.900646, lon.=19.617851, Alt.=1647.047852m. Speed=3.744000m/h.</desc>
<speed>1.040000</speed>
</trkpt>
<trkpt lat="42.900692" lon="19.617785">
<ele>1644.860352</ele>
<time>2012-04-30T13:53:50Z</time>
<desc>lat.=42.900692, lon.=19.617785, Alt.=1644.860352m. Speed=3.924000m/h.</desc>
<speed>1.090000</speed>
</trkpt>
<trkpt lat="42.900723" lon="19.617725">
<ele>1644.922852</ele>
<time>2012-04-30T13:53:55Z</time>
<desc>lat.=42.900723, lon.=19.617725, Alt.=1644.922852m. Speed=3.672000m/h.</desc>
<speed>1.020000</speed>
</trkpt>
<trkpt lat="42.900749" lon="19.617695">
<ele>1644.735352</ele>
<time>2012-04-30T13:54:00Z</time>
<desc>lat.=42.900749, lon.=19.617695, Alt.=1644.735352m. Speed=0.756000m/h.</desc>
<speed>0.210000</speed>
</trkpt>
<trkpt lat="42.900745" lon="19.617702">
<ele>1643.985352</ele>
<time>2012-04-30T13:54:05Z</time>
<desc>lat.=42.900745, lon.=19.617702, Alt.=1643.985352m. Speed=0.216000m/h.</desc>
<speed>0.060000</speed>
</trkpt>
<trkpt lat="42.900745" lon="19.617702">
<ele>1644.204102</ele>
<time>2012-04-30T13:54:10Z</time>
<desc>lat.=42.900745, lon.=19.617702, Alt.=1644.204102m. Speed=0.108000m/h.</desc>
<speed>0.030000</speed>
</trkpt>
<trkpt lat="42.900749" lon="19.617697">
<ele>1644.360352</ele>
<time>2012-04-30T13:54:15Z</time>
<desc>lat.=42.900749, lon.=19.617697, Alt.=1644.360352m. Speed=0.468000m/h.</desc>
<speed>0.130000</speed>
</trkpt>
<trkpt lat="42.900757" lon="19.617695">
<ele>1642.579102</ele>
<time>2012-04-30T13:54:20Z</time>
<desc>lat.=42.900757, lon.=19.617695, Alt.=1642.579102m. Speed=0.936000m/h.</desc>
<speed>0.260000</speed>
</trkpt>
<trkpt lat="42.900776" lon="19.617739">
<ele>1641.766602</ele>
<time>2012-04-30T13:54:25Z</time>
<desc>lat.=42.900776, lon.=19.617739, Alt.=1641.766602m. Speed=5.148000m/h.</desc>
<speed>1.430000</speed>
</trkpt>
<trkpt lat="42.900784" lon="19.617832">
<ele>1641.797852</ele>
<time>2012-04-30T13:54:30Z</time>
<desc>lat.=42.900784, lon.=19.617832, Alt.=1641.797852m. Speed=3.600000m/h.</desc>
<speed>1.000000</speed>
</trkpt>
<trkpt lat="42.900757" lon="19.617882">
<ele>1642.110352</ele>
<time>2012-04-30T13:54:35Z</time>
<desc>lat.=42.900757, lon.=19.617882, Alt.=1642.110352m. Speed=2.592000m/h.</desc>
<speed>0.720000</speed>
</trkpt>
<trkpt lat="42.900738" lon="19.617926">
<ele>1642.516602</ele>
<time>2012-04-30T13:54:40Z</time>
<desc>lat.=42.900738, lon.=19.617926, Alt.=1642.516602m. Speed=3.528000m/h.</desc>
<speed>0.980000</speed>
</trkpt>
<trkpt lat="42.900726" lon="19.617979">
<ele>1643.172852</ele>
<time>2012-04-30T13:54:45Z</time>
<desc>lat.=42.900726, lon.=19.617979, Alt.=1643.172852m. Speed=3.708000m/h.</desc>
<speed>1.030000</speed>
</trkpt>
<trkpt lat="42.900734" lon="19.618071">
<ele>1642.891602</ele>
<time>2012-04-30T13:54:50Z</time>
<desc>lat.=42.900734, lon.=19.618071, Alt.=1642.891602m. Speed=4.716000m/h.</desc>
<speed>1.310000</speed>
</trkpt>
<trkpt lat="42.900723" lon="19.618162">
<ele>1643.391602</ele>
<time>2012-04-30T13:54:55Z</time>
<desc>lat.=42.900723, lon.=19.618162, Alt.=1643.391602m. Speed=4.896000m/h.</desc>
<speed>1.360000</speed>
</trkpt>
<trkpt lat="42.900692" lon="19.618231">
<ele>1644.516602</ele>
<time>2012-04-30T13:55:00Z</time>
<desc>lat.=42.900692, lon.=19.618231, Alt.=1644.516602m. Speed=3.564000m/h.</desc>
<speed>0.990000</speed>
</trkpt>
<trkpt lat="42.900654" lon="19.618311">
<ele>1645.766602</ele>
<time>2012-04-30T13:55:05Z</time>
<desc>lat.=42.900654, lon.=19.618311, Alt.=1645.766602m. Speed=4.860000m/h.</desc>
<speed>1.350000</speed>
</trkpt>
<trkpt lat="42.900627" lon="19.618401">
<ele>1645.922852</ele>
<time>2012-04-30T13:55:10Z</time>
<desc>lat.=42.900627, lon.=19.618401, Alt.=1645.922852m. Speed=5.112000m/h.</desc>
<speed>1.420000</speed>
</trkpt>
<trkpt lat="42.900627" lon="19.618465">
<ele>1647.954102</ele>
<time>2012-04-30T13:55:15Z</time>
<desc>lat.=42.900627, lon.=19.618465, Alt.=1647.954102m. Speed=1.980000m/h.</desc>
<speed>0.550000</speed>
</trkpt>
<trkpt lat="42.900608" lon="19.618570">
<ele>1648.860352</ele>
<time>2012-04-30T13:55:20Z</time>
<desc>lat.=42.900608, lon.=19.618570, Alt.=1648.860352m. Speed=3.888000m/h.</desc>
<speed>1.080000</speed>
</trkpt>
<trkpt lat="42.900570" lon="19.618601">
<ele>1652.204102</ele>
<time>2012-04-30T13:55:25Z</time>
<desc>lat.=42.900570, lon.=19.618601, Alt.=1652.204102m. Speed=3.456000m/h.</desc>
<speed>0.960000</speed>
</trkpt>
<trkpt lat="42.900547" lon="19.618668">
<ele>1655.360352</ele>
<time>2012-04-30T13:55:30Z</time>
<desc>lat.=42.900547, lon.=19.618668, Alt.=1655.360352m. Speed=4.068000m/h.</desc>
<speed>1.130000</speed>
</trkpt>
<trkpt lat="42.900539" lon="19.618675">
<ele>1655.391602</ele>
<time>2012-04-30T13:55:35Z</time>
<desc>lat.=42.900539, lon.=19.618675, Alt.=1655.391602m. Speed=0.072000m/h.</desc>
<speed>0.020000</speed>
</trkpt>
<trkpt lat="42.900539" lon="19.618675">
<ele>1655.641602</ele>
<time>2012-04-30T13:55:40Z</time>
<desc>lat.=42.900539, lon.=19.618675, Alt.=1655.641602m. Speed=0.000000m/h.</desc>
<speed>0.000000</speed>
</trkpt>
<trkpt lat="42.900539" lon="19.618679">
<ele>1655.610352</ele>
<time>2012-04-30T13:55:45Z</time>
<desc>lat.=42.900539, lon.=19.618679, Alt.=1655.610352m. Speed=3.276000m/h.</desc>
<speed>0.910000</speed>
</trkpt>
<trkpt lat="42.900520" lon="19.618729">
<ele>1657.172852</ele>
<time>2012-04-30T13:55:50Z</time>
<desc>lat.=42.900520, lon.=19.618729, Alt.=1657.172852m. Speed=3.060000m/h.</desc>
<speed>0.850000</speed>
</trkpt>
<trkpt lat="42.900505" lon="19.618786">
<ele>1655.891602</ele>
<time>2012-04-30T13:55:55Z</time>
<desc>lat.=42.900505, lon.=19.618786, Alt.=1655.891602m. Speed=0.864000m/h.</desc>
<speed>0.240000</speed>
</trkpt>
<trkpt lat="42.900513" lon="19.618860">
<ele>1653.797852</ele>
<time>2012-04-30T13:56:00Z</time>
<desc>lat.=42.900513, lon.=19.618860, Alt.=1653.797852m. Speed=3.564000m/h.</desc>
<speed>0.990000</speed>
</trkpt>
<trkpt lat="42.900501" lon="19.618910">
<ele>1653.766602</ele>
<time>2012-04-30T13:56:05Z</time>
<desc>lat.=42.900501, lon.=19.618910, Alt.=1653.766602m. Speed=3.672000m/h.</desc>
<speed>1.020000</speed>
</trkpt>
<trkpt lat="42.900486" lon="19.618979">
<ele>1656.047852</ele>
<time>2012-04-30T13:56:10Z</time>
<desc>lat.=42.900486, lon.=19.618979, Alt.=1656.047852m. Speed=4.356000m/h.</desc>
<speed>1.210000</speed>
</trkpt>
<trkpt lat="42.900463" lon="19.619040">
<ele>1657.891602</ele>
<time>2012-04-30T13:56:15Z</time>
<desc>lat.=42.900463, lon.=19.619040, Alt.=1657.891602m. Speed=2.124000m/h.</desc>
<speed>0.590000</speed>
</trkpt>
<trkpt lat="42.900440" lon="19.619068">
<ele>1659.172852</ele>
<time>2012-04-30T13:56:20Z</time>
<desc>lat.=42.900440, lon.=19.619068, Alt.=1659.172852m. Speed=2.412000m/h.</desc>
<speed>0.670000</speed>
</trkpt>
<trkpt lat="42.900406" lon="19.619123">
<ele>1659.422852</ele>
<time>2012-04-30T13:56:25Z</time>
<desc>lat.=42.900406, lon.=19.619123, Alt.=1659.422852m. Speed=4.680000m/h.</desc>
<speed>1.300000</speed>
</trkpt>
<trkpt lat="42.900349" lon="19.619160">
<ele>1660.141602</ele>
<time>2012-04-30T13:56:30Z</time>
<desc>lat.=42.900349, lon.=19.619160, Alt.=1660.141602m. Speed=4.104000m/h.</desc>
<speed>1.140000</speed>
</trkpt>
<trkpt lat="42.900333" lon="19.619200">
<ele>1659.454102</ele>
<time>2012-04-30T13:56:35Z</time>
<desc>lat.=42.900333, lon.=19.619200, Alt.=1659.454102m. Speed=2.160000m/h.</desc>
<speed>0.600000</speed>
</trkpt>
<trkpt lat="42.900322" lon="19.619278">
<ele>1658.672852</ele>
<time>2012-04-30T13:56:40Z</time>
<desc>lat.=42.900322, lon.=19.619278, Alt.=1658.672852m. Speed=4.968000m/h.</desc>
<speed>1.380000</speed>
</trkpt>
<trkpt lat="42.900314" lon="19.619406">
<ele>1660.235352</ele>
<time>2012-04-30T13:56:45Z</time>
<desc>lat.=42.900314, lon.=19.619406, Alt.=1660.235352m. Speed=7.056000m/h.</desc>
<speed>1.960000</speed>
</trkpt>
<trkpt lat="42.900257" lon="19.619490">
<ele>1660.641602</ele>
<time>2012-04-30T13:56:50Z</time>
<desc>lat.=42.900257, lon.=19.619490, Alt.=1660.641602m. Speed=6.192000m/h.</desc>
<speed>1.720000</speed>
</trkpt>
<trkpt lat="42.900181" lon="19.619574">
<ele>1660.516602</ele>
<time>2012-04-30T13:56:55Z</time>
<desc>lat.=42.900181, lon.=19.619574, Alt.=1660.516602m. Speed=5.256000m/h.</desc>
<speed>1.460000</speed>
</trkpt>
<trkpt lat="42.900154" lon="19.619635">
<ele>1662.235352</ele>
<time>2012-04-30T13:57:00Z</time>
<desc>lat.=42.900154, lon.=19.619635, Alt.=1662.235352m. Speed=4.968000m/h.</desc>
<speed>1.380000</speed>
</trkpt>
<trkpt lat="42.900105" lon="19.619711">
<ele>1662.016602</ele>
<time>2012-04-30T13:57:05Z</time>
<desc>lat.=42.900105, lon.=19.619711, Alt.=1662.016602m. Speed=5.904000m/h.</desc>
<speed>1.640000</speed>
</trkpt>
<trkpt lat="42.900059" lon="19.619722">
<ele>1661.641602</ele>
<time>2012-04-30T13:57:10Z</time>
<desc>lat.=42.900059, lon.=19.619722, Alt.=1661.641602m. Speed=0.216000m/h.</desc>
<speed>0.060000</speed>
</trkpt>
<trkpt lat="42.900047" lon="19.619717">
<ele>1662.266602</ele>
<time>2012-04-30T13:57:15Z</time>
<desc>lat.=42.900047, lon.=19.619717, Alt.=1662.266602m. Speed=0.360000m/h.</desc>
<speed>0.100000</speed>
</trkpt>
<trkpt lat="42.900043" lon="19.619730">
<ele>1661.391602</ele>
<time>2012-04-30T13:57:20Z</time>
<desc>lat.=42.900043, lon.=19.619730, Alt.=1661.391602m. Speed=0.180000m/h.</desc>
<speed>0.050000</speed>
</trkpt>
<trkpt lat="42.900040" lon="19.619736">
<ele>1661.047852</ele>
<time>2012-04-30T13:57:25Z</time>
<desc>lat.=42.900040, lon.=19.619736, Alt.=1661.047852m. Speed=1.440000m/h.</desc>
<speed>0.400000</speed>
</trkpt>
<trkpt lat="42.900036" lon="19.619741">
<ele>1659.360352</ele>
<time>2012-04-30T13:57:30Z</time>
<desc>lat.=42.900036, lon.=19.619741, Alt.=1659.360352m. Speed=0.036000m/h.</desc>
<speed>0.010000</speed>
</trkpt>
<trkpt lat="42.900036" lon="19.619740">
<ele>1659.329102</ele>
<time>2012-04-30T13:57:35Z</time>
<desc>lat.=42.900036, lon.=19.619740, Alt.=1659.329102m. Speed=0.000000m/h.</desc>
<speed>0.000000</speed>
</trkpt>
<trkpt lat="42.900036" lon="19.619740">
<ele>1659.297852</ele>
<time>2012-04-30T13:57:40Z</time>
<desc>lat.=42.900036, lon.=19.619740, Alt.=1659.297852m. Speed=0.000000m/h.</desc>
<speed>0.000000</speed>
</trkpt>
<trkpt lat="42.900036" lon="19.619740">
<ele>1659.266602</ele>
<time>2012-04-30T13:57:45Z</time>
<desc>lat.=42.900036, lon.=19.619740, Alt.=1659.266602m. Speed=0.216000m/h.</desc>
<speed>0.060000</speed>
</trkpt>
<trkpt lat="42.900036" lon="19.619738">
<ele>1659.266602</ele>
<time>2012-04-30T13:57:50Z</time>
<desc>lat.=42.900036, lon.=19.619738, Alt.=1659.266602m. Speed=0.252000m/h.</desc>
<speed>0.070000</speed>
</trkpt>
<trkpt lat="42.900032" lon="19.619738">
<ele>1659.235352</ele>
<time>2012-04-30T13:57:55Z</time>
<desc>lat.=42.900032, lon.=19.619738, Alt.=1659.235352m. Speed=0.072000m/h.</desc>
<speed>0.020000</speed>
</trkpt>
<trkpt lat="42.900032" lon="19.619738">
<ele>1659.235352</ele>
<time>2012-04-30T13:58:00Z</time>
<desc>lat.=42.900032, lon.=19.619738, Alt.=1659.235352m. Speed=0.792000m/h.</desc>
<speed>0.220000</speed>
</trkpt>
<trkpt lat="42.900040" lon="19.619766">
<ele>1658.922852</ele>
<time>2012-04-30T13:58:05Z</time>
<desc>lat.=42.900040, lon.=19.619766, Alt.=1658.922852m. Speed=2.736000m/h.</desc>
<speed>0.760000</speed>
</trkpt>
<trkpt lat="42.900047" lon="19.619843">
<ele>1659.297852</ele>
<time>2012-04-30T13:58:10Z</time>
<desc>lat.=42.900047, lon.=19.619843, Alt.=1659.297852m. Speed=4.500000m/h.</desc>
<speed>1.250000</speed>
</trkpt>
<trkpt lat="42.900066" lon="19.619921">
<ele>1659.016602</ele>
<time>2012-04-30T13:58:15Z</time>
<desc>lat.=42.900066, lon.=19.619921, Alt.=1659.016602m. Speed=4.500000m/h.</desc>
<speed>1.250000</speed>
</trkpt>
<trkpt lat="42.900082" lon="19.620010">
<ele>1658.735352</ele>
<time>2012-04-30T13:58:20Z</time>
<desc>lat.=42.900082, lon.=19.620010, Alt.=1658.735352m. Speed=4.608000m/h.</desc>
<speed>1.280000</speed>
</trkpt>
<trkpt lat="42.900089" lon="19.620090">
<ele>1658.422852</ele>
<time>2012-04-30T13:58:25Z</time>
<desc>lat.=42.900089, lon.=19.620090, Alt.=1658.422852m. Speed=4.788000m/h.</desc>
<speed>1.330000</speed>
</trkpt>
<trkpt lat="42.900074" lon="19.620171">
<ele>1658.922852</ele>
<time>2012-04-30T13:58:30Z</time>
<desc>lat.=42.900074, lon.=19.620171, Alt.=1658.922852m. Speed=4.104000m/h.</desc>
<speed>1.140000</speed>
</trkpt>
<trkpt lat="42.900074" lon="19.620214">
<ele>1658.672852</ele>
<time>2012-04-30T13:58:35Z</time>
<desc>lat.=42.900074, lon.=19.620214, Alt.=1658.672852m. Speed=0.072000m/h.</desc>
<speed>0.020000</speed>
</trkpt>
<trkpt lat="42.900070" lon="19.620213">
<ele>1658.579102</ele>
<time>2012-04-30T13:58:40Z</time>
<desc>lat.=42.900070, lon.=19.620213, Alt.=1658.579102m. Speed=0.396000m/h.</desc>
<speed>0.110000</speed>
</trkpt>
<trkpt lat="42.900070" lon="19.620235">
<ele>1658.985352</ele>
<time>2012-04-30T13:58:45Z</time>
<desc>lat.=42.900070, lon.=19.620235, Alt.=1658.985352m. Speed=0.432000m/h.</desc>
<speed>0.120000</speed>
</trkpt>
<trkpt lat="42.900070" lon="19.620287">
<ele>1659.016602</ele>
<time>2012-04-30T13:58:50Z</time>
<desc>lat.=42.900070, lon.=19.620287, Alt.=1659.016602m. Speed=5.148000m/h.</desc>
<speed>1.430000</speed>
</trkpt>
<trkpt lat="42.900055" lon="19.620377">
<ele>1659.172852</ele>
<time>2012-04-30T13:58:55Z</time>
<desc>lat.=42.900055, lon.=19.620377, Alt.=1659.172852m. Speed=4.068000m/h.</desc>
<speed>1.130000</speed>
</trkpt>
<trkpt lat="42.900051" lon="19.620392">
<ele>1658.922852</ele>
<time>2012-04-30T13:59:00Z</time>
<desc>lat.=42.900051, lon.=19.620392, Alt.=1658.922852m. Speed=0.468000m/h.</desc>
<speed>0.130000</speed>
</trkpt>
<trkpt lat="42.900032" lon="19.620409">
<ele>1658.766602</ele>
<time>2012-04-30T13:59:05Z</time>
<desc>lat.=42.900032, lon.=19.620409, Alt.=1658.766602m. Speed=3.816000m/h.</desc>
<speed>1.060000</speed>
</trkpt>
<trkpt lat="42.900005" lon="19.620472">
<ele>1659.329102</ele>
<time>2012-04-30T13:59:10Z</time>
<desc>lat.=42.900005, lon.=19.620472, Alt.=1659.329102m. Speed=4.284000m/h.</desc>
<speed>1.190000</speed>
</trkpt>
<trkpt lat="42.900005" lon="19.620550">
<ele>1658.891602</ele>
<time>2012-04-30T13:59:15Z</time>
<desc>lat.=42.900005, lon.=19.620550, Alt.=1658.891602m. Speed=3.744000m/h.</desc>
<speed>1.040000</speed>
</trkpt>
<trkpt lat="42.900002" lon="19.620565">
<ele>1659.297852</ele>
<time>2012-04-30T13:59:20Z</time>
<desc>lat.=42.900002, lon.=19.620565, Alt.=1659.297852m. Speed=2.160000m/h.</desc>
<speed>0.600000</speed>
</trkpt>
<trkpt lat="42.900009" lon="19.620621">
<ele>1659.516602</ele>
<time>2012-04-30T13:59:25Z</time>
<desc>lat.=42.900009, lon.=19.620621, Alt.=1659.516602m. Speed=3.492000m/h.</desc>
<speed>0.970000</speed>
</trkpt>
<trkpt lat="42.900009" lon="19.620665">
<ele>1659.610352</ele>
<time>2012-04-30T13:59:30Z</time>
<desc>lat.=42.900009, lon.=19.620665, Alt.=1659.610352m. Speed=1.260000m/h.</desc>
<speed>0.350000</speed>
</trkpt>
<trkpt lat="42.899998" lon="19.620674">
<ele>1660.047852</ele>
<time>2012-04-30T13:59:35Z</time>
<desc>lat.=42.899998, lon.=19.620674, Alt.=1660.047852m. Speed=1.224000m/h.</desc>
<speed>0.340000</speed>
</trkpt>
<trkpt lat="42.899975" lon="19.620686">
<ele>1660.454102</ele>
<time>2012-04-30T13:59:40Z</time>
<desc>lat.=42.899975, lon.=19.620686, Alt.=1660.454102m. Speed=0.900000m/h.</desc>
<speed>0.250000</speed>
</trkpt>
<trkpt lat="42.899986" lon="19.620718">
<ele>1660.610352</ele>
<time>2012-04-30T13:59:45Z</time>
<desc>lat.=42.899986, lon.=19.620718, Alt.=1660.610352m. Speed=1.044000m/h.</desc>
<speed>0.290000</speed>
</trkpt>
<trkpt lat="42.899979" lon="19.620737">
<ele>1661.110352</ele>
<time>2012-04-30T13:59:50Z</time>
<desc>lat.=42.899979, lon.=19.620737, Alt.=1661.110352m. Speed=0.468000m/h.</desc>
<speed>0.130000</speed>
</trkpt>
<trkpt lat="42.899963" lon="19.620720">
<ele>1661.235352</ele>
<time>2012-04-30T13:59:55Z</time>
<desc>lat.=42.899963, lon.=19.620720, Alt.=1661.235352m. Speed=0.072000m/h.</desc>
<speed>0.020000</speed>
</trkpt>
<trkpt lat="42.899963" lon="19.620718">
<ele>1661.329102</ele>
<time>2012-04-30T14:00:00Z</time>
<desc>lat.=42.899963, lon.=19.620718, Alt.=1661.329102m. Speed=0.936000m/h.</desc>
<speed>0.260000</speed>
</trkpt>
<trkpt lat="42.899963" lon="19.620745">
<ele>1661.266602</ele>
<time>2012-04-30T14:00:05Z</time>
<desc>lat.=42.899963, lon.=19.620745, Alt.=1661.266602m. Speed=3.168000m/h.</desc>
<speed>0.880000</speed>
</trkpt>
<trkpt lat="42.899944" lon="19.620760">
<ele>1661.391602</ele>
<time>2012-04-30T14:00:10Z</time>
<desc>lat.=42.899944, lon.=19.620760, Alt.=1661.391602m. Speed=1.836000m/h.</desc>
<speed>0.510000</speed>
</trkpt>
<trkpt lat="42.899929" lon="19.620749">
<ele>1661.360352</ele>
<time>2012-04-30T14:00:15Z</time>
<desc>lat.=42.899929, lon.=19.620749, Alt.=1661.360352m. Speed=0.540000m/h.</desc>
<speed>0.150000</speed>
</trkpt>
<trkpt lat="42.899918" lon="19.620764">
<ele>1660.297852</ele>
<time>2012-04-30T14:00:20Z</time>
<desc>lat.=42.899918, lon.=19.620764, Alt.=1660.297852m. Speed=0.900000m/h.</desc>
<speed>0.250000</speed>
</trkpt>
<trkpt lat="42.899910" lon="19.620764">
<ele>1660.235352</ele>
<time>2012-04-30T14:00:25Z</time>
<desc>lat.=42.899910, lon.=19.620764, Alt.=1660.235352m. Speed=0.504000m/h.</desc>
<speed>0.140000</speed>
</trkpt>
<trkpt lat="42.899906" lon="19.620768">
<ele>1660.266602</ele>
<time>2012-04-30T14:00:30Z</time>
<desc>lat.=42.899906, lon.=19.620768, Alt.=1660.266602m. Speed=1.548000m/h.</desc>
<speed>0.430000</speed>
</trkpt>
<trkpt lat="42.899914" lon="19.620773">
<ele>1661.079102</ele>
<time>2012-04-30T14:00:35Z</time>
<desc>lat.=42.899914, lon.=19.620773, Alt.=1661.079102m. Speed=1.872000m/h.</desc>
<speed>0.520000</speed>
</trkpt>
<trkpt lat="42.899902" lon="19.620779">
<ele>1661.922852</ele>
<time>2012-04-30T14:00:40Z</time>
<desc>lat.=42.899902, lon.=19.620779, Alt.=1661.922852m. Speed=1.476000m/h.</desc>
<speed>0.410000</speed>
</trkpt>
<trkpt lat="42.899895" lon="19.620829">
<ele>1661.922852</ele>
<time>2012-04-30T14:00:45Z</time>
<desc>lat.=42.899895, lon.=19.620829, Alt.=1661.922852m. Speed=1.728000m/h.</desc>
<speed>0.480000</speed>
</trkpt>
<trkpt lat="42.899887" lon="19.620892">
<ele>1661.329102</ele>
<time>2012-04-30T14:00:50Z</time>
<desc>lat.=42.899887, lon.=19.620892, Alt.=1661.329102m. Speed=1.692000m/h.</desc>
<speed>0.470000</speed>
</trkpt>
<trkpt lat="42.899879" lon="19.620918">
<ele>1663.204102</ele>
<time>2012-04-30T14:00:55Z</time>
<desc>lat.=42.899879, lon.=19.620918, Alt.=1663.204102m. Speed=0.216000m/h.</desc>
<speed>0.060000</speed>
</trkpt>
<trkpt lat="42.899879" lon="19.620922">
<ele>1663.329102</ele>
<time>2012-04-30T14:01:00Z</time>
<desc>lat.=42.899879, lon.=19.620922, Alt.=1663.329102m. Speed=1.404000m/h.</desc>
<speed>0.390000</speed>
</trkpt>
<trkpt lat="42.899876" lon="19.620960">
<ele>1664.016602</ele>
<time>2012-04-30T14:01:05Z</time>
<desc>lat.=42.899876, lon.=19.620960, Alt.=1664.016602m. Speed=1.656000m/h.</desc>
<speed>0.460000</speed>
</trkpt>
<trkpt lat="42.899879" lon="19.620983">
<ele>1663.891602</ele>
<time>2012-04-30T14:01:10Z</time>
<desc>lat.=42.899879, lon.=19.620983, Alt.=1663.891602m. Speed=1.080000m/h.</desc>
<speed>0.300000</speed>
</trkpt>
<trkpt lat="42.899883" lon="19.621000">
<ele>1663.829102</ele>
<time>2012-04-30T14:01:15Z</time>
<desc>lat.=42.899883, lon.=19.621000, Alt.=1663.829102m. Speed=0.864000m/h.</desc>
<speed>0.240000</speed>
</trkpt>
<trkpt lat="42.899879" lon="19.621010">
<ele>1663.954102</ele>
<time>2012-04-30T14:01:20Z</time>
<desc>lat.=42.899879, lon.=19.621010, Alt.=1663.954102m. Speed=0.432000m/h.</desc>
<speed>0.120000</speed>
</trkpt>
<trkpt lat="42.899872" lon="19.621019">
<ele>1664.110352</ele>
<time>2012-04-30T14:01:25Z</time>
<desc>lat.=42.899872, lon.=19.621019, Alt.=1664.110352m. Speed=1.368000m/h.</desc>
<speed>0.380000</speed>
</trkpt>
<trkpt lat="42.899879" lon="19.621019">
<ele>1664.704102</ele>
<time>2012-04-30T14:01:30Z</time>
<desc>lat.=42.899879, lon.=19.621019, Alt.=1664.704102m. Speed=0.180000m/h.</desc>
<speed>0.050000</speed>
</trkpt>
<trkpt lat="42.899887" lon="19.621019">
<ele>1664.641602</ele>
<time>2012-04-30T14:01:35Z</time>
<desc>lat.=42.899887, lon.=19.621019, Alt.=1664.641602m. Speed=0.216000m/h.</desc>
<speed>0.060000</speed>
</trkpt>
<trkpt lat="42.899891" lon="19.621021">
<ele>1664.641602</ele>
<time>2012-04-30T14:01:40Z</time>
<desc>lat.=42.899891, lon.=19.621021, Alt.=1664.641602m. Speed=0.396000m/h.</desc>
<speed>0.110000</speed>
</trkpt>
<trkpt lat="42.899895" lon="19.621027">
<ele>1664.672852</ele>
<time>2012-04-30T14:01:45Z</time>
<desc>lat.=42.899895, lon.=19.621027, Alt.=1664.672852m. Speed=1.188000m/h.</desc>
<speed>0.330000</speed>
</trkpt>
<trkpt lat="42.899876" lon="19.621029">
<ele>1664.516602</ele>
<time>2012-04-30T14:01:50Z</time>
<desc>lat.=42.899876, lon.=19.621029, Alt.=1664.516602m. Speed=0.792000m/h.</desc>
<speed>0.220000</speed>
</trkpt>
<trkpt lat="42.899868" lon="19.621058">
<ele>1664.610352</ele>
<time>2012-04-30T14:01:55Z</time>
<desc>lat.=42.899868, lon.=19.621058, Alt.=1664.610352m. Speed=1.440000m/h.</desc>
<speed>0.400000</speed>
</trkpt>
<trkpt lat="42.899849" lon="19.621092">
<ele>1664.641602</ele>
<time>2012-04-30T14:02:00Z</time>
<desc>lat.=42.899849, lon.=19.621092, Alt.=1664.641602m. Speed=1.620000m/h.</desc>
<speed>0.450000</speed>
</trkpt>
<trkpt lat="42.899811" lon="19.621143">
<ele>1665.454102</ele>
<time>2012-04-30T14:02:05Z</time>
<desc>lat.=42.899811, lon.=19.621143, Alt.=1665.454102m. Speed=4.608000m/h.</desc>
<speed>1.280000</speed>
</trkpt>
<trkpt lat="42.899803" lon="19.621204">
<ele>1666.704102</ele>
<time>2012-04-30T14:02:10Z</time>
<desc>lat.=42.899803, lon.=19.621204, Alt.=1666.704102m. Speed=4.104000m/h.</desc>
<speed>1.140000</speed>
</trkpt>
<trkpt lat="42.899792" lon="19.621271">
<ele>1667.391602</ele>
<time>2012-04-30T14:02:15Z</time>
<desc>lat.=42.899792, lon.=19.621271, Alt.=1667.391602m. Speed=4.428000m/h.</desc>
<speed>1.230000</speed>
</trkpt>
<trkpt lat="42.899773" lon="19.621323">
<ele>1668.016602</ele>
<time>2012-04-30T14:02:20Z</time>
<desc>lat.=42.899773, lon.=19.621323, Alt.=1668.016602m. Speed=3.924000m/h.</desc>
<speed>1.090000</speed>
</trkpt>
<trkpt lat="42.899738" lon="19.621374">
<ele>1667.016602</ele>
<time>2012-04-30T14:02:25Z</time>
<desc>lat.=42.899738, lon.=19.621374, Alt.=1667.016602m. Speed=4.284000m/h.</desc>
<speed>1.190000</speed>
</trkpt>
<trkpt lat="42.899723" lon="19.621424">
<ele>1666.766602</ele>
<time>2012-04-30T14:02:30Z</time>
<desc>lat.=42.899723, lon.=19.621424, Alt.=1666.766602m. Speed=5.796000m/h.</desc>
<speed>1.610000</speed>
</trkpt>
<trkpt lat="42.899715" lon="19.621475">
<ele>1667.297852</ele>
<time>2012-04-30T14:02:35Z</time>
<desc>lat.=42.899715, lon.=19.621475, Alt.=1667.297852m. Speed=0.576000m/h.</desc>
<speed>0.160000</speed>
</trkpt>
<trkpt lat="42.899712" lon="19.621523">
<ele>1667.672852</ele>
<time>2012-04-30T14:02:40Z</time>
<desc>lat.=42.899712, lon.=19.621523, Alt.=1667.672852m. Speed=4.896000m/h.</desc>
<speed>1.360000</speed>
</trkpt>
<trkpt lat="42.899693" lon="19.621607">
<ele>1667.235352</ele>
<time>2012-04-30T14:02:45Z</time>
<desc>lat.=42.899693, lon.=19.621607, Alt.=1667.235352m. Speed=5.184000m/h.</desc>
<speed>1.440000</speed>
</trkpt>
<trkpt lat="42.899677" lon="19.621685">
<ele>1668.204102</ele>
<time>2012-04-30T14:02:50Z</time>
<desc>lat.=42.899677, lon.=19.621685, Alt.=1668.204102m. Speed=5.004000m/h.</desc>
<speed>1.390000</speed>
</trkpt>
<trkpt lat="42.899647" lon="19.621740">
<ele>1668.829102</ele>
<time>2012-04-30T14:02:55Z</time>
<desc>lat.=42.899647, lon.=19.621740, Alt.=1668.829102m. Speed=4.788000m/h.</desc>
<speed>1.330000</speed>
</trkpt>
<trkpt lat="42.899639" lon="19.621826">
<ele>1670.047852</ele>
<time>2012-04-30T14:03:00Z</time>
<desc>lat.=42.899639, lon.=19.621826, Alt.=1670.047852m. Speed=3.636000m/h.</desc>
<speed>1.010000</speed>
</trkpt>
<trkpt lat="42.899635" lon="19.621866">
<ele>1673.047852</ele>
<time>2012-04-30T14:03:05Z</time>
<desc>lat.=42.899635, lon.=19.621866, Alt.=1673.047852m. Speed=1.692000m/h.</desc>
<speed>0.470000</speed>
</trkpt>
<trkpt lat="42.899620" lon="19.621883">
<ele>1674.922852</ele>
<time>2012-04-30T14:03:10Z</time>
<desc>lat.=42.899620, lon.=19.621883, Alt.=1674.922852m. Speed=2.628000m/h.</desc>
<speed>0.730000</speed>
</trkpt>
<trkpt lat="42.899605" lon="19.621939">
<ele>1676.329102</ele>
<time>2012-04-30T14:03:15Z</time>
<desc>lat.=42.899605, lon.=19.621939, Alt.=1676.329102m. Speed=4.392000m/h.</desc>
<speed>1.220000</speed>
</trkpt>
<trkpt lat="42.899597" lon="19.622032">
<ele>1677.579102</ele>
<time>2012-04-30T14:03:20Z</time>
<desc>lat.=42.899597, lon.=19.622032, Alt.=1677.579102m. Speed=3.636000m/h.</desc>
<speed>1.010000</speed>
</trkpt>
<trkpt lat="42.899593" lon="19.622139">
<ele>1677.922852</ele>
<time>2012-04-30T14:03:25Z</time>
<desc>lat.=42.899593, lon.=19.622139, Alt.=1677.922852m. Speed=3.672000m/h.</desc>
<speed>1.020000</speed>
</trkpt>
<trkpt lat="42.899574" lon="19.622217">
<ele>1679.079102</ele>
<time>2012-04-30T14:03:30Z</time>
<desc>lat.=42.899574, lon.=19.622217, Alt.=1679.079102m. Speed=3.636000m/h.</desc>
<speed>1.010000</speed>
</trkpt>
<trkpt lat="42.899567" lon="19.622316">
<ele>1679.610352</ele>
<time>2012-04-30T14:03:35Z</time>
<desc>lat.=42.899567, lon.=19.622316, Alt.=1679.610352m. Speed=8.244000m/h.</desc>
<speed>2.290000</speed>
</trkpt>
<trkpt lat="42.899567" lon="19.622429">
<ele>1680.485352</ele>
<time>2012-04-30T14:03:40Z</time>
<desc>lat.=42.899567, lon.=19.622429, Alt.=1680.485352m. Speed=5.616000m/h.</desc>
<speed>1.560000</speed>
</trkpt>
<trkpt lat="42.899582" lon="19.622541">
<ele>1679.641602</ele>
<time>2012-04-30T14:03:45Z</time>
<desc>lat.=42.899582, lon.=19.622541, Alt.=1679.641602m. Speed=6.192000m/h.</desc>
<speed>1.720000</speed>
</trkpt>
<trkpt lat="42.899620" lon="19.622641">
<ele>1677.110352</ele>
<time>2012-04-30T14:03:50Z</time>
<desc>lat.=42.899620, lon.=19.622641, Alt.=1677.110352m. Speed=5.832000m/h.</desc>
<speed>1.620000</speed>
</trkpt>
<trkpt lat="42.899643" lon="19.622740">
<ele>1677.579102</ele>
<time>2012-04-30T14:03:55Z</time>
<desc>lat.=42.899643, lon.=19.622740, Alt.=1677.579102m. Speed=5.364000m/h.</desc>
<speed>1.490000</speed>
</trkpt>
<trkpt lat="42.899670" lon="19.622826">
<ele>1678.079102</ele>
<time>2012-04-30T14:04:00Z</time>
<desc>lat.=42.899670, lon.=19.622826, Alt.=1678.079102m. Speed=5.544000m/h.</desc>
<speed>1.540000</speed>
</trkpt>
<trkpt lat="42.899696" lon="19.622932">
<ele>1679.266602</ele>
<time>2012-04-30T14:04:05Z</time>
<desc>lat.=42.899696, lon.=19.622932, Alt.=1679.266602m. Speed=6.372000m/h.</desc>
<speed>1.770000</speed>
</trkpt>
<trkpt lat="42.899719" lon="19.623039">
<ele>1680.204102</ele>
<time>2012-04-30T14:04:10Z</time>
<desc>lat.=42.899719, lon.=19.623039, Alt.=1680.204102m. Speed=6.120000m/h.</desc>
<speed>1.700000</speed>
</trkpt>
<trkpt lat="42.899742" lon="19.623142">
<ele>1680.454102</ele>
<time>2012-04-30T14:04:15Z</time>
<desc>lat.=42.899742, lon.=19.623142, Alt.=1680.454102m. Speed=5.904000m/h.</desc>
<speed>1.640000</speed>
</trkpt>
<trkpt lat="42.899754" lon="19.623228">
<ele>1681.204102</ele>
<time>2012-04-30T14:04:20Z</time>
<desc>lat.=42.899754, lon.=19.623228, Alt.=1681.204102m. Speed=5.724000m/h.</desc>
<speed>1.590000</speed>
</trkpt>
<trkpt lat="42.899769" lon="19.623316">
<ele>1680.829102</ele>
<time>2012-04-30T14:04:25Z</time>
<desc>lat.=42.899769, lon.=19.623316, Alt.=1680.829102m. Speed=5.076000m/h.</desc>
<speed>1.410000</speed>
</trkpt>
<trkpt lat="42.899780" lon="19.623415">
<ele>1680.860352</ele>
<time>2012-04-30T14:04:30Z</time>
<desc>lat.=42.899780, lon.=19.623415, Alt.=1680.860352m. Speed=6.732000m/h.</desc>
<speed>1.870000</speed>
</trkpt>
<trkpt lat="42.899776" lon="19.623528">
<ele>1681.297852</ele>
<time>2012-04-30T14:04:35Z</time>
<desc>lat.=42.899776, lon.=19.623528, Alt.=1681.297852m. Speed=6.804000m/h.</desc>
<speed>1.890000</speed>
</trkpt>
<trkpt lat="42.899773" lon="19.623646">
<ele>1682.391602</ele>
<time>2012-04-30T14:04:40Z</time>
<desc>lat.=42.899773, lon.=19.623646, Alt.=1682.391602m. Speed=6.300000m/h.</desc>
<speed>1.750000</speed>
</trkpt>
<trkpt lat="42.899761" lon="19.623775">
<ele>1682.360352</ele>
<time>2012-04-30T14:04:45Z</time>
<desc>lat.=42.899761, lon.=19.623775, Alt.=1682.360352m. Speed=5.688000m/h.</desc>
<speed>1.580000</speed>
</trkpt>
<trkpt lat="42.899746" lon="19.623892">
<ele>1683.735352</ele>
<time>2012-04-30T14:04:50Z</time>
<desc>lat.=42.899746, lon.=19.623892, Alt.=1683.735352m. Speed=7.020000m/h.</desc>
<speed>1.950000</speed>
</trkpt>
<trkpt lat="42.899731" lon="19.624037">
<ele>1684.610352</ele>
<time>2012-04-30T14:04:55Z</time>
<desc>lat.=42.899731, lon.=19.624037, Alt.=1684.610352m. Speed=7.992000m/h.</desc>
<speed>2.220000</speed>
</trkpt>
<trkpt lat="42.899734" lon="19.624153">
<ele>1684.047852</ele>
<time>2012-04-30T14:05:00Z</time>
<desc>lat.=42.899734, lon.=19.624153, Alt.=1684.047852m. Speed=8.028000m/h.</desc>
<speed>2.230000</speed>
</trkpt>
<trkpt lat="42.899738" lon="19.624283">
<ele>1684.391602</ele>
<time>2012-04-30T14:05:05Z</time>
<desc>lat.=42.899738, lon.=19.624283, Alt.=1684.391602m. Speed=10.188000m/h.</desc>
<speed>2.830000</speed>
</trkpt>
<trkpt lat="42.899750" lon="19.624437">
<ele>1683.329102</ele>
<time>2012-04-30T14:05:10Z</time>
<desc>lat.=42.899750, lon.=19.624437, Alt.=1683.329102m. Speed=5.868000m/h.</desc>
<speed>1.630000</speed>
</trkpt>
<trkpt lat="42.899746" lon="19.624563">
<ele>1684.016602</ele>
<time>2012-04-30T14:05:15Z</time>
<desc>lat.=42.899746, lon.=19.624563, Alt.=1684.016602m. Speed=6.336000m/h.</desc>
<speed>1.760000</speed>
</trkpt>
<trkpt lat="42.899738" lon="19.624695">
<ele>1686.110352</ele>
<time>2012-04-30T14:05:20Z</time>
<desc>lat.=42.899738, lon.=19.624695, Alt.=1686.110352m. Speed=7.704000m/h.</desc>
<speed>2.140000</speed>
</trkpt>
<trkpt lat="42.899750" lon="19.624792">
<ele>1686.360352</ele>
<time>2012-04-30T14:05:25Z</time>
<desc>lat.=42.899750, lon.=19.624792, Alt.=1686.360352m. Speed=4.824000m/h.</desc>
<speed>1.340000</speed>
</trkpt>
<trkpt lat="42.899765" lon="19.624880">
<ele>1685.829102</ele>
<time>2012-04-30T14:05:30Z</time>
<desc>lat.=42.899765, lon.=19.624880, Alt.=1685.829102m. Speed=0.288000m/h.</desc>
<speed>0.080000</speed>
</trkpt>
<trkpt lat="42.899792" lon="19.624893">
<ele>1686.704102</ele>
<time>2012-04-30T14:05:35Z</time>
<desc>lat.=42.899792, lon.=19.624893, Alt.=1686.704102m. Speed=0.180000m/h.</desc>
<speed>0.050000</speed>
</trkpt>
<trkpt lat="42.899796" lon="19.624895">
<ele>1686.735352</ele>
<time>2012-04-30T14:05:40Z</time>
<desc>lat.=42.899796, lon.=19.624895, Alt.=1686.735352m. Speed=0.108000m/h.</desc>
<speed>0.030000</speed>
</trkpt>
<trkpt lat="42.899796" lon="19.624893">
<ele>1686.766602</ele>
<time>2012-04-30T14:05:45Z</time>
<desc>lat.=42.899796, lon.=19.624893, Alt.=1686.766602m. Speed=0.432000m/h.</desc>
<speed>0.120000</speed>
</trkpt>
<trkpt lat="42.899799" lon="19.624891">
<ele>1686.766602</ele>
<time>2012-04-30T14:05:50Z</time>
<desc>lat.=42.899799, lon.=19.624891, Alt.=1686.766602m. Speed=0.360000m/h.</desc>
<speed>0.100000</speed>
</trkpt>
<trkpt lat="42.899799" lon="19.624891">
<ele>1686.735352</ele>
<time>2012-04-30T14:05:55Z</time>
<desc>lat.=42.899799, lon.=19.624891, Alt.=1686.735352m. Speed=0.324000m/h.</desc>
<speed>0.090000</speed>
</trkpt>
<trkpt lat="42.899799" lon="19.624891">
<ele>1686.735352</ele>
<time>2012-04-30T14:06:00Z</time>
<desc>lat.=42.899799, lon.=19.624891, Alt.=1686.735352m. Speed=0.072000m/h.</desc>
<speed>0.020000</speed>
</trkpt>
<trkpt lat="42.899799" lon="19.624891">
<ele>1686.735352</ele>
<time>2012-04-30T14:06:05Z</time>
<desc>lat.=42.899799, lon.=19.624891, Alt.=1686.735352m. Speed=0.000000m/h.</desc>
<speed>0.000000</speed>
</trkpt>
<trkpt lat="42.899799" lon="19.624891">
<ele>1686.766602</ele>
<time>2012-04-30T14:06:10Z</time>
<desc>lat.=42.899799, lon.=19.624891, Alt.=1686.766602m. Speed=0.000000m/h.</desc>
<speed>0.000000</speed>
</trkpt>
<trkpt lat="42.899799" lon="19.624891">
<ele>1686.766602</ele>
<time>2012-04-30T14:06:15Z</time>
<desc>lat.=42.899799, lon.=19.624891, Alt.=1686.766602m. Speed=0.000000m/h.</desc>
<speed>0.000000</speed>
</trkpt>
<trkpt lat="42.899799" lon="19.624891">
<ele>1686.766602</ele>
<time>2012-04-30T14:06:20Z</time>
<desc>lat.=42.899799, lon.=19.624891, Alt.=1686.766602m. Speed=0.036000m/h.</desc>
<speed>0.010000</speed>
</trkpt>
<trkpt lat="42.899799" lon="19.624891">
<ele>1686.766602</ele>
<time>2012-04-30T14:06:25Z</time>
<desc>lat.=42.899799, lon.=19.624891, Alt.=1686.766602m. Speed=0.000000m/h.</desc>
<speed>0.000000</speed>
</trkpt>
<trkpt lat="42.899799" lon="19.624891">
<ele>1686.766602</ele>
<time>2012-04-30T14:06:30Z</time>
<desc>lat.=42.899799, lon.=19.624891, Alt.=1686.766602m. Speed=0.000000m/h.</desc>
<speed>0.000000</speed>
</trkpt>
<trkpt lat="42.899799" lon="19.624891">
<ele>1686.797852</ele>
<time>2012-04-30T14:06:35Z</time>
<desc>lat.=42.899799, lon.=19.624891, Alt.=1686.797852m. Speed=0.000000m/h.</desc>
<speed>0.000000</speed>
</trkpt>
<trkpt lat="42.899799" lon="19.624891">
<ele>1686.829102</ele>
<time>2012-04-30T14:06:40Z</time>
<desc>lat.=42.899799, lon.=19.624891, Alt.=1686.829102m. Speed=0.000000m/h.</desc>
<speed>0.000000</speed>
</trkpt>
<trkpt lat="42.899799" lon="19.624891">
<ele>1686.829102</ele>
<time>2012-04-30T14:06:45Z</time>
<desc>lat.=42.899799, lon.=19.624891, Alt.=1686.829102m. Speed=0.000000m/h.</desc>
<speed>0.000000</speed>
</trkpt>
<trkpt lat="42.899799" lon="19.624891">
<ele>1686.860352</ele>
<time>2012-04-30T14:06:50Z</time>
<desc>lat.=42.899799, lon.=19.624891, Alt.=1686.860352m. Speed=0.000000m/h.</desc>
<speed>0.000000</speed>
</trkpt>
<trkpt lat="42.899799" lon="19.624891">
<ele>1686.891602</ele>
<time>2012-04-30T14:06:55Z</time>
<desc>lat.=42.899799, lon.=19.624891, Alt.=1686.891602m. Speed=0.000000m/h.</desc>
<speed>0.000000</speed>
</trkpt>
<trkpt lat="42.899799" lon="19.624891">
<ele>1686.891602</ele>
<time>2012-04-30T14:07:00Z</time>
<desc>lat.=42.899799, lon.=19.624891, Alt.=1686.891602m. Speed=0.000000m/h.</desc>
<speed>0.000000</speed>
</trkpt>
<trkpt lat="42.899799" lon="19.624891">
<ele>1686.891602</ele>
<time>2012-04-30T14:07:05Z</time>
<desc>lat.=42.899799, lon.=19.624891, Alt.=1686.891602m. Speed=0.036000m/h.</desc>
<speed>0.010000</speed>
</trkpt>
<trkpt lat="42.899799" lon="19.624891">
<ele>1686.922852</ele>
<time>2012-04-30T14:07:10Z</time>
<desc>lat.=42.899799, lon.=19.624891, Alt.=1686.922852m. Speed=0.000000m/h.</desc>
<speed>0.000000</speed>
</trkpt>
<trkpt lat="42.899799" lon="19.624891">
<ele>1686.922852</ele>
<time>2012-04-30T14:07:15Z</time>
<desc>lat.=42.899799, lon.=19.624891, Alt.=1686.922852m. Speed=0.000000m/h.</desc>
<speed>0.000000</speed>
</trkpt>
<trkpt lat="42.899799" lon="19.624891">
<ele>1686.922852</ele>
<time>2012-04-30T14:07:20Z</time>
<desc>lat.=42.899799, lon.=19.624891, Alt.=1686.922852m. Speed=0.036000m/h.</desc>
<speed>0.010000</speed>
</trkpt>
<trkpt lat="42.899799" lon="19.624891">
<ele>1686.922852</ele>
<time>2012-04-30T14:07:25Z</time>
<desc>lat.=42.899799, lon.=19.624891, Alt.=1686.922852m. Speed=0.000000m/h.</desc>
<speed>0.000000</speed>
</trkpt>
<trkpt lat="42.899799" lon="19.624891">
<ele>1686.954102</ele>
<time>2012-04-30T14:07:30Z</time>
<desc>lat.=42.899799, lon.=19.624891, Alt.=1686.954102m. Speed=0.000000m/h.</desc>
<speed>0.000000</speed>
</trkpt>
<trkpt lat="42.899799" lon="19.624891">
<ele>1686.954102</ele>
<time>2012-04-30T14:07:35Z</time>
<desc>lat.=42.899799, lon.=19.624891, Alt.=1686.954102m. Speed=0.000000m/h.</desc>
<speed>0.000000</speed>
</trkpt>
<trkpt lat="42.899799" lon="19.624891">
<ele>1686.985352</ele>
<time>2012-04-30T14:07:40Z</time>
<desc>lat.=42.899799, lon.=19.624891, Alt.=1686.985352m. Speed=0.000000m/h.</desc>
<speed>0.000000</speed>
</trkpt>
<trkpt lat="42.899799" lon="19.624891">
<ele>1686.985352</ele>
<time>2012-04-30T14:07:45Z</time>
<desc>lat.=42.899799, lon.=19.624891, Alt.=1686.985352m. Speed=0.000000m/h.</desc>
<speed>0.000000</speed>
</trkpt>
<trkpt lat="42.899799" lon="19.624891">
<ele>1686.985352</ele>
<time>2012-04-30T14:07:50Z</time>
<desc>lat.=42.899799, lon.=19.624891, Alt.=1686.985352m. Speed=0.000000m/h.</desc>
<speed>0.000000</speed>
</trkpt>
<trkpt lat="42.899799" lon="19.624891">
<ele>1686.985352</ele>
<time>2012-04-30T14:07:55Z</time>
<desc>lat.=42.899799, lon.=19.624891, Alt.=1686.985352m. Speed=0.000000m/h.</desc>
<speed>0.000000</speed>
</trkpt>
<trkpt lat="42.899799" lon="19.624893">
<ele>1686.985352</ele>
<time>2012-04-30T14:08:00Z</time>
<desc>lat.=42.899799, lon.=19.624893, Alt.=1686.985352m. Speed=0.000000m/h.</desc>
<speed>0.000000</speed>
</trkpt>
<trkpt lat="42.899799" lon="19.624893">
<ele>1686.985352</ele>
<time>2012-04-30T14:08:05Z</time>
<desc>lat.=42.899799, lon.=19.624893, Alt.=1686.985352m. Speed=0.000000m/h.</desc>
<speed>0.000000</speed>
</trkpt>
<trkpt lat="42.899799" lon="19.624893">
<ele>1686.985352</ele>
<time>2012-04-30T14:08:10Z</time>
<desc>lat.=42.899799, lon.=19.624893, Alt.=1686.985352m. Speed=0.000000m/h.</desc>
<speed>0.000000</speed>
</trkpt>
<trkpt lat="42.899799" lon="19.624893">
<ele>1686.985352</ele>
<time>2012-04-30T14:08:15Z</time>
<desc>lat.=42.899799, lon.=19.624893, Alt.=1686.985352m. Speed=0.000000m/h.</desc>
<speed>0.000000</speed>
</trkpt>
<trkpt lat="42.899799" lon="19.624893">
<ele>1687.016602</ele>
<time>2012-04-30T14:08:20Z</time>
<desc>lat.=42.899799, lon.=19.624893, Alt.=1687.016602m. Speed=0.000000m/h.</desc>
<speed>0.000000</speed>
</trkpt>
<trkpt lat="42.899799" lon="19.624893">
<ele>1687.047852</ele>
<time>2012-04-30T14:08:25Z</time>
<desc>lat.=42.899799, lon.=19.624893, Alt.=1687.047852m. Speed=0.000000m/h.</desc>
<speed>0.000000</speed>
</trkpt>
<trkpt lat="42.899799" lon="19.624893">
<ele>1687.047852</ele>
<time>2012-04-30T14:08:30Z</time>
<desc>lat.=42.899799, lon.=19.624893, Alt.=1687.047852m. Speed=0.000000m/h.</desc>
<speed>0.000000</speed>
</trkpt>
<trkpt lat="42.899799" lon="19.624893">
<ele>1687.079102</ele>
<time>2012-04-30T14:08:35Z</time>
<desc>lat.=42.899799, lon.=19.624893, Alt.=1687.079102m. Speed=0.000000m/h.</desc>
<speed>0.000000</speed>
</trkpt>
<trkpt lat="42.899799" lon="19.624893">
<ele>1687.079102</ele>
<time>2012-04-30T14:08:40Z</time>
<desc>lat.=42.899799, lon.=19.624893, Alt.=1687.079102m. Speed=0.000000m/h.</desc>
<speed>0.000000</speed>
</trkpt>
<trkpt lat="42.899799" lon="19.624893">
<ele>1687.079102</ele>
<time>2012-04-30T14:08:45Z</time>
<desc>lat.=42.899799, lon.=19.624893, Alt.=1687.079102m. Speed=0.000000m/h.</desc>
<speed>0.000000</speed>
</trkpt>
<trkpt lat="42.899799" lon="19.624893">
<ele>1687.079102</ele>
<time>2012-04-30T14:08:50Z</time>
<desc>lat.=42.899799, lon.=19.624893, Alt.=1687.079102m. Speed=0.000000m/h.</desc>
<speed>0.000000</speed>
</trkpt>
<trkpt lat="42.899799" lon="19.624893">
<ele>1687.110352</ele>
<time>2012-04-30T14:08:55Z</time>
<desc>lat.=42.899799, lon.=19.624893, Alt.=1687.110352m. Speed=0.000000m/h.</desc>
<speed>0.000000</speed>
</trkpt>
<trkpt lat="42.899799" lon="19.624893">
<ele>1687.110352</ele>
<time>2012-04-30T14:09:00Z</time>
<desc>lat.=42.899799, lon.=19.624893, Alt.=1687.110352m. Speed=0.000000m/h.</desc>
<speed>0.000000</speed>
</trkpt>
<trkpt lat="42.899799" lon="19.624893">
<ele>1687.141602</ele>
<time>2012-04-30T14:09:05Z</time>
<desc>lat.=42.899799, lon.=19.624893, Alt.=1687.141602m. Speed=0.000000m/h.</desc>
<speed>0.000000</speed>
</trkpt>
<trkpt lat="42.899799" lon="19.624893">
<ele>1687.141602</ele>
<time>2012-04-30T14:09:10Z</time>
<desc>lat.=42.899799, lon.=19.624893, Alt.=1687.141602m. Speed=0.000000m/h.</desc>
<speed>0.000000</speed>
</trkpt>
<trkpt lat="42.899799" lon="19.624893">
<ele>1687.141602</ele>
<time>2012-04-30T14:09:15Z</time>
<desc>lat.=42.899799, lon.=19.624893, Alt.=1687.141602m. Speed=0.000000m/h.</desc>
<speed>0.000000</speed>
</trkpt>
<trkpt lat="42.899799" lon="19.624893">
<ele>1687.172852</ele>
<time>2012-04-30T14:09:20Z</time>
<desc>lat.=42.899799, lon.=19.624893, Alt.=1687.172852m. Speed=0.000000m/h.</desc>
<speed>0.000000</speed>
</trkpt>
<trkpt lat="42.899799" lon="19.624893">
<ele>1687.204102</ele>
<time>2012-04-30T14:09:25Z</time>
<desc>lat.=42.899799, lon.=19.624893, Alt.=1687.204102m. Speed=0.000000m/h.</desc>
<speed>0.000000</speed>
</trkpt>
<trkpt lat="42.899799" lon="19.624893">
<ele>1687.204102</ele>
<time>2012-04-30T14:09:30Z</time>
<desc>lat.=42.899799, lon.=19.624893, Alt.=1687.204102m. Speed=0.036000m/h.</desc>
<speed>0.010000</speed>
</trkpt>
<trkpt lat="42.899799" lon="19.624893">
<ele>1687.235352</ele>
<time>2012-04-30T14:09:35Z</time>
<desc>lat.=42.899799, lon.=19.624893, Alt.=1687.235352m. Speed=0.000000m/h.</desc>
<speed>0.000000</speed>
</trkpt>
<trkpt lat="42.899799" lon="19.624893">
<ele>1687.235352</ele>
<time>2012-04-30T14:09:40Z</time>
<desc>lat.=42.899799, lon.=19.624893, Alt.=1687.235352m. Speed=0.000000m/h.</desc>
<speed>0.000000</speed>
</trkpt>
<trkpt lat="42.899799" lon="19.624893">
<ele>1687.235352</ele>
<time>2012-04-30T14:09:45Z</time>
<desc>lat.=42.899799, lon.=19.624893, Alt.=1687.235352m. Speed=0.036000m/h.</desc>
<speed>0.010000</speed>
</trkpt>
<trkpt lat="42.899799" lon="19.624893">
<ele>1687.266602</ele>
<time>2012-04-30T14:09:50Z</time>
<desc>lat.=42.899799, lon.=19.624893, Alt.=1687.266602m. Speed=0.036000m/h.</desc>
<speed>0.010000</speed>
</trkpt>
<trkpt lat="42.899799" lon="19.624893">
<ele>1687.266602</ele>
<time>2012-04-30T14:09:55Z</time>
<desc>lat.=42.899799, lon.=19.624893, Alt.=1687.266602m. Speed=0.036000m/h.</desc>
<speed>0.010000</speed>
</trkpt>
<trkpt lat="42.899799" lon="19.624893">
<ele>1687.297852</ele>
<time>2012-04-30T14:10:00Z</time>
<desc>lat.=42.899799, lon.=19.624893, Alt.=1687.297852m. Speed=0.000000m/h.</desc>
<speed>0.000000</speed>
</trkpt>
<trkpt lat="42.899799" lon="19.624893">
<ele>1687.329102</ele>
<time>2012-04-30T14:10:05Z</time>
<desc>lat.=42.899799, lon.=19.624893, Alt.=1687.329102m. Speed=0.036000m/h.</desc>
<speed>0.010000</speed>
</trkpt>
<trkpt lat="42.899799" lon="19.624893">
<ele>1687.360352</ele>
<time>2012-04-30T14:10:10Z</time>
<desc>lat.=42.899799, lon.=19.624893, Alt.=1687.360352m. Speed=0.036000m/h.</desc>
<speed>0.010000</speed>
</trkpt>
<trkpt lat="42.899799" lon="19.624893">
<ele>1687.360352</ele>
<time>2012-04-30T14:10:15Z</time>
<desc>lat.=42.899799, lon.=19.624893, Alt.=1687.360352m. Speed=0.000000m/h.</desc>
<speed>0.000000</speed>
</trkpt>
<trkpt lat="42.899799" lon="19.624893">
<ele>1687.391602</ele>
<time>2012-04-30T14:10:20Z</time>
<desc>lat.=42.899799, lon.=19.624893, Alt.=1687.391602m. Speed=0.036000m/h.</desc>
<speed>0.010000</speed>
</trkpt>
<trkpt lat="42.899799" lon="19.624893">
<ele>1687.422852</ele>
<time>2012-04-30T14:10:25Z</time>
<desc>lat.=42.899799, lon.=19.624893, Alt.=1687.422852m. Speed=0.000000m/h.</desc>
<speed>0.000000</speed>
</trkpt>
<trkpt lat="42.899799" lon="19.624893">
<ele>1687.422852</ele>
<time>2012-04-30T14:10:30Z</time>
<desc>lat.=42.899799, lon.=19.624893, Alt.=1687.422852m. Speed=0.000000m/h.</desc>
<speed>0.000000</speed>
</trkpt>
<trkpt lat="42.899799" lon="19.624893">
<ele>1687.454102</ele>
<time>2012-04-30T14:10:35Z</time>
<desc>lat.=42.899799, lon.=19.624893, Alt.=1687.454102m. Speed=0.216000m/h.</desc>
<speed>0.060000</speed>
</trkpt>
<trkpt lat="42.899799" lon="19.624893">
<ele>1687.485352</ele>
<time>2012-04-30T14:10:40Z</time>
<desc>lat.=42.899799, lon.=19.624893, Alt.=1687.485352m. Speed=0.000000m/h.</desc>
<speed>0.000000</speed>
</trkpt>
<trkpt lat="42.899799" lon="19.624893">
<ele>1687.516602</ele>
<time>2012-04-30T14:10:45Z</time>
<desc>lat.=42.899799, lon.=19.624893, Alt.=1687.516602m. Speed=0.000000m/h.</desc>
<speed>0.000000</speed>
</trkpt>
<trkpt lat="42.899799" lon="19.624893">
<ele>1687.516602</ele>
<time>2012-04-30T14:10:50Z</time>
<desc>lat.=42.899799, lon.=19.624893, Alt.=1687.516602m. Speed=0.036000m/h.</desc>
<speed>0.010000</speed>
</trkpt>
<trkpt lat="42.899799" lon="19.624893">
<ele>1687.579102</ele>
<time>2012-04-30T14:10:55Z</time>
<desc>lat.=42.899799, lon.=19.624893, Alt.=1687.579102m. Speed=0.000000m/h.</desc>
<speed>0.000000</speed>
</trkpt>
<trkpt lat="42.899799" lon="19.624893">
<ele>1687.610352</ele>
<time>2012-04-30T14:11:00Z</time>
<desc>lat.=42.899799, lon.=19.624893, Alt.=1687.610352m. Speed=0.000000m/h.</desc>
<speed>0.000000</speed>
</trkpt>
<trkpt lat="42.899799" lon="19.624893">
<ele>1687.610352</ele>
<time>2012-04-30T14:11:05Z</time>
<desc>lat.=42.899799, lon.=19.624893, Alt.=1687.610352m. Speed=0.072000m/h.</desc>
<speed>0.020000</speed>
</trkpt>
<trkpt lat="42.899799" lon="19.624893">
<ele>1687.641602</ele>
<time>2012-04-30T14:11:10Z</time>
<desc>lat.=42.899799, lon.=19.624893, Alt.=1687.641602m. Speed=0.072000m/h.</desc>
<speed>0.020000</speed>
</trkpt>
<trkpt lat="42.899799" lon="19.624893">
<ele>1687.704102</ele>
<time>2012-04-30T14:11:15Z</time>
<desc>lat.=42.899799, lon.=19.624893, Alt.=1687.704102m. Speed=0.720000m/h.</desc>
<speed>0.200000</speed>
</trkpt>
<trkpt lat="42.899799" lon="19.624889">
<ele>1687.891602</ele>
<time>2012-04-30T14:11:20Z</time>
<desc>lat.=42.899799, lon.=19.624889, Alt.=1687.891602m. Speed=0.468000m/h.</desc>
<speed>0.130000</speed>
</trkpt>
<trkpt lat="42.899796" lon="19.624880">
<ele>1688.047852</ele>
<time>2012-04-30T14:11:25Z</time>
<desc>lat.=42.899796, lon.=19.624880, Alt.=1688.047852m. Speed=0.360000m/h.</desc>
<speed>0.100000</speed>
</trkpt>
<trkpt lat="42.899796" lon="19.624872">
<ele>1688.141602</ele>
<time>2012-04-30T14:11:30Z</time>
<desc>lat.=42.899796, lon.=19.624872, Alt.=1688.141602m. Speed=0.396000m/h.</desc>
<speed>0.110000</speed>
</trkpt>
<trkpt lat="42.899792" lon="19.624868">
<ele>1688.266602</ele>
<time>2012-04-30T14:11:35Z</time>
<desc>lat.=42.899792, lon.=19.624868, Alt.=1688.266602m. Speed=0.072000m/h.</desc>
<speed>0.020000</speed>
</trkpt>
<trkpt lat="42.899792" lon="19.624865">
<ele>1688.329102</ele>
<time>2012-04-30T14:11:40Z</time>
<desc>lat.=42.899792, lon.=19.624865, Alt.=1688.329102m. Speed=0.216000m/h.</desc>
<speed>0.060000</speed>
</trkpt>
<trkpt lat="42.899788" lon="19.624863">
<ele>1688.360352</ele>
<time>2012-04-30T14:11:45Z</time>
<desc>lat.=42.899788, lon.=19.624863, Alt.=1688.360352m. Speed=1.512000m/h.</desc>
<speed>0.420000</speed>
</trkpt>
<trkpt lat="42.899796" lon="19.624956">
<ele>1688.922852</ele>
<time>2012-04-30T14:11:50Z</time>
<desc>lat.=42.899796, lon.=19.624956, Alt.=1688.922852m. Speed=0.180000m/h.</desc>
<speed>0.050000</speed>
</trkpt>
<trkpt lat="42.899788" lon="19.625008">
<ele>1689.110352</ele>
<time>2012-04-30T14:11:55Z</time>
<desc>lat.=42.899788, lon.=19.625008, Alt.=1689.110352m. Speed=4.824000m/h.</desc>
<speed>1.340000</speed>
</trkpt>
<trkpt lat="42.899776" lon="19.625086">
<ele>1688.360352</ele>
<time>2012-04-30T14:12:00Z</time>
<desc>lat.=42.899776, lon.=19.625086, Alt.=1688.360352m. Speed=5.724000m/h.</desc>
<speed>1.590000</speed>
</trkpt>
<trkpt lat="42.899765" lon="19.625185">
<ele>1687.891602</ele>
<time>2012-04-30T14:12:05Z</time>
<desc>lat.=42.899765, lon.=19.625185, Alt.=1687.891602m. Speed=7.236000m/h.</desc>
<speed>2.010000</speed>
</trkpt>
<trkpt lat="42.899792" lon="19.625328">
<ele>1686.829102</ele>
<time>2012-04-30T14:12:10Z</time>
<desc>lat.=42.899792, lon.=19.625328, Alt.=1686.829102m. Speed=8.028000m/h.</desc>
<speed>2.230000</speed>
</trkpt>
<trkpt lat="42.899830" lon="19.625460">
<ele>1686.391602</ele>
<time>2012-04-30T14:12:15Z</time>
<desc>lat.=42.899830, lon.=19.625460, Alt.=1686.391602m. Speed=7.848000m/h.</desc>
<speed>2.180000</speed>
</trkpt>
<trkpt lat="42.899826" lon="19.625622">
<ele>1684.985352</ele>
<time>2012-04-30T14:12:20Z</time>
<desc>lat.=42.899826, lon.=19.625622, Alt.=1684.985352m. Speed=9.216000m/h.</desc>
<speed>2.560000</speed>
</trkpt>
<trkpt lat="42.899822" lon="19.625792">
<ele>1683.735352</ele>
<time>2012-04-30T14:12:25Z</time>
<desc>lat.=42.899822, lon.=19.625792, Alt.=1683.735352m. Speed=10.620000m/h.</desc>
<speed>2.950000</speed>
</trkpt>
<trkpt lat="42.899826" lon="19.625961">
<ele>1682.672852</ele>
<time>2012-04-30T14:12:30Z</time>
<desc>lat.=42.899826, lon.=19.625961, Alt.=1682.672852m. Speed=7.056000m/h.</desc>
<speed>1.960000</speed>
</trkpt>
<trkpt lat="42.899826" lon="19.626064">
<ele>1681.391602</ele>
<time>2012-04-30T14:12:35Z</time>
<desc>lat.=42.899826, lon.=19.626064, Alt.=1681.391602m. Speed=5.040000m/h.</desc>
<speed>1.400000</speed>
</trkpt>
<trkpt lat="42.899734" lon="19.626091">
<ele>1680.329102</ele>
<time>2012-04-30T14:12:40Z</time>
<desc>lat.=42.899734, lon.=19.626091, Alt.=1680.329102m. Speed=5.436000m/h.</desc>
<speed>1.510000</speed>
</trkpt>
<trkpt lat="42.899620" lon="19.626131">
<ele>1680.797852</ele>
<time>2012-04-30T14:12:45Z</time>
<desc>lat.=42.899620, lon.=19.626131, Alt.=1680.797852m. Speed=10.188000m/h.</desc>
<speed>2.830000</speed>
</trkpt>
<trkpt lat="42.899506" lon="19.626234">
<ele>1680.047852</ele>
<time>2012-04-30T14:12:50Z</time>
<desc>lat.=42.899506, lon.=19.626234, Alt.=1680.047852m. Speed=11.412000m/h.</desc>
<speed>3.170000</speed>
</trkpt>
<trkpt lat="42.899418" lon="19.626431">
<ele>1677.547852</ele>
<time>2012-04-30T14:12:55Z</time>
<desc>lat.=42.899418, lon.=19.626431, Alt.=1677.547852m. Speed=15.372000m/h.</desc>
<speed>4.270000</speed>
</trkpt>
<trkpt lat="42.899330" lon="19.626600">
<ele>1676.454102</ele>
<time>2012-04-30T14:13:00Z</time>
<desc>lat.=42.899330, lon.=19.626600, Alt.=1676.454102m. Speed=11.124000m/h.</desc>
<speed>3.090000</speed>
</trkpt>
<trkpt lat="42.899200" lon="19.626669">
<ele>1675.985352</ele>
<time>2012-04-30T14:13:05Z</time>
<desc>lat.=42.899200, lon.=19.626669, Alt.=1675.985352m. Speed=10.548000m/h.</desc>
<speed>2.930000</speed>
</trkpt>
<trkpt lat="42.899075" lon="19.626778">
<ele>1675.360352</ele>
<time>2012-04-30T14:13:10Z</time>
<desc>lat.=42.899075, lon.=19.626778, Alt.=1675.360352m. Speed=10.692000m/h.</desc>
<speed>2.970000</speed>
</trkpt>
<trkpt lat="42.899055" lon="19.626816">
<ele>1675.141602</ele>
<time>2012-04-30T14:13:15Z</time>
<desc>lat.=42.899055, lon.=19.626816, Alt.=1675.141602m. Speed=0.108000m/h.</desc>
<speed>0.030000</speed>
</trkpt>
<trkpt lat="42.899055" lon="19.626820">
<ele>1675.141602</ele>
<time>2012-04-30T14:13:20Z</time>
<desc>lat.=42.899055, lon.=19.626820, Alt.=1675.141602m. Speed=0.000000m/h.</desc>
<speed>0.000000</speed>
</trkpt>
<trkpt lat="42.899055" lon="19.626820">
<ele>1675.172852</ele>
<time>2012-04-30T14:13:25Z</time>
<desc>lat.=42.899055, lon.=19.626820, Alt.=1675.172852m. Speed=0.036000m/h.</desc>
<speed>0.010000</speed>
</trkpt>
<trkpt lat="42.899059" lon="19.626820">
<ele>1675.204102</ele>
<time>2012-04-30T14:13:30Z</time>
<desc>lat.=42.899059, lon.=19.626820, Alt.=1675.204102m. Speed=0.000000m/h.</desc>
<speed>0.000000</speed>
</trkpt>
<trkpt lat="42.899059" lon="19.626818">
<ele>1675.266602</ele>
<time>2012-04-30T14:13:35Z</time>
<desc>lat.=42.899059, lon.=19.626818, Alt.=1675.266602m. Speed=0.216000m/h.</desc>
<speed>0.060000</speed>
</trkpt>
<trkpt lat="42.899059" lon="19.626818">
<ele>1675.172852</ele>
<time>2012-04-30T14:13:40Z</time>
<desc>lat.=42.899059, lon.=19.626818, Alt.=1675.172852m. Speed=0.000000m/h.</desc>
<speed>0.000000</speed>
</trkpt>
<trkpt lat="42.899059" lon="19.626818">
<ele>1675.172852</ele>
<time>2012-04-30T14:13:45Z</time>
<desc>lat.=42.899059, lon.=19.626818, Alt.=1675.172852m. Speed=0.036000m/h.</desc>
<speed>0.010000</speed>
</trkpt>
<trkpt lat="42.899059" lon="19.626818">
<ele>1675.172852</ele>
<time>2012-04-30T14:13:50Z</time>
<desc>lat.=42.899059, lon.=19.626818, Alt.=1675.172852m. Speed=0.036000m/h.</desc>
<speed>0.010000</speed>
</trkpt>
<trkpt lat="42.899048" lon="19.626842">
<ele>1675.204102</ele>
<time>2012-04-30T14:13:55Z</time>
<desc>lat.=42.899048, lon.=19.626842, Alt.=1675.204102m. Speed=6.156000m/h.</desc>
<speed>1.710000</speed>
</trkpt>
<trkpt lat="42.898998" lon="19.626947">
<ele>1675.391602</ele>
<time>2012-04-30T14:14:00Z</time>
<desc>lat.=42.898998, lon.=19.626947, Alt.=1675.391602m. Speed=1.008000m/h.</desc>
<speed>0.280000</speed>
</trkpt>
<trkpt lat="42.898964" lon="19.626984">
<ele>1674.047852</ele>
<time>2012-04-30T14:14:05Z</time>
<desc>lat.=42.898964, lon.=19.626984, Alt.=1674.047852m. Speed=4.284000m/h.</desc>
<speed>1.190000</speed>
</trkpt>
<trkpt lat="42.898926" lon="19.627075">
<ele>1674.110352</ele>
<time>2012-04-30T14:14:10Z</time>
<desc>lat.=42.898926, lon.=19.627075, Alt.=1674.110352m. Speed=7.668000m/h.</desc>
<speed>2.130000</speed>
</trkpt>
<trkpt lat="42.898884" lon="19.627104">
<ele>1673.704102</ele>
<time>2012-04-30T14:14:15Z</time>
<desc>lat.=42.898884, lon.=19.627104, Alt.=1673.704102m. Speed=1.188000m/h.</desc>
<speed>0.330000</speed>
</trkpt>
<trkpt lat="42.898876" lon="19.627083">
<ele>1673.891602</ele>
<time>2012-04-30T14:14:20Z</time>
<desc>lat.=42.898876, lon.=19.627083, Alt.=1673.891602m. Speed=0.972000m/h.</desc>
<speed>0.270000</speed>
</trkpt>
<trkpt lat="42.898884" lon="19.627090">
<ele>1672.922852</ele>
<time>2012-04-30T14:14:25Z</time>
<desc>lat.=42.898884, lon.=19.627090, Alt.=1672.922852m. Speed=0.360000m/h.</desc>
<speed>0.100000</speed>
</trkpt>
<trkpt lat="42.898884" lon="19.627089">
<ele>1672.422852</ele>
<time>2012-04-30T14:14:30Z</time>
<desc>lat.=42.898884, lon.=19.627089, Alt.=1672.422852m. Speed=0.036000m/h.</desc>
<speed>0.010000</speed>
</trkpt>
<trkpt lat="42.898884" lon="19.627090">
<ele>1672.391602</ele>
<time>2012-04-30T14:14:35Z</time>
<desc>lat.=42.898884, lon.=19.627090, Alt.=1672.391602m. Speed=0.036000m/h.</desc>
<speed>0.010000</speed>
</trkpt>
<trkpt lat="42.898884" lon="19.627090">
<ele>1672.360352</ele>
<time>2012-04-30T14:14:40Z</time>
<desc>lat.=42.898884, lon.=19.627090, Alt.=1672.360352m. Speed=0.000000m/h.</desc>
<speed>0.000000</speed>
</trkpt>
<trkpt lat="42.898884" lon="19.627090">
<ele>1672.329102</ele>
<time>2012-04-30T14:14:45Z</time>
<desc>lat.=42.898884, lon.=19.627090, Alt.=1672.329102m. Speed=0.000000m/h.</desc>
<speed>0.000000</speed>
</trkpt>
<trkpt lat="42.898884" lon="19.627090">
<ele>1672.297852</ele>
<time>2012-04-30T14:14:50Z</time>
<desc>lat.=42.898884, lon.=19.627090, Alt.=1672.297852m. Speed=0.000000m/h.</desc>
<speed>0.000000</speed>
</trkpt>
<trkpt lat="42.898880" lon="19.627090">
<ele>1672.297852</ele>
<time>2012-04-30T14:14:55Z</time>
<desc>lat.=42.898880, lon.=19.627090, Alt.=1672.297852m. Speed=0.000000m/h.</desc>
<speed>0.000000</speed>
</trkpt>
<trkpt lat="42.898884" lon="19.627090">
<ele>1672.297852</ele>
<time>2012-04-30T14:15:00Z</time>
<desc>lat.=42.898884, lon.=19.627090, Alt.=1672.297852m. Speed=0.036000m/h.</desc>
<speed>0.010000</speed>
</trkpt>
<trkpt lat="42.898884" lon="19.627090">
<ele>1672.266602</ele>
<time>2012-04-30T14:15:05Z</time>
<desc>lat.=42.898884, lon.=19.627090, Alt.=1672.266602m. Speed=0.000000m/h.</desc>
<speed>0.000000</speed>
</trkpt>
<trkpt lat="42.898884" lon="19.627090">
<ele>1672.266602</ele>
<time>2012-04-30T14:15:10Z</time>
<desc>lat.=42.898884, lon.=19.627090, Alt.=1672.266602m. Speed=0.000000m/h.</desc>
<speed>0.000000</speed>
</trkpt>
<trkpt lat="42.898880" lon="19.627090">
<ele>1672.266602</ele>
<time>2012-04-30T14:15:15Z</time>
<desc>lat.=42.898880, lon.=19.627090, Alt.=1672.266602m. Speed=0.036000m/h.</desc>
<speed>0.010000</speed>
</trkpt>
<trkpt lat="42.898880" lon="19.627090">
<ele>1672.266602</ele>
<time>2012-04-30T14:15:20Z</time>
<desc>lat.=42.898880, lon.=19.627090, Alt.=1672.266602m. Speed=0.108000m/h.</desc>
<speed>0.030000</speed>
</trkpt>
<trkpt lat="42.898884" lon="19.627090">
<ele>1672.297852</ele>
<time>2012-04-30T14:15:25Z</time>
<desc>lat.=42.898884, lon.=19.627090, Alt.=1672.297852m. Speed=0.000000m/h.</desc>
<speed>0.000000</speed>
</trkpt>
<trkpt lat="42.898884" lon="19.627090">
<ele>1672.329102</ele>
<time>2012-04-30T14:15:30Z</time>
<desc>lat.=42.898884, lon.=19.627090, Alt.=1672.329102m. Speed=0.036000m/h.</desc>
<speed>0.010000</speed>
</trkpt>
<trkpt lat="42.898884" lon="19.627090">
<ele>1672.329102</ele>
<time>2012-04-30T14:15:35Z</time>
<desc>lat.=42.898884, lon.=19.627090, Alt.=1672.329102m. Speed=0.180000m/h.</desc>
<speed>0.050000</speed>
</trkpt>
<trkpt lat="42.898884" lon="19.627090">
<ele>1672.329102</ele>
<time>2012-04-30T14:15:40Z</time>
<desc>lat.=42.898884, lon.=19.627090, Alt.=1672.329102m. Speed=0.036000m/h.</desc>
<speed>0.010000</speed>
</trkpt>
<trkpt lat="42.898884" lon="19.627090">
<ele>1672.329102</ele>
<time>2012-04-30T14:15:45Z</time>
<desc>lat.=42.898884, lon.=19.627090, Alt.=1672.329102m. Speed=0.000000m/h.</desc>
<speed>0.000000</speed>
</trkpt>
<trkpt lat="42.898884" lon="19.627089">
<ele>1672.360352</ele>
<time>2012-04-30T14:15:50Z</time>
<desc>lat.=42.898884, lon.=19.627089, Alt.=1672.360352m. Speed=0.000000m/h.</desc>
<speed>0.000000</speed>
</trkpt>
<trkpt lat="42.898884" lon="19.627090">
<ele>1672.391602</ele>
<time>2012-04-30T14:15:55Z</time>
<desc>lat.=42.898884, lon.=19.627090, Alt.=1672.391602m. Speed=0.000000m/h.</desc>
<speed>0.000000</speed>
</trkpt>
<trkpt lat="42.898884" lon="19.627090">
<ele>1672.391602</ele>
<time>2012-04-30T14:16:00Z</time>
<desc>lat.=42.898884, lon.=19.627090, Alt.=1672.391602m. Speed=0.036000m/h.</desc>
<speed>0.010000</speed>
</trkpt>
<trkpt lat="42.898884" lon="19.627090">
<ele>1672.391602</ele>
<time>2012-04-30T14:16:05Z</time>
<desc>lat.=42.898884, lon.=19.627090, Alt.=1672.391602m. Speed=0.000000m/h.</desc>
<speed>0.000000</speed>
</trkpt>
<trkpt lat="42.898884" lon="19.627090">
<ele>1672.360352</ele>
<time>2012-04-30T14:16:10Z</time>
<desc>lat.=42.898884, lon.=19.627090, Alt.=1672.360352m. Speed=0.000000m/h.</desc>
<speed>0.000000</speed>
</trkpt>
<trkpt lat="42.898884" lon="19.627090">
<ele>1672.360352</ele>
<time>2012-04-30T14:16:15Z</time>
<desc>lat.=42.898884, lon.=19.627090, Alt.=1672.360352m. Speed=0.000000m/h.</desc>
<speed>0.000000</speed>
</trkpt>
<trkpt lat="42.898884" lon="19.627090">
<ele>1672.329102</ele>
<time>2012-04-30T14:16:20Z</time>
<desc>lat.=42.898884, lon.=19.627090, Alt.=1672.329102m. Speed=0.000000m/h.</desc>
<speed>0.000000</speed>
</trkpt>
<trkpt lat="42.898884" lon="19.627090">
<ele>1672.329102</ele>
<time>2012-04-30T14:16:25Z</time>
<desc>lat.=42.898884, lon.=19.627090, Alt.=1672.329102m. Speed=0.108000m/h.</desc>
<speed>0.030000</speed>
</trkpt>
<trkpt lat="42.898884" lon="19.627090">
<ele>1672.360352</ele>
<time>2012-04-30T14:16:30Z</time>
<desc>lat.=42.898884, lon.=19.627090, Alt.=1672.360352m. Speed=0.180000m/h.</desc>
<speed>0.050000</speed>
</trkpt>
<trkpt lat="42.898884" lon="19.627090">
<ele>1672.360352</ele>
<time>2012-04-30T14:16:35Z</time>
<desc>lat.=42.898884, lon.=19.627090, Alt.=1672.360352m. Speed=0.216000m/h.</desc>
<speed>0.060000</speed>
</trkpt>
<trkpt lat="42.898876" lon="19.627104">
<ele>1672.454102</ele>
<time>2012-04-30T14:16:40Z</time>
<desc>lat.=42.898876, lon.=19.627104, Alt.=1672.454102m. Speed=3.996000m/h.</desc>
<speed>1.110000</speed>
</trkpt>
<trkpt lat="42.898857" lon="19.627144">
<ele>1673.610352</ele>
<time>2012-04-30T14:16:45Z</time>
<desc>lat.=42.898857, lon.=19.627144, Alt.=1673.610352m. Speed=0.036000m/h.</desc>
<speed>0.010000</speed>
</trkpt>
<trkpt lat="42.898861" lon="19.627144">
<ele>1673.672852</ele>
<time>2012-04-30T14:16:50Z</time>
<desc>lat.=42.898861, lon.=19.627144, Alt.=1673.672852m. Speed=0.036000m/h.</desc>
<speed>0.010000</speed>
</trkpt>
<trkpt lat="42.898861" lon="19.627144">
<ele>1673.672852</ele>
<time>2012-04-30T14:16:55Z</time>
<desc>lat.=42.898861, lon.=19.627144, Alt.=1673.672852m. Speed=0.036000m/h.</desc>
<speed>0.010000</speed>
</trkpt>
<trkpt lat="42.898861" lon="19.627176">
<ele>1673.860352</ele>
<time>2012-04-30T14:17:00Z</time>
<desc>lat.=42.898861, lon.=19.627176, Alt.=1673.860352m. Speed=0.576000m/h.</desc>
<speed>0.160000</speed>
</trkpt>
<trkpt lat="42.898834" lon="19.627237">
<ele>1673.735352</ele>
<time>2012-04-30T14:17:05Z</time>
<desc>lat.=42.898834, lon.=19.627237, Alt.=1673.735352m. Speed=5.292000m/h.</desc>
<speed>1.470000</speed>
</trkpt>
<trkpt lat="42.898834" lon="19.627262">
<ele>1673.829102</ele>
<time>2012-04-30T14:17:10Z</time>
<desc>lat.=42.898834, lon.=19.627262, Alt.=1673.829102m. Speed=1.440000m/h.</desc>
<speed>0.400000</speed>
</trkpt>
<trkpt lat="42.898846" lon="19.627239">
<ele>1673.829102</ele>
<time>2012-04-30T14:17:15Z</time>
<desc>lat.=42.898846, lon.=19.627239, Alt.=1673.829102m. Speed=0.036000m/h.</desc>
<speed>0.010000</speed>
</trkpt>
<trkpt lat="42.898842" lon="19.627283">
<ele>1674.141602</ele>
<time>2012-04-30T14:17:20Z</time>
<desc>lat.=42.898842, lon.=19.627283, Alt.=1674.141602m. Speed=3.852000m/h.</desc>
<speed>1.070000</speed>
</trkpt>
<trkpt lat="42.898804" lon="19.627365">
<ele>1674.704102</ele>
<time>2012-04-30T14:17:25Z</time>
<desc>lat.=42.898804, lon.=19.627365, Alt.=1674.704102m. Speed=5.328000m/h.</desc>
<speed>1.480000</speed>
</trkpt>
<trkpt lat="42.898781" lon="19.627439">
<ele>1675.235352</ele>
<time>2012-04-30T14:17:30Z</time>
<desc>lat.=42.898781, lon.=19.627439, Alt.=1675.235352m. Speed=4.068000m/h.</desc>
<speed>1.130000</speed>
</trkpt>
<trkpt lat="42.898769" lon="19.627520">
<ele>1675.735352</ele>
<time>2012-04-30T14:17:35Z</time>
<desc>lat.=42.898769, lon.=19.627520, Alt.=1675.735352m. Speed=3.528000m/h.</desc>
<speed>0.980000</speed>
</trkpt>
<trkpt lat="42.898766" lon="19.627573">
<ele>1675.829102</ele>
<time>2012-04-30T14:17:40Z</time>
<desc>lat.=42.898766, lon.=19.627573, Alt.=1675.829102m. Speed=4.356000m/h.</desc>
<speed>1.210000</speed>
</trkpt>
<trkpt lat="42.898773" lon="19.627630">
<ele>1675.891602</ele>
<time>2012-04-30T14:17:45Z</time>
<desc>lat.=42.898773, lon.=19.627630, Alt.=1675.891602m. Speed=3.096000m/h.</desc>
<speed>0.860000</speed>
</trkpt>
<trkpt lat="42.898754" lon="19.627693">
<ele>1676.235352</ele>
<time>2012-04-30T14:17:50Z</time>
<desc>lat.=42.898754, lon.=19.627693, Alt.=1676.235352m. Speed=4.248000m/h.</desc>
<speed>1.180000</speed>
</trkpt>
<trkpt lat="42.898762" lon="19.627768">
<ele>1676.204102</ele>
<time>2012-04-30T14:17:55Z</time>
<desc>lat.=42.898762, lon.=19.627768, Alt.=1676.204102m. Speed=5.796000m/h.</desc>
<speed>1.610000</speed>
</trkpt>
<trkpt lat="42.898781" lon="19.627863">
<ele>1676.485352</ele>
<time>2012-04-30T14:18:00Z</time>
<desc>lat.=42.898781, lon.=19.627863, Alt.=1676.485352m. Speed=4.788000m/h.</desc>
<speed>1.330000</speed>
</trkpt>
<trkpt lat="42.898773" lon="19.627941">
<ele>1677.047852</ele>
<time>2012-04-30T14:18:05Z</time>
<desc>lat.=42.898773, lon.=19.627941, Alt.=1677.047852m. Speed=4.788000m/h.</desc>
<speed>1.330000</speed>
</trkpt>
<trkpt lat="42.898769" lon="19.628000">
<ele>1677.047852</ele>
<time>2012-04-30T14:18:10Z</time>
<desc>lat.=42.898769, lon.=19.628000, Alt.=1677.047852m. Speed=3.312000m/h.</desc>
<speed>0.920000</speed>
</trkpt>
<trkpt lat="42.898758" lon="19.628063">
<ele>1677.641602</ele>
<time>2012-04-30T14:18:15Z</time>
<desc>lat.=42.898758, lon.=19.628063, Alt.=1677.641602m. Speed=3.816000m/h.</desc>
<speed>1.060000</speed>
</trkpt>
<trkpt lat="42.898762" lon="19.628136">
<ele>1677.985352</ele>
<time>2012-04-30T14:18:20Z</time>
<desc>lat.=42.898762, lon.=19.628136, Alt.=1677.985352m. Speed=4.140000m/h.</desc>
<speed>1.150000</speed>
</trkpt>
<trkpt lat="42.898754" lon="19.628197">
<ele>1678.266602</ele>
<time>2012-04-30T14:18:25Z</time>
<desc>lat.=42.898754, lon.=19.628197, Alt.=1678.266602m. Speed=3.204000m/h.</desc>
<speed>0.890000</speed>
</trkpt>
<trkpt lat="42.898754" lon="19.628244">
<ele>1678.891602</ele>
<time>2012-04-30T14:18:30Z</time>
<desc>lat.=42.898754, lon.=19.628244, Alt.=1678.891602m. Speed=2.520000m/h.</desc>
<speed>0.700000</speed>
</trkpt>
<trkpt lat="42.898781" lon="19.628290">
<ele>1679.829102</ele>
<time>2012-04-30T14:18:35Z</time>
<desc>lat.=42.898781, lon.=19.628290, Alt.=1679.829102m. Speed=2.052000m/h.</desc>
<speed>0.570000</speed>
</trkpt>
<trkpt lat="42.898819" lon="19.628323">
<ele>1681.454102</ele>
<time>2012-04-30T14:18:40Z</time>
<desc>lat.=42.898819, lon.=19.628323, Alt.=1681.454102m. Speed=2.340000m/h.</desc>
<speed>0.650000</speed>
</trkpt>
<trkpt lat="42.898891" lon="19.628359">
<ele>1682.454102</ele>
<time>2012-04-30T14:18:45Z</time>
<desc>lat.=42.898891, lon.=19.628359, Alt.=1682.454102m. Speed=3.420000m/h.</desc>
<speed>0.950000</speed>
</trkpt>
<trkpt lat="42.898914" lon="19.628405">
<ele>1683.547852</ele>
<time>2012-04-30T14:18:50Z</time>
<desc>lat.=42.898914, lon.=19.628405, Alt.=1683.547852m. Speed=1.944000m/h.</desc>
<speed>0.540000</speed>
</trkpt>
<trkpt lat="42.898903" lon="19.628471">
<ele>1684.547852</ele>
<time>2012-04-30T14:18:55Z</time>
<desc>lat.=42.898903, lon.=19.628471, Alt.=1684.547852m. Speed=4.356000m/h.</desc>
<speed>1.210000</speed>
</trkpt>
<trkpt lat="42.898914" lon="19.628529">
<ele>1685.704102</ele>
<time>2012-04-30T14:19:00Z</time>
<desc>lat.=42.898914, lon.=19.628529, Alt.=1685.704102m. Speed=2.952000m/h.</desc>
<speed>0.820000</speed>
</trkpt>
<trkpt lat="42.898926" lon="19.628588">
<ele>1686.766602</ele>
<time>2012-04-30T14:19:05Z</time>
<desc>lat.=42.898926, lon.=19.628588, Alt.=1686.766602m. Speed=4.968000m/h.</desc>
<speed>1.380000</speed>
</trkpt>
<trkpt lat="42.898945" lon="19.628639">
<ele>1688.172852</ele>
<time>2012-04-30T14:19:10Z</time>
<desc>lat.=42.898945, lon.=19.628639, Alt.=1688.172852m. Speed=1.008000m/h.</desc>
<speed>0.280000</speed>
</trkpt>
<trkpt lat="42.898964" lon="19.628656">
<ele>1688.672852</ele>
<time>2012-04-30T14:19:15Z</time>
<desc>lat.=42.898964, lon.=19.628656, Alt.=1688.672852m. Speed=2.232000m/h.</desc>
<speed>0.620000</speed>
</trkpt>
<trkpt lat="42.898987" lon="19.628683">
<ele>1689.485352</ele>
<time>2012-04-30T14:19:20Z</time>
<desc>lat.=42.898987, lon.=19.628683, Alt.=1689.485352m. Speed=2.088000m/h.</desc>
<speed>0.580000</speed>
</trkpt>
<trkpt lat="42.899014" lon="19.628700">
<ele>1690.110352</ele>
<time>2012-04-30T14:19:25Z</time>
<desc>lat.=42.899014, lon.=19.628700, Alt.=1690.110352m. Speed=2.772000m/h.</desc>
<speed>0.770000</speed>
</trkpt>
<trkpt lat="42.899052" lon="19.628731">
<ele>1690.922852</ele>
<time>2012-04-30T14:19:30Z</time>
<desc>lat.=42.899052, lon.=19.628731, Alt.=1690.922852m. Speed=2.880000m/h.</desc>
<speed>0.800000</speed>
</trkpt>
<trkpt lat="42.899067" lon="19.628771">
<ele>1691.797852</ele>
<time>2012-04-30T14:19:35Z</time>
<desc>lat.=42.899067, lon.=19.628771, Alt.=1691.797852m. Speed=2.088000m/h.</desc>
<speed>0.580000</speed>
</trkpt>
<trkpt lat="42.899078" lon="19.628798">
<ele>1692.797852</ele>
<time>2012-04-30T14:19:40Z</time>
<desc>lat.=42.899078, lon.=19.628798, Alt.=1692.797852m. Speed=2.952000m/h.</desc>
<speed>0.820000</speed>
</trkpt>
<trkpt lat="42.899086" lon="19.628838">
<ele>1693.297852</ele>
<time>2012-04-30T14:19:45Z</time>
<desc>lat.=42.899086, lon.=19.628838, Alt.=1693.297852m. Speed=2.952000m/h.</desc>
<speed>0.820000</speed>
</trkpt>
<trkpt lat="42.899097" lon="19.628864">
<ele>1694.016602</ele>
<time>2012-04-30T14:19:50Z</time>
<desc>lat.=42.899097, lon.=19.628864, Alt.=1694.016602m. Speed=0.504000m/h.</desc>
<speed>0.140000</speed>
</trkpt>
<trkpt lat="42.899113" lon="19.628899">
<ele>1694.141602</ele>
<time>2012-04-30T14:19:55Z</time>
<desc>lat.=42.899113, lon.=19.628899, Alt.=1694.141602m. Speed=4.464000m/h.</desc>
<speed>1.240000</speed>
</trkpt>
<trkpt lat="42.899143" lon="19.629019">
<ele>1693.579102</ele>
<time>2012-04-30T14:20:00Z</time>
<desc>lat.=42.899143, lon.=19.629019, Alt.=1693.579102m. Speed=8.568000m/h.</desc>
<speed>2.380000</speed>
</trkpt>
<trkpt lat="42.899109" lon="19.629137">
<ele>1692.829102</ele>
<time>2012-04-30T14:20:05Z</time>
<desc>lat.=42.899109, lon.=19.629137, Alt.=1692.829102m. Speed=7.020000m/h.</desc>
<speed>1.950000</speed>
</trkpt>
<trkpt lat="42.899075" lon="19.629244">
<ele>1691.516602</ele>
<time>2012-04-30T14:20:10Z</time>
<desc>lat.=42.899075, lon.=19.629244, Alt.=1691.516602m. Speed=6.480000m/h.</desc>
<speed>1.800000</speed>
</trkpt>
<trkpt lat="42.899010" lon="19.629324">
<ele>1692.266602</ele>
<time>2012-04-30T14:20:15Z</time>
<desc>lat.=42.899010, lon.=19.629324, Alt.=1692.266602m. Speed=5.652000m/h.</desc>
<speed>1.570000</speed>
</trkpt>
<trkpt lat="42.898972" lon="19.629412">
<ele>1691.547852</ele>
<time>2012-04-30T14:20:20Z</time>
<desc>lat.=42.898972, lon.=19.629412, Alt.=1691.547852m. Speed=5.328000m/h.</desc>
<speed>1.480000</speed>
</trkpt>
<trkpt lat="42.898872" lon="19.629473">
<ele>1688.766602</ele>
<time>2012-04-30T14:20:25Z</time>
<desc>lat.=42.898872, lon.=19.629473, Alt.=1688.766602m. Speed=6.408000m/h.</desc>
<speed>1.780000</speed>
</trkpt>
<trkpt lat="42.898800" lon="19.629519">
<ele>1686.704102</ele>
<time>2012-04-30T14:20:30Z</time>
<desc>lat.=42.898800, lon.=19.629519, Alt.=1686.704102m. Speed=7.272000m/h.</desc>
<speed>2.020000</speed>
</trkpt>
<trkpt lat="42.898739" lon="19.629560">
<ele>1686.516602</ele>
<time>2012-04-30T14:20:35Z</time>
<desc>lat.=42.898739, lon.=19.629560, Alt.=1686.516602m. Speed=4.140000m/h.</desc>
<speed>1.150000</speed>
</trkpt>
<trkpt lat="42.898766" lon="19.629650">
<ele>1685.985352</ele>
<time>2012-04-30T14:20:40Z</time>
<desc>lat.=42.898766, lon.=19.629650, Alt.=1685.985352m. Speed=7.596000m/h.</desc>
<speed>2.110000</speed>
</trkpt>
<trkpt lat="42.898739" lon="19.629778">
<ele>1686.922852</ele>
<time>2012-04-30T14:20:45Z</time>
<desc>lat.=42.898739, lon.=19.629778, Alt.=1686.922852m. Speed=7.164000m/h.</desc>
<speed>1.990000</speed>
</trkpt>
<trkpt lat="42.898697" lon="19.629875">
<ele>1689.266602</ele>
<time>2012-04-30T14:20:50Z</time>
<desc>lat.=42.898697, lon.=19.629875, Alt.=1689.266602m. Speed=7.632000m/h.</desc>
<speed>2.120000</speed>
</trkpt>
<trkpt lat="42.898643" lon="19.629972">
<ele>1690.172852</ele>
<time>2012-04-30T14:20:55Z</time>
<desc>lat.=42.898643, lon.=19.629972, Alt.=1690.172852m. Speed=6.480000m/h.</desc>
<speed>1.800000</speed>
</trkpt>
<trkpt lat="42.898643" lon="19.630104">
<ele>1693.672852</ele>
<time>2012-04-30T14:21:00Z</time>
<desc>lat.=42.898643, lon.=19.630104, Alt.=1693.672852m. Speed=6.840000m/h.</desc>
<speed>1.900000</speed>
</trkpt>
<trkpt lat="42.898659" lon="19.630238">
<ele>1696.672852</ele>
<time>2012-04-30T14:21:05Z</time>
<desc>lat.=42.898659, lon.=19.630238, Alt.=1696.672852m. Speed=7.272000m/h.</desc>
<speed>2.020000</speed>
</trkpt>
<trkpt lat="42.898602" lon="19.630327">
<ele>1695.860352</ele>
<time>2012-04-30T14:21:10Z</time>
<desc>lat.=42.898602, lon.=19.630327, Alt.=1695.860352m. Speed=4.932000m/h.</desc>
<speed>1.370000</speed>
</trkpt>
<trkpt lat="42.898594" lon="19.630381">
<ele>1695.485352</ele>
<time>2012-04-30T14:21:15Z</time>
<desc>lat.=42.898594, lon.=19.630381, Alt.=1695.485352m. Speed=6.228000m/h.</desc>
<speed>1.730000</speed>
</trkpt>
<trkpt lat="42.898628" lon="19.630440">
<ele>1694.985352</ele>
<time>2012-04-30T14:21:20Z</time>
<desc>lat.=42.898628, lon.=19.630440, Alt.=1694.985352m. Speed=6.912000m/h.</desc>
<speed>1.920000</speed>
</trkpt>
<trkpt lat="42.898647" lon="19.630499">
<ele>1694.141602</ele>
<time>2012-04-30T14:21:25Z</time>
<desc>lat.=42.898647, lon.=19.630499, Alt.=1694.141602m. Speed=5.904000m/h.</desc>
<speed>1.640000</speed>
</trkpt>
<trkpt lat="42.898628" lon="19.630545">
<ele>1691.672852</ele>
<time>2012-04-30T14:21:30Z</time>
<desc>lat.=42.898628, lon.=19.630545, Alt.=1691.672852m. Speed=0.684000m/h.</desc>
<speed>0.190000</speed>
</trkpt>
<trkpt lat="42.898643" lon="19.630566">
<ele>1691.704102</ele>
<time>2012-04-30T14:21:35Z</time>
<desc>lat.=42.898643, lon.=19.630566, Alt.=1691.704102m. Speed=0.252000m/h.</desc>
<speed>0.070000</speed>
</trkpt>
<trkpt lat="42.898640" lon="19.630564">
<ele>1690.954102</ele>
<time>2012-04-30T14:21:40Z</time>
<desc>lat.=42.898640, lon.=19.630564, Alt.=1690.954102m. Speed=0.144000m/h.</desc>
<speed>0.040000</speed>
</trkpt>
<trkpt lat="42.898643" lon="19.630564">
<ele>1690.954102</ele>
<time>2012-04-30T14:21:45Z</time>
<desc>lat.=42.898643, lon.=19.630564, Alt.=1690.954102m. Speed=0.072000m/h.</desc>
<speed>0.020000</speed>
</trkpt>
<trkpt lat="42.898624" lon="19.630592">
<ele>1690.204102</ele>
<time>2012-04-30T14:21:50Z</time>
<desc>lat.=42.898624, lon.=19.630592, Alt.=1690.204102m. Speed=3.744000m/h.</desc>
<speed>1.040000</speed>
</trkpt>
<trkpt lat="42.898609" lon="19.630634">
<ele>1689.610352</ele>
<time>2012-04-30T14:21:55Z</time>
<desc>lat.=42.898609, lon.=19.630634, Alt.=1689.610352m. Speed=2.160000m/h.</desc>
<speed>0.600000</speed>
</trkpt>
<trkpt lat="42.898605" lon="19.630657">
<ele>1689.547852</ele>
<time>2012-04-30T14:22:00Z</time>
<desc>lat.=42.898605, lon.=19.630657, Alt.=1689.547852m. Speed=1.584000m/h.</desc>
<speed>0.440000</speed>
</trkpt>
<trkpt lat="42.898602" lon="19.630663">
<ele>1688.172852</ele>
<time>2012-04-30T14:22:05Z</time>
<desc>lat.=42.898602, lon.=19.630663, Alt.=1688.172852m. Speed=0.828000m/h.</desc>
<speed>0.230000</speed>
</trkpt>
<trkpt lat="42.898598" lon="19.630693">
<ele>1688.141602</ele>
<time>2012-04-30T14:22:10Z</time>
<desc>lat.=42.898598, lon.=19.630693, Alt.=1688.141602m. Speed=0.432000m/h.</desc>
<speed>0.120000</speed>
</trkpt>
<trkpt lat="42.898602" lon="19.630707">
<ele>1688.297852</ele>
<time>2012-04-30T14:22:15Z</time>
<desc>lat.=42.898602, lon.=19.630707, Alt.=1688.297852m. Speed=1.008000m/h.</desc>
<speed>0.280000</speed>
</trkpt>
<trkpt lat="42.898594" lon="19.630745">
<ele>1688.454102</ele>
<time>2012-04-30T14:22:20Z</time>
<desc>lat.=42.898594, lon.=19.630745, Alt.=1688.454102m. Speed=2.520000m/h.</desc>
<speed>0.700000</speed>
</trkpt>
<trkpt lat="42.898598" lon="19.630796">
<ele>1688.016602</ele>
<time>2012-04-30T14:22:25Z</time>
<desc>lat.=42.898598, lon.=19.630796, Alt.=1688.016602m. Speed=1.836000m/h.</desc>
<speed>0.510000</speed>
</trkpt>
<trkpt lat="42.898582" lon="19.630808">
<ele>1686.766602</ele>
<time>2012-04-30T14:22:30Z</time>
<desc>lat.=42.898582, lon.=19.630808, Alt.=1686.766602m. Speed=2.052000m/h.</desc>
<speed>0.570000</speed>
</trkpt>
<trkpt lat="42.898567" lon="19.630814">
<ele>1686.672852</ele>
<time>2012-04-30T14:22:35Z</time>
<desc>lat.=42.898567, lon.=19.630814, Alt.=1686.672852m. Speed=0.180000m/h.</desc>
<speed>0.050000</speed>
</trkpt>
<trkpt lat="42.898552" lon="19.630821">
<ele>1686.454102</ele>
<time>2012-04-30T14:22:40Z</time>
<desc>lat.=42.898552, lon.=19.630821, Alt.=1686.454102m. Speed=3.132000m/h.</desc>
<speed>0.870000</speed>
</trkpt>
<trkpt lat="42.898544" lon="19.630836">
<ele>1686.079102</ele>
<time>2012-04-30T14:22:45Z</time>
<desc>lat.=42.898544, lon.=19.630836, Alt.=1686.079102m. Speed=0.216000m/h.</desc>
<speed>0.060000</speed>
</trkpt>
<trkpt lat="42.898514" lon="19.630875">
<ele>1686.329102</ele>
<time>2012-04-30T14:22:50Z</time>
<desc>lat.=42.898514, lon.=19.630875, Alt.=1686.329102m. Speed=3.492000m/h.</desc>
<speed>0.970000</speed>
</trkpt>
<trkpt lat="42.898464" lon="19.630873">
<ele>1686.422852</ele>
<time>2012-04-30T14:22:55Z</time>
<desc>lat.=42.898464, lon.=19.630873, Alt.=1686.422852m. Speed=4.572000m/h.</desc>
<speed>1.270000</speed>
</trkpt>
<trkpt lat="42.898418" lon="19.630859">
<ele>1686.297852</ele>
<time>2012-04-30T14:23:00Z</time>
<desc>lat.=42.898418, lon.=19.630859, Alt.=1686.297852m. Speed=4.572000m/h.</desc>
<speed>1.270000</speed>
</trkpt>
<trkpt lat="42.898365" lon="19.630840">
<ele>1684.516602</ele>
<time>2012-04-30T14:23:05Z</time>
<desc>lat.=42.898365, lon.=19.630840, Alt.=1684.516602m. Speed=3.996000m/h.</desc>
<speed>1.110000</speed>
</trkpt>
<trkpt lat="42.898323" lon="19.630812">
<ele>1684.360352</ele>
<time>2012-04-30T14:23:10Z</time>
<desc>lat.=42.898323, lon.=19.630812, Alt.=1684.360352m. Speed=3.564000m/h.</desc>
<speed>0.990000</speed>
</trkpt>
<trkpt lat="42.898300" lon="19.630854">
<ele>1684.454102</ele>
<time>2012-04-30T14:23:15Z</time>
<desc>lat.=42.898300, lon.=19.630854, Alt.=1684.454102m. Speed=2.196000m/h.</desc>
<speed>0.610000</speed>
</trkpt>
<trkpt lat="42.898312" lon="19.630865">
<ele>1685.204102</ele>
<time>2012-04-30T14:23:20Z</time>
<desc>lat.=42.898312, lon.=19.630865, Alt.=1685.204102m. Speed=0.180000m/h.</desc>
<speed>0.050000</speed>
</trkpt>
<trkpt lat="42.898319" lon="19.630878">
<ele>1685.579102</ele>
<time>2012-04-30T14:23:25Z</time>
<desc>lat.=42.898319, lon.=19.630878, Alt.=1685.579102m. Speed=4.680000m/h.</desc>
<speed>1.300000</speed>
</trkpt>
<trkpt lat="42.898312" lon="19.630993">
<ele>1686.360352</ele>
<time>2012-04-30T14:23:30Z</time>
<desc>lat.=42.898312, lon.=19.630993, Alt.=1686.360352m. Speed=7.740000m/h.</desc>
<speed>2.150000</speed>
</trkpt>
<trkpt lat="42.898289" lon="19.631128">
<ele>1686.922852</ele>
<time>2012-04-30T14:23:35Z</time>
<desc>lat.=42.898289, lon.=19.631128, Alt.=1686.922852m. Speed=7.524000m/h.</desc>
<speed>2.090000</speed>
</trkpt>
<trkpt lat="42.898296" lon="19.631264">
<ele>1688.016602</ele>
<time>2012-04-30T14:23:40Z</time>
<desc>lat.=42.898296, lon.=19.631264, Alt.=1688.016602m. Speed=8.388000m/h.</desc>
<speed>2.330000</speed>
</trkpt>
<trkpt lat="42.898304" lon="19.631405">
<ele>1688.485352</ele>
<time>2012-04-30T14:23:45Z</time>
<desc>lat.=42.898304, lon.=19.631405, Alt.=1688.485352m. Speed=9.108000m/h.</desc>
<speed>2.530000</speed>
</trkpt>
<trkpt lat="42.898319" lon="19.631556">
<ele>1689.172852</ele>
<time>2012-04-30T14:23:50Z</time>
<desc>lat.=42.898319, lon.=19.631556, Alt.=1689.172852m. Speed=7.812000m/h.</desc>
<speed>2.170000</speed>
</trkpt>
<trkpt lat="42.898350" lon="19.631697">
<ele>1689.047852</ele>
<time>2012-04-30T14:23:55Z</time>
<desc>lat.=42.898350, lon.=19.631697, Alt.=1689.047852m. Speed=8.640000m/h.</desc>
<speed>2.400000</speed>
</trkpt>
<trkpt lat="42.898346" lon="19.631828">
<ele>1689.922852</ele>
<time>2012-04-30T14:24:00Z</time>
<desc>lat.=42.898346, lon.=19.631828, Alt.=1689.922852m. Speed=8.064000m/h.</desc>
<speed>2.240000</speed>
</trkpt>
<trkpt lat="42.898335" lon="19.631933">
<ele>1691.391602</ele>
<time>2012-04-30T14:24:05Z</time>
<desc>lat.=42.898335, lon.=19.631933, Alt.=1691.391602m. Speed=7.596000m/h.</desc>
<speed>2.110000</speed>
</trkpt>
<trkpt lat="42.898323" lon="19.632063">
<ele>1690.797852</ele>
<time>2012-04-30T14:24:10Z</time>
<desc>lat.=42.898323, lon.=19.632063, Alt.=1690.797852m. Speed=6.912000m/h.</desc>
<speed>1.920000</speed>
</trkpt>
<trkpt lat="42.898335" lon="19.632160">
<ele>1690.641602</ele>
<time>2012-04-30T14:24:15Z</time>
<desc>lat.=42.898335, lon.=19.632160, Alt.=1690.641602m. Speed=6.264000m/h.</desc>
<speed>1.740000</speed>
</trkpt>
<trkpt lat="42.898312" lon="19.632267">
<ele>1691.985352</ele>
<time>2012-04-30T14:24:20Z</time>
<desc>lat.=42.898312, lon.=19.632267, Alt.=1691.985352m. Speed=5.508000m/h.</desc>
<speed>1.530000</speed>
</trkpt>
<trkpt lat="42.898331" lon="19.632318">
<ele>1694.641602</ele>
<time>2012-04-30T14:24:25Z</time>
<desc>lat.=42.898331, lon.=19.632318, Alt.=1694.641602m. Speed=0.792000m/h.</desc>
<speed>0.220000</speed>
</trkpt>
<trkpt lat="42.898331" lon="19.632368">
<ele>1696.641602</ele>
<time>2012-04-30T14:24:30Z</time>
<desc>lat.=42.898331, lon.=19.632368, Alt.=1696.641602m. Speed=2.196000m/h.</desc>
<speed>0.610000</speed>
</trkpt>
<trkpt lat="42.898323" lon="19.632420">
<ele>1697.391602</ele>
<time>2012-04-30T14:24:35Z</time>
<desc>lat.=42.898323, lon.=19.632420, Alt.=1697.391602m. Speed=3.096000m/h.</desc>
<speed>0.860000</speed>
</trkpt>
<trkpt lat="42.898312" lon="19.632456">
<ele>1697.797852</ele>
<time>2012-04-30T14:24:40Z</time>
<desc>lat.=42.898312, lon.=19.632456, Alt.=1697.797852m. Speed=0.144000m/h.</desc>
<speed>0.040000</speed>
</trkpt>
<trkpt lat="42.898304" lon="19.632492">
<ele>1698.297852</ele>
<time>2012-04-30T14:24:45Z</time>
<desc>lat.=42.898304, lon.=19.632492, Alt.=1698.297852m. Speed=3.780000m/h.</desc>
<speed>1.050000</speed>
</trkpt>
<trkpt lat="42.898296" lon="19.632523">
<ele>1698.735352</ele>
<time>2012-04-30T14:24:50Z</time>
<desc>lat.=42.898296, lon.=19.632523, Alt.=1698.735352m. Speed=0.036000m/h.</desc>
<speed>0.010000</speed>
</trkpt>
<trkpt lat="42.898293" lon="19.632540">
<ele>1698.891602</ele>
<time>2012-04-30T14:24:55Z</time>
<desc>lat.=42.898293, lon.=19.632540, Alt.=1698.891602m. Speed=3.636000m/h.</desc>
<speed>1.010000</speed>
</trkpt>
<trkpt lat="42.898281" lon="19.632612">
<ele>1698.891602</ele>
<time>2012-04-30T14:25:00Z</time>
<desc>lat.=42.898281, lon.=19.632612, Alt.=1698.891602m. Speed=3.708000m/h.</desc>
<speed>1.030000</speed>
</trkpt>
<trkpt lat="42.898289" lon="19.632675">
<ele>1698.954102</ele>
<time>2012-04-30T14:25:05Z</time>
<desc>lat.=42.898289, lon.=19.632675, Alt.=1698.954102m. Speed=3.060000m/h.</desc>
<speed>0.850000</speed>
</trkpt>
<trkpt lat="42.898293" lon="19.632730">
<ele>1699.266602</ele>
<time>2012-04-30T14:25:10Z</time>
<desc>lat.=42.898293, lon.=19.632730, Alt.=1699.266602m. Speed=3.420000m/h.</desc>
<speed>0.950000</speed>
</trkpt>
<trkpt lat="42.898296" lon="19.632788">
<ele>1699.516602</ele>
<time>2012-04-30T14:25:15Z</time>
<desc>lat.=42.898296, lon.=19.632788, Alt.=1699.516602m. Speed=3.312000m/h.</desc>
<speed>0.920000</speed>
</trkpt>
<trkpt lat="42.898285" lon="19.632837">
<ele>1699.766602</ele>
<time>2012-04-30T14:25:20Z</time>
<desc>lat.=42.898285, lon.=19.632837, Alt.=1699.766602m. Speed=3.492000m/h.</desc>
<speed>0.970000</speed>
</trkpt>
<trkpt lat="42.898270" lon="19.632904">
<ele>1699.547852</ele>
<time>2012-04-30T14:25:25Z</time>
<desc>lat.=42.898270, lon.=19.632904, Alt.=1699.547852m. Speed=4.644000m/h.</desc>
<speed>1.290000</speed>
</trkpt>
<trkpt lat="42.898289" lon="19.632975">
<ele>1699.579102</ele>
<time>2012-04-30T14:25:30Z</time>
<desc>lat.=42.898289, lon.=19.632975, Alt.=1699.579102m. Speed=4.500000m/h.</desc>
<speed>1.250000</speed>
</trkpt>
<trkpt lat="42.898323" lon="19.633041">
<ele>1700.891602</ele>
<time>2012-04-30T14:25:35Z</time>
<desc>lat.=42.898323, lon.=19.633041, Alt.=1700.891602m. Speed=3.348000m/h.</desc>
<speed>0.930000</speed>
</trkpt>
<trkpt lat="42.898346" lon="19.633091">
<ele>1700.547852</ele>
<time>2012-04-30T14:25:40Z</time>
<desc>lat.=42.898346, lon.=19.633091, Alt.=1700.547852m. Speed=3.708000m/h.</desc>
<speed>1.030000</speed>
</trkpt>
<trkpt lat="42.898365" lon="19.633150">
<ele>1700.954102</ele>
<time>2012-04-30T14:25:45Z</time>
<desc>lat.=42.898365, lon.=19.633150, Alt.=1700.954102m. Speed=4.608000m/h.</desc>
<speed>1.280000</speed>
</trkpt>
<trkpt lat="42.898384" lon="19.633198">
<ele>1701.360352</ele>
<time>2012-04-30T14:25:50Z</time>
<desc>lat.=42.898384, lon.=19.633198, Alt.=1701.360352m. Speed=3.060000m/h.</desc>
<speed>0.850000</speed>
</trkpt>
<trkpt lat="42.898415" lon="19.633251">
<ele>1701.672852</ele>
<time>2012-04-30T14:25:55Z</time>
<desc>lat.=42.898415, lon.=19.633251, Alt.=1701.672852m. Speed=3.384000m/h.</desc>
<speed>0.940000</speed>
</trkpt>
<trkpt lat="42.898430" lon="19.633291">
<ele>1701.547852</ele>
<time>2012-04-30T14:26:00Z</time>
<desc>lat.=42.898430, lon.=19.633291, Alt.=1701.547852m. Speed=1.260000m/h.</desc>
<speed>0.350000</speed>
</trkpt>
<trkpt lat="42.898445" lon="19.633345">
<ele>1701.235352</ele>
<time>2012-04-30T14:26:05Z</time>
<desc>lat.=42.898445, lon.=19.633345, Alt.=1701.235352m. Speed=3.996000m/h.</desc>
<speed>1.110000</speed>
</trkpt>
<trkpt lat="42.898445" lon="19.633377">
<ele>1700.485352</ele>
<time>2012-04-30T14:26:10Z</time>
<desc>lat.=42.898445, lon.=19.633377, Alt.=1700.485352m. Speed=0.180000m/h.</desc>
<speed>0.050000</speed>
</trkpt>
<trkpt lat="42.898438" lon="19.633404">
<ele>1700.391602</ele>
<time>2012-04-30T14:26:15Z</time>
<desc>lat.=42.898438, lon.=19.633404, Alt.=1700.391602m. Speed=3.888000m/h.</desc>
<speed>1.080000</speed>
</trkpt>
<trkpt lat="42.898434" lon="19.633467">
<ele>1700.516602</ele>
<time>2012-04-30T14:26:20Z</time>
<desc>lat.=42.898434, lon.=19.633467, Alt.=1700.516602m. Speed=3.096000m/h.</desc>
<speed>0.860000</speed>
</trkpt>
<trkpt lat="42.898430" lon="19.633528">
<ele>1700.735352</ele>
<time>2012-04-30T14:26:25Z</time>
<desc>lat.=42.898430, lon.=19.633528, Alt.=1700.735352m. Speed=2.052000m/h.</desc>
<speed>0.570000</speed>
</trkpt>
<trkpt lat="42.898438" lon="19.633570">
<ele>1700.547852</ele>
<time>2012-04-30T14:26:30Z</time>
<desc>lat.=42.898438, lon.=19.633570, Alt.=1700.547852m. Speed=3.528000m/h.</desc>
<speed>0.980000</speed>
</trkpt>
<trkpt lat="42.898434" lon="19.633615">
<ele>1700.016602</ele>
<time>2012-04-30T14:26:35Z</time>
<desc>lat.=42.898434, lon.=19.633615, Alt.=1700.016602m. Speed=0.504000m/h.</desc>
<speed>0.140000</speed>
</trkpt>
<trkpt lat="42.898430" lon="19.633614">
<ele>1699.704102</ele>
<time>2012-04-30T14:26:40Z</time>
<desc>lat.=42.898430, lon.=19.633614, Alt.=1699.704102m. Speed=0.036000m/h.</desc>
<speed>0.010000</speed>
</trkpt>
<trkpt lat="42.898434" lon="19.633612">
<ele>1699.735352</ele>
<time>2012-04-30T14:26:45Z</time>
<desc>lat.=42.898434, lon.=19.633612, Alt.=1699.735352m. Speed=0.036000m/h.</desc>
<speed>0.010000</speed>
</trkpt>
<trkpt lat="42.898434" lon="19.633614">
<ele>1699.735352</ele>
<time>2012-04-30T14:26:50Z</time>
<desc>lat.=42.898434, lon.=19.633614, Alt.=1699.735352m. Speed=0.036000m/h.</desc>
<speed>0.010000</speed>
</trkpt>
<trkpt lat="42.898434" lon="19.633614">
<ele>1699.735352</ele>
<time>2012-04-30T14:26:55Z</time>
<desc>lat.=42.898434, lon.=19.633614, Alt.=1699.735352m. Speed=0.396000m/h.</desc>
<speed>0.110000</speed>
</trkpt>
<trkpt lat="42.898422" lon="19.633638">
<ele>1698.297852</ele>
<time>2012-04-30T14:27:00Z</time>
<desc>lat.=42.898422, lon.=19.633638, Alt.=1698.297852m. Speed=2.124000m/h.</desc>
<speed>0.590000</speed>
</trkpt>
<trkpt lat="42.898407" lon="19.633659">
<ele>1697.329102</ele>
<time>2012-04-30T14:27:05Z</time>
<desc>lat.=42.898407, lon.=19.633659, Alt.=1697.329102m. Speed=0.072000m/h.</desc>
<speed>0.020000</speed>
</trkpt>
<trkpt lat="42.898399" lon="19.633677">
<ele>1697.329102</ele>
<time>2012-04-30T14:27:10Z</time>
<desc>lat.=42.898399, lon.=19.633677, Alt.=1697.329102m. Speed=1.836000m/h.</desc>
<speed>0.510000</speed>
</trkpt>
<trkpt lat="42.898396" lon="19.633690">
<ele>1697.485352</ele>
<time>2012-04-30T14:27:15Z</time>
<desc>lat.=42.898396, lon.=19.633690, Alt.=1697.485352m. Speed=0.612000m/h.</desc>
<speed>0.170000</speed>
</trkpt>
<trkpt lat="42.898392" lon="19.633705">
<ele>1697.860352</ele>
<time>2012-04-30T14:27:20Z</time>
<desc>lat.=42.898392, lon.=19.633705, Alt.=1697.860352m. Speed=2.772000m/h.</desc>
<speed>0.770000</speed>
</trkpt>
<trkpt lat="42.898384" lon="19.633759">
<ele>1698.672852</ele>
<time>2012-04-30T14:27:25Z</time>
<desc>lat.=42.898384, lon.=19.633759, Alt.=1698.672852m. Speed=3.348000m/h.</desc>
<speed>0.930000</speed>
</trkpt>
<trkpt lat="42.898380" lon="19.633810">
<ele>1699.391602</ele>
<time>2012-04-30T14:27:30Z</time>
<desc>lat.=42.898380, lon.=19.633810, Alt.=1699.391602m. Speed=3.528000m/h.</desc>
<speed>0.980000</speed>
</trkpt>
<trkpt lat="42.898365" lon="19.633867">
<ele>1699.766602</ele>
<time>2012-04-30T14:27:35Z</time>
<desc>lat.=42.898365, lon.=19.633867, Alt.=1699.766602m. Speed=3.636000m/h.</desc>
<speed>1.010000</speed>
</trkpt>
<trkpt lat="42.898357" lon="19.633924">
<ele>1700.610352</ele>
<time>2012-04-30T14:27:40Z</time>
<desc>lat.=42.898357, lon.=19.633924, Alt.=1700.610352m. Speed=3.204000m/h.</desc>
<speed>0.890000</speed>
</trkpt>
<trkpt lat="42.898354" lon="19.633982">
<ele>1701.047852</ele>
<time>2012-04-30T14:27:45Z</time>
<desc>lat.=42.898354, lon.=19.633982, Alt.=1701.047852m. Speed=3.564000m/h.</desc>
<speed>0.990000</speed>
</trkpt>
<trkpt lat="42.898354" lon="19.634037">
<ele>1701.266602</ele>
<time>2012-04-30T14:27:50Z</time>
<desc>lat.=42.898354, lon.=19.634037, Alt.=1701.266602m. Speed=2.556000m/h.</desc>
<speed>0.710000</speed>
</trkpt>
<trkpt lat="42.898354" lon="19.634077">
<ele>1702.547852</ele>
<time>2012-04-30T14:27:55Z</time>
<desc>lat.=42.898354, lon.=19.634077, Alt.=1702.547852m. Speed=3.312000m/h.</desc>
<speed>0.920000</speed>
</trkpt>
<trkpt lat="42.898346" lon="19.634132">
<ele>1702.516602</ele>
<time>2012-04-30T14:28:00Z</time>
<desc>lat.=42.898346, lon.=19.634132, Alt.=1702.516602m. Speed=2.448000m/h.</desc>
<speed>0.680000</speed>
</trkpt>
<trkpt lat="42.898342" lon="19.634192">
<ele>1702.985352</ele>
<time>2012-04-30T14:28:05Z</time>
<desc>lat.=42.898342, lon.=19.634192, Alt.=1702.985352m. Speed=3.780000m/h.</desc>
<speed>1.050000</speed>
</trkpt>
<trkpt lat="42.898335" lon="19.634254">
<ele>1703.485352</ele>
<time>2012-04-30T14:28:10Z</time>
<desc>lat.=42.898335, lon.=19.634254, Alt.=1703.485352m. Speed=3.420000m/h.</desc>
<speed>0.950000</speed>
</trkpt>
<trkpt lat="42.898323" lon="19.634317">
<ele>1703.704102</ele>
<time>2012-04-30T14:28:15Z</time>
<desc>lat.=42.898323, lon.=19.634317, Alt.=1703.704102m. Speed=3.888000m/h.</desc>
<speed>1.080000</speed>
</trkpt>
<trkpt lat="42.898312" lon="19.634350">
<ele>1703.641602</ele>
<time>2012-04-30T14:28:20Z</time>
<desc>lat.=42.898312, lon.=19.634350, Alt.=1703.641602m. Speed=0.180000m/h.</desc>
<speed>0.050000</speed>
</trkpt>
<trkpt lat="42.898312" lon="19.634350">
<ele>1703.704102</ele>
<time>2012-04-30T14:28:25Z</time>
<desc>lat.=42.898312, lon.=19.634350, Alt.=1703.704102m. Speed=0.108000m/h.</desc>
<speed>0.030000</speed>
</trkpt>
<trkpt lat="42.898312" lon="19.634350">
<ele>1703.766602</ele>
<time>2012-04-30T14:28:30Z</time>
<desc>lat.=42.898312, lon.=19.634350, Alt.=1703.766602m. Speed=0.072000m/h.</desc>
<speed>0.020000</speed>
</trkpt>
<trkpt lat="42.898308" lon="19.634356">
<ele>1703.797852</ele>
<time>2012-04-30T14:28:35Z</time>
<desc>lat.=42.898308, lon.=19.634356, Alt.=1703.797852m. Speed=1.260000m/h.</desc>
<speed>0.350000</speed>
</trkpt>
<trkpt lat="42.898308" lon="19.634367">
<ele>1703.391602</ele>
<time>2012-04-30T14:28:40Z</time>
<desc>lat.=42.898308, lon.=19.634367, Alt.=1703.391602m. Speed=0.000000m/h.</desc>
<speed>0.000000</speed>
</trkpt>
<trkpt lat="42.898308" lon="19.634367">
<ele>1703.391602</ele>
<time>2012-04-30T14:28:45Z</time>
<desc>lat.=42.898308, lon.=19.634367, Alt.=1703.391602m. Speed=0.000000m/h.</desc>
<speed>0.000000</speed>
</trkpt>
<trkpt lat="42.898308" lon="19.634367">
<ele>1703.360352</ele>
<time>2012-04-30T14:28:50Z</time>
<desc>lat.=42.898308, lon.=19.634367, Alt.=1703.360352m. Speed=0.504000m/h.</desc>
<speed>0.140000</speed>
</trkpt>
<trkpt lat="42.898308" lon="19.634367">
<ele>1703.329102</ele>
<time>2012-04-30T14:28:55Z</time>
<desc>lat.=42.898308, lon.=19.634367, Alt.=1703.329102m. Speed=0.252000m/h.</desc>
<speed>0.070000</speed>
</trkpt>
<trkpt lat="42.898289" lon="19.634394">
<ele>1703.454102</ele>
<time>2012-04-30T14:29:00Z</time>
<desc>lat.=42.898289, lon.=19.634394, Alt.=1703.454102m. Speed=2.484000m/h.</desc>
<speed>0.690000</speed>
</trkpt>
<trkpt lat="42.898251" lon="19.634418">
<ele>1704.204102</ele>
<time>2012-04-30T14:29:05Z</time>
<desc>lat.=42.898251, lon.=19.634418, Alt.=1704.204102m. Speed=2.736000m/h.</desc>
<speed>0.760000</speed>
</trkpt>
<trkpt lat="42.898216" lon="19.634417">
<ele>1705.360352</ele>
<time>2012-04-30T14:29:10Z</time>
<desc>lat.=42.898216, lon.=19.634417, Alt.=1705.360352m. Speed=2.124000m/h.</desc>
<speed>0.590000</speed>
</trkpt>
<trkpt lat="42.898182" lon="19.634420">
<ele>1706.141602</ele>
<time>2012-04-30T14:29:15Z</time>
<desc>lat.=42.898182, lon.=19.634420, Alt.=1706.141602m. Speed=2.268000m/h.</desc>
<speed>0.630000</speed>
</trkpt>
<trkpt lat="42.898155" lon="19.634420">
<ele>1708.329102</ele>
<time>2012-04-30T14:29:20Z</time>
<desc>lat.=42.898155, lon.=19.634420, Alt.=1708.329102m. Speed=1.764000m/h.</desc>
<speed>0.490000</speed>
</trkpt>
<trkpt lat="42.898129" lon="19.634422">
<ele>1709.797852</ele>
<time>2012-04-30T14:29:25Z</time>
<desc>lat.=42.898129, lon.=19.634422, Alt.=1709.797852m. Speed=2.196000m/h.</desc>
<speed>0.610000</speed>
</trkpt>
<trkpt lat="42.898106" lon="19.634420">
<ele>1711.016602</ele>
<time>2012-04-30T14:29:30Z</time>
<desc>lat.=42.898106, lon.=19.634420, Alt.=1711.016602m. Speed=1.368000m/h.</desc>
<speed>0.380000</speed>
</trkpt>
<trkpt lat="42.898087" lon="19.634415">
<ele>1713.235352</ele>
<time>2012-04-30T14:29:35Z</time>
<desc>lat.=42.898087, lon.=19.634415, Alt.=1713.235352m. Speed=1.152000m/h.</desc>
<speed>0.320000</speed>
</trkpt>
<trkpt lat="42.898071" lon="19.634401">
<ele>1715.485352</ele>
<time>2012-04-30T14:29:40Z</time>
<desc>lat.=42.898071, lon.=19.634401, Alt.=1715.485352m. Speed=1.440000m/h.</desc>
<speed>0.400000</speed>
</trkpt>
<trkpt lat="42.898075" lon="19.634413">
<ele>1717.266602</ele>
<time>2012-04-30T14:29:45Z</time>
<desc>lat.=42.898075, lon.=19.634413, Alt.=1717.266602m. Speed=0.144000m/h.</desc>
<speed>0.040000</speed>
</trkpt>
<trkpt lat="42.898075" lon="19.634405">
<ele>1718.485352</ele>
<time>2012-04-30T14:29:50Z</time>
<desc>lat.=42.898075, lon.=19.634405, Alt.=1718.485352m. Speed=0.828000m/h.</desc>
<speed>0.230000</speed>
</trkpt>
<trkpt lat="42.898071" lon="19.634373">
<ele>1720.172852</ele>
<time>2012-04-30T14:29:55Z</time>
<desc>lat.=42.898071, lon.=19.634373, Alt.=1720.172852m. Speed=1.440000m/h.</desc>
<speed>0.400000</speed>
</trkpt>
<trkpt lat="42.898079" lon="19.634361">
<ele>1718.797852</ele>
<time>2012-04-30T14:30:00Z</time>
<desc>lat.=42.898079, lon.=19.634361, Alt.=1718.797852m. Speed=1.260000m/h.</desc>
<speed>0.350000</speed>
</trkpt>
<trkpt lat="42.898067" lon="19.634354">
<ele>1716.641602</ele>
<time>2012-04-30T14:30:05Z</time>
<desc>lat.=42.898067, lon.=19.634354, Alt.=1716.641602m. Speed=0.540000m/h.</desc>
<speed>0.150000</speed>
</trkpt>
<trkpt lat="42.898067" lon="19.634348">
<ele>1716.797852</ele>
<time>2012-04-30T14:30:10Z</time>
<desc>lat.=42.898067, lon.=19.634348, Alt.=1716.797852m. Speed=0.396000m/h.</desc>
<speed>0.110000</speed>
</trkpt>
<trkpt lat="42.898067" lon="19.634342">
<ele>1716.922852</ele>
<time>2012-04-30T14:30:15Z</time>
<desc>lat.=42.898067, lon.=19.634342, Alt.=1716.922852m. Speed=0.504000m/h.</desc>
<speed>0.140000</speed>
</trkpt>
<trkpt lat="42.898071" lon="19.634289">
<ele>1716.329102</ele>
<time>2012-04-30T14:30:20Z</time>
<desc>lat.=42.898071, lon.=19.634289, Alt.=1716.329102m. Speed=2.952000m/h.</desc>
<speed>0.820000</speed>
</trkpt>
<trkpt lat="42.898083" lon="19.634266">
<ele>1716.891602</ele>
<time>2012-04-30T14:30:25Z</time>
<desc>lat.=42.898083, lon.=19.634266, Alt.=1716.891602m. Speed=0.072000m/h.</desc>
<speed>0.020000</speed>
</trkpt>
<trkpt lat="42.898083" lon="19.634262">
<ele>1716.797852</ele>
<time>2012-04-30T14:30:30Z</time>
<desc>lat.=42.898083, lon.=19.634262, Alt.=1716.797852m. Speed=0.000000m/h.</desc>
<speed>0.000000</speed>
</trkpt>
<trkpt lat="42.898083" lon="19.634262">
<ele>1716.766602</ele>
<time>2012-04-30T14:30:35Z</time>
<desc>lat.=42.898083, lon.=19.634262, Alt.=1716.766602m. Speed=0.000000m/h.</desc>
<speed>0.000000</speed>
</trkpt>
<trkpt lat="42.898083" lon="19.634262">
<ele>1716.704102</ele>
<time>2012-04-30T14:30:40Z</time>
<desc>lat.=42.898083, lon.=19.634262, Alt.=1716.704102m. Speed=0.072000m/h.</desc>
<speed>0.020000</speed>
</trkpt>
<trkpt lat="42.898083" lon="19.634262">
<ele>1716.672852</ele>
<time>2012-04-30T14:30:45Z</time>
<desc>lat.=42.898083, lon.=19.634262, Alt.=1716.672852m. Speed=0.036000m/h.</desc>
<speed>0.010000</speed>
</trkpt>
<trkpt lat="42.898083" lon="19.634262">
<ele>1716.672852</ele>
<time>2012-04-30T14:30:50Z</time>
<desc>lat.=42.898083, lon.=19.634262, Alt.=1716.672852m. Speed=0.036000m/h.</desc>
<speed>0.010000</speed>
</trkpt>
<trkpt lat="42.898083" lon="19.634262">
<ele>1716.672852</ele>
<time>2012-04-30T14:30:55Z</time>
<desc>lat.=42.898083, lon.=19.634262, Alt.=1716.672852m. Speed=0.000000m/h.</desc>
<speed>0.000000</speed>
</trkpt>
<trkpt lat="42.898083" lon="19.634262">
<ele>1716.672852</ele>
<time>2012-04-30T14:31:00Z</time>
<desc>lat.=42.898083, lon.=19.634262, Alt.=1716.672852m. Speed=0.000000m/h.</desc>
<speed>0.000000</speed>
</trkpt>
<trkpt lat="42.898083" lon="19.634260">
<ele>1716.641602</ele>
<time>2012-04-30T14:31:05Z</time>
<desc>lat.=42.898083, lon.=19.634260, Alt.=1716.641602m. Speed=0.000000m/h.</desc>
<speed>0.000000</speed>
</trkpt>
<trkpt lat="42.898083" lon="19.634260">
<ele>1716.610352</ele>
<time>2012-04-30T14:31:10Z</time>
<desc>lat.=42.898083, lon.=19.634260, Alt.=1716.610352m. Speed=0.000000m/h.</desc>
<speed>0.000000</speed>
</trkpt>
<trkpt lat="42.898083" lon="19.634260">
<ele>1716.579102</ele>
<time>2012-04-30T14:31:15Z</time>
<desc>lat.=42.898083, lon.=19.634260, Alt.=1716.579102m. Speed=0.072000m/h.</desc>
<speed>0.020000</speed>
</trkpt>
<trkpt lat="42.898083" lon="19.634260">
<ele>1716.547852</ele>
<time>2012-04-30T14:31:20Z</time>
<desc>lat.=42.898083, lon.=19.634260, Alt.=1716.547852m. Speed=0.000000m/h.</desc>
<speed>0.000000</speed>
</trkpt>
<trkpt lat="42.898087" lon="19.634260">
<ele>1716.579102</ele>
<time>2012-04-30T14:31:25Z</time>
<desc>lat.=42.898087, lon.=19.634260, Alt.=1716.579102m. Speed=0.396000m/h.</desc>
<speed>0.110000</speed>
</trkpt>
<trkpt lat="42.898079" lon="19.634218">
<ele>1716.735352</ele>
<time>2012-04-30T14:31:30Z</time>
<desc>lat.=42.898079, lon.=19.634218, Alt.=1716.735352m. Speed=2.376000m/h.</desc>
<speed>0.660000</speed>
</trkpt>
<trkpt lat="42.898071" lon="19.634186">
<ele>1716.360352</ele>
<time>2012-04-30T14:31:35Z</time>
<desc>lat.=42.898071, lon.=19.634186, Alt.=1716.360352m. Speed=2.772000m/h.</desc>
<speed>0.770000</speed>
</trkpt>
<trkpt lat="42.898056" lon="19.634132">
<ele>1716.266602</ele>
<time>2012-04-30T14:31:40Z</time>
<desc>lat.=42.898056, lon.=19.634132, Alt.=1716.266602m. Speed=3.276000m/h.</desc>
<speed>0.910000</speed>
</trkpt>
<trkpt lat="42.898048" lon="19.634115">
<ele>1716.516602</ele>
<time>2012-04-30T14:31:45Z</time>
<desc>lat.=42.898048, lon.=19.634115, Alt.=1716.516602m. Speed=1.476000m/h.</desc>
<speed>0.410000</speed>
</trkpt>
<trkpt lat="42.898041" lon="19.634098">
<ele>1717.141602</ele>
<time>2012-04-30T14:31:50Z</time>
<desc>lat.=42.898041, lon.=19.634098, Alt.=1717.141602m. Speed=2.052000m/h.</desc>
<speed>0.570000</speed>
</trkpt>
<trkpt lat="42.898014" lon="19.634071">
<ele>1717.672852</ele>
<time>2012-04-30T14:31:55Z</time>
<desc>lat.=42.898014, lon.=19.634071, Alt.=1717.672852m. Speed=3.276000m/h.</desc>
<speed>0.910000</speed>
</trkpt>
<trkpt lat="42.897991" lon="19.634039">
<ele>1717.235352</ele>
<time>2012-04-30T14:32:00Z</time>
<desc>lat.=42.897991, lon.=19.634039, Alt.=1717.235352m. Speed=4.356000m/h.</desc>
<speed>1.210000</speed>
</trkpt>
<trkpt lat="42.897976" lon="19.633982">
<ele>1716.766602</ele>
<time>2012-04-30T14:32:05Z</time>
<desc>lat.=42.897976, lon.=19.633982, Alt.=1716.766602m. Speed=3.780000m/h.</desc>
<speed>1.050000</speed>
</trkpt>
<trkpt lat="42.897961" lon="19.633938">
<ele>1717.235352</ele>
<time>2012-04-30T14:32:10Z</time>
<desc>lat.=42.897961, lon.=19.633938, Alt.=1717.235352m. Speed=0.144000m/h.</desc>
<speed>0.040000</speed>
</trkpt>
<trkpt lat="42.897961" lon="19.633921">
<ele>1717.172852</ele>
<time>2012-04-30T14:32:15Z</time>
<desc>lat.=42.897961, lon.=19.633921, Alt.=1717.172852m. Speed=4.320000m/h.</desc>
<speed>1.200000</speed>
</trkpt>
<trkpt lat="42.897942" lon="19.633875">
<ele>1717.016602</ele>
<time>2012-04-30T14:32:20Z</time>
<desc>lat.=42.897942, lon.=19.633875, Alt.=1717.016602m. Speed=2.304000m/h.</desc>
<speed>0.640000</speed>
</trkpt>
<trkpt lat="42.897926" lon="19.633831">
<ele>1717.172852</ele>
<time>2012-04-30T14:32:25Z</time>
<desc>lat.=42.897926, lon.=19.633831, Alt.=1717.172852m. Speed=4.464000m/h.</desc>
<speed>1.240000</speed>
</trkpt>
<trkpt lat="42.897907" lon="19.633772">
<ele>1717.547852</ele>
<time>2012-04-30T14:32:30Z</time>
<desc>lat.=42.897907, lon.=19.633772, Alt.=1717.547852m. Speed=3.240000m/h.</desc>
<speed>0.900000</speed>
</trkpt>
<trkpt lat="42.897888" lon="19.633745">
<ele>1717.110352</ele>
<time>2012-04-30T14:32:35Z</time>
<desc>lat.=42.897888, lon.=19.633745, Alt.=1717.110352m. Speed=0.288000m/h.</desc>
<speed>0.080000</speed>
</trkpt>
<trkpt lat="42.897881" lon="19.633743">
<ele>1717.516602</ele>
<time>2012-04-30T14:32:40Z</time>
<desc>lat.=42.897881, lon.=19.633743, Alt.=1717.516602m. Speed=4.716000m/h.</desc>
<speed>1.310000</speed>
</trkpt>
<trkpt lat="42.897842" lon="19.633722">
<ele>1717.704102</ele>
<time>2012-04-30T14:32:45Z</time>
<desc>lat.=42.897842, lon.=19.633722, Alt.=1717.704102m. Speed=0.576000m/h.</desc>
<speed>0.160000</speed>
</trkpt>
<trkpt lat="42.897823" lon="19.633739">
<ele>1716.860352</ele>
<time>2012-04-30T14:32:50Z</time>
<desc>lat.=42.897823, lon.=19.633739, Alt.=1716.860352m. Speed=2.628000m/h.</desc>
<speed>0.730000</speed>
</trkpt>
<trkpt lat="42.897812" lon="19.633698">
<ele>1716.891602</ele>
<time>2012-04-30T14:32:55Z</time>
<desc>lat.=42.897812, lon.=19.633698, Alt.=1716.891602m. Speed=3.384000m/h.</desc>
<speed>0.940000</speed>
</trkpt>
<trkpt lat="42.897789" lon="19.633652">
<ele>1716.891602</ele>
<time>2012-04-30T14:33:00Z</time>
<desc>lat.=42.897789, lon.=19.633652, Alt.=1716.891602m. Speed=2.952000m/h.</desc>
<speed>0.820000</speed>
</trkpt>
<trkpt lat="42.897781" lon="19.633633">
<ele>1717.391602</ele>
<time>2012-04-30T14:33:05Z</time>
<desc>lat.=42.897781, lon.=19.633633, Alt.=1717.391602m. Speed=1.476000m/h.</desc>
<speed>0.410000</speed>
</trkpt>
<trkpt lat="42.897762" lon="19.633604">
<ele>1717.704102</ele>
<time>2012-04-30T14:33:10Z</time>
<desc>lat.=42.897762, lon.=19.633604, Alt.=1717.704102m. Speed=2.412000m/h.</desc>
<speed>0.670000</speed>
</trkpt>
<trkpt lat="42.897747" lon="19.633541">
<ele>1718.235352</ele>
<time>2012-04-30T14:33:15Z</time>
<desc>lat.=42.897747, lon.=19.633541, Alt.=1718.235352m. Speed=3.924000m/h.</desc>
<speed>1.090000</speed>
</trkpt>
<trkpt lat="42.897724" lon="19.633507">
<ele>1718.391602</ele>
<time>2012-04-30T14:33:20Z</time>
<desc>lat.=42.897724, lon.=19.633507, Alt.=1718.391602m. Speed=0.468000m/h.</desc>
<speed>0.130000</speed>
</trkpt>
<trkpt lat="42.897724" lon="19.633492">
<ele>1718.266602</ele>
<time>2012-04-30T14:33:25Z</time>
<desc>lat.=42.897724, lon.=19.633492, Alt.=1718.266602m. Speed=0.756000m/h.</desc>
<speed>0.210000</speed>
</trkpt>
<trkpt lat="42.897720" lon="19.633490">
<ele>1718.297852</ele>
<time>2012-04-30T14:33:30Z</time>
<desc>lat.=42.897720, lon.=19.633490, Alt.=1718.297852m. Speed=0.576000m/h.</desc>
<speed>0.160000</speed>
</trkpt>
<trkpt lat="42.897697" lon="19.633442">
<ele>1719.454102</ele>
<time>2012-04-30T14:33:35Z</time>
<desc>lat.=42.897697, lon.=19.633442, Alt.=1719.454102m. Speed=3.924000m/h.</desc>
<speed>1.090000</speed>
</trkpt>
<trkpt lat="42.897678" lon="19.633379">
<ele>1719.454102</ele>
<time>2012-04-30T14:33:40Z</time>
<desc>lat.=42.897678, lon.=19.633379, Alt.=1719.454102m. Speed=3.852000m/h.</desc>
<speed>1.070000</speed>
</trkpt>
<trkpt lat="42.897655" lon="19.633326">
<ele>1719.735352</ele>
<time>2012-04-30T14:33:45Z</time>
<desc>lat.=42.897655, lon.=19.633326, Alt.=1719.735352m. Speed=3.780000m/h.</desc>
<speed>1.050000</speed>
</trkpt>
<trkpt lat="42.897621" lon="19.633282">
<ele>1720.547852</ele>
<time>2012-04-30T14:33:50Z</time>
<desc>lat.=42.897621, lon.=19.633282, Alt.=1720.547852m. Speed=3.852000m/h.</desc>
<speed>1.070000</speed>
</trkpt>
<trkpt lat="42.897602" lon="19.633253">
<ele>1721.985352</ele>
<time>2012-04-30T14:33:55Z</time>
<desc>lat.=42.897602, lon.=19.633253, Alt.=1721.985352m. Speed=1.476000m/h.</desc>
<speed>0.410000</speed>
</trkpt>
<trkpt lat="42.897594" lon="19.633238">
<ele>1722.016602</ele>
<time>2012-04-30T14:34:00Z</time>
<desc>lat.=42.897594, lon.=19.633238, Alt.=1722.016602m. Speed=1.440000m/h.</desc>
<speed>0.400000</speed>
</trkpt>
<trkpt lat="42.897587" lon="19.633219">
<ele>1723.829102</ele>
<time>2012-04-30T14:34:05Z</time>
<desc>lat.=42.897587, lon.=19.633219, Alt.=1723.829102m. Speed=0.792000m/h.</desc>
<speed>0.220000</speed>
</trkpt>
<trkpt lat="42.897575" lon="19.633215">
<ele>1724.360352</ele>
<time>2012-04-30T14:34:10Z</time>
<desc>lat.=42.897575, lon.=19.633215, Alt.=1724.360352m. Speed=0.072000m/h.</desc>
<speed>0.020000</speed>
</trkpt>
<trkpt lat="42.897575" lon="19.633215">
<ele>1724.454102</ele>
<time>2012-04-30T14:34:15Z</time>
<desc>lat.=42.897575, lon.=19.633215, Alt.=1724.454102m. Speed=0.180000m/h.</desc>
<speed>0.050000</speed>
</trkpt>
<trkpt lat="42.897572" lon="19.633209">
<ele>1724.704102</ele>
<time>2012-04-30T14:34:20Z</time>
<desc>lat.=42.897572, lon.=19.633209, Alt.=1724.704102m. Speed=1.584000m/h.</desc>
<speed>0.440000</speed>
</trkpt>
<trkpt lat="42.897549" lon="19.633190">
<ele>1725.422852</ele>
<time>2012-04-30T14:34:25Z</time>
<desc>lat.=42.897549, lon.=19.633190, Alt.=1725.422852m. Speed=1.548000m/h.</desc>
<speed>0.430000</speed>
</trkpt>
<trkpt lat="42.897541" lon="19.633169">
<ele>1726.079102</ele>
<time>2012-04-30T14:34:30Z</time>
<desc>lat.=42.897541, lon.=19.633169, Alt.=1726.079102m. Speed=0.756000m/h.</desc>
<speed>0.210000</speed>
</trkpt>
<trkpt lat="42.897537" lon="19.633141">
<ele>1726.485352</ele>
<time>2012-04-30T14:34:35Z</time>
<desc>lat.=42.897537, lon.=19.633141, Alt.=1726.485352m. Speed=2.556000m/h.</desc>
<speed>0.710000</speed>
</trkpt>
<trkpt lat="42.897533" lon="19.633106">
<ele>1726.672852</ele>
<time>2012-04-30T14:34:40Z</time>
<desc>lat.=42.897533, lon.=19.633106, Alt.=1726.672852m. Speed=2.448000m/h.</desc>
<speed>0.680000</speed>
</trkpt>
<trkpt lat="42.897518" lon="19.633072">
<ele>1726.891602</ele>
<time>2012-04-30T14:34:45Z</time>
<desc>lat.=42.897518, lon.=19.633072, Alt.=1726.891602m. Speed=2.160000m/h.</desc>
<speed>0.600000</speed>
</trkpt>
<trkpt lat="42.897511" lon="19.633041">
<ele>1726.891602</ele>
<time>2012-04-30T14:34:50Z</time>
<desc>lat.=42.897511, lon.=19.633041, Alt.=1726.891602m. Speed=2.196000m/h.</desc>
<speed>0.610000</speed>
</trkpt>
<trkpt lat="42.897484" lon="19.633045">
<ele>1726.641602</ele>
<time>2012-04-30T14:34:55Z</time>
<desc>lat.=42.897484, lon.=19.633045, Alt.=1726.641602m. Speed=0.036000m/h.</desc>
<speed>0.010000</speed>
</trkpt>
<trkpt lat="42.897476" lon="19.633032">
<ele>1726.922852</ele>
<time>2012-04-30T14:35:00Z</time>
<desc>lat.=42.897476, lon.=19.633032, Alt.=1726.922852m. Speed=2.484000m/h.</desc>
<speed>0.690000</speed>
</trkpt>
<trkpt lat="42.897488" lon="19.633001">
<ele>1727.204102</ele>
<time>2012-04-30T14:35:05Z</time>
<desc>lat.=42.897488, lon.=19.633001, Alt.=1727.204102m. Speed=0.684000m/h.</desc>
<speed>0.190000</speed>
</trkpt>
<trkpt lat="42.897476" lon="19.632965">
<ele>1727.516602</ele>
<time>2012-04-30T14:35:10Z</time>
<desc>lat.=42.897476, lon.=19.632965, Alt.=1727.516602m. Speed=1.944000m/h.</desc>
<speed>0.540000</speed>
</trkpt>
<trkpt lat="42.897461" lon="19.632925">
<ele>1727.985352</ele>
<time>2012-04-30T14:35:15Z</time>
<desc>lat.=42.897461, lon.=19.632925, Alt.=1727.985352m. Speed=3.168000m/h.</desc>
<speed>0.880000</speed>
</trkpt>
<trkpt lat="42.897442" lon="19.632875">
<ele>1727.829102</ele>
<time>2012-04-30T14:35:20Z</time>
<desc>lat.=42.897442, lon.=19.632875, Alt.=1727.829102m. Speed=2.700000m/h.</desc>
<speed>0.750000</speed>
</trkpt>
<trkpt lat="42.897423" lon="19.632832">
<ele>1727.610352</ele>
<time>2012-04-30T14:35:25Z</time>
<desc>lat.=42.897423, lon.=19.632832, Alt.=1727.610352m. Speed=3.348000m/h.</desc>
<speed>0.930000</speed>
</trkpt>
<trkpt lat="42.897411" lon="19.632765">
<ele>1726.704102</ele>
<time>2012-04-30T14:35:30Z</time>
<desc>lat.=42.897411, lon.=19.632765, Alt.=1726.704102m. Speed=3.960000m/h.</desc>
<speed>1.100000</speed>
</trkpt>
<trkpt lat="42.897388" lon="19.632723">
<ele>1727.047852</ele>
<time>2012-04-30T14:35:35Z</time>
<desc>lat.=42.897388, lon.=19.632723, Alt.=1727.047852m. Speed=0.180000m/h.</desc>
<speed>0.050000</speed>
</trkpt>
<trkpt lat="42.897377" lon="19.632702">
<ele>1727.204102</ele>
<time>2012-04-30T14:35:40Z</time>
<desc>lat.=42.897377, lon.=19.632702, Alt.=1727.204102m. Speed=3.492000m/h.</desc>
<speed>0.970000</speed>
</trkpt>
<trkpt lat="42.897362" lon="19.632702">
<ele>1727.266602</ele>
<time>2012-04-30T14:35:45Z</time>
<desc>lat.=42.897362, lon.=19.632702, Alt.=1727.266602m. Speed=0.036000m/h.</desc>
<speed>0.010000</speed>
</trkpt>
<trkpt lat="42.897358" lon="19.632683">
<ele>1727.235352</ele>
<time>2012-04-30T14:35:50Z</time>
<desc>lat.=42.897358, lon.=19.632683, Alt.=1727.235352m. Speed=2.052000m/h.</desc>
<speed>0.570000</speed>
</trkpt>
<trkpt lat="42.897358" lon="19.632641">
<ele>1727.704102</ele>
<time>2012-04-30T14:35:55Z</time>
<desc>lat.=42.897358, lon.=19.632641, Alt.=1727.704102m. Speed=3.420000m/h.</desc>
<speed>0.950000</speed>
</trkpt>
<trkpt lat="42.897346" lon="19.632597">
<ele>1727.485352</ele>
<time>2012-04-30T14:36:00Z</time>
<desc>lat.=42.897346, lon.=19.632597, Alt.=1727.485352m. Speed=3.060000m/h.</desc>
<speed>0.850000</speed>
</trkpt>
<trkpt lat="42.897339" lon="19.632563">
<ele>1727.079102</ele>
<time>2012-04-30T14:36:05Z</time>
<desc>lat.=42.897339, lon.=19.632563, Alt.=1727.079102m. Speed=0.036000m/h.</desc>
<speed>0.010000</speed>
</trkpt>
<trkpt lat="42.897335" lon="19.632542">
<ele>1727.141602</ele>
<time>2012-04-30T14:36:10Z</time>
<desc>lat.=42.897335, lon.=19.632542, Alt.=1727.141602m. Speed=2.160000m/h.</desc>
<speed>0.600000</speed>
</trkpt>
<trkpt lat="42.897335" lon="19.632524">
<ele>1727.204102</ele>
<time>2012-04-30T14:36:15Z</time>
<desc>lat.=42.897335, lon.=19.632524, Alt.=1727.204102m. Speed=0.468000m/h.</desc>
<speed>0.130000</speed>
</trkpt>
<trkpt lat="42.897331" lon="19.632515">
<ele>1726.954102</ele>
<time>2012-04-30T14:36:20Z</time>
<desc>lat.=42.897331, lon.=19.632515, Alt.=1726.954102m. Speed=0.396000m/h.</desc>
<speed>0.110000</speed>
</trkpt>
<trkpt lat="42.897312" lon="19.632509">
<ele>1726.641602</ele>
<time>2012-04-30T14:36:25Z</time>
<desc>lat.=42.897312, lon.=19.632509, Alt.=1726.641602m. Speed=1.152000m/h.</desc>
<speed>0.320000</speed>
</trkpt>
<trkpt lat="42.897297" lon="19.632488">
<ele>1726.860352</ele>
<time>2012-04-30T14:36:30Z</time>
<desc>lat.=42.897297, lon.=19.632488, Alt.=1726.860352m. Speed=0.036000m/h.</desc>
<speed>0.010000</speed>
</trkpt>
<trkpt lat="42.897289" lon="19.632483">
<ele>1725.516602</ele>
<time>2012-04-30T14:36:35Z</time>
<desc>lat.=42.897289, lon.=19.632483, Alt.=1725.516602m. Speed=2.880000m/h.</desc>
<speed>0.800000</speed>
</trkpt>
<trkpt lat="42.897285" lon="19.632483">
<ele>1726.047852</ele>
<time>2012-04-30T14:36:40Z</time>
<desc>lat.=42.897285, lon.=19.632483, Alt.=1726.047852m. Speed=0.396000m/h.</desc>
<speed>0.110000</speed>
</trkpt>
<trkpt lat="42.897263" lon="19.632460">
<ele>1726.110352</ele>
<time>2012-04-30T14:36:45Z</time>
<desc>lat.=42.897263, lon.=19.632460, Alt.=1726.110352m. Speed=3.060000m/h.</desc>
<speed>0.850000</speed>
</trkpt>
<trkpt lat="42.897240" lon="19.632431">
<ele>1725.922852</ele>
<time>2012-04-30T14:36:50Z</time>
<desc>lat.=42.897240, lon.=19.632431, Alt.=1725.922852m. Speed=2.556000m/h.</desc>
<speed>0.710000</speed>
</trkpt>
<trkpt lat="42.897209" lon="19.632416">
<ele>1726.110352</ele>
<time>2012-04-30T14:36:55Z</time>
<desc>lat.=42.897209, lon.=19.632416, Alt.=1726.110352m. Speed=2.952000m/h.</desc>
<speed>0.820000</speed>
</trkpt>
<trkpt lat="42.897175" lon="19.632401">
<ele>1726.329102</ele>
<time>2012-04-30T14:37:00Z</time>
<desc>lat.=42.897175, lon.=19.632401, Alt.=1726.329102m. Speed=2.484000m/h.</desc>
<speed>0.690000</speed>
</trkpt>
<trkpt lat="42.897160" lon="19.632399">
<ele>1726.797852</ele>
<time>2012-04-30T14:37:05Z</time>
<desc>lat.=42.897160, lon.=19.632399, Alt.=1726.797852m. Speed=0.072000m/h.</desc>
<speed>0.020000</speed>
</trkpt>
<trkpt lat="42.897133" lon="19.632389">
<ele>1727.172852</ele>
<time>2012-04-30T14:37:10Z</time>
<desc>lat.=42.897133, lon.=19.632389, Alt.=1727.172852m. Speed=1.044000m/h.</desc>
<speed>0.290000</speed>
</trkpt>
<trkpt lat="42.897114" lon="19.632378">
<ele>1727.047852</ele>
<time>2012-04-30T14:37:15Z</time>
<desc>lat.=42.897114, lon.=19.632378, Alt.=1727.047852m. Speed=2.448000m/h.</desc>
<speed>0.680000</speed>
</trkpt>
<trkpt lat="42.897106" lon="19.632364">
<ele>1726.797852</ele>
<time>2012-04-30T14:37:20Z</time>
<desc>lat.=42.897106, lon.=19.632364, Alt.=1726.797852m. Speed=1.116000m/h.</desc>
<speed>0.310000</speed>
</trkpt>
<trkpt lat="42.897091" lon="19.632343">
<ele>1726.110352</ele>
<time>2012-04-30T14:37:25Z</time>
<desc>lat.=42.897091, lon.=19.632343, Alt.=1726.110352m. Speed=0.288000m/h.</desc>
<speed>0.080000</speed>
</trkpt>
<trkpt lat="42.897091" lon="19.632336">
<ele>1725.735352</ele>
<time>2012-04-30T14:37:30Z</time>
<desc>lat.=42.897091, lon.=19.632336, Alt.=1725.735352m. Speed=1.728000m/h.</desc>
<speed>0.480000</speed>
</trkpt>
<trkpt lat="42.897076" lon="19.632320">
<ele>1726.110352</ele>
<time>2012-04-30T14:37:35Z</time>
<desc>lat.=42.897076, lon.=19.632320, Alt.=1726.110352m. Speed=2.376000m/h.</desc>
<speed>0.660000</speed>
</trkpt>
<trkpt lat="42.897068" lon="19.632303">
<ele>1726.329102</ele>
<time>2012-04-30T14:37:40Z</time>
<desc>lat.=42.897068, lon.=19.632303, Alt.=1726.329102m. Speed=0.432000m/h.</desc>
<speed>0.120000</speed>
</trkpt>
<trkpt lat="42.897064" lon="19.632294">
<ele>1727.079102</ele>
<time>2012-04-30T14:37:45Z</time>
<desc>lat.=42.897064, lon.=19.632294, Alt.=1727.079102m. Speed=2.016000m/h.</desc>
<speed>0.560000</speed>
</trkpt>
<trkpt lat="42.897038" lon="19.632275">
<ele>1726.860352</ele>
<time>2012-04-30T14:37:50Z</time>
<desc>lat.=42.897038, lon.=19.632275, Alt.=1726.860352m. Speed=1.980000m/h.</desc>
<speed>0.550000</speed>
</trkpt>
<trkpt lat="42.897015" lon="19.632242">
<ele>1726.579102</ele>
<time>2012-04-30T14:37:55Z</time>
<desc>lat.=42.897015, lon.=19.632242, Alt.=1726.579102m. Speed=2.808000m/h.</desc>
<speed>0.780000</speed>
</trkpt>
<trkpt lat="42.897011" lon="19.632223">
<ele>1726.110352</ele>
<time>2012-04-30T14:38:00Z</time>
<desc>lat.=42.897011, lon.=19.632223, Alt.=1726.110352m. Speed=0.108000m/h.</desc>
<speed>0.030000</speed>
</trkpt>
<trkpt lat="42.897011" lon="19.632221">
<ele>1725.922852</ele>
<time>2012-04-30T14:38:05Z</time>
<desc>lat.=42.897011, lon.=19.632221, Alt.=1725.922852m. Speed=0.036000m/h.</desc>
<speed>0.010000</speed>
</trkpt>
<trkpt lat="42.897015" lon="19.632217">
<ele>1725.704102</ele>
<time>2012-04-30T14:38:10Z</time>
<desc>lat.=42.897015, lon.=19.632217, Alt.=1725.704102m. Speed=0.720000m/h.</desc>
<speed>0.200000</speed>
</trkpt>
<trkpt lat="42.896996" lon="19.632214">
<ele>1726.172852</ele>
<time>2012-04-30T14:38:15Z</time>
<desc>lat.=42.896996, lon.=19.632214, Alt.=1726.172852m. Speed=2.052000m/h.</desc>
<speed>0.570000</speed>
</trkpt>
<trkpt lat="42.896976" lon="19.632215">
<ele>1727.016602</ele>
<time>2012-04-30T14:38:20Z</time>
<desc>lat.=42.896976, lon.=19.632215, Alt.=1727.016602m. Speed=0.684000m/h.</desc>
<speed>0.190000</speed>
</trkpt>
<trkpt lat="42.896927" lon="19.632238">
<ele>1728.235352</ele>
<time>2012-04-30T14:38:25Z</time>
<desc>lat.=42.896927, lon.=19.632238, Alt.=1728.235352m. Speed=0.900000m/h.</desc>
<speed>0.250000</speed>
</trkpt>
<trkpt lat="42.896912" lon="19.632235">
<ele>1728.829102</ele>
<time>2012-04-30T14:38:30Z</time>
<desc>lat.=42.896912, lon.=19.632235, Alt.=1728.829102m. Speed=1.152000m/h.</desc>
<speed>0.320000</speed>
</trkpt>
<trkpt lat="42.896908" lon="19.632235">
<ele>1728.797852</ele>
<time>2012-04-30T14:38:35Z</time>
<desc>lat.=42.896908, lon.=19.632235, Alt.=1728.797852m. Speed=0.144000m/h.</desc>
<speed>0.040000</speed>
</trkpt>
<trkpt lat="42.896900" lon="19.632242">
<ele>1729.079102</ele>
<time>2012-04-30T14:38:40Z</time>
<desc>lat.=42.896900, lon.=19.632242, Alt.=1729.079102m. Speed=0.576000m/h.</desc>
<speed>0.160000</speed>
</trkpt>
<trkpt lat="42.896893" lon="19.632256">
<ele>1729.235352</ele>
<time>2012-04-30T14:38:45Z</time>
<desc>lat.=42.896893, lon.=19.632256, Alt.=1729.235352m. Speed=1.224000m/h.</desc>
<speed>0.340000</speed>
</trkpt>
<trkpt lat="42.896881" lon="19.632263">
<ele>1729.704102</ele>
<time>2012-04-30T14:38:50Z</time>
<desc>lat.=42.896881, lon.=19.632263, Alt.=1729.704102m. Speed=1.044000m/h.</desc>
<speed>0.290000</speed>
</trkpt>
<trkpt lat="42.896877" lon="19.632271">
<ele>1730.110352</ele>
<time>2012-04-30T14:38:55Z</time>
<desc>lat.=42.896877, lon.=19.632271, Alt.=1730.110352m. Speed=0.756000m/h.</desc>
<speed>0.210000</speed>
</trkpt>
<trkpt lat="42.896870" lon="19.632271">
<ele>1730.391602</ele>
<time>2012-04-30T14:39:00Z</time>
<desc>lat.=42.896870, lon.=19.632271, Alt.=1730.391602m. Speed=0.576000m/h.</desc>
<speed>0.160000</speed>
</trkpt>
<trkpt lat="42.896870" lon="19.632267">
<ele>1730.454102</ele>
<time>2012-04-30T14:39:05Z</time>
<desc>lat.=42.896870, lon.=19.632267, Alt.=1730.454102m. Speed=0.360000m/h.</desc>
<speed>0.100000</speed>
</trkpt>
<trkpt lat="42.896870" lon="19.632271">
<ele>1730.454102</ele>
<time>2012-04-30T14:39:10Z</time>
<desc>lat.=42.896870, lon.=19.632271, Alt.=1730.454102m. Speed=0.216000m/h.</desc>
<speed>0.060000</speed>
</trkpt>
<trkpt lat="42.896870" lon="19.632277">
<ele>1730.610352</ele>
<time>2012-04-30T14:39:15Z</time>
<desc>lat.=42.896870, lon.=19.632277, Alt.=1730.610352m. Speed=0.864000m/h.</desc>
<speed>0.240000</speed>
</trkpt>
<trkpt lat="42.896851" lon="19.632267">
<ele>1732.204102</ele>
<time>2012-04-30T14:39:20Z</time>
<desc>lat.=42.896851, lon.=19.632267, Alt.=1732.204102m. Speed=1.404000m/h.</desc>
<speed>0.390000</speed>
</trkpt>
<trkpt lat="42.896847" lon="19.632263">
<ele>1733.797852</ele>
<time>2012-04-30T14:39:25Z</time>
<desc>lat.=42.896847, lon.=19.632263, Alt.=1733.797852m. Speed=0.432000m/h.</desc>
<speed>0.120000</speed>
</trkpt>
<trkpt lat="42.896847" lon="19.632256">
<ele>1734.704102</ele>
<time>2012-04-30T14:39:30Z</time>
<desc>lat.=42.896847, lon.=19.632256, Alt.=1734.704102m. Speed=1.368000m/h.</desc>
<speed>0.380000</speed>
</trkpt>
<trkpt lat="42.896847" lon="19.632250">
<ele>1735.422852</ele>
<time>2012-04-30T14:39:35Z</time>
<desc>lat.=42.896847, lon.=19.632250, Alt.=1735.422852m. Speed=0.936000m/h.</desc>
<speed>0.260000</speed>
</trkpt>
<trkpt lat="42.896847" lon="19.632256">
<ele>1735.422852</ele>
<time>2012-04-30T14:39:40Z</time>
<desc>lat.=42.896847, lon.=19.632256, Alt.=1735.422852m. Speed=0.684000m/h.</desc>
<speed>0.190000</speed>
</trkpt>
<trkpt lat="42.896843" lon="19.632263">
<ele>1735.329102</ele>
<time>2012-04-30T14:39:45Z</time>
<desc>lat.=42.896843, lon.=19.632263, Alt.=1735.329102m. Speed=0.864000m/h.</desc>
<speed>0.240000</speed>
</trkpt>
<trkpt lat="42.896843" lon="19.632271">
<ele>1735.266602</ele>
<time>2012-04-30T14:39:50Z</time>
<desc>lat.=42.896843, lon.=19.632271, Alt.=1735.266602m. Speed=1.368000m/h.</desc>
<speed>0.380000</speed>
</trkpt>
<trkpt lat="42.896835" lon="19.632259">
<ele>1735.172852</ele>
<time>2012-04-30T14:39:55Z</time>
<desc>lat.=42.896835, lon.=19.632259, Alt.=1735.172852m. Speed=1.008000m/h.</desc>
<speed>0.280000</speed>
</trkpt>
<trkpt lat="42.896832" lon="19.632277">
<ele>1735.516602</ele>
<time>2012-04-30T14:40:00Z</time>
<desc>lat.=42.896832, lon.=19.632277, Alt.=1735.516602m. Speed=0.000000m/h.</desc>
<speed>0.000000</speed>
</trkpt>
<trkpt lat="42.896832" lon="19.632280">
<ele>1735.454102</ele>
<time>2012-04-30T14:40:05Z</time>
<desc>lat.=42.896832, lon.=19.632280, Alt.=1735.454102m. Speed=1.656000m/h.</desc>
<speed>0.460000</speed>
</trkpt>
<trkpt lat="42.896828" lon="19.632277">
<ele>1735.797852</ele>
<time>2012-04-30T14:40:10Z</time>
<desc>lat.=42.896828, lon.=19.632277, Alt.=1735.797852m. Speed=0.180000m/h.</desc>
<speed>0.050000</speed>
</trkpt>
<trkpt lat="42.896828" lon="19.632278">
<ele>1735.641602</ele>
<time>2012-04-30T14:40:15Z</time>
<desc>lat.=42.896828, lon.=19.632278, Alt.=1735.641602m. Speed=0.072000m/h.</desc>
<speed>0.020000</speed>
</trkpt>
<trkpt lat="42.896828" lon="19.632278">
<ele>1735.579102</ele>
<time>2012-04-30T14:40:20Z</time>
<desc>lat.=42.896828, lon.=19.632278, Alt.=1735.579102m. Speed=0.000000m/h.</desc>
<speed>0.000000</speed>
</trkpt>
<trkpt lat="42.896832" lon="19.632278">
<ele>1735.610352</ele>
<time>2012-04-30T14:40:25Z</time>
<desc>lat.=42.896832, lon.=19.632278, Alt.=1735.610352m. Speed=0.000000m/h.</desc>
<speed>0.000000</speed>
</trkpt>
<trkpt lat="42.896832" lon="19.632278">
<ele>1735.610352</ele>
<time>2012-04-30T14:40:30Z</time>
<desc>lat.=42.896832, lon.=19.632278, Alt.=1735.610352m. Speed=0.252000m/h.</desc>
<speed>0.070000</speed>
</trkpt>
<trkpt lat="42.896828" lon="19.632282">
<ele>1735.672852</ele>
<time>2012-04-30T14:40:35Z</time>
<desc>lat.=42.896828, lon.=19.632282, Alt.=1735.672852m. Speed=0.432000m/h.</desc>
<speed>0.120000</speed>
</trkpt>
<trkpt lat="42.896828" lon="19.632292">
<ele>1735.829102</ele>
<time>2012-04-30T14:40:40Z</time>
<desc>lat.=42.896828, lon.=19.632292, Alt.=1735.829102m. Speed=1.440000m/h.</desc>
<speed>0.400000</speed>
</trkpt>
<trkpt lat="42.896828" lon="19.632301">
<ele>1736.047852</ele>
<time>2012-04-30T14:40:45Z</time>
<desc>lat.=42.896828, lon.=19.632301, Alt.=1736.047852m. Speed=0.324000m/h.</desc>
<speed>0.090000</speed>
</trkpt>
<trkpt lat="42.896832" lon="19.632305">
<ele>1736.016602</ele>
<time>2012-04-30T14:40:50Z</time>
<desc>lat.=42.896832, lon.=19.632305, Alt.=1736.016602m. Speed=0.576000m/h.</desc>
<speed>0.160000</speed>
</trkpt>
<trkpt lat="42.896839" lon="19.632309">
<ele>1735.985352</ele>
<time>2012-04-30T14:40:55Z</time>
<desc>lat.=42.896839, lon.=19.632309, Alt.=1735.985352m. Speed=0.360000m/h.</desc>
<speed>0.100000</speed>
</trkpt>
<trkpt lat="42.896839" lon="19.632313">
<ele>1735.954102</ele>
<time>2012-04-30T14:41:00Z</time>
<desc>lat.=42.896839, lon.=19.632313, Alt.=1735.954102m. Speed=0.000000m/h.</desc>
<speed>0.000000</speed>
</trkpt>
<trkpt lat="42.896839" lon="19.632313">
<ele>1735.891602</ele>
<time>2012-04-30T14:41:05Z</time>
<desc>lat.=42.896839, lon.=19.632313, Alt.=1735.891602m. Speed=0.288000m/h.</desc>
<speed>0.080000</speed>
</trkpt>
<trkpt lat="42.896839" lon="19.632315">
<ele>1735.829102</ele>
<time>2012-04-30T14:41:10Z</time>
<desc>lat.=42.896839, lon.=19.632315, Alt.=1735.829102m. Speed=0.000000m/h.</desc>
<speed>0.000000</speed>
</trkpt>
<trkpt lat="42.896843" lon="19.632313">
<ele>1735.829102</ele>
<time>2012-04-30T14:41:15Z</time>
<desc>lat.=42.896843, lon.=19.632313, Alt.=1735.829102m. Speed=0.540000m/h.</desc>
<speed>0.150000</speed>
</trkpt>
<trkpt lat="42.896847" lon="19.632318">
<ele>1735.797852</ele>
<time>2012-04-30T14:41:20Z</time>
<desc>lat.=42.896847, lon.=19.632318, Alt.=1735.797852m. Speed=0.504000m/h.</desc>
<speed>0.140000</speed>
</trkpt>
<trkpt lat="42.896847" lon="19.632322">
<ele>1735.735352</ele>
<time>2012-04-30T14:41:25Z</time>
<desc>lat.=42.896847, lon.=19.632322, Alt.=1735.735352m. Speed=0.000000m/h.</desc>
<speed>0.000000</speed>
</trkpt>
<trkpt lat="42.896847" lon="19.632322">
<ele>1735.704102</ele>
<time>2012-04-30T14:41:30Z</time>
<desc>lat.=42.896847, lon.=19.632322, Alt.=1735.704102m. Speed=0.432000m/h.</desc>
<speed>0.120000</speed>
</trkpt>
<trkpt lat="42.896847" lon="19.632318">
<ele>1735.704102</ele>
<time>2012-04-30T14:41:35Z</time>
<desc>lat.=42.896847, lon.=19.632318, Alt.=1735.704102m. Speed=0.180000m/h.</desc>
<speed>0.050000</speed>
</trkpt>
<trkpt lat="42.896843" lon="19.632317">
<ele>1735.704102</ele>
<time>2012-04-30T14:41:40Z</time>
<desc>lat.=42.896843, lon.=19.632317, Alt.=1735.704102m. Speed=0.000000m/h.</desc>
<speed>0.000000</speed>
</trkpt>
<trkpt lat="42.896843" lon="19.632317">
<ele>1735.704102</ele>
<time>2012-04-30T14:41:45Z</time>
<desc>lat.=42.896843, lon.=19.632317, Alt.=1735.704102m. Speed=0.036000m/h.</desc>
<speed>0.010000</speed>
</trkpt>
<trkpt lat="42.896843" lon="19.632317">
<ele>1735.704102</ele>
<time>2012-04-30T14:41:50Z</time>
<desc>lat.=42.896843, lon.=19.632317, Alt.=1735.704102m. Speed=0.000000m/h.</desc>
<speed>0.000000</speed>
</trkpt>
<trkpt lat="42.896843" lon="19.632317">
<ele>1735.704102</ele>
<time>2012-04-30T14:41:55Z</time>
<desc>lat.=42.896843, lon.=19.632317, Alt.=1735.704102m. Speed=0.072000m/h.</desc>
<speed>0.020000</speed>
</trkpt>
<trkpt lat="42.896847" lon="19.632317">
<ele>1735.704102</ele>
<time>2012-04-30T14:42:00Z</time>
<desc>lat.=42.896847, lon.=19.632317, Alt.=1735.704102m. Speed=0.036000m/h.</desc>
<speed>0.010000</speed>
</trkpt>
<trkpt lat="42.896847" lon="19.632317">
<ele>1735.704102</ele>
<time>2012-04-30T14:42:05Z</time>
<desc>lat.=42.896847, lon.=19.632317, Alt.=1735.704102m. Speed=0.072000m/h.</desc>
<speed>0.020000</speed>
</trkpt>
<trkpt lat="42.896847" lon="19.632317">
<ele>1735.704102</ele>
<time>2012-04-30T14:42:10Z</time>
<desc>lat.=42.896847, lon.=19.632317, Alt.=1735.704102m. Speed=0.000000m/h.</desc>
<speed>0.000000</speed>
</trkpt>
<trkpt lat="42.896847" lon="19.632317">
<ele>1735.704102</ele>
<time>2012-04-30T14:42:15Z</time>
<desc>lat.=42.896847, lon.=19.632317, Alt.=1735.704102m. Speed=0.000000m/h.</desc>
<speed>0.000000</speed>
</trkpt>
<trkpt lat="42.896847" lon="19.632317">
<ele>1735.672852</ele>
<time>2012-04-30T14:42:20Z</time>
<desc>lat.=42.896847, lon.=19.632317, Alt.=1735.672852m. Speed=0.000000m/h.</desc>
<speed>0.000000</speed>
</trkpt>
<trkpt lat="42.896847" lon="19.632317">
<ele>1735.672852</ele>
<time>2012-04-30T14:42:25Z</time>
<desc>lat.=42.896847, lon.=19.632317, Alt.=1735.672852m. Speed=0.036000m/h.</desc>
<speed>0.010000</speed>
</trkpt>
<trkpt lat="42.896847" lon="19.632317">
<ele>1735.704102</ele>
<time>2012-04-30T14:42:30Z</time>
<desc>lat.=42.896847, lon.=19.632317, Alt.=1735.704102m. Speed=0.000000m/h.</desc>
<speed>0.000000</speed>
</trkpt>
<trkpt lat="42.896847" lon="19.632317">
<ele>1735.704102</ele>
<time>2012-04-30T14:42:35Z</time>
<desc>lat.=42.896847, lon.=19.632317, Alt.=1735.704102m. Speed=0.000000m/h.</desc>
<speed>0.000000</speed>
</trkpt>
<trkpt lat="42.896847" lon="19.632317">
<ele>1735.672852</ele>
<time>2012-04-30T14:42:40Z</time>
<desc>lat.=42.896847, lon.=19.632317, Alt.=1735.672852m. Speed=0.000000m/h.</desc>
<speed>0.000000</speed>
</trkpt>
<trkpt lat="42.896847" lon="19.632317">
<ele>1735.704102</ele>
<time>2012-04-30T14:42:45Z</time>
<desc>lat.=42.896847, lon.=19.632317, Alt.=1735.704102m. Speed=0.000000m/h.</desc>
<speed>0.000000</speed>
</trkpt>
<trkpt lat="42.896847" lon="19.632315">
<ele>1735.704102</ele>
<time>2012-04-30T14:42:50Z</time>
<desc>lat.=42.896847, lon.=19.632315, Alt.=1735.704102m. Speed=0.036000m/h.</desc>
<speed>0.010000</speed>
</trkpt>
<trkpt lat="42.896847" lon="19.632315">
<ele>1735.704102</ele>
<time>2012-04-30T14:42:55Z</time>
<desc>lat.=42.896847, lon.=19.632315, Alt.=1735.704102m. Speed=0.000000m/h.</desc>
<speed>0.000000</speed>
</trkpt>
<trkpt lat="42.896847" lon="19.632315">
<ele>1735.735352</ele>
<time>2012-04-30T14:43:00Z</time>
<desc>lat.=42.896847, lon.=19.632315, Alt.=1735.735352m. Speed=0.000000m/h.</desc>
<speed>0.000000</speed>
</trkpt>
<trkpt lat="42.896847" lon="19.632315">
<ele>1735.735352</ele>
<time>2012-04-30T14:43:05Z</time>
<desc>lat.=42.896847, lon.=19.632315, Alt.=1735.735352m. Speed=0.000000m/h.</desc>
<speed>0.000000</speed>
</trkpt>
<trkpt lat="42.896847" lon="19.632315">
<ele>1735.735352</ele>
<time>2012-04-30T14:43:10Z</time>
<desc>lat.=42.896847, lon.=19.632315, Alt.=1735.735352m. Speed=0.000000m/h.</desc>
<speed>0.000000</speed>
</trkpt>
<trkpt lat="42.896847" lon="19.632315">
<ele>1735.735352</ele>
<time>2012-04-30T14:43:15Z</time>
<desc>lat.=42.896847, lon.=19.632315, Alt.=1735.735352m. Speed=0.036000m/h.</desc>
<speed>0.010000</speed>
</trkpt>
<trkpt lat="42.896847" lon="19.632315">
<ele>1735.735352</ele>
<time>2012-04-30T14:43:20Z</time>
<desc>lat.=42.896847, lon.=19.632315, Alt.=1735.735352m. Speed=0.000000m/h.</desc>
<speed>0.000000</speed>
</trkpt>
<trkpt lat="42.896847" lon="19.632315">
<ele>1735.735352</ele>
<time>2012-04-30T14:43:25Z</time>
<desc>lat.=42.896847, lon.=19.632315, Alt.=1735.735352m. Speed=0.000000m/h.</desc>
<speed>0.000000</speed>
</trkpt>
<trkpt lat="42.896847" lon="19.632315">
<ele>1735.704102</ele>
<time>2012-04-30T14:43:30Z</time>
<desc>lat.=42.896847, lon.=19.632315, Alt.=1735.704102m. Speed=0.036000m/h.</desc>
<speed>0.010000</speed>
</trkpt>
<trkpt lat="42.896847" lon="19.632313">
<ele>1735.735352</ele>
<time>2012-04-30T14:43:35Z</time>
<desc>lat.=42.896847, lon.=19.632313, Alt.=1735.735352m. Speed=0.036000m/h.</desc>
<speed>0.010000</speed>
</trkpt>
<trkpt lat="42.896847" lon="19.632315">
<ele>1735.704102</ele>
<time>2012-04-30T14:43:40Z</time>
<desc>lat.=42.896847, lon.=19.632315, Alt.=1735.704102m. Speed=0.072000m/h.</desc>
<speed>0.020000</speed>
</trkpt>
<trkpt lat="42.896847" lon="19.632318">
<ele>1735.704102</ele>
<time>2012-04-30T14:43:45Z</time>
<desc>lat.=42.896847, lon.=19.632318, Alt.=1735.704102m. Speed=1.152000m/h.</desc>
<speed>0.320000</speed>
</trkpt>
<trkpt lat="42.896847" lon="19.632322">
<ele>1736.610352</ele>
<time>2012-04-30T14:43:50Z</time>
<desc>lat.=42.896847, lon.=19.632322, Alt.=1736.610352m. Speed=0.612000m/h.</desc>
<speed>0.170000</speed>
</trkpt>
<trkpt lat="42.896847" lon="19.632334">
<ele>1736.610352</ele>
<time>2012-04-30T14:43:55Z</time>
<desc>lat.=42.896847, lon.=19.632334, Alt.=1736.610352m. Speed=0.504000m/h.</desc>
<speed>0.140000</speed>
</trkpt>
<trkpt lat="42.896847" lon="19.632332">
<ele>1736.766602</ele>
<time>2012-04-30T14:44:00Z</time>
<desc>lat.=42.896847, lon.=19.632332, Alt.=1736.766602m. Speed=0.612000m/h.</desc>
<speed>0.170000</speed>
</trkpt>
<trkpt lat="42.896851" lon="19.632364">
<ele>1737.204102</ele>
<time>2012-04-30T14:44:05Z</time>
<desc>lat.=42.896851, lon.=19.632364, Alt.=1737.204102m. Speed=2.988000m/h.</desc>
<speed>0.830000</speed>
</trkpt>
<trkpt lat="42.896847" lon="19.632401">
<ele>1738.672852</ele>
<time>2012-04-30T14:44:10Z</time>
<desc>lat.=42.896847, lon.=19.632401, Alt.=1738.672852m. Speed=2.268000m/h.</desc>
<speed>0.630000</speed>
</trkpt>
<trkpt lat="42.896843" lon="19.632437">
<ele>1740.454102</ele>
<time>2012-04-30T14:44:15Z</time>
<desc>lat.=42.896843, lon.=19.632437, Alt.=1740.454102m. Speed=2.088000m/h.</desc>
<speed>0.580000</speed>
</trkpt>
<trkpt lat="42.896847" lon="19.632477">
<ele>1742.079102</ele>
<time>2012-04-30T14:44:20Z</time>
<desc>lat.=42.896847, lon.=19.632477, Alt.=1742.079102m. Speed=1.476000m/h.</desc>
<speed>0.410000</speed>
</trkpt>
<trkpt lat="42.896851" lon="19.632521">
<ele>1743.672852</ele>
<time>2012-04-30T14:44:25Z</time>
<desc>lat.=42.896851, lon.=19.632521, Alt.=1743.672852m. Speed=3.096000m/h.</desc>
<speed>0.860000</speed>
</trkpt>
<trkpt lat="42.896858" lon="19.632557">
<ele>1745.516602</ele>
<time>2012-04-30T14:44:30Z</time>
<desc>lat.=42.896858, lon.=19.632557, Alt.=1745.516602m. Speed=1.440000m/h.</desc>
<speed>0.400000</speed>
</trkpt>
<trkpt lat="42.896873" lon="19.632610">
<ele>1747.360352</ele>
<time>2012-04-30T14:44:35Z</time>
<desc>lat.=42.896873, lon.=19.632610, Alt.=1747.360352m. Speed=2.340000m/h.</desc>
<speed>0.650000</speed>
</trkpt>
<trkpt lat="42.896900" lon="19.632648">
<ele>1747.172852</ele>
<time>2012-04-30T14:44:40Z</time>
<desc>lat.=42.896900, lon.=19.632648, Alt.=1747.172852m. Speed=1.872000m/h.</desc>
<speed>0.520000</speed>
</trkpt>
<trkpt lat="42.896927" lon="19.632679">
<ele>1748.204102</ele>
<time>2012-04-30T14:44:45Z</time>
<desc>lat.=42.896927, lon.=19.632679, Alt.=1748.204102m. Speed=2.808000m/h.</desc>
<speed>0.780000</speed>
</trkpt>
<trkpt lat="42.896957" lon="19.632711">
<ele>1748.672852</ele>
<time>2012-04-30T14:44:50Z</time>
<desc>lat.=42.896957, lon.=19.632711, Alt.=1748.672852m. Speed=2.520000m/h.</desc>
<speed>0.700000</speed>
</trkpt>
<trkpt lat="42.896961" lon="19.632750">
<ele>1750.329102</ele>
<time>2012-04-30T14:44:55Z</time>
<desc>lat.=42.896961, lon.=19.632750, Alt.=1750.329102m. Speed=2.160000m/h.</desc>
<speed>0.600000</speed>
</trkpt>
<trkpt lat="42.896961" lon="19.632797">
<ele>1750.579102</ele>
<time>2012-04-30T14:45:00Z</time>
<desc>lat.=42.896961, lon.=19.632797, Alt.=1750.579102m. Speed=2.088000m/h.</desc>
<speed>0.580000</speed>
</trkpt>
<trkpt lat="42.896969" lon="19.632833">
<ele>1751.422852</ele>
<time>2012-04-30T14:45:05Z</time>
<desc>lat.=42.896969, lon.=19.632833, Alt.=1751.422852m. Speed=0.756000m/h.</desc>
<speed>0.210000</speed>
</trkpt>
<trkpt lat="42.896965" lon="19.632832">
<ele>1751.766602</ele>
<time>2012-04-30T14:45:10Z</time>
<desc>lat.=42.896965, lon.=19.632832, Alt.=1751.766602m. Speed=2.088000m/h.</desc>
<speed>0.580000</speed>
</trkpt>
<trkpt lat="42.896980" lon="19.632900">
<ele>1752.297852</ele>
<time>2012-04-30T14:45:15Z</time>
<desc>lat.=42.896980, lon.=19.632900, Alt.=1752.297852m. Speed=2.844000m/h.</desc>
<speed>0.790000</speed>
</trkpt>
<trkpt lat="42.896984" lon="19.632957">
<ele>1753.766602</ele>
<time>2012-04-30T14:45:20Z</time>
<desc>lat.=42.896984, lon.=19.632957, Alt.=1753.766602m. Speed=2.808000m/h.</desc>
<speed>0.780000</speed>
</trkpt>
<trkpt lat="42.896980" lon="19.632994">
<ele>1755.204102</ele>
<time>2012-04-30T14:45:25Z</time>
<desc>lat.=42.896980, lon.=19.632994, Alt.=1755.204102m. Speed=2.196000m/h.</desc>
<speed>0.610000</speed>
</trkpt>
<trkpt lat="42.896988" lon="19.633038">
<ele>1757.016602</ele>
<time>2012-04-30T14:45:30Z</time>
<desc>lat.=42.896988, lon.=19.633038, Alt.=1757.016602m. Speed=2.412000m/h.</desc>
<speed>0.670000</speed>
</trkpt>
<trkpt lat="42.897003" lon="19.633072">
<ele>1757.485352</ele>
<time>2012-04-30T14:45:35Z</time>
<desc>lat.=42.897003, lon.=19.633072, Alt.=1757.485352m. Speed=2.772000m/h.</desc>
<speed>0.770000</speed>
</trkpt>
<trkpt lat="42.897003" lon="19.633093">
<ele>1758.422852</ele>
<time>2012-04-30T14:45:40Z</time>
<desc>lat.=42.897003, lon.=19.633093, Alt.=1758.422852m. Speed=1.008000m/h.</desc>
<speed>0.280000</speed>
</trkpt>
<trkpt lat="42.897003" lon="19.633104">
<ele>1758.735352</ele>
<time>2012-04-30T14:45:45Z</time>
<desc>lat.=42.897003, lon.=19.633104, Alt.=1758.735352m. Speed=0.180000m/h.</desc>
<speed>0.050000</speed>
</trkpt>
<trkpt lat="42.896984" lon="19.633148">
<ele>1757.985352</ele>
<time>2012-04-30T14:45:50Z</time>
<desc>lat.=42.896984, lon.=19.633148, Alt.=1757.985352m. Speed=2.664000m/h.</desc>
<speed>0.740000</speed>
</trkpt>
<trkpt lat="42.896976" lon="19.633188">
<ele>1758.454102</ele>
<time>2012-04-30T14:45:55Z</time>
<desc>lat.=42.896976, lon.=19.633188, Alt.=1758.454102m. Speed=2.124000m/h.</desc>
<speed>0.590000</speed>
</trkpt>
<trkpt lat="42.896984" lon="19.633226">
<ele>1759.047852</ele>
<time>2012-04-30T14:46:00Z</time>
<desc>lat.=42.896984, lon.=19.633226, Alt.=1759.047852m. Speed=2.664000m/h.</desc>
<speed>0.740000</speed>
</trkpt>
<trkpt lat="42.896999" lon="19.633274">
<ele>1760.204102</ele>
<time>2012-04-30T14:46:05Z</time>
<desc>lat.=42.896999, lon.=19.633274, Alt.=1760.204102m. Speed=2.484000m/h.</desc>
<speed>0.690000</speed>
</trkpt>
<trkpt lat="42.896996" lon="19.633324">
<ele>1760.454102</ele>
<time>2012-04-30T14:46:10Z</time>
<desc>lat.=42.896996, lon.=19.633324, Alt.=1760.454102m. Speed=2.304000m/h.</desc>
<speed>0.640000</speed>
</trkpt>
<trkpt lat="42.896976" lon="19.633383">
<ele>1760.391602</ele>
<time>2012-04-30T14:46:15Z</time>
<desc>lat.=42.896976, lon.=19.633383, Alt.=1760.391602m. Speed=2.016000m/h.</desc>
<speed>0.560000</speed>
</trkpt>
<trkpt lat="42.896984" lon="19.633442">
<ele>1761.204102</ele>
<time>2012-04-30T14:46:20Z</time>
<desc>lat.=42.896984, lon.=19.633442, Alt.=1761.204102m. Speed=3.420000m/h.</desc>
<speed>0.950000</speed>
</trkpt>
<trkpt lat="42.897003" lon="19.633478">
<ele>1762.110352</ele>
<time>2012-04-30T14:46:25Z</time>
<desc>lat.=42.897003, lon.=19.633478, Alt.=1762.110352m. Speed=3.708000m/h.</desc>
<speed>1.030000</speed>
</trkpt>
<trkpt lat="42.897026" lon="19.633528">
<ele>1761.954102</ele>
<time>2012-04-30T14:46:30Z</time>
<desc>lat.=42.897026, lon.=19.633528, Alt.=1761.954102m. Speed=3.240000m/h.</desc>
<speed>0.900000</speed>
</trkpt>
<trkpt lat="42.897053" lon="19.633575">
<ele>1759.266602</ele>
<time>2012-04-30T14:46:35Z</time>
<desc>lat.=42.897053, lon.=19.633575, Alt.=1759.266602m. Speed=2.772000m/h.</desc>
<speed>0.770000</speed>
</trkpt>
<trkpt lat="42.897064" lon="19.633636">
<ele>1759.360352</ele>
<time>2012-04-30T14:46:40Z</time>
<desc>lat.=42.897064, lon.=19.633636, Alt.=1759.360352m. Speed=4.104000m/h.</desc>
<speed>1.140000</speed>
</trkpt>
<trkpt lat="42.897076" lon="19.633696">
<ele>1759.829102</ele>
<time>2012-04-30T14:46:45Z</time>
<desc>lat.=42.897076, lon.=19.633696, Alt.=1759.829102m. Speed=2.880000m/h.</desc>
<speed>0.800000</speed>
</trkpt>
<trkpt lat="42.897079" lon="19.633745">
<ele>1761.047852</ele>
<time>2012-04-30T14:46:50Z</time>
<desc>lat.=42.897079, lon.=19.633745, Alt.=1761.047852m. Speed=2.520000m/h.</desc>
<speed>0.700000</speed>
</trkpt>
<trkpt lat="42.897079" lon="19.633766">
<ele>1761.860352</ele>
<time>2012-04-30T14:46:55Z</time>
<desc>lat.=42.897079, lon.=19.633766, Alt.=1761.860352m. Speed=0.252000m/h.</desc>
<speed>0.070000</speed>
</trkpt>
<trkpt lat="42.897076" lon="19.633802">
<ele>1761.672852</ele>
<time>2012-04-30T14:47:00Z</time>
<desc>lat.=42.897076, lon.=19.633802, Alt.=1761.672852m. Speed=3.060000m/h.</desc>
<speed>0.850000</speed>
</trkpt>
<trkpt lat="42.897072" lon="19.633854">
<ele>1761.797852</ele>
<time>2012-04-30T14:47:05Z</time>
<desc>lat.=42.897072, lon.=19.633854, Alt.=1761.797852m. Speed=2.988000m/h.</desc>
<speed>0.830000</speed>
</trkpt>
<trkpt lat="42.897060" lon="19.633892">
<ele>1760.954102</ele>
<time>2012-04-30T14:47:10Z</time>
<desc>lat.=42.897060, lon.=19.633892, Alt.=1760.954102m. Speed=0.288000m/h.</desc>
<speed>0.080000</speed>
</trkpt>
<trkpt lat="42.897053" lon="19.633944">
<ele>1761.047852</ele>
<time>2012-04-30T14:47:15Z</time>
<desc>lat.=42.897053, lon.=19.633944, Alt.=1761.047852m. Speed=3.672000m/h.</desc>
<speed>1.020000</speed>
</trkpt>
<trkpt lat="42.897041" lon="19.633995">
<ele>1761.610352</ele>
<time>2012-04-30T14:47:20Z</time>
<desc>lat.=42.897041, lon.=19.633995, Alt.=1761.610352m. Speed=3.276000m/h.</desc>
<speed>0.910000</speed>
</trkpt>
<trkpt lat="42.897018" lon="19.634048">
<ele>1761.141602</ele>
<time>2012-04-30T14:47:25Z</time>
<desc>lat.=42.897018, lon.=19.634048, Alt.=1761.141602m. Speed=2.880000m/h.</desc>
<speed>0.800000</speed>
</trkpt>
<trkpt lat="42.897015" lon="19.634104">
<ele>1761.079102</ele>
<time>2012-04-30T14:47:30Z</time>
<desc>lat.=42.897015, lon.=19.634104, Alt.=1761.079102m. Speed=3.132000m/h.</desc>
<speed>0.870000</speed>
</trkpt>
<trkpt lat="42.896992" lon="19.634136">
<ele>1760.672852</ele>
<time>2012-04-30T14:47:35Z</time>
<desc>lat.=42.896992, lon.=19.634136, Alt.=1760.672852m. Speed=3.240000m/h.</desc>
<speed>0.900000</speed>
</trkpt>
<trkpt lat="42.896992" lon="19.634163">
<ele>1760.391602</ele>
<time>2012-04-30T14:47:40Z</time>
<desc>lat.=42.896992, lon.=19.634163, Alt.=1760.391602m. Speed=2.916000m/h.</desc>
<speed>0.810000</speed>
</trkpt>
<trkpt lat="42.896984" lon="19.634222">
<ele>1760.204102</ele>
<time>2012-04-30T14:47:45Z</time>
<desc>lat.=42.896984, lon.=19.634222, Alt.=1760.204102m. Speed=3.096000m/h.</desc>
<speed>0.860000</speed>
</trkpt>
<trkpt lat="42.896976" lon="19.634260">
<ele>1760.079102</ele>
<time>2012-04-30T14:47:50Z</time>
<desc>lat.=42.896976, lon.=19.634260, Alt.=1760.079102m. Speed=3.384000m/h.</desc>
<speed>0.940000</speed>
</trkpt>
<trkpt lat="42.896957" lon="19.634300">
<ele>1760.829102</ele>
<time>2012-04-30T14:47:55Z</time>
<desc>lat.=42.896957, lon.=19.634300, Alt.=1760.829102m. Speed=3.348000m/h.</desc>
<speed>0.930000</speed>
</trkpt>
<trkpt lat="42.896946" lon="19.634344">
<ele>1761.016602</ele>
<time>2012-04-30T14:48:00Z</time>
<desc>lat.=42.896946, lon.=19.634344, Alt.=1761.016602m. Speed=2.556000m/h.</desc>
<speed>0.710000</speed>
</trkpt>
<trkpt lat="42.896950" lon="19.634373">
<ele>1760.235352</ele>
<time>2012-04-30T14:48:05Z</time>
<desc>lat.=42.896950, lon.=19.634373, Alt.=1760.235352m. Speed=0.108000m/h.</desc>
<speed>0.030000</speed>
</trkpt>
<trkpt lat="42.896950" lon="19.634369">
<ele>1760.297852</ele>
<time>2012-04-30T14:48:10Z</time>
<desc>lat.=42.896950, lon.=19.634369, Alt.=1760.297852m. Speed=0.072000m/h.</desc>
<speed>0.020000</speed>
</trkpt>
<trkpt lat="42.896950" lon="19.634367">
<ele>1760.391602</ele>
<time>2012-04-30T14:48:15Z</time>
<desc>lat.=42.896950, lon.=19.634367, Alt.=1760.391602m. Speed=0.144000m/h.</desc>
<speed>0.040000</speed>
</trkpt>
<trkpt lat="42.896950" lon="19.634367">
<ele>1760.422852</ele>
<time>2012-04-30T14:48:20Z</time>
<desc>lat.=42.896950, lon.=19.634367, Alt.=1760.422852m. Speed=0.036000m/h.</desc>
<speed>0.010000</speed>
</trkpt>
<trkpt lat="42.896950" lon="19.634367">
<ele>1760.391602</ele>
<time>2012-04-30T14:48:25Z</time>
<desc>lat.=42.896950, lon.=19.634367, Alt.=1760.391602m. Speed=0.000000m/h.</desc>
<speed>0.000000</speed>
</trkpt>
<trkpt lat="42.896950" lon="19.634367">
<ele>1760.360352</ele>
<time>2012-04-30T14:48:30Z</time>
<desc>lat.=42.896950, lon.=19.634367, Alt.=1760.360352m. Speed=0.000000m/h.</desc>
<speed>0.000000</speed>
</trkpt>
<trkpt lat="42.896950" lon="19.634367">
<ele>1760.360352</ele>
<time>2012-04-30T14:48:35Z</time>
<desc>lat.=42.896950, lon.=19.634367, Alt.=1760.360352m. Speed=0.000000m/h.</desc>
<speed>0.000000</speed>
</trkpt>
<trkpt lat="42.896950" lon="19.634367">
<ele>1760.329102</ele>
<time>2012-04-30T14:48:40Z</time>
<desc>lat.=42.896950, lon.=19.634367, Alt.=1760.329102m. Speed=0.000000m/h.</desc>
<speed>0.000000</speed>
</trkpt>
<trkpt lat="42.896950" lon="19.634367">
<ele>1760.329102</ele>
<time>2012-04-30T14:48:45Z</time>
<desc>lat.=42.896950, lon.=19.634367, Alt.=1760.329102m. Speed=0.036000m/h.</desc>
<speed>0.010000</speed>
</trkpt>
<trkpt lat="42.896950" lon="19.634367">
<ele>1760.329102</ele>
<time>2012-04-30T14:48:50Z</time>
<desc>lat.=42.896950, lon.=19.634367, Alt.=1760.329102m. Speed=0.000000m/h.</desc>
<speed>0.000000</speed>
</trkpt>
<trkpt lat="42.896946" lon="19.634378">
<ele>1760.485352</ele>
<time>2012-04-30T14:48:55Z</time>
<desc>lat.=42.896946, lon.=19.634378, Alt.=1760.485352m. Speed=2.952000m/h.</desc>
<speed>0.820000</speed>
</trkpt>
<trkpt lat="42.896938" lon="19.634428">
<ele>1761.016602</ele>
<time>2012-04-30T14:49:00Z</time>
<desc>lat.=42.896938, lon.=19.634428, Alt.=1761.016602m. Speed=2.268000m/h.</desc>
<speed>0.630000</speed>
</trkpt>
<trkpt lat="42.896931" lon="19.634481">
<ele>1762.079102</ele>
<time>2012-04-30T14:49:05Z</time>
<desc>lat.=42.896931, lon.=19.634481, Alt.=1762.079102m. Speed=2.052000m/h.</desc>
<speed>0.570000</speed>
</trkpt>
<trkpt lat="42.896923" lon="19.634506">
<ele>1761.704102</ele>
<time>2012-04-30T14:49:10Z</time>
<desc>lat.=42.896923, lon.=19.634506, Alt.=1761.704102m. Speed=3.528000m/h.</desc>
<speed>0.980000</speed>
</trkpt>
<trkpt lat="42.896915" lon="19.634548">
<ele>1761.922852</ele>
<time>2012-04-30T14:49:15Z</time>
<desc>lat.=42.896915, lon.=19.634548, Alt.=1761.922852m. Speed=2.484000m/h.</desc>
<speed>0.690000</speed>
</trkpt>
<trkpt lat="42.896893" lon="19.634596">
<ele>1762.391602</ele>
<time>2012-04-30T14:49:20Z</time>
<desc>lat.=42.896893, lon.=19.634596, Alt.=1762.391602m. Speed=3.276000m/h.</desc>
<speed>0.910000</speed>
</trkpt>
<trkpt lat="42.896873" lon="19.634642">
<ele>1763.172852</ele>
<time>2012-04-30T14:49:25Z</time>
<desc>lat.=42.896873, lon.=19.634642, Alt.=1763.172852m. Speed=2.592000m/h.</desc>
<speed>0.720000</speed>
</trkpt>
<trkpt lat="42.896862" lon="19.634659">
<ele>1763.891602</ele>
<time>2012-04-30T14:49:30Z</time>
<desc>lat.=42.896862, lon.=19.634659, Alt.=1763.891602m. Speed=0.252000m/h.</desc>
<speed>0.070000</speed>
</trkpt>
<trkpt lat="42.896854" lon="19.634693">
<ele>1763.860352</ele>
<time>2012-04-30T14:49:35Z</time>
<desc>lat.=42.896854, lon.=19.634693, Alt.=1763.860352m. Speed=2.736000m/h.</desc>
<speed>0.760000</speed>
</trkpt>
<trkpt lat="42.896835" lon="19.634729">
<ele>1764.360352</ele>
<time>2012-04-30T14:49:40Z</time>
<desc>lat.=42.896835, lon.=19.634729, Alt.=1764.360352m. Speed=3.168000m/h.</desc>
<speed>0.880000</speed>
</trkpt>
<trkpt lat="42.896816" lon="19.634787">
<ele>1764.704102</ele>
<time>2012-04-30T14:49:45Z</time>
<desc>lat.=42.896816, lon.=19.634787, Alt.=1764.704102m. Speed=3.168000m/h.</desc>
<speed>0.880000</speed>
</trkpt>
<trkpt lat="42.896797" lon="19.634827">
<ele>1764.766602</ele>
<time>2012-04-30T14:49:50Z</time>
<desc>lat.=42.896797, lon.=19.634827, Alt.=1764.766602m. Speed=0.252000m/h.</desc>
<speed>0.070000</speed>
</trkpt>
<trkpt lat="42.896786" lon="19.634867">
<ele>1763.891602</ele>
<time>2012-04-30T14:49:55Z</time>
<desc>lat.=42.896786, lon.=19.634867, Alt.=1763.891602m. Speed=2.700000m/h.</desc>
<speed>0.750000</speed>
</trkpt>
<trkpt lat="42.896770" lon="19.634907">
<ele>1763.797852</ele>
<time>2012-04-30T14:50:00Z</time>
<desc>lat.=42.896770, lon.=19.634907, Alt.=1763.797852m. Speed=0.648000m/h.</desc>
<speed>0.180000</speed>
</trkpt>
<trkpt lat="42.896767" lon="19.634899">
<ele>1764.047852</ele>
<time>2012-04-30T14:50:05Z</time>
<desc>lat.=42.896767, lon.=19.634899, Alt.=1764.047852m. Speed=1.944000m/h.</desc>
<speed>0.540000</speed>
</trkpt>
<trkpt lat="42.896744" lon="19.634937">
<ele>1764.266602</ele>
<time>2012-04-30T14:50:10Z</time>
<desc>lat.=42.896744, lon.=19.634937, Alt.=1764.266602m. Speed=2.808000m/h.</desc>
<speed>0.780000</speed>
</trkpt>
<trkpt lat="42.896736" lon="19.634987">
<ele>1764.235352</ele>
<time>2012-04-30T14:50:15Z</time>
<desc>lat.=42.896736, lon.=19.634987, Alt.=1764.235352m. Speed=2.844000m/h.</desc>
<speed>0.790000</speed>
</trkpt>
<trkpt lat="42.896725" lon="19.635033">
<ele>1764.547852</ele>
<time>2012-04-30T14:50:20Z</time>
<desc>lat.=42.896725, lon.=19.635033, Alt.=1764.547852m. Speed=2.520000m/h.</desc>
<speed>0.700000</speed>
</trkpt>
<trkpt lat="42.896706" lon="19.635075">
<ele>1764.797852</ele>
<time>2012-04-30T14:50:25Z</time>
<desc>lat.=42.896706, lon.=19.635075, Alt.=1764.797852m. Speed=3.276000m/h.</desc>
<speed>0.910000</speed>
</trkpt>
<trkpt lat="42.896683" lon="19.635111">
<ele>1764.516602</ele>
<time>2012-04-30T14:50:30Z</time>
<desc>lat.=42.896683, lon.=19.635111, Alt.=1764.516602m. Speed=0.828000m/h.</desc>
<speed>0.230000</speed>
</trkpt>
<trkpt lat="42.896687" lon="19.635103">
<ele>1764.329102</ele>
<time>2012-04-30T14:50:35Z</time>
<desc>lat.=42.896687, lon.=19.635103, Alt.=1764.329102m. Speed=0.036000m/h.</desc>
<speed>0.010000</speed>
</trkpt>
<trkpt lat="42.896671" lon="19.635136">
<ele>1764.485352</ele>
<time>2012-04-30T14:50:40Z</time>
<desc>lat.=42.896671, lon.=19.635136, Alt.=1764.485352m. Speed=2.772000m/h.</desc>
<speed>0.770000</speed>
</trkpt>
<trkpt lat="42.896660" lon="19.635189">
<ele>1764.797852</ele>
<time>2012-04-30T14:50:45Z</time>
<desc>lat.=42.896660, lon.=19.635189, Alt.=1764.797852m. Speed=3.060000m/h.</desc>
<speed>0.850000</speed>
</trkpt>
<trkpt lat="42.896645" lon="19.635248">
<ele>1764.891602</ele>
<time>2012-04-30T14:50:50Z</time>
<desc>lat.=42.896645, lon.=19.635248, Alt.=1764.891602m. Speed=3.960000m/h.</desc>
<speed>1.100000</speed>
</trkpt>
<trkpt lat="42.896629" lon="19.635303">
<ele>1765.235352</ele>
<time>2012-04-30T14:50:55Z</time>
<desc>lat.=42.896629, lon.=19.635303, Alt.=1765.235352m. Speed=3.456000m/h.</desc>
<speed>0.960000</speed>
</trkpt>
<trkpt lat="42.896614" lon="19.635345">
<ele>1765.360352</ele>
<time>2012-04-30T14:51:00Z</time>
<desc>lat.=42.896614, lon.=19.635345, Alt.=1765.360352m. Speed=2.916000m/h.</desc>
<speed>0.810000</speed>
</trkpt>
<trkpt lat="42.896595" lon="19.635372">
<ele>1765.516602</ele>
<time>2012-04-30T14:51:05Z</time>
<desc>lat.=42.896595, lon.=19.635372, Alt.=1765.516602m. Speed=0.180000m/h.</desc>
<speed>0.050000</speed>
</trkpt>
<trkpt lat="42.896576" lon="19.635406">
<ele>1765.610352</ele>
<time>2012-04-30T14:51:10Z</time>
<desc>lat.=42.896576, lon.=19.635406, Alt.=1765.610352m. Speed=2.988000m/h.</desc>
<speed>0.830000</speed>
</trkpt>
<trkpt lat="42.896564" lon="19.635460">
<ele>1766.141602</ele>
<time>2012-04-30T14:51:15Z</time>
<desc>lat.=42.896564, lon.=19.635460, Alt.=1766.141602m. Speed=2.880000m/h.</desc>
<speed>0.800000</speed>
</trkpt>
<trkpt lat="42.896557" lon="19.635525">
<ele>1766.204102</ele>
<time>2012-04-30T14:51:20Z</time>
<desc>lat.=42.896557, lon.=19.635525, Alt.=1766.204102m. Speed=3.420000m/h.</desc>
<speed>0.950000</speed>
</trkpt>
<trkpt lat="42.896545" lon="19.635588">
<ele>1766.079102</ele>
<time>2012-04-30T14:51:25Z</time>
<desc>lat.=42.896545, lon.=19.635588, Alt.=1766.079102m. Speed=3.348000m/h.</desc>
<speed>0.930000</speed>
</trkpt>
<trkpt lat="42.896523" lon="19.635637">
<ele>1766.485352</ele>
<time>2012-04-30T14:51:30Z</time>
<desc>lat.=42.896523, lon.=19.635637, Alt.=1766.485352m. Speed=3.564000m/h.</desc>
<speed>0.990000</speed>
</trkpt>
<trkpt lat="42.896507" lon="19.635687">
<ele>1767.172852</ele>
<time>2012-04-30T14:51:35Z</time>
<desc>lat.=42.896507, lon.=19.635687, Alt.=1767.172852m. Speed=3.168000m/h.</desc>
<speed>0.880000</speed>
</trkpt>
<trkpt lat="42.896492" lon="19.635738">
<ele>1767.360352</ele>
<time>2012-04-30T14:51:40Z</time>
<desc>lat.=42.896492, lon.=19.635738, Alt.=1767.360352m. Speed=1.620000m/h.</desc>
<speed>0.450000</speed>
</trkpt>
<trkpt lat="42.896488" lon="19.635738">
<ele>1767.579102</ele>
<time>2012-04-30T14:51:45Z</time>
<desc>lat.=42.896488, lon.=19.635738, Alt.=1767.579102m. Speed=2.124000m/h.</desc>
<speed>0.590000</speed>
</trkpt>
<trkpt lat="42.896481" lon="19.635780">
<ele>1767.829102</ele>
<time>2012-04-30T14:51:50Z</time>
<desc>lat.=42.896481, lon.=19.635780, Alt.=1767.829102m. Speed=2.268000m/h.</desc>
<speed>0.630000</speed>
</trkpt>
<trkpt lat="42.896481" lon="19.635841">
<ele>1768.047852</ele>
<time>2012-04-30T14:51:55Z</time>
<desc>lat.=42.896481, lon.=19.635841, Alt.=1768.047852m. Speed=2.448000m/h.</desc>
<speed>0.680000</speed>
</trkpt>
<trkpt lat="42.896469" lon="19.635849">
<ele>1768.829102</ele>
<time>2012-04-30T14:52:00Z</time>
<desc>lat.=42.896469, lon.=19.635849, Alt.=1768.829102m. Speed=0.180000m/h.</desc>
<speed>0.050000</speed>
</trkpt>
<trkpt lat="42.896465" lon="19.635849">
<ele>1769.079102</ele>
<time>2012-04-30T14:52:05Z</time>
<desc>lat.=42.896465, lon.=19.635849, Alt.=1769.079102m. Speed=0.108000m/h.</desc>
<speed>0.030000</speed>
</trkpt>
<trkpt lat="42.896465" lon="19.635859">
<ele>1769.172852</ele>
<time>2012-04-30T14:52:10Z</time>
<desc>lat.=42.896465, lon.=19.635859, Alt.=1769.172852m. Speed=2.808000m/h.</desc>
<speed>0.780000</speed>
</trkpt>
<trkpt lat="42.896465" lon="19.635912">
<ele>1769.610352</ele>
<time>2012-04-30T14:52:15Z</time>
<desc>lat.=42.896465, lon.=19.635912, Alt.=1769.610352m. Speed=2.880000m/h.</desc>
<speed>0.800000</speed>
</trkpt>
<trkpt lat="42.896458" lon="19.635963">
<ele>1770.235352</ele>
<time>2012-04-30T14:52:20Z</time>
<desc>lat.=42.896458, lon.=19.635963, Alt.=1770.235352m. Speed=3.240000m/h.</desc>
<speed>0.900000</speed>
</trkpt>
<trkpt lat="42.896461" lon="19.636021">
<ele>1771.141602</ele>
<time>2012-04-30T14:52:25Z</time>
<desc>lat.=42.896461, lon.=19.636021, Alt.=1771.141602m. Speed=2.448000m/h.</desc>
<speed>0.680000</speed>
</trkpt>
<trkpt lat="42.896446" lon="19.636068">
<ele>1771.610352</ele>
<time>2012-04-30T14:52:30Z</time>
<desc>lat.=42.896446, lon.=19.636068, Alt.=1771.610352m. Speed=2.556000m/h.</desc>
<speed>0.710000</speed>
</trkpt>
<trkpt lat="42.896420" lon="19.636086">
<ele>1770.297852</ele>
<time>2012-04-30T14:52:35Z</time>
<desc>lat.=42.896420, lon.=19.636086, Alt.=1770.297852m. Speed=0.396000m/h.</desc>
<speed>0.110000</speed>
</trkpt>
<trkpt lat="42.896420" lon="19.636078">
<ele>1770.641602</ele>
<time>2012-04-30T14:52:40Z</time>
<desc>lat.=42.896420, lon.=19.636078, Alt.=1770.641602m. Speed=0.288000m/h.</desc>
<speed>0.080000</speed>
</trkpt>
<trkpt lat="42.896420" lon="19.636076">
<ele>1770.829102</ele>
<time>2012-04-30T14:52:45Z</time>
<desc>lat.=42.896420, lon.=19.636076, Alt.=1770.829102m. Speed=0.072000m/h.</desc>
<speed>0.020000</speed>
</trkpt>
<trkpt lat="42.896416" lon="19.636076">
<ele>1770.954102</ele>
<time>2012-04-30T14:52:50Z</time>
<desc>lat.=42.896416, lon.=19.636076, Alt.=1770.954102m. Speed=0.180000m/h.</desc>
<speed>0.050000</speed>
</trkpt>
<trkpt lat="42.896416" lon="19.636076">
<ele>1770.985352</ele>
<time>2012-04-30T14:52:55Z</time>
<desc>lat.=42.896416, lon.=19.636076, Alt.=1770.985352m. Speed=0.000000m/h.</desc>
<speed>0.000000</speed>
</trkpt>
<trkpt lat="42.896416" lon="19.636076">
<ele>1771.016602</ele>
<time>2012-04-30T14:53:00Z</time>
<desc>lat.=42.896416, lon.=19.636076, Alt.=1771.016602m. Speed=0.036000m/h.</desc>
<speed>0.010000</speed>
</trkpt>
<trkpt lat="42.896416" lon="19.636076">
<ele>1771.016602</ele>
<time>2012-04-30T14:53:05Z</time>
<desc>lat.=42.896416, lon.=19.636076, Alt.=1771.016602m. Speed=0.000000m/h.</desc>
<speed>0.000000</speed>
</trkpt>
<trkpt lat="42.896416" lon="19.636076">
<ele>1771.016602</ele>
<time>2012-04-30T14:53:10Z</time>
<desc>lat.=42.896416, lon.=19.636076, Alt.=1771.016602m. Speed=0.108000m/h.</desc>
<speed>0.030000</speed>
</trkpt>
<trkpt lat="42.896416" lon="19.636076">
<ele>1771.016602</ele>
<time>2012-04-30T14:53:15Z</time>
<desc>lat.=42.896416, lon.=19.636076, Alt.=1771.016602m. Speed=0.036000m/h.</desc>
<speed>0.010000</speed>
</trkpt>
<trkpt lat="42.896416" lon="19.636076">
<ele>1771.047852</ele>
<time>2012-04-30T14:53:20Z</time>
<desc>lat.=42.896416, lon.=19.636076, Alt.=1771.047852m. Speed=0.036000m/h.</desc>
<speed>0.010000</speed>
</trkpt>
<trkpt lat="42.896416" lon="19.636074">
<ele>1771.047852</ele>
<time>2012-04-30T14:53:25Z</time>
<desc>lat.=42.896416, lon.=19.636074, Alt.=1771.047852m. Speed=0.000000m/h.</desc>
<speed>0.000000</speed>
</trkpt>
<trkpt lat="42.896416" lon="19.636074">
<ele>1771.016602</ele>
<time>2012-04-30T14:53:30Z</time>
<desc>lat.=42.896416, lon.=19.636074, Alt.=1771.016602m. Speed=0.144000m/h.</desc>
<speed>0.040000</speed>
</trkpt>
<trkpt lat="42.896416" lon="19.636076">
<ele>1770.985352</ele>
<time>2012-04-30T14:53:35Z</time>
<desc>lat.=42.896416, lon.=19.636076, Alt.=1770.985352m. Speed=0.684000m/h.</desc>
<speed>0.190000</speed>
</trkpt>
<trkpt lat="42.896420" lon="19.636122">
<ele>1770.891602</ele>
<time>2012-04-30T14:53:40Z</time>
<desc>lat.=42.896420, lon.=19.636122, Alt.=1770.891602m. Speed=3.348000m/h.</desc>
<speed>0.930000</speed>
</trkpt>
<trkpt lat="42.896420" lon="19.636187">
<ele>1771.329102</ele>
<time>2012-04-30T14:53:45Z</time>
<desc>lat.=42.896420, lon.=19.636187, Alt.=1771.329102m. Speed=3.852000m/h.</desc>
<speed>1.070000</speed>
</trkpt>
<trkpt lat="42.896420" lon="19.636253">
<ele>1772.454102</ele>
<time>2012-04-30T14:53:50Z</time>
<desc>lat.=42.896420, lon.=19.636253, Alt.=1772.454102m. Speed=3.960000m/h.</desc>
<speed>1.100000</speed>
</trkpt>
<trkpt lat="42.896423" lon="19.636318">
<ele>1773.766602</ele>
<time>2012-04-30T14:53:55Z</time>
<desc>lat.=42.896423, lon.=19.636318, Alt.=1773.766602m. Speed=2.808000m/h.</desc>
<speed>0.780000</speed>
</trkpt>
<trkpt lat="42.896454" lon="19.636372">
<ele>1774.360352</ele>
<time>2012-04-30T14:54:00Z</time>
<desc>lat.=42.896454, lon.=19.636372, Alt.=1774.360352m. Speed=3.384000m/h.</desc>
<speed>0.940000</speed>
</trkpt>
<trkpt lat="42.896492" lon="19.636414">
<ele>1775.016602</ele>
<time>2012-04-30T14:54:05Z</time>
<desc>lat.=42.896492, lon.=19.636414, Alt.=1775.016602m. Speed=2.844000m/h.</desc>
<speed>0.790000</speed>
</trkpt>
<trkpt lat="42.896526" lon="19.636448">
<ele>1775.891602</ele>
<time>2012-04-30T14:54:10Z</time>
<desc>lat.=42.896526, lon.=19.636448, Alt.=1775.891602m. Speed=3.132000m/h.</desc>
<speed>0.870000</speed>
</trkpt>
<trkpt lat="42.896557" lon="19.636484">
<ele>1776.579102</ele>
<time>2012-04-30T14:54:15Z</time>
<desc>lat.=42.896557, lon.=19.636484, Alt.=1776.579102m. Speed=2.916000m/h.</desc>
<speed>0.810000</speed>
</trkpt>
<trkpt lat="42.896584" lon="19.636522">
<ele>1778.485352</ele>
<time>2012-04-30T14:54:20Z</time>
<desc>lat.=42.896584, lon.=19.636522, Alt.=1778.485352m. Speed=3.528000m/h.</desc>
<speed>0.980000</speed>
</trkpt>
<trkpt lat="42.896610" lon="19.636580">
<ele>1780.422852</ele>
<time>2012-04-30T14:54:25Z</time>
<desc>lat.=42.896610, lon.=19.636580, Alt.=1780.422852m. Speed=3.420000m/h.</desc>
<speed>0.950000</speed>
</trkpt>
<trkpt lat="42.896614" lon="19.636646">
<ele>1783.297852</ele>
<time>2012-04-30T14:54:30Z</time>
<desc>lat.=42.896614, lon.=19.636646, Alt.=1783.297852m. Speed=1.908000m/h.</desc>
<speed>0.530000</speed>
</trkpt>
<trkpt lat="42.896606" lon="19.636696">
<ele>1784.704102</ele>
<time>2012-04-30T14:54:35Z</time>
<desc>lat.=42.896606, lon.=19.636696, Alt.=1784.704102m. Speed=2.412000m/h.</desc>
<speed>0.670000</speed>
</trkpt>
<trkpt lat="42.896622" lon="19.636726">
<ele>1783.704102</ele>
<time>2012-04-30T14:54:40Z</time>
<desc>lat.=42.896622, lon.=19.636726, Alt.=1783.704102m. Speed=2.484000m/h.</desc>
<speed>0.690000</speed>
</trkpt>
<trkpt lat="42.896618" lon="19.636778">
<ele>1783.329102</ele>
<time>2012-04-30T14:54:45Z</time>
<desc>lat.=42.896618, lon.=19.636778, Alt.=1783.329102m. Speed=2.052000m/h.</desc>
<speed>0.570000</speed>
</trkpt>
<trkpt lat="42.896629" lon="19.636772">
<ele>1778.454102</ele>
<time>2012-04-30T14:54:50Z</time>
<desc>lat.=42.896629, lon.=19.636772, Alt.=1778.454102m. Speed=0.000000m/h.</desc>
<speed>0.000000</speed>
</trkpt>
<trkpt lat="42.896629" lon="19.636772">
<ele>1778.329102</ele>
<time>2012-04-30T14:54:55Z</time>
<desc>lat.=42.896629, lon.=19.636772, Alt.=1778.329102m. Speed=0.036000m/h.</desc>
<speed>0.010000</speed>
</trkpt>
<trkpt lat="42.896629" lon="19.636799">
<ele>1778.797852</ele>
<time>2012-04-30T14:55:00Z</time>
<desc>lat.=42.896629, lon.=19.636799, Alt.=1778.797852m. Speed=2.844000m/h.</desc>
<speed>0.790000</speed>
</trkpt>
<trkpt lat="42.896633" lon="19.636848">
<ele>1779.079102</ele>
<time>2012-04-30T14:55:05Z</time>
<desc>lat.=42.896633, lon.=19.636848, Alt.=1779.079102m. Speed=3.204000m/h.</desc>
<speed>0.890000</speed>
</trkpt>
<trkpt lat="42.896626" lon="19.636890">
<ele>1779.860352</ele>
<time>2012-04-30T14:55:10Z</time>
<desc>lat.=42.896626, lon.=19.636890, Alt.=1779.860352m. Speed=2.592000m/h.</desc>
<speed>0.720000</speed>
</trkpt>
<trkpt lat="42.896622" lon="19.636877">
<ele>1779.797852</ele>
<time>2012-04-30T14:55:15Z</time>
<desc>lat.=42.896622, lon.=19.636877, Alt.=1779.797852m. Speed=0.000000m/h.</desc>
<speed>0.000000</speed>
</trkpt>
<trkpt lat="42.896622" lon="19.636877">
<ele>1779.829102</ele>
<time>2012-04-30T14:55:20Z</time>
<desc>lat.=42.896622, lon.=19.636877, Alt.=1779.829102m. Speed=0.000000m/h.</desc>
<speed>0.000000</speed>
</trkpt>
<trkpt lat="42.896622" lon="19.636877">
<ele>1779.829102</ele>
<time>2012-04-30T14:55:25Z</time>
<desc>lat.=42.896622, lon.=19.636877, Alt.=1779.829102m. Speed=0.000000m/h.</desc>
<speed>0.000000</speed>
</trkpt>
<trkpt lat="42.896622" lon="19.636877">
<ele>1779.829102</ele>
<time>2012-04-30T14:55:30Z</time>
<desc>lat.=42.896622, lon.=19.636877, Alt.=1779.829102m. Speed=1.260000m/h.</desc>
<speed>0.350000</speed>
</trkpt>
<trkpt lat="42.896622" lon="19.636915">
<ele>1780.547852</ele>
<time>2012-04-30T14:55:35Z</time>
<desc>lat.=42.896622, lon.=19.636915, Alt.=1780.547852m. Speed=0.288000m/h.</desc>
<speed>0.080000</speed>
</trkpt>
<trkpt lat="42.896618" lon="19.636913">
<ele>1781.079102</ele>
<time>2012-04-30T14:55:40Z</time>
<desc>lat.=42.896618, lon.=19.636913, Alt.=1781.079102m. Speed=0.000000m/h.</desc>
<speed>0.000000</speed>
</trkpt>
<trkpt lat="42.896618" lon="19.636913">
<ele>1781.110352</ele>
<time>2012-04-30T14:55:45Z</time>
<desc>lat.=42.896618, lon.=19.636913, Alt.=1781.110352m. Speed=0.036000m/h.</desc>
<speed>0.010000</speed>
</trkpt>
<trkpt lat="42.896618" lon="19.636932">
<ele>1781.547852</ele>
<time>2012-04-30T14:55:50Z</time>
<desc>lat.=42.896618, lon.=19.636932, Alt.=1781.547852m. Speed=2.232000m/h.</desc>
<speed>0.620000</speed>
</trkpt>
<trkpt lat="42.896610" lon="19.636980">
<ele>1782.079102</ele>
<time>2012-04-30T14:55:55Z</time>
<desc>lat.=42.896610, lon.=19.636980, Alt.=1782.079102m. Speed=2.376000m/h.</desc>
<speed>0.660000</speed>
</trkpt>
<trkpt lat="42.896599" lon="19.637026">
<ele>1782.454102</ele>
<time>2012-04-30T14:56:00Z</time>
<desc>lat.=42.896599, lon.=19.637026, Alt.=1782.454102m. Speed=2.988000m/h.</desc>
<speed>0.830000</speed>
</trkpt>
<trkpt lat="42.896606" lon="19.637074">
<ele>1782.610352</ele>
<time>2012-04-30T14:56:05Z</time>
<desc>lat.=42.896606, lon.=19.637074, Alt.=1782.610352m. Speed=2.592000m/h.</desc>
<speed>0.720000</speed>
</trkpt>
<trkpt lat="42.896610" lon="19.637127">
<ele>1782.547852</ele>
<time>2012-04-30T14:56:10Z</time>
<desc>lat.=42.896610, lon.=19.637127, Alt.=1782.547852m. Speed=3.096000m/h.</desc>
<speed>0.860000</speed>
</trkpt>
<trkpt lat="42.896618" lon="19.637171">
<ele>1782.797852</ele>
<time>2012-04-30T14:56:15Z</time>
<desc>lat.=42.896618, lon.=19.637171, Alt.=1782.797852m. Speed=2.736000m/h.</desc>
<speed>0.760000</speed>
</trkpt>
<trkpt lat="42.896622" lon="19.637218">
<ele>1783.110352</ele>
<time>2012-04-30T14:56:20Z</time>
<desc>lat.=42.896622, lon.=19.637218, Alt.=1783.110352m. Speed=2.304000m/h.</desc>
<speed>0.640000</speed>
</trkpt>
<trkpt lat="42.896618" lon="19.637264">
<ele>1783.235352</ele>
<time>2012-04-30T14:56:25Z</time>
<desc>lat.=42.896618, lon.=19.637264, Alt.=1783.235352m. Speed=2.412000m/h.</desc>
<speed>0.670000</speed>
</trkpt>
<trkpt lat="42.896610" lon="19.637306">
<ele>1783.547852</ele>
<time>2012-04-30T14:56:30Z</time>
<desc>lat.=42.896610, lon.=19.637306, Alt.=1783.547852m. Speed=1.944000m/h.</desc>
<speed>0.540000</speed>
</trkpt>
<trkpt lat="42.896606" lon="19.637308">
<ele>1783.735352</ele>
<time>2012-04-30T14:56:35Z</time>
<desc>lat.=42.896606, lon.=19.637308, Alt.=1783.735352m. Speed=0.072000m/h.</desc>
<speed>0.020000</speed>
</trkpt>
<trkpt lat="42.896606" lon="19.637308">
<ele>1783.860352</ele>
<time>2012-04-30T14:56:40Z</time>
<desc>lat.=42.896606, lon.=19.637308, Alt.=1783.860352m. Speed=0.000000m/h.</desc>
<speed>0.000000</speed>
</trkpt>
<trkpt lat="42.896606" lon="19.637308">
<ele>1783.860352</ele>
<time>2012-04-30T14:56:45Z</time>
<desc>lat.=42.896606, lon.=19.637308, Alt.=1783.860352m. Speed=0.000000m/h.</desc>
<speed>0.000000</speed>
</trkpt>
<trkpt lat="42.896606" lon="19.637306">
<ele>1783.766602</ele>
<time>2012-04-30T14:56:50Z</time>
<desc>lat.=42.896606, lon.=19.637306, Alt.=1783.766602m. Speed=0.144000m/h.</desc>
<speed>0.040000</speed>
</trkpt>
<trkpt lat="42.896606" lon="19.637306">
<ele>1783.766602</ele>
<time>2012-04-30T14:56:55Z</time>
<desc>lat.=42.896606, lon.=19.637306, Alt.=1783.766602m. Speed=0.000000m/h.</desc>
<speed>0.000000</speed>
</trkpt>
<trkpt lat="42.896606" lon="19.637306">
<ele>1783.766602</ele>
<time>2012-04-30T14:57:00Z</time>
<desc>lat.=42.896606, lon.=19.637306, Alt.=1783.766602m. Speed=0.036000m/h.</desc>
<speed>0.010000</speed>
</trkpt>
<trkpt lat="42.896603" lon="19.637321">
<ele>1784.047852</ele>
<time>2012-04-30T14:57:05Z</time>
<desc>lat.=42.896603, lon.=19.637321, Alt.=1784.047852m. Speed=2.700000m/h.</desc>
<speed>0.750000</speed>
</trkpt>
<trkpt lat="42.896587" lon="19.637365">
<ele>1784.891602</ele>
<time>2012-04-30T14:57:10Z</time>
<desc>lat.=42.896587, lon.=19.637365, Alt.=1784.891602m. Speed=2.520000m/h.</desc>
<speed>0.700000</speed>
</trkpt>
<trkpt lat="42.896584" lon="19.637405">
<ele>1785.172852</ele>
<time>2012-04-30T14:57:15Z</time>
<desc>lat.=42.896584, lon.=19.637405, Alt.=1785.172852m. Speed=1.980000m/h.</desc>
<speed>0.550000</speed>
</trkpt>
<trkpt lat="42.896587" lon="19.637451">
<ele>1785.641602</ele>
<time>2012-04-30T14:57:20Z</time>
<desc>lat.=42.896587, lon.=19.637451, Alt.=1785.641602m. Speed=2.484000m/h.</desc>
<speed>0.690000</speed>
</trkpt>
<trkpt lat="42.896580" lon="19.637497">
<ele>1786.266602</ele>
<time>2012-04-30T14:57:25Z</time>
<desc>lat.=42.896580, lon.=19.637497, Alt.=1786.266602m. Speed=2.952000m/h.</desc>
<speed>0.820000</speed>
</trkpt>
<trkpt lat="42.896576" lon="19.637537">
<ele>1787.235352</ele>
<time>2012-04-30T14:57:30Z</time>
<desc>lat.=42.896576, lon.=19.637537, Alt.=1787.235352m. Speed=1.728000m/h.</desc>
<speed>0.480000</speed>
</trkpt>
<trkpt lat="42.896564" lon="19.637575">
<ele>1787.985352</ele>
<time>2012-04-30T14:57:35Z</time>
<desc>lat.=42.896564, lon.=19.637575, Alt.=1787.985352m. Speed=2.628000m/h.</desc>
<speed>0.730000</speed>
</trkpt>
<trkpt lat="42.896553" lon="19.637604">
<ele>1788.204102</ele>
<time>2012-04-30T14:57:40Z</time>
<desc>lat.=42.896553, lon.=19.637604, Alt.=1788.204102m. Speed=0.972000m/h.</desc>
<speed>0.270000</speed>
</trkpt>
<trkpt lat="42.896545" lon="19.637625">
<ele>1788.735352</ele>
<time>2012-04-30T14:57:45Z</time>
<desc>lat.=42.896545, lon.=19.637625, Alt.=1788.735352m. Speed=3.132000m/h.</desc>
<speed>0.870000</speed>
</trkpt>
<trkpt lat="42.896530" lon="19.637672">
<ele>1789.297852</ele>
<time>2012-04-30T14:57:50Z</time>
<desc>lat.=42.896530, lon.=19.637672, Alt.=1789.297852m. Speed=2.880000m/h.</desc>
<speed>0.800000</speed>
</trkpt>
<trkpt lat="42.896523" lon="19.637712">
<ele>1789.641602</ele>
<time>2012-04-30T14:57:55Z</time>
<desc>lat.=42.896523, lon.=19.637712, Alt.=1789.641602m. Speed=0.252000m/h.</desc>
<speed>0.070000</speed>
</trkpt>
<trkpt lat="42.896519" lon="19.637707">
<ele>1789.235352</ele>
<time>2012-04-30T14:58:00Z</time>
<desc>lat.=42.896519, lon.=19.637707, Alt.=1789.235352m. Speed=0.288000m/h.</desc>
<speed>0.080000</speed>
</trkpt>
<trkpt lat="42.896519" lon="19.637716">
<ele>1789.204102</ele>
<time>2012-04-30T14:58:05Z</time>
<desc>lat.=42.896519, lon.=19.637716, Alt.=1789.204102m. Speed=3.672000m/h.</desc>
<speed>1.020000</speed>
</trkpt>
<trkpt lat="42.896515" lon="19.637762">
<ele>1789.735352</ele>
<time>2012-04-30T14:58:10Z</time>
<desc>lat.=42.896515, lon.=19.637762, Alt.=1789.735352m. Speed=3.708000m/h.</desc>
<speed>1.030000</speed>
</trkpt>
<trkpt lat="42.896523" lon="19.637783">
<ele>1789.797852</ele>
<time>2012-04-30T14:58:15Z</time>
<desc>lat.=42.896523, lon.=19.637783, Alt.=1789.797852m. Speed=0.252000m/h.</desc>
<speed>0.070000</speed>
</trkpt>
<trkpt lat="42.896523" lon="19.637783">
<ele>1789.922852</ele>
<time>2012-04-30T14:58:20Z</time>
<desc>lat.=42.896523, lon.=19.637783, Alt.=1789.922852m. Speed=0.000000m/h.</desc>
<speed>0.000000</speed>
</trkpt>
<trkpt lat="42.896523" lon="19.637783">
<ele>1789.891602</ele>
<time>2012-04-30T14:58:25Z</time>
<desc>lat.=42.896523, lon.=19.637783, Alt.=1789.891602m. Speed=0.000000m/h.</desc>
<speed>0.000000</speed>
</trkpt>
<trkpt lat="42.896523" lon="19.637783">
<ele>1789.891602</ele>
<time>2012-04-30T14:58:30Z</time>
<desc>lat.=42.896523, lon.=19.637783, Alt.=1789.891602m. Speed=0.252000m/h.</desc>
<speed>0.070000</speed>
</trkpt>
<trkpt lat="42.896523" lon="19.637783">
<ele>1789.860352</ele>
<time>2012-04-30T14:58:35Z</time>
<desc>lat.=42.896523, lon.=19.637783, Alt.=1789.860352m. Speed=0.000000m/h.</desc>
<speed>0.000000</speed>
</trkpt>
<trkpt lat="42.896523" lon="19.637783">
<ele>1789.860352</ele>
<time>2012-04-30T14:58:40Z</time>
<desc>lat.=42.896523, lon.=19.637783, Alt.=1789.860352m. Speed=0.036000m/h.</desc>
<speed>0.010000</speed>
</trkpt>
<trkpt lat="42.896523" lon="19.637783">
<ele>1789.860352</ele>
<time>2012-04-30T14:58:45Z</time>
<desc>lat.=42.896523, lon.=19.637783, Alt.=1789.860352m. Speed=0.036000m/h.</desc>
<speed>0.010000</speed>
</trkpt>
<trkpt lat="42.896523" lon="19.637783">
<ele>1789.860352</ele>
<time>2012-04-30T14:58:50Z</time>
<desc>lat.=42.896523, lon.=19.637783, Alt.=1789.860352m. Speed=0.000000m/h.</desc>
<speed>0.000000</speed>
</trkpt>
<trkpt lat="42.896523" lon="19.637783">
<ele>1789.860352</ele>
<time>2012-04-30T14:58:55Z</time>
<desc>lat.=42.896523, lon.=19.637783, Alt.=1789.860352m. Speed=0.000000m/h.</desc>
<speed>0.000000</speed>
</trkpt>
<trkpt lat="42.896523" lon="19.637783">
<ele>1789.860352</ele>
<time>2012-04-30T14:59:00Z</time>
<desc>lat.=42.896523, lon.=19.637783, Alt.=1789.860352m. Speed=0.072000m/h.</desc>
<speed>0.020000</speed>
</trkpt>
<trkpt lat="42.896519" lon="19.637783">
<ele>1789.860352</ele>
<time>2012-04-30T14:59:05Z</time>
<desc>lat.=42.896519, lon.=19.637783, Alt.=1789.860352m. Speed=0.000000m/h.</desc>
<speed>0.000000</speed>
</trkpt>
<trkpt lat="42.896519" lon="19.637785">
<ele>1789.860352</ele>
<time>2012-04-30T14:59:10Z</time>
<desc>lat.=42.896519, lon.=19.637785, Alt.=1789.860352m. Speed=0.036000m/h.</desc>
<speed>0.010000</speed>
</trkpt>
<trkpt lat="42.896519" lon="19.637785">
<ele>1789.860352</ele>
<time>2012-04-30T14:59:15Z</time>
<desc>lat.=42.896519, lon.=19.637785, Alt.=1789.860352m. Speed=0.000000m/h.</desc>
<speed>0.000000</speed>
</trkpt>
<trkpt lat="42.896523" lon="19.637785">
<ele>1789.860352</ele>
<time>2012-04-30T14:59:20Z</time>
<desc>lat.=42.896523, lon.=19.637785, Alt.=1789.860352m. Speed=0.000000m/h.</desc>
<speed>0.000000</speed>
</trkpt>
<trkpt lat="42.896523" lon="19.637785">
<ele>1789.860352</ele>
<time>2012-04-30T14:59:25Z</time>
<desc>lat.=42.896523, lon.=19.637785, Alt.=1789.860352m. Speed=0.036000m/h.</desc>
<speed>0.010000</speed>
</trkpt>
<trkpt lat="42.896538" lon="19.637800">
<ele>1789.954102</ele>
<time>2012-04-30T14:59:30Z</time>
<desc>lat.=42.896538, lon.=19.637800, Alt.=1789.954102m. Speed=2.556000m/h.</desc>
<speed>0.710000</speed>
</trkpt>
<trkpt lat="42.896538" lon="19.637836">
<ele>1793.672852</ele>
<time>2012-04-30T14:59:35Z</time>
<desc>lat.=42.896538, lon.=19.637836, Alt.=1793.672852m. Speed=2.124000m/h.</desc>
<speed>0.590000</speed>
</trkpt>
<trkpt lat="42.896523" lon="19.637894">
<ele>1794.922852</ele>
<time>2012-04-30T14:59:40Z</time>
<desc>lat.=42.896523, lon.=19.637894, Alt.=1794.922852m. Speed=3.168000m/h.</desc>
<speed>0.880000</speed>
</trkpt>
<trkpt lat="42.896515" lon="19.637945">
<ele>1796.235352</ele>
<time>2012-04-30T14:59:45Z</time>
<desc>lat.=42.896515, lon.=19.637945, Alt.=1796.235352m. Speed=2.664000m/h.</desc>
<speed>0.740000</speed>
</trkpt>
<trkpt lat="42.896507" lon="19.637999">
<ele>1797.766602</ele>
<time>2012-04-30T14:59:50Z</time>
<desc>lat.=42.896507, lon.=19.637999, Alt.=1797.766602m. Speed=2.484000m/h.</desc>
<speed>0.690000</speed>
</trkpt>
<trkpt lat="42.896507" lon="19.638054">
<ele>1799.297852</ele>
<time>2012-04-30T14:59:55Z</time>
<desc>lat.=42.896507, lon.=19.638054, Alt.=1799.297852m. Speed=3.276000m/h.</desc>
<speed>0.910000</speed>
</trkpt>
<trkpt lat="42.896530" lon="19.638102">
<ele>1800.485352</ele>
<time>2012-04-30T15:00:00Z</time>
<desc>lat.=42.896530, lon.=19.638102, Alt.=1800.485352m. Speed=2.916000m/h.</desc>
<speed>0.810000</speed>
</trkpt>
<trkpt lat="42.896534" lon="19.638144">
<ele>1801.891602</ele>
<time>2012-04-30T15:00:05Z</time>
<desc>lat.=42.896534, lon.=19.638144, Alt.=1801.891602m. Speed=1.980000m/h.</desc>
<speed>0.550000</speed>
</trkpt>
<trkpt lat="42.896523" lon="19.638178">
<ele>1802.235352</ele>
<time>2012-04-30T15:00:10Z</time>
<desc>lat.=42.896523, lon.=19.638178, Alt.=1802.235352m. Speed=1.908000m/h.</desc>
<speed>0.530000</speed>
</trkpt>
<trkpt lat="42.896519" lon="19.638166">
<ele>1802.141602</ele>
<time>2012-04-30T15:00:15Z</time>
<desc>lat.=42.896519, lon.=19.638166, Alt.=1802.141602m. Speed=0.000000m/h.</desc>
<speed>0.000000</speed>
</trkpt>
<trkpt lat="42.896526" lon="19.638206">
<ele>1802.860352</ele>
<time>2012-04-30T15:00:20Z</time>
<desc>lat.=42.896526, lon.=19.638206, Alt.=1802.860352m. Speed=2.808000m/h.</desc>
<speed>0.780000</speed>
</trkpt>
<trkpt lat="42.896519" lon="19.638256">
<ele>1803.610352</ele>
<time>2012-04-30T15:00:25Z</time>
<desc>lat.=42.896519, lon.=19.638256, Alt.=1803.610352m. Speed=2.556000m/h.</desc>
<speed>0.710000</speed>
</trkpt>
<trkpt lat="42.896519" lon="19.638292">
<ele>1805.016602</ele>
<time>2012-04-30T15:00:30Z</time>
<desc>lat.=42.896519, lon.=19.638292, Alt.=1805.016602m. Speed=2.412000m/h.</desc>
<speed>0.670000</speed>
</trkpt>
<trkpt lat="42.896503" lon="19.638334">
<ele>1806.704102</ele>
<time>2012-04-30T15:00:35Z</time>
<desc>lat.=42.896503, lon.=19.638334, Alt.=1806.704102m. Speed=1.620000m/h.</desc>
<speed>0.450000</speed>
</trkpt>
<trkpt lat="42.896503" lon="19.638369">
<ele>1807.110352</ele>
<time>2012-04-30T15:00:40Z</time>
<desc>lat.=42.896503, lon.=19.638369, Alt.=1807.110352m. Speed=1.584000m/h.</desc>
<speed>0.440000</speed>
</trkpt>
<trkpt lat="42.896523" lon="19.638393">
<ele>1808.204102</ele>
<time>2012-04-30T15:00:45Z</time>
<desc>lat.=42.896523, lon.=19.638393, Alt.=1808.204102m. Speed=1.872000m/h.</desc>
<speed>0.520000</speed>
</trkpt>
<trkpt lat="42.896545" lon="19.638437">
<ele>1809.829102</ele>
<time>2012-04-30T15:00:50Z</time>
<desc>lat.=42.896545, lon.=19.638437, Alt.=1809.829102m. Speed=2.664000m/h.</desc>
<speed>0.740000</speed>
</trkpt>
<trkpt lat="42.896530" lon="19.638479">
<ele>1811.329102</ele>
<time>2012-04-30T15:00:55Z</time>
<desc>lat.=42.896530, lon.=19.638479, Alt.=1811.329102m. Speed=2.628000m/h.</desc>
<speed>0.730000</speed>
</trkpt>
<trkpt lat="42.896538" lon="19.638521">
<ele>1812.454102</ele>
<time>2012-04-30T15:01:00Z</time>
<desc>lat.=42.896538, lon.=19.638521, Alt.=1812.454102m. Speed=2.700000m/h.</desc>
<speed>0.750000</speed>
</trkpt>
<trkpt lat="42.896526" lon="19.638548">
<ele>1813.422852</ele>
<time>2012-04-30T15:01:05Z</time>
<desc>lat.=42.896526, lon.=19.638548, Alt.=1813.422852m. Speed=0.684000m/h.</desc>
<speed>0.190000</speed>
</trkpt>
<trkpt lat="42.896511" lon="19.638544">
<ele>1813.547852</ele>
<time>2012-04-30T15:01:10Z</time>
<desc>lat.=42.896511, lon.=19.638544, Alt.=1813.547852m. Speed=0.036000m/h.</desc>
<speed>0.010000</speed>
</trkpt>
<trkpt lat="42.896511" lon="19.638544">
<ele>1813.766602</ele>
<time>2012-04-30T15:01:15Z</time>
<desc>lat.=42.896511, lon.=19.638544, Alt.=1813.766602m. Speed=0.000000m/h.</desc>
<speed>0.000000</speed>
</trkpt>
<trkpt lat="42.896507" lon="19.638544">
<ele>1813.797852</ele>
<time>2012-04-30T15:01:20Z</time>
<desc>lat.=42.896507, lon.=19.638544, Alt.=1813.797852m. Speed=0.000000m/h.</desc>
<speed>0.000000</speed>
</trkpt>
<trkpt lat="42.896511" lon="19.638544">
<ele>1813.797852</ele>
<time>2012-04-30T15:01:25Z</time>
<desc>lat.=42.896511, lon.=19.638544, Alt.=1813.797852m. Speed=0.000000m/h.</desc>
<speed>0.000000</speed>
</trkpt>
<trkpt lat="42.896511" lon="19.638544">
<ele>1813.766602</ele>
<time>2012-04-30T15:01:30Z</time>
<desc>lat.=42.896511, lon.=19.638544, Alt.=1813.766602m. Speed=0.036000m/h.</desc>
<speed>0.010000</speed>
</trkpt>
<trkpt lat="42.896511" lon="19.638544">
<ele>1813.766602</ele>
<time>2012-04-30T15:01:35Z</time>
<desc>lat.=42.896511, lon.=19.638544, Alt.=1813.766602m. Speed=0.036000m/h.</desc>
<speed>0.010000</speed>
</trkpt>
<trkpt lat="42.896511" lon="19.638544">
<ele>1813.766602</ele>
<time>2012-04-30T15:01:40Z</time>
<desc>lat.=42.896511, lon.=19.638544, Alt.=1813.766602m. Speed=0.000000m/h.</desc>
<speed>0.000000</speed>
</trkpt>
<trkpt lat="42.896511" lon="19.638544">
<ele>1813.766602</ele>
<time>2012-04-30T15:01:45Z</time>
<desc>lat.=42.896511, lon.=19.638544, Alt.=1813.766602m. Speed=0.036000m/h.</desc>
<speed>0.010000</speed>
</trkpt>
<trkpt lat="42.896511" lon="19.638544">
<ele>1813.766602</ele>
<time>2012-04-30T15:01:50Z</time>
<desc>lat.=42.896511, lon.=19.638544, Alt.=1813.766602m. Speed=0.036000m/h.</desc>
<speed>0.010000</speed>
</trkpt>
<trkpt lat="42.896511" lon="19.638544">
<ele>1813.766602</ele>
<time>2012-04-30T15:01:55Z</time>
<desc>lat.=42.896511, lon.=19.638544, Alt.=1813.766602m. Speed=0.000000m/h.</desc>
<speed>0.000000</speed>
</trkpt>
<trkpt lat="42.896511" lon="19.638544">
<ele>1813.766602</ele>
<time>2012-04-30T15:02:00Z</time>
<desc>lat.=42.896511, lon.=19.638544, Alt.=1813.766602m. Speed=0.036000m/h.</desc>
<speed>0.010000</speed>
</trkpt>
<trkpt lat="42.896511" lon="19.638544">
<ele>1813.766602</ele>
<time>2012-04-30T15:02:05Z</time>
<desc>lat.=42.896511, lon.=19.638544, Alt.=1813.766602m. Speed=0.252000m/h.</desc>
<speed>0.070000</speed>
</trkpt>
<trkpt lat="42.896523" lon="19.638575">
<ele>1813.704102</ele>
<time>2012-04-30T15:02:10Z</time>
<desc>lat.=42.896523, lon.=19.638575, Alt.=1813.704102m. Speed=2.664000m/h.</desc>
<speed>0.740000</speed>
</trkpt>
<trkpt lat="42.896542" lon="19.638615">
<ele>1812.579102</ele>
<time>2012-04-30T15:02:15Z</time>
<desc>lat.=42.896542, lon.=19.638615, Alt.=1812.579102m. Speed=2.088000m/h.</desc>
<speed>0.580000</speed>
</trkpt>
<trkpt lat="42.896542" lon="19.638662">
<ele>1811.891602</ele>
<time>2012-04-30T15:02:20Z</time>
<desc>lat.=42.896542, lon.=19.638662, Alt.=1811.891602m. Speed=2.880000m/h.</desc>
<speed>0.800000</speed>
</trkpt>
<trkpt lat="42.896538" lon="19.638727">
<ele>1811.079102</ele>
<time>2012-04-30T15:02:25Z</time>
<desc>lat.=42.896538, lon.=19.638727, Alt.=1811.079102m. Speed=4.140000m/h.</desc>
<speed>1.150000</speed>
</trkpt>
<trkpt lat="42.896530" lon="19.638765">
<ele>1810.454102</ele>
<time>2012-04-30T15:02:30Z</time>
<desc>lat.=42.896530, lon.=19.638765, Alt.=1810.454102m. Speed=2.844000m/h.</desc>
<speed>0.790000</speed>
</trkpt>
<trkpt lat="42.896553" lon="19.638807">
<ele>1809.829102</ele>
<time>2012-04-30T15:02:35Z</time>
<desc>lat.=42.896553, lon.=19.638807, Alt.=1809.829102m. Speed=2.628000m/h.</desc>
<speed>0.730000</speed>
</trkpt>
<trkpt lat="42.896557" lon="19.638840">
<ele>1809.641602</ele>
<time>2012-04-30T15:02:40Z</time>
<desc>lat.=42.896557, lon.=19.638840, Alt.=1809.641602m. Speed=2.052000m/h.</desc>
<speed>0.570000</speed>
</trkpt>
<trkpt lat="42.896557" lon="19.638874">
<ele>1809.579102</ele>
<time>2012-04-30T15:02:45Z</time>
<desc>lat.=42.896557, lon.=19.638874, Alt.=1809.579102m. Speed=0.648000m/h.</desc>
<speed>0.180000</speed>
</trkpt>
<trkpt lat="42.896561" lon="19.638912">
<ele>1810.235352</ele>
<time>2012-04-30T15:02:50Z</time>
<desc>lat.=42.896561, lon.=19.638912, Alt.=1810.235352m. Speed=2.664000m/h.</desc>
<speed>0.740000</speed>
</trkpt>
<trkpt lat="42.896557" lon="19.638952">
<ele>1811.204102</ele>
<time>2012-04-30T15:02:55Z</time>
<desc>lat.=42.896557, lon.=19.638952, Alt.=1811.204102m. Speed=0.324000m/h.</desc>
<speed>0.090000</speed>
</trkpt>
<trkpt lat="42.896564" lon="19.638952">
<ele>1811.485352</ele>
<time>2012-04-30T15:03:00Z</time>
<desc>lat.=42.896564, lon.=19.638952, Alt.=1811.485352m. Speed=0.036000m/h.</desc>
<speed>0.010000</speed>
</trkpt>
<trkpt lat="42.896564" lon="19.638952">
<ele>1811.485352</ele>
<time>2012-04-30T15:03:05Z</time>
<desc>lat.=42.896564, lon.=19.638952, Alt.=1811.485352m. Speed=0.036000m/h.</desc>
<speed>0.010000</speed>
</trkpt>
<trkpt lat="42.896568" lon="19.638985">
<ele>1811.422852</ele>
<time>2012-04-30T15:03:10Z</time>
<desc>lat.=42.896568, lon.=19.638985, Alt.=1811.422852m. Speed=1.800000m/h.</desc>
<speed>0.500000</speed>
</trkpt>
<trkpt lat="42.896553" lon="19.639019">
<ele>1811.829102</ele>
<time>2012-04-30T15:03:15Z</time>
<desc>lat.=42.896553, lon.=19.639019, Alt.=1811.829102m. Speed=1.620000m/h.</desc>
<speed>0.450000</speed>
</trkpt>
<trkpt lat="42.896542" lon="19.639059">
<ele>1812.954102</ele>
<time>2012-04-30T15:03:20Z</time>
<desc>lat.=42.896542, lon.=19.639059, Alt.=1812.954102m. Speed=3.132000m/h.</desc>
<speed>0.870000</speed>
</trkpt>
<trkpt lat="42.896526" lon="19.639086">
<ele>1813.610352</ele>
<time>2012-04-30T15:03:25Z</time>
<desc>lat.=42.896526, lon.=19.639086, Alt.=1813.610352m. Speed=2.844000m/h.</desc>
<speed>0.790000</speed>
</trkpt>
<trkpt lat="42.896526" lon="19.639120">
<ele>1814.079102</ele>
<time>2012-04-30T15:03:30Z</time>
<desc>lat.=42.896526, lon.=19.639120, Alt.=1814.079102m. Speed=2.232000m/h.</desc>
<speed>0.620000</speed>
</trkpt>
<trkpt lat="42.896519" lon="19.639158">
<ele>1814.797852</ele>
<time>2012-04-30T15:03:35Z</time>
<desc>lat.=42.896519, lon.=19.639158, Alt.=1814.797852m. Speed=1.656000m/h.</desc>
<speed>0.460000</speed>
</trkpt>
<trkpt lat="42.896515" lon="19.639191">
<ele>1815.547852</ele>
<time>2012-04-30T15:03:40Z</time>
<desc>lat.=42.896515, lon.=19.639191, Alt.=1815.547852m. Speed=1.620000m/h.</desc>
<speed>0.450000</speed>
</trkpt>
<trkpt lat="42.896523" lon="19.639225">
<ele>1815.922852</ele>
<time>2012-04-30T15:03:45Z</time>
<desc>lat.=42.896523, lon.=19.639225, Alt.=1815.922852m. Speed=2.304000m/h.</desc>
<speed>0.640000</speed>
</trkpt>
<trkpt lat="42.896515" lon="19.639236">
<ele>1816.485352</ele>
<time>2012-04-30T15:03:50Z</time>
<desc>lat.=42.896515, lon.=19.639236, Alt.=1816.485352m. Speed=0.036000m/h.</desc>
<speed>0.010000</speed>
</trkpt>
<trkpt lat="42.896515" lon="19.639269">
<ele>1816.266602</ele>
<time>2012-04-30T15:03:55Z</time>
<desc>lat.=42.896515, lon.=19.639269, Alt.=1816.266602m. Speed=1.800000m/h.</desc>
<speed>0.500000</speed>
</trkpt>
<trkpt lat="42.896515" lon="19.639299">
<ele>1816.547852</ele>
<time>2012-04-30T15:04:00Z</time>
<desc>lat.=42.896515, lon.=19.639299, Alt.=1816.547852m. Speed=2.124000m/h.</desc>
<speed>0.590000</speed>
</trkpt>
<trkpt lat="42.896500" lon="19.639322">
<ele>1817.610352</ele>
<time>2012-04-30T15:04:05Z</time>
<desc>lat.=42.896500, lon.=19.639322, Alt.=1817.610352m. Speed=0.684000m/h.</desc>
<speed>0.190000</speed>
</trkpt>
<trkpt lat="42.896492" lon="19.639320">
<ele>1818.266602</ele>
<time>2012-04-30T15:04:10Z</time>
<desc>lat.=42.896492, lon.=19.639320, Alt.=1818.266602m. Speed=0.072000m/h.</desc>
<speed>0.020000</speed>
</trkpt>
<trkpt lat="42.896492" lon="19.639320">
<ele>1818.235352</ele>
<time>2012-04-30T15:04:15Z</time>
<desc>lat.=42.896492, lon.=19.639320, Alt.=1818.235352m. Speed=0.000000m/h.</desc>
<speed>0.000000</speed>
</trkpt>
<trkpt lat="42.896492" lon="19.639320">
<ele>1818.266602</ele>
<time>2012-04-30T15:04:20Z</time>
<desc>lat.=42.896492, lon.=19.639320, Alt.=1818.266602m. Speed=0.000000m/h.</desc>
<speed>0.000000</speed>
</trkpt>
<trkpt lat="42.896492" lon="19.639320">
<ele>1818.266602</ele>
<time>2012-04-30T15:04:25Z</time>
<desc>lat.=42.896492, lon.=19.639320, Alt.=1818.266602m. Speed=0.000000m/h.</desc>
<speed>0.000000</speed>
</trkpt>
<trkpt lat="42.896492" lon="19.639336">
<ele>1818.735352</ele>
<time>2012-04-30T15:04:30Z</time>
<desc>lat.=42.896492, lon.=19.639336, Alt.=1818.735352m. Speed=1.872000m/h.</desc>
<speed>0.520000</speed>
</trkpt>
<trkpt lat="42.896492" lon="19.639372">
<ele>1819.329102</ele>
<time>2012-04-30T15:04:35Z</time>
<desc>lat.=42.896492, lon.=19.639372, Alt.=1819.329102m. Speed=1.908000m/h.</desc>
<speed>0.530000</speed>
</trkpt>
<trkpt lat="42.896488" lon="19.639400">
<ele>1820.610352</ele>
<time>2012-04-30T15:04:40Z</time>
<desc>lat.=42.896488, lon.=19.639400, Alt.=1820.610352m. Speed=1.188000m/h.</desc>
<speed>0.330000</speed>
</trkpt>
<trkpt lat="42.896500" lon="19.639431">
<ele>1821.672852</ele>
<time>2012-04-30T15:04:45Z</time>
<desc>lat.=42.896500, lon.=19.639431, Alt.=1821.672852m. Speed=2.124000m/h.</desc>
<speed>0.590000</speed>
</trkpt>
<trkpt lat="42.896496" lon="19.639448">
<ele>1822.547852</ele>
<time>2012-04-30T15:04:50Z</time>
<desc>lat.=42.896496, lon.=19.639448, Alt.=1822.547852m. Speed=0.540000m/h.</desc>
<speed>0.150000</speed>
</trkpt>
<trkpt lat="42.896496" lon="19.639465">
<ele>1823.047852</ele>
<time>2012-04-30T15:04:55Z</time>
<desc>lat.=42.896496, lon.=19.639465, Alt.=1823.047852m. Speed=0.792000m/h.</desc>
<speed>0.220000</speed>
</trkpt>
<trkpt lat="42.896500" lon="19.639488">
<ele>1823.329102</ele>
<time>2012-04-30T15:05:00Z</time>
<desc>lat.=42.896500, lon.=19.639488, Alt.=1823.329102m. Speed=3.240000m/h.</desc>
<speed>0.900000</speed>
</trkpt>
<trkpt lat="42.896519" lon="19.639523">
<ele>1823.360352</ele>
<time>2012-04-30T15:05:05Z</time>
<desc>lat.=42.896519, lon.=19.639523, Alt.=1823.360352m. Speed=1.908000m/h.</desc>
<speed>0.530000</speed>
</trkpt>
<trkpt lat="42.896519" lon="19.639555">
<ele>1823.797852</ele>
<time>2012-04-30T15:05:10Z</time>
<desc>lat.=42.896519, lon.=19.639555, Alt.=1823.797852m. Speed=2.196000m/h.</desc>
<speed>0.610000</speed>
</trkpt>
<trkpt lat="42.896515" lon="19.639565">
<ele>1823.829102</ele>
<time>2012-04-30T15:05:15Z</time>
<desc>lat.=42.896515, lon.=19.639565, Alt.=1823.829102m. Speed=0.720000m/h.</desc>
<speed>0.200000</speed>
</trkpt>
<trkpt lat="42.896507" lon="19.639599">
<ele>1824.266602</ele>
<time>2012-04-30T15:05:20Z</time>
<desc>lat.=42.896507, lon.=19.639599, Alt.=1824.266602m. Speed=2.520000m/h.</desc>
<speed>0.700000</speed>
</trkpt>
<trkpt lat="42.896500" lon="19.639633">
<ele>1824.266602</ele>
<time>2012-04-30T15:05:25Z</time>
<desc>lat.=42.896500, lon.=19.639633, Alt.=1824.266602m. Speed=1.836000m/h.</desc>
<speed>0.510000</speed>
</trkpt>
<trkpt lat="42.896492" lon="19.639668">
<ele>1824.704102</ele>
<time>2012-04-30T15:05:30Z</time>
<desc>lat.=42.896492, lon.=19.639668, Alt.=1824.704102m. Speed=2.304000m/h.</desc>
<speed>0.640000</speed>
</trkpt>
<trkpt lat="42.896484" lon="19.639694">
<ele>1824.766602</ele>
<time>2012-04-30T15:05:35Z</time>
<desc>lat.=42.896484, lon.=19.639694, Alt.=1824.766602m. Speed=1.728000m/h.</desc>
<speed>0.480000</speed>
</trkpt>
<trkpt lat="42.896481" lon="19.639723">
<ele>1824.954102</ele>
<time>2012-04-30T15:05:40Z</time>
<desc>lat.=42.896481, lon.=19.639723, Alt.=1824.954102m. Speed=1.908000m/h.</desc>
<speed>0.530000</speed>
</trkpt>
<trkpt lat="42.896481" lon="19.639746">
<ele>1825.016602</ele>
<time>2012-04-30T15:05:45Z</time>
<desc>lat.=42.896481, lon.=19.639746, Alt.=1825.016602m. Speed=2.340000m/h.</desc>
<speed>0.650000</speed>
</trkpt>
<trkpt lat="42.896473" lon="19.639761">
<ele>1825.079102</ele>
<time>2012-04-30T15:05:50Z</time>
<desc>lat.=42.896473, lon.=19.639761, Alt.=1825.079102m. Speed=0.108000m/h.</desc>
<speed>0.030000</speed>
</trkpt>
<trkpt lat="42.896461" lon="19.639799">
<ele>1824.704102</ele>
<time>2012-04-30T15:05:55Z</time>
<desc>lat.=42.896461, lon.=19.639799, Alt.=1824.704102m. Speed=2.808000m/h.</desc>
<speed>0.780000</speed>
</trkpt>
<trkpt lat="42.896461" lon="19.639853">
<ele>1825.391602</ele>
<time>2012-04-30T15:06:00Z</time>
<desc>lat.=42.896461, lon.=19.639853, Alt.=1825.391602m. Speed=2.268000m/h.</desc>
<speed>0.630000</speed>
</trkpt>
<trkpt lat="42.896461" lon="19.639883">
<ele>1826.547852</ele>
<time>2012-04-30T15:06:05Z</time>
<desc>lat.=42.896461, lon.=19.639883, Alt.=1826.547852m. Speed=0.972000m/h.</desc>
<speed>0.270000</speed>
</trkpt>
<trkpt lat="42.896477" lon="19.639917">
<ele>1827.547852</ele>
<time>2012-04-30T15:06:10Z</time>
<desc>lat.=42.896477, lon.=19.639917, Alt.=1827.547852m. Speed=2.736000m/h.</desc>
<speed>0.760000</speed>
</trkpt>
<trkpt lat="42.896484" lon="19.639925">
<ele>1828.047852</ele>
<time>2012-04-30T15:06:15Z</time>
<desc>lat.=42.896484, lon.=19.639925, Alt.=1828.047852m. Speed=1.692000m/h.</desc>
<speed>0.470000</speed>
</trkpt>
<trkpt lat="42.896507" lon="19.639944">
<ele>1829.766602</ele>
<time>2012-04-30T15:06:20Z</time>
<desc>lat.=42.896507, lon.=19.639944, Alt.=1829.766602m. Speed=2.376000m/h.</desc>
<speed>0.660000</speed>
</trkpt>
<trkpt lat="42.896530" lon="19.639948">
<ele>1830.141602</ele>
<time>2012-04-30T15:06:25Z</time>
<desc>lat.=42.896530, lon.=19.639948, Alt.=1830.141602m. Speed=0.648000m/h.</desc>
<speed>0.180000</speed>
</trkpt>
<trkpt lat="42.896530" lon="19.639948">
<ele>1828.329102</ele>
<time>2012-04-30T15:06:30Z</time>
<desc>lat.=42.896530, lon.=19.639948, Alt.=1828.329102m. Speed=0.108000m/h.</desc>
<speed>0.030000</speed>
</trkpt>
<trkpt lat="42.896526" lon="19.639942">
<ele>1828.329102</ele>
<time>2012-04-30T15:06:35Z</time>
<desc>lat.=42.896526, lon.=19.639942, Alt.=1828.329102m. Speed=0.000000m/h.</desc>
<speed>0.000000</speed>
</trkpt>
<trkpt lat="42.896526" lon="19.639942">
<ele>1828.329102</ele>
<time>2012-04-30T15:06:40Z</time>
<desc>lat.=42.896526, lon.=19.639942, Alt.=1828.329102m. Speed=0.000000m/h.</desc>
<speed>0.000000</speed>
</trkpt>
<trkpt lat="42.896526" lon="19.639942">
<ele>1828.329102</ele>
<time>2012-04-30T15:06:45Z</time>
<desc>lat.=42.896526, lon.=19.639942, Alt.=1828.329102m. Speed=0.144000m/h.</desc>
<speed>0.040000</speed>
</trkpt>
<trkpt lat="42.896526" lon="19.639942">
<ele>1828.329102</ele>
<time>2012-04-30T15:06:50Z</time>
<desc>lat.=42.896526, lon.=19.639942, Alt.=1828.329102m. Speed=0.000000m/h.</desc>
<speed>0.000000</speed>
</trkpt>
<trkpt lat="42.896526" lon="19.639942">
<ele>1828.329102</ele>
<time>2012-04-30T15:06:55Z</time>
<desc>lat.=42.896526, lon.=19.639942, Alt.=1828.329102m. Speed=0.000000m/h.</desc>
<speed>0.000000</speed>
</trkpt>
<trkpt lat="42.896526" lon="19.639942">
<ele>1828.329102</ele>
<time>2012-04-30T15:07:00Z</time>
<desc>lat.=42.896526, lon.=19.639942, Alt.=1828.329102m. Speed=0.000000m/h.</desc>
<speed>0.000000</speed>
</trkpt>
<trkpt lat="42.896526" lon="19.639942">
<ele>1828.329102</ele>
<time>2012-04-30T15:07:05Z</time>
<desc>lat.=42.896526, lon.=19.639942, Alt.=1828.329102m. Speed=0.000000m/h.</desc>
<speed>0.000000</speed>
</trkpt>
<trkpt lat="42.896526" lon="19.639942">
<ele>1828.329102</ele>
<time>2012-04-30T15:07:10Z</time>
<desc>lat.=42.896526, lon.=19.639942, Alt.=1828.329102m. Speed=0.000000m/h.</desc>
<speed>0.000000</speed>
</trkpt>
<trkpt lat="42.896526" lon="19.639940">
<ele>1828.329102</ele>
<time>2012-04-30T15:07:15Z</time>
<desc>lat.=42.896526, lon.=19.639940, Alt.=1828.329102m. Speed=0.036000m/h.</desc>
<speed>0.010000</speed>
</trkpt>
<trkpt lat="42.896526" lon="19.639940">
<ele>1828.329102</ele>
<time>2012-04-30T15:07:20Z</time>
<desc>lat.=42.896526, lon.=19.639940, Alt.=1828.329102m. Speed=0.036000m/h.</desc>
<speed>0.010000</speed>
</trkpt>
<trkpt lat="42.896526" lon="19.639942">
<ele>1828.329102</ele>
<time>2012-04-30T15:07:25Z</time>
<desc>lat.=42.896526, lon.=19.639942, Alt.=1828.329102m. Speed=0.036000m/h.</desc>
<speed>0.010000</speed>
</trkpt>
<trkpt lat="42.896530" lon="19.639942">
<ele>1828.329102</ele>
<time>2012-04-30T15:07:30Z</time>
<desc>lat.=42.896530, lon.=19.639942, Alt.=1828.329102m. Speed=0.216000m/h.</desc>
<speed>0.060000</speed>
</trkpt>
<trkpt lat="42.896534" lon="19.639942">
<ele>1828.329102</ele>
<time>2012-04-30T15:07:35Z</time>
<desc>lat.=42.896534, lon.=19.639942, Alt.=1828.329102m. Speed=0.288000m/h.</desc>
<speed>0.080000</speed>
</trkpt>
<trkpt lat="42.896534" lon="19.639940">
<ele>1828.329102</ele>
<time>2012-04-30T15:07:40Z</time>
<desc>lat.=42.896534, lon.=19.639940, Alt.=1828.329102m. Speed=0.180000m/h.</desc>
<speed>0.050000</speed>
</trkpt>
<trkpt lat="42.896538" lon="19.639940">
<ele>1828.360352</ele>
<time>2012-04-30T15:07:45Z</time>
<desc>lat.=42.896538, lon.=19.639940, Alt.=1828.360352m. Speed=0.144000m/h.</desc>
<speed>0.040000</speed>
</trkpt>
<trkpt lat="42.896538" lon="19.639936">
<ele>1828.360352</ele>
<time>2012-04-30T15:07:50Z</time>
<desc>lat.=42.896538, lon.=19.639936, Alt.=1828.360352m. Speed=0.216000m/h.</desc>
<speed>0.060000</speed>
</trkpt>
<trkpt lat="42.896542" lon="19.639936">
<ele>1828.391602</ele>
<time>2012-04-30T15:07:55Z</time>
<desc>lat.=42.896542, lon.=19.639936, Alt.=1828.391602m. Speed=0.252000m/h.</desc>
<speed>0.070000</speed>
</trkpt>
<trkpt lat="42.896545" lon="19.639936">
<ele>1828.422852</ele>
<time>2012-04-30T15:08:00Z</time>
<desc>lat.=42.896545, lon.=19.639936, Alt.=1828.422852m. Speed=0.396000m/h.</desc>
<speed>0.110000</speed>
</trkpt>
<trkpt lat="42.896549" lon="19.639933">
<ele>1828.422852</ele>
<time>2012-04-30T15:08:05Z</time>
<desc>lat.=42.896549, lon.=19.639933, Alt.=1828.422852m. Speed=0.468000m/h.</desc>
<speed>0.130000</speed>
</trkpt>
<trkpt lat="42.896557" lon="19.639929">
<ele>1828.454102</ele>
<time>2012-04-30T15:08:10Z</time>
<desc>lat.=42.896557, lon.=19.639929, Alt.=1828.454102m. Speed=0.612000m/h.</desc>
<speed>0.170000</speed>
</trkpt>
<trkpt lat="42.896564" lon="19.639923">
<ele>1828.485352</ele>
<time>2012-04-30T15:08:15Z</time>
<desc>lat.=42.896564, lon.=19.639923, Alt.=1828.485352m. Speed=0.756000m/h.</desc>
<speed>0.210000</speed>
</trkpt>
<trkpt lat="42.896576" lon="19.639910">
<ele>1828.516602</ele>
<time>2012-04-30T15:08:20Z</time>
<desc>lat.=42.896576, lon.=19.639910, Alt.=1828.516602m. Speed=1.152000m/h.</desc>
<speed>0.320000</speed>
</trkpt>
<trkpt lat="42.896587" lon="19.639893">
<ele>1828.547852</ele>
<time>2012-04-30T15:08:25Z</time>
<desc>lat.=42.896587, lon.=19.639893, Alt.=1828.547852m. Speed=1.260000m/h.</desc>
<speed>0.350000</speed>
</trkpt>
<trkpt lat="42.896599" lon="19.639883">
<ele>1828.672852</ele>
<time>2012-04-30T15:08:30Z</time>
<desc>lat.=42.896599, lon.=19.639883, Alt.=1828.672852m. Speed=1.116000m/h.</desc>
<speed>0.310000</speed>
</trkpt>
<trkpt lat="42.896599" lon="19.639875">
<ele>1828.766602</ele>
<time>2012-04-30T15:08:35Z</time>
<desc>lat.=42.896599, lon.=19.639875, Alt.=1828.766602m. Speed=1.152000m/h.</desc>
<speed>0.320000</speed>
</trkpt>
<trkpt lat="42.896606" lon="19.639881">
<ele>1829.079102</ele>
<time>2012-04-30T15:08:40Z</time>
<desc>lat.=42.896606, lon.=19.639881, Alt.=1829.079102m. Speed=1.008000m/h.</desc>
<speed>0.280000</speed>
</trkpt>
<trkpt lat="42.896610" lon="19.639881">
<ele>1829.266602</ele>
<time>2012-04-30T15:08:45Z</time>
<desc>lat.=42.896610, lon.=19.639881, Alt.=1829.266602m. Speed=0.720000m/h.</desc>
<speed>0.200000</speed>
</trkpt>
<trkpt lat="42.896622" lon="19.639879">
<ele>1829.422852</ele>
<time>2012-04-30T15:08:50Z</time>
<desc>lat.=42.896622, lon.=19.639879, Alt.=1829.422852m. Speed=0.864000m/h.</desc>
<speed>0.240000</speed>
</trkpt>
<trkpt lat="42.896626" lon="19.639885">
<ele>1829.610352</ele>
<time>2012-04-30T15:08:55Z</time>
<desc>lat.=42.896626, lon.=19.639885, Alt.=1829.610352m. Speed=0.684000m/h.</desc>
<speed>0.190000</speed>
</trkpt>
<trkpt lat="42.896629" lon="19.639894">
<ele>1829.829102</ele>
<time>2012-04-30T15:09:00Z</time>
<desc>lat.=42.896629, lon.=19.639894, Alt.=1829.829102m. Speed=0.612000m/h.</desc>
<speed>0.170000</speed>
</trkpt>
<trkpt lat="42.896633" lon="19.639900">
<ele>1830.079102</ele>
<time>2012-04-30T15:09:05Z</time>
<desc>lat.=42.896633, lon.=19.639900, Alt.=1830.079102m. Speed=0.360000m/h.</desc>
<speed>0.100000</speed>
</trkpt>
<trkpt lat="42.896629" lon="19.639908">
<ele>1830.360352</ele>
<time>2012-04-30T15:09:10Z</time>
<desc>lat.=42.896629, lon.=19.639908, Alt.=1830.360352m. Speed=0.396000m/h.</desc>
<speed>0.110000</speed>
</trkpt>
<trkpt lat="42.896626" lon="19.639912">
<ele>1830.672852</ele>
<time>2012-04-30T15:09:15Z</time>
<desc>lat.=42.896626, lon.=19.639912, Alt.=1830.672852m. Speed=0.144000m/h.</desc>
<speed>0.040000</speed>
</trkpt>
<trkpt lat="42.896626" lon="19.639912">
<ele>1830.954102</ele>
<time>2012-04-30T15:09:20Z</time>
<desc>lat.=42.896626, lon.=19.639912, Alt.=1830.954102m. Speed=0.036000m/h.</desc>
<speed>0.010000</speed>
</trkpt>
<trkpt lat="42.896626" lon="19.639912">
<ele>1831.297852</ele>
<time>2012-04-30T15:09:25Z</time>
<desc>lat.=42.896626, lon.=19.639912, Alt.=1831.297852m. Speed=0.144000m/h.</desc>
<speed>0.040000</speed>
</trkpt>
<trkpt lat="42.896626" lon="19.639912">
<ele>1831.329102</ele>
<time>2012-04-30T15:09:30Z</time>
<desc>lat.=42.896626, lon.=19.639912, Alt.=1831.329102m. Speed=0.108000m/h.</desc>
<speed>0.030000</speed>
</trkpt>
<trkpt lat="42.896622" lon="19.639912">
<ele>1831.329102</ele>
<time>2012-04-30T15:09:35Z</time>
<desc>lat.=42.896622, lon.=19.639912, Alt.=1831.329102m. Speed=0.216000m/h.</desc>
<speed>0.060000</speed>
</trkpt>
<trkpt lat="42.896622" lon="19.639914">
<ele>1831.360352</ele>
<time>2012-04-30T15:09:40Z</time>
<desc>lat.=42.896622, lon.=19.639914, Alt.=1831.360352m. Speed=0.216000m/h.</desc>
<speed>0.060000</speed>
</trkpt>
<trkpt lat="42.896614" lon="19.639914">
<ele>1831.360352</ele>
<time>2012-04-30T15:09:45Z</time>
<desc>lat.=42.896614, lon.=19.639914, Alt.=1831.360352m. Speed=0.396000m/h.</desc>
<speed>0.110000</speed>
</trkpt>
<trkpt lat="42.896610" lon="19.639912">
<ele>1831.360352</ele>
<time>2012-04-30T15:09:50Z</time>
<desc>lat.=42.896610, lon.=19.639912, Alt.=1831.360352m. Speed=0.324000m/h.</desc>
<speed>0.090000</speed>
</trkpt>
<trkpt lat="42.896606" lon="19.639912">
<ele>1831.360352</ele>
<time>2012-04-30T15:09:55Z</time>
<desc>lat.=42.896606, lon.=19.639912, Alt.=1831.360352m. Speed=0.144000m/h.</desc>
<speed>0.040000</speed>
</trkpt>
<trkpt lat="42.896606" lon="19.639914">
<ele>1831.391602</ele>
<time>2012-04-30T15:10:00Z</time>
<desc>lat.=42.896606, lon.=19.639914, Alt.=1831.391602m. Speed=0.324000m/h.</desc>
<speed>0.090000</speed>
</trkpt>
<trkpt lat="42.896599" lon="19.639914">
<ele>1831.329102</ele>
<time>2012-04-30T15:10:05Z</time>
<desc>lat.=42.896599, lon.=19.639914, Alt.=1831.329102m. Speed=0.540000m/h.</desc>
<speed>0.150000</speed>
</trkpt>
<trkpt lat="42.896591" lon="19.639914">
<ele>1831.235352</ele>
<time>2012-04-30T15:10:10Z</time>
<desc>lat.=42.896591, lon.=19.639914, Alt.=1831.235352m. Speed=0.648000m/h.</desc>
<speed>0.180000</speed>
</trkpt>
<trkpt lat="42.896584" lon="19.639910">
<ele>1831.141602</ele>
<time>2012-04-30T15:10:15Z</time>
<desc>lat.=42.896584, lon.=19.639910, Alt.=1831.141602m. Speed=0.648000m/h.</desc>
<speed>0.180000</speed>
</trkpt>
<trkpt lat="42.896576" lon="19.639906">
<ele>1831.047852</ele>
<time>2012-04-30T15:10:20Z</time>
<desc>lat.=42.896576, lon.=19.639906, Alt.=1831.047852m. Speed=0.540000m/h.</desc>
<speed>0.150000</speed>
</trkpt>
<trkpt lat="42.896568" lon="19.639902">
<ele>1830.860352</ele>
<time>2012-04-30T15:10:25Z</time>
<desc>lat.=42.896568, lon.=19.639902, Alt.=1830.860352m. Speed=0.648000m/h.</desc>
<speed>0.180000</speed>
</trkpt>
<trkpt lat="42.896568" lon="19.639906">
<ele>1830.672852</ele>
<time>2012-04-30T15:10:30Z</time>
<desc>lat.=42.896568, lon.=19.639906, Alt.=1830.672852m. Speed=0.504000m/h.</desc>
<speed>0.140000</speed>
</trkpt>
<trkpt lat="42.896572" lon="19.639902">
<ele>1830.766602</ele>
<time>2012-04-30T15:10:35Z</time>
<desc>lat.=42.896572, lon.=19.639902, Alt.=1830.766602m. Speed=0.108000m/h.</desc>
<speed>0.030000</speed>
</trkpt>
<trkpt lat="42.896576" lon="19.639902">
<ele>1830.672852</ele>
<time>2012-04-30T15:10:40Z</time>
<desc>lat.=42.896576, lon.=19.639902, Alt.=1830.672852m. Speed=0.252000m/h.</desc>
<speed>0.070000</speed>
</trkpt>
<trkpt lat="42.896576" lon="19.639904">
<ele>1830.735352</ele>
<time>2012-04-30T15:10:45Z</time>
<desc>lat.=42.896576, lon.=19.639904, Alt.=1830.735352m. Speed=0.072000m/h.</desc>
<speed>0.020000</speed>
</trkpt>
<trkpt lat="42.896576" lon="19.639902">
<ele>1830.922852</ele>
<time>2012-04-30T15:10:50Z</time>
<desc>lat.=42.896576, lon.=19.639902, Alt.=1830.922852m. Speed=0.252000m/h.</desc>
<speed>0.070000</speed>
</trkpt>
<trkpt lat="42.896576" lon="19.639902">
<ele>1830.891602</ele>
<time>2012-04-30T15:10:55Z</time>
<desc>lat.=42.896576, lon.=19.639902, Alt.=1830.891602m. Speed=0.000000m/h.</desc>
<speed>0.000000</speed>
</trkpt>
<trkpt lat="42.896572" lon="19.639902">
<ele>1830.735352</ele>
<time>2012-04-30T15:11:00Z</time>
<desc>lat.=42.896572, lon.=19.639902, Alt.=1830.735352m. Speed=0.576000m/h.</desc>
<speed>0.160000</speed>
</trkpt>
<trkpt lat="42.896572" lon="19.639900">
<ele>1830.860352</ele>
<time>2012-04-30T15:11:05Z</time>
<desc>lat.=42.896572, lon.=19.639900, Alt.=1830.860352m. Speed=0.000000m/h.</desc>
<speed>0.000000</speed>
</trkpt>
<trkpt lat="42.896557" lon="19.639912">
<ele>1830.516602</ele>
<time>2012-04-30T15:11:10Z</time>
<desc>lat.=42.896557, lon.=19.639912, Alt.=1830.516602m. Speed=0.108000m/h.</desc>
<speed>0.030000</speed>
</trkpt>
<trkpt lat="42.896549" lon="19.639923">
<ele>1830.454102</ele>
<time>2012-04-30T15:11:15Z</time>
<desc>lat.=42.896549, lon.=19.639923, Alt.=1830.454102m. Speed=1.620000m/h.</desc>
<speed>0.450000</speed>
</trkpt>
<trkpt lat="42.896534" lon="19.639973">
<ele>1831.110352</ele>
<time>2012-04-30T15:11:20Z</time>
<desc>lat.=42.896534, lon.=19.639973, Alt.=1831.110352m. Speed=2.700000m/h.</desc>
<speed>0.750000</speed>
</trkpt>
<trkpt lat="42.896515" lon="19.639986">
<ele>1831.516602</ele>
<time>2012-04-30T15:11:25Z</time>
<desc>lat.=42.896515, lon.=19.639986, Alt.=1831.516602m. Speed=0.576000m/h.</desc>
<speed>0.160000</speed>
</trkpt>
<trkpt lat="42.896511" lon="19.639982">
<ele>1831.047852</ele>
<time>2012-04-30T15:11:30Z</time>
<desc>lat.=42.896511, lon.=19.639982, Alt.=1831.047852m. Speed=0.000000m/h.</desc>
<speed>0.000000</speed>
</trkpt>
<trkpt lat="42.896511" lon="19.639980">
<ele>1830.922852</ele>
<time>2012-04-30T15:11:35Z</time>
<desc>lat.=42.896511, lon.=19.639980, Alt.=1830.922852m. Speed=0.036000m/h.</desc>
<speed>0.010000</speed>
</trkpt>
<trkpt lat="42.896507" lon="19.639980">
<ele>1830.985352</ele>
<time>2012-04-30T15:11:40Z</time>
<desc>lat.=42.896507, lon.=19.639980, Alt.=1830.985352m. Speed=0.000000m/h.</desc>
<speed>0.000000</speed>
</trkpt>
<trkpt lat="42.896507" lon="19.639980">
<ele>1830.985352</ele>
<time>2012-04-30T15:11:45Z</time>
<desc>lat.=42.896507, lon.=19.639980, Alt.=1830.985352m. Speed=0.504000m/h.</desc>
<speed>0.140000</speed>
</trkpt>
<trkpt lat="42.896507" lon="19.639980">
<ele>1831.016602</ele>
<time>2012-04-30T15:11:50Z</time>
<desc>lat.=42.896507, lon.=19.639980, Alt.=1831.016602m. Speed=0.108000m/h.</desc>
<speed>0.030000</speed>
</trkpt>
<trkpt lat="42.896492" lon="19.640034">
<ele>1831.516602</ele>
<time>2012-04-30T15:11:55Z</time>
<desc>lat.=42.896492, lon.=19.640034, Alt.=1831.516602m. Speed=4.284000m/h.</desc>
<speed>1.190000</speed>
</trkpt>
<trkpt lat="42.896473" lon="19.640100">
<ele>1833.579102</ele>
<time>2012-04-30T15:12:00Z</time>
<desc>lat.=42.896473, lon.=19.640100, Alt.=1833.579102m. Speed=2.628000m/h.</desc>
<speed>0.730000</speed>
</trkpt>
<trkpt lat="42.896465" lon="19.640158">
<ele>1834.579102</ele>
<time>2012-04-30T15:12:05Z</time>
<desc>lat.=42.896465, lon.=19.640158, Alt.=1834.579102m. Speed=2.304000m/h.</desc>
<speed>0.640000</speed>
</trkpt>
<trkpt lat="42.896446" lon="19.640209">
<ele>1836.266602</ele>
<time>2012-04-30T15:12:10Z</time>
<desc>lat.=42.896446, lon.=19.640209, Alt.=1836.266602m. Speed=2.268000m/h.</desc>
<speed>0.630000</speed>
</trkpt>
<trkpt lat="42.896412" lon="19.640259">
<ele>1837.860352</ele>
<time>2012-04-30T15:12:15Z</time>
<desc>lat.=42.896412, lon.=19.640259, Alt.=1837.860352m. Speed=3.456000m/h.</desc>
<speed>0.960000</speed>
</trkpt>
<trkpt lat="42.896389" lon="19.640289">
<ele>1837.860352</ele>
<time>2012-04-30T15:12:20Z</time>
<desc>lat.=42.896389, lon.=19.640289, Alt.=1837.860352m. Speed=1.656000m/h.</desc>
<speed>0.460000</speed>
</trkpt>
<trkpt lat="42.896366" lon="19.640305">
<ele>1838.579102</ele>
<time>2012-04-30T15:12:25Z</time>
<desc>lat.=42.896366, lon.=19.640305, Alt.=1838.579102m. Speed=1.260000m/h.</desc>
<speed>0.350000</speed>
</trkpt>
<trkpt lat="42.896347" lon="19.640347">
<ele>1839.704102</ele>
<time>2012-04-30T15:12:30Z</time>
<desc>lat.=42.896347, lon.=19.640347, Alt.=1839.704102m. Speed=2.052000m/h.</desc>
<speed>0.570000</speed>
</trkpt>
<trkpt lat="42.896324" lon="19.640392">
<ele>1840.172852</ele>
<time>2012-04-30T15:12:35Z</time>
<desc>lat.=42.896324, lon.=19.640392, Alt.=1840.172852m. Speed=2.628000m/h.</desc>
<speed>0.730000</speed>
</trkpt>
<trkpt lat="42.896309" lon="19.640440">
<ele>1839.329102</ele>
<time>2012-04-30T15:12:40Z</time>
<desc>lat.=42.896309, lon.=19.640440, Alt.=1839.329102m. Speed=2.484000m/h.</desc>
<speed>0.690000</speed>
</trkpt>
<trkpt lat="42.896297" lon="19.640478">
<ele>1839.704102</ele>
<time>2012-04-30T15:12:45Z</time>
<desc>lat.=42.896297, lon.=19.640478, Alt.=1839.704102m. Speed=2.628000m/h.</desc>
<speed>0.730000</speed>
</trkpt>
<trkpt lat="42.896297" lon="19.640524">
<ele>1839.391602</ele>
<time>2012-04-30T15:12:50Z</time>
<desc>lat.=42.896297, lon.=19.640524, Alt.=1839.391602m. Speed=2.772000m/h.</desc>
<speed>0.770000</speed>
</trkpt>
<trkpt lat="42.896278" lon="19.640551">
<ele>1840.110352</ele>
<time>2012-04-30T15:12:55Z</time>
<desc>lat.=42.896278, lon.=19.640551, Alt.=1840.110352m. Speed=2.448000m/h.</desc>
<speed>0.680000</speed>
</trkpt>
<trkpt lat="42.896267" lon="19.640577">
<ele>1841.516602</ele>
<time>2012-04-30T15:13:00Z</time>
<desc>lat.=42.896267, lon.=19.640577, Alt.=1841.516602m. Speed=3.204000m/h.</desc>
<speed>0.890000</speed>
</trkpt>
<trkpt lat="42.896252" lon="19.640612">
<ele>1842.329102</ele>
<time>2012-04-30T15:13:05Z</time>
<desc>lat.=42.896252, lon.=19.640612, Alt.=1842.329102m. Speed=2.880000m/h.</desc>
<speed>0.800000</speed>
</trkpt>
<trkpt lat="42.896240" lon="19.640654">
<ele>1842.922852</ele>
<time>2012-04-30T15:13:10Z</time>
<desc>lat.=42.896240, lon.=19.640654, Alt.=1842.922852m. Speed=2.052000m/h.</desc>
<speed>0.570000</speed>
</trkpt>
<trkpt lat="42.896233" lon="19.640675">
<ele>1842.954102</ele>
<time>2012-04-30T15:13:15Z</time>
<desc>lat.=42.896233, lon.=19.640675, Alt.=1842.954102m. Speed=1.044000m/h.</desc>
<speed>0.290000</speed>
</trkpt>
<trkpt lat="42.896225" lon="19.640667">
<ele>1843.422852</ele>
<time>2012-04-30T15:13:20Z</time>
<desc>lat.=42.896225, lon.=19.640667, Alt.=1843.422852m. Speed=1.476000m/h.</desc>
<speed>0.410000</speed>
</trkpt>
<trkpt lat="42.896210" lon="19.640718">
<ele>1844.766602</ele>
<time>2012-04-30T15:13:25Z</time>
<desc>lat.=42.896210, lon.=19.640718, Alt.=1844.766602m. Speed=2.772000m/h.</desc>
<speed>0.770000</speed>
</trkpt>
<trkpt lat="42.896202" lon="19.640772">
<ele>1845.516602</ele>
<time>2012-04-30T15:13:30Z</time>
<desc>lat.=42.896202, lon.=19.640772, Alt.=1845.516602m. Speed=2.916000m/h.</desc>
<speed>0.810000</speed>
</trkpt>
<trkpt lat="42.896191" lon="19.640816">
<ele>1847.860352</ele>
<time>2012-04-30T15:13:35Z</time>
<desc>lat.=42.896191, lon.=19.640816, Alt.=1847.860352m. Speed=3.060000m/h.</desc>
<speed>0.850000</speed>
</trkpt>
<trkpt lat="42.896179" lon="19.640865">
<ele>1849.547852</ele>
<time>2012-04-30T15:13:40Z</time>
<desc>lat.=42.896179, lon.=19.640865, Alt.=1849.547852m. Speed=3.240000m/h.</desc>
<speed>0.900000</speed>
</trkpt>
<trkpt lat="42.896168" lon="19.640884">
<ele>1850.297852</ele>
<time>2012-04-30T15:13:45Z</time>
<desc>lat.=42.896168, lon.=19.640884, Alt.=1850.297852m. Speed=2.052000m/h.</desc>
<speed>0.570000</speed>
</trkpt>
<trkpt lat="42.896160" lon="19.640902">
<ele>1849.141602</ele>
<time>2012-04-30T15:13:50Z</time>
<desc>lat.=42.896160, lon.=19.640902, Alt.=1849.141602m. Speed=1.872000m/h.</desc>
<speed>0.520000</speed>
</trkpt>
<trkpt lat="42.896145" lon="19.640934">
<ele>1849.641602</ele>
<time>2012-04-30T15:13:55Z</time>
<desc>lat.=42.896145, lon.=19.640934, Alt.=1849.641602m. Speed=1.836000m/h.</desc>
<speed>0.510000</speed>
</trkpt>
<trkpt lat="42.896126" lon="19.640970">
<ele>1850.141602</ele>
<time>2012-04-30T15:14:00Z</time>
<desc>lat.=42.896126, lon.=19.640970, Alt.=1850.141602m. Speed=2.520000m/h.</desc>
<speed>0.700000</speed>
</trkpt>
<trkpt lat="42.896114" lon="19.641016">
<ele>1851.610352</ele>
<time>2012-04-30T15:14:05Z</time>
<desc>lat.=42.896114, lon.=19.641016, Alt.=1851.610352m. Speed=2.412000m/h.</desc>
<speed>0.670000</speed>
</trkpt>
<trkpt lat="42.896103" lon="19.641043">
<ele>1852.485352</ele>
<time>2012-04-30T15:14:10Z</time>
<desc>lat.=42.896103, lon.=19.641043, Alt.=1852.485352m. Speed=1.332000m/h.</desc>
<speed>0.370000</speed>
</trkpt>
<trkpt lat="42.896076" lon="19.641071">
<ele>1852.516602</ele>
<time>2012-04-30T15:14:15Z</time>
<desc>lat.=42.896076, lon.=19.641071, Alt.=1852.516602m. Speed=2.520000m/h.</desc>
<speed>0.700000</speed>
</trkpt>
<trkpt lat="42.896065" lon="19.641098">
<ele>1852.422852</ele>
<time>2012-04-30T15:14:20Z</time>
<desc>lat.=42.896065, lon.=19.641098, Alt.=1852.422852m. Speed=1.872000m/h.</desc>
<speed>0.520000</speed>
</trkpt>
<trkpt lat="42.896049" lon="19.641132">
<ele>1852.454102</ele>
<time>2012-04-30T15:14:25Z</time>
<desc>lat.=42.896049, lon.=19.641132, Alt.=1852.454102m. Speed=2.592000m/h.</desc>
<speed>0.720000</speed>
</trkpt>
<trkpt lat="42.896019" lon="19.641172">
<ele>1852.641602</ele>
<time>2012-04-30T15:14:30Z</time>
<desc>lat.=42.896019, lon.=19.641172, Alt.=1852.641602m. Speed=2.304000m/h.</desc>
<speed>0.640000</speed>
</trkpt>
<trkpt lat="42.896000" lon="19.641199">
<ele>1852.860352</ele>
<time>2012-04-30T15:14:35Z</time>
<desc>lat.=42.896000, lon.=19.641199, Alt.=1852.860352m. Speed=1.980000m/h.</desc>
<speed>0.550000</speed>
</trkpt>
<trkpt lat="42.895981" lon="19.641233">
<ele>1853.172852</ele>
<time>2012-04-30T15:14:40Z</time>
<desc>lat.=42.895981, lon.=19.641233, Alt.=1853.172852m. Speed=2.808000m/h.</desc>
<speed>0.780000</speed>
</trkpt>
<trkpt lat="42.895966" lon="19.641260">
<ele>1854.110352</ele>
<time>2012-04-30T15:14:45Z</time>
<desc>lat.=42.895966, lon.=19.641260, Alt.=1854.110352m. Speed=2.052000m/h.</desc>
<speed>0.570000</speed>
</trkpt>
<trkpt lat="42.895947" lon="19.641283">
<ele>1854.297852</ele>
<time>2012-04-30T15:14:50Z</time>
<desc>lat.=42.895947, lon.=19.641283, Alt.=1854.297852m. Speed=2.412000m/h.</desc>
<speed>0.670000</speed>
</trkpt>
<trkpt lat="42.895931" lon="19.641273">
<ele>1853.860352</ele>
<time>2012-04-30T15:14:55Z</time>
<desc>lat.=42.895931, lon.=19.641273, Alt.=1853.860352m. Speed=0.000000m/h.</desc>
<speed>0.000000</speed>
</trkpt>
<trkpt lat="42.895939" lon="19.641270">
<ele>1853.329102</ele>
<time>2012-04-30T15:15:00Z</time>
<desc>lat.=42.895939, lon.=19.641270, Alt.=1853.329102m. Speed=4.824000m/h.</desc>
<speed>1.340000</speed>
</trkpt>
<trkpt lat="42.895916" lon="19.641302">
<ele>1852.641602</ele>
<time>2012-04-30T15:15:05Z</time>
<desc>lat.=42.895916, lon.=19.641302, Alt.=1852.641602m. Speed=0.324000m/h.</desc>
<speed>0.090000</speed>
</trkpt>
<trkpt lat="42.895897" lon="19.641325">
<ele>1852.266602</ele>
<time>2012-04-30T15:15:10Z</time>
<desc>lat.=42.895897, lon.=19.641325, Alt.=1852.266602m. Speed=3.276000m/h.</desc>
<speed>0.910000</speed>
</trkpt>
<trkpt lat="42.895878" lon="19.641375">
<ele>1852.329102</ele>
<time>2012-04-30T15:15:15Z</time>
<desc>lat.=42.895878, lon.=19.641375, Alt.=1852.329102m. Speed=3.456000m/h.</desc>
<speed>0.960000</speed>
</trkpt>
<trkpt lat="42.895851" lon="19.641417">
<ele>1852.110352</ele>
<time>2012-04-30T15:15:20Z</time>
<desc>lat.=42.895851, lon.=19.641417, Alt.=1852.110352m. Speed=1.944000m/h.</desc>
<speed>0.540000</speed>
</trkpt>
<trkpt lat="42.895828" lon="19.641438">
<ele>1852.141602</ele>
<time>2012-04-30T15:15:25Z</time>
<desc>lat.=42.895828, lon.=19.641438, Alt.=1852.141602m. Speed=3.060000m/h.</desc>
<speed>0.850000</speed>
</trkpt>
<trkpt lat="42.895790" lon="19.641434">
<ele>1852.829102</ele>
<time>2012-04-30T15:15:30Z</time>
<desc>lat.=42.895790, lon.=19.641434, Alt.=1852.829102m. Speed=2.880000m/h.</desc>
<speed>0.800000</speed>
</trkpt>
<trkpt lat="42.895763" lon="19.641441">
<ele>1852.985352</ele>
<time>2012-04-30T15:15:35Z</time>
<desc>lat.=42.895763, lon.=19.641441, Alt.=1852.985352m. Speed=0.396000m/h.</desc>
<speed>0.110000</speed>
</trkpt>
<trkpt lat="42.895763" lon="19.641432">
<ele>1853.329102</ele>
<time>2012-04-30T15:15:40Z</time>
<desc>lat.=42.895763, lon.=19.641432, Alt.=1853.329102m. Speed=0.792000m/h.</desc>
<speed>0.220000</speed>
</trkpt>
<trkpt lat="42.895763" lon="19.641434">
<ele>1853.454102</ele>
<time>2012-04-30T15:15:45Z</time>
<desc>lat.=42.895763, lon.=19.641434, Alt.=1853.454102m. Speed=0.036000m/h.</desc>
<speed>0.010000</speed>
</trkpt>
<trkpt lat="42.895763" lon="19.641430">
<ele>1853.172852</ele>
<time>2012-04-30T15:15:50Z</time>
<desc>lat.=42.895763, lon.=19.641430, Alt.=1853.172852m. Speed=0.792000m/h.</desc>
<speed>0.220000</speed>
</trkpt>
<trkpt lat="42.895721" lon="19.641462">
<ele>1853.797852</ele>
<time>2012-04-30T15:15:55Z</time>
<desc>lat.=42.895721, lon.=19.641462, Alt.=1853.797852m. Speed=3.348000m/h.</desc>
<speed>0.930000</speed>
</trkpt>
<trkpt lat="42.895676" lon="19.641516">
<ele>1854.172852</ele>
<time>2012-04-30T15:16:00Z</time>
<desc>lat.=42.895676, lon.=19.641516, Alt.=1854.172852m. Speed=4.140000m/h.</desc>
<speed>1.150000</speed>
</trkpt>
<trkpt lat="42.895630" lon="19.641563">
<ele>1854.672852</ele>
<time>2012-04-30T15:16:05Z</time>
<desc>lat.=42.895630, lon.=19.641563, Alt.=1854.672852m. Speed=1.332000m/h.</desc>
<speed>0.370000</speed>
</trkpt>
<trkpt lat="42.895592" lon="19.641588">
<ele>1854.954102</ele>
<time>2012-04-30T15:16:10Z</time>
<desc>lat.=42.895592, lon.=19.641588, Alt.=1854.954102m. Speed=3.636000m/h.</desc>
<speed>1.010000</speed>
</trkpt>
<trkpt lat="42.895565" lon="19.641632">
<ele>1854.641602</ele>
<time>2012-04-30T15:16:15Z</time>
<desc>lat.=42.895565, lon.=19.641632, Alt.=1854.641602m. Speed=3.060000m/h.</desc>
<speed>0.850000</speed>
</trkpt>
<trkpt lat="42.895573" lon="19.641670">
<ele>1854.610352</ele>
<time>2012-04-30T15:16:20Z</time>
<desc>lat.=42.895573, lon.=19.641670, Alt.=1854.610352m. Speed=0.144000m/h.</desc>
<speed>0.040000</speed>
</trkpt>
<trkpt lat="42.895576" lon="19.641668">
<ele>1854.204102</ele>
<time>2012-04-30T15:16:25Z</time>
<desc>lat.=42.895576, lon.=19.641668, Alt.=1854.204102m. Speed=1.944000m/h.</desc>
<speed>0.540000</speed>
</trkpt>
<trkpt lat="42.895580" lon="19.641731">
<ele>1855.454102</ele>
<time>2012-04-30T15:16:30Z</time>
<desc>lat.=42.895580, lon.=19.641731, Alt.=1855.454102m. Speed=3.600000m/h.</desc>
<speed>1.000000</speed>
</trkpt>
<trkpt lat="42.895580" lon="19.641788">
<ele>1856.891602</ele>
<time>2012-04-30T15:16:35Z</time>
<desc>lat.=42.895580, lon.=19.641788, Alt.=1856.891602m. Speed=2.232000m/h.</desc>
<speed>0.620000</speed>
</trkpt>
<trkpt lat="42.895596" lon="19.641850">
<ele>1857.735352</ele>
<time>2012-04-30T15:16:40Z</time>
<desc>lat.=42.895596, lon.=19.641850, Alt.=1857.735352m. Speed=2.880000m/h.</desc>
<speed>0.800000</speed>
</trkpt>
<trkpt lat="42.895596" lon="19.641895">
<ele>1858.985352</ele>
<time>2012-04-30T15:16:45Z</time>
<desc>lat.=42.895596, lon.=19.641895, Alt.=1858.985352m. Speed=0.576000m/h.</desc>
<speed>0.160000</speed>
</trkpt>
<trkpt lat="42.895599" lon="19.641882">
<ele>1858.954102</ele>
<time>2012-04-30T15:16:50Z</time>
<desc>lat.=42.895599, lon.=19.641882, Alt.=1858.954102m. Speed=0.000000m/h.</desc>
<speed>0.000000</speed>
</trkpt>
<trkpt lat="42.895603" lon="19.641895">
<ele>1859.641602</ele>
<time>2012-04-30T15:16:55Z</time>
<desc>lat.=42.895603, lon.=19.641895, Alt.=1859.641602m. Speed=3.420000m/h.</desc>
<speed>0.950000</speed>
</trkpt>
<trkpt lat="42.895630" lon="19.641943">
<ele>1861.329102</ele>
<time>2012-04-30T15:17:00Z</time>
<desc>lat.=42.895630, lon.=19.641943, Alt.=1861.329102m. Speed=2.844000m/h.</desc>
<speed>0.790000</speed>
</trkpt>
<trkpt lat="42.895649" lon="19.641998">
<ele>1861.422852</ele>
<time>2012-04-30T15:17:05Z</time>
<desc>lat.=42.895649, lon.=19.641998, Alt.=1861.422852m. Speed=0.900000m/h.</desc>
<speed>0.250000</speed>
</trkpt>
<trkpt lat="42.895664" lon="19.642036">
<ele>1862.204102</ele>
<time>2012-04-30T15:17:10Z</time>
<desc>lat.=42.895664, lon.=19.642036, Alt.=1862.204102m. Speed=3.132000m/h.</desc>
<speed>0.870000</speed>
</trkpt>
<trkpt lat="42.895668" lon="19.642097">
<ele>1862.954102</ele>
<time>2012-04-30T15:17:15Z</time>
<desc>lat.=42.895668, lon.=19.642097, Alt.=1862.954102m. Speed=2.700000m/h.</desc>
<speed>0.750000</speed>
</trkpt>
<trkpt lat="42.895668" lon="19.642149">
<ele>1863.579102</ele>
<time>2012-04-30T15:17:20Z</time>
<desc>lat.=42.895668, lon.=19.642149, Alt.=1863.579102m. Speed=3.204000m/h.</desc>
<speed>0.890000</speed>
</trkpt>
<trkpt lat="42.895687" lon="19.642214">
<ele>1864.829102</ele>
<time>2012-04-30T15:17:25Z</time>
<desc>lat.=42.895687, lon.=19.642214, Alt.=1864.829102m. Speed=4.788000m/h.</desc>
<speed>1.330000</speed>
</trkpt>
<trkpt lat="42.895710" lon="19.642252">
<ele>1867.704102</ele>
<time>2012-04-30T15:17:30Z</time>
<desc>lat.=42.895710, lon.=19.642252, Alt.=1867.704102m. Speed=2.196000m/h.</desc>
<speed>0.610000</speed>
</trkpt>
<trkpt lat="42.895699" lon="19.642252">
<ele>1868.422852</ele>
<time>2012-04-30T15:17:35Z</time>
<desc>lat.=42.895699, lon.=19.642252, Alt.=1868.422852m. Speed=2.664000m/h.</desc>
<speed>0.740000</speed>
</trkpt>
<trkpt lat="42.895721" lon="19.642305">
<ele>1869.704102</ele>
<time>2012-04-30T15:17:40Z</time>
<desc>lat.=42.895721, lon.=19.642305, Alt.=1869.704102m. Speed=4.212000m/h.</desc>
<speed>1.170000</speed>
</trkpt>
<trkpt lat="42.895744" lon="19.642353">
<ele>1870.454102</ele>
<time>2012-04-30T15:17:45Z</time>
<desc>lat.=42.895744, lon.=19.642353, Alt.=1870.454102m. Speed=4.212000m/h.</desc>
<speed>1.170000</speed>
</trkpt>
<trkpt lat="42.895763" lon="19.642412">
<ele>1870.204102</ele>
<time>2012-04-30T15:17:50Z</time>
<desc>lat.=42.895763, lon.=19.642412, Alt.=1870.204102m. Speed=4.212000m/h.</desc>
<speed>1.170000</speed>
</trkpt>
<trkpt lat="42.895794" lon="19.642479">
<ele>1870.141602</ele>
<time>2012-04-30T15:17:55Z</time>
<desc>lat.=42.895794, lon.=19.642479, Alt.=1870.141602m. Speed=2.808000m/h.</desc>
<speed>0.780000</speed>
</trkpt>
<trkpt lat="42.895813" lon="19.642523">
<ele>1870.829102</ele>
<time>2012-04-30T15:18:00Z</time>
<desc>lat.=42.895813, lon.=19.642523, Alt.=1870.829102m. Speed=3.816000m/h.</desc>
<speed>1.060000</speed>
</trkpt>
<trkpt lat="42.895813" lon="19.642527">
<ele>1871.079102</ele>
<time>2012-04-30T15:18:05Z</time>
<desc>lat.=42.895813, lon.=19.642527, Alt.=1871.079102m. Speed=0.036000m/h.</desc>
<speed>0.010000</speed>
</trkpt>
<trkpt lat="42.895813" lon="19.642527">
<ele>1871.235352</ele>
<time>2012-04-30T15:18:10Z</time>
<desc>lat.=42.895813, lon.=19.642527, Alt.=1871.235352m. Speed=0.000000m/h.</desc>
<speed>0.000000</speed>
</trkpt>
<trkpt lat="42.895813" lon="19.642527">
<ele>1871.360352</ele>
<time>2012-04-30T15:18:15Z</time>
<desc>lat.=42.895813, lon.=19.642527, Alt.=1871.360352m. Speed=0.036000m/h.</desc>
<speed>0.010000</speed>
</trkpt>
<trkpt lat="42.895813" lon="19.642527">
<ele>1871.360352</ele>
<time>2012-04-30T15:18:20Z</time>
<desc>lat.=42.895813, lon.=19.642527, Alt.=1871.360352m. Speed=0.036000m/h.</desc>
<speed>0.010000</speed>
</trkpt>
<trkpt lat="42.895813" lon="19.642527">
<ele>1871.329102</ele>
<time>2012-04-30T15:18:25Z</time>
<desc>lat.=42.895813, lon.=19.642527, Alt.=1871.329102m. Speed=0.000000m/h.</desc>
<speed>0.000000</speed>
</trkpt>
<trkpt lat="42.895824" lon="19.642544">
<ele>1871.016602</ele>
<time>2012-04-30T15:18:30Z</time>
<desc>lat.=42.895824, lon.=19.642544, Alt.=1871.016602m. Speed=2.844000m/h.</desc>
<speed>0.790000</speed>
</trkpt>
<trkpt lat="42.895844" lon="19.642548">
<ele>1870.641602</ele>
<time>2012-04-30T15:18:35Z</time>
<desc>lat.=42.895844, lon.=19.642548, Alt.=1870.641602m. Speed=0.396000m/h.</desc>
<speed>0.110000</speed>
</trkpt>
<trkpt lat="42.895840" lon="19.642553">
<ele>1870.641602</ele>
<time>2012-04-30T15:18:40Z</time>
<desc>lat.=42.895840, lon.=19.642553, Alt.=1870.641602m. Speed=0.036000m/h.</desc>
<speed>0.010000</speed>
</trkpt>
<trkpt lat="42.895840" lon="19.642553">
<ele>1870.672852</ele>
<time>2012-04-30T15:18:45Z</time>
<desc>lat.=42.895840, lon.=19.642553, Alt.=1870.672852m. Speed=0.072000m/h.</desc>
<speed>0.020000</speed>
</trkpt>
<trkpt lat="42.895840" lon="19.642553">
<ele>1870.672852</ele>
<time>2012-04-30T15:18:50Z</time>
<desc>lat.=42.895840, lon.=19.642553, Alt.=1870.672852m. Speed=0.036000m/h.</desc>
<speed>0.010000</speed>
</trkpt>
<trkpt lat="42.895840" lon="19.642553">
<ele>1870.672852</ele>
<time>2012-04-30T15:18:55Z</time>
<desc>lat.=42.895840, lon.=19.642553, Alt.=1870.672852m. Speed=0.360000m/h.</desc>
<speed>0.100000</speed>
</trkpt>
<trkpt lat="42.895840" lon="19.642553">
<ele>1870.672852</ele>
<time>2012-04-30T15:19:00Z</time>
<desc>lat.=42.895840, lon.=19.642553, Alt.=1870.672852m. Speed=0.036000m/h.</desc>
<speed>0.010000</speed>
</trkpt>
<trkpt lat="42.895840" lon="19.642553">
<ele>1870.641602</ele>
<time>2012-04-30T15:19:05Z</time>
<desc>lat.=42.895840, lon.=19.642553, Alt.=1870.641602m. Speed=0.000000m/h.</desc>
<speed>0.000000</speed>
</trkpt>
<trkpt lat="42.895840" lon="19.642551">
<ele>1870.610352</ele>
<time>2012-04-30T15:19:10Z</time>
<desc>lat.=42.895840, lon.=19.642551, Alt.=1870.610352m. Speed=0.108000m/h.</desc>
<speed>0.030000</speed>
</trkpt>
<trkpt lat="42.895840" lon="19.642551">
<ele>1870.547852</ele>
<time>2012-04-30T15:19:15Z</time>
<desc>lat.=42.895840, lon.=19.642551, Alt.=1870.547852m. Speed=0.036000m/h.</desc>
<speed>0.010000</speed>
</trkpt>
<trkpt lat="42.895840" lon="19.642551">
<ele>1870.547852</ele>
<time>2012-04-30T15:19:20Z</time>
<desc>lat.=42.895840, lon.=19.642551, Alt.=1870.547852m. Speed=0.000000m/h.</desc>
<speed>0.000000</speed>
</trkpt>
<trkpt lat="42.895840" lon="19.642551">
<ele>1870.516602</ele>
<time>2012-04-30T15:19:25Z</time>
<desc>lat.=42.895840, lon.=19.642551, Alt.=1870.516602m. Speed=0.000000m/h.</desc>
<speed>0.000000</speed>
</trkpt>
<trkpt lat="42.895840" lon="19.642551">
<ele>1870.485352</ele>
<time>2012-04-30T15:19:30Z</time>
<desc>lat.=42.895840, lon.=19.642551, Alt.=1870.485352m. Speed=0.072000m/h.</desc>
<speed>0.020000</speed>
</trkpt>
<trkpt lat="42.895840" lon="19.642551">
<ele>1870.485352</ele>
<time>2012-04-30T15:19:35Z</time>
<desc>lat.=42.895840, lon.=19.642551, Alt.=1870.485352m. Speed=0.108000m/h.</desc>
<speed>0.030000</speed>
</trkpt>
<trkpt lat="42.895840" lon="19.642551">
<ele>1870.485352</ele>
<time>2012-04-30T15:19:40Z</time>
<desc>lat.=42.895840, lon.=19.642551, Alt.=1870.485352m. Speed=0.000000m/h.</desc>
<speed>0.000000</speed>
</trkpt>
<trkpt lat="42.895840" lon="19.642551">
<ele>1870.454102</ele>
<time>2012-04-30T15:19:45Z</time>
<desc>lat.=42.895840, lon.=19.642551, Alt.=1870.454102m. Speed=0.000000m/h.</desc>
<speed>0.000000</speed>
</trkpt>
<trkpt lat="42.895840" lon="19.642551">
<ele>1870.454102</ele>
<time>2012-04-30T15:19:50Z</time>
<desc>lat.=42.895840, lon.=19.642551, Alt.=1870.454102m. Speed=0.000000m/h.</desc>
<speed>0.000000</speed>
</trkpt>
<trkpt lat="42.895840" lon="19.642550">
<ele>1870.454102</ele>
<time>2012-04-30T15:19:55Z</time>
<desc>lat.=42.895840, lon.=19.642550, Alt.=1870.454102m. Speed=0.000000m/h.</desc>
<speed>0.000000</speed>
</trkpt>
<trkpt lat="42.895840" lon="19.642550">
<ele>1870.422852</ele>
<time>2012-04-30T15:20:00Z</time>
<desc>lat.=42.895840, lon.=19.642550, Alt.=1870.422852m. Speed=0.000000m/h.</desc>
<speed>0.000000</speed>
</trkpt>
<trkpt lat="42.895840" lon="19.642550">
<ele>1870.422852</ele>
<time>2012-04-30T15:20:05Z</time>
<desc>lat.=42.895840, lon.=19.642550, Alt.=1870.422852m. Speed=0.000000m/h.</desc>
<speed>0.000000</speed>
</trkpt>
<trkpt lat="42.895840" lon="19.642550">
<ele>1870.391602</ele>
<time>2012-04-30T15:20:10Z</time>
<desc>lat.=42.895840, lon.=19.642550, Alt.=1870.391602m. Speed=0.000000m/h.</desc>
<speed>0.000000</speed>
</trkpt>
<trkpt lat="42.895844" lon="19.642550">
<ele>1870.391602</ele>
<time>2012-04-30T15:20:15Z</time>
<desc>lat.=42.895844, lon.=19.642550, Alt.=1870.391602m. Speed=0.000000m/h.</desc>
<speed>0.000000</speed>
</trkpt>
<trkpt lat="42.895844" lon="19.642550">
<ele>1870.391602</ele>
<time>2012-04-30T15:20:20Z</time>
<desc>lat.=42.895844, lon.=19.642550, Alt.=1870.391602m. Speed=0.036000m/h.</desc>
<speed>0.010000</speed>
</trkpt>
<trkpt lat="42.895844" lon="19.642550">
<ele>1870.360352</ele>
<time>2012-04-30T15:20:25Z</time>
<desc>lat.=42.895844, lon.=19.642550, Alt.=1870.360352m. Speed=0.000000m/h.</desc>
<speed>0.000000</speed>
</trkpt>
<trkpt lat="42.895844" lon="19.642550">
<ele>1870.360352</ele>
<time>2012-04-30T15:20:30Z</time>
<desc>lat.=42.895844, lon.=19.642550, Alt.=1870.360352m. Speed=0.000000m/h.</desc>
<speed>0.000000</speed>
</trkpt>
<trkpt lat="42.895844" lon="19.642548">
<ele>1870.360352</ele>
<time>2012-04-30T15:20:35Z</time>
<desc>lat.=42.895844, lon.=19.642548, Alt.=1870.360352m. Speed=0.000000m/h.</desc>
<speed>0.000000</speed>
</trkpt>
<trkpt lat="42.895844" lon="19.642548">
<ele>1870.360352</ele>
<time>2012-04-30T15:20:40Z</time>
<desc>lat.=42.895844, lon.=19.642548, Alt.=1870.360352m. Speed=0.000000m/h.</desc>
<speed>0.000000</speed>
</trkpt>
<trkpt lat="42.895844" lon="19.642548">
<ele>1870.329102</ele>
<time>2012-04-30T15:20:45Z</time>
<desc>lat.=42.895844, lon.=19.642548, Alt.=1870.329102m. Speed=0.000000m/h.</desc>
<speed>0.000000</speed>
</trkpt>
<trkpt lat="42.895844" lon="19.642548">
<ele>1870.329102</ele>
<time>2012-04-30T15:20:50Z</time>
<desc>lat.=42.895844, lon.=19.642548, Alt.=1870.329102m. Speed=0.000000m/h.</desc>
<speed>0.000000</speed>
</trkpt>
<trkpt lat="42.895844" lon="19.642548">
<ele>1870.329102</ele>
<time>2012-04-30T15:20:55Z</time>
<desc>lat.=42.895844, lon.=19.642548, Alt.=1870.329102m. Speed=0.000000m/h.</desc>
<speed>0.000000</speed>
</trkpt>
<trkpt lat="42.895844" lon="19.642548">
<ele>1870.329102</ele>
<time>2012-04-30T15:21:00Z</time>
<desc>lat.=42.895844, lon.=19.642548, Alt.=1870.329102m. Speed=0.000000m/h.</desc>
<speed>0.000000</speed>
</trkpt>
<trkpt lat="42.895844" lon="19.642548">
<ele>1870.297852</ele>
<time>2012-04-30T15:21:05Z</time>
<desc>lat.=42.895844, lon.=19.642548, Alt.=1870.297852m. Speed=0.000000m/h.</desc>
<speed>0.000000</speed>
</trkpt>
<trkpt lat="42.895844" lon="19.642548">
<ele>1870.266602</ele>
<time>2012-04-30T15:21:10Z</time>
<desc>lat.=42.895844, lon.=19.642548, Alt.=1870.266602m. Speed=0.000000m/h.</desc>
<speed>0.000000</speed>
</trkpt>
<trkpt lat="42.895844" lon="19.642546">
<ele>1870.266602</ele>
<time>2012-04-30T15:21:15Z</time>
<desc>lat.=42.895844, lon.=19.642546, Alt.=1870.266602m. Speed=0.000000m/h.</desc>
<speed>0.000000</speed>
</trkpt>
<trkpt lat="42.895844" lon="19.642546">
<ele>1870.235352</ele>
<time>2012-04-30T15:21:20Z</time>
<desc>lat.=42.895844, lon.=19.642546, Alt.=1870.235352m. Speed=0.000000m/h.</desc>
<speed>0.000000</speed>
</trkpt>
<trkpt lat="42.895844" lon="19.642546">
<ele>1870.235352</ele>
<time>2012-04-30T15:21:25Z</time>
<desc>lat.=42.895844, lon.=19.642546, Alt.=1870.235352m. Speed=0.000000m/h.</desc>
<speed>0.000000</speed>
</trkpt>
<trkpt lat="42.895844" lon="19.642546">
<ele>1870.204102</ele>
<time>2012-04-30T15:21:30Z</time>
<desc>lat.=42.895844, lon.=19.642546, Alt.=1870.204102m. Speed=0.036000m/h.</desc>
<speed>0.010000</speed>
</trkpt>
<trkpt lat="42.895844" lon="19.642546">
<ele>1870.172852</ele>
<time>2012-04-30T15:21:35Z</time>
<desc>lat.=42.895844, lon.=19.642546, Alt.=1870.172852m. Speed=0.036000m/h.</desc>
<speed>0.010000</speed>
</trkpt>
<trkpt lat="42.895844" lon="19.642546">
<ele>1870.172852</ele>
<time>2012-04-30T15:21:40Z</time>
<desc>lat.=42.895844, lon.=19.642546, Alt.=1870.172852m. Speed=0.036000m/h.</desc>
<speed>0.010000</speed>
</trkpt>
<trkpt lat="42.895844" lon="19.642546">
<ele>1870.141602</ele>
<time>2012-04-30T15:21:45Z</time>
<desc>lat.=42.895844, lon.=19.642546, Alt.=1870.141602m. Speed=0.108000m/h.</desc>
<speed>0.030000</speed>
</trkpt>
<trkpt lat="42.895844" lon="19.642546">
<ele>1870.141602</ele>
<time>2012-04-30T15:21:50Z</time>
<desc>lat.=42.895844, lon.=19.642546, Alt.=1870.141602m. Speed=0.072000m/h.</desc>
<speed>0.020000</speed>
</trkpt>
<trkpt lat="42.895847" lon="19.642544">
<ele>1869.079102</ele>
<time>2012-04-30T15:21:55Z</time>
<desc>lat.=42.895847, lon.=19.642544, Alt.=1869.079102m. Speed=0.216000m/h.</desc>
<speed>0.060000</speed>
</trkpt>
<trkpt lat="42.895847" lon="19.642542">
<ele>1868.641602</ele>
<time>2012-04-30T15:22:00Z</time>
<desc>lat.=42.895847, lon.=19.642542, Alt.=1868.641602m. Speed=0.000000m/h.</desc>
<speed>0.000000</speed>
</trkpt>
<trkpt lat="42.895847" lon="19.642542">
<ele>1868.641602</ele>
<time>2012-04-30T15:22:05Z</time>
<desc>lat.=42.895847, lon.=19.642542, Alt.=1868.641602m. Speed=0.000000m/h.</desc>
<speed>0.000000</speed>
</trkpt>
<trkpt lat="42.895847" lon="19.642542">
<ele>1868.610352</ele>
<time>2012-04-30T15:22:10Z</time>
<desc>lat.=42.895847, lon.=19.642542, Alt.=1868.610352m. Speed=0.000000m/h.</desc>
<speed>0.000000</speed>
</trkpt>
<trkpt lat="42.895847" lon="19.642542">
<ele>1868.610352</ele>
<time>2012-04-30T15:22:15Z</time>
<desc>lat.=42.895847, lon.=19.642542, Alt.=1868.610352m. Speed=0.000000m/h.</desc>
<speed>0.000000</speed>
</trkpt>
<trkpt lat="42.895847" lon="19.642542">
<ele>1868.579102</ele>
<time>2012-04-30T15:22:20Z</time>
<desc>lat.=42.895847, lon.=19.642542, Alt.=1868.579102m. Speed=0.036000m/h.</desc>
<speed>0.010000</speed>
</trkpt>
<trkpt lat="42.895847" lon="19.642542">
<ele>1868.547852</ele>
<time>2012-04-30T15:22:25Z</time>
<desc>lat.=42.895847, lon.=19.642542, Alt.=1868.547852m. Speed=0.000000m/h.</desc>
<speed>0.000000</speed>
</trkpt>
<trkpt lat="42.895847" lon="19.642542">
<ele>1868.547852</ele>
<time>2012-04-30T15:22:30Z</time>
<desc>lat.=42.895847, lon.=19.642542, Alt.=1868.547852m. Speed=0.000000m/h.</desc>
<speed>0.000000</speed>
</trkpt>
<trkpt lat="42.895847" lon="19.642542">
<ele>1868.516602</ele>
<time>2012-04-30T15:22:35Z</time>
<desc>lat.=42.895847, lon.=19.642542, Alt.=1868.516602m. Speed=0.000000m/h.</desc>
<speed>0.000000</speed>
</trkpt>
<trkpt lat="42.895847" lon="19.642540">
<ele>1868.516602</ele>
<time>2012-04-30T15:22:40Z</time>
<desc>lat.=42.895847, lon.=19.642540, Alt.=1868.516602m. Speed=0.000000m/h.</desc>
<speed>0.000000</speed>
</trkpt>
<trkpt lat="42.895847" lon="19.642540">
<ele>1868.485352</ele>
<time>2012-04-30T15:22:45Z</time>
<desc>lat.=42.895847, lon.=19.642540, Alt.=1868.485352m. Speed=0.000000m/h.</desc>
<speed>0.000000</speed>
</trkpt>
<trkpt lat="42.895847" lon="19.642540">
<ele>1868.485352</ele>
<time>2012-04-30T15:22:50Z</time>
<desc>lat.=42.895847, lon.=19.642540, Alt.=1868.485352m. Speed=0.000000m/h.</desc>
<speed>0.000000</speed>
</trkpt>
<trkpt lat="42.895847" lon="19.642540">
<ele>1868.454102</ele>
<time>2012-04-30T15:22:55Z</time>
<desc>lat.=42.895847, lon.=19.642540, Alt.=1868.454102m. Speed=0.000000m/h.</desc>
<speed>0.000000</speed>
</trkpt>
<trkpt lat="42.895847" lon="19.642540">
<ele>1868.454102</ele>
<time>2012-04-30T15:23:00Z</time>
<desc>lat.=42.895847, lon.=19.642540, Alt.=1868.454102m. Speed=0.000000m/h.</desc>
<speed>0.000000</speed>
</trkpt>
<trkpt lat="42.895847" lon="19.642540">
<ele>1868.454102</ele>
<time>2012-04-30T15:23:05Z</time>
<desc>lat.=42.895847, lon.=19.642540, Alt.=1868.454102m. Speed=0.000000m/h.</desc>
<speed>0.000000</speed>
</trkpt>
<trkpt lat="42.895847" lon="19.642540">
<ele>1868.422852</ele>
<time>2012-04-30T15:23:10Z</time>
<desc>lat.=42.895847, lon.=19.642540, Alt.=1868.422852m. Speed=0.036000m/h.</desc>
<speed>0.010000</speed>
</trkpt>
<trkpt lat="42.895847" lon="19.642540">
<ele>1868.422852</ele>
<time>2012-04-30T15:23:15Z</time>
<desc>lat.=42.895847, lon.=19.642540, Alt.=1868.422852m. Speed=0.000000m/h.</desc>
<speed>0.000000</speed>
</trkpt>
<trkpt lat="42.895847" lon="19.642540">
<ele>1868.391602</ele>
<time>2012-04-30T15:23:20Z</time>
<desc>lat.=42.895847, lon.=19.642540, Alt.=1868.391602m. Speed=0.000000m/h.</desc>
<speed>0.000000</speed>
</trkpt>
<trkpt lat="42.895847" lon="19.642540">
<ele>1868.360352</ele>
<time>2012-04-30T15:23:25Z</time>
<desc>lat.=42.895847, lon.=19.642540, Alt.=1868.360352m. Speed=0.000000m/h.</desc>
<speed>0.000000</speed>
</trkpt>
<trkpt lat="42.895847" lon="19.642540">
<ele>1868.360352</ele>
<time>2012-04-30T15:23:30Z</time>
<desc>lat.=42.895847, lon.=19.642540, Alt.=1868.360352m. Speed=0.000000m/h.</desc>
<speed>0.000000</speed>
</trkpt>
<trkpt lat="42.895847" lon="19.642538">
<ele>1868.329102</ele>
<time>2012-04-30T15:23:35Z</time>
<desc>lat.=42.895847, lon.=19.642538, Alt.=1868.329102m. Speed=0.000000m/h.</desc>
<speed>0.000000</speed>
</trkpt>
<trkpt lat="42.895847" lon="19.642538">
<ele>1868.329102</ele>
<time>2012-04-30T15:23:40Z</time>
<desc>lat.=42.895847, lon.=19.642538, Alt.=1868.329102m. Speed=0.000000m/h.</desc>
<speed>0.000000</speed>
</trkpt>
<trkpt lat="42.895847" lon="19.642538">
<ele>1868.297852</ele>
<time>2012-04-30T15:23:45Z</time>
<desc>lat.=42.895847, lon.=19.642538, Alt.=1868.297852m. Speed=0.000000m/h.</desc>
<speed>0.000000</speed>
</trkpt>
<trkpt lat="42.895847" lon="19.642538">
<ele>1868.297852</ele>
<time>2012-04-30T15:23:50Z</time>
<desc>lat.=42.895847, lon.=19.642538, Alt.=1868.297852m. Speed=0.000000m/h.</desc>
<speed>0.000000</speed>
</trkpt>
<trkpt lat="42.895847" lon="19.642538">
<ele>1868.266602</ele>
<time>2012-04-30T15:23:55Z</time>
<desc>lat.=42.895847, lon.=19.642538, Alt.=1868.266602m. Speed=0.000000m/h.</desc>
<speed>0.000000</speed>
</trkpt>
<trkpt lat="42.895847" lon="19.642538">
<ele>1868.266602</ele>
<time>2012-04-30T15:24:00Z</time>
<desc>lat.=42.895847, lon.=19.642538, Alt.=1868.266602m. Speed=0.000000m/h.</desc>
<speed>0.000000</speed>
</trkpt>
<trkpt lat="42.895847" lon="19.642538">
<ele>1868.235352</ele>
<time>2012-04-30T15:24:05Z</time>
<desc>lat.=42.895847, lon.=19.642538, Alt.=1868.235352m. Speed=0.000000m/h.</desc>
<speed>0.000000</speed>
</trkpt>
<trkpt lat="42.895847" lon="19.642538">
<ele>1868.204102</ele>
<time>2012-04-30T15:24:10Z</time>
<desc>lat.=42.895847, lon.=19.642538, Alt.=1868.204102m. Speed=0.000000m/h.</desc>
<speed>0.000000</speed>
</trkpt>
<trkpt lat="42.895847" lon="19.642538">
<ele>1868.204102</ele>
<time>2012-04-30T15:24:15Z</time>
<desc>lat.=42.895847, lon.=19.642538, Alt.=1868.204102m. Speed=0.000000m/h.</desc>
<speed>0.000000</speed>
</trkpt>
<trkpt lat="42.895847" lon="19.642538">
<ele>1868.172852</ele>
<time>2012-04-30T15:24:20Z</time>
<desc>lat.=42.895847, lon.=19.642538, Alt.=1868.172852m. Speed=0.000000m/h.</desc>
<speed>0.000000</speed>
</trkpt>
<trkpt lat="42.895847" lon="19.642538">
<ele>1868.172852</ele>
<time>2012-04-30T15:24:25Z</time>
<desc>lat.=42.895847, lon.=19.642538, Alt.=1868.172852m. Speed=0.000000m/h.</desc>
<speed>0.000000</speed>
</trkpt>
<trkpt lat="42.895847" lon="19.642538">
<ele>1868.141602</ele>
<time>2012-04-30T15:24:30Z</time>
<desc>lat.=42.895847, lon.=19.642538, Alt.=1868.141602m. Speed=0.000000m/h.</desc>
<speed>0.000000</speed>
</trkpt>
<trkpt lat="42.895847" lon="19.642538">
<ele>1868.110352</ele>
<time>2012-04-30T15:24:35Z</time>
<desc>lat.=42.895847, lon.=19.642538, Alt.=1868.110352m. Speed=0.000000m/h.</desc>
<speed>0.000000</speed>
</trkpt>
<trkpt lat="42.895847" lon="19.642536">
<ele>1868.110352</ele>
<time>2012-04-30T15:24:40Z</time>
<desc>lat.=42.895847, lon.=19.642536, Alt.=1868.110352m. Speed=0.000000m/h.</desc>
<speed>0.000000</speed>
</trkpt>
<trkpt lat="42.895847" lon="19.642536">
<ele>1868.079102</ele>
<time>2012-04-30T15:24:45Z</time>
<desc>lat.=42.895847, lon.=19.642536, Alt.=1868.079102m. Speed=0.000000m/h.</desc>
<speed>0.000000</speed>
</trkpt>
<trkpt lat="42.895851" lon="19.642536">
<ele>1868.079102</ele>
<time>2012-04-30T15:24:50Z</time>
<desc>lat.=42.895851, lon.=19.642536, Alt.=1868.079102m. Speed=0.000000m/h.</desc>
<speed>0.000000</speed>
</trkpt>
<trkpt lat="42.895851" lon="19.642536">
<ele>1868.047852</ele>
<time>2012-04-30T15:24:55Z</time>
<desc>lat.=42.895851, lon.=19.642536, Alt.=1868.047852m. Speed=0.000000m/h.</desc>
<speed>0.000000</speed>
</trkpt>
<trkpt lat="42.895847" lon="19.642536">
<ele>1868.016602</ele>
<time>2012-04-30T15:25:00Z</time>
<desc>lat.=42.895847, lon.=19.642536, Alt.=1868.016602m. Speed=0.000000m/h.</desc>
<speed>0.000000</speed>
</trkpt>
<trkpt lat="42.895847" lon="19.642536">
<ele>1868.016602</ele>
<time>2012-04-30T15:25:05Z</time>
<desc>lat.=42.895847, lon.=19.642536, Alt.=1868.016602m. Speed=0.000000m/h.</desc>
<speed>0.000000</speed>
</trkpt>
<trkpt lat="42.895847" lon="19.642536">
<ele>1867.985352</ele>
<time>2012-04-30T15:25:10Z</time>
<desc>lat.=42.895847, lon.=19.642536, Alt.=1867.985352m. Speed=0.000000m/h.</desc>
<speed>0.000000</speed>
</trkpt>
<trkpt lat="42.895847" lon="19.642536">
<ele>1867.985352</ele>
<time>2012-04-30T15:25:15Z</time>
<desc>lat.=42.895847, lon.=19.642536, Alt.=1867.985352m. Speed=0.000000m/h.</desc>
<speed>0.000000</speed>
</trkpt>
<trkpt lat="42.895847" lon="19.642536">
<ele>1867.954102</ele>
<time>2012-04-30T15:25:20Z</time>
<desc>lat.=42.895847, lon.=19.642536, Alt.=1867.954102m. Speed=0.000000m/h.</desc>
<speed>0.000000</speed>
</trkpt>
<trkpt lat="42.895847" lon="19.642536">
<ele>1867.922852</ele>
<time>2012-04-30T15:25:25Z</time>
<desc>lat.=42.895847, lon.=19.642536, Alt.=1867.922852m. Speed=0.000000m/h.</desc>
<speed>0.000000</speed>
</trkpt>
<trkpt lat="42.895847" lon="19.642536">
<ele>1867.922852</ele>
<time>2012-04-30T15:25:30Z</time>
<desc>lat.=42.895847, lon.=19.642536, Alt.=1867.922852m. Speed=0.000000m/h.</desc>
<speed>0.000000</speed>
</trkpt>
<trkpt lat="42.895847" lon="19.642536">
<ele>1867.891602</ele>
<time>2012-04-30T15:25:35Z</time>
<desc>lat.=42.895847, lon.=19.642536, Alt.=1867.891602m. Speed=0.036000m/h.</desc>
<speed>0.010000</speed>
</trkpt>
<trkpt lat="42.895847" lon="19.642536">
<ele>1867.860352</ele>
<time>2012-04-30T15:25:40Z</time>
<desc>lat.=42.895847, lon.=19.642536, Alt.=1867.860352m. Speed=0.036000m/h.</desc>
<speed>0.010000</speed>
</trkpt>
<trkpt lat="42.895847" lon="19.642536">
<ele>1867.860352</ele>
<time>2012-04-30T15:25:45Z</time>
<desc>lat.=42.895847, lon.=19.642536, Alt.=1867.860352m. Speed=0.000000m/h.</desc>
<speed>0.000000</speed>
</trkpt>
<trkpt lat="42.895847" lon="19.642536">
<ele>1867.829102</ele>
<time>2012-04-30T15:25:50Z</time>
<desc>lat.=42.895847, lon.=19.642536, Alt.=1867.829102m. Speed=0.000000m/h.</desc>
<speed>0.000000</speed>
</trkpt>
<trkpt lat="42.895847" lon="19.642536">
<ele>1867.829102</ele>
<time>2012-04-30T15:25:55Z</time>
<desc>lat.=42.895847, lon.=19.642536, Alt.=1867.829102m. Speed=0.000000m/h.</desc>
<speed>0.000000</speed>
</trkpt>
<trkpt lat="42.895847" lon="19.642536">
<ele>1867.797852</ele>
<time>2012-04-30T15:26:00Z</time>
<desc>lat.=42.895847, lon.=19.642536, Alt.=1867.797852m. Speed=0.000000m/h.</desc>
<speed>0.000000</speed>
</trkpt>
<trkpt lat="42.895847" lon="19.642536">
<ele>1867.766602</ele>
<time>2012-04-30T15:26:05Z</time>
<desc>lat.=42.895847, lon.=19.642536, Alt.=1867.766602m. Speed=0.000000m/h.</desc>
<speed>0.000000</speed>
</trkpt>
<trkpt lat="42.895847" lon="19.642536">
<ele>1867.735352</ele>
<time>2012-04-30T15:26:10Z</time>
<desc>lat.=42.895847, lon.=19.642536, Alt.=1867.735352m. Speed=0.000000m/h.</desc>
<speed>0.000000</speed>
</trkpt>
<trkpt lat="42.895847" lon="19.642536">
<ele>1867.735352</ele>
<time>2012-04-30T15:26:15Z</time>
<desc>lat.=42.895847, lon.=19.642536, Alt.=1867.735352m. Speed=0.000000m/h.</desc>
<speed>0.000000</speed>
</trkpt>
<trkpt lat="42.895847" lon="19.642536">
<ele>1867.704102</ele>
<time>2012-04-30T15:26:20Z</time>
<desc>lat.=42.895847, lon.=19.642536, Alt.=1867.704102m. Speed=0.072000m/h.</desc>
<speed>0.020000</speed>
</trkpt>
<trkpt lat="42.895847" lon="19.642536">
<ele>1867.704102</ele>
<time>2012-04-30T15:26:25Z</time>
<desc>lat.=42.895847, lon.=19.642536, Alt.=1867.704102m. Speed=0.000000m/h.</desc>
<speed>0.000000</speed>
</trkpt>
<trkpt lat="42.895847" lon="19.642536">
<ele>1867.672852</ele>
<time>2012-04-30T15:26:30Z</time>
<desc>lat.=42.895847, lon.=19.642536, Alt.=1867.672852m. Speed=0.000000m/h.</desc>
<speed>0.000000</speed>
</trkpt>
<trkpt lat="42.895847" lon="19.642536">
<ele>1867.672852</ele>
<time>2012-04-30T15:26:35Z</time>
<desc>lat.=42.895847, lon.=19.642536, Alt.=1867.672852m. Speed=0.000000m/h.</desc>
<speed>0.000000</speed>
</trkpt>
<trkpt lat="42.895847" lon="19.642536">
<ele>1867.641602</ele>
<time>2012-04-30T15:26:40Z</time>
<desc>lat.=42.895847, lon.=19.642536, Alt.=1867.641602m. Speed=0.000000m/h.</desc>
<speed>0.000000</speed>
</trkpt>
<trkpt lat="42.895847" lon="19.642536">
<ele>1867.641602</ele>
<time>2012-04-30T15:26:45Z</time>
<desc>lat.=42.895847, lon.=19.642536, Alt.=1867.641602m. Speed=0.072000m/h.</desc>
<speed>0.020000</speed>
</trkpt>
<trkpt lat="42.895847" lon="19.642538">
<ele>1867.610352</ele>
<time>2012-04-30T15:26:50Z</time>
<desc>lat.=42.895847, lon.=19.642538, Alt.=1867.610352m. Speed=0.036000m/h.</desc>
<speed>0.010000</speed>
</trkpt>
<trkpt lat="42.895847" lon="19.642538">
<ele>1867.579102</ele>
<time>2012-04-30T15:26:55Z</time>
<desc>lat.=42.895847, lon.=19.642538, Alt.=1867.579102m. Speed=0.000000m/h.</desc>
<speed>0.000000</speed>
</trkpt>
<trkpt lat="42.895847" lon="19.642538">
<ele>1867.579102</ele>
<time>2012-04-30T15:27:00Z</time>
<desc>lat.=42.895847, lon.=19.642538, Alt.=1867.579102m. Speed=0.036000m/h.</desc>
<speed>0.010000</speed>
</trkpt>
<trkpt lat="42.895847" lon="19.642538">
<ele>1867.547852</ele>
<time>2012-04-30T15:27:05Z</time>
<desc>lat.=42.895847, lon.=19.642538, Alt.=1867.547852m. Speed=0.000000m/h.</desc>
<speed>0.000000</speed>
</trkpt>
<trkpt lat="42.895847" lon="19.642538">
<ele>1867.516602</ele>
<time>2012-04-30T15:27:10Z</time>
<desc>lat.=42.895847, lon.=19.642538, Alt.=1867.516602m. Speed=0.000000m/h.</desc>
<speed>0.000000</speed>
</trkpt>
<trkpt lat="42.895847" lon="19.642538">
<ele>1867.516602</ele>
<time>2012-04-30T15:27:15Z</time>
<desc>lat.=42.895847, lon.=19.642538, Alt.=1867.516602m. Speed=0.144000m/h.</desc>
<speed>0.040000</speed>
</trkpt>
<trkpt lat="42.895847" lon="19.642538">
<ele>1867.485352</ele>
<time>2012-04-30T15:27:20Z</time>
<desc>lat.=42.895847, lon.=19.642538, Alt.=1867.485352m. Speed=0.000000m/h.</desc>
<speed>0.000000</speed>
</trkpt>
<trkpt lat="42.895847" lon="19.642538">
<ele>1867.454102</ele>
<time>2012-04-30T15:27:25Z</time>
<desc>lat.=42.895847, lon.=19.642538, Alt.=1867.454102m. Speed=0.000000m/h.</desc>
<speed>0.000000</speed>
</trkpt>
<trkpt lat="42.895847" lon="19.642538">
<ele>1867.422852</ele>
<time>2012-04-30T15:27:30Z</time>
<desc>lat.=42.895847, lon.=19.642538, Alt.=1867.422852m. Speed=0.000000m/h.</desc>
<speed>0.000000</speed>
</trkpt>
<trkpt lat="42.895847" lon="19.642538">
<ele>1867.422852</ele>
<time>2012-04-30T15:27:35Z</time>
<desc>lat.=42.895847, lon.=19.642538, Alt.=1867.422852m. Speed=0.036000m/h.</desc>
<speed>0.010000</speed>
</trkpt>
<trkpt lat="42.895847" lon="19.642538">
<ele>1867.391602</ele>
<time>2012-04-30T15:27:40Z</time>
<desc>lat.=42.895847, lon.=19.642538, Alt.=1867.391602m. Speed=0.000000m/h.</desc>
<speed>0.000000</speed>
</trkpt>
<trkpt lat="42.895847" lon="19.642538">
<ele>1867.391602</ele>
<time>2012-04-30T15:27:45Z</time>
<desc>lat.=42.895847, lon.=19.642538, Alt.=1867.391602m. Speed=0.000000m/h.</desc>
<speed>0.000000</speed>
</trkpt>
<trkpt lat="42.895847" lon="19.642538">
<ele>1867.360352</ele>
<time>2012-04-30T15:27:50Z</time>
<desc>lat.=42.895847, lon.=19.642538, Alt.=1867.360352m. Speed=0.036000m/h.</desc>
<speed>0.010000</speed>
</trkpt>
<trkpt lat="42.895847" lon="19.642538">
<ele>1867.360352</ele>
<time>2012-04-30T15:27:55Z</time>
<desc>lat.=42.895847, lon.=19.642538, Alt.=1867.360352m. Speed=0.036000m/h.</desc>
<speed>0.010000</speed>
</trkpt>
<trkpt lat="42.895847" lon="19.642538">
<ele>1867.329102</ele>
<time>2012-04-30T15:28:00Z</time>
<desc>lat.=42.895847, lon.=19.642538, Alt.=1867.329102m. Speed=0.000000m/h.</desc>
<speed>0.000000</speed>
</trkpt>
<trkpt lat="42.895847" lon="19.642538">
<ele>1867.329102</ele>
<time>2012-04-30T15:28:05Z</time>
<desc>lat.=42.895847, lon.=19.642538, Alt.=1867.329102m. Speed=0.000000m/h.</desc>
<speed>0.000000</speed>
</trkpt>
<trkpt lat="42.895847" lon="19.642538">
<ele>1867.297852</ele>
<time>2012-04-30T15:28:10Z</time>
<desc>lat.=42.895847, lon.=19.642538, Alt.=1867.297852m. Speed=0.000000m/h.</desc>
<speed>0.000000</speed>
</trkpt>
<trkpt lat="42.895847" lon="19.642540">
<ele>1867.297852</ele>
<time>2012-04-30T15:28:15Z</time>
<desc>lat.=42.895847, lon.=19.642540, Alt.=1867.297852m. Speed=0.000000m/h.</desc>
<speed>0.000000</speed>
</trkpt>
<trkpt lat="42.895847" lon="19.642540">
<ele>1867.266602</ele>
<time>2012-04-30T15:28:20Z</time>
<desc>lat.=42.895847, lon.=19.642540, Alt.=1867.266602m. Speed=0.000000m/h.</desc>
<speed>0.000000</speed>
</trkpt>
<trkpt lat="42.895847" lon="19.642540">
<ele>1867.235352</ele>
<time>2012-04-30T15:28:25Z</time>
<desc>lat.=42.895847, lon.=19.642540, Alt.=1867.235352m. Speed=0.000000m/h.</desc>
<speed>0.000000</speed>
</trkpt>
<trkpt lat="42.895847" lon="19.642540">
<ele>1867.204102</ele>
<time>2012-04-30T15:28:30Z</time>
<desc>lat.=42.895847, lon.=19.642540, Alt.=1867.204102m. Speed=0.036000m/h.</desc>
<speed>0.010000</speed>
</trkpt>
<trkpt lat="42.895847" lon="19.642540">
<ele>1867.204102</ele>
<time>2012-04-30T15:28:35Z</time>
<desc>lat.=42.895847, lon.=19.642540, Alt.=1867.204102m. Speed=0.036000m/h.</desc>
<speed>0.010000</speed>
</trkpt>
<trkpt lat="42.895847" lon="19.642540">
<ele>1867.172852</ele>
<time>2012-04-30T15:28:40Z</time>
<desc>lat.=42.895847, lon.=19.642540, Alt.=1867.172852m. Speed=0.036000m/h.</desc>
<speed>0.010000</speed>
</trkpt>
<trkpt lat="42.895847" lon="19.642540">
<ele>1867.110352</ele>
<time>2012-04-30T15:28:45Z</time>
<desc>lat.=42.895847, lon.=19.642540, Alt.=1867.110352m. Speed=0.000000m/h.</desc>
<speed>0.000000</speed>
</trkpt>
<trkpt lat="42.895847" lon="19.642540">
<ele>1867.110352</ele>
<time>2012-04-30T15:28:50Z</time>
<desc>lat.=42.895847, lon.=19.642540, Alt.=1867.110352m. Speed=0.000000m/h.</desc>
<speed>0.000000</speed>
</trkpt>
<trkpt lat="42.895847" lon="19.642540">
<ele>1867.110352</ele>
<time>2012-04-30T15:28:55Z</time>
<desc>lat.=42.895847, lon.=19.642540, Alt.=1867.110352m. Speed=0.036000m/h.</desc>
<speed>0.010000</speed>
</trkpt>
<trkpt lat="42.895847" lon="19.642540">
<ele>1867.110352</ele>
<time>2012-04-30T15:29:00Z</time>
<desc>lat.=42.895847, lon.=19.642540, Alt.=1867.110352m. Speed=0.036000m/h.</desc>
<speed>0.010000</speed>
</trkpt>
<trkpt lat="42.895847" lon="19.642540">
<ele>1867.110352</ele>
<time>2012-04-30T15:29:05Z</time>
<desc>lat.=42.895847, lon.=19.642540, Alt.=1867.110352m. Speed=0.000000m/h.</desc>
<speed>0.000000</speed>
</trkpt>
<trkpt lat="42.895847" lon="19.642540">
<ele>1867.110352</ele>
<time>2012-04-30T15:29:10Z</time>
<desc>lat.=42.895847, lon.=19.642540, Alt.=1867.110352m. Speed=0.000000m/h.</desc>
<speed>0.000000</speed>
</trkpt>
<trkpt lat="42.895851" lon="19.642540">
<ele>1867.079102</ele>
<time>2012-04-30T15:29:15Z</time>
<desc>lat.=42.895851, lon.=19.642540, Alt.=1867.079102m. Speed=0.036000m/h.</desc>
<speed>0.010000</speed>
</trkpt>
<trkpt lat="42.895851" lon="19.642540">
<ele>1867.079102</ele>
<time>2012-04-30T15:29:20Z</time>
<desc>lat.=42.895851, lon.=19.642540, Alt.=1867.079102m. Speed=0.108000m/h.</desc>
<speed>0.030000</speed>
</trkpt>
<trkpt lat="42.895851" lon="19.642538">
<ele>1867.079102</ele>
<time>2012-04-30T15:29:25Z</time>
<desc>lat.=42.895851, lon.=19.642538, Alt.=1867.079102m. Speed=0.036000m/h.</desc>
<speed>0.010000</speed>
</trkpt>
<trkpt lat="42.895851" lon="19.642538">
<ele>1867.079102</ele>
<time>2012-04-30T15:29:30Z</time>
<desc>lat.=42.895851, lon.=19.642538, Alt.=1867.079102m. Speed=0.072000m/h.</desc>
<speed>0.020000</speed>
</trkpt>
<trkpt lat="42.895851" lon="19.642538">
<ele>1867.047852</ele>
<time>2012-04-30T15:29:35Z</time>
<desc>lat.=42.895851, lon.=19.642538, Alt.=1867.047852m. Speed=0.072000m/h.</desc>
<speed>0.020000</speed>
</trkpt>
<trkpt lat="42.895851" lon="19.642538">
<ele>1867.047852</ele>
<time>2012-04-30T15:29:40Z</time>
<desc>lat.=42.895851, lon.=19.642538, Alt.=1867.047852m. Speed=0.072000m/h.</desc>
<speed>0.020000</speed>
</trkpt>
<trkpt lat="42.895851" lon="19.642538">
<ele>1867.047852</ele>
<time>2012-04-30T15:29:45Z</time>
<desc>lat.=42.895851, lon.=19.642538, Alt.=1867.047852m. Speed=0.036000m/h.</desc>
<speed>0.010000</speed>
</trkpt>
<trkpt lat="42.895851" lon="19.642538">
<ele>1867.047852</ele>
<time>2012-04-30T15:29:50Z</time>
<desc>lat.=42.895851, lon.=19.642538, Alt.=1867.047852m. Speed=0.000000m/h.</desc>
<speed>0.000000</speed>
</trkpt>
<trkpt lat="42.895851" lon="19.642538">
<ele>1867.047852</ele>
<time>2012-04-30T15:29:55Z</time>
<desc>lat.=42.895851, lon.=19.642538, Alt.=1867.047852m. Speed=0.144000m/h.</desc>
<speed>0.040000</speed>
</trkpt>
<trkpt lat="42.895851" lon="19.642538">
<ele>1867.016602</ele>
<time>2012-04-30T15:30:00Z</time>
<desc>lat.=42.895851, lon.=19.642538, Alt.=1867.016602m. Speed=0.252000m/h.</desc>
<speed>0.070000</speed>
</trkpt>
<trkpt lat="42.895851" lon="19.642536">
<ele>1867.016602</ele>
<time>2012-04-30T15:30:05Z</time>
<desc>lat.=42.895851, lon.=19.642536, Alt.=1867.016602m. Speed=0.036000m/h.</desc>
<speed>0.010000</speed>
</trkpt>
<trkpt lat="42.895851" lon="19.642536">
<ele>1867.016602</ele>
<time>2012-04-30T15:30:10Z</time>
<desc>lat.=42.895851, lon.=19.642536, Alt.=1867.016602m. Speed=0.000000m/h.</desc>
<speed>0.000000</speed>
</trkpt>
<trkpt lat="42.895851" lon="19.642536">
<ele>1867.016602</ele>
<time>2012-04-30T15:30:15Z</time>
<desc>lat.=42.895851, lon.=19.642536, Alt.=1867.016602m. Speed=0.036000m/h.</desc>
<speed>0.010000</speed>
</trkpt>
<trkpt lat="42.895855" lon="19.642536">
<ele>1866.985352</ele>
<time>2012-04-30T15:30:20Z</time>
<desc>lat.=42.895855, lon.=19.642536, Alt.=1866.985352m. Speed=0.072000m/h.</desc>
<speed>0.020000</speed>
</trkpt>
<trkpt lat="42.895855" lon="19.642536">
<ele>1866.985352</ele>
<time>2012-04-30T15:30:25Z</time>
<desc>lat.=42.895855, lon.=19.642536, Alt.=1866.985352m. Speed=0.036000m/h.</desc>
<speed>0.010000</speed>
</trkpt>
<trkpt lat="42.895855" lon="19.642536">
<ele>1866.954102</ele>
<time>2012-04-30T15:30:30Z</time>
<desc>lat.=42.895855, lon.=19.642536, Alt.=1866.954102m. Speed=0.072000m/h.</desc>
<speed>0.020000</speed>
</trkpt>
<trkpt lat="42.895855" lon="19.642536">
<ele>1866.922852</ele>
<time>2012-04-30T15:30:35Z</time>
<desc>lat.=42.895855, lon.=19.642536, Alt.=1866.922852m. Speed=0.000000m/h.</desc>
<speed>0.000000</speed>
</trkpt>
<trkpt lat="42.895855" lon="19.642534">
<ele>1866.891602</ele>
<time>2012-04-30T15:30:40Z</time>
<desc>lat.=42.895855, lon.=19.642534, Alt.=1866.891602m. Speed=0.000000m/h.</desc>
<speed>0.000000</speed>
</trkpt>
<trkpt lat="42.895855" lon="19.642534">
<ele>1866.860352</ele>
<time>2012-04-30T15:30:45Z</time>
<desc>lat.=42.895855, lon.=19.642534, Alt.=1866.860352m. Speed=0.072000m/h.</desc>
<speed>0.020000</speed>
</trkpt>
<trkpt lat="42.895855" lon="19.642534">
<ele>1866.860352</ele>
<time>2012-04-30T15:30:50Z</time>
<desc>lat.=42.895855, lon.=19.642534, Alt.=1866.860352m. Speed=0.000000m/h.</desc>
<speed>0.000000</speed>
</trkpt>
<trkpt lat="42.895870" lon="19.642540">
<ele>1867.110352</ele>
<time>2012-04-30T15:30:55Z</time>
<desc>lat.=42.895870, lon.=19.642540, Alt.=1867.110352m. Speed=3.888000m/h.</desc>
<speed>1.080000</speed>
</trkpt>
<trkpt lat="42.895927" lon="19.642574">
<ele>1868.172852</ele>
<time>2012-04-30T15:31:00Z</time>
<desc>lat.=42.895927, lon.=19.642574, Alt.=1868.172852m. Speed=3.240000m/h.</desc>
<speed>0.900000</speed>
</trkpt>
<trkpt lat="42.895973" lon="19.642612">
<ele>1867.797852</ele>
<time>2012-04-30T15:31:05Z</time>
<desc>lat.=42.895973, lon.=19.642612, Alt.=1867.797852m. Speed=5.040000m/h.</desc>
<speed>1.400000</speed>
</trkpt>
<trkpt lat="42.896008" lon="19.642672">
<ele>1867.422852</ele>
<time>2012-04-30T15:31:10Z</time>
<desc>lat.=42.896008, lon.=19.642672, Alt.=1867.422852m. Speed=3.420000m/h.</desc>
<speed>0.950000</speed>
</trkpt>
<trkpt lat="42.896027" lon="19.642717">
<ele>1866.672852</ele>
<time>2012-04-30T15:31:15Z</time>
<desc>lat.=42.896027, lon.=19.642717, Alt.=1866.672852m. Speed=3.852000m/h.</desc>
<speed>1.070000</speed>
</trkpt>
<trkpt lat="42.896053" lon="19.642813">
<ele>1865.891602</ele>
<time>2012-04-30T15:31:20Z</time>
<desc>lat.=42.896053, lon.=19.642813, Alt.=1865.891602m. Speed=6.336000m/h.</desc>
<speed>1.760000</speed>
</trkpt>
<trkpt lat="42.896084" lon="19.642881">
<ele>1865.704102</ele>
<time>2012-04-30T15:31:25Z</time>
<desc>lat.=42.896084, lon.=19.642881, Alt.=1865.704102m. Speed=3.384000m/h.</desc>
<speed>0.940000</speed>
</trkpt>
<trkpt lat="42.896095" lon="19.642946">
<ele>1865.891602</ele>
<time>2012-04-30T15:31:30Z</time>
<desc>lat.=42.896095, lon.=19.642946, Alt.=1865.891602m. Speed=5.724000m/h.</desc>
<speed>1.590000</speed>
</trkpt>
<trkpt lat="42.896111" lon="19.643051">
<ele>1866.516602</ele>
<time>2012-04-30T15:31:35Z</time>
<desc>lat.=42.896111, lon.=19.643051, Alt.=1866.516602m. Speed=4.212000m/h.</desc>
<speed>1.170000</speed>
</trkpt>
<trkpt lat="42.896126" lon="19.643106">
<ele>1867.235352</ele>
<time>2012-04-30T15:31:40Z</time>
<desc>lat.=42.896126, lon.=19.643106, Alt.=1867.235352m. Speed=2.916000m/h.</desc>
<speed>0.810000</speed>
</trkpt>
<trkpt lat="42.896126" lon="19.643208">
<ele>1868.047852</ele>
<time>2012-04-30T15:31:45Z</time>
<desc>lat.=42.896126, lon.=19.643208, Alt.=1868.047852m. Speed=5.292000m/h.</desc>
<speed>1.470000</speed>
</trkpt>
<trkpt lat="42.896152" lon="19.643303">
<ele>1869.172852</ele>
<time>2012-04-30T15:31:50Z</time>
<desc>lat.=42.896152, lon.=19.643303, Alt.=1869.172852m. Speed=5.904000m/h.</desc>
<speed>1.640000</speed>
</trkpt>
<trkpt lat="42.896198" lon="19.643356">
<ele>1870.735352</ele>
<time>2012-04-30T15:31:55Z</time>
<desc>lat.=42.896198, lon.=19.643356, Alt.=1870.735352m. Speed=2.736000m/h.</desc>
<speed>0.760000</speed>
</trkpt>
<trkpt lat="42.896198" lon="19.643414">
<ele>1873.047852</ele>
<time>2012-04-30T15:32:00Z</time>
<desc>lat.=42.896198, lon.=19.643414, Alt.=1873.047852m. Speed=3.708000m/h.</desc>
<speed>1.030000</speed>
</trkpt>
<trkpt lat="42.896236" lon="19.643452">
<ele>1875.704102</ele>
<time>2012-04-30T15:32:05Z</time>
<desc>lat.=42.896236, lon.=19.643452, Alt.=1875.704102m. Speed=3.276000m/h.</desc>
<speed>0.910000</speed>
</trkpt>
<trkpt lat="42.896267" lon="19.643499">
<ele>1877.797852</ele>
<time>2012-04-30T15:32:10Z</time>
<desc>lat.=42.896267, lon.=19.643499, Alt.=1877.797852m. Speed=3.240000m/h.</desc>
<speed>0.900000</speed>
</trkpt>
<trkpt lat="42.896320" lon="19.643543">
<ele>1878.266602</ele>
<time>2012-04-30T15:32:15Z</time>
<desc>lat.=42.896320, lon.=19.643543, Alt.=1878.266602m. Speed=3.636000m/h.</desc>
<speed>1.010000</speed>
</trkpt>
<trkpt lat="42.896347" lon="19.643578">
<ele>1879.454102</ele>
<time>2012-04-30T15:32:20Z</time>
<desc>lat.=42.896347, lon.=19.643578, Alt.=1879.454102m. Speed=3.240000m/h.</desc>
<speed>0.900000</speed>
</trkpt>
<trkpt lat="42.896378" lon="19.643600">
<ele>1880.797852</ele>
<time>2012-04-30T15:32:25Z</time>
<desc>lat.=42.896378, lon.=19.643600, Alt.=1880.797852m. Speed=3.276000m/h.</desc>
<speed>0.910000</speed>
</trkpt>
<trkpt lat="42.896408" lon="19.643629">
<ele>1881.391602</ele>
<time>2012-04-30T15:32:30Z</time>
<desc>lat.=42.896408, lon.=19.643629, Alt.=1881.391602m. Speed=2.880000m/h.</desc>
<speed>0.800000</speed>
</trkpt>
<trkpt lat="42.896446" lon="19.643639">
<ele>1882.235352</ele>
<time>2012-04-30T15:32:35Z</time>
<desc>lat.=42.896446, lon.=19.643639, Alt.=1882.235352m. Speed=2.808000m/h.</desc>
<speed>0.780000</speed>
</trkpt>
<trkpt lat="42.896450" lon="19.643665">
<ele>1883.360352</ele>
<time>2012-04-30T15:32:40Z</time>
<desc>lat.=42.896450, lon.=19.643665, Alt.=1883.360352m. Speed=2.268000m/h.</desc>
<speed>0.630000</speed>
</trkpt>
<trkpt lat="42.896473" lon="19.643686">
<ele>1883.922852</ele>
<time>2012-04-30T15:32:45Z</time>
<desc>lat.=42.896473, lon.=19.643686, Alt.=1883.922852m. Speed=1.872000m/h.</desc>
<speed>0.520000</speed>
</trkpt>
<trkpt lat="42.896496" lon="19.643696">
<ele>1884.735352</ele>
<time>2012-04-30T15:32:50Z</time>
<desc>lat.=42.896496, lon.=19.643696, Alt.=1884.735352m. Speed=1.800000m/h.</desc>
<speed>0.500000</speed>
</trkpt>
<trkpt lat="42.896507" lon="19.643723">
<ele>1884.891602</ele>
<time>2012-04-30T15:32:55Z</time>
<desc>lat.=42.896507, lon.=19.643723, Alt.=1884.891602m. Speed=2.448000m/h.</desc>
<speed>0.680000</speed>
</trkpt>
<trkpt lat="42.896515" lon="19.643770">
<ele>1885.297852</ele>
<time>2012-04-30T15:33:00Z</time>
<desc>lat.=42.896515, lon.=19.643770, Alt.=1885.297852m. Speed=2.700000m/h.</desc>
<speed>0.750000</speed>
</trkpt>
<trkpt lat="42.896526" lon="19.643799">
<ele>1885.641602</ele>
<time>2012-04-30T15:33:05Z</time>
<desc>lat.=42.896526, lon.=19.643799, Alt.=1885.641602m. Speed=2.124000m/h.</desc>
<speed>0.590000</speed>
</trkpt>
<trkpt lat="42.896526" lon="19.643845">
<ele>1885.766602</ele>
<time>2012-04-30T15:33:10Z</time>
<desc>lat.=42.896526, lon.=19.643845, Alt.=1885.766602m. Speed=1.980000m/h.</desc>
<speed>0.550000</speed>
</trkpt>
<trkpt lat="42.896542" lon="19.643894">
<ele>1885.579102</ele>
<time>2012-04-30T15:33:15Z</time>
<desc>lat.=42.896542, lon.=19.643894, Alt.=1885.579102m. Speed=3.132000m/h.</desc>
<speed>0.870000</speed>
</trkpt>
<trkpt lat="42.896572" lon="19.643883">
<ele>1885.891602</ele>
<time>2012-04-30T15:33:20Z</time>
<desc>lat.=42.896572, lon.=19.643883, Alt.=1885.891602m. Speed=1.188000m/h.</desc>
<speed>0.330000</speed>
</trkpt>
<trkpt lat="42.896606" lon="19.643921">
<ele>1886.485352</ele>
<time>2012-04-30T15:33:25Z</time>
<desc>lat.=42.896606, lon.=19.643921, Alt.=1886.485352m. Speed=2.484000m/h.</desc>
<speed>0.690000</speed>
</trkpt>
<trkpt lat="42.896603" lon="19.643972">
<ele>1886.829102</ele>
<time>2012-04-30T15:33:30Z</time>
<desc>lat.=42.896603, lon.=19.643972, Alt.=1886.829102m. Speed=3.024000m/h.</desc>
<speed>0.840000</speed>
</trkpt>
<trkpt lat="42.896591" lon="19.644037">
<ele>1886.485352</ele>
<time>2012-04-30T15:33:35Z</time>
<desc>lat.=42.896591, lon.=19.644037, Alt.=1886.485352m. Speed=3.636000m/h.</desc>
<speed>1.010000</speed>
</trkpt>
<trkpt lat="42.896584" lon="19.644064">
<ele>1886.735352</ele>
<time>2012-04-30T15:33:40Z</time>
<desc>lat.=42.896584, lon.=19.644064, Alt.=1886.735352m. Speed=1.584000m/h.</desc>
<speed>0.440000</speed>
</trkpt>
<trkpt lat="42.896576" lon="19.644066">
<ele>1885.235352</ele>
<time>2012-04-30T15:33:45Z</time>
<desc>lat.=42.896576, lon.=19.644066, Alt.=1885.235352m. Speed=1.332000m/h.</desc>
<speed>0.370000</speed>
</trkpt>
<trkpt lat="42.896561" lon="19.644108">
<ele>1884.266602</ele>
<time>2012-04-30T15:33:50Z</time>
<desc>lat.=42.896561, lon.=19.644108, Alt.=1884.266602m. Speed=1.656000m/h.</desc>
<speed>0.460000</speed>
</trkpt>
<trkpt lat="42.896553" lon="19.644127">
<ele>1884.079102</ele>
<time>2012-04-30T15:33:55Z</time>
<desc>lat.=42.896553, lon.=19.644127, Alt.=1884.079102m. Speed=1.152000m/h.</desc>
<speed>0.320000</speed>
</trkpt>
<trkpt lat="42.896523" lon="19.644150">
<ele>1883.735352</ele>
<time>2012-04-30T15:34:00Z</time>
<desc>lat.=42.896523, lon.=19.644150, Alt.=1883.735352m. Speed=1.548000m/h.</desc>
<speed>0.430000</speed>
</trkpt>
<trkpt lat="42.896534" lon="19.644152">
<ele>1882.391602</ele>
<time>2012-04-30T15:34:05Z</time>
<desc>lat.=42.896534, lon.=19.644152, Alt.=1882.391602m. Speed=0.396000m/h.</desc>
<speed>0.110000</speed>
</trkpt>
<trkpt lat="42.896545" lon="19.644180">
<ele>1882.016602</ele>
<time>2012-04-30T15:34:10Z</time>
<desc>lat.=42.896545, lon.=19.644180, Alt.=1882.016602m. Speed=0.504000m/h.</desc>
<speed>0.140000</speed>
</trkpt>
<trkpt lat="42.896549" lon="19.644184">
<ele>1882.235352</ele>
<time>2012-04-30T15:34:15Z</time>
<desc>lat.=42.896549, lon.=19.644184, Alt.=1882.235352m. Speed=1.116000m/h.</desc>
<speed>0.310000</speed>
</trkpt>
<trkpt lat="42.896576" lon="19.644245">
<ele>1881.891602</ele>
<time>2012-04-30T15:34:20Z</time>
<desc>lat.=42.896576, lon.=19.644245, Alt.=1881.891602m. Speed=3.708000m/h.</desc>
<speed>1.030000</speed>
</trkpt>
<trkpt lat="42.896610" lon="19.644300">
<ele>1881.454102</ele>
<time>2012-04-30T15:34:25Z</time>
<desc>lat.=42.896610, lon.=19.644300, Alt.=1881.454102m. Speed=3.060000m/h.</desc>
<speed>0.850000</speed>
</trkpt>
<trkpt lat="42.896610" lon="19.644320">
<ele>1881.235352</ele>
<time>2012-04-30T15:34:30Z</time>
<desc>lat.=42.896610, lon.=19.644320, Alt.=1881.235352m. Speed=0.792000m/h.</desc>
<speed>0.220000</speed>
</trkpt>
<trkpt lat="42.896626" lon="19.644342">
<ele>1880.422852</ele>
<time>2012-04-30T15:34:35Z</time>
<desc>lat.=42.896626, lon.=19.644342, Alt.=1880.422852m. Speed=3.420000m/h.</desc>
<speed>0.950000</speed>
</trkpt>
<trkpt lat="42.896645" lon="19.644390">
<ele>1879.829102</ele>
<time>2012-04-30T15:34:40Z</time>
<desc>lat.=42.896645, lon.=19.644390, Alt.=1879.829102m. Speed=2.988000m/h.</desc>
<speed>0.830000</speed>
</trkpt>
<trkpt lat="42.896660" lon="19.644449">
<ele>1879.922852</ele>
<time>2012-04-30T15:34:45Z</time>
<desc>lat.=42.896660, lon.=19.644449, Alt.=1879.922852m. Speed=2.376000m/h.</desc>
<speed>0.660000</speed>
</trkpt>
<trkpt lat="42.896679" lon="19.644484">
<ele>1879.954102</ele>
<time>2012-04-30T15:34:50Z</time>
<desc>lat.=42.896679, lon.=19.644484, Alt.=1879.954102m. Speed=2.304000m/h.</desc>
<speed>0.640000</speed>
</trkpt>
<trkpt lat="42.896721" lon="19.644545">
<ele>1879.516602</ele>
<time>2012-04-30T15:34:55Z</time>
<desc>lat.=42.896721, lon.=19.644545, Alt.=1879.516602m. Speed=3.204000m/h.</desc>
<speed>0.890000</speed>
</trkpt>
<trkpt lat="42.896732" lon="19.644590">
<ele>1879.360352</ele>
<time>2012-04-30T15:35:00Z</time>
<desc>lat.=42.896732, lon.=19.644590, Alt.=1879.360352m. Speed=2.844000m/h.</desc>
<speed>0.790000</speed>
</trkpt>
<trkpt lat="42.896755" lon="19.644644">
<ele>1879.329102</ele>
<time>2012-04-30T15:35:05Z</time>
<desc>lat.=42.896755, lon.=19.644644, Alt.=1879.329102m. Speed=2.520000m/h.</desc>
<speed>0.700000</speed>
</trkpt>
<trkpt lat="42.896770" lon="19.644653">
<ele>1878.829102</ele>
<time>2012-04-30T15:35:10Z</time>
<desc>lat.=42.896770, lon.=19.644653, Alt.=1878.829102m. Speed=1.656000m/h.</desc>
<speed>0.460000</speed>
</trkpt>
<trkpt lat="42.896790" lon="19.644709">
<ele>1878.235352</ele>
<time>2012-04-30T15:35:15Z</time>
<desc>lat.=42.896790, lon.=19.644709, Alt.=1878.235352m. Speed=3.168000m/h.</desc>
<speed>0.880000</speed>
</trkpt>
<trkpt lat="42.896790" lon="19.644737">
<ele>1877.297852</ele>
<time>2012-04-30T15:35:20Z</time>
<desc>lat.=42.896790, lon.=19.644737, Alt.=1877.297852m. Speed=2.340000m/h.</desc>
<speed>0.650000</speed>
</trkpt>
<trkpt lat="42.896782" lon="19.644791">
<ele>1876.172852</ele>
<time>2012-04-30T15:35:25Z</time>
<desc>lat.=42.896782, lon.=19.644791, Alt.=1876.172852m. Speed=2.736000m/h.</desc>
<speed>0.760000</speed>
</trkpt>
<trkpt lat="42.896790" lon="19.644848">
<ele>1875.766602</ele>
<time>2012-04-30T15:35:30Z</time>
<desc>lat.=42.896790, lon.=19.644848, Alt.=1875.766602m. Speed=3.024000m/h.</desc>
<speed>0.840000</speed>
</trkpt>
<trkpt lat="42.896809" lon="19.644941">
<ele>1875.860352</ele>
<time>2012-04-30T15:35:35Z</time>
<desc>lat.=42.896809, lon.=19.644941, Alt.=1875.860352m. Speed=2.772000m/h.</desc>
<speed>0.770000</speed>
</trkpt>
<trkpt lat="42.896843" lon="19.645008">
<ele>1876.016602</ele>
<time>2012-04-30T15:35:40Z</time>
<desc>lat.=42.896843, lon.=19.645008, Alt.=1876.016602m. Speed=3.240000m/h.</desc>
<speed>0.900000</speed>
</trkpt>
<trkpt lat="42.896858" lon="19.645094">
<ele>1876.891602</ele>
<time>2012-04-30T15:35:45Z</time>
<desc>lat.=42.896858, lon.=19.645094, Alt.=1876.891602m. Speed=4.176000m/h.</desc>
<speed>1.160000</speed>
</trkpt>
<trkpt lat="42.896862" lon="19.645172">
<ele>1876.891602</ele>
<time>2012-04-30T15:35:50Z</time>
<desc>lat.=42.896862, lon.=19.645172, Alt.=1876.891602m. Speed=4.392000m/h.</desc>
<speed>1.220000</speed>
</trkpt>
<trkpt lat="42.896870" lon="19.645226">
<ele>1876.204102</ele>
<time>2012-04-30T15:35:55Z</time>
<desc>lat.=42.896870, lon.=19.645226, Alt.=1876.204102m. Speed=4.356000m/h.</desc>
<speed>1.210000</speed>
</trkpt>
<trkpt lat="42.896896" lon="19.645281">
<ele>1875.922852</ele>
<time>2012-04-30T15:36:00Z</time>
<desc>lat.=42.896896, lon.=19.645281, Alt.=1875.922852m. Speed=1.332000m/h.</desc>
<speed>0.370000</speed>
</trkpt>
<trkpt lat="42.896885" lon="19.645323">
<ele>1876.610352</ele>
<time>2012-04-30T15:36:05Z</time>
<desc>lat.=42.896885, lon.=19.645323, Alt.=1876.610352m. Speed=3.168000m/h.</desc>
<speed>0.880000</speed>
</trkpt>
<trkpt lat="42.896854" lon="19.645447">
<ele>1876.985352</ele>
<time>2012-04-30T15:36:10Z</time>
<desc>lat.=42.896854, lon.=19.645447, Alt.=1876.985352m. Speed=5.472000m/h.</desc>
<speed>1.520000</speed>
</trkpt>
<trkpt lat="42.896877" lon="19.645555">
<ele>1877.704102</ele>
<time>2012-04-30T15:36:15Z</time>
<desc>lat.=42.896877, lon.=19.645555, Alt.=1877.704102m. Speed=6.516000m/h.</desc>
<speed>1.810000</speed>
</trkpt>
<trkpt lat="42.896893" lon="19.645670">
<ele>1878.235352</ele>
<time>2012-04-30T15:36:20Z</time>
<desc>lat.=42.896893, lon.=19.645670, Alt.=1878.235352m. Speed=6.588000m/h.</desc>
<speed>1.830000</speed>
</trkpt>
<trkpt lat="42.896885" lon="19.645817">
<ele>1879.079102</ele>
<time>2012-04-30T15:36:25Z</time>
<desc>lat.=42.896885, lon.=19.645817, Alt.=1879.079102m. Speed=6.660000m/h.</desc>
<speed>1.850000</speed>
</trkpt>
<trkpt lat="42.896919" lon="19.645952">
<ele>1878.672852</ele>
<time>2012-04-30T15:36:30Z</time>
<desc>lat.=42.896919, lon.=19.645952, Alt.=1878.672852m. Speed=7.128000m/h.</desc>
<speed>1.980000</speed>
</trkpt>
<trkpt lat="42.896923" lon="19.646093">
<ele>1877.797852</ele>
<time>2012-04-30T15:36:35Z</time>
<desc>lat.=42.896923, lon.=19.646093, Alt.=1877.797852m. Speed=8.136000m/h.</desc>
<speed>2.260000</speed>
</trkpt>
<trkpt lat="42.896923" lon="19.646236">
<ele>1877.797852</ele>
<time>2012-04-30T15:36:40Z</time>
<desc>lat.=42.896923, lon.=19.646236, Alt.=1877.797852m. Speed=9.360000m/h.</desc>
<speed>2.600000</speed>
</trkpt>
<trkpt lat="42.896912" lon="19.646357">
<ele>1878.610352</ele>
<time>2012-04-30T15:36:45Z</time>
<desc>lat.=42.896912, lon.=19.646357, Alt.=1878.610352m. Speed=6.660000m/h.</desc>
<speed>1.850000</speed>
</trkpt>
<trkpt lat="42.896889" lon="19.646458">
<ele>1876.860352</ele>
<time>2012-04-30T15:36:50Z</time>
<desc>lat.=42.896889, lon.=19.646458, Alt.=1876.860352m. Speed=4.320000m/h.</desc>
<speed>1.200000</speed>
</trkpt>
<trkpt lat="42.896877" lon="19.646542">
<ele>1876.579102</ele>
<time>2012-04-30T15:36:55Z</time>
<desc>lat.=42.896877, lon.=19.646542, Alt.=1876.579102m. Speed=3.924000m/h.</desc>
<speed>1.090000</speed>
</trkpt>
<trkpt lat="42.896870" lon="19.646608">
<ele>1875.891602</ele>
<time>2012-04-30T15:37:00Z</time>
<desc>lat.=42.896870, lon.=19.646608, Alt.=1875.891602m. Speed=5.472000m/h.</desc>
<speed>1.520000</speed>
</trkpt>
<trkpt lat="42.896873" lon="19.646643">
<ele>1875.829102</ele>
<time>2012-04-30T15:37:05Z</time>
<desc>lat.=42.896873, lon.=19.646643, Alt.=1875.829102m. Speed=0.792000m/h.</desc>
<speed>0.220000</speed>
</trkpt>
<trkpt lat="42.896904" lon="19.646639">
<ele>1873.954102</ele>
<time>2012-04-30T15:37:10Z</time>
<desc>lat.=42.896904, lon.=19.646639, Alt.=1873.954102m. Speed=0.144000m/h.</desc>
<speed>0.040000</speed>
</trkpt>
<trkpt lat="42.896900" lon="19.646645">
<ele>1874.204102</ele>
<time>2012-04-30T15:37:15Z</time>
<desc>lat.=42.896900, lon.=19.646645, Alt.=1874.204102m. Speed=0.360000m/h.</desc>
<speed>0.100000</speed>
</trkpt>
<trkpt lat="42.896900" lon="19.646646">
<ele>1874.360352</ele>
<time>2012-04-30T15:37:20Z</time>
<desc>lat.=42.896900, lon.=19.646646, Alt.=1874.360352m. Speed=0.180000m/h.</desc>
<speed>0.050000</speed>
</trkpt>
<trkpt lat="42.896896" lon="19.646645">
<ele>1874.422852</ele>
<time>2012-04-30T15:37:25Z</time>
<desc>lat.=42.896896, lon.=19.646645, Alt.=1874.422852m. Speed=0.288000m/h.</desc>
<speed>0.080000</speed>
</trkpt>
<trkpt lat="42.896889" lon="19.646643">
<ele>1874.485352</ele>
<time>2012-04-30T15:37:30Z</time>
<desc>lat.=42.896889, lon.=19.646643, Alt.=1874.485352m. Speed=0.792000m/h.</desc>
<speed>0.220000</speed>
</trkpt>
<trkpt lat="42.896889" lon="19.646685">
<ele>1874.641602</ele>
<time>2012-04-30T15:37:35Z</time>
<desc>lat.=42.896889, lon.=19.646685, Alt.=1874.641602m. Speed=1.692000m/h.</desc>
<speed>0.470000</speed>
</trkpt>
<trkpt lat="42.896889" lon="19.646742">
<ele>1874.360352</ele>
<time>2012-04-30T15:37:40Z</time>
<desc>lat.=42.896889, lon.=19.646742, Alt.=1874.360352m. Speed=2.628000m/h.</desc>
<speed>0.730000</speed>
</trkpt>
<trkpt lat="42.896873" lon="19.646811">
<ele>1874.266602</ele>
<time>2012-04-30T15:37:45Z</time>
<desc>lat.=42.896873, lon.=19.646811, Alt.=1874.266602m. Speed=4.392000m/h.</desc>
<speed>1.220000</speed>
</trkpt>
<trkpt lat="42.896843" lon="19.646893">
<ele>1874.266602</ele>
<time>2012-04-30T15:37:50Z</time>
<desc>lat.=42.896843, lon.=19.646893, Alt.=1874.266602m. Speed=4.860000m/h.</desc>
<speed>1.350000</speed>
</trkpt>
<trkpt lat="42.896824" lon="19.646944">
<ele>1873.922852</ele>
<time>2012-04-30T15:37:55Z</time>
<desc>lat.=42.896824, lon.=19.646944, Alt.=1873.922852m. Speed=2.448000m/h.</desc>
<speed>0.680000</speed>
</trkpt>
<trkpt lat="42.896824" lon="19.646990">
<ele>1873.922852</ele>
<time>2012-04-30T15:38:00Z</time>
<desc>lat.=42.896824, lon.=19.646990, Alt.=1873.922852m. Speed=1.656000m/h.</desc>
<speed>0.460000</speed>
</trkpt>
<trkpt lat="42.896828" lon="19.646997">
<ele>1873.954102</ele>
<time>2012-04-30T15:38:05Z</time>
<desc>lat.=42.896828, lon.=19.646997, Alt.=1873.954102m. Speed=0.144000m/h.</desc>
<speed>0.040000</speed>
</trkpt>
<trkpt lat="42.896824" lon="19.646996">
<ele>1874.047852</ele>
<time>2012-04-30T15:38:10Z</time>
<desc>lat.=42.896824, lon.=19.646996, Alt.=1874.047852m. Speed=0.180000m/h.</desc>
<speed>0.050000</speed>
</trkpt>
<trkpt lat="42.896824" lon="19.646997">
<ele>1874.141602</ele>
<time>2012-04-30T15:38:15Z</time>
<desc>lat.=42.896824, lon.=19.646997, Alt.=1874.141602m. Speed=0.324000m/h.</desc>
<speed>0.090000</speed>
</trkpt>
<trkpt lat="42.896828" lon="19.646999">
<ele>1874.235352</ele>
<time>2012-04-30T15:38:20Z</time>
<desc>lat.=42.896828, lon.=19.646999, Alt.=1874.235352m. Speed=0.540000m/h.</desc>
<speed>0.150000</speed>
</trkpt>
<trkpt lat="42.896832" lon="19.647009">
<ele>1874.329102</ele>
<time>2012-04-30T15:38:25Z</time>
<desc>lat.=42.896832, lon.=19.647009, Alt.=1874.329102m. Speed=0.756000m/h.</desc>
<speed>0.210000</speed>
</trkpt>
<trkpt lat="42.896835" lon="19.647051">
<ele>1875.391602</ele>
<time>2012-04-30T15:38:30Z</time>
<desc>lat.=42.896835, lon.=19.647051, Alt.=1875.391602m. Speed=1.728000m/h.</desc>
<speed>0.480000</speed>
</trkpt>
<trkpt lat="42.896828" lon="19.647095">
<ele>1875.422852</ele>
<time>2012-04-30T15:38:35Z</time>
<desc>lat.=42.896828, lon.=19.647095, Alt.=1875.422852m. Speed=2.016000m/h.</desc>
<speed>0.560000</speed>
</trkpt>
<trkpt lat="42.896824" lon="19.647121">
<ele>1876.454102</ele>
<time>2012-04-30T15:38:40Z</time>
<desc>lat.=42.896824, lon.=19.647121, Alt.=1876.454102m. Speed=1.836000m/h.</desc>
<speed>0.510000</speed>
</trkpt>
<trkpt lat="42.896816" lon="19.647154">
<ele>1876.547852</ele>
<time>2012-04-30T15:38:45Z</time>
<desc>lat.=42.896816, lon.=19.647154, Alt.=1876.547852m. Speed=2.124000m/h.</desc>
<speed>0.590000</speed>
</trkpt>
<trkpt lat="42.896816" lon="19.647186">
<ele>1876.391602</ele>
<time>2012-04-30T15:38:50Z</time>
<desc>lat.=42.896816, lon.=19.647186, Alt.=1876.391602m. Speed=1.872000m/h.</desc>
<speed>0.520000</speed>
</trkpt>
<trkpt lat="42.896809" lon="19.647242">
<ele>1876.172852</ele>
<time>2012-04-30T15:38:55Z</time>
<desc>lat.=42.896809, lon.=19.647242, Alt.=1876.172852m. Speed=2.304000m/h.</desc>
<speed>0.640000</speed>
</trkpt>
<trkpt lat="42.896797" lon="19.647312">
<ele>1875.172852</ele>
<time>2012-04-30T15:39:00Z</time>
<desc>lat.=42.896797, lon.=19.647312, Alt.=1875.172852m. Speed=3.924000m/h.</desc>
<speed>1.090000</speed>
</trkpt>
<trkpt lat="42.896763" lon="19.647352">
<ele>1875.329102</ele>
<time>2012-04-30T15:39:05Z</time>
<desc>lat.=42.896763, lon.=19.647352, Alt.=1875.329102m. Speed=2.808000m/h.</desc>
<speed>0.780000</speed>
</trkpt>
<trkpt lat="42.896759" lon="19.647390">
<ele>1875.329102</ele>
<time>2012-04-30T15:39:10Z</time>
<desc>lat.=42.896759, lon.=19.647390, Alt.=1875.329102m. Speed=2.628000m/h.</desc>
<speed>0.730000</speed>
</trkpt>
<trkpt lat="42.896774" lon="19.647446">
<ele>1875.985352</ele>
<time>2012-04-30T15:39:15Z</time>
<desc>lat.=42.896774, lon.=19.647446, Alt.=1875.985352m. Speed=4.068000m/h.</desc>
<speed>1.130000</speed>
</trkpt>
<trkpt lat="42.896812" lon="19.647518">
<ele>1876.547852</ele>
<time>2012-04-30T15:39:20Z</time>
<desc>lat.=42.896812, lon.=19.647518, Alt.=1876.547852m. Speed=4.860000m/h.</desc>
<speed>1.350000</speed>
</trkpt>
<trkpt lat="42.896816" lon="19.647594">
<ele>1877.079102</ele>
<time>2012-04-30T15:39:25Z</time>
<desc>lat.=42.896816, lon.=19.647594, Alt.=1877.079102m. Speed=3.960000m/h.</desc>
<speed>1.100000</speed>
</trkpt>
<trkpt lat="42.896812" lon="19.647646">
<ele>1877.735352</ele>
<time>2012-04-30T15:39:30Z</time>
<desc>lat.=42.896812, lon.=19.647646, Alt.=1877.735352m. Speed=3.204000m/h.</desc>
<speed>0.890000</speed>
</trkpt>
<trkpt lat="42.896809" lon="19.647764">
<ele>1878.329102</ele>
<time>2012-04-30T15:39:35Z</time>
<desc>lat.=42.896809, lon.=19.647764, Alt.=1878.329102m. Speed=7.344000m/h.</desc>
<speed>2.040000</speed>
</trkpt>
<trkpt lat="42.896832" lon="19.647886">
<ele>1879.235352</ele>
<time>2012-04-30T15:39:40Z</time>
<desc>lat.=42.896832, lon.=19.647886, Alt.=1879.235352m. Speed=6.732000m/h.</desc>
<speed>1.870000</speed>
</trkpt>
<trkpt lat="42.896828" lon="19.648024">
<ele>1879.735352</ele>
<time>2012-04-30T15:39:45Z</time>
<desc>lat.=42.896828, lon.=19.648024, Alt.=1879.735352m. Speed=6.480000m/h.</desc>
<speed>1.800000</speed>
</trkpt>
<trkpt lat="42.896847" lon="19.648085">
<ele>1879.422852</ele>
<time>2012-04-30T15:39:50Z</time>
<desc>lat.=42.896847, lon.=19.648085, Alt.=1879.422852m. Speed=0.360000m/h.</desc>
<speed>0.100000</speed>
</trkpt>
<trkpt lat="42.896873" lon="19.648096">
<ele>1881.141602</ele>
<time>2012-04-30T15:39:55Z</time>
<desc>lat.=42.896873, lon.=19.648096, Alt.=1881.141602m. Speed=1.476000m/h.</desc>
<speed>0.410000</speed>
</trkpt>
<trkpt lat="42.896862" lon="19.648129">
<ele>1881.704102</ele>
<time>2012-04-30T15:40:00Z</time>
<desc>lat.=42.896862, lon.=19.648129, Alt.=1881.704102m. Speed=1.404000m/h.</desc>
<speed>0.390000</speed>
</trkpt>
<trkpt lat="42.896851" lon="19.648138">
<ele>1881.735352</ele>
<time>2012-04-30T15:40:05Z</time>
<desc>lat.=42.896851, lon.=19.648138, Alt.=1881.735352m. Speed=1.008000m/h.</desc>
<speed>0.280000</speed>
</trkpt>
<trkpt lat="42.896835" lon="19.648149">
<ele>1881.329102</ele>
<time>2012-04-30T15:40:10Z</time>
<desc>lat.=42.896835, lon.=19.648149, Alt.=1881.329102m. Speed=0.576000m/h.</desc>
<speed>0.160000</speed>
</trkpt>
<trkpt lat="42.896828" lon="19.648151">
<ele>1881.454102</ele>
<time>2012-04-30T15:40:15Z</time>
<desc>lat.=42.896828, lon.=19.648151, Alt.=1881.454102m. Speed=0.900000m/h.</desc>
<speed>0.250000</speed>
</trkpt>
<trkpt lat="42.896839" lon="19.648170">
<ele>1881.829102</ele>
<time>2012-04-30T15:40:20Z</time>
<desc>lat.=42.896839, lon.=19.648170, Alt.=1881.829102m. Speed=1.368000m/h.</desc>
<speed>0.380000</speed>
</trkpt>
<trkpt lat="42.896854" lon="19.648207">
<ele>1882.297852</ele>
<time>2012-04-30T15:40:25Z</time>
<desc>lat.=42.896854, lon.=19.648207, Alt.=1882.297852m. Speed=1.764000m/h.</desc>
<speed>0.490000</speed>
</trkpt>
<trkpt lat="42.896870" lon="19.648235">
<ele>1882.579102</ele>
<time>2012-04-30T15:40:30Z</time>
<desc>lat.=42.896870, lon.=19.648235, Alt.=1882.579102m. Speed=1.836000m/h.</desc>
<speed>0.510000</speed>
</trkpt>
<trkpt lat="42.896877" lon="19.648268">
<ele>1882.891602</ele>
<time>2012-04-30T15:40:35Z</time>
<desc>lat.=42.896877, lon.=19.648268, Alt.=1882.891602m. Speed=1.476000m/h.</desc>
<speed>0.410000</speed>
</trkpt>
<trkpt lat="42.896885" lon="19.648296">
<ele>1882.672852</ele>
<time>2012-04-30T15:40:40Z</time>
<desc>lat.=42.896885, lon.=19.648296, Alt.=1882.672852m. Speed=1.332000m/h.</desc>
<speed>0.370000</speed>
</trkpt>
<trkpt lat="42.896893" lon="19.648327">
<ele>1882.329102</ele>
<time>2012-04-30T15:40:45Z</time>
<desc>lat.=42.896893, lon.=19.648327, Alt.=1882.329102m. Speed=1.764000m/h.</desc>
<speed>0.490000</speed>
</trkpt>
<trkpt lat="42.896889" lon="19.648382">
<ele>1882.672852</ele>
<time>2012-04-30T15:40:50Z</time>
<desc>lat.=42.896889, lon.=19.648382, Alt.=1882.672852m. Speed=2.700000m/h.</desc>
<speed>0.750000</speed>
</trkpt>
<trkpt lat="42.896885" lon="19.648447">
<ele>1882.922852</ele>
<time>2012-04-30T15:40:55Z</time>
<desc>lat.=42.896885, lon.=19.648447, Alt.=1882.922852m. Speed=3.996000m/h.</desc>
<speed>1.110000</speed>
</trkpt>
<trkpt lat="42.896885" lon="19.648525">
<ele>1882.704102</ele>
<time>2012-04-30T15:41:00Z</time>
<desc>lat.=42.896885, lon.=19.648525, Alt.=1882.704102m. Speed=3.744000m/h.</desc>
<speed>1.040000</speed>
</trkpt>
<trkpt lat="42.896893" lon="19.648567">
<ele>1882.860352</ele>
<time>2012-04-30T15:41:05Z</time>
<desc>lat.=42.896893, lon.=19.648567, Alt.=1882.860352m. Speed=3.276000m/h.</desc>
<speed>0.910000</speed>
</trkpt>
<trkpt lat="42.896900" lon="19.648624">
<ele>1882.860352</ele>
<time>2012-04-30T15:41:10Z</time>
<desc>lat.=42.896900, lon.=19.648624, Alt.=1882.860352m. Speed=4.680000m/h.</desc>
<speed>1.300000</speed>
</trkpt>
<trkpt lat="42.896908" lon="19.648687">
<ele>1883.235352</ele>
<time>2012-04-30T15:41:15Z</time>
<desc>lat.=42.896908, lon.=19.648687, Alt.=1883.235352m. Speed=4.932000m/h.</desc>
<speed>1.370000</speed>
</trkpt>
<trkpt lat="42.896896" lon="19.648777">
<ele>1883.204102</ele>
<time>2012-04-30T15:41:20Z</time>
<desc>lat.=42.896896, lon.=19.648777, Alt.=1883.204102m. Speed=3.384000m/h.</desc>
<speed>0.940000</speed>
</trkpt>
<trkpt lat="42.896893" lon="19.648823">
<ele>1883.360352</ele>
<time>2012-04-30T15:41:25Z</time>
<desc>lat.=42.896893, lon.=19.648823, Alt.=1883.360352m. Speed=1.152000m/h.</desc>
<speed>0.320000</speed>
</trkpt>
<trkpt lat="42.896904" lon="19.648893">
<ele>1882.735352</ele>
<time>2012-04-30T15:41:30Z</time>
<desc>lat.=42.896904, lon.=19.648893, Alt.=1882.735352m. Speed=5.940000m/h.</desc>
<speed>1.650000</speed>
</trkpt>
<trkpt lat="42.896908" lon="19.649002">
<ele>1882.860352</ele>
<time>2012-04-30T15:41:35Z</time>
<desc>lat.=42.896908, lon.=19.649002, Alt.=1882.860352m. Speed=8.424000m/h.</desc>
<speed>2.340000</speed>
</trkpt>
<trkpt lat="42.896938" lon="19.649128">
<ele>1882.829102</ele>
<time>2012-04-30T15:41:40Z</time>
<desc>lat.=42.896938, lon.=19.649128, Alt.=1882.829102m. Speed=7.920000m/h.</desc>
<speed>2.200000</speed>
</trkpt>
<trkpt lat="42.896957" lon="19.649258">
<ele>1882.704102</ele>
<time>2012-04-30T15:41:45Z</time>
<desc>lat.=42.896957, lon.=19.649258, Alt.=1882.704102m. Speed=7.920000m/h.</desc>
<speed>2.200000</speed>
</trkpt>
<trkpt lat="42.896965" lon="19.649399">
<ele>1882.547852</ele>
<time>2012-04-30T15:41:50Z</time>
<desc>lat.=42.896965, lon.=19.649399, Alt.=1882.547852m. Speed=8.640000m/h.</desc>
<speed>2.400000</speed>
</trkpt>
<trkpt lat="42.897011" lon="19.649500">
<ele>1881.454102</ele>
<time>2012-04-30T15:41:55Z</time>
<desc>lat.=42.897011, lon.=19.649500, Alt.=1881.454102m. Speed=8.676000m/h.</desc>
<speed>2.410000</speed>
</trkpt>
<trkpt lat="42.897049" lon="19.649651">
<ele>1884.766602</ele>
<time>2012-04-30T15:42:00Z</time>
<desc>lat.=42.897049, lon.=19.649651, Alt.=1884.766602m. Speed=9.432000m/h.</desc>
<speed>2.620000</speed>
</trkpt>
<trkpt lat="42.897068" lon="19.649803">
<ele>1886.766602</ele>
<time>2012-04-30T15:42:05Z</time>
<desc>lat.=42.897068, lon.=19.649803, Alt.=1886.766602m. Speed=8.496000m/h.</desc>
<speed>2.360000</speed>
</trkpt>
<trkpt lat="42.896996" lon="19.649973">
<ele>1885.485352</ele>
<time>2012-04-30T15:42:10Z</time>
<desc>lat.=42.896996, lon.=19.649973, Alt.=1885.485352m. Speed=8.676000m/h.</desc>
<speed>2.410000</speed>
</trkpt>
<trkpt lat="42.896988" lon="19.650122">
<ele>1885.954102</ele>
<time>2012-04-30T15:42:15Z</time>
<desc>lat.=42.896988, lon.=19.650122, Alt.=1885.954102m. Speed=7.200000m/h.</desc>
<speed>2.000000</speed>
</trkpt>
<trkpt lat="42.896957" lon="19.650242">
<ele>1885.141602</ele>
<time>2012-04-30T15:42:20Z</time>
<desc>lat.=42.896957, lon.=19.650242, Alt.=1885.141602m. Speed=5.256000m/h.</desc>
<speed>1.460000</speed>
</trkpt>
<trkpt lat="42.896935" lon="19.650341">
<ele>1884.547852</ele>
<time>2012-04-30T15:42:25Z</time>
<desc>lat.=42.896935, lon.=19.650341, Alt.=1884.547852m. Speed=7.056000m/h.</desc>
<speed>1.960000</speed>
</trkpt>
<trkpt lat="42.896912" lon="19.650442">
<ele>1882.735352</ele>
<time>2012-04-30T15:42:30Z</time>
<desc>lat.=42.896912, lon.=19.650442, Alt.=1882.735352m. Speed=6.768000m/h.</desc>
<speed>1.880000</speed>
</trkpt>
<trkpt lat="42.896873" lon="19.650547">
<ele>1882.110352</ele>
<time>2012-04-30T15:42:35Z</time>
<desc>lat.=42.896873, lon.=19.650547, Alt.=1882.110352m. Speed=6.768000m/h.</desc>
<speed>1.880000</speed>
</trkpt>
<trkpt lat="42.896839" lon="19.650646">
<ele>1881.297852</ele>
<time>2012-04-30T15:42:40Z</time>
<desc>lat.=42.896839, lon.=19.650646, Alt.=1881.297852m. Speed=4.824000m/h.</desc>
<speed>1.340000</speed>
</trkpt>
<trkpt lat="42.896793" lon="19.650709">
<ele>1881.422852</ele>
<time>2012-04-30T15:42:45Z</time>
<desc>lat.=42.896793, lon.=19.650709, Alt.=1881.422852m. Speed=4.824000m/h.</desc>
<speed>1.340000</speed>
</trkpt>
<trkpt lat="42.896740" lon="19.650774">
<ele>1882.985352</ele>
<time>2012-04-30T15:42:50Z</time>
<desc>lat.=42.896740, lon.=19.650774, Alt.=1882.985352m. Speed=5.472000m/h.</desc>
<speed>1.520000</speed>
</trkpt>
<trkpt lat="42.896683" lon="19.650852">
<ele>1883.547852</ele>
<time>2012-04-30T15:42:55Z</time>
<desc>lat.=42.896683, lon.=19.650852, Alt.=1883.547852m. Speed=5.400000m/h.</desc>
<speed>1.500000</speed>
</trkpt>
<trkpt lat="42.896629" lon="19.650946">
<ele>1887.047852</ele>
<time>2012-04-30T15:43:00Z</time>
<desc>lat.=42.896629, lon.=19.650946, Alt.=1887.047852m. Speed=5.868000m/h.</desc>
<speed>1.630000</speed>
</trkpt>
<trkpt lat="42.896568" lon="19.650993">
<ele>1888.204102</ele>
<time>2012-04-30T15:43:05Z</time>
<desc>lat.=42.896568, lon.=19.650993, Alt.=1888.204102m. Speed=6.444000m/h.</desc>
<speed>1.790000</speed>
</trkpt>
<trkpt lat="42.896496" lon="19.651039">
<ele>1888.766602</ele>
<time>2012-04-30T15:43:10Z</time>
<desc>lat.=42.896496, lon.=19.651039, Alt.=1888.766602m. Speed=6.876000m/h.</desc>
<speed>1.910000</speed>
</trkpt>
<trkpt lat="42.896423" lon="19.651081">
<ele>1888.704102</ele>
<time>2012-04-30T15:43:15Z</time>
<desc>lat.=42.896423, lon.=19.651081, Alt.=1888.704102m. Speed=6.264000m/h.</desc>
<speed>1.740000</speed>
</trkpt>
<trkpt lat="42.896355" lon="19.651133">
<ele>1888.235352</ele>
<time>2012-04-30T15:43:20Z</time>
<desc>lat.=42.896355, lon.=19.651133, Alt.=1888.235352m. Speed=5.616000m/h.</desc>
<speed>1.560000</speed>
</trkpt>
<trkpt lat="42.896290" lon="19.651173">
<ele>1888.235352</ele>
<time>2012-04-30T15:43:25Z</time>
<desc>lat.=42.896290, lon.=19.651173, Alt.=1888.235352m. Speed=5.616000m/h.</desc>
<speed>1.560000</speed>
</trkpt>
<trkpt lat="42.896221" lon="19.651222">
<ele>1890.891602</ele>
<time>2012-04-30T15:43:30Z</time>
<desc>lat.=42.896221, lon.=19.651222, Alt.=1890.891602m. Speed=6.156000m/h.</desc>
<speed>1.710000</speed>
</trkpt>
<trkpt lat="42.896160" lon="19.651279">
<ele>1891.610352</ele>
<time>2012-04-30T15:43:35Z</time>
<desc>lat.=42.896160, lon.=19.651279, Alt.=1891.610352m. Speed=6.948000m/h.</desc>
<speed>1.930000</speed>
</trkpt>
<trkpt lat="42.896084" lon="19.651350">
<ele>1892.391602</ele>
<time>2012-04-30T15:43:40Z</time>
<desc>lat.=42.896084, lon.=19.651350, Alt.=1892.391602m. Speed=8.028000m/h.</desc>
<speed>2.230000</speed>
</trkpt>
<trkpt lat="42.896019" lon="19.651421">
<ele>1893.485352</ele>
<time>2012-04-30T15:43:45Z</time>
<desc>lat.=42.896019, lon.=19.651421, Alt.=1893.485352m. Speed=6.408000m/h.</desc>
<speed>1.780000</speed>
</trkpt>
<trkpt lat="42.895977" lon="19.651485">
<ele>1894.079102</ele>
<time>2012-04-30T15:43:50Z</time>
<desc>lat.=42.895977, lon.=19.651485, Alt.=1894.079102m. Speed=5.580000m/h.</desc>
<speed>1.550000</speed>
</trkpt>
<trkpt lat="42.895920" lon="19.651548">
<ele>1894.079102</ele>
<time>2012-04-30T15:43:55Z</time>
<desc>lat.=42.895920, lon.=19.651548, Alt.=1894.079102m. Speed=5.400000m/h.</desc>
<speed>1.500000</speed>
</trkpt>
<trkpt lat="42.895882" lon="19.651630">
<ele>1894.204102</ele>
<time>2012-04-30T15:44:00Z</time>
<desc>lat.=42.895882, lon.=19.651630, Alt.=1894.204102m. Speed=5.004000m/h.</desc>
<speed>1.390000</speed>
</trkpt>
<trkpt lat="42.895832" lon="19.651709">
<ele>1894.360352</ele>
<time>2012-04-30T15:44:05Z</time>
<desc>lat.=42.895832, lon.=19.651709, Alt.=1894.360352m. Speed=6.048000m/h.</desc>
<speed>1.680000</speed>
</trkpt>
<trkpt lat="42.895790" lon="19.651804">
<ele>1893.954102</ele>
<time>2012-04-30T15:44:10Z</time>
<desc>lat.=42.895790, lon.=19.651804, Alt.=1893.954102m. Speed=6.588000m/h.</desc>
<speed>1.830000</speed>
</trkpt>
<trkpt lat="42.895744" lon="19.651888">
<ele>1893.579102</ele>
<time>2012-04-30T15:44:15Z</time>
<desc>lat.=42.895744, lon.=19.651888, Alt.=1893.579102m. Speed=5.904000m/h.</desc>
<speed>1.640000</speed>
</trkpt>
<trkpt lat="42.895691" lon="19.651999">
<ele>1892.422852</ele>
<time>2012-04-30T15:44:20Z</time>
<desc>lat.=42.895691, lon.=19.651999, Alt.=1892.422852m. Speed=6.156000m/h.</desc>
<speed>1.710000</speed>
</trkpt>
<trkpt lat="42.895649" lon="19.652111">
<ele>1891.329102</ele>
<time>2012-04-30T15:44:25Z</time>
<desc>lat.=42.895649, lon.=19.652111, Alt.=1891.329102m. Speed=7.056000m/h.</desc>
<speed>1.960000</speed>
</trkpt>
<trkpt lat="42.895596" lon="19.652206">
<ele>1891.454102</ele>
<time>2012-04-30T15:44:30Z</time>
<desc>lat.=42.895596, lon.=19.652206, Alt.=1891.454102m. Speed=6.948000m/h.</desc>
<speed>1.930000</speed>
</trkpt>
<trkpt lat="42.895538" lon="19.652292">
<ele>1891.516602</ele>
<time>2012-04-30T15:44:35Z</time>
<desc>lat.=42.895538, lon.=19.652292, Alt.=1891.516602m. Speed=6.084000m/h.</desc>
<speed>1.690000</speed>
</trkpt>
<trkpt lat="42.895496" lon="19.652365">
<ele>1890.610352</ele>
<time>2012-04-30T15:44:40Z</time>
<desc>lat.=42.895496, lon.=19.652365, Alt.=1890.610352m. Speed=5.832000m/h.</desc>
<speed>1.620000</speed>
</trkpt>
<trkpt lat="42.895466" lon="19.652468">
<ele>1890.797852</ele>
<time>2012-04-30T15:44:45Z</time>
<desc>lat.=42.895466, lon.=19.652468, Alt.=1890.797852m. Speed=4.896000m/h.</desc>
<speed>1.360000</speed>
</trkpt>
<trkpt lat="42.895432" lon="19.652557">
<ele>1890.485352</ele>
<time>2012-04-30T15:44:50Z</time>
<desc>lat.=42.895432, lon.=19.652557, Alt.=1890.485352m. Speed=6.660000m/h.</desc>
<speed>1.850000</speed>
</trkpt>
<trkpt lat="42.895378" lon="19.652649">
<ele>1891.891602</ele>
<time>2012-04-30T15:44:55Z</time>
<desc>lat.=42.895378, lon.=19.652649, Alt.=1891.891602m. Speed=7.344000m/h.</desc>
<speed>2.040000</speed>
</trkpt>
<trkpt lat="42.895340" lon="19.652739">
<ele>1891.329102</ele>
<time>2012-04-30T15:45:00Z</time>
<desc>lat.=42.895340, lon.=19.652739, Alt.=1891.329102m. Speed=6.264000m/h.</desc>
<speed>1.740000</speed>
</trkpt>
<trkpt lat="42.895294" lon="19.652821">
<ele>1892.797852</ele>
<time>2012-04-30T15:45:05Z</time>
<desc>lat.=42.895294, lon.=19.652821, Alt.=1892.797852m. Speed=6.912000m/h.</desc>
<speed>1.920000</speed>
</trkpt>
<trkpt lat="42.895248" lon="19.652906">
<ele>1894.110352</ele>
<time>2012-04-30T15:45:10Z</time>
<desc>lat.=42.895248, lon.=19.652906, Alt.=1894.110352m. Speed=7.056000m/h.</desc>
<speed>1.960000</speed>
</trkpt>
<trkpt lat="42.895195" lon="19.653006">
<ele>1894.235352</ele>
<time>2012-04-30T15:45:15Z</time>
<desc>lat.=42.895195, lon.=19.653006, Alt.=1894.235352m. Speed=7.416000m/h.</desc>
<speed>2.060000</speed>
</trkpt>
<trkpt lat="42.895142" lon="19.653090">
<ele>1894.735352</ele>
<time>2012-04-30T15:45:20Z</time>
<desc>lat.=42.895142, lon.=19.653090, Alt.=1894.735352m. Speed=6.768000m/h.</desc>
<speed>1.880000</speed>
</trkpt>
<trkpt lat="42.895081" lon="19.653158">
<ele>1895.672852</ele>
<time>2012-04-30T15:45:25Z</time>
<desc>lat.=42.895081, lon.=19.653158, Alt.=1895.672852m. Speed=6.408000m/h.</desc>
<speed>1.780000</speed>
</trkpt>
<trkpt lat="42.895016" lon="19.653214">
<ele>1896.766602</ele>
<time>2012-04-30T15:45:30Z</time>
<desc>lat.=42.895016, lon.=19.653214, Alt.=1896.766602m. Speed=5.832000m/h.</desc>
<speed>1.620000</speed>
</trkpt>
<trkpt lat="42.894962" lon="19.653282">
<ele>1898.297852</ele>
<time>2012-04-30T15:45:35Z</time>
<desc>lat.=42.894962, lon.=19.653282, Alt.=1898.297852m. Speed=4.860000m/h.</desc>
<speed>1.350000</speed>
</trkpt>
<trkpt lat="42.894897" lon="19.653334">
<ele>1898.641602</ele>
<time>2012-04-30T15:45:40Z</time>
<desc>lat.=42.894897, lon.=19.653334, Alt.=1898.641602m. Speed=6.156000m/h.</desc>
<speed>1.710000</speed>
</trkpt>
<trkpt lat="42.894859" lon="19.653397">
<ele>1900.016602</ele>
<time>2012-04-30T15:45:45Z</time>
<desc>lat.=42.894859, lon.=19.653397, Alt.=1900.016602m. Speed=5.940000m/h.</desc>
<speed>1.650000</speed>
</trkpt>
<trkpt lat="42.894794" lon="19.653454">
<ele>1899.204102</ele>
<time>2012-04-30T15:45:50Z</time>
<desc>lat.=42.894794, lon.=19.653454, Alt.=1899.204102m. Speed=6.588000m/h.</desc>
<speed>1.830000</speed>
</trkpt>
<trkpt lat="42.894726" lon="19.653515">
<ele>1898.891602</ele>
<time>2012-04-30T15:45:55Z</time>
<desc>lat.=42.894726, lon.=19.653515, Alt.=1898.891602m. Speed=6.660000m/h.</desc>
<speed>1.850000</speed>
</trkpt>
<trkpt lat="42.894657" lon="19.653547">
<ele>1900.110352</ele>
<time>2012-04-30T15:46:00Z</time>
<desc>lat.=42.894657, lon.=19.653547, Alt.=1900.110352m. Speed=6.552000m/h.</desc>
<speed>1.820000</speed>
</trkpt>
<trkpt lat="42.894577" lon="19.653584">
<ele>1899.829102</ele>
<time>2012-04-30T15:46:05Z</time>
<desc>lat.=42.894577, lon.=19.653584, Alt.=1899.829102m. Speed=5.472000m/h.</desc>
<speed>1.520000</speed>
</trkpt>
<trkpt lat="42.894516" lon="19.653629">
<ele>1899.860352</ele>
<time>2012-04-30T15:46:10Z</time>
<desc>lat.=42.894516, lon.=19.653629, Alt.=1899.860352m. Speed=5.904000m/h.</desc>
<speed>1.640000</speed>
</trkpt>
<trkpt lat="42.894436" lon="19.653673">
<ele>1900.579102</ele>
<time>2012-04-30T15:46:15Z</time>
<desc>lat.=42.894436, lon.=19.653673, Alt.=1900.579102m. Speed=6.120000m/h.</desc>
<speed>1.700000</speed>
</trkpt>
<trkpt lat="42.894367" lon="19.653715">
<ele>1902.516602</ele>
<time>2012-04-30T15:46:20Z</time>
<desc>lat.=42.894367, lon.=19.653715, Alt.=1902.516602m. Speed=4.428000m/h.</desc>
<speed>1.230000</speed>
</trkpt>
<trkpt lat="42.894314" lon="19.653725">
<ele>1903.829102</ele>
<time>2012-04-30T15:46:25Z</time>
<desc>lat.=42.894314, lon.=19.653725, Alt.=1903.829102m. Speed=5.004000m/h.</desc>
<speed>1.390000</speed>
</trkpt>
<trkpt lat="42.894268" lon="19.653770">
<ele>1904.391602</ele>
<time>2012-04-30T15:46:30Z</time>
<desc>lat.=42.894268, lon.=19.653770, Alt.=1904.391602m. Speed=4.500000m/h.</desc>
<speed>1.250000</speed>
</trkpt>
<trkpt lat="42.894222" lon="19.653799">
<ele>1905.016602</ele>
<time>2012-04-30T15:46:35Z</time>
<desc>lat.=42.894222, lon.=19.653799, Alt.=1905.016602m. Speed=4.104000m/h.</desc>
<speed>1.140000</speed>
</trkpt>
<trkpt lat="42.894161" lon="19.653824">
<ele>1904.735352</ele>
<time>2012-04-30T15:46:40Z</time>
<desc>lat.=42.894161, lon.=19.653824, Alt.=1904.735352m. Speed=4.104000m/h.</desc>
<speed>1.140000</speed>
</trkpt>
<trkpt lat="42.894135" lon="19.653833">
<ele>1904.422852</ele>
<time>2012-04-30T15:46:45Z</time>
<desc>lat.=42.894135, lon.=19.653833, Alt.=1904.422852m. Speed=0.504000m/h.</desc>
<speed>0.140000</speed>
</trkpt>
<trkpt lat="42.894135" lon="19.653841">
<ele>1903.704102</ele>
<time>2012-04-30T15:46:50Z</time>
<desc>lat.=42.894135, lon.=19.653841, Alt.=1903.704102m. Speed=0.612000m/h.</desc>
<speed>0.170000</speed>
</trkpt>
<trkpt lat="42.894138" lon="19.653854">
<ele>1903.079102</ele>
<time>2012-04-30T15:46:55Z</time>
<desc>lat.=42.894138, lon.=19.653854, Alt.=1903.079102m. Speed=0.684000m/h.</desc>
<speed>0.190000</speed>
</trkpt>
<trkpt lat="42.894146" lon="19.653866">
<ele>1902.485352</ele>
<time>2012-04-30T15:47:00Z</time>
<desc>lat.=42.894146, lon.=19.653866, Alt.=1902.485352m. Speed=0.792000m/h.</desc>
<speed>0.220000</speed>
</trkpt>
<trkpt lat="42.894150" lon="19.653877">
<ele>1901.891602</ele>
<time>2012-04-30T15:47:05Z</time>
<desc>lat.=42.894150, lon.=19.653877, Alt.=1901.891602m. Speed=0.936000m/h.</desc>
<speed>0.260000</speed>
</trkpt>
<trkpt lat="42.894138" lon="19.653885">
<ele>1901.235352</ele>
<time>2012-04-30T15:47:10Z</time>
<desc>lat.=42.894138, lon.=19.653885, Alt.=1901.235352m. Speed=0.756000m/h.</desc>
<speed>0.210000</speed>
</trkpt>
<trkpt lat="42.894123" lon="19.653883">
<ele>1899.922852</ele>
<time>2012-04-30T15:47:15Z</time>
<desc>lat.=42.894123, lon.=19.653883, Alt.=1899.922852m. Speed=0.936000m/h.</desc>
<speed>0.260000</speed>
</trkpt>
<trkpt lat="42.894089" lon="19.653896">
<ele>1899.235352</ele>
<time>2012-04-30T15:47:20Z</time>
<desc>lat.=42.894089, lon.=19.653896, Alt.=1899.235352m. Speed=2.340000m/h.</desc>
<speed>0.650000</speed>
</trkpt>
<trkpt lat="42.894047" lon="19.653900">
<ele>1899.704102</ele>
<time>2012-04-30T15:47:25Z</time>
<desc>lat.=42.894047, lon.=19.653900, Alt.=1899.704102m. Speed=3.672000m/h.</desc>
<speed>1.020000</speed>
</trkpt>
<trkpt lat="42.894005" lon="19.653938">
<ele>1900.641602</ele>
<time>2012-04-30T15:47:30Z</time>
<desc>lat.=42.894005, lon.=19.653938, Alt.=1900.641602m. Speed=3.996000m/h.</desc>
<speed>1.110000</speed>
</trkpt>
<trkpt lat="42.893990" lon="19.653950">
<ele>1901.829102</ele>
<time>2012-04-30T15:47:35Z</time>
<desc>lat.=42.893990, lon.=19.653950, Alt.=1901.829102m. Speed=1.008000m/h.</desc>
<speed>0.280000</speed>
</trkpt>
<trkpt lat="42.893982" lon="19.653952">
<ele>1901.610352</ele>
<time>2012-04-30T15:47:40Z</time>
<desc>lat.=42.893982, lon.=19.653952, Alt.=1901.610352m. Speed=0.540000m/h.</desc>
<speed>0.150000</speed>
</trkpt>
<trkpt lat="42.893970" lon="19.653961">
<ele>1901.610352</ele>
<time>2012-04-30T15:47:45Z</time>
<desc>lat.=42.893970, lon.=19.653961, Alt.=1901.610352m. Speed=1.512000m/h.</desc>
<speed>0.420000</speed>
</trkpt>
<trkpt lat="42.893955" lon="19.653948">
<ele>1901.985352</ele>
<time>2012-04-30T15:47:50Z</time>
<desc>lat.=42.893955, lon.=19.653948, Alt.=1901.985352m. Speed=0.756000m/h.</desc>
<speed>0.210000</speed>
</trkpt>
<trkpt lat="42.893909" lon="19.653952">
<ele>1901.672852</ele>
<time>2012-04-30T15:47:55Z</time>
<desc>lat.=42.893909, lon.=19.653952, Alt.=1901.672852m. Speed=2.916000m/h.</desc>
<speed>0.810000</speed>
</trkpt>
<trkpt lat="42.893875" lon="19.653982">
<ele>1902.016602</ele>
<time>2012-04-30T15:48:00Z</time>
<desc>lat.=42.893875, lon.=19.653982, Alt.=1902.016602m. Speed=3.600000m/h.</desc>
<speed>1.000000</speed>
</trkpt>
<trkpt lat="42.893841" lon="19.654013">
<ele>1902.016602</ele>
<time>2012-04-30T15:48:05Z</time>
<desc>lat.=42.893841, lon.=19.654013, Alt.=1902.016602m. Speed=3.348000m/h.</desc>
<speed>0.930000</speed>
</trkpt>
<trkpt lat="42.893799" lon="19.654047">
<ele>1902.079102</ele>
<time>2012-04-30T15:48:10Z</time>
<desc>lat.=42.893799, lon.=19.654047, Alt.=1902.079102m. Speed=2.916000m/h.</desc>
<speed>0.810000</speed>
</trkpt>
<trkpt lat="42.893768" lon="19.654076">
<ele>1902.172852</ele>
<time>2012-04-30T15:48:15Z</time>
<desc>lat.=42.893768, lon.=19.654076, Alt.=1902.172852m. Speed=3.168000m/h.</desc>
<speed>0.880000</speed>
</trkpt>
<trkpt lat="42.893730" lon="19.654106">
<ele>1902.485352</ele>
<time>2012-04-30T15:48:20Z</time>
<desc>lat.=42.893730, lon.=19.654106, Alt.=1902.485352m. Speed=3.816000m/h.</desc>
<speed>1.060000</speed>
</trkpt>
<trkpt lat="42.893688" lon="19.654150">
<ele>1902.672852</ele>
<time>2012-04-30T15:48:25Z</time>
<desc>lat.=42.893688, lon.=19.654150, Alt.=1902.672852m. Speed=3.312000m/h.</desc>
<speed>0.920000</speed>
</trkpt>
<trkpt lat="42.893661" lon="19.654179">
<ele>1902.391602</ele>
<time>2012-04-30T15:48:30Z</time>
<desc>lat.=42.893661, lon.=19.654179, Alt.=1902.391602m. Speed=2.664000m/h.</desc>
<speed>0.740000</speed>
</trkpt>
<trkpt lat="42.893627" lon="19.654192">
<ele>1902.922852</ele>
<time>2012-04-30T15:48:35Z</time>
<desc>lat.=42.893627, lon.=19.654192, Alt.=1902.922852m. Speed=2.772000m/h.</desc>
<speed>0.770000</speed>
</trkpt>
<trkpt lat="42.893593" lon="19.654219">
<ele>1903.141602</ele>
<time>2012-04-30T15:48:40Z</time>
<desc>lat.=42.893593, lon.=19.654219, Alt.=1903.141602m. Speed=3.420000m/h.</desc>
<speed>0.950000</speed>
</trkpt>
<trkpt lat="42.893555" lon="19.654242">
<ele>1903.141602</ele>
<time>2012-04-30T15:48:45Z</time>
<desc>lat.=42.893555, lon.=19.654242, Alt.=1903.141602m. Speed=2.916000m/h.</desc>
<speed>0.810000</speed>
</trkpt>
<trkpt lat="42.893555" lon="19.654240">
<ele>1903.235352</ele>
<time>2012-04-30T15:48:50Z</time>
<desc>lat.=42.893555, lon.=19.654240, Alt.=1903.235352m. Speed=0.216000m/h.</desc>
<speed>0.060000</speed>
</trkpt>
<trkpt lat="42.893555" lon="19.654238">
<ele>1902.735352</ele>
<time>2012-04-30T15:48:55Z</time>
<desc>lat.=42.893555, lon.=19.654238, Alt.=1902.735352m. Speed=0.108000m/h.</desc>
<speed>0.030000</speed>
</trkpt>
<trkpt lat="42.893539" lon="19.654247">
<ele>1902.985352</ele>
<time>2012-04-30T15:49:00Z</time>
<desc>lat.=42.893539, lon.=19.654247, Alt.=1902.985352m. Speed=0.576000m/h.</desc>
<speed>0.160000</speed>
</trkpt>
<trkpt lat="42.893539" lon="19.654255">
<ele>1902.641602</ele>
<time>2012-04-30T15:49:05Z</time>
<desc>lat.=42.893539, lon.=19.654255, Alt.=1902.641602m. Speed=0.288000m/h.</desc>
<speed>0.080000</speed>
</trkpt>
<trkpt lat="42.893543" lon="19.654259">
<ele>1901.985352</ele>
<time>2012-04-30T15:49:10Z</time>
<desc>lat.=42.893543, lon.=19.654259, Alt.=1901.985352m. Speed=0.648000m/h.</desc>
<speed>0.180000</speed>
</trkpt>
<trkpt lat="42.893547" lon="19.654263">
<ele>1901.391602</ele>
<time>2012-04-30T15:49:15Z</time>
<desc>lat.=42.893547, lon.=19.654263, Alt.=1901.391602m. Speed=0.576000m/h.</desc>
<speed>0.160000</speed>
</trkpt>
<trkpt lat="42.893524" lon="19.654305">
<ele>1901.391602</ele>
<time>2012-04-30T15:49:20Z</time>
<desc>lat.=42.893524, lon.=19.654305, Alt.=1901.391602m. Speed=3.852000m/h.</desc>
<speed>1.070000</speed>
</trkpt>
<trkpt lat="42.893482" lon="19.654322">
<ele>1901.141602</ele>
<time>2012-04-30T15:49:25Z</time>
<desc>lat.=42.893482, lon.=19.654322, Alt.=1901.141602m. Speed=2.988000m/h.</desc>
<speed>0.830000</speed>
</trkpt>
<trkpt lat="42.893429" lon="19.654333">
<ele>1901.641602</ele>
<time>2012-04-30T15:49:30Z</time>
<desc>lat.=42.893429, lon.=19.654333, Alt.=1901.641602m. Speed=3.276000m/h.</desc>
<speed>0.910000</speed>
</trkpt>
<trkpt lat="42.893372" lon="19.654350">
<ele>1902.672852</ele>
<time>2012-04-30T15:49:35Z</time>
<desc>lat.=42.893372, lon.=19.654350, Alt.=1902.672852m. Speed=4.284000m/h.</desc>
<speed>1.190000</speed>
</trkpt>
<trkpt lat="42.893349" lon="19.654383">
<ele>1903.141602</ele>
<time>2012-04-30T15:49:40Z</time>
<desc>lat.=42.893349, lon.=19.654383, Alt.=1903.141602m. Speed=0.720000m/h.</desc>
<speed>0.200000</speed>
</trkpt>
<trkpt lat="42.893341" lon="19.654394">
<ele>1903.266602</ele>
<time>2012-04-30T15:49:45Z</time>
<desc>lat.=42.893341, lon.=19.654394, Alt.=1903.266602m. Speed=0.936000m/h.</desc>
<speed>0.260000</speed>
</trkpt>
<trkpt lat="42.893337" lon="19.654411">
<ele>1903.860352</ele>
<time>2012-04-30T15:49:50Z</time>
<desc>lat.=42.893337, lon.=19.654411, Alt.=1903.860352m. Speed=1.440000m/h.</desc>
<speed>0.400000</speed>
</trkpt>
<trkpt lat="42.893307" lon="19.654449">
<ele>1904.422852</ele>
<time>2012-04-30T15:49:55Z</time>
<desc>lat.=42.893307, lon.=19.654449, Alt.=1904.422852m. Speed=2.484000m/h.</desc>
<speed>0.690000</speed>
</trkpt>
<trkpt lat="42.893269" lon="19.654486">
<ele>1905.016602</ele>
<time>2012-04-30T15:50:00Z</time>
<desc>lat.=42.893269, lon.=19.654486, Alt.=1905.016602m. Speed=3.456000m/h.</desc>
<speed>0.960000</speed>
</trkpt>
<trkpt lat="42.893246" lon="19.654533">
<ele>1905.110352</ele>
<time>2012-04-30T15:50:05Z</time>
<desc>lat.=42.893246, lon.=19.654533, Alt.=1905.110352m. Speed=2.736000m/h.</desc>
<speed>0.760000</speed>
</trkpt>
<trkpt lat="42.893208" lon="19.654552">
<ele>1905.454102</ele>
<time>2012-04-30T15:50:10Z</time>
<desc>lat.=42.893208, lon.=19.654552, Alt.=1905.454102m. Speed=3.744000m/h.</desc>
<speed>1.040000</speed>
</trkpt>
<trkpt lat="42.893150" lon="19.654572">
<ele>1905.579102</ele>
<time>2012-04-30T15:50:15Z</time>
<desc>lat.=42.893150, lon.=19.654572, Alt.=1905.579102m. Speed=3.276000m/h.</desc>
<speed>0.910000</speed>
</trkpt>
<trkpt lat="42.893127" lon="19.654610">
<ele>1905.641602</ele>
<time>2012-04-30T15:50:20Z</time>
<desc>lat.=42.893127, lon.=19.654610, Alt.=1905.641602m. Speed=2.556000m/h.</desc>
<speed>0.710000</speed>
</trkpt>
<trkpt lat="42.893116" lon="19.654642">
<ele>1905.672852</ele>
<time>2012-04-30T15:50:25Z</time>
<desc>lat.=42.893116, lon.=19.654642, Alt.=1905.672852m. Speed=2.520000m/h.</desc>
<speed>0.700000</speed>
</trkpt>
<trkpt lat="42.893093" lon="19.654686">
<ele>1905.797852</ele>
<time>2012-04-30T15:50:30Z</time>
<desc>lat.=42.893093, lon.=19.654686, Alt.=1905.797852m. Speed=2.880000m/h.</desc>
<speed>0.800000</speed>
</trkpt>
<trkpt lat="42.893059" lon="19.654713">
<ele>1905.922852</ele>
<time>2012-04-30T15:50:35Z</time>
<desc>lat.=42.893059, lon.=19.654713, Alt.=1905.922852m. Speed=1.836000m/h.</desc>
<speed>0.510000</speed>
</trkpt>
<trkpt lat="42.893051" lon="19.654747">
<ele>1906.110352</ele>
<time>2012-04-30T15:50:40Z</time>
<desc>lat.=42.893051, lon.=19.654747, Alt.=1906.110352m. Speed=1.872000m/h.</desc>
<speed>0.520000</speed>
</trkpt>
<trkpt lat="42.893040" lon="19.654797">
<ele>1906.454102</ele>
<time>2012-04-30T15:50:45Z</time>
<desc>lat.=42.893040, lon.=19.654797, Alt.=1906.454102m. Speed=3.240000m/h.</desc>
<speed>0.900000</speed>
</trkpt>
<trkpt lat="42.893009" lon="19.654835">
<ele>1906.454102</ele>
<time>2012-04-30T15:50:50Z</time>
<desc>lat.=42.893009, lon.=19.654835, Alt.=1906.454102m. Speed=3.528000m/h.</desc>
<speed>0.980000</speed>
</trkpt>
<trkpt lat="42.892971" lon="19.654869">
<ele>1907.110352</ele>
<time>2012-04-30T15:50:55Z</time>
<desc>lat.=42.892971, lon.=19.654869, Alt.=1907.110352m. Speed=2.952000m/h.</desc>
<speed>0.820000</speed>
</trkpt>
<trkpt lat="42.892937" lon="19.654894">
<ele>1907.391602</ele>
<time>2012-04-30T15:51:00Z</time>
<desc>lat.=42.892937, lon.=19.654894, Alt.=1907.391602m. Speed=2.664000m/h.</desc>
<speed>0.740000</speed>
</trkpt>
<trkpt lat="42.892895" lon="19.654915">
<ele>1907.579102</ele>
<time>2012-04-30T15:51:05Z</time>
<desc>lat.=42.892895, lon.=19.654915, Alt.=1907.579102m. Speed=3.240000m/h.</desc>
<speed>0.900000</speed>
</trkpt>
<trkpt lat="42.892864" lon="19.654945">
<ele>1908.016602</ele>
<time>2012-04-30T15:51:10Z</time>
<desc>lat.=42.892864, lon.=19.654945, Alt.=1908.016602m. Speed=3.312000m/h.</desc>
<speed>0.920000</speed>
</trkpt>
<trkpt lat="42.892834" lon="19.654963">
<ele>1909.047852</ele>
<time>2012-04-30T15:51:15Z</time>
<desc>lat.=42.892834, lon.=19.654963, Alt.=1909.047852m. Speed=2.880000m/h.</desc>
<speed>0.800000</speed>
</trkpt>
<trkpt lat="42.892811" lon="19.654995">
<ele>1909.579102</ele>
<time>2012-04-30T15:51:20Z</time>
<desc>lat.=42.892811, lon.=19.654995, Alt.=1909.579102m. Speed=2.340000m/h.</desc>
<speed>0.650000</speed>
</trkpt>
<trkpt lat="42.892796" lon="19.655031">
<ele>1910.204102</ele>
<time>2012-04-30T15:51:25Z</time>
<desc>lat.=42.892796, lon.=19.655031, Alt.=1910.204102m. Speed=3.096000m/h.</desc>
<speed>0.860000</speed>
</trkpt>
<trkpt lat="42.892784" lon="19.655102">
<ele>1910.547852</ele>
<time>2012-04-30T15:51:30Z</time>
<desc>lat.=42.892784, lon.=19.655102, Alt.=1910.547852m. Speed=2.808000m/h.</desc>
<speed>0.780000</speed>
</trkpt>
<trkpt lat="42.892773" lon="19.655186">
<ele>1911.110352</ele>
<time>2012-04-30T15:51:35Z</time>
<desc>lat.=42.892773, lon.=19.655186, Alt.=1911.110352m. Speed=3.384000m/h.</desc>
<speed>0.940000</speed>
</trkpt>
<trkpt lat="42.892754" lon="19.655230">
<ele>1911.704102</ele>
<time>2012-04-30T15:51:40Z</time>
<desc>lat.=42.892754, lon.=19.655230, Alt.=1911.704102m. Speed=2.124000m/h.</desc>
<speed>0.590000</speed>
</trkpt>
<trkpt lat="42.892738" lon="19.655254">
<ele>1912.016602</ele>
<time>2012-04-30T15:51:45Z</time>
<desc>lat.=42.892738, lon.=19.655254, Alt.=1912.016602m. Speed=1.260000m/h.</desc>
<speed>0.350000</speed>
</trkpt>
<trkpt lat="42.892723" lon="19.655270">
<ele>1912.266602</ele>
<time>2012-04-30T15:51:50Z</time>
<desc>lat.=42.892723, lon.=19.655270, Alt.=1912.266602m. Speed=1.692000m/h.</desc>
<speed>0.470000</speed>
</trkpt>
<trkpt lat="42.892700" lon="19.655310">
<ele>1912.641602</ele>
<time>2012-04-30T15:51:55Z</time>
<desc>lat.=42.892700, lon.=19.655310, Alt.=1912.641602m. Speed=2.448000m/h.</desc>
<speed>0.680000</speed>
</trkpt>
<trkpt lat="42.892666" lon="19.655340">
<ele>1913.079102</ele>
<time>2012-04-30T15:52:00Z</time>
<desc>lat.=42.892666, lon.=19.655340, Alt.=1913.079102m. Speed=2.232000m/h.</desc>
<speed>0.620000</speed>
</trkpt>
<trkpt lat="42.892651" lon="19.655344">
<ele>1913.079102</ele>
<time>2012-04-30T15:52:05Z</time>
<desc>lat.=42.892651, lon.=19.655344, Alt.=1913.079102m. Speed=0.396000m/h.</desc>
<speed>0.110000</speed>
</trkpt>
<trkpt lat="42.892651" lon="19.655346">
<ele>1913.266602</ele>
<time>2012-04-30T15:52:10Z</time>
<desc>lat.=42.892651, lon.=19.655346, Alt.=1913.266602m. Speed=0.900000m/h.</desc>
<speed>0.250000</speed>
</trkpt>
<trkpt lat="42.892643" lon="19.655388">
<ele>1913.485352</ele>
<time>2012-04-30T15:52:15Z</time>
<desc>lat.=42.892643, lon.=19.655388, Alt.=1913.485352m. Speed=1.944000m/h.</desc>
<speed>0.540000</speed>
</trkpt>
<trkpt lat="42.892609" lon="19.655430">
<ele>1914.860352</ele>
<time>2012-04-30T15:52:20Z</time>
<desc>lat.=42.892609, lon.=19.655430, Alt.=1914.860352m. Speed=3.168000m/h.</desc>
<speed>0.880000</speed>
</trkpt>
<trkpt lat="42.892563" lon="19.655481">
<ele>1915.454102</ele>
<time>2012-04-30T15:52:25Z</time>
<desc>lat.=42.892563, lon.=19.655481, Alt.=1915.454102m. Speed=3.672000m/h.</desc>
<speed>1.020000</speed>
</trkpt>
<trkpt lat="42.892513" lon="19.655510">
<ele>1916.391602</ele>
<time>2012-04-30T15:52:30Z</time>
<desc>lat.=42.892513, lon.=19.655510, Alt.=1916.391602m. Speed=1.224000m/h.</desc>
<speed>0.340000</speed>
</trkpt>
<trkpt lat="42.892513" lon="19.655514">
<ele>1916.704102</ele>
<time>2012-04-30T15:52:35Z</time>
<desc>lat.=42.892513, lon.=19.655514, Alt.=1916.704102m. Speed=0.108000m/h.</desc>
<speed>0.030000</speed>
</trkpt>
<trkpt lat="42.892513" lon="19.655514">
<ele>1917.235352</ele>
<time>2012-04-30T15:52:40Z</time>
<desc>lat.=42.892513, lon.=19.655514, Alt.=1917.235352m. Speed=0.360000m/h.</desc>
<speed>0.100000</speed>
</trkpt>
<trkpt lat="42.892498" lon="19.655531">
<ele>1917.954102</ele>
<time>2012-04-30T15:52:45Z</time>
<desc>lat.=42.892498, lon.=19.655531, Alt.=1917.954102m. Speed=1.872000m/h.</desc>
<speed>0.520000</speed>
</trkpt>
<trkpt lat="42.892441" lon="19.655582">
<ele>1918.704102</ele>
<time>2012-04-30T15:52:50Z</time>
<desc>lat.=42.892441, lon.=19.655582, Alt.=1918.704102m. Speed=3.672000m/h.</desc>
<speed>1.020000</speed>
</trkpt>
<trkpt lat="42.892399" lon="19.655621">
<ele>1919.547852</ele>
<time>2012-04-30T15:52:55Z</time>
<desc>lat.=42.892399, lon.=19.655621, Alt.=1919.547852m. Speed=2.484000m/h.</desc>
<speed>0.690000</speed>
</trkpt>
<trkpt lat="42.892353" lon="19.655663">
<ele>1920.110352</ele>
<time>2012-04-30T15:53:00Z</time>
<desc>lat.=42.892353, lon.=19.655663, Alt.=1920.110352m. Speed=3.420000m/h.</desc>
<speed>0.950000</speed>
</trkpt>
<trkpt lat="42.892334" lon="19.655689">
<ele>1920.422852</ele>
<time>2012-04-30T15:53:05Z</time>
<desc>lat.=42.892334, lon.=19.655689, Alt.=1920.422852m. Speed=2.016000m/h.</desc>
<speed>0.560000</speed>
</trkpt>
<trkpt lat="42.892307" lon="19.655735">
<ele>1920.516602</ele>
<time>2012-04-30T15:53:10Z</time>
<desc>lat.=42.892307, lon.=19.655735, Alt.=1920.516602m. Speed=3.204000m/h.</desc>
<speed>0.890000</speed>
</trkpt>
<trkpt lat="42.892273" lon="19.655754">
<ele>1921.047852</ele>
<time>2012-04-30T15:53:15Z</time>
<desc>lat.=42.892273, lon.=19.655754, Alt.=1921.047852m. Speed=3.312000m/h.</desc>
<speed>0.920000</speed>
</trkpt>
<trkpt lat="42.892246" lon="19.655785">
<ele>1921.360352</ele>
<time>2012-04-30T15:53:20Z</time>
<desc>lat.=42.892246, lon.=19.655785, Alt.=1921.360352m. Speed=2.844000m/h.</desc>
<speed>0.790000</speed>
</trkpt>
<trkpt lat="42.892204" lon="19.655813">
<ele>1922.204102</ele>
<time>2012-04-30T15:53:25Z</time>
<desc>lat.=42.892204, lon.=19.655813, Alt.=1922.204102m. Speed=3.528000m/h.</desc>
<speed>0.980000</speed>
</trkpt>
<trkpt lat="42.892166" lon="19.655851">
<ele>1922.079102</ele>
<time>2012-04-30T15:53:30Z</time>
<desc>lat.=42.892166, lon.=19.655851, Alt.=1922.079102m. Speed=3.096000m/h.</desc>
<speed>0.860000</speed>
</trkpt>
<trkpt lat="42.892139" lon="19.655878">
<ele>1922.860352</ele>
<time>2012-04-30T15:53:35Z</time>
<desc>lat.=42.892139, lon.=19.655878, Alt.=1922.860352m. Speed=2.628000m/h.</desc>
<speed>0.730000</speed>
</trkpt>
<trkpt lat="42.892139" lon="19.655888">
<ele>1923.141602</ele>
<time>2012-04-30T15:53:40Z</time>
<desc>lat.=42.892139, lon.=19.655888, Alt.=1923.141602m. Speed=0.540000m/h.</desc>
<speed>0.150000</speed>
</trkpt>
<trkpt lat="42.892139" lon="19.655891">
<ele>1923.297852</ele>
<time>2012-04-30T15:53:45Z</time>
<desc>lat.=42.892139, lon.=19.655891, Alt.=1923.297852m. Speed=0.108000m/h.</desc>
<speed>0.030000</speed>
</trkpt>
<trkpt lat="42.892136" lon="19.655891">
<ele>1923.485352</ele>
<time>2012-04-30T15:53:50Z</time>
<desc>lat.=42.892136, lon.=19.655891, Alt.=1923.485352m. Speed=2.304000m/h.</desc>
<speed>0.640000</speed>
</trkpt>
<trkpt lat="42.892113" lon="19.655920">
<ele>1923.641602</ele>
<time>2012-04-30T15:53:55Z</time>
<desc>lat.=42.892113, lon.=19.655920, Alt.=1923.641602m. Speed=3.924000m/h.</desc>
<speed>1.090000</speed>
</trkpt>
<trkpt lat="42.892063" lon="19.655954">
<ele>1923.516602</ele>
<time>2012-04-30T15:54:00Z</time>
<desc>lat.=42.892063, lon.=19.655954, Alt.=1923.516602m. Speed=4.536000m/h.</desc>
<speed>1.260000</speed>
</trkpt>
<trkpt lat="42.892033" lon="19.655996">
<ele>1923.485352</ele>
<time>2012-04-30T15:54:05Z</time>
<desc>lat.=42.892033, lon.=19.655996, Alt.=1923.485352m. Speed=4.104000m/h.</desc>
<speed>1.140000</speed>
</trkpt>
<trkpt lat="42.891983" lon="19.656021">
<ele>1923.516602</ele>
<time>2012-04-30T15:54:10Z</time>
<desc>lat.=42.891983, lon.=19.656021, Alt.=1923.516602m. Speed=3.240000m/h.</desc>
<speed>0.900000</speed>
</trkpt>
<trkpt lat="42.891945" lon="19.656050">
<ele>1923.516602</ele>
<time>2012-04-30T15:54:15Z</time>
<desc>lat.=42.891945, lon.=19.656050, Alt.=1923.516602m. Speed=2.916000m/h.</desc>
<speed>0.810000</speed>
</trkpt>
<trkpt lat="42.891933" lon="19.656067">
<ele>1923.860352</ele>
<time>2012-04-30T15:54:20Z</time>
<desc>lat.=42.891933, lon.=19.656067, Alt.=1923.860352m. Speed=0.792000m/h.</desc>
<speed>0.220000</speed>
</trkpt>
<trkpt lat="42.891903" lon="19.656065">
<ele>1923.329102</ele>
<time>2012-04-30T15:54:25Z</time>
<desc>lat.=42.891903, lon.=19.656065, Alt.=1923.329102m. Speed=1.872000m/h.</desc>
<speed>0.520000</speed>
</trkpt>
<trkpt lat="42.891869" lon="19.656069">
<ele>1923.797852</ele>
<time>2012-04-30T15:54:30Z</time>
<desc>lat.=42.891869, lon.=19.656069, Alt.=1923.797852m. Speed=2.664000m/h.</desc>
<speed>0.740000</speed>
</trkpt>
<trkpt lat="42.891838" lon="19.656090">
<ele>1922.672852</ele>
<time>2012-04-30T15:54:35Z</time>
<desc>lat.=42.891838, lon.=19.656090, Alt.=1922.672852m. Speed=2.196000m/h.</desc>
<speed>0.610000</speed>
</trkpt>
<trkpt lat="42.891788" lon="19.656118">
<ele>1922.454102</ele>
<time>2012-04-30T15:54:40Z</time>
<desc>lat.=42.891788, lon.=19.656118, Alt.=1922.454102m. Speed=3.528000m/h.</desc>
<speed>0.980000</speed>
</trkpt>
<trkpt lat="42.891743" lon="19.656122">
<ele>1922.954102</ele>
<time>2012-04-30T15:54:45Z</time>
<desc>lat.=42.891743, lon.=19.656122, Alt.=1922.954102m. Speed=4.104000m/h.</desc>
<speed>1.140000</speed>
</trkpt>
<trkpt lat="42.891705" lon="19.656162">
<ele>1923.485352</ele>
<time>2012-04-30T15:54:50Z</time>
<desc>lat.=42.891705, lon.=19.656162, Alt.=1923.485352m. Speed=2.556000m/h.</desc>
<speed>0.710000</speed>
</trkpt>
<trkpt lat="42.891666" lon="19.656181">
<ele>1923.672852</ele>
<time>2012-04-30T15:54:55Z</time>
<desc>lat.=42.891666, lon.=19.656181, Alt.=1923.672852m. Speed=3.096000m/h.</desc>
<speed>0.860000</speed>
</trkpt>
<trkpt lat="42.891632" lon="19.656191">
<ele>1923.922852</ele>
<time>2012-04-30T15:55:00Z</time>
<desc>lat.=42.891632, lon.=19.656191, Alt.=1923.922852m. Speed=3.240000m/h.</desc>
<speed>0.900000</speed>
</trkpt>
<trkpt lat="42.891602" lon="19.656218">
<ele>1924.141602</ele>
<time>2012-04-30T15:55:05Z</time>
<desc>lat.=42.891602, lon.=19.656218, Alt.=1924.141602m. Speed=3.852000m/h.</desc>
<speed>1.070000</speed>
</trkpt>
<trkpt lat="42.891571" lon="19.656265">
<ele>1924.704102</ele>
<time>2012-04-30T15:55:10Z</time>
<desc>lat.=42.891571, lon.=19.656265, Alt.=1924.704102m. Speed=3.096000m/h.</desc>
<speed>0.860000</speed>
</trkpt>
<trkpt lat="42.891541" lon="19.656301">
<ele>1924.954102</ele>
<time>2012-04-30T15:55:15Z</time>
<desc>lat.=42.891541, lon.=19.656301, Alt.=1924.954102m. Speed=3.600000m/h.</desc>
<speed>1.000000</speed>
</trkpt>
<trkpt lat="42.891499" lon="19.656336">
<ele>1925.266602</ele>
<time>2012-04-30T15:55:20Z</time>
<desc>lat.=42.891499, lon.=19.656336, Alt.=1925.266602m. Speed=3.384000m/h.</desc>
<speed>0.940000</speed>
</trkpt>
<trkpt lat="42.891460" lon="19.656353">
<ele>1925.454102</ele>
<time>2012-04-30T15:55:25Z</time>
<desc>lat.=42.891460, lon.=19.656353, Alt.=1925.454102m. Speed=5.148000m/h.</desc>
<speed>1.430000</speed>
</trkpt>
<trkpt lat="42.891415" lon="19.656387">
<ele>1924.579102</ele>
<time>2012-04-30T15:55:30Z</time>
<desc>lat.=42.891415, lon.=19.656387, Alt.=1924.579102m. Speed=4.212000m/h.</desc>
<speed>1.170000</speed>
</trkpt>
<trkpt lat="42.891380" lon="19.656418">
<ele>1924.266602</ele>
<time>2012-04-30T15:55:35Z</time>
<desc>lat.=42.891380, lon.=19.656418, Alt.=1924.266602m. Speed=4.140000m/h.</desc>
<speed>1.150000</speed>
</trkpt>
<trkpt lat="42.891354" lon="19.656443">
<ele>1923.485352</ele>
<time>2012-04-30T15:55:40Z</time>
<desc>lat.=42.891354, lon.=19.656443, Alt.=1923.485352m. Speed=0.252000m/h.</desc>
<speed>0.070000</speed>
</trkpt>
<trkpt lat="42.891350" lon="19.656448">
<ele>1923.704102</ele>
<time>2012-04-30T15:55:45Z</time>
<desc>lat.=42.891350, lon.=19.656448, Alt.=1923.704102m. Speed=0.756000m/h.</desc>
<speed>0.210000</speed>
</trkpt>
<trkpt lat="42.891331" lon="19.656479">
<ele>1923.954102</ele>
<time>2012-04-30T15:55:50Z</time>
<desc>lat.=42.891331, lon.=19.656479, Alt.=1923.954102m. Speed=2.124000m/h.</desc>
<speed>0.590000</speed>
</trkpt>
<trkpt lat="42.891304" lon="19.656509">
<ele>1924.454102</ele>
<time>2012-04-30T15:55:55Z</time>
<desc>lat.=42.891304, lon.=19.656509, Alt.=1924.454102m. Speed=2.520000m/h.</desc>
<speed>0.700000</speed>
</trkpt>
<trkpt lat="42.891273" lon="19.656551">
<ele>1924.610352</ele>
<time>2012-04-30T15:56:00Z</time>
<desc>lat.=42.891273, lon.=19.656551, Alt.=1924.610352m. Speed=2.412000m/h.</desc>
<speed>0.670000</speed>
</trkpt>
<trkpt lat="42.891220" lon="19.656582">
<ele>1924.704102</ele>
<time>2012-04-30T15:56:05Z</time>
<desc>lat.=42.891220, lon.=19.656582, Alt.=1924.704102m. Speed=3.636000m/h.</desc>
<speed>1.010000</speed>
</trkpt>
<trkpt lat="42.891174" lon="19.656610">
<ele>1924.860352</ele>
<time>2012-04-30T15:56:10Z</time>
<desc>lat.=42.891174, lon.=19.656610, Alt.=1924.860352m. Speed=3.528000m/h.</desc>
<speed>0.980000</speed>
</trkpt>
<trkpt lat="42.891129" lon="19.656618">
<ele>1925.047852</ele>
<time>2012-04-30T15:56:15Z</time>
<desc>lat.=42.891129, lon.=19.656618, Alt.=1925.047852m. Speed=3.168000m/h.</desc>
<speed>0.880000</speed>
</trkpt>
<trkpt lat="42.891106" lon="19.656645">
<ele>1925.547852</ele>
<time>2012-04-30T15:56:20Z</time>
<desc>lat.=42.891106, lon.=19.656645, Alt.=1925.547852m. Speed=1.188000m/h.</desc>
<speed>0.330000</speed>
</trkpt>
<trkpt lat="42.891079" lon="19.656681">
<ele>1926.485352</ele>
<time>2012-04-30T15:56:25Z</time>
<desc>lat.=42.891079, lon.=19.656681, Alt.=1926.485352m. Speed=2.808000m/h.</desc>
<speed>0.780000</speed>
</trkpt>
<trkpt lat="42.891075" lon="19.656702">
<ele>1926.297852</ele>
<time>2012-04-30T15:56:30Z</time>
<desc>lat.=42.891075, lon.=19.656702, Alt.=1926.297852m. Speed=0.468000m/h.</desc>
<speed>0.130000</speed>
</trkpt>
<trkpt lat="42.891075" lon="19.656712">
<ele>1926.422852</ele>
<time>2012-04-30T15:56:35Z</time>
<desc>lat.=42.891075, lon.=19.656712, Alt.=1926.422852m. Speed=0.576000m/h.</desc>
<speed>0.160000</speed>
</trkpt>
<trkpt lat="42.891071" lon="19.656721">
<ele>1926.579102</ele>
<time>2012-04-30T15:56:40Z</time>
<desc>lat.=42.891071, lon.=19.656721, Alt.=1926.579102m. Speed=0.720000m/h.</desc>
<speed>0.200000</speed>
</trkpt>
<trkpt lat="42.891064" lon="19.656725">
<ele>1926.735352</ele>
<time>2012-04-30T15:56:45Z</time>
<desc>lat.=42.891064, lon.=19.656725, Alt.=1926.735352m. Speed=0.432000m/h.</desc>
<speed>0.120000</speed>
</trkpt>
<trkpt lat="42.891056" lon="19.656723">
<ele>1926.891602</ele>
<time>2012-04-30T15:56:50Z</time>
<desc>lat.=42.891056, lon.=19.656723, Alt.=1926.891602m. Speed=0.504000m/h.</desc>
<speed>0.140000</speed>
</trkpt>
<trkpt lat="42.891052" lon="19.656723">
<ele>1927.047852</ele>
<time>2012-04-30T15:56:55Z</time>
<desc>lat.=42.891052, lon.=19.656723, Alt.=1927.047852m. Speed=0.504000m/h.</desc>
<speed>0.140000</speed>
</trkpt>
<trkpt lat="42.891048" lon="19.656727">
<ele>1927.235352</ele>
<time>2012-04-30T15:57:00Z</time>
<desc>lat.=42.891048, lon.=19.656727, Alt.=1927.235352m. Speed=0.576000m/h.</desc>
<speed>0.160000</speed>
</trkpt>
<trkpt lat="42.891041" lon="19.656733">
<ele>1927.391602</ele>
<time>2012-04-30T15:57:05Z</time>
<desc>lat.=42.891041, lon.=19.656733, Alt.=1927.391602m. Speed=0.432000m/h.</desc>
<speed>0.120000</speed>
</trkpt>
<trkpt lat="42.891037" lon="19.656742">
<ele>1927.485352</ele>
<time>2012-04-30T15:57:10Z</time>
<desc>lat.=42.891037, lon.=19.656742, Alt.=1927.485352m. Speed=1.728000m/h.</desc>
<speed>0.480000</speed>
</trkpt>
<trkpt lat="42.891010" lon="19.656794">
<ele>1927.860352</ele>
<time>2012-04-30T15:57:15Z</time>
<desc>lat.=42.891010, lon.=19.656794, Alt.=1927.860352m. Speed=4.248000m/h.</desc>
<speed>1.180000</speed>
</trkpt>
<trkpt lat="42.890991" lon="19.656853">
<ele>1927.641602</ele>
<time>2012-04-30T15:57:20Z</time>
<desc>lat.=42.890991, lon.=19.656853, Alt.=1927.641602m. Speed=4.176000m/h.</desc>
<speed>1.160000</speed>
</trkpt>
<trkpt lat="42.890987" lon="19.656898">
<ele>1927.516602</ele>
<time>2012-04-30T15:57:25Z</time>
<desc>lat.=42.890987, lon.=19.656898, Alt.=1927.516602m. Speed=4.500000m/h.</desc>
<speed>1.250000</speed>
</trkpt>
<trkpt lat="42.890961" lon="19.656952">
<ele>1928.204102</ele>
<time>2012-04-30T15:57:30Z</time>
<desc>lat.=42.890961, lon.=19.656952, Alt.=1928.204102m. Speed=4.752000m/h.</desc>
<speed>1.320000</speed>
</trkpt>
<trkpt lat="42.890938" lon="19.657019">
<ele>1929.297852</ele>
<time>2012-04-30T15:57:35Z</time>
<desc>lat.=42.890938, lon.=19.657019, Alt.=1929.297852m. Speed=4.536000m/h.</desc>
<speed>1.260000</speed>
</trkpt>
<trkpt lat="42.890923" lon="19.657091">
<ele>1929.766602</ele>
<time>2012-04-30T15:57:40Z</time>
<desc>lat.=42.890923, lon.=19.657091, Alt.=1929.766602m. Speed=4.032000m/h.</desc>
<speed>1.120000</speed>
</trkpt>
<trkpt lat="42.890919" lon="19.657160">
<ele>1930.110352</ele>
<time>2012-04-30T15:57:45Z</time>
<desc>lat.=42.890919, lon.=19.657160, Alt.=1930.110352m. Speed=4.716000m/h.</desc>
<speed>1.310000</speed>
</trkpt>
<trkpt lat="42.890957" lon="19.657232">
<ele>1929.422852</ele>
<time>2012-04-30T15:57:50Z</time>
<desc>lat.=42.890957, lon.=19.657232, Alt.=1929.422852m. Speed=4.140000m/h.</desc>
<speed>1.150000</speed>
</trkpt>
<trkpt lat="42.890961" lon="19.657291">
<ele>1928.860352</ele>
<time>2012-04-30T15:57:55Z</time>
<desc>lat.=42.890961, lon.=19.657291, Alt.=1928.860352m. Speed=4.428000m/h.</desc>
<speed>1.230000</speed>
</trkpt>
<trkpt lat="42.890953" lon="19.657364">
<ele>1928.047852</ele>
<time>2012-04-30T15:58:00Z</time>
<desc>lat.=42.890953, lon.=19.657364, Alt.=1928.047852m. Speed=3.528000m/h.</desc>
<speed>0.980000</speed>
</trkpt>
<trkpt lat="42.890907" lon="19.657427">
<ele>1927.454102</ele>
<time>2012-04-30T15:58:05Z</time>
<desc>lat.=42.890907, lon.=19.657427, Alt.=1927.454102m. Speed=3.960000m/h.</desc>
<speed>1.100000</speed>
</trkpt>
<trkpt lat="42.890881" lon="19.657490">
<ele>1927.297852</ele>
<time>2012-04-30T15:58:10Z</time>
<desc>lat.=42.890881, lon.=19.657490, Alt.=1927.297852m. Speed=4.716000m/h.</desc>
<speed>1.310000</speed>
</trkpt>
<trkpt lat="42.890850" lon="19.657543">
<ele>1927.547852</ele>
<time>2012-04-30T15:58:15Z</time>
<desc>lat.=42.890850, lon.=19.657543, Alt.=1927.547852m. Speed=2.664000m/h.</desc>
<speed>0.740000</speed>
</trkpt>
<trkpt lat="42.890846" lon="19.657591">
<ele>1926.922852</ele>
<time>2012-04-30T15:58:20Z</time>
<desc>lat.=42.890846, lon.=19.657591, Alt.=1926.922852m. Speed=2.664000m/h.</desc>
<speed>0.740000</speed>
</trkpt>
<trkpt lat="42.890831" lon="19.657640">
<ele>1926.641602</ele>
<time>2012-04-30T15:58:25Z</time>
<desc>lat.=42.890831, lon.=19.657640, Alt.=1926.641602m. Speed=3.312000m/h.</desc>
<speed>0.920000</speed>
</trkpt>
<trkpt lat="42.890785" lon="19.657671">
<ele>1925.485352</ele>
<time>2012-04-30T15:58:30Z</time>
<desc>lat.=42.890785, lon.=19.657671, Alt.=1925.485352m. Speed=3.168000m/h.</desc>
<speed>0.880000</speed>
</trkpt>
<trkpt lat="42.890736" lon="19.657722">
<ele>1924.860352</ele>
<time>2012-04-30T15:58:35Z</time>
<desc>lat.=42.890736, lon.=19.657722, Alt.=1924.860352m. Speed=4.788000m/h.</desc>
<speed>1.330000</speed>
</trkpt>
<trkpt lat="42.890720" lon="19.657791">
<ele>1924.110352</ele>
<time>2012-04-30T15:58:40Z</time>
<desc>lat.=42.890720, lon.=19.657791, Alt.=1924.110352m. Speed=3.168000m/h.</desc>
<speed>0.880000</speed>
</trkpt>
<trkpt lat="42.890717" lon="19.657829">
<ele>1924.391602</ele>
<time>2012-04-30T15:58:45Z</time>
<desc>lat.=42.890717, lon.=19.657829, Alt.=1924.391602m. Speed=3.024000m/h.</desc>
<speed>0.840000</speed>
</trkpt>
<trkpt lat="42.890701" lon="19.657883">
<ele>1924.422852</ele>
<time>2012-04-30T15:58:50Z</time>
<desc>lat.=42.890701, lon.=19.657883, Alt.=1924.422852m. Speed=1.944000m/h.</desc>
<speed>0.540000</speed>
</trkpt>
<trkpt lat="42.890682" lon="19.657902">
<ele>1924.329102</ele>
<time>2012-04-30T15:58:55Z</time>
<desc>lat.=42.890682, lon.=19.657902, Alt.=1924.329102m. Speed=4.284000m/h.</desc>
<speed>1.190000</speed>
</trkpt>
<trkpt lat="42.890678" lon="19.657978">
<ele>1923.954102</ele>
<time>2012-04-30T15:59:00Z</time>
<desc>lat.=42.890678, lon.=19.657978, Alt.=1923.954102m. Speed=3.960000m/h.</desc>
<speed>1.100000</speed>
</trkpt>
<trkpt lat="42.890671" lon="19.658020">
<ele>1923.672852</ele>
<time>2012-04-30T15:59:05Z</time>
<desc>lat.=42.890671, lon.=19.658020, Alt.=1923.672852m. Speed=0.180000m/h.</desc>
<speed>0.050000</speed>
</trkpt>
<trkpt lat="42.890663" lon="19.658020">
<ele>1923.954102</ele>
<time>2012-04-30T15:59:10Z</time>
<desc>lat.=42.890663, lon.=19.658020, Alt.=1923.954102m. Speed=0.108000m/h.</desc>
<speed>0.030000</speed>
</trkpt>
<trkpt lat="42.890663" lon="19.658020">
<ele>1923.985352</ele>
<time>2012-04-30T15:59:15Z</time>
<desc>lat.=42.890663, lon.=19.658020, Alt.=1923.985352m. Speed=0.000000m/h.</desc>
<speed>0.000000</speed>
</trkpt>
<trkpt lat="42.890663" lon="19.658022">
<ele>1923.954102</ele>
<time>2012-04-30T15:59:20Z</time>
<desc>lat.=42.890663, lon.=19.658022, Alt.=1923.954102m. Speed=1.116000m/h.</desc>
<speed>0.310000</speed>
</trkpt>
<trkpt lat="42.890648" lon="19.658079">
<ele>1924.297852</ele>
<time>2012-04-30T15:59:25Z</time>
<desc>lat.=42.890648, lon.=19.658079, Alt.=1924.297852m. Speed=3.348000m/h.</desc>
<speed>0.930000</speed>
</trkpt>
<trkpt lat="42.890652" lon="19.658094">
<ele>1924.422852</ele>
<time>2012-04-30T15:59:30Z</time>
<desc>lat.=42.890652, lon.=19.658094, Alt.=1924.422852m. Speed=0.072000m/h.</desc>
<speed>0.020000</speed>
</trkpt>
<trkpt lat="42.890633" lon="19.658129">
<ele>1924.485352</ele>
<time>2012-04-30T15:59:35Z</time>
<desc>lat.=42.890633, lon.=19.658129, Alt.=1924.485352m. Speed=1.692000m/h.</desc>
<speed>0.470000</speed>
</trkpt>
<trkpt lat="42.890617" lon="19.658169">
<ele>1924.891602</ele>
<time>2012-04-30T15:59:40Z</time>
<desc>lat.=42.890617, lon.=19.658169, Alt.=1924.891602m. Speed=3.600000m/h.</desc>
<speed>1.000000</speed>
</trkpt>
<trkpt lat="42.890594" lon="19.658216">
<ele>1924.766602</ele>
<time>2012-04-30T15:59:45Z</time>
<desc>lat.=42.890594, lon.=19.658216, Alt.=1924.766602m. Speed=3.312000m/h.</desc>
<speed>0.920000</speed>
</trkpt>
<trkpt lat="42.890568" lon="19.658274">
<ele>1924.704102</ele>
<time>2012-04-30T15:59:50Z</time>
<desc>lat.=42.890568, lon.=19.658274, Alt.=1924.704102m. Speed=2.592000m/h.</desc>
<speed>0.720000</speed>
</trkpt>
<trkpt lat="42.890556" lon="19.658325">
<ele>1924.141602</ele>
<time>2012-04-30T15:59:55Z</time>
<desc>lat.=42.890556, lon.=19.658325, Alt.=1924.141602m. Speed=3.132000m/h.</desc>
<speed>0.870000</speed>
</trkpt>
<trkpt lat="42.890556" lon="19.658333">
<ele>1923.579102</ele>
<time>2012-04-30T16:00:00Z</time>
<desc>lat.=42.890556, lon.=19.658333, Alt.=1923.579102m. Speed=0.252000m/h.</desc>
<speed>0.070000</speed>
</trkpt>
<trkpt lat="42.890556" lon="19.658337">
<ele>1923.579102</ele>
<time>2012-04-30T16:00:05Z</time>
<desc>lat.=42.890556, lon.=19.658337, Alt.=1923.579102m. Speed=0.180000m/h.</desc>
<speed>0.050000</speed>
</trkpt>
<trkpt lat="42.890556" lon="19.658337">
<ele>1923.610352</ele>
<time>2012-04-30T16:00:10Z</time>
<desc>lat.=42.890556, lon.=19.658337, Alt.=1923.610352m. Speed=0.324000m/h.</desc>
<speed>0.090000</speed>
</trkpt>
<trkpt lat="42.890556" lon="19.658350">
<ele>1923.360352</ele>
<time>2012-04-30T16:00:15Z</time>
<desc>lat.=42.890556, lon.=19.658350, Alt.=1923.360352m. Speed=2.124000m/h.</desc>
<speed>0.590000</speed>
</trkpt>
<trkpt lat="42.890553" lon="19.658381">
<ele>1923.579102</ele>
<time>2012-04-30T16:00:20Z</time>
<desc>lat.=42.890553, lon.=19.658381, Alt.=1923.579102m. Speed=0.216000m/h.</desc>
<speed>0.060000</speed>
</trkpt>
<trkpt lat="42.890556" lon="19.658386">
<ele>1923.641602</ele>
<time>2012-04-30T16:00:25Z</time>
<desc>lat.=42.890556, lon.=19.658386, Alt.=1923.641602m. Speed=2.268000m/h.</desc>
<speed>0.630000</speed>
</trkpt>
<trkpt lat="42.890533" lon="19.658417">
<ele>1923.641602</ele>
<time>2012-04-30T16:00:30Z</time>
<desc>lat.=42.890533, lon.=19.658417, Alt.=1923.641602m. Speed=2.412000m/h.</desc>
<speed>0.670000</speed>
</trkpt>
<trkpt lat="42.890491" lon="19.658449">
<ele>1923.329102</ele>
<time>2012-04-30T16:00:35Z</time>
<desc>lat.=42.890491, lon.=19.658449, Alt.=1923.329102m. Speed=3.384000m/h.</desc>
<speed>0.940000</speed>
</trkpt>
<trkpt lat="42.890465" lon="19.658504">
<ele>1922.829102</ele>
<time>2012-04-30T16:00:40Z</time>
<desc>lat.=42.890465, lon.=19.658504, Alt.=1922.829102m. Speed=2.916000m/h.</desc>
<speed>0.810000</speed>
</trkpt>
<trkpt lat="42.890442" lon="19.658569">
<ele>1923.547852</ele>
<time>2012-04-30T16:00:45Z</time>
<desc>lat.=42.890442, lon.=19.658569, Alt.=1923.547852m. Speed=2.592000m/h.</desc>
<speed>0.720000</speed>
</trkpt>
<trkpt lat="42.890446" lon="19.658634">
<ele>1924.266602</ele>
<time>2012-04-30T16:00:50Z</time>
<desc>lat.=42.890446, lon.=19.658634, Alt.=1924.266602m. Speed=2.988000m/h.</desc>
<speed>0.830000</speed>
</trkpt>
<trkpt lat="42.890408" lon="19.658672">
<ele>1924.516602</ele>
<time>2012-04-30T16:00:55Z</time>
<desc>lat.=42.890408, lon.=19.658672, Alt.=1924.516602m. Speed=3.528000m/h.</desc>
<speed>0.980000</speed>
</trkpt>
<trkpt lat="42.890369" lon="19.658745">
<ele>1924.766602</ele>
<time>2012-04-30T16:01:00Z</time>
<desc>lat.=42.890369, lon.=19.658745, Alt.=1924.766602m. Speed=3.744000m/h.</desc>
<speed>1.040000</speed>
</trkpt>
<trkpt lat="42.890343" lon="19.658794">
<ele>1924.985352</ele>
<time>2012-04-30T16:01:05Z</time>
<desc>lat.=42.890343, lon.=19.658794, Alt.=1924.985352m. Speed=3.456000m/h.</desc>
<speed>0.960000</speed>
</trkpt>
<trkpt lat="42.890331" lon="19.658855">
<ele>1924.985352</ele>
<time>2012-04-30T16:01:10Z</time>
<desc>lat.=42.890331, lon.=19.658855, Alt.=1924.985352m. Speed=3.780000m/h.</desc>
<speed>1.050000</speed>
</trkpt>
<trkpt lat="42.890327" lon="19.658865">
<ele>1924.766602</ele>
<time>2012-04-30T16:01:15Z</time>
<desc>lat.=42.890327, lon.=19.658865, Alt.=1924.766602m. Speed=0.072000m/h.</desc>
<speed>0.020000</speed>
</trkpt>
<trkpt lat="42.890331" lon="19.658863">
<ele>1925.047852</ele>
<time>2012-04-30T16:01:20Z</time>
<desc>lat.=42.890331, lon.=19.658863, Alt.=1925.047852m. Speed=0.072000m/h.</desc>
<speed>0.020000</speed>
</trkpt>
<trkpt lat="42.890331" lon="19.658863">
<ele>1925.297852</ele>
<time>2012-04-30T16:01:25Z</time>
<desc>lat.=42.890331, lon.=19.658863, Alt.=1925.297852m. Speed=0.180000m/h.</desc>
<speed>0.050000</speed>
</trkpt>
<trkpt lat="42.890312" lon="19.658886">
<ele>1925.454102</ele>
<time>2012-04-30T16:01:30Z</time>
<desc>lat.=42.890312, lon.=19.658886, Alt.=1925.454102m. Speed=2.988000m/h.</desc>
<speed>0.830000</speed>
</trkpt>
<trkpt lat="42.890293" lon="19.658943">
<ele>1925.985352</ele>
<time>2012-04-30T16:01:35Z</time>
<desc>lat.=42.890293, lon.=19.658943, Alt.=1925.985352m. Speed=3.204000m/h.</desc>
<speed>0.890000</speed>
</trkpt>
<trkpt lat="42.890266" lon="19.659004">
<ele>1926.141602</ele>
<time>2012-04-30T16:01:40Z</time>
<desc>lat.=42.890266, lon.=19.659004, Alt.=1926.141602m. Speed=4.500000m/h.</desc>
<speed>1.250000</speed>
</trkpt>
<trkpt lat="42.890244" lon="19.659071">
<ele>1925.329102</ele>
<time>2012-04-30T16:01:45Z</time>
<desc>lat.=42.890244, lon.=19.659071, Alt.=1925.329102m. Speed=3.780000m/h.</desc>
<speed>1.050000</speed>
</trkpt>
<trkpt lat="42.890236" lon="19.659100">
<ele>1925.454102</ele>
<time>2012-04-30T16:01:50Z</time>
<desc>lat.=42.890236, lon.=19.659100, Alt.=1925.454102m. Speed=1.512000m/h.</desc>
<speed>0.420000</speed>
</trkpt>
<trkpt lat="42.890228" lon="19.659130">
<ele>1925.829102</ele>
<time>2012-04-30T16:01:55Z</time>
<desc>lat.=42.890228, lon.=19.659130, Alt.=1925.829102m. Speed=5.112000m/h.</desc>
<speed>1.420000</speed>
</trkpt>
<trkpt lat="42.890190" lon="19.659172">
<ele>1925.391602</ele>
<time>2012-04-30T16:02:00Z</time>
<desc>lat.=42.890190, lon.=19.659172, Alt.=1925.391602m. Speed=5.004000m/h.</desc>
<speed>1.390000</speed>
</trkpt>
<trkpt lat="42.890148" lon="19.659227">
<ele>1924.797852</ele>
<time>2012-04-30T16:02:05Z</time>
<desc>lat.=42.890148, lon.=19.659227, Alt.=1924.797852m. Speed=3.852000m/h.</desc>
<speed>1.070000</speed>
</trkpt>
<trkpt lat="42.890133" lon="19.659285">
<ele>1924.610352</ele>
<time>2012-04-30T16:02:10Z</time>
<desc>lat.=42.890133, lon.=19.659285, Alt.=1924.610352m. Speed=2.880000m/h.</desc>
<speed>0.800000</speed>
</trkpt>
<trkpt lat="42.890110" lon="19.659348">
<ele>1924.235352</ele>
<time>2012-04-30T16:02:15Z</time>
<desc>lat.=42.890110, lon.=19.659348, Alt.=1924.235352m. Speed=3.708000m/h.</desc>
<speed>1.030000</speed>
</trkpt>
<trkpt lat="42.890076" lon="19.659389">
<ele>1924.391602</ele>
<time>2012-04-30T16:02:20Z</time>
<desc>lat.=42.890076, lon.=19.659389, Alt.=1924.391602m. Speed=4.248000m/h.</desc>
<speed>1.180000</speed>
</trkpt>
<trkpt lat="42.890030" lon="19.659445">
<ele>1925.547852</ele>
<time>2012-04-30T16:02:25Z</time>
<desc>lat.=42.890030, lon.=19.659445, Alt.=1925.547852m. Speed=3.528000m/h.</desc>
<speed>0.980000</speed>
</trkpt>
<trkpt lat="42.889992" lon="19.659475">
<ele>1924.954102</ele>
<time>2012-04-30T16:02:30Z</time>
<desc>lat.=42.889992, lon.=19.659475, Alt.=1924.954102m. Speed=4.356000m/h.</desc>
<speed>1.210000</speed>
</trkpt>
<trkpt lat="42.889950" lon="19.659517">
<ele>1924.641602</ele>
<time>2012-04-30T16:02:35Z</time>
<desc>lat.=42.889950, lon.=19.659517, Alt.=1924.641602m. Speed=4.212000m/h.</desc>
<speed>1.170000</speed>
</trkpt>
<trkpt lat="42.889908" lon="19.659565">
<ele>1924.297852</ele>
<time>2012-04-30T16:02:40Z</time>
<desc>lat.=42.889908, lon.=19.659565, Alt.=1924.297852m. Speed=2.556000m/h.</desc>
<speed>0.710000</speed>
</trkpt>
<trkpt lat="42.889881" lon="19.659588">
<ele>1924.391602</ele>
<time>2012-04-30T16:02:45Z</time>
<desc>lat.=42.889881, lon.=19.659588, Alt.=1924.391602m. Speed=1.800000m/h.</desc>
<speed>0.500000</speed>
</trkpt>
<trkpt lat="42.889839" lon="19.659607">
<ele>1924.610352</ele>
<time>2012-04-30T16:02:50Z</time>
<desc>lat.=42.889839, lon.=19.659607, Alt.=1924.610352m. Speed=4.212000m/h.</desc>
<speed>1.170000</speed>
</trkpt>
<trkpt lat="42.889801" lon="19.659630">
<ele>1924.672852</ele>
<time>2012-04-30T16:02:55Z</time>
<desc>lat.=42.889801, lon.=19.659630, Alt.=1924.672852m. Speed=3.384000m/h.</desc>
<speed>0.940000</speed>
</trkpt>
<trkpt lat="42.889778" lon="19.659657">
<ele>1924.797852</ele>
<time>2012-04-30T16:03:00Z</time>
<desc>lat.=42.889778, lon.=19.659657, Alt.=1924.797852m. Speed=2.700000m/h.</desc>
<speed>0.750000</speed>
</trkpt>
<trkpt lat="42.889755" lon="19.659689">
<ele>1925.016602</ele>
<time>2012-04-30T16:03:05Z</time>
<desc>lat.=42.889755, lon.=19.659689, Alt.=1925.016602m. Speed=3.456000m/h.</desc>
<speed>0.960000</speed>
</trkpt>
<trkpt lat="42.889732" lon="19.659742">
<ele>1925.297852</ele>
<time>2012-04-30T16:03:10Z</time>
<desc>lat.=42.889732, lon.=19.659742, Alt.=1925.297852m. Speed=3.816000m/h.</desc>
<speed>1.060000</speed>
</trkpt>
<trkpt lat="42.889706" lon="19.659798">
<ele>1925.766602</ele>
<time>2012-04-30T16:03:15Z</time>
<desc>lat.=42.889706, lon.=19.659798, Alt.=1925.766602m. Speed=3.528000m/h.</desc>
<speed>0.980000</speed>
</trkpt>
<trkpt lat="42.889671" lon="19.659834">
<ele>1926.047852</ele>
<time>2012-04-30T16:03:20Z</time>
<desc>lat.=42.889671, lon.=19.659834, Alt.=1926.047852m. Speed=4.068000m/h.</desc>
<speed>1.130000</speed>
</trkpt>
<trkpt lat="42.889645" lon="19.659874">
<ele>1926.641602</ele>
<time>2012-04-30T16:03:25Z</time>
<desc>lat.=42.889645, lon.=19.659874, Alt.=1926.641602m. Speed=3.816000m/h.</desc>
<speed>1.060000</speed>
</trkpt>
<trkpt lat="42.889610" lon="19.659912">
<ele>1927.516602</ele>
<time>2012-04-30T16:03:30Z</time>
<desc>lat.=42.889610, lon.=19.659912, Alt.=1927.516602m. Speed=4.212000m/h.</desc>
<speed>1.170000</speed>
</trkpt>
<trkpt lat="42.889591" lon="19.659973">
<ele>1927.610352</ele>
<time>2012-04-30T16:03:35Z</time>
<desc>lat.=42.889591, lon.=19.659973, Alt.=1927.610352m. Speed=4.860000m/h.</desc>
<speed>1.350000</speed>
</trkpt>
<trkpt lat="42.889565" lon="19.660019">
<ele>1927.797852</ele>
<time>2012-04-30T16:03:40Z</time>
<desc>lat.=42.889565, lon.=19.660019, Alt.=1927.797852m. Speed=3.780000m/h.</desc>
<speed>1.050000</speed>
</trkpt>
<trkpt lat="42.889534" lon="19.660067">
<ele>1928.985352</ele>
<time>2012-04-30T16:03:45Z</time>
<desc>lat.=42.889534, lon.=19.660067, Alt.=1928.985352m. Speed=3.492000m/h.</desc>
<speed>0.970000</speed>
</trkpt>
<trkpt lat="42.889507" lon="19.660120">
<ele>1929.204102</ele>
<time>2012-04-30T16:03:50Z</time>
<desc>lat.=42.889507, lon.=19.660120, Alt.=1929.204102m. Speed=4.644000m/h.</desc>
<speed>1.290000</speed>
</trkpt>
<trkpt lat="42.889473" lon="19.660151">
<ele>1929.579102</ele>
<time>2012-04-30T16:03:55Z</time>
<desc>lat.=42.889473, lon.=19.660151, Alt.=1929.579102m. Speed=4.068000m/h.</desc>
<speed>1.130000</speed>
</trkpt>
<trkpt lat="42.889454" lon="19.660206">
<ele>1929.579102</ele>
<time>2012-04-30T16:04:00Z</time>
<desc>lat.=42.889454, lon.=19.660206, Alt.=1929.579102m. Speed=3.348000m/h.</desc>
<speed>0.930000</speed>
</trkpt>
<trkpt lat="42.889435" lon="19.660250">
<ele>1929.829102</ele>
<time>2012-04-30T16:04:05Z</time>
<desc>lat.=42.889435, lon.=19.660250, Alt.=1929.829102m. Speed=3.384000m/h.</desc>
<speed>0.940000</speed>
</trkpt>
<trkpt lat="42.889408" lon="19.660286">
<ele>1929.797852</ele>
<time>2012-04-30T16:04:10Z</time>
<desc>lat.=42.889408, lon.=19.660286, Alt.=1929.797852m. Speed=3.564000m/h.</desc>
<speed>0.990000</speed>
</trkpt>
<trkpt lat="42.889366" lon="19.660326">
<ele>1930.610352</ele>
<time>2012-04-30T16:04:15Z</time>
<desc>lat.=42.889366, lon.=19.660326, Alt.=1930.610352m. Speed=2.916000m/h.</desc>
<speed>0.810000</speed>
</trkpt>
<trkpt lat="42.889339" lon="19.660355">
<ele>1930.797852</ele>
<time>2012-04-30T16:04:20Z</time>
<desc>lat.=42.889339, lon.=19.660355, Alt.=1930.797852m. Speed=2.916000m/h.</desc>
<speed>0.810000</speed>
</trkpt>
<trkpt lat="42.889305" lon="19.660395">
<ele>1930.922852</ele>
<time>2012-04-30T16:04:25Z</time>
<desc>lat.=42.889305, lon.=19.660395, Alt.=1930.922852m. Speed=4.032000m/h.</desc>
<speed>1.120000</speed>
</trkpt>
<trkpt lat="42.889290" lon="19.660454">
<ele>1931.204102</ele>
<time>2012-04-30T16:04:30Z</time>
<desc>lat.=42.889290, lon.=19.660454, Alt.=1931.204102m. Speed=3.276000m/h.</desc>
<speed>0.910000</speed>
</trkpt>
<trkpt lat="42.889256" lon="19.660505">
<ele>1930.954102</ele>
<time>2012-04-30T16:04:35Z</time>
<desc>lat.=42.889256, lon.=19.660505, Alt.=1930.954102m. Speed=3.384000m/h.</desc>
<speed>0.940000</speed>
</trkpt>
<trkpt lat="42.889236" lon="19.660551">
<ele>1931.079102</ele>
<time>2012-04-30T16:04:40Z</time>
<desc>lat.=42.889236, lon.=19.660551, Alt.=1931.079102m. Speed=3.780000m/h.</desc>
<speed>1.050000</speed>
</trkpt>
<trkpt lat="42.889214" lon="19.660608">
<ele>1931.454102</ele>
<time>2012-04-30T16:04:45Z</time>
<desc>lat.=42.889214, lon.=19.660608, Alt.=1931.454102m. Speed=4.212000m/h.</desc>
<speed>1.170000</speed>
</trkpt>
<trkpt lat="42.889198" lon="19.660660">
<ele>1931.891602</ele>
<time>2012-04-30T16:04:50Z</time>
<desc>lat.=42.889198, lon.=19.660660, Alt.=1931.891602m. Speed=3.528000m/h.</desc>
<speed>0.980000</speed>
</trkpt>
<trkpt lat="42.889187" lon="19.660702">
<ele>1931.954102</ele>
<time>2012-04-30T16:04:55Z</time>
<desc>lat.=42.889187, lon.=19.660702, Alt.=1931.954102m. Speed=3.060000m/h.</desc>
<speed>0.850000</speed>
</trkpt>
<trkpt lat="42.889168" lon="19.660757">
<ele>1932.235352</ele>
<time>2012-04-30T16:05:00Z</time>
<desc>lat.=42.889168, lon.=19.660757, Alt.=1932.235352m. Speed=3.492000m/h.</desc>
<speed>0.970000</speed>
</trkpt>
<trkpt lat="42.889137" lon="19.660807">
<ele>1932.266602</ele>
<time>2012-04-30T16:05:05Z</time>
<desc>lat.=42.889137, lon.=19.660807, Alt.=1932.266602m. Speed=3.060000m/h.</desc>
<speed>0.850000</speed>
</trkpt>
<trkpt lat="42.889114" lon="19.660851">
<ele>1932.329102</ele>
<time>2012-04-30T16:05:10Z</time>
<desc>lat.=42.889114, lon.=19.660851, Alt.=1932.329102m. Speed=2.412000m/h.</desc>
<speed>0.670000</speed>
</trkpt>
<trkpt lat="42.889088" lon="19.660860">
<ele>1932.797852</ele>
<time>2012-04-30T16:05:15Z</time>
<desc>lat.=42.889088, lon.=19.660860, Alt.=1932.797852m. Speed=1.692000m/h.</desc>
<speed>0.470000</speed>
</trkpt>
<trkpt lat="42.889084" lon="19.660868">
<ele>1933.454102</ele>
<time>2012-04-30T16:05:20Z</time>
<desc>lat.=42.889084, lon.=19.660868, Alt.=1933.454102m. Speed=1.260000m/h.</desc>
<speed>0.350000</speed>
</trkpt>
<trkpt lat="42.889065" lon="19.660885">
<ele>1933.360352</ele>
<time>2012-04-30T16:05:25Z</time>
<desc>lat.=42.889065, lon.=19.660885, Alt.=1933.360352m. Speed=2.196000m/h.</desc>
<speed>0.610000</speed>
</trkpt>
<trkpt lat="42.889061" lon="19.660898">
<ele>1933.610352</ele>
<time>2012-04-30T16:05:30Z</time>
<desc>lat.=42.889061, lon.=19.660898, Alt.=1933.610352m. Speed=0.180000m/h.</desc>
<speed>0.050000</speed>
</trkpt>
<trkpt lat="42.889050" lon="19.660910">
<ele>1933.860352</ele>
<time>2012-04-30T16:05:35Z</time>
<desc>lat.=42.889050, lon.=19.660910, Alt.=1933.860352m. Speed=3.528000m/h.</desc>
<speed>0.980000</speed>
</trkpt>
<trkpt lat="42.889015" lon="19.660915">
<ele>1933.985352</ele>
<time>2012-04-30T16:05:40Z</time>
<desc>lat.=42.889015, lon.=19.660915, Alt.=1933.985352m. Speed=3.132000m/h.</desc>
<speed>0.870000</speed>
</trkpt>
<trkpt lat="42.888973" lon="19.660913">
<ele>1934.110352</ele>
<time>2012-04-30T16:05:45Z</time>
<desc>lat.=42.888973, lon.=19.660913, Alt.=1934.110352m. Speed=2.736000m/h.</desc>
<speed>0.760000</speed>
</trkpt>
<trkpt lat="42.888931" lon="19.660931">
<ele>1933.704102</ele>
<time>2012-04-30T16:05:50Z</time>
<desc>lat.=42.888931, lon.=19.660931, Alt.=1933.704102m. Speed=3.456000m/h.</desc>
<speed>0.960000</speed>
</trkpt>
<trkpt lat="42.888905" lon="19.660934">
<ele>1933.860352</ele>
<time>2012-04-30T16:05:55Z</time>
<desc>lat.=42.888905, lon.=19.660934, Alt.=1933.860352m. Speed=0.072000m/h.</desc>
<speed>0.020000</speed>
</trkpt>
<trkpt lat="42.888905" lon="19.660936">
<ele>1933.891602</ele>
<time>2012-04-30T16:06:00Z</time>
<desc>lat.=42.888905, lon.=19.660936, Alt.=1933.891602m. Speed=0.324000m/h.</desc>
<speed>0.090000</speed>
</trkpt>
<trkpt lat="42.888905" lon="19.660940">
<ele>1933.860352</ele>
<time>2012-04-30T16:06:05Z</time>
<desc>lat.=42.888905, lon.=19.660940, Alt.=1933.860352m. Speed=0.108000m/h.</desc>
<speed>0.030000</speed>
</trkpt>
<trkpt lat="42.888905" lon="19.660942">
<ele>1933.797852</ele>
<time>2012-04-30T16:06:10Z</time>
<desc>lat.=42.888905, lon.=19.660942, Alt.=1933.797852m. Speed=0.144000m/h.</desc>
<speed>0.040000</speed>
</trkpt>
<trkpt lat="42.888905" lon="19.660944">
<ele>1933.766602</ele>
<time>2012-04-30T16:06:15Z</time>
<desc>lat.=42.888905, lon.=19.660944, Alt.=1933.766602m. Speed=0.072000m/h.</desc>
<speed>0.020000</speed>
</trkpt>
<trkpt lat="42.888905" lon="19.660944">
<ele>1933.766602</ele>
<time>2012-04-30T16:06:20Z</time>
<desc>lat.=42.888905, lon.=19.660944, Alt.=1933.766602m. Speed=0.036000m/h.</desc>
<speed>0.010000</speed>
</trkpt>
<trkpt lat="42.888905" lon="19.660944">
<ele>1933.766602</ele>
<time>2012-04-30T16:06:25Z</time>
<desc>lat.=42.888905, lon.=19.660944, Alt.=1933.766602m. Speed=0.036000m/h.</desc>
<speed>0.010000</speed>
</trkpt>
<trkpt lat="42.888905" lon="19.660944">
<ele>1933.766602</ele>
<time>2012-04-30T16:06:30Z</time>
<desc>lat.=42.888905, lon.=19.660944, Alt.=1933.766602m. Speed=0.000000m/h.</desc>
<speed>0.000000</speed>
</trkpt>
<trkpt lat="42.888905" lon="19.660944">
<ele>1933.766602</ele>
<time>2012-04-30T16:06:35Z</time>
<desc>lat.=42.888905, lon.=19.660944, Alt.=1933.766602m. Speed=0.108000m/h.</desc>
<speed>0.030000</speed>
</trkpt>
<trkpt lat="42.888885" lon="19.660944">
<ele>1933.672852</ele>
<time>2012-04-30T16:06:40Z</time>
<desc>lat.=42.888885, lon.=19.660944, Alt.=1933.672852m. Speed=4.176000m/h.</desc>
<speed>1.160000</speed>
</trkpt>
<trkpt lat="42.888817" lon="19.660952">
<ele>1934.422852</ele>
<time>2012-04-30T16:06:45Z</time>
<desc>lat.=42.888817, lon.=19.660952, Alt.=1934.422852m. Speed=5.076000m/h.</desc>
<speed>1.410000</speed>
</trkpt>
<trkpt lat="42.888748" lon="19.660992">
<ele>1935.297852</ele>
<time>2012-04-30T16:06:50Z</time>
<desc>lat.=42.888748, lon.=19.660992, Alt.=1935.297852m. Speed=5.040000m/h.</desc>
<speed>1.400000</speed>
</trkpt>
<trkpt lat="42.888702" lon="19.661039">
<ele>1936.672852</ele>
<time>2012-04-30T16:06:55Z</time>
<desc>lat.=42.888702, lon.=19.661039, Alt.=1936.672852m. Speed=4.104000m/h.</desc>
<speed>1.140000</speed>
</trkpt>
<trkpt lat="42.888664" lon="19.661077">
<ele>1936.922852</ele>
<time>2012-04-30T16:07:00Z</time>
<desc>lat.=42.888664, lon.=19.661077, Alt.=1936.922852m. Speed=4.140000m/h.</desc>
<speed>1.150000</speed>
</trkpt>
<trkpt lat="42.888626" lon="19.661133">
<ele>1937.579102</ele>
<time>2012-04-30T16:07:05Z</time>
<desc>lat.=42.888626, lon.=19.661133, Alt.=1937.579102m. Speed=3.636000m/h.</desc>
<speed>1.010000</speed>
</trkpt>
<trkpt lat="42.888611" lon="19.661201">
<ele>1936.922852</ele>
<time>2012-04-30T16:07:10Z</time>
<desc>lat.=42.888611, lon.=19.661201, Alt.=1936.922852m. Speed=3.924000m/h.</desc>
<speed>1.090000</speed>
</trkpt>
<trkpt lat="42.888592" lon="19.661257">
<ele>1937.266602</ele>
<time>2012-04-30T16:07:15Z</time>
<desc>lat.=42.888592, lon.=19.661257, Alt.=1937.266602m. Speed=2.844000m/h.</desc>
<speed>0.790000</speed>
</trkpt>
<trkpt lat="42.888584" lon="19.661318">
<ele>1937.266602</ele>
<time>2012-04-30T16:07:20Z</time>
<desc>lat.=42.888584, lon.=19.661318, Alt.=1937.266602m. Speed=3.168000m/h.</desc>
<speed>0.880000</speed>
</trkpt>
<trkpt lat="42.888580" lon="19.661383">
<ele>1937.672852</ele>
<time>2012-04-30T16:07:25Z</time>
<desc>lat.=42.888580, lon.=19.661383, Alt.=1937.672852m. Speed=2.484000m/h.</desc>
<speed>0.690000</speed>
</trkpt>
<trkpt lat="42.888588" lon="19.661421">
<ele>1937.829102</ele>
<time>2012-04-30T16:07:30Z</time>
<desc>lat.=42.888588, lon.=19.661421, Alt.=1937.829102m. Speed=2.052000m/h.</desc>
<speed>0.570000</speed>
</trkpt>
<trkpt lat="42.888577" lon="19.661469">
<ele>1938.391602</ele>
<time>2012-04-30T16:07:35Z</time>
<desc>lat.=42.888577, lon.=19.661469, Alt.=1938.391602m. Speed=2.952000m/h.</desc>
<speed>0.820000</speed>
</trkpt>
<trkpt lat="42.888573" lon="19.661514">
<ele>1938.110352</ele>
<time>2012-04-30T16:07:40Z</time>
<desc>lat.=42.888573, lon.=19.661514, Alt.=1938.110352m. Speed=3.636000m/h.</desc>
<speed>1.010000</speed>
</trkpt>
<trkpt lat="42.888561" lon="19.661568">
<ele>1938.829102</ele>
<time>2012-04-30T16:07:45Z</time>
<desc>lat.=42.888561, lon.=19.661568, Alt.=1938.829102m. Speed=1.008000m/h.</desc>
<speed>0.280000</speed>
</trkpt>
<trkpt lat="42.888569" lon="19.661589">
<ele>1939.204102</ele>
<time>2012-04-30T16:07:50Z</time>
<desc>lat.=42.888569, lon.=19.661589, Alt.=1939.204102m. Speed=3.924000m/h.</desc>
<speed>1.090000</speed>
</trkpt>
<trkpt lat="42.888565" lon="19.661648">
<ele>1939.954102</ele>
<time>2012-04-30T16:07:55Z</time>
<desc>lat.=42.888565, lon.=19.661648, Alt.=1939.954102m. Speed=3.384000m/h.</desc>
<speed>0.940000</speed>
</trkpt>
<trkpt lat="42.888565" lon="19.661705">
<ele>1941.391602</ele>
<time>2012-04-30T16:08:00Z</time>
<desc>lat.=42.888565, lon.=19.661705, Alt.=1941.391602m. Speed=2.952000m/h.</desc>
<speed>0.820000</speed>
</trkpt>
<trkpt lat="42.888557" lon="19.661751">
<ele>1942.110352</ele>
<time>2012-04-30T16:08:05Z</time>
<desc>lat.=42.888557, lon.=19.661751, Alt.=1942.110352m. Speed=3.528000m/h.</desc>
<speed>0.980000</speed>
</trkpt>
<trkpt lat="42.888550" lon="19.661800">
<ele>1943.172852</ele>
<time>2012-04-30T16:08:10Z</time>
<desc>lat.=42.888550, lon.=19.661800, Alt.=1943.172852m. Speed=2.700000m/h.</desc>
<speed>0.750000</speed>
</trkpt>
<trkpt lat="42.888557" lon="19.661867">
<ele>1943.641602</ele>
<time>2012-04-30T16:08:15Z</time>
<desc>lat.=42.888557, lon.=19.661867, Alt.=1943.641602m. Speed=4.032000m/h.</desc>
<speed>1.120000</speed>
</trkpt>
<trkpt lat="42.888569" lon="19.661913">
<ele>1944.485352</ele>
<time>2012-04-30T16:08:20Z</time>
<desc>lat.=42.888569, lon.=19.661913, Alt.=1944.485352m. Speed=3.060000m/h.</desc>
<speed>0.850000</speed>
</trkpt>
<trkpt lat="42.888565" lon="19.661924">
<ele>1944.110352</ele>
<time>2012-04-30T16:08:25Z</time>
<desc>lat.=42.888565, lon.=19.661924, Alt.=1944.110352m. Speed=0.216000m/h.</desc>
<speed>0.060000</speed>
</trkpt>
<trkpt lat="42.888561" lon="19.661951">
<ele>1944.204102</ele>
<time>2012-04-30T16:08:30Z</time>
<desc>lat.=42.888561, lon.=19.661951, Alt.=1944.204102m. Speed=3.852000m/h.</desc>
<speed>1.070000</speed>
</trkpt>
<trkpt lat="42.888573" lon="19.661999">
<ele>1944.204102</ele>
<time>2012-04-30T16:08:35Z</time>
<desc>lat.=42.888573, lon.=19.661999, Alt.=1944.204102m. Speed=3.240000m/h.</desc>
<speed>0.900000</speed>
</trkpt>
<trkpt lat="42.888580" lon="19.662046">
<ele>1943.954102</ele>
<time>2012-04-30T16:08:40Z</time>
<desc>lat.=42.888580, lon.=19.662046, Alt.=1943.954102m. Speed=2.376000m/h.</desc>
<speed>0.660000</speed>
</trkpt>
<trkpt lat="42.888592" lon="19.662050">
<ele>1943.829102</ele>
<time>2012-04-30T16:08:45Z</time>
<desc>lat.=42.888592, lon.=19.662050, Alt.=1943.829102m. Speed=0.432000m/h.</desc>
<speed>0.120000</speed>
</trkpt>
<trkpt lat="42.888596" lon="19.662052">
<ele>1943.829102</ele>
<time>2012-04-30T16:08:50Z</time>
<desc>lat.=42.888596, lon.=19.662052, Alt.=1943.829102m. Speed=0.108000m/h.</desc>
<speed>0.030000</speed>
</trkpt>
<trkpt lat="42.888596" lon="19.662054">
<ele>1943.860352</ele>
<time>2012-04-30T16:08:55Z</time>
<desc>lat.=42.888596, lon.=19.662054, Alt.=1943.860352m. Speed=0.144000m/h.</desc>
<speed>0.040000</speed>
</trkpt>
<trkpt lat="42.888596" lon="19.662052">
<ele>1943.954102</ele>
<time>2012-04-30T16:09:00Z</time>
<desc>lat.=42.888596, lon.=19.662052, Alt.=1943.954102m. Speed=0.216000m/h.</desc>
<speed>0.060000</speed>
</trkpt>
<trkpt lat="42.888596" lon="19.662050">
<ele>1944.016602</ele>
<time>2012-04-30T16:09:05Z</time>
<desc>lat.=42.888596, lon.=19.662050, Alt.=1944.016602m. Speed=0.108000m/h.</desc>
<speed>0.030000</speed>
</trkpt>
<trkpt lat="42.888596" lon="19.662050">
<ele>1944.047852</ele>
<time>2012-04-30T16:09:10Z</time>
<desc>lat.=42.888596, lon.=19.662050, Alt.=1944.047852m. Speed=0.000000m/h.</desc>
<speed>0.000000</speed>
</trkpt>
<trkpt lat="42.888596" lon="19.662050">
<ele>1944.047852</ele>
<time>2012-04-30T16:09:15Z</time>
<desc>lat.=42.888596, lon.=19.662050, Alt.=1944.047852m. Speed=0.000000m/h.</desc>
<speed>0.000000</speed>
</trkpt>
<trkpt lat="42.888596" lon="19.662050">
<ele>1944.047852</ele>
<time>2012-04-30T16:09:20Z</time>
<desc>lat.=42.888596, lon.=19.662050, Alt.=1944.047852m. Speed=0.000000m/h.</desc>
<speed>0.000000</speed>
</trkpt>
<trkpt lat="42.888596" lon="19.662050">
<ele>1944.079102</ele>
<time>2012-04-30T16:09:25Z</time>
<desc>lat.=42.888596, lon.=19.662050, Alt.=1944.079102m. Speed=0.000000m/h.</desc>
<speed>0.000000</speed>
</trkpt>
<trkpt lat="42.888596" lon="19.662050">
<ele>1944.079102</ele>
<time>2012-04-30T16:09:30Z</time>
<desc>lat.=42.888596, lon.=19.662050, Alt.=1944.079102m. Speed=0.000000m/h.</desc>
<speed>0.000000</speed>
</trkpt>
<trkpt lat="42.888596" lon="19.662050">
<ele>1944.047852</ele>
<time>2012-04-30T16:09:35Z</time>
<desc>lat.=42.888596, lon.=19.662050, Alt.=1944.047852m. Speed=0.000000m/h.</desc>
<speed>0.000000</speed>
</trkpt>
<trkpt lat="42.888596" lon="19.662050">
<ele>1944.047852</ele>
<time>2012-04-30T16:09:40Z</time>
<desc>lat.=42.888596, lon.=19.662050, Alt.=1944.047852m. Speed=0.000000m/h.</desc>
<speed>0.000000</speed>
</trkpt>
<trkpt lat="42.888596" lon="19.662050">
<ele>1944.047852</ele>
<time>2012-04-30T16:09:45Z</time>
<desc>lat.=42.888596, lon.=19.662050, Alt.=1944.047852m. Speed=0.036000m/h.</desc>
<speed>0.010000</speed>
</trkpt>
<trkpt lat="42.888596" lon="19.662050">
<ele>1944.079102</ele>
<time>2012-04-30T16:09:50Z</time>
<desc>lat.=42.888596, lon.=19.662050, Alt.=1944.079102m. Speed=0.000000m/h.</desc>
<speed>0.000000</speed>
</trkpt>
<trkpt lat="42.888596" lon="19.662050">
<ele>1944.079102</ele>
<time>2012-04-30T16:09:55Z</time>
<desc>lat.=42.888596, lon.=19.662050, Alt.=1944.079102m. Speed=0.000000m/h.</desc>
<speed>0.000000</speed>
</trkpt>
<trkpt lat="42.888596" lon="19.662050">
<ele>1944.079102</ele>
<time>2012-04-30T16:10:00Z</time>
<desc>lat.=42.888596, lon.=19.662050, Alt.=1944.079102m. Speed=0.036000m/h.</desc>
<speed>0.010000</speed>
</trkpt>
<trkpt lat="42.888596" lon="19.662050">
<ele>1944.079102</ele>
<time>2012-04-30T16:10:05Z</time>
<desc>lat.=42.888596, lon.=19.662050, Alt.=1944.079102m. Speed=0.000000m/h.</desc>
<speed>0.000000</speed>
</trkpt>
<trkpt lat="42.888596" lon="19.662050">
<ele>1944.079102</ele>
<time>2012-04-30T16:10:10Z</time>
<desc>lat.=42.888596, lon.=19.662050, Alt.=1944.079102m. Speed=0.000000m/h.</desc>
<speed>0.000000</speed>
</trkpt>
<trkpt lat="42.888596" lon="19.662050">
<ele>1944.079102</ele>
<time>2012-04-30T16:10:15Z</time>
<desc>lat.=42.888596, lon.=19.662050, Alt.=1944.079102m. Speed=0.000000m/h.</desc>
<speed>0.000000</speed>
</trkpt>
<trkpt lat="42.888596" lon="19.662050">
<ele>1944.079102</ele>
<time>2012-04-30T16:10:20Z</time>
<desc>lat.=42.888596, lon.=19.662050, Alt.=1944.079102m. Speed=0.000000m/h.</desc>
<speed>0.000000</speed>
</trkpt>
<trkpt lat="42.888596" lon="19.662050">
<ele>1944.079102</ele>
<time>2012-04-30T16:10:25Z</time>
<desc>lat.=42.888596, lon.=19.662050, Alt.=1944.079102m. Speed=0.000000m/h.</desc>
<speed>0.000000</speed>
</trkpt>
<trkpt lat="42.888596" lon="19.662050">
<ele>1944.110352</ele>
<time>2012-04-30T16:10:30Z</time>
<desc>lat.=42.888596, lon.=19.662050, Alt.=1944.110352m. Speed=0.000000m/h.</desc>
<speed>0.000000</speed>
</trkpt>
<trkpt lat="42.888596" lon="19.662050">
<ele>1944.110352</ele>
<time>2012-04-30T16:10:35Z</time>
<desc>lat.=42.888596, lon.=19.662050, Alt.=1944.110352m. Speed=0.000000m/h.</desc>
<speed>0.000000</speed>
</trkpt>
<trkpt lat="42.888596" lon="19.662050">
<ele>1944.141602</ele>
<time>2012-04-30T16:10:40Z</time>
<desc>lat.=42.888596, lon.=19.662050, Alt.=1944.141602m. Speed=0.108000m/h.</desc>
<speed>0.030000</speed>
</trkpt>
<trkpt lat="42.888596" lon="19.662050">
<ele>1944.110352</ele>
<time>2012-04-30T16:10:45Z</time>
<desc>lat.=42.888596, lon.=19.662050, Alt.=1944.110352m. Speed=0.108000m/h.</desc>
<speed>0.030000</speed>
</trkpt>
<trkpt lat="42.888596" lon="19.662052">
<ele>1944.110352</ele>
<time>2012-04-30T16:10:50Z</time>
<desc>lat.=42.888596, lon.=19.662052, Alt.=1944.110352m. Speed=0.324000m/h.</desc>
<speed>0.090000</speed>
</trkpt>
<trkpt lat="42.888622" lon="19.662117">
<ele>1944.672852</ele>
<time>2012-04-30T16:10:55Z</time>
<desc>lat.=42.888622, lon.=19.662117, Alt.=1944.672852m. Speed=4.248000m/h.</desc>
<speed>1.180000</speed>
</trkpt>
<trkpt lat="42.888653" lon="19.662207">
<ele>1944.672852</ele>
<time>2012-04-30T16:11:00Z</time>
<desc>lat.=42.888653, lon.=19.662207, Alt.=1944.672852m. Speed=5.076000m/h.</desc>
<speed>1.410000</speed>
</trkpt>
<trkpt lat="42.888668" lon="19.662292">
<ele>1944.704102</ele>
<time>2012-04-30T16:11:05Z</time>
<desc>lat.=42.888668, lon.=19.662292, Alt.=1944.704102m. Speed=4.212000m/h.</desc>
<speed>1.170000</speed>
</trkpt>
<trkpt lat="42.888664" lon="19.662395">
<ele>1945.172852</ele>
<time>2012-04-30T16:11:10Z</time>
<desc>lat.=42.888664, lon.=19.662395, Alt.=1945.172852m. Speed=3.240000m/h.</desc>
<speed>0.900000</speed>
</trkpt>
<trkpt lat="42.888695" lon="19.662451">
<ele>1945.454102</ele>
<time>2012-04-30T16:11:15Z</time>
<desc>lat.=42.888695, lon.=19.662451, Alt.=1945.454102m. Speed=1.908000m/h.</desc>
<speed>0.530000</speed>
</trkpt>
<trkpt lat="42.888710" lon="19.662458">
<ele>1945.141602</ele>
<time>2012-04-30T16:11:20Z</time>
<desc>lat.=42.888710, lon.=19.662458, Alt.=1945.141602m. Speed=0.252000m/h.</desc>
<speed>0.070000</speed>
</trkpt>
<trkpt lat="42.888710" lon="19.662460">
<ele>1945.047852</ele>
<time>2012-04-30T16:11:25Z</time>
<desc>lat.=42.888710, lon.=19.662460, Alt.=1945.047852m. Speed=0.108000m/h.</desc>
<speed>0.030000</speed>
</trkpt>
<trkpt lat="42.888706" lon="19.662458">
<ele>1944.985352</ele>
<time>2012-04-30T16:11:30Z</time>
<desc>lat.=42.888706, lon.=19.662458, Alt.=1944.985352m. Speed=1.548000m/h.</desc>
<speed>0.430000</speed>
</trkpt>
<trkpt lat="42.888748" lon="19.662500">
<ele>1945.079102</ele>
<time>2012-04-30T16:11:35Z</time>
<desc>lat.=42.888748, lon.=19.662500, Alt.=1945.079102m. Speed=3.456000m/h.</desc>
<speed>0.960000</speed>
</trkpt>
<trkpt lat="42.888779" lon="19.662561">
<ele>1945.329102</ele>
<time>2012-04-30T16:11:40Z</time>
<desc>lat.=42.888779, lon.=19.662561, Alt.=1945.329102m. Speed=2.124000m/h.</desc>
<speed>0.590000</speed>
</trkpt>
<trkpt lat="42.888783" lon="19.662638">
<ele>1945.829102</ele>
<time>2012-04-30T16:11:45Z</time>
<desc>lat.=42.888783, lon.=19.662638, Alt.=1945.829102m. Speed=3.996000m/h.</desc>
<speed>1.110000</speed>
</trkpt>
<trkpt lat="42.888779" lon="19.662699">
<ele>1945.922852</ele>
<time>2012-04-30T16:11:50Z</time>
<desc>lat.=42.888779, lon.=19.662699, Alt.=1945.922852m. Speed=3.276000m/h.</desc>
<speed>0.910000</speed>
</trkpt>
<trkpt lat="42.888767" lon="19.662754">
<ele>1946.954102</ele>
<time>2012-04-30T16:11:55Z</time>
<desc>lat.=42.888767, lon.=19.662754, Alt.=1946.954102m. Speed=3.888000m/h.</desc>
<speed>1.080000</speed>
</trkpt>
<trkpt lat="42.888756" lon="19.662817">
<ele>1947.610352</ele>
<time>2012-04-30T16:12:00Z</time>
<desc>lat.=42.888756, lon.=19.662817, Alt.=1947.610352m. Speed=2.484000m/h.</desc>
<speed>0.690000</speed>
</trkpt>
<trkpt lat="42.888752" lon="19.662848">
<ele>1947.516602</ele>
<time>2012-04-30T16:12:05Z</time>
<desc>lat.=42.888752, lon.=19.662848, Alt.=1947.516602m. Speed=2.160000m/h.</desc>
<speed>0.600000</speed>
</trkpt>
<trkpt lat="42.888748" lon="19.662899">
<ele>1948.485352</ele>
<time>2012-04-30T16:12:10Z</time>
<desc>lat.=42.888748, lon.=19.662899, Alt.=1948.485352m. Speed=3.600000m/h.</desc>
<speed>1.000000</speed>
</trkpt>
<trkpt lat="42.888760" lon="19.662960">
<ele>1950.329102</ele>
<time>2012-04-30T16:12:15Z</time>
<desc>lat.=42.888760, lon.=19.662960, Alt.=1950.329102m. Speed=3.024000m/h.</desc>
<speed>0.840000</speed>
</trkpt>
<trkpt lat="42.888748" lon="19.663023">
<ele>1951.172852</ele>
<time>2012-04-30T16:12:20Z</time>
<desc>lat.=42.888748, lon.=19.663023, Alt.=1951.172852m. Speed=3.132000m/h.</desc>
<speed>0.870000</speed>
</trkpt>
<trkpt lat="42.888748" lon="19.663073">
<ele>1952.016602</ele>
<time>2012-04-30T16:12:25Z</time>
<desc>lat.=42.888748, lon.=19.663073, Alt.=1952.016602m. Speed=3.276000m/h.</desc>
<speed>0.910000</speed>
</trkpt>
<trkpt lat="42.888756" lon="19.663124">
<ele>1952.266602</ele>
<time>2012-04-30T16:12:30Z</time>
<desc>lat.=42.888756, lon.=19.663124, Alt.=1952.266602m. Speed=2.052000m/h.</desc>
<speed>0.570000</speed>
</trkpt>
<trkpt lat="42.888771" lon="19.663187">
<ele>1952.110352</ele>
<time>2012-04-30T16:12:35Z</time>
<desc>lat.=42.888771, lon.=19.663187, Alt.=1952.110352m. Speed=3.996000m/h.</desc>
<speed>1.110000</speed>
</trkpt>
<trkpt lat="42.888760" lon="19.663244">
<ele>1952.047852</ele>
<time>2012-04-30T16:12:40Z</time>
<desc>lat.=42.888760, lon.=19.663244, Alt.=1952.047852m. Speed=4.716000m/h.</desc>
<speed>1.310000</speed>
</trkpt>
<trkpt lat="42.888733" lon="19.663319">
<ele>1952.266602</ele>
<time>2012-04-30T16:12:45Z</time>
<desc>lat.=42.888733, lon.=19.663319, Alt.=1952.266602m. Speed=3.996000m/h.</desc>
<speed>1.110000</speed>
</trkpt>
<trkpt lat="42.888695" lon="19.663370">
<ele>1952.985352</ele>
<time>2012-04-30T16:12:50Z</time>
<desc>lat.=42.888695, lon.=19.663370, Alt.=1952.985352m. Speed=3.312000m/h.</desc>
<speed>0.920000</speed>
</trkpt>
<trkpt lat="42.888687" lon="19.663448">
<ele>1952.766602</ele>
<time>2012-04-30T16:12:55Z</time>
<desc>lat.=42.888687, lon.=19.663448, Alt.=1952.766602m. Speed=5.112000m/h.</desc>
<speed>1.420000</speed>
</trkpt>
<trkpt lat="42.888680" lon="19.663530">
<ele>1952.641602</ele>
<time>2012-04-30T16:13:00Z</time>
<desc>lat.=42.888680, lon.=19.663530, Alt.=1952.641602m. Speed=4.644000m/h.</desc>
<speed>1.290000</speed>
</trkpt>
<trkpt lat="42.888676" lon="19.663607">
<ele>1952.360352</ele>
<time>2012-04-30T16:13:05Z</time>
<desc>lat.=42.888676, lon.=19.663607, Alt.=1952.360352m. Speed=3.996000m/h.</desc>
<speed>1.110000</speed>
</trkpt>
<trkpt lat="42.888668" lon="19.663656">
<ele>1952.141602</ele>
<time>2012-04-30T16:13:10Z</time>
<desc>lat.=42.888668, lon.=19.663656, Alt.=1952.141602m. Speed=0.324000m/h.</desc>
<speed>0.090000</speed>
</trkpt>
<trkpt lat="42.888657" lon="19.663656">
<ele>1952.329102</ele>
<time>2012-04-30T16:13:15Z</time>
<desc>lat.=42.888657, lon.=19.663656, Alt.=1952.329102m. Speed=2.592000m/h.</desc>
<speed>0.720000</speed>
</trkpt>
<trkpt lat="42.888641" lon="19.663713">
<ele>1952.360352</ele>
<time>2012-04-30T16:13:20Z</time>
<desc>lat.=42.888641, lon.=19.663713, Alt.=1952.360352m. Speed=5.040000m/h.</desc>
<speed>1.400000</speed>
</trkpt>
<trkpt lat="42.888630" lon="19.663778">
<ele>1952.172852</ele>
<time>2012-04-30T16:13:25Z</time>
<desc>lat.=42.888630, lon.=19.663778, Alt.=1952.172852m. Speed=3.636000m/h.</desc>
<speed>1.010000</speed>
</trkpt>
<trkpt lat="42.888618" lon="19.663837">
<ele>1951.735352</ele>
<time>2012-04-30T16:13:30Z</time>
<desc>lat.=42.888618, lon.=19.663837, Alt.=1951.735352m. Speed=3.960000m/h.</desc>
<speed>1.100000</speed>
</trkpt>
<trkpt lat="42.888615" lon="19.663893">
<ele>1952.704102</ele>
<time>2012-04-30T16:13:35Z</time>
<desc>lat.=42.888615, lon.=19.663893, Alt.=1952.704102m. Speed=3.564000m/h.</desc>
<speed>0.990000</speed>
</trkpt>
<trkpt lat="42.888607" lon="19.663937">
<ele>1953.641602</ele>
<time>2012-04-30T16:13:40Z</time>
<desc>lat.=42.888607, lon.=19.663937, Alt.=1953.641602m. Speed=3.312000m/h.</desc>
<speed>0.920000</speed>
</trkpt>
<trkpt lat="42.888599" lon="19.663988">
<ele>1953.547852</ele>
<time>2012-04-30T16:13:45Z</time>
<desc>lat.=42.888599, lon.=19.663988, Alt.=1953.547852m. Speed=3.852000m/h.</desc>
<speed>1.070000</speed>
</trkpt>
<trkpt lat="42.888580" lon="19.664063">
<ele>1953.141602</ele>
<time>2012-04-30T16:13:50Z</time>
<desc>lat.=42.888580, lon.=19.664063, Alt.=1953.141602m. Speed=4.104000m/h.</desc>
<speed>1.140000</speed>
</trkpt>
<trkpt lat="42.888584" lon="19.664116">
<ele>1952.329102</ele>
<time>2012-04-30T16:13:55Z</time>
<desc>lat.=42.888584, lon.=19.664116, Alt.=1952.329102m. Speed=2.520000m/h.</desc>
<speed>0.700000</speed>
</trkpt>
<trkpt lat="42.888554" lon="19.664169">
<ele>1951.985352</ele>
<time>2012-04-30T16:14:00Z</time>
<desc>lat.=42.888554, lon.=19.664169, Alt.=1951.985352m. Speed=4.284000m/h.</desc>
<speed>1.190000</speed>
</trkpt>
<trkpt lat="42.888527" lon="19.664236">
<ele>1952.329102</ele>
<time>2012-04-30T16:14:05Z</time>
<desc>lat.=42.888527, lon.=19.664236, Alt.=1952.329102m. Speed=3.888000m/h.</desc>
<speed>1.080000</speed>
</trkpt>
<trkpt lat="42.888496" lon="19.664295">
<ele>1951.860352</ele>
<time>2012-04-30T16:14:10Z</time>
<desc>lat.=42.888496, lon.=19.664295, Alt.=1951.860352m. Speed=3.492000m/h.</desc>
<speed>0.970000</speed>
</trkpt>
<trkpt lat="42.888470" lon="19.664354">
<ele>1951.985352</ele>
<time>2012-04-30T16:14:15Z</time>
<desc>lat.=42.888470, lon.=19.664354, Alt.=1951.985352m. Speed=3.600000m/h.</desc>
<speed>1.000000</speed>
</trkpt>
<trkpt lat="42.888454" lon="19.664408">
<ele>1950.922852</ele>
<time>2012-04-30T16:14:20Z</time>
<desc>lat.=42.888454, lon.=19.664408, Alt.=1950.922852m. Speed=3.456000m/h.</desc>
<speed>0.960000</speed>
</trkpt>
<trkpt lat="42.888428" lon="19.664471">
<ele>1950.266602</ele>
<time>2012-04-30T16:14:25Z</time>
<desc>lat.=42.888428, lon.=19.664471, Alt.=1950.266602m. Speed=4.428000m/h.</desc>
<speed>1.230000</speed>
</trkpt>
<trkpt lat="42.888401" lon="19.664536">
<ele>1949.860352</ele>
<time>2012-04-30T16:14:30Z</time>
<desc>lat.=42.888401, lon.=19.664536, Alt.=1949.860352m. Speed=3.996000m/h.</desc>
<speed>1.110000</speed>
</trkpt>
<trkpt lat="42.888378" lon="19.664604">
<ele>1951.704102</ele>
<time>2012-04-30T16:14:35Z</time>
<desc>lat.=42.888378, lon.=19.664604, Alt.=1951.704102m. Speed=3.384000m/h.</desc>
<speed>0.940000</speed>
</trkpt>
<trkpt lat="42.888340" lon="19.664667">
<ele>1952.891602</ele>
<time>2012-04-30T16:14:40Z</time>
<desc>lat.=42.888340, lon.=19.664667, Alt.=1952.891602m. Speed=4.644000m/h.</desc>
<speed>1.290000</speed>
</trkpt>
<trkpt lat="42.888298" lon="19.664728">
<ele>1952.954102</ele>
<time>2012-04-30T16:14:45Z</time>
<desc>lat.=42.888298, lon.=19.664728, Alt.=1952.954102m. Speed=4.140000m/h.</desc>
<speed>1.150000</speed>
</trkpt>
<trkpt lat="42.888279" lon="19.664801">
<ele>1954.704102</ele>
<time>2012-04-30T16:14:50Z</time>
<desc>lat.=42.888279, lon.=19.664801, Alt.=1954.704102m. Speed=4.932000m/h.</desc>
<speed>1.370000</speed>
</trkpt>
<trkpt lat="42.888252" lon="19.664856">
<ele>1955.329102</ele>
<time>2012-04-30T16:14:55Z</time>
<desc>lat.=42.888252, lon.=19.664856, Alt.=1955.329102m. Speed=2.700000m/h.</desc>
<speed>0.750000</speed>
</trkpt>
<trkpt lat="42.888233" lon="19.664925">
<ele>1955.641602</ele>
<time>2012-04-30T16:15:00Z</time>
<desc>lat.=42.888233, lon.=19.664925, Alt.=1955.641602m. Speed=3.960000m/h.</desc>
<speed>1.100000</speed>
</trkpt>
<trkpt lat="42.888218" lon="19.665012">
<ele>1955.672852</ele>
<time>2012-04-30T16:15:05Z</time>
<desc>lat.=42.888218, lon.=19.665012, Alt.=1955.672852m. Speed=4.608000m/h.</desc>
<speed>1.280000</speed>
</trkpt>
<trkpt lat="42.888184" lon="19.665089">
<ele>1955.516602</ele>
<time>2012-04-30T16:15:10Z</time>
<desc>lat.=42.888184, lon.=19.665089, Alt.=1955.516602m. Speed=4.392000m/h.</desc>
<speed>1.220000</speed>
</trkpt>
<trkpt lat="42.888138" lon="19.665142">
<ele>1954.922852</ele>
<time>2012-04-30T16:15:15Z</time>
<desc>lat.=42.888138, lon.=19.665142, Alt.=1954.922852m. Speed=5.220000m/h.</desc>
<speed>1.450000</speed>
</trkpt>
<trkpt lat="42.888111" lon="19.665190">
<ele>1955.016602</ele>
<time>2012-04-30T16:15:20Z</time>
<desc>lat.=42.888111, lon.=19.665190, Alt.=1955.016602m. Speed=4.536000m/h.</desc>
<speed>1.260000</speed>
</trkpt>
<trkpt lat="42.888081" lon="19.665239">
<ele>1954.422852</ele>
<time>2012-04-30T16:15:25Z</time>
<desc>lat.=42.888081, lon.=19.665239, Alt.=1954.422852m. Speed=3.996000m/h.</desc>
<speed>1.110000</speed>
</trkpt>
<trkpt lat="42.888065" lon="19.665272">
<ele>1953.516602</ele>
<time>2012-04-30T16:15:30Z</time>
<desc>lat.=42.888065, lon.=19.665272, Alt.=1953.516602m. Speed=0.396000m/h.</desc>
<speed>0.110000</speed>
</trkpt>
<trkpt lat="42.888054" lon="19.665281">
<ele>1954.704102</ele>
<time>2012-04-30T16:15:35Z</time>
<desc>lat.=42.888054, lon.=19.665281, Alt.=1954.704102m. Speed=0.288000m/h.</desc>
<speed>0.080000</speed>
</trkpt>
<trkpt lat="42.888035" lon="19.665304">
<ele>1955.016602</ele>
<time>2012-04-30T16:15:40Z</time>
<desc>lat.=42.888035, lon.=19.665304, Alt.=1955.016602m. Speed=3.348000m/h.</desc>
<speed>0.930000</speed>
</trkpt>
<trkpt lat="42.888012" lon="19.665356">
<ele>1954.860352</ele>
<time>2012-04-30T16:15:45Z</time>
<desc>lat.=42.888012, lon.=19.665356, Alt.=1954.860352m. Speed=3.708000m/h.</desc>
<speed>1.030000</speed>
</trkpt>
<trkpt lat="42.887981" lon="19.665413">
<ele>1954.235352</ele>
<time>2012-04-30T16:15:50Z</time>
<desc>lat.=42.887981, lon.=19.665413, Alt.=1954.235352m. Speed=3.564000m/h.</desc>
<speed>0.990000</speed>
</trkpt>
<trkpt lat="42.887955" lon="19.665476">
<ele>1953.860352</ele>
<time>2012-04-30T16:15:55Z</time>
<desc>lat.=42.887955, lon.=19.665476, Alt.=1953.860352m. Speed=3.816000m/h.</desc>
<speed>1.060000</speed>
</trkpt>
<trkpt lat="42.887920" lon="19.665550">
<ele>1954.360352</ele>
<time>2012-04-30T16:16:00Z</time>
<desc>lat.=42.887920, lon.=19.665550, Alt.=1954.360352m. Speed=3.564000m/h.</desc>
<speed>0.990000</speed>
</trkpt>
<trkpt lat="42.887905" lon="19.665611">
<ele>1954.579102</ele>
<time>2012-04-30T16:16:05Z</time>
<desc>lat.=42.887905, lon.=19.665611, Alt.=1954.579102m. Speed=3.384000m/h.</desc>
<speed>0.940000</speed>
</trkpt>
<trkpt lat="42.887882" lon="19.665665">
<ele>1956.235352</ele>
<time>2012-04-30T16:16:10Z</time>
<desc>lat.=42.887882, lon.=19.665665, Alt.=1956.235352m. Speed=3.888000m/h.</desc>
<speed>1.080000</speed>
</trkpt>
<trkpt lat="42.887836" lon="19.665751">
<ele>1957.829102</ele>
<time>2012-04-30T16:16:15Z</time>
<desc>lat.=42.887836, lon.=19.665751, Alt.=1957.829102m. Speed=3.168000m/h.</desc>
<speed>0.880000</speed>
</trkpt>
<trkpt lat="42.887806" lon="19.665794">
<ele>1959.516602</ele>
<time>2012-04-30T16:16:20Z</time>
<desc>lat.=42.887806, lon.=19.665794, Alt.=1959.516602m. Speed=4.536000m/h.</desc>
<speed>1.260000</speed>
</trkpt>
<trkpt lat="42.887775" lon="19.665861">
<ele>1960.672852</ele>
<time>2012-04-30T16:16:25Z</time>
<desc>lat.=42.887775, lon.=19.665861, Alt.=1960.672852m. Speed=3.312000m/h.</desc>
<speed>0.920000</speed>
</trkpt>
<trkpt lat="42.887768" lon="19.665911">
<ele>1961.704102</ele>
<time>2012-04-30T16:16:30Z</time>
<desc>lat.=42.887768, lon.=19.665911, Alt.=1961.704102m. Speed=0.756000m/h.</desc>
<speed>0.210000</speed>
</trkpt>
<trkpt lat="42.887775" lon="19.665915">
<ele>1962.297852</ele>
<time>2012-04-30T16:16:35Z</time>
<desc>lat.=42.887775, lon.=19.665915, Alt.=1962.297852m. Speed=1.224000m/h.</desc>
<speed>0.340000</speed>
</trkpt>
<trkpt lat="42.887764" lon="19.665981">
<ele>1963.422852</ele>
<time>2012-04-30T16:16:40Z</time>
<desc>lat.=42.887764, lon.=19.665981, Alt.=1963.422852m. Speed=2.844000m/h.</desc>
<speed>0.790000</speed>
</trkpt>
<trkpt lat="42.887733" lon="19.666039">
<ele>1963.922852</ele>
<time>2012-04-30T16:16:45Z</time>
<desc>lat.=42.887733, lon.=19.666039, Alt.=1963.922852m. Speed=4.428000m/h.</desc>
<speed>1.230000</speed>
</trkpt>
<trkpt lat="42.887699" lon="19.666101">
<ele>1966.204102</ele>
<time>2012-04-30T16:16:50Z</time>
<desc>lat.=42.887699, lon.=19.666101, Alt.=1966.204102m. Speed=4.068000m/h.</desc>
<speed>1.130000</speed>
</trkpt>
<trkpt lat="42.887646" lon="19.666164">
<ele>1967.016602</ele>
<time>2012-04-30T16:16:55Z</time>
<desc>lat.=42.887646, lon.=19.666164, Alt.=1967.016602m. Speed=4.356000m/h.</desc>
<speed>1.210000</speed>
</trkpt>
<trkpt lat="42.887608" lon="19.666191">
<ele>1967.547852</ele>
<time>2012-04-30T16:17:00Z</time>
<desc>lat.=42.887608, lon.=19.666191, Alt.=1967.547852m. Speed=4.284000m/h.</desc>
<speed>1.190000</speed>
</trkpt>
<trkpt lat="42.887581" lon="19.666225">
<ele>1968.829102</ele>
<time>2012-04-30T16:17:05Z</time>
<desc>lat.=42.887581, lon.=19.666225, Alt.=1968.829102m. Speed=3.420000m/h.</desc>
<speed>0.950000</speed>
</trkpt>
<trkpt lat="42.887558" lon="19.666283">
<ele>1970.329102</ele>
<time>2012-04-30T16:17:10Z</time>
<desc>lat.=42.887558, lon.=19.666283, Alt.=1970.329102m. Speed=4.572000m/h.</desc>
<speed>1.270000</speed>
</trkpt>
<trkpt lat="42.887554" lon="19.666311">
<ele>1969.672852</ele>
<time>2012-04-30T16:17:15Z</time>
<desc>lat.=42.887554, lon.=19.666311, Alt.=1969.672852m. Speed=1.872000m/h.</desc>
<speed>0.520000</speed>
</trkpt>
<trkpt lat="42.887539" lon="19.666380">
<ele>1971.735352</ele>
<time>2012-04-30T16:17:20Z</time>
<desc>lat.=42.887539, lon.=19.666380, Alt.=1971.735352m. Speed=3.780000m/h.</desc>
<speed>1.050000</speed>
</trkpt>
<trkpt lat="42.887524" lon="19.666443">
<ele>1972.454102</ele>
<time>2012-04-30T16:17:25Z</time>
<desc>lat.=42.887524, lon.=19.666443, Alt.=1972.454102m. Speed=4.356000m/h.</desc>
<speed>1.210000</speed>
</trkpt>
<trkpt lat="42.887501" lon="19.666502">
<ele>1974.516602</ele>
<time>2012-04-30T16:17:30Z</time>
<desc>lat.=42.887501, lon.=19.666502, Alt.=1974.516602m. Speed=3.852000m/h.</desc>
<speed>1.070000</speed>
</trkpt>
<trkpt lat="42.887466" lon="19.666548">
<ele>1975.141602</ele>
<time>2012-04-30T16:17:35Z</time>
<desc>lat.=42.887466, lon.=19.666548, Alt.=1975.141602m. Speed=4.032000m/h.</desc>
<speed>1.120000</speed>
</trkpt>
<trkpt lat="42.887440" lon="19.666597">
<ele>1975.110352</ele>
<time>2012-04-30T16:17:40Z</time>
<desc>lat.=42.887440, lon.=19.666597, Alt.=1975.110352m. Speed=3.672000m/h.</desc>
<speed>1.020000</speed>
</trkpt>
<trkpt lat="42.887402" lon="19.666639">
<ele>1974.672852</ele>
<time>2012-04-30T16:17:45Z</time>
<desc>lat.=42.887402, lon.=19.666639, Alt.=1974.672852m. Speed=3.744000m/h.</desc>
<speed>1.040000</speed>
</trkpt>
<trkpt lat="42.887394" lon="19.666658">
<ele>1973.954102</ele>
<time>2012-04-30T16:17:50Z</time>
<desc>lat.=42.887394, lon.=19.666658, Alt.=1973.954102m. Speed=2.664000m/h.</desc>
<speed>0.740000</speed>
</trkpt>
<trkpt lat="42.887371" lon="19.666681">
<ele>1972.829102</ele>
<time>2012-04-30T16:17:55Z</time>
<desc>lat.=42.887371, lon.=19.666681, Alt.=1972.829102m. Speed=2.196000m/h.</desc>
<speed>0.610000</speed>
</trkpt>
<trkpt lat="42.887356" lon="19.666731">
<ele>1973.047852</ele>
<time>2012-04-30T16:18:00Z</time>
<desc>lat.=42.887356, lon.=19.666731, Alt.=1973.047852m. Speed=3.708000m/h.</desc>
<speed>1.030000</speed>
</trkpt>
<trkpt lat="42.887329" lon="19.666813">
<ele>1974.047852</ele>
<time>2012-04-30T16:18:05Z</time>
<desc>lat.=42.887329, lon.=19.666813, Alt.=1974.047852m. Speed=3.420000m/h.</desc>
<speed>0.950000</speed>
</trkpt>
<trkpt lat="42.887299" lon="19.666855">
<ele>1974.047852</ele>
<time>2012-04-30T16:18:10Z</time>
<desc>lat.=42.887299, lon.=19.666855, Alt.=1974.047852m. Speed=2.952000m/h.</desc>
<speed>0.820000</speed>
</trkpt>
<trkpt lat="42.887283" lon="19.666885">
<ele>1973.266602</ele>
<time>2012-04-30T16:18:15Z</time>
<desc>lat.=42.887283, lon.=19.666885, Alt.=1973.266602m. Speed=2.916000m/h.</desc>
<speed>0.810000</speed>
</trkpt>
<trkpt lat="42.887280" lon="19.666927">
<ele>1973.297852</ele>
<time>2012-04-30T16:18:20Z</time>
<desc>lat.=42.887280, lon.=19.666927, Alt.=1973.297852m. Speed=3.384000m/h.</desc>
<speed>0.940000</speed>
</trkpt>
<trkpt lat="42.887272" lon="19.666979">
<ele>1973.391602</ele>
<time>2012-04-30T16:18:25Z</time>
<desc>lat.=42.887272, lon.=19.666979, Alt.=1973.391602m. Speed=1.944000m/h.</desc>
<speed>0.540000</speed>
</trkpt>
<trkpt lat="42.887241" lon="19.667015">
<ele>1973.516602</ele>
<time>2012-04-30T16:18:30Z</time>
<desc>lat.=42.887241, lon.=19.667015, Alt.=1973.516602m. Speed=4.068000m/h.</desc>
<speed>1.130000</speed>
</trkpt>
<trkpt lat="42.887211" lon="19.667091">
<ele>1973.422852</ele>
<time>2012-04-30T16:18:35Z</time>
<desc>lat.=42.887211, lon.=19.667091, Alt.=1973.422852m. Speed=4.464000m/h.</desc>
<speed>1.240000</speed>
</trkpt>
<trkpt lat="42.887180" lon="19.667150">
<ele>1973.672852</ele>
<time>2012-04-30T16:18:40Z</time>
<desc>lat.=42.887180, lon.=19.667150, Alt.=1973.672852m. Speed=2.664000m/h.</desc>
<speed>0.740000</speed>
</trkpt>
<trkpt lat="42.887146" lon="19.667187">
<ele>1974.047852</ele>
<time>2012-04-30T16:18:45Z</time>
<desc>lat.=42.887146, lon.=19.667187, Alt.=1974.047852m. Speed=3.060000m/h.</desc>
<speed>0.850000</speed>
</trkpt>
<trkpt lat="42.887127" lon="19.667191">
<ele>1974.516602</ele>
<time>2012-04-30T16:18:50Z</time>
<desc>lat.=42.887127, lon.=19.667191, Alt.=1974.516602m. Speed=0.180000m/h.</desc>
<speed>0.050000</speed>
</trkpt>
<trkpt lat="42.887119" lon="19.667187">
<ele>1974.922852</ele>
<time>2012-04-30T16:18:55Z</time>
<desc>lat.=42.887119, lon.=19.667187, Alt.=1974.922852m. Speed=0.216000m/h.</desc>
<speed>0.060000</speed>
</trkpt>
<trkpt lat="42.887119" lon="19.667187">
<ele>1974.954102</ele>
<time>2012-04-30T16:19:00Z</time>
<desc>lat.=42.887119, lon.=19.667187, Alt.=1974.954102m. Speed=0.180000m/h.</desc>
<speed>0.050000</speed>
</trkpt>
<trkpt lat="42.887115" lon="19.667187">
<ele>1974.985352</ele>
<time>2012-04-30T16:19:05Z</time>
<desc>lat.=42.887115, lon.=19.667187, Alt.=1974.985352m. Speed=0.216000m/h.</desc>
<speed>0.060000</speed>
</trkpt>
<trkpt lat="42.887115" lon="19.667187">
<ele>1975.079102</ele>
<time>2012-04-30T16:19:10Z</time>
<desc>lat.=42.887115, lon.=19.667187, Alt.=1975.079102m. Speed=0.036000m/h.</desc>
<speed>0.010000</speed>
</trkpt>
<trkpt lat="42.887115" lon="19.667187">
<ele>1975.110352</ele>
<time>2012-04-30T16:19:15Z</time>
<desc>lat.=42.887115, lon.=19.667187, Alt.=1975.110352m. Speed=0.036000m/h.</desc>
<speed>0.010000</speed>
</trkpt>
<trkpt lat="42.887115" lon="19.667187">
<ele>1975.110352</ele>
<time>2012-04-30T16:19:20Z</time>
<desc>lat.=42.887115, lon.=19.667187, Alt.=1975.110352m. Speed=0.000000m/h.</desc>
<speed>0.000000</speed>
</trkpt>
<trkpt lat="42.887115" lon="19.667187">
<ele>1975.141602</ele>
<time>2012-04-30T16:19:25Z</time>
<desc>lat.=42.887115, lon.=19.667187, Alt.=1975.141602m. Speed=0.072000m/h.</desc>
<speed>0.020000</speed>
</trkpt>
<trkpt lat="42.887115" lon="19.667189">
<ele>1975.141602</ele>
<time>2012-04-30T16:19:30Z</time>
<desc>lat.=42.887115, lon.=19.667189, Alt.=1975.141602m. Speed=0.036000m/h.</desc>
<speed>0.010000</speed>
</trkpt>
<trkpt lat="42.887115" lon="19.667189">
<ele>1975.172852</ele>
<time>2012-04-30T16:19:35Z</time>
<desc>lat.=42.887115, lon.=19.667189, Alt.=1975.172852m. Speed=0.036000m/h.</desc>
<speed>0.010000</speed>
</trkpt>
<trkpt lat="42.887115" lon="19.667187">
<ele>1975.172852</ele>
<time>2012-04-30T16:19:40Z</time>
<desc>lat.=42.887115, lon.=19.667187, Alt.=1975.172852m. Speed=0.072000m/h.</desc>
<speed>0.020000</speed>
</trkpt>
<trkpt lat="42.887115" lon="19.667189">
<ele>1975.204102</ele>
<time>2012-04-30T16:19:45Z</time>
<desc>lat.=42.887115, lon.=19.667189, Alt.=1975.204102m. Speed=0.612000m/h.</desc>
<speed>0.170000</speed>
</trkpt>
<trkpt lat="42.887112" lon="19.667204">
<ele>1975.141602</ele>
<time>2012-04-30T16:19:50Z</time>
<desc>lat.=42.887112, lon.=19.667204, Alt.=1975.141602m. Speed=1.548000m/h.</desc>
<speed>0.430000</speed>
</trkpt>
<trkpt lat="42.887096" lon="19.667288">
<ele>1975.204102</ele>
<time>2012-04-30T16:19:55Z</time>
<desc>lat.=42.887096, lon.=19.667288, Alt.=1975.204102m. Speed=3.636000m/h.</desc>
<speed>1.010000</speed>
</trkpt>
<trkpt lat="42.887054" lon="19.667393">
<ele>1975.672852</ele>
<time>2012-04-30T16:20:00Z</time>
<desc>lat.=42.887054, lon.=19.667393, Alt.=1975.672852m. Speed=4.104000m/h.</desc>
<speed>1.140000</speed>
</trkpt>
<trkpt lat="42.887001" lon="19.667475">
<ele>1976.172852</ele>
<time>2012-04-30T16:20:05Z</time>
<desc>lat.=42.887001, lon.=19.667475, Alt.=1976.172852m. Speed=5.004000m/h.</desc>
<speed>1.390000</speed>
</trkpt>
<trkpt lat="42.886951" lon="19.667540">
<ele>1976.235352</ele>
<time>2012-04-30T16:20:10Z</time>
<desc>lat.=42.886951, lon.=19.667540, Alt.=1976.235352m. Speed=4.680000m/h.</desc>
<speed>1.300000</speed>
</trkpt>
<trkpt lat="42.886921" lon="19.667610">
<ele>1976.454102</ele>
<time>2012-04-30T16:20:15Z</time>
<desc>lat.=42.886921, lon.=19.667610, Alt.=1976.454102m. Speed=5.328000m/h.</desc>
<speed>1.480000</speed>
</trkpt>
<trkpt lat="42.886860" lon="19.667660">
<ele>1977.641602</ele>
<time>2012-04-30T16:20:20Z</time>
<desc>lat.=42.886860, lon.=19.667660, Alt.=1977.641602m. Speed=5.328000m/h.</desc>
<speed>1.480000</speed>
</trkpt>
<trkpt lat="42.886822" lon="19.667677">
<ele>1976.704102</ele>
<time>2012-04-30T16:20:25Z</time>
<desc>lat.=42.886822, lon.=19.667677, Alt.=1976.704102m. Speed=4.608000m/h.</desc>
<speed>1.280000</speed>
</trkpt>
<trkpt lat="42.886787" lon="19.667662">
<ele>1972.985352</ele>
<time>2012-04-30T16:20:30Z</time>
<desc>lat.=42.886787, lon.=19.667662, Alt.=1972.985352m. Speed=4.752000m/h.</desc>
<speed>1.320000</speed>
</trkpt>
<trkpt lat="42.886738" lon="19.667694">
<ele>1970.797852</ele>
<time>2012-04-30T16:20:35Z</time>
<desc>lat.=42.886738, lon.=19.667694, Alt.=1970.797852m. Speed=5.616000m/h.</desc>
<speed>1.560000</speed>
</trkpt>
<trkpt lat="42.886703" lon="19.667744">
<ele>1968.985352</ele>
<time>2012-04-30T16:20:40Z</time>
<desc>lat.=42.886703, lon.=19.667744, Alt.=1968.985352m. Speed=5.004000m/h.</desc>
<speed>1.390000</speed>
</trkpt>
<trkpt lat="42.886665" lon="19.667788">
<ele>1965.297852</ele>
<time>2012-04-30T16:20:45Z</time>
<desc>lat.=42.886665, lon.=19.667788, Alt.=1965.297852m. Speed=4.428000m/h.</desc>
<speed>1.230000</speed>
</trkpt>
<trkpt lat="42.886600" lon="19.667809">
<ele>1963.922852</ele>
<time>2012-04-30T16:20:50Z</time>
<desc>lat.=42.886600, lon.=19.667809, Alt.=1963.922852m. Speed=5.760000m/h.</desc>
<speed>1.600000</speed>
</trkpt>
<trkpt lat="42.886566" lon="19.667810">
<ele>1962.672852</ele>
<time>2012-04-30T16:20:55Z</time>
<desc>lat.=42.886566, lon.=19.667810, Alt.=1962.672852m. Speed=3.960000m/h.</desc>
<speed>1.100000</speed>
</trkpt>
<trkpt lat="42.886517" lon="19.667854">
<ele>1963.329102</ele>
<time>2012-04-30T16:21:00Z</time>
<desc>lat.=42.886517, lon.=19.667854, Alt.=1963.329102m. Speed=4.716000m/h.</desc>
<speed>1.310000</speed>
</trkpt>
<trkpt lat="42.886478" lon="19.667900">
<ele>1964.204102</ele>
<time>2012-04-30T16:21:05Z</time>
<desc>lat.=42.886478, lon.=19.667900, Alt.=1964.204102m. Speed=2.916000m/h.</desc>
<speed>0.810000</speed>
</trkpt>
<trkpt lat="42.886448" lon="19.667952">
<ele>1963.829102</ele>
<time>2012-04-30T16:21:10Z</time>
<desc>lat.=42.886448, lon.=19.667952, Alt.=1963.829102m. Speed=4.104000m/h.</desc>
<speed>1.140000</speed>
</trkpt>
<trkpt lat="42.886417" lon="19.668013">
<ele>1964.360352</ele>
<time>2012-04-30T16:21:15Z</time>
<desc>lat.=42.886417, lon.=19.668013, Alt.=1964.360352m. Speed=3.204000m/h.</desc>
<speed>0.890000</speed>
</trkpt>
<trkpt lat="42.886383" lon="19.668064">
<ele>1965.266602</ele>
<time>2012-04-30T16:21:20Z</time>
<desc>lat.=42.886383, lon.=19.668064, Alt.=1965.266602m. Speed=4.824000m/h.</desc>
<speed>1.340000</speed>
</trkpt>
<trkpt lat="42.886353" lon="19.668121">
<ele>1965.329102</ele>
<time>2012-04-30T16:21:25Z</time>
<desc>lat.=42.886353, lon.=19.668121, Alt.=1965.329102m. Speed=3.600000m/h.</desc>
<speed>1.000000</speed>
</trkpt>
<trkpt lat="42.886314" lon="19.668165">
<ele>1965.016602</ele>
<time>2012-04-30T16:21:30Z</time>
<desc>lat.=42.886314, lon.=19.668165, Alt.=1965.016602m. Speed=3.204000m/h.</desc>
<speed>0.890000</speed>
</trkpt>
<trkpt lat="42.886295" lon="19.668222">
<ele>1965.579102</ele>
<time>2012-04-30T16:21:35Z</time>
<desc>lat.=42.886295, lon.=19.668222, Alt.=1965.579102m. Speed=3.888000m/h.</desc>
<speed>1.080000</speed>
</trkpt>
<trkpt lat="42.886276" lon="19.668282">
<ele>1966.235352</ele>
<time>2012-04-30T16:21:40Z</time>
<desc>lat.=42.886276, lon.=19.668282, Alt.=1966.235352m. Speed=4.068000m/h.</desc>
<speed>1.130000</speed>
</trkpt>
<trkpt lat="42.886253" lon="19.668335">
<ele>1967.016602</ele>
<time>2012-04-30T16:21:45Z</time>
<desc>lat.=42.886253, lon.=19.668335, Alt.=1967.016602m. Speed=3.024000m/h.</desc>
<speed>0.840000</speed>
</trkpt>
<trkpt lat="42.886234" lon="19.668358">
<ele>1967.235352</ele>
<time>2012-04-30T16:21:50Z</time>
<desc>lat.=42.886234, lon.=19.668358, Alt.=1967.235352m. Speed=0.252000m/h.</desc>
<speed>0.070000</speed>
</trkpt>
<trkpt lat="42.886234" lon="19.668356">
<ele>1967.485352</ele>
<time>2012-04-30T16:21:55Z</time>
<desc>lat.=42.886234, lon.=19.668356, Alt.=1967.485352m. Speed=0.144000m/h.</desc>
<speed>0.040000</speed>
</trkpt>
<trkpt lat="42.886234" lon="19.668348">
<ele>1967.454102</ele>
<time>2012-04-30T16:22:00Z</time>
<desc>lat.=42.886234, lon.=19.668348, Alt.=1967.454102m. Speed=0.432000m/h.</desc>
<speed>0.120000</speed>
</trkpt>
<trkpt lat="42.886238" lon="19.668341">
<ele>1967.204102</ele>
<time>2012-04-30T16:22:05Z</time>
<desc>lat.=42.886238, lon.=19.668341, Alt.=1967.204102m. Speed=0.756000m/h.</desc>
<speed>0.210000</speed>
</trkpt>
<trkpt lat="42.886250" lon="19.668343">
<ele>1966.829102</ele>
<time>2012-04-30T16:22:10Z</time>
<desc>lat.=42.886250, lon.=19.668343, Alt.=1966.829102m. Speed=0.540000m/h.</desc>
<speed>0.150000</speed>
</trkpt>
<trkpt lat="42.886253" lon="19.668344">
<ele>1966.329102</ele>
<time>2012-04-30T16:22:15Z</time>
<desc>lat.=42.886253, lon.=19.668344, Alt.=1966.329102m. Speed=0.216000m/h.</desc>
<speed>0.060000</speed>
</trkpt>
<trkpt lat="42.886257" lon="19.668344">
<ele>1966.016602</ele>
<time>2012-04-30T16:22:20Z</time>
<desc>lat.=42.886257, lon.=19.668344, Alt.=1966.016602m. Speed=0.360000m/h.</desc>
<speed>0.100000</speed>
</trkpt>
<trkpt lat="42.886265" lon="19.668346">
<ele>1965.829102</ele>
<time>2012-04-30T16:22:25Z</time>
<desc>lat.=42.886265, lon.=19.668346, Alt.=1965.829102m. Speed=0.396000m/h.</desc>
<speed>0.110000</speed>
</trkpt>
<trkpt lat="42.886265" lon="19.668343">
<ele>1965.735352</ele>
<time>2012-04-30T16:22:30Z</time>
<desc>lat.=42.886265, lon.=19.668343, Alt.=1965.735352m. Speed=0.180000m/h.</desc>
<speed>0.050000</speed>
</trkpt>
<trkpt lat="42.886269" lon="19.668343">
<ele>1965.672852</ele>
<time>2012-04-30T16:22:35Z</time>
<desc>lat.=42.886269, lon.=19.668343, Alt.=1965.672852m. Speed=0.396000m/h.</desc>
<speed>0.110000</speed>
</trkpt>
<trkpt lat="42.886272" lon="19.668339">
<ele>1965.641602</ele>
<time>2012-04-30T16:22:40Z</time>
<desc>lat.=42.886272, lon.=19.668339, Alt.=1965.641602m. Speed=0.036000m/h.</desc>
<speed>0.010000</speed>
</trkpt>
<trkpt lat="42.886272" lon="19.668337">
<ele>1965.610352</ele>
<time>2012-04-30T16:22:45Z</time>
<desc>lat.=42.886272, lon.=19.668337, Alt.=1965.610352m. Speed=0.540000m/h.</desc>
<speed>0.150000</speed>
</trkpt>
<trkpt lat="42.886272" lon="19.668339">
<ele>1965.610352</ele>
<time>2012-04-30T16:22:50Z</time>
<desc>lat.=42.886272, lon.=19.668339, Alt.=1965.610352m. Speed=0.036000m/h.</desc>
<speed>0.010000</speed>
</trkpt>
<trkpt lat="42.886272" lon="19.668339">
<ele>1965.579102</ele>
<time>2012-04-30T16:22:55Z</time>
<desc>lat.=42.886272, lon.=19.668339, Alt.=1965.579102m. Speed=0.072000m/h.</desc>
<speed>0.020000</speed>
</trkpt>
<trkpt lat="42.886272" lon="19.668339">
<ele>1965.579102</ele>
<time>2012-04-30T16:23:00Z</time>
<desc>lat.=42.886272, lon.=19.668339, Alt.=1965.579102m. Speed=0.036000m/h.</desc>
<speed>0.010000</speed>
</trkpt>
<trkpt lat="42.886272" lon="19.668337">
<ele>1965.610352</ele>
<time>2012-04-30T16:23:05Z</time>
<desc>lat.=42.886272, lon.=19.668337, Alt.=1965.610352m. Speed=0.036000m/h.</desc>
<speed>0.010000</speed>
</trkpt>
<trkpt lat="42.886269" lon="19.668337">
<ele>1965.610352</ele>
<time>2012-04-30T16:23:10Z</time>
<desc>lat.=42.886269, lon.=19.668337, Alt.=1965.610352m. Speed=0.072000m/h.</desc>
<speed>0.020000</speed>
</trkpt>
<trkpt lat="42.886269" lon="19.668337">
<ele>1965.610352</ele>
<time>2012-04-30T16:23:15Z</time>
<desc>lat.=42.886269, lon.=19.668337, Alt.=1965.610352m. Speed=0.072000m/h.</desc>
<speed>0.020000</speed>
</trkpt>
<trkpt lat="42.886272" lon="19.668337">
<ele>1965.610352</ele>
<time>2012-04-30T16:23:20Z</time>
<desc>lat.=42.886272, lon.=19.668337, Alt.=1965.610352m. Speed=0.036000m/h.</desc>
<speed>0.010000</speed>
</trkpt>
<trkpt lat="42.886269" lon="19.668337">
<ele>1965.641602</ele>
<time>2012-04-30T16:23:25Z</time>
<desc>lat.=42.886269, lon.=19.668337, Alt.=1965.641602m. Speed=0.108000m/h.</desc>
<speed>0.030000</speed>
</trkpt>
<trkpt lat="42.886269" lon="19.668337">
<ele>1965.641602</ele>
<time>2012-04-30T16:23:30Z</time>
<desc>lat.=42.886269, lon.=19.668337, Alt.=1965.641602m. Speed=0.036000m/h.</desc>
<speed>0.010000</speed>
</trkpt>
<trkpt lat="42.886269" lon="19.668337">
<ele>1965.641602</ele>
<time>2012-04-30T16:23:35Z</time>
<desc>lat.=42.886269, lon.=19.668337, Alt.=1965.641602m. Speed=0.000000m/h.</desc>
<speed>0.000000</speed>
</trkpt>
<trkpt lat="42.886269" lon="19.668337">
<ele>1965.704102</ele>
<time>2012-04-30T16:23:40Z</time>
<desc>lat.=42.886269, lon.=19.668337, Alt.=1965.704102m. Speed=0.072000m/h.</desc>
<speed>0.020000</speed>
</trkpt>
<trkpt lat="42.886269" lon="19.668337">
<ele>1965.704102</ele>
<time>2012-04-30T16:23:45Z</time>
<desc>lat.=42.886269, lon.=19.668337, Alt.=1965.704102m. Speed=0.036000m/h.</desc>
<speed>0.010000</speed>
</trkpt>
<trkpt lat="42.886269" lon="19.668337">
<ele>1965.704102</ele>
<time>2012-04-30T16:23:50Z</time>
<desc>lat.=42.886269, lon.=19.668337, Alt.=1965.704102m. Speed=0.036000m/h.</desc>
<speed>0.010000</speed>
</trkpt>
<trkpt lat="42.886269" lon="19.668337">
<ele>1965.735352</ele>
<time>2012-04-30T16:23:55Z</time>
<desc>lat.=42.886269, lon.=19.668337, Alt.=1965.735352m. Speed=0.072000m/h.</desc>
<speed>0.020000</speed>
</trkpt>
<trkpt lat="42.886269" lon="19.668337">
<ele>1965.735352</ele>
<time>2012-04-30T16:24:00Z</time>
<desc>lat.=42.886269, lon.=19.668337, Alt.=1965.735352m. Speed=0.036000m/h.</desc>
<speed>0.010000</speed>
</trkpt>
<trkpt lat="42.886269" lon="19.668337">
<ele>1965.735352</ele>
<time>2012-04-30T16:24:05Z</time>
<desc>lat.=42.886269, lon.=19.668337, Alt.=1965.735352m. Speed=0.036000m/h.</desc>
<speed>0.010000</speed>
</trkpt>
<trkpt lat="42.886269" lon="19.668337">
<ele>1965.735352</ele>
<time>2012-04-30T16:24:10Z</time>
<desc>lat.=42.886269, lon.=19.668337, Alt.=1965.735352m. Speed=0.036000m/h.</desc>
<speed>0.010000</speed>
</trkpt>
<trkpt lat="42.886269" lon="19.668337">
<ele>1965.735352</ele>
<time>2012-04-30T16:24:15Z</time>
<desc>lat.=42.886269, lon.=19.668337, Alt.=1965.735352m. Speed=0.036000m/h.</desc>
<speed>0.010000</speed>
</trkpt>
<trkpt lat="42.886269" lon="19.668337">
<ele>1965.735352</ele>
<time>2012-04-30T16:24:20Z</time>
<desc>lat.=42.886269, lon.=19.668337, Alt.=1965.735352m. Speed=0.000000m/h.</desc>
<speed>0.000000</speed>
</trkpt>
<trkpt lat="42.886269" lon="19.668337">
<ele>1965.735352</ele>
<time>2012-04-30T16:24:25Z</time>
<desc>lat.=42.886269, lon.=19.668337, Alt.=1965.735352m. Speed=0.000000m/h.</desc>
<speed>0.000000</speed>
</trkpt>
<trkpt lat="42.886269" lon="19.668337">
<ele>1965.704102</ele>
<time>2012-04-30T16:24:30Z</time>
<desc>lat.=42.886269, lon.=19.668337, Alt.=1965.704102m. Speed=0.036000m/h.</desc>
<speed>0.010000</speed>
</trkpt>
<trkpt lat="42.886269" lon="19.668337">
<ele>1965.704102</ele>
<time>2012-04-30T16:24:35Z</time>
<desc>lat.=42.886269, lon.=19.668337, Alt.=1965.704102m. Speed=0.036000m/h.</desc>
<speed>0.010000</speed>
</trkpt>
<trkpt lat="42.886269" lon="19.668337">
<ele>1965.704102</ele>
<time>2012-04-30T16:24:40Z</time>
<desc>lat.=42.886269, lon.=19.668337, Alt.=1965.704102m. Speed=0.036000m/h.</desc>
<speed>0.010000</speed>
</trkpt>
<trkpt lat="42.886269" lon="19.668337">
<ele>1965.735352</ele>
<time>2012-04-30T16:24:45Z</time>
<desc>lat.=42.886269, lon.=19.668337, Alt.=1965.735352m. Speed=0.036000m/h.</desc>
<speed>0.010000</speed>
</trkpt>
<trkpt lat="42.886269" lon="19.668337">
<ele>1965.735352</ele>
<time>2012-04-30T16:24:50Z</time>
<desc>lat.=42.886269, lon.=19.668337, Alt.=1965.735352m. Speed=0.072000m/h.</desc>
<speed>0.020000</speed>
</trkpt>
<trkpt lat="42.886269" lon="19.668337">
<ele>1965.766602</ele>
<time>2012-04-30T16:24:55Z</time>
<desc>lat.=42.886269, lon.=19.668337, Alt.=1965.766602m. Speed=0.072000m/h.</desc>
<speed>0.020000</speed>
</trkpt>
<trkpt lat="42.886269" lon="19.668337">
<ele>1965.735352</ele>
<time>2012-04-30T16:25:00Z</time>
<desc>lat.=42.886269, lon.=19.668337, Alt.=1965.735352m. Speed=0.036000m/h.</desc>
<speed>0.010000</speed>
</trkpt>
<trkpt lat="42.886269" lon="19.668337">
<ele>1965.735352</ele>
<time>2012-04-30T16:25:05Z</time>
<desc>lat.=42.886269, lon.=19.668337, Alt.=1965.735352m. Speed=0.036000m/h.</desc>
<speed>0.010000</speed>
</trkpt>
<trkpt lat="42.886269" lon="19.668335">
<ele>1965.766602</ele>
<time>2012-04-30T16:25:10Z</time>
<desc>lat.=42.886269, lon.=19.668335, Alt.=1965.766602m. Speed=0.000000m/h.</desc>
<speed>0.000000</speed>
</trkpt>
<trkpt lat="42.886269" lon="19.668335">
<ele>1965.797852</ele>
<time>2012-04-30T16:25:15Z</time>
<desc>lat.=42.886269, lon.=19.668335, Alt.=1965.797852m. Speed=0.000000m/h.</desc>
<speed>0.000000</speed>
</trkpt>
<trkpt lat="42.886269" lon="19.668335">
<ele>1965.797852</ele>
<time>2012-04-30T16:25:20Z</time>
<desc>lat.=42.886269, lon.=19.668335, Alt.=1965.797852m. Speed=0.072000m/h.</desc>
<speed>0.020000</speed>
</trkpt>
<trkpt lat="42.886265" lon="19.668335">
<ele>1965.797852</ele>
<time>2012-04-30T16:25:25Z</time>
<desc>lat.=42.886265, lon.=19.668335, Alt.=1965.797852m. Speed=0.072000m/h.</desc>
<speed>0.020000</speed>
</trkpt>
<trkpt lat="42.886265" lon="19.668337">
<ele>1965.797852</ele>
<time>2012-04-30T16:25:30Z</time>
<desc>lat.=42.886265, lon.=19.668337, Alt.=1965.797852m. Speed=0.000000m/h.</desc>
<speed>0.000000</speed>
</trkpt>
<trkpt lat="42.886265" lon="19.668335">
<ele>1965.797852</ele>
<time>2012-04-30T16:25:35Z</time>
<desc>lat.=42.886265, lon.=19.668335, Alt.=1965.797852m. Speed=0.216000m/h.</desc>
<speed>0.060000</speed>
</trkpt>
<trkpt lat="42.886265" lon="19.668335">
<ele>1965.797852</ele>
<time>2012-04-30T16:25:40Z</time>
<desc>lat.=42.886265, lon.=19.668335, Alt.=1965.797852m. Speed=0.288000m/h.</desc>
<speed>0.080000</speed>
</trkpt>
<trkpt lat="42.886269" lon="19.668333">
<ele>1965.797852</ele>
<time>2012-04-30T16:25:45Z</time>
<desc>lat.=42.886269, lon.=19.668333, Alt.=1965.797852m. Speed=2.196000m/h.</desc>
<speed>0.610000</speed>
</trkpt>
<trkpt lat="42.886375" lon="19.668278">
<ele>1965.454102</ele>
<time>2012-04-30T16:25:50Z</time>
<desc>lat.=42.886375, lon.=19.668278, Alt.=1965.454102m. Speed=8.712000m/h.</desc>
<speed>2.420000</speed>
</trkpt>
<trkpt lat="42.886524" lon="19.668173">
<ele>1966.204102</ele>
<time>2012-04-30T16:25:55Z</time>
<desc>lat.=42.886524, lon.=19.668173, Alt.=1966.204102m. Speed=9.108000m/h.</desc>
<speed>2.530000</speed>
</trkpt>
<trkpt lat="42.886673" lon="19.668118">
<ele>1967.235352</ele>
<time>2012-04-30T16:26:00Z</time>
<desc>lat.=42.886673, lon.=19.668118, Alt.=1967.235352m. Speed=10.944000m/h.</desc>
<speed>3.040000</speed>
</trkpt>
<trkpt lat="42.886810" lon="19.668037">
<ele>1967.891602</ele>
<time>2012-04-30T16:26:05Z</time>
<desc>lat.=42.886810, lon.=19.668037, Alt.=1967.891602m. Speed=9.756000m/h.</desc>
<speed>2.710000</speed>
</trkpt>
<trkpt lat="42.886936" lon="19.668030">
<ele>1966.016602</ele>
<time>2012-04-30T16:26:10Z</time>
<desc>lat.=42.886936, lon.=19.668030, Alt.=1966.016602m. Speed=11.196000m/h.</desc>
<speed>3.110000</speed>
</trkpt>
<trkpt lat="42.887066" lon="19.668032">
<ele>1967.172852</ele>
<time>2012-04-30T16:26:15Z</time>
<desc>lat.=42.887066, lon.=19.668032, Alt.=1967.172852m. Speed=8.532000m/h.</desc>
<speed>2.370000</speed>
</trkpt>
<trkpt lat="42.887096" lon="19.668064">
<ele>1971.766602</ele>
<time>2012-04-30T16:26:20Z</time>
<desc>lat.=42.887096, lon.=19.668064, Alt.=1971.766602m. Speed=5.616000m/h.</desc>
<speed>1.560000</speed>
</trkpt>
<trkpt lat="42.887112" lon="19.668112">
<ele>1978.047852</ele>
<time>2012-04-30T16:26:25Z</time>
<desc>lat.=42.887112, lon.=19.668112, Alt.=1978.047852m. Speed=3.780000m/h.</desc>
<speed>1.050000</speed>
</trkpt>
<trkpt lat="42.887131" lon="19.668112">
<ele>1980.797852</ele>
<time>2012-04-30T16:26:30Z</time>
<desc>lat.=42.887131, lon.=19.668112, Alt.=1980.797852m. Speed=2.196000m/h.</desc>
<speed>0.610000</speed>
</trkpt>
<trkpt lat="42.887169" lon="19.668093">
<ele>1982.797852</ele>
<time>2012-04-30T16:26:35Z</time>
<desc>lat.=42.887169, lon.=19.668093, Alt.=1982.797852m. Speed=3.168000m/h.</desc>
<speed>0.880000</speed>
</trkpt>
<trkpt lat="42.887215" lon="19.668108">
<ele>1985.766602</ele>
<time>2012-04-30T16:26:40Z</time>
<desc>lat.=42.887215, lon.=19.668108, Alt.=1985.766602m. Speed=4.752000m/h.</desc>
<speed>1.320000</speed>
</trkpt>
<trkpt lat="42.887230" lon="19.668177">
<ele>1989.672852</ele>
<time>2012-04-30T16:26:45Z</time>
<desc>lat.=42.887230, lon.=19.668177, Alt.=1989.672852m. Speed=2.556000m/h.</desc>
<speed>0.710000</speed>
</trkpt>
<trkpt lat="42.887226" lon="19.668179">
<ele>1991.485352</ele>
<time>2012-04-30T16:26:50Z</time>
<desc>lat.=42.887226, lon.=19.668179, Alt.=1991.485352m. Speed=0.720000m/h.</desc>
<speed>0.200000</speed>
</trkpt>
<trkpt lat="42.887264" lon="19.668154">
<ele>1992.235352</ele>
<time>2012-04-30T16:26:55Z</time>
<desc>lat.=42.887264, lon.=19.668154, Alt.=1992.235352m. Speed=2.700000m/h.</desc>
<speed>0.750000</speed>
</trkpt>
<trkpt lat="42.887325" lon="19.668119">
<ele>1992.547852</ele>
<time>2012-04-30T16:27:00Z</time>
<desc>lat.=42.887325, lon.=19.668119, Alt.=1992.547852m. Speed=2.844000m/h.</desc>
<speed>0.790000</speed>
</trkpt>
<trkpt lat="42.887363" lon="19.668079">
<ele>1992.391602</ele>
<time>2012-04-30T16:27:05Z</time>
<desc>lat.=42.887363, lon.=19.668079, Alt.=1992.391602m. Speed=3.312000m/h.</desc>
<speed>0.920000</speed>
</trkpt>
<trkpt lat="42.887413" lon="19.668066">
<ele>1992.985352</ele>
<time>2012-04-30T16:27:10Z</time>
<desc>lat.=42.887413, lon.=19.668066, Alt.=1992.985352m. Speed=3.276000m/h.</desc>
<speed>0.910000</speed>
</trkpt>
<trkpt lat="42.887455" lon="19.668056">
<ele>1993.516602</ele>
<time>2012-04-30T16:27:15Z</time>
<desc>lat.=42.887455, lon.=19.668056, Alt.=1993.516602m. Speed=2.448000m/h.</desc>
<speed>0.680000</speed>
</trkpt>
<trkpt lat="42.887478" lon="19.668055">
<ele>1994.266602</ele>
<time>2012-04-30T16:27:20Z</time>
<desc>lat.=42.887478, lon.=19.668055, Alt.=1994.266602m. Speed=1.224000m/h.</desc>
<speed>0.340000</speed>
</trkpt>
<trkpt lat="42.887474" lon="19.668053">
<ele>1995.047852</ele>
<time>2012-04-30T16:27:25Z</time>
<desc>lat.=42.887474, lon.=19.668053, Alt.=1995.047852m. Speed=0.504000m/h.</desc>
<speed>0.140000</speed>
</trkpt>
<trkpt lat="42.887478" lon="19.668049">
<ele>1995.985352</ele>
<time>2012-04-30T16:27:30Z</time>
<desc>lat.=42.887478, lon.=19.668049, Alt.=1995.985352m. Speed=0.180000m/h.</desc>
<speed>0.050000</speed>
</trkpt>
<trkpt lat="42.887478" lon="19.668047">
<ele>1996.891602</ele>
<time>2012-04-30T16:27:35Z</time>
<desc>lat.=42.887478, lon.=19.668047, Alt.=1996.891602m. Speed=0.180000m/h.</desc>
<speed>0.050000</speed>
</trkpt>
<trkpt lat="42.887470" lon="19.668049">
<ele>1997.704102</ele>
<time>2012-04-30T16:27:40Z</time>
<desc>lat.=42.887470, lon.=19.668049, Alt.=1997.704102m. Speed=0.756000m/h.</desc>
<speed>0.210000</speed>
</trkpt>
<trkpt lat="42.887463" lon="19.668053">
<ele>1998.391602</ele>
<time>2012-04-30T16:27:45Z</time>
<desc>lat.=42.887463, lon.=19.668053, Alt.=1998.391602m. Speed=0.756000m/h.</desc>
<speed>0.210000</speed>
</trkpt>
<trkpt lat="42.887455" lon="19.668056">
<ele>1999.016602</ele>
<time>2012-04-30T16:27:50Z</time>
<desc>lat.=42.887455, lon.=19.668056, Alt.=1999.016602m. Speed=0.432000m/h.</desc>
<speed>0.120000</speed>
</trkpt>
<trkpt lat="42.887447" lon="19.668062">
<ele>1999.547852</ele>
<time>2012-04-30T16:27:55Z</time>
<desc>lat.=42.887447, lon.=19.668062, Alt.=1999.547852m. Speed=0.432000m/h.</desc>
<speed>0.120000</speed>
</trkpt>
<trkpt lat="42.887436" lon="19.668062">
<ele>1999.766602</ele>
<time>2012-04-30T16:28:00Z</time>
<desc>lat.=42.887436, lon.=19.668062, Alt.=1999.766602m. Speed=2.592000m/h.</desc>
<speed>0.720000</speed>
</trkpt>
<trkpt lat="42.887447" lon="19.668068">
<ele>1997.110352</ele>
<time>2012-04-30T16:28:05Z</time>
<desc>lat.=42.887447, lon.=19.668068, Alt.=1997.110352m. Speed=0.432000m/h.</desc>
<speed>0.120000</speed>
</trkpt>
<trkpt lat="42.887447" lon="19.668068">
<ele>1993.204102</ele>
<time>2012-04-30T16:28:10Z</time>
<desc>lat.=42.887447, lon.=19.668068, Alt.=1993.204102m. Speed=7.272000m/h.</desc>
<speed>2.020000</speed>
</trkpt>
<trkpt lat="42.887440" lon="19.668097">
<ele>1991.954102</ele>
<time>2012-04-30T16:28:15Z</time>
<desc>lat.=42.887440, lon.=19.668097, Alt.=1991.954102m. Speed=0.360000m/h.</desc>
<speed>0.100000</speed>
</trkpt>
<trkpt lat="42.887424" lon="19.668091">
<ele>1991.422852</ele>
<time>2012-04-30T16:28:20Z</time>
<desc>lat.=42.887424, lon.=19.668091, Alt.=1991.422852m. Speed=3.060000m/h.</desc>
<speed>0.850000</speed>
</trkpt>
<trkpt lat="42.887386" lon="19.668058">
<ele>1990.891602</ele>
<time>2012-04-30T16:28:25Z</time>
<desc>lat.=42.887386, lon.=19.668058, Alt.=1990.891602m. Speed=3.312000m/h.</desc>
<speed>0.920000</speed>
</trkpt>
<trkpt lat="42.887299" lon="19.668043">
<ele>1989.766602</ele>
<time>2012-04-30T16:28:30Z</time>
<desc>lat.=42.887299, lon.=19.668043, Alt.=1989.766602m. Speed=7.524000m/h.</desc>
<speed>2.090000</speed>
</trkpt>
<trkpt lat="42.887226" lon="19.668049">
<ele>1988.860352</ele>
<time>2012-04-30T16:28:35Z</time>
<desc>lat.=42.887226, lon.=19.668049, Alt.=1988.860352m. Speed=4.824000m/h.</desc>
<speed>1.340000</speed>
</trkpt>
<trkpt lat="42.887199" lon="19.668060">
<ele>1987.891602</ele>
<time>2012-04-30T16:28:40Z</time>
<desc>lat.=42.887199, lon.=19.668060, Alt.=1987.891602m. Speed=1.584000m/h.</desc>
<speed>0.440000</speed>
</trkpt>
<trkpt lat="42.887157" lon="19.668037">
<ele>1986.954102</ele>
<time>2012-04-30T16:28:45Z</time>
<desc>lat.=42.887157, lon.=19.668037, Alt.=1986.954102m. Speed=3.384000m/h.</desc>
<speed>0.940000</speed>
</trkpt>
<trkpt lat="42.887131" lon="19.668030">
<ele>1986.141602</ele>
<time>2012-04-30T16:28:50Z</time>
<desc>lat.=42.887131, lon.=19.668030, Alt.=1986.141602m. Speed=3.600000m/h.</desc>
<speed>1.000000</speed>
</trkpt>
<trkpt lat="42.887081" lon="19.668034">
<ele>1985.235352</ele>
<time>2012-04-30T16:28:55Z</time>
<desc>lat.=42.887081, lon.=19.668034, Alt.=1985.235352m. Speed=4.104000m/h.</desc>
<speed>1.140000</speed>
</trkpt>
<trkpt lat="42.887024" lon="19.668058">
<ele>1984.454102</ele>
<time>2012-04-30T16:29:00Z</time>
<desc>lat.=42.887024, lon.=19.668058, Alt.=1984.454102m. Speed=3.816000m/h.</desc>
<speed>1.060000</speed>
</trkpt>
<trkpt lat="42.886974" lon="19.668060">
<ele>1984.204102</ele>
<time>2012-04-30T16:29:05Z</time>
<desc>lat.=42.886974, lon.=19.668060, Alt.=1984.204102m. Speed=4.176000m/h.</desc>
<speed>1.160000</speed>
</trkpt>
<trkpt lat="42.886898" lon="19.668081">
<ele>1984.016602</ele>
<time>2012-04-30T16:29:10Z</time>
<desc>lat.=42.886898, lon.=19.668081, Alt.=1984.016602m. Speed=10.008000m/h.</desc>
<speed>2.780000</speed>
</trkpt>
<trkpt lat="42.886818" lon="19.668102">
<ele>1983.704102</ele>
<time>2012-04-30T16:29:15Z</time>
<desc>lat.=42.886818, lon.=19.668102, Alt.=1983.704102m. Speed=4.572000m/h.</desc>
<speed>1.270000</speed>
</trkpt>
<trkpt lat="42.886745" lon="19.668112">
<ele>1982.985352</ele>
<time>2012-04-30T16:29:20Z</time>
<desc>lat.=42.886745, lon.=19.668112, Alt.=1982.985352m. Speed=9.360000m/h.</desc>
<speed>2.600000</speed>
</trkpt>
<trkpt lat="42.886730" lon="19.668106">
<ele>1981.985352</ele>
<time>2012-04-30T16:29:25Z</time>
<desc>lat.=42.886730, lon.=19.668106, Alt.=1981.985352m. Speed=1.836000m/h.</desc>
<speed>0.510000</speed>
</trkpt>
<trkpt lat="42.886677" lon="19.668121">
<ele>1980.954102</ele>
<time>2012-04-30T16:29:30Z</time>
<desc>lat.=42.886677, lon.=19.668121, Alt.=1980.954102m. Speed=5.220000m/h.</desc>
<speed>1.450000</speed>
</trkpt>
<trkpt lat="42.886635" lon="19.668173">
<ele>1979.829102</ele>
<time>2012-04-30T16:29:35Z</time>
<desc>lat.=42.886635, lon.=19.668173, Alt.=1979.829102m. Speed=3.564000m/h.</desc>
<speed>0.990000</speed>
</trkpt>
<trkpt lat="42.886589" lon="19.668179">
<ele>1978.110352</ele>
<time>2012-04-30T16:29:40Z</time>
<desc>lat.=42.886589, lon.=19.668179, Alt.=1978.110352m. Speed=3.852000m/h.</desc>
<speed>1.070000</speed>
</trkpt>
<trkpt lat="42.886528" lon="19.668224">
<ele>1976.391602</ele>
<time>2012-04-30T16:29:45Z</time>
<desc>lat.=42.886528, lon.=19.668224, Alt.=1976.391602m. Speed=7.092000m/h.</desc>
<speed>1.970000</speed>
</trkpt>
<trkpt lat="42.886459" lon="19.668253">
<ele>1974.954102</ele>
<time>2012-04-30T16:29:50Z</time>
<desc>lat.=42.886459, lon.=19.668253, Alt.=1974.954102m. Speed=3.564000m/h.</desc>
<speed>0.990000</speed>
</trkpt>
<trkpt lat="42.886414" lon="19.668262">
<ele>1974.110352</ele>
<time>2012-04-30T16:29:55Z</time>
<desc>lat.=42.886414, lon.=19.668262, Alt.=1974.110352m. Speed=3.276000m/h.</desc>
<speed>0.910000</speed>
</trkpt>
<trkpt lat="42.886345" lon="19.668308">
<ele>1973.297852</ele>
<time>2012-04-30T16:30:00Z</time>
<desc>lat.=42.886345, lon.=19.668308, Alt.=1973.297852m. Speed=5.832000m/h.</desc>
<speed>1.620000</speed>
</trkpt>
<trkpt lat="42.886280" lon="19.668339">
<ele>1972.735352</ele>
<time>2012-04-30T16:30:05Z</time>
<desc>lat.=42.886280, lon.=19.668339, Alt.=1972.735352m. Speed=6.480000m/h.</desc>
<speed>1.800000</speed>
</trkpt>
<trkpt lat="42.886253" lon="19.668350">
<ele>1971.329102</ele>
<time>2012-04-30T16:30:10Z</time>
<desc>lat.=42.886253, lon.=19.668350, Alt.=1971.329102m. Speed=1.620000m/h.</desc>
<speed>0.450000</speed>
</trkpt>
<trkpt lat="42.886246" lon="19.668373">
<ele>1970.704102</ele>
<time>2012-04-30T16:30:15Z</time>
<desc>lat.=42.886246, lon.=19.668373, Alt.=1970.704102m. Speed=1.296000m/h.</desc>
<speed>0.360000</speed>
</trkpt>
<trkpt lat="42.886238" lon="19.668383">
<ele>1969.672852</ele>
<time>2012-04-30T16:30:20Z</time>
<desc>lat.=42.886238, lon.=19.668383, Alt.=1969.672852m. Speed=1.764000m/h.</desc>
<speed>0.490000</speed>
</trkpt>
<trkpt lat="42.886234" lon="19.668390">
<ele>1968.985352</ele>
<time>2012-04-30T16:30:25Z</time>
<desc>lat.=42.886234, lon.=19.668390, Alt.=1968.985352m. Speed=0.972000m/h.</desc>
<speed>0.270000</speed>
</trkpt>
<trkpt lat="42.886219" lon="19.668386">
<ele>1969.547852</ele>
<time>2012-04-30T16:30:30Z</time>
<desc>lat.=42.886219, lon.=19.668386, Alt.=1969.547852m. Speed=0.288000m/h.</desc>
<speed>0.080000</speed>
</trkpt>
<trkpt lat="42.886215" lon="19.668386">
<ele>1969.516602</ele>
<time>2012-04-30T16:30:35Z</time>
<desc>lat.=42.886215, lon.=19.668386, Alt.=1969.516602m. Speed=0.972000m/h.</desc>
<speed>0.270000</speed>
</trkpt>
<trkpt lat="42.886204" lon="19.668400">
<ele>1969.860352</ele>
<time>2012-04-30T16:30:40Z</time>
<desc>lat.=42.886204, lon.=19.668400, Alt.=1969.860352m. Speed=1.008000m/h.</desc>
<speed>0.280000</speed>
</trkpt>
<trkpt lat="42.886200" lon="19.668407">
<ele>1970.266602</ele>
<time>2012-04-30T16:30:45Z</time>
<desc>lat.=42.886200, lon.=19.668407, Alt.=1970.266602m. Speed=0.432000m/h.</desc>
<speed>0.120000</speed>
</trkpt>
<trkpt lat="42.886204" lon="19.668409">
<ele>1970.266602</ele>
<time>2012-04-30T16:30:50Z</time>
<desc>lat.=42.886204, lon.=19.668409, Alt.=1970.266602m. Speed=3.384000m/h.</desc>
<speed>0.940000</speed>
</trkpt>
<trkpt lat="42.886204" lon="19.668392">
<ele>1969.704102</ele>
<time>2012-04-30T16:30:55Z</time>
<desc>lat.=42.886204, lon.=19.668392, Alt.=1969.704102m. Speed=0.900000m/h.</desc>
<speed>0.250000</speed>
</trkpt>
<trkpt lat="42.886196" lon="19.668385">
<ele>1969.610352</ele>
<time>2012-04-30T16:31:00Z</time>
<desc>lat.=42.886196, lon.=19.668385, Alt.=1969.610352m. Speed=0.000000m/h.</desc>
<speed>0.000000</speed>
</trkpt>
<trkpt lat="42.886196" lon="19.668379">
<ele>1969.641602</ele>
<time>2012-04-30T16:31:05Z</time>
<desc>lat.=42.886196, lon.=19.668379, Alt.=1969.641602m. Speed=0.432000m/h.</desc>
<speed>0.120000</speed>
</trkpt>
<trkpt lat="42.886200" lon="19.668375">
<ele>1969.672852</ele>
<time>2012-04-30T16:31:10Z</time>
<desc>lat.=42.886200, lon.=19.668375, Alt.=1969.672852m. Speed=0.792000m/h.</desc>
<speed>0.220000</speed>
</trkpt>
<trkpt lat="42.886204" lon="19.668362">
<ele>1969.704102</ele>
<time>2012-04-30T16:31:15Z</time>
<desc>lat.=42.886204, lon.=19.668362, Alt.=1969.704102m. Speed=1.152000m/h.</desc>
<speed>0.320000</speed>
</trkpt>
<trkpt lat="42.886204" lon="19.668356">
<ele>1969.110352</ele>
<time>2012-04-30T16:31:20Z</time>
<desc>lat.=42.886204, lon.=19.668356, Alt.=1969.110352m. Speed=0.612000m/h.</desc>
<speed>0.170000</speed>
</trkpt>
<trkpt lat="42.886208" lon="19.668350">
<ele>1969.079102</ele>
<time>2012-04-30T16:31:25Z</time>
<desc>lat.=42.886208, lon.=19.668350, Alt.=1969.079102m. Speed=0.216000m/h.</desc>
<speed>0.060000</speed>
</trkpt>
<trkpt lat="42.886211" lon="19.668350">
<ele>1969.079102</ele>
<time>2012-04-30T16:31:30Z</time>
<desc>lat.=42.886211, lon.=19.668350, Alt.=1969.079102m. Speed=0.000000m/h.</desc>
<speed>0.000000</speed>
</trkpt>
<trkpt lat="42.886211" lon="19.668350">
<ele>1969.047852</ele>
<time>2012-04-30T16:31:35Z</time>
<desc>lat.=42.886211, lon.=19.668350, Alt.=1969.047852m. Speed=0.036000m/h.</desc>
<speed>0.010000</speed>
</trkpt>
<trkpt lat="42.886211" lon="19.668350">
<ele>1969.047852</ele>
<time>2012-04-30T16:31:40Z</time>
<desc>lat.=42.886211, lon.=19.668350, Alt.=1969.047852m. Speed=0.072000m/h.</desc>
<speed>0.020000</speed>
</trkpt>
<trkpt lat="42.886211" lon="19.668350">
<ele>1969.047852</ele>
<time>2012-04-30T16:31:45Z</time>
<desc>lat.=42.886211, lon.=19.668350, Alt.=1969.047852m. Speed=0.108000m/h.</desc>
<speed>0.030000</speed>
</trkpt>
<trkpt lat="42.886211" lon="19.668350">
<ele>1968.985352</ele>
<time>2012-04-30T16:31:50Z</time>
<desc>lat.=42.886211, lon.=19.668350, Alt.=1968.985352m. Speed=0.108000m/h.</desc>
<speed>0.030000</speed>
</trkpt>
<trkpt lat="42.886211" lon="19.668352">
<ele>1968.954102</ele>
<time>2012-04-30T16:31:55Z</time>
<desc>lat.=42.886211, lon.=19.668352, Alt.=1968.954102m. Speed=0.036000m/h.</desc>
<speed>0.010000</speed>
</trkpt>
<trkpt lat="42.886211" lon="19.668352">
<ele>1968.985352</ele>
<time>2012-04-30T16:32:00Z</time>
<desc>lat.=42.886211, lon.=19.668352, Alt.=1968.985352m. Speed=0.072000m/h.</desc>
<speed>0.020000</speed>
</trkpt>
<trkpt lat="42.886211" lon="19.668352">
<ele>1968.985352</ele>
<time>2012-04-30T16:32:05Z</time>
<desc>lat.=42.886211, lon.=19.668352, Alt.=1968.985352m. Speed=0.000000m/h.</desc>
<speed>0.000000</speed>
</trkpt>
<trkpt lat="42.886211" lon="19.668352">
<ele>1968.954102</ele>
<time>2012-04-30T16:32:10Z</time>
<desc>lat.=42.886211, lon.=19.668352, Alt.=1968.954102m. Speed=0.000000m/h.</desc>
<speed>0.000000</speed>
</trkpt>
<trkpt lat="42.886211" lon="19.668352">
<ele>1968.922852</ele>
<time>2012-04-30T16:32:15Z</time>
<desc>lat.=42.886211, lon.=19.668352, Alt.=1968.922852m. Speed=0.000000m/h.</desc>
<speed>0.000000</speed>
</trkpt>
<trkpt lat="42.886211" lon="19.668352">
<ele>1968.922852</ele>
<time>2012-04-30T16:32:20Z</time>
<desc>lat.=42.886211, lon.=19.668352, Alt.=1968.922852m. Speed=0.036000m/h.</desc>
<speed>0.010000</speed>
</trkpt>
<trkpt lat="42.886211" lon="19.668352">
<ele>1968.922852</ele>
<time>2012-04-30T16:32:25Z</time>
<desc>lat.=42.886211, lon.=19.668352, Alt.=1968.922852m. Speed=0.036000m/h.</desc>
<speed>0.010000</speed>
</trkpt>
<trkpt lat="42.886211" lon="19.668352">
<ele>1968.891602</ele>
<time>2012-04-30T16:32:30Z</time>
<desc>lat.=42.886211, lon.=19.668352, Alt.=1968.891602m. Speed=0.036000m/h.</desc>
<speed>0.010000</speed>
</trkpt>
<trkpt lat="42.886211" lon="19.668352">
<ele>1968.922852</ele>
<time>2012-04-30T16:32:35Z</time>
<desc>lat.=42.886211, lon.=19.668352, Alt.=1968.922852m. Speed=0.360000m/h.</desc>
<speed>0.100000</speed>
</trkpt>
<trkpt lat="42.886211" lon="19.668352">
<ele>1968.891602</ele>
<time>2012-04-30T16:32:40Z</time>
<desc>lat.=42.886211, lon.=19.668352, Alt.=1968.891602m. Speed=0.180000m/h.</desc>
<speed>0.050000</speed>
</trkpt>
<trkpt lat="42.886211" lon="19.668352">
<ele>1968.891602</ele>
<time>2012-04-30T16:32:45Z</time>
<desc>lat.=42.886211, lon.=19.668352, Alt.=1968.891602m. Speed=0.000000m/h.</desc>
<speed>0.000000</speed>
</trkpt>
<trkpt lat="42.886211" lon="19.668352">
<ele>1968.891602</ele>
<time>2012-04-30T16:32:50Z</time>
<desc>lat.=42.886211, lon.=19.668352, Alt.=1968.891602m. Speed=0.000000m/h.</desc>
<speed>0.000000</speed>
</trkpt>
<trkpt lat="42.886211" lon="19.668352">
<ele>1968.891602</ele>
<time>2012-04-30T16:32:55Z</time>
<desc>lat.=42.886211, lon.=19.668352, Alt.=1968.891602m. Speed=0.036000m/h.</desc>
<speed>0.010000</speed>
</trkpt>
<trkpt lat="42.886211" lon="19.668352">
<ele>1968.797852</ele>
<time>2012-04-30T16:33:00Z</time>
<desc>lat.=42.886211, lon.=19.668352, Alt.=1968.797852m. Speed=0.000000m/h.</desc>
<speed>0.000000</speed>
</trkpt>
<trkpt lat="42.886215" lon="19.668352">
<ele>1968.766602</ele>
<time>2012-04-30T16:33:05Z</time>
<desc>lat.=42.886215, lon.=19.668352, Alt.=1968.766602m. Speed=0.000000m/h.</desc>
<speed>0.000000</speed>
</trkpt>
<trkpt lat="42.886215" lon="19.668352">
<ele>1968.735352</ele>
<time>2012-04-30T16:33:10Z</time>
<desc>lat.=42.886215, lon.=19.668352, Alt.=1968.735352m. Speed=0.036000m/h.</desc>
<speed>0.010000</speed>
</trkpt>
<trkpt lat="42.886215" lon="19.668352">
<ele>1968.704102</ele>
<time>2012-04-30T16:33:15Z</time>
<desc>lat.=42.886215, lon.=19.668352, Alt.=1968.704102m. Speed=0.000000m/h.</desc>
<speed>0.000000</speed>
</trkpt>
<trkpt lat="42.886215" lon="19.668352">
<ele>1968.704102</ele>
<time>2012-04-30T16:33:20Z</time>
<desc>lat.=42.886215, lon.=19.668352, Alt.=1968.704102m. Speed=0.000000m/h.</desc>
<speed>0.000000</speed>
</trkpt>
<trkpt lat="42.886215" lon="19.668352">
<ele>1968.672852</ele>
<time>2012-04-30T16:33:25Z</time>
<desc>lat.=42.886215, lon.=19.668352, Alt.=1968.672852m. Speed=0.000000m/h.</desc>
<speed>0.000000</speed>
</trkpt>
<trkpt lat="42.886215" lon="19.668352">
<ele>1968.672852</ele>
<time>2012-04-30T16:33:30Z</time>
<desc>lat.=42.886215, lon.=19.668352, Alt.=1968.672852m. Speed=0.000000m/h.</desc>
<speed>0.000000</speed>
</trkpt>
<trkpt lat="42.886208" lon="19.668360">
<ele>1968.579102</ele>
<time>2012-04-30T16:33:35Z</time>
<desc>lat.=42.886208, lon.=19.668360, Alt.=1968.579102m. Speed=3.528000m/h.</desc>
<speed>0.980000</speed>
</trkpt>
<trkpt lat="42.886169" lon="19.668360">
<ele>1968.422852</ele>
<time>2012-04-30T16:33:40Z</time>
<desc>lat.=42.886169, lon.=19.668360, Alt.=1968.422852m. Speed=4.824000m/h.</desc>
<speed>1.340000</speed>
</trkpt>
<trkpt lat="42.886120" lon="19.668362">
<ele>1968.860352</ele>
<time>2012-04-30T16:33:45Z</time>
<desc>lat.=42.886120, lon.=19.668362, Alt.=1968.860352m. Speed=5.076000m/h.</desc>
<speed>1.410000</speed>
</trkpt>
<trkpt lat="42.886059" lon="19.668367">
<ele>1968.766602</ele>
<time>2012-04-30T16:33:50Z</time>
<desc>lat.=42.886059, lon.=19.668367, Alt.=1968.766602m. Speed=5.688000m/h.</desc>
<speed>1.580000</speed>
</trkpt>
<trkpt lat="42.886013" lon="19.668394">
<ele>1968.672852</ele>
<time>2012-04-30T16:33:55Z</time>
<desc>lat.=42.886013, lon.=19.668394, Alt.=1968.672852m. Speed=2.916000m/h.</desc>
<speed>0.810000</speed>
</trkpt>
<trkpt lat="42.885979" lon="19.668438">
<ele>1968.297852</ele>
<time>2012-04-30T16:34:00Z</time>
<desc>lat.=42.885979, lon.=19.668438, Alt.=1968.297852m. Speed=4.032000m/h.</desc>
<speed>1.120000</speed>
</trkpt>
<trkpt lat="42.885948" lon="19.668491">
<ele>1968.329102</ele>
<time>2012-04-30T16:34:05Z</time>
<desc>lat.=42.885948, lon.=19.668491, Alt.=1968.329102m. Speed=4.212000m/h.</desc>
<speed>1.170000</speed>
</trkpt>
<trkpt lat="42.885921" lon="19.668547">
<ele>1967.829102</ele>
<time>2012-04-30T16:34:10Z</time>
<desc>lat.=42.885921, lon.=19.668547, Alt.=1967.829102m. Speed=3.204000m/h.</desc>
<speed>0.890000</speed>
</trkpt>
<trkpt lat="42.885883" lon="19.668579">
<ele>1968.422852</ele>
<time>2012-04-30T16:34:15Z</time>
<desc>lat.=42.885883, lon.=19.668579, Alt.=1968.422852m. Speed=3.996000m/h.</desc>
<speed>1.110000</speed>
</trkpt>
<trkpt lat="42.885845" lon="19.668598">
<ele>1969.422852</ele>
<time>2012-04-30T16:34:20Z</time>
<desc>lat.=42.885845, lon.=19.668598, Alt.=1969.422852m. Speed=3.492000m/h.</desc>
<speed>0.970000</speed>
</trkpt>
<trkpt lat="42.885799" lon="19.668627">
<ele>1970.579102</ele>
<time>2012-04-30T16:34:25Z</time>
<desc>lat.=42.885799, lon.=19.668627, Alt.=1970.579102m. Speed=4.968000m/h.</desc>
<speed>1.380000</speed>
</trkpt>
<trkpt lat="42.885750" lon="19.668657">
<ele>1970.704102</ele>
<time>2012-04-30T16:34:30Z</time>
<desc>lat.=42.885750, lon.=19.668657, Alt.=1970.704102m. Speed=4.392000m/h.</desc>
<speed>1.220000</speed>
</trkpt>
<trkpt lat="42.885708" lon="19.668694">
<ele>1970.954102</ele>
<time>2012-04-30T16:34:35Z</time>
<desc>lat.=42.885708, lon.=19.668694, Alt.=1970.954102m. Speed=3.420000m/h.</desc>
<speed>0.950000</speed>
</trkpt>
<trkpt lat="42.885666" lon="19.668739">
<ele>1972.485352</ele>
<time>2012-04-30T16:34:40Z</time>
<desc>lat.=42.885666, lon.=19.668739, Alt.=1972.485352m. Speed=3.636000m/h.</desc>
<speed>1.010000</speed>
</trkpt>
<trkpt lat="42.885639" lon="19.668783">
<ele>1973.516602</ele>
<time>2012-04-30T16:34:45Z</time>
<desc>lat.=42.885639, lon.=19.668783, Alt.=1973.516602m. Speed=3.888000m/h.</desc>
<speed>1.080000</speed>
</trkpt>
<trkpt lat="42.885612" lon="19.668840">
<ele>1973.891602</ele>
<time>2012-04-30T16:34:50Z</time>
<desc>lat.=42.885612, lon.=19.668840, Alt.=1973.891602m. Speed=3.924000m/h.</desc>
<speed>1.090000</speed>
</trkpt>
<trkpt lat="42.885605" lon="19.668915">
<ele>1973.766602</ele>
<time>2012-04-30T16:34:55Z</time>
<desc>lat.=42.885605, lon.=19.668915, Alt.=1973.766602m. Speed=3.564000m/h.</desc>
<speed>0.990000</speed>
</trkpt>
<trkpt lat="42.885590" lon="19.668989">
<ele>1973.829102</ele>
<time>2012-04-30T16:35:00Z</time>
<desc>lat.=42.885590, lon.=19.668989, Alt.=1973.829102m. Speed=3.636000m/h.</desc>
<speed>1.010000</speed>
</trkpt>
<trkpt lat="42.885586" lon="19.669060">
<ele>1974.047852</ele>
<time>2012-04-30T16:35:05Z</time>
<desc>lat.=42.885586, lon.=19.669060, Alt.=1974.047852m. Speed=4.356000m/h.</desc>
<speed>1.210000</speed>
</trkpt>
<trkpt lat="42.885574" lon="19.669130">
<ele>1974.016602</ele>
<time>2012-04-30T16:35:10Z</time>
<desc>lat.=42.885574, lon.=19.669130, Alt.=1974.016602m. Speed=4.500000m/h.</desc>
<speed>1.250000</speed>
</trkpt>
<trkpt lat="42.885555" lon="19.669203">
<ele>1974.454102</ele>
<time>2012-04-30T16:35:15Z</time>
<desc>lat.=42.885555, lon.=19.669203, Alt.=1974.454102m. Speed=5.544000m/h.</desc>
<speed>1.540000</speed>
</trkpt>
<trkpt lat="42.885540" lon="19.669277">
<ele>1974.297852</ele>
<time>2012-04-30T16:35:20Z</time>
<desc>lat.=42.885540, lon.=19.669277, Alt.=1974.297852m. Speed=4.680000m/h.</desc>
<speed>1.300000</speed>
</trkpt>
<trkpt lat="42.885525" lon="19.669355">
<ele>1973.922852</ele>
<time>2012-04-30T16:35:25Z</time>
<desc>lat.=42.885525, lon.=19.669355, Alt.=1973.922852m. Speed=5.148000m/h.</desc>
<speed>1.430000</speed>
</trkpt>
<trkpt lat="42.885509" lon="19.669447">
<ele>1973.704102</ele>
<time>2012-04-30T16:35:30Z</time>
<desc>lat.=42.885509, lon.=19.669447, Alt.=1973.704102m. Speed=4.788000m/h.</desc>
<speed>1.330000</speed>
</trkpt>
<trkpt lat="42.885490" lon="19.669527">
<ele>1972.985352</ele>
<time>2012-04-30T16:35:35Z</time>
<desc>lat.=42.885490, lon.=19.669527, Alt.=1972.985352m. Speed=5.184000m/h.</desc>
<speed>1.440000</speed>
</trkpt>
<trkpt lat="42.885475" lon="19.669605">
<ele>1972.516602</ele>
<time>2012-04-30T16:35:40Z</time>
<desc>lat.=42.885475, lon.=19.669605, Alt.=1972.516602m. Speed=3.780000m/h.</desc>
<speed>1.050000</speed>
</trkpt>
<trkpt lat="42.885464" lon="19.669674">
<ele>1971.141602</ele>
<time>2012-04-30T16:35:45Z</time>
<desc>lat.=42.885464, lon.=19.669674, Alt.=1971.141602m. Speed=5.976000m/h.</desc>
<speed>1.660000</speed>
</trkpt>
<trkpt lat="42.885456" lon="19.669708">
<ele>1970.547852</ele>
<time>2012-04-30T16:35:50Z</time>
<desc>lat.=42.885456, lon.=19.669708, Alt.=1970.547852m. Speed=1.692000m/h.</desc>
<speed>0.470000</speed>
</trkpt>
<trkpt lat="42.885452" lon="19.669764">
<ele>1969.704102</ele>
<time>2012-04-30T16:35:55Z</time>
<desc>lat.=42.885452, lon.=19.669764, Alt.=1969.704102m. Speed=4.932000m/h.</desc>
<speed>1.370000</speed>
</trkpt>
<trkpt lat="42.885468" lon="19.669823">
<ele>1968.516602</ele>
<time>2012-04-30T16:36:00Z</time>
<desc>lat.=42.885468, lon.=19.669823, Alt.=1968.516602m. Speed=2.160000m/h.</desc>
<speed>0.600000</speed>
</trkpt>
<trkpt lat="42.885479" lon="19.669897">
<ele>1966.860352</ele>
<time>2012-04-30T16:36:05Z</time>
<desc>lat.=42.885479, lon.=19.669897, Alt.=1966.860352m. Speed=2.808000m/h.</desc>
<speed>0.780000</speed>
</trkpt>
<trkpt lat="42.885475" lon="19.669950">
<ele>1965.891602</ele>
<time>2012-04-30T16:36:10Z</time>
<desc>lat.=42.885475, lon.=19.669950, Alt.=1965.891602m. Speed=1.476000m/h.</desc>
<speed>0.410000</speed>
</trkpt>
<trkpt lat="42.885475" lon="19.669958">
<ele>1965.297852</ele>
<time>2012-04-30T16:36:15Z</time>
<desc>lat.=42.885475, lon.=19.669958, Alt.=1965.297852m. Speed=0.000000m/h.</desc>
<speed>0.000000</speed>
</trkpt>
<trkpt lat="42.885475" lon="19.669960">
<ele>1965.297852</ele>
<time>2012-04-30T16:36:20Z</time>
<desc>lat.=42.885475, lon.=19.669960, Alt.=1965.297852m. Speed=0.072000m/h.</desc>
<speed>0.020000</speed>
</trkpt>
<trkpt lat="42.885471" lon="19.669962">
<ele>1965.297852</ele>
<time>2012-04-30T16:36:25Z</time>
<desc>lat.=42.885471, lon.=19.669962, Alt.=1965.297852m. Speed=0.396000m/h.</desc>
<speed>0.110000</speed>
</trkpt>
<trkpt lat="42.885468" lon="19.669985">
<ele>1964.954102</ele>
<time>2012-04-30T16:36:30Z</time>
<desc>lat.=42.885468, lon.=19.669985, Alt.=1964.954102m. Speed=1.908000m/h.</desc>
<speed>0.530000</speed>
</trkpt>
<trkpt lat="42.885460" lon="19.669996">
<ele>1964.891602</ele>
<time>2012-04-30T16:36:35Z</time>
<desc>lat.=42.885460, lon.=19.669996, Alt.=1964.891602m. Speed=1.296000m/h.</desc>
<speed>0.360000</speed>
</trkpt>
<trkpt lat="42.885452" lon="19.670006">
<ele>1964.954102</ele>
<time>2012-04-30T16:36:40Z</time>
<desc>lat.=42.885452, lon.=19.670006, Alt.=1964.954102m. Speed=1.548000m/h.</desc>
<speed>0.430000</speed>
</trkpt>
<trkpt lat="42.885441" lon="19.670015">
<ele>1965.454102</ele>
<time>2012-04-30T16:36:45Z</time>
<desc>lat.=42.885441, lon.=19.670015, Alt.=1965.454102m. Speed=1.188000m/h.</desc>
<speed>0.330000</speed>
</trkpt>
<trkpt lat="42.885437" lon="19.670021">
<ele>1965.797852</ele>
<time>2012-04-30T16:36:50Z</time>
<desc>lat.=42.885437, lon.=19.670021, Alt.=1965.797852m. Speed=0.072000m/h.</desc>
<speed>0.020000</speed>
</trkpt>
<trkpt lat="42.885422" lon="19.670023">
<ele>1966.391602</ele>
<time>2012-04-30T16:36:55Z</time>
<desc>lat.=42.885422, lon.=19.670023, Alt.=1966.391602m. Speed=1.368000m/h.</desc>
<speed>0.380000</speed>
</trkpt>
<trkpt lat="42.885403" lon="19.670031">
<ele>1967.704102</ele>
<time>2012-04-30T16:37:00Z</time>
<desc>lat.=42.885403, lon.=19.670031, Alt.=1967.704102m. Speed=0.252000m/h.</desc>
<speed>0.070000</speed>
</trkpt>
<trkpt lat="42.885380" lon="19.670040">
<ele>1968.547852</ele>
<time>2012-04-30T16:37:05Z</time>
<desc>lat.=42.885380, lon.=19.670040, Alt.=1968.547852m. Speed=2.700000m/h.</desc>
<speed>0.750000</speed>
</trkpt>
<trkpt lat="42.885349" lon="19.670063">
<ele>1969.016602</ele>
<time>2012-04-30T16:37:10Z</time>
<desc>lat.=42.885349, lon.=19.670063, Alt.=1969.016602m. Speed=3.456000m/h.</desc>
<speed>0.960000</speed>
</trkpt>
<trkpt lat="42.885342" lon="19.670086">
<ele>1968.110352</ele>
<time>2012-04-30T16:37:15Z</time>
<desc>lat.=42.885342, lon.=19.670086, Alt.=1968.110352m. Speed=1.152000m/h.</desc>
<speed>0.320000</speed>
</trkpt>
<trkpt lat="42.885353" lon="19.670126">
<ele>1965.516602</ele>
<time>2012-04-30T16:37:20Z</time>
<desc>lat.=42.885353, lon.=19.670126, Alt.=1965.516602m. Speed=3.132000m/h.</desc>
<speed>0.870000</speed>
</trkpt>
<trkpt lat="42.885330" lon="19.670156">
<ele>1965.235352</ele>
<time>2012-04-30T16:37:25Z</time>
<desc>lat.=42.885330, lon.=19.670156, Alt.=1965.235352m. Speed=2.160000m/h.</desc>
<speed>0.600000</speed>
</trkpt>
<trkpt lat="42.885307" lon="19.670189">
<ele>1964.766602</ele>
<time>2012-04-30T16:37:30Z</time>
<desc>lat.=42.885307, lon.=19.670189, Alt.=1964.766602m. Speed=1.728000m/h.</desc>
<speed>0.480000</speed>
</trkpt>
<trkpt lat="42.885284" lon="19.670219">
<ele>1964.485352</ele>
<time>2012-04-30T16:37:35Z</time>
<desc>lat.=42.885284, lon.=19.670219, Alt.=1964.485352m. Speed=2.844000m/h.</desc>
<speed>0.790000</speed>
</trkpt>
<trkpt lat="42.885262" lon="19.670280">
<ele>1964.016602</ele>
<time>2012-04-30T16:37:40Z</time>
<desc>lat.=42.885262, lon.=19.670280, Alt.=1964.016602m. Speed=3.780000m/h.</desc>
<speed>1.050000</speed>
</trkpt>
<trkpt lat="42.885258" lon="19.670326">
<ele>1962.985352</ele>
<time>2012-04-30T16:37:45Z</time>
<desc>lat.=42.885258, lon.=19.670326, Alt.=1962.985352m. Speed=3.168000m/h.</desc>
<speed>0.880000</speed>
</trkpt>
<trkpt lat="42.885250" lon="19.670364">
<ele>1961.735352</ele>
<time>2012-04-30T16:37:50Z</time>
<desc>lat.=42.885250, lon.=19.670364, Alt.=1961.735352m. Speed=1.836000m/h.</desc>
<speed>0.510000</speed>
</trkpt>
<trkpt lat="42.885246" lon="19.670401">
<ele>1960.579102</ele>
<time>2012-04-30T16:37:55Z</time>
<desc>lat.=42.885246, lon.=19.670401, Alt.=1960.579102m. Speed=1.188000m/h.</desc>
<speed>0.330000</speed>
</trkpt>
<trkpt lat="42.885242" lon="19.670425">
<ele>1960.391602</ele>
<time>2012-04-30T16:38:00Z</time>
<desc>lat.=42.885242, lon.=19.670425, Alt.=1960.391602m. Speed=1.332000m/h.</desc>
<speed>0.370000</speed>
</trkpt>
<trkpt lat="42.885242" lon="19.670446">
<ele>1959.610352</ele>
<time>2012-04-30T16:38:05Z</time>
<desc>lat.=42.885242, lon.=19.670446, Alt.=1959.610352m. Speed=1.332000m/h.</desc>
<speed>0.370000</speed>
</trkpt>
<trkpt lat="42.885246" lon="19.670473">
<ele>1958.797852</ele>
<time>2012-04-30T16:38:10Z</time>
<desc>lat.=42.885246, lon.=19.670473, Alt.=1958.797852m. Speed=0.144000m/h.</desc>
<speed>0.040000</speed>
</trkpt>
<trkpt lat="42.885235" lon="19.670486">
<ele>1959.454102</ele>
<time>2012-04-30T16:38:15Z</time>
<desc>lat.=42.885235, lon.=19.670486, Alt.=1959.454102m. Speed=1.296000m/h.</desc>
<speed>0.360000</speed>
</trkpt>
<trkpt lat="42.885220" lon="19.670519">
<ele>1957.922852</ele>
<time>2012-04-30T16:38:20Z</time>
<desc>lat.=42.885220, lon.=19.670519, Alt.=1957.922852m. Speed=0.612000m/h.</desc>
<speed>0.170000</speed>
</trkpt>
<trkpt lat="42.885212" lon="19.670549">
<ele>1956.735352</ele>
<time>2012-04-30T16:38:25Z</time>
<desc>lat.=42.885212, lon.=19.670549, Alt.=1956.735352m. Speed=1.476000m/h.</desc>
<speed>0.410000</speed>
</trkpt>
<trkpt lat="42.885208" lon="19.670574">
<ele>1955.891602</ele>
<time>2012-04-30T16:38:30Z</time>
<desc>lat.=42.885208, lon.=19.670574, Alt.=1955.891602m. Speed=1.044000m/h.</desc>
<speed>0.290000</speed>
</trkpt>
<trkpt lat="42.885197" lon="19.670584">
<ele>1956.141602</ele>
<time>2012-04-30T16:38:35Z</time>
<desc>lat.=42.885197, lon.=19.670584, Alt.=1956.141602m. Speed=1.620000m/h.</desc>
<speed>0.450000</speed>
</trkpt>
<trkpt lat="42.885201" lon="19.670614">
<ele>1954.829102</ele>
<time>2012-04-30T16:38:40Z</time>
<desc>lat.=42.885201, lon.=19.670614, Alt.=1954.829102m. Speed=1.836000m/h.</desc>
<speed>0.510000</speed>
</trkpt>
<trkpt lat="42.885193" lon="19.670630">
<ele>1953.516602</ele>
<time>2012-04-30T16:38:45Z</time>
<desc>lat.=42.885193, lon.=19.670630, Alt.=1953.516602m. Speed=0.072000m/h.</desc>
<speed>0.020000</speed>
</trkpt>
<trkpt lat="42.885193" lon="19.670639">
<ele>1952.922852</ele>
<time>2012-04-30T16:38:50Z</time>
<desc>lat.=42.885193, lon.=19.670639, Alt.=1952.922852m. Speed=0.288000m/h.</desc>
<speed>0.080000</speed>
</trkpt>
<trkpt lat="42.885189" lon="19.670645">
<ele>1952.235352</ele>
<time>2012-04-30T16:38:55Z</time>
<desc>lat.=42.885189, lon.=19.670645, Alt.=1952.235352m. Speed=0.108000m/h.</desc>
<speed>0.030000</speed>
</trkpt>
<trkpt lat="42.885197" lon="19.670670">
<ele>1950.891602</ele>
<time>2012-04-30T16:39:00Z</time>
<desc>lat.=42.885197, lon.=19.670670, Alt.=1950.891602m. Speed=2.628000m/h.</desc>
<speed>0.730000</speed>
</trkpt>
<trkpt lat="42.885197" lon="19.670681">
<ele>1949.829102</ele>
<time>2012-04-30T16:39:05Z</time>
<desc>lat.=42.885197, lon.=19.670681, Alt.=1949.829102m. Speed=0.072000m/h.</desc>
<speed>0.020000</speed>
</trkpt>
<trkpt lat="42.885193" lon="19.670691">
<ele>1949.266602</ele>
<time>2012-04-30T16:39:10Z</time>
<desc>lat.=42.885193, lon.=19.670691, Alt.=1949.266602m. Speed=0.540000m/h.</desc>
<speed>0.150000</speed>
</trkpt>
<trkpt lat="42.885189" lon="19.670700">
<ele>1948.829102</ele>
<time>2012-04-30T16:39:15Z</time>
<desc>lat.=42.885189, lon.=19.670700, Alt.=1948.829102m. Speed=1.188000m/h.</desc>
<speed>0.330000</speed>
</trkpt>
<trkpt lat="42.885185" lon="19.670708">
<ele>1948.485352</ele>
<time>2012-04-30T16:39:20Z</time>
<desc>lat.=42.885185, lon.=19.670708, Alt.=1948.485352m. Speed=0.612000m/h.</desc>
<speed>0.170000</speed>
</trkpt>
<trkpt lat="42.885185" lon="19.670715">
<ele>1948.016602</ele>
<time>2012-04-30T16:39:25Z</time>
<desc>lat.=42.885185, lon.=19.670715, Alt.=1948.016602m. Speed=0.144000m/h.</desc>
<speed>0.040000</speed>
</trkpt>
<trkpt lat="42.885178" lon="19.670729">
<ele>1947.797852</ele>
<time>2012-04-30T16:39:30Z</time>
<desc>lat.=42.885178, lon.=19.670729, Alt.=1947.797852m. Speed=0.828000m/h.</desc>
<speed>0.230000</speed>
</trkpt>
<trkpt lat="42.885170" lon="19.670744">
<ele>1947.235352</ele>
<time>2012-04-30T16:39:35Z</time>
<desc>lat.=42.885170, lon.=19.670744, Alt.=1947.235352m. Speed=1.044000m/h.</desc>
<speed>0.290000</speed>
</trkpt>
<trkpt lat="42.885162" lon="19.670753">
<ele>1946.954102</ele>
<time>2012-04-30T16:39:40Z</time>
<desc>lat.=42.885162, lon.=19.670753, Alt.=1946.954102m. Speed=1.368000m/h.</desc>
<speed>0.380000</speed>
</trkpt>
<trkpt lat="42.885151" lon="19.670763">
<ele>1945.860352</ele>
<time>2012-04-30T16:39:45Z</time>
<desc>lat.=42.885151, lon.=19.670763, Alt.=1945.860352m. Speed=1.080000m/h.</desc>
<speed>0.300000</speed>
</trkpt>
<trkpt lat="42.885139" lon="19.670773">
<ele>1945.579102</ele>
<time>2012-04-30T16:39:50Z</time>
<desc>lat.=42.885139, lon.=19.670773, Alt.=1945.579102m. Speed=1.188000m/h.</desc>
<speed>0.330000</speed>
</trkpt>
<trkpt lat="42.885147" lon="19.670795">
<ele>1944.079102</ele>
<time>2012-04-30T16:39:55Z</time>
<desc>lat.=42.885147, lon.=19.670795, Alt.=1944.079102m. Speed=1.908000m/h.</desc>
<speed>0.530000</speed>
</trkpt>
<trkpt lat="42.885147" lon="19.670818">
<ele>1942.860352</ele>
<time>2012-04-30T16:40:00Z</time>
<desc>lat.=42.885147, lon.=19.670818, Alt.=1942.860352m. Speed=1.116000m/h.</desc>
<speed>0.310000</speed>
</trkpt>
<trkpt lat="42.885139" lon="19.670843">
<ele>1941.891602</ele>
<time>2012-04-30T16:40:05Z</time>
<desc>lat.=42.885139, lon.=19.670843, Alt.=1941.891602m. Speed=1.368000m/h.</desc>
<speed>0.380000</speed>
</trkpt>
<trkpt lat="42.885147" lon="19.670879">
<ele>1939.329102</ele>
<time>2012-04-30T16:40:10Z</time>
<desc>lat.=42.885147, lon.=19.670879, Alt.=1939.329102m. Speed=1.368000m/h.</desc>
<speed>0.380000</speed>
</trkpt>
<trkpt lat="42.885136" lon="19.670891">
<ele>1939.047852</ele>
<time>2012-04-30T16:40:15Z</time>
<desc>lat.=42.885136, lon.=19.670891, Alt.=1939.047852m. Speed=1.584000m/h.</desc>
<speed>0.440000</speed>
</trkpt>
<trkpt lat="42.885128" lon="19.670904">
<ele>1938.172852</ele>
<time>2012-04-30T16:40:20Z</time>
<desc>lat.=42.885128, lon.=19.670904, Alt.=1938.172852m. Speed=0.144000m/h.</desc>
<speed>0.040000</speed>
</trkpt>
<trkpt lat="42.885117" lon="19.670916">
<ele>1938.110352</ele>
<time>2012-04-30T16:40:25Z</time>
<desc>lat.=42.885117, lon.=19.670916, Alt.=1938.110352m. Speed=1.548000m/h.</desc>
<speed>0.430000</speed>
</trkpt>
<trkpt lat="42.885117" lon="19.670931">
<ele>1937.766602</ele>
<time>2012-04-30T16:40:30Z</time>
<desc>lat.=42.885117, lon.=19.670931, Alt.=1937.766602m. Speed=2.952000m/h.</desc>
<speed>0.820000</speed>
</trkpt>
<trkpt lat="42.885113" lon="19.670929">
<ele>1937.985352</ele>
<time>2012-04-30T16:40:35Z</time>
<desc>lat.=42.885113, lon.=19.670929, Alt.=1937.985352m. Speed=0.036000m/h.</desc>
<speed>0.010000</speed>
</trkpt>
<trkpt lat="42.885113" lon="19.670935">
<ele>1937.922852</ele>
<time>2012-04-30T16:40:40Z</time>
<desc>lat.=42.885113, lon.=19.670935, Alt.=1937.922852m. Speed=0.000000m/h.</desc>
<speed>0.000000</speed>
</trkpt>
<trkpt lat="42.885113" lon="19.670935">
<ele>1937.954102</ele>
<time>2012-04-30T16:40:45Z</time>
<desc>lat.=42.885113, lon.=19.670935, Alt.=1937.954102m. Speed=0.324000m/h.</desc>
<speed>0.090000</speed>
</trkpt>
<trkpt lat="42.885109" lon="19.670948">
<ele>1937.829102</ele>
<time>2012-04-30T16:40:50Z</time>
<desc>lat.=42.885109, lon.=19.670948, Alt.=1937.829102m. Speed=0.072000m/h.</desc>
<speed>0.020000</speed>
</trkpt>
<trkpt lat="42.885105" lon="19.670950">
<ele>1937.860352</ele>
<time>2012-04-30T16:40:55Z</time>
<desc>lat.=42.885105, lon.=19.670950, Alt.=1937.860352m. Speed=0.792000m/h.</desc>
<speed>0.220000</speed>
</trkpt>
<trkpt lat="42.885105" lon="19.670948">
<ele>1937.641602</ele>
<time>2012-04-30T16:41:00Z</time>
<desc>lat.=42.885105, lon.=19.670948, Alt.=1937.641602m. Speed=0.036000m/h.</desc>
<speed>0.010000</speed>
</trkpt>
<trkpt lat="42.885105" lon="19.670948">
<ele>1937.579102</ele>
<time>2012-04-30T16:41:05Z</time>
<desc>lat.=42.885105, lon.=19.670948, Alt.=1937.579102m. Speed=0.072000m/h.</desc>
<speed>0.020000</speed>
</trkpt>
<trkpt lat="42.885105" lon="19.670948">
<ele>1937.579102</ele>
<time>2012-04-30T16:41:10Z</time>
<desc>lat.=42.885105, lon.=19.670948, Alt.=1937.579102m. Speed=0.252000m/h.</desc>
<speed>0.070000</speed>
</trkpt>
<trkpt lat="42.885101" lon="19.670950">
<ele>1937.641602</ele>
<time>2012-04-30T16:41:15Z</time>
<desc>lat.=42.885101, lon.=19.670950, Alt.=1937.641602m. Speed=2.520000m/h.</desc>
<speed>0.700000</speed>
</trkpt>
<trkpt lat="42.885090" lon="19.670982">
<ele>1936.891602</ele>
<time>2012-04-30T16:41:20Z</time>
<desc>lat.=42.885090, lon.=19.670982, Alt.=1936.891602m. Speed=1.332000m/h.</desc>
<speed>0.370000</speed>
</trkpt>
<trkpt lat="42.885067" lon="19.671003">
<ele>1936.266602</ele>
<time>2012-04-30T16:41:25Z</time>
<desc>lat.=42.885067, lon.=19.671003, Alt.=1936.266602m. Speed=2.592000m/h.</desc>
<speed>0.720000</speed>
</trkpt>
<trkpt lat="42.885044" lon="19.671032">
<ele>1934.985352</ele>
<time>2012-04-30T16:41:30Z</time>
<desc>lat.=42.885044, lon.=19.671032, Alt.=1934.985352m. Speed=1.512000m/h.</desc>
<speed>0.420000</speed>
</trkpt>
<trkpt lat="42.885021" lon="19.671051">
<ele>1934.485352</ele>
<time>2012-04-30T16:41:35Z</time>
<desc>lat.=42.885021, lon.=19.671051, Alt.=1934.485352m. Speed=0.900000m/h.</desc>
<speed>0.250000</speed>
</trkpt>
<trkpt lat="42.885002" lon="19.671061">
<ele>1933.860352</ele>
<time>2012-04-30T16:41:40Z</time>
<desc>lat.=42.885002, lon.=19.671061, Alt.=1933.860352m. Speed=2.160000m/h.</desc>
<speed>0.600000</speed>
</trkpt>
<trkpt lat="42.884983" lon="19.671083">
<ele>1932.141602</ele>
<time>2012-04-30T16:41:45Z</time>
<desc>lat.=42.884983, lon.=19.671083, Alt.=1932.141602m. Speed=2.016000m/h.</desc>
<speed>0.560000</speed>
</trkpt>
<trkpt lat="42.884968" lon="19.671101">
<ele>1931.891602</ele>
<time>2012-04-30T16:41:50Z</time>
<desc>lat.=42.884968, lon.=19.671101, Alt.=1931.891602m. Speed=1.728000m/h.</desc>
<speed>0.480000</speed>
</trkpt>
<trkpt lat="42.884945" lon="19.671099">
<ele>1930.579102</ele>
<time>2012-04-30T16:41:55Z</time>
<desc>lat.=42.884945, lon.=19.671099, Alt.=1930.579102m. Speed=0.396000m/h.</desc>
<speed>0.110000</speed>
</trkpt>
<trkpt lat="42.884937" lon="19.671097">
<ele>1929.266602</ele>
<time>2012-04-30T16:42:00Z</time>
<desc>lat.=42.884937, lon.=19.671097, Alt.=1929.266602m. Speed=3.600000m/h.</desc>
<speed>1.000000</speed>
</trkpt>
<trkpt lat="42.884899" lon="19.671099">
<ele>1928.829102</ele>
<time>2012-04-30T16:42:05Z</time>
<desc>lat.=42.884899, lon.=19.671099, Alt.=1928.829102m. Speed=2.916000m/h.</desc>
<speed>0.810000</speed>
</trkpt>
<trkpt lat="42.884888" lon="19.671150">
<ele>1927.360352</ele>
<time>2012-04-30T16:42:10Z</time>
<desc>lat.=42.884888, lon.=19.671150, Alt.=1927.360352m. Speed=2.052000m/h.</desc>
<speed>0.570000</speed>
</trkpt>
<trkpt lat="42.884861" lon="19.671186">
<ele>1926.766602</ele>
<time>2012-04-30T16:42:15Z</time>
<desc>lat.=42.884861, lon.=19.671186, Alt.=1926.766602m. Speed=4.104000m/h.</desc>
<speed>1.140000</speed>
</trkpt>
<trkpt lat="42.884834" lon="19.671240">
<ele>1924.985352</ele>
<time>2012-04-30T16:42:20Z</time>
<desc>lat.=42.884834, lon.=19.671240, Alt.=1924.985352m. Speed=5.796000m/h.</desc>
<speed>1.610000</speed>
</trkpt>
<trkpt lat="42.884792" lon="19.671280">
<ele>1922.641602</ele>
<time>2012-04-30T16:42:25Z</time>
<desc>lat.=42.884792, lon.=19.671280, Alt.=1922.641602m. Speed=4.536000m/h.</desc>
<speed>1.260000</speed>
</trkpt>
<trkpt lat="42.884754" lon="19.671324">
<ele>1921.360352</ele>
<time>2012-04-30T16:42:30Z</time>
<desc>lat.=42.884754, lon.=19.671324, Alt.=1921.360352m. Speed=6.228000m/h.</desc>
<speed>1.730000</speed>
</trkpt>
<trkpt lat="42.884689" lon="19.671381">
<ele>1919.954102</ele>
<time>2012-04-30T16:42:35Z</time>
<desc>lat.=42.884689, lon.=19.671381, Alt.=1919.954102m. Speed=4.752000m/h.</desc>
<speed>1.320000</speed>
</trkpt>
<trkpt lat="42.884651" lon="19.671434">
<ele>1919.266602</ele>
<time>2012-04-30T16:42:40Z</time>
<desc>lat.=42.884651, lon.=19.671434, Alt.=1919.266602m. Speed=3.996000m/h.</desc>
<speed>1.110000</speed>
</trkpt>
<trkpt lat="42.884647" lon="19.671442">
<ele>1919.110352</ele>
<time>2012-04-30T16:42:45Z</time>
<desc>lat.=42.884647, lon.=19.671442, Alt.=1919.110352m. Speed=0.036000m/h.</desc>
<speed>0.010000</speed>
</trkpt>
<trkpt lat="42.884647" lon="19.671442">
<ele>1919.079102</ele>
<time>2012-04-30T16:42:50Z</time>
<desc>lat.=42.884647, lon.=19.671442, Alt.=1919.079102m. Speed=0.072000m/h.</desc>
<speed>0.020000</speed>
</trkpt>
<trkpt lat="42.884647" lon="19.671442">
<ele>1919.047852</ele>
<time>2012-04-30T16:42:55Z</time>
<desc>lat.=42.884647, lon.=19.671442, Alt.=1919.047852m. Speed=0.000000m/h.</desc>
<speed>0.000000</speed>
</trkpt>
<trkpt lat="42.884647" lon="19.671442">
<ele>1919.047852</ele>
<time>2012-04-30T16:43:00Z</time>
<desc>lat.=42.884647, lon.=19.671442, Alt.=1919.047852m. Speed=0.036000m/h.</desc>
<speed>0.010000</speed>
</trkpt>
<trkpt lat="42.884628" lon="19.671469">
<ele>1918.485352</ele>
<time>2012-04-30T16:43:05Z</time>
<desc>lat.=42.884628, lon.=19.671469, Alt.=1918.485352m. Speed=3.636000m/h.</desc>
<speed>1.010000</speed>
</trkpt>
<trkpt lat="42.884594" lon="19.671482">
<ele>1917.516602</ele>
<time>2012-04-30T16:43:10Z</time>
<desc>lat.=42.884594, lon.=19.671482, Alt.=1917.516602m. Speed=2.916000m/h.</desc>
<speed>0.810000</speed>
</trkpt>
<trkpt lat="42.884567" lon="19.671497">
<ele>1916.610352</ele>
<time>2012-04-30T16:43:15Z</time>
<desc>lat.=42.884567, lon.=19.671497, Alt.=1916.610352m. Speed=2.196000m/h.</desc>
<speed>0.610000</speed>
</trkpt>
<trkpt lat="42.884575" lon="19.671507">
<ele>1915.329102</ele>
<time>2012-04-30T16:43:20Z</time>
<desc>lat.=42.884575, lon.=19.671507, Alt.=1915.329102m. Speed=0.324000m/h.</desc>
<speed>0.090000</speed>
</trkpt>
<trkpt lat="42.884579" lon="19.671507">
<ele>1915.016602</ele>
<time>2012-04-30T16:43:25Z</time>
<desc>lat.=42.884579, lon.=19.671507, Alt.=1915.016602m. Speed=0.180000m/h.</desc>
<speed>0.050000</speed>
</trkpt>
<trkpt lat="42.884560" lon="19.671511">
<ele>1915.141602</ele>
<time>2012-04-30T16:43:30Z</time>
<desc>lat.=42.884560, lon.=19.671511, Alt.=1915.141602m. Speed=0.612000m/h.</desc>
<speed>0.170000</speed>
</trkpt>
<trkpt lat="42.884521" lon="19.671513">
<ele>1915.422852</ele>
<time>2012-04-30T16:43:35Z</time>
<desc>lat.=42.884521, lon.=19.671513, Alt.=1915.422852m. Speed=1.584000m/h.</desc>
<speed>0.440000</speed>
</trkpt>
<trkpt lat="42.884518" lon="19.671524">
<ele>1914.610352</ele>
<time>2012-04-30T16:43:40Z</time>
<desc>lat.=42.884518, lon.=19.671524, Alt.=1914.610352m. Speed=1.620000m/h.</desc>
<speed>0.450000</speed>
</trkpt>
<trkpt lat="42.884510" lon="19.671543">
<ele>1913.110352</ele>
<time>2012-04-30T16:43:45Z</time>
<desc>lat.=42.884510, lon.=19.671543, Alt.=1913.110352m. Speed=1.908000m/h.</desc>
<speed>0.530000</speed>
</trkpt>
<trkpt lat="42.884487" lon="19.671549">
<ele>1911.797852</ele>
<time>2012-04-30T16:43:50Z</time>
<desc>lat.=42.884487, lon.=19.671549, Alt.=1911.797852m. Speed=2.700000m/h.</desc>
<speed>0.750000</speed>
</trkpt>
<trkpt lat="42.884491" lon="19.671543">
<ele>1910.516602</ele>
<time>2012-04-30T16:43:55Z</time>
<desc>lat.=42.884491, lon.=19.671543, Alt.=1910.516602m. Speed=0.432000m/h.</desc>
<speed>0.120000</speed>
</trkpt>
<trkpt lat="42.884457" lon="19.671547">
<ele>1910.641602</ele>
<time>2012-04-30T16:44:00Z</time>
<desc>lat.=42.884457, lon.=19.671547, Alt.=1910.641602m. Speed=0.864000m/h.</desc>
<speed>0.240000</speed>
</trkpt>
<trkpt lat="42.884426" lon="19.671562">
<ele>1910.141602</ele>
<time>2012-04-30T16:44:05Z</time>
<desc>lat.=42.884426, lon.=19.671562, Alt.=1910.141602m. Speed=2.016000m/h.</desc>
<speed>0.560000</speed>
</trkpt>
<trkpt lat="42.884399" lon="19.671574">
<ele>1909.360352</ele>
<time>2012-04-30T16:44:10Z</time>
<desc>lat.=42.884399, lon.=19.671574, Alt.=1909.360352m. Speed=1.080000m/h.</desc>
<speed>0.300000</speed>
</trkpt>
<trkpt lat="42.884388" lon="19.671568">
<ele>1908.360352</ele>
<time>2012-04-30T16:44:15Z</time>
<desc>lat.=42.884388, lon.=19.671568, Alt.=1908.360352m. Speed=2.232000m/h.</desc>
<speed>0.620000</speed>
</trkpt>
<trkpt lat="42.884354" lon="19.671562">
<ele>1907.454102</ele>
<time>2012-04-30T16:44:20Z</time>
<desc>lat.=42.884354, lon.=19.671562, Alt.=1907.454102m. Speed=3.492000m/h.</desc>
<speed>0.970000</speed>
</trkpt>
<trkpt lat="42.884338" lon="19.671556">
<ele>1906.422852</ele>
<time>2012-04-30T16:44:25Z</time>
<desc>lat.=42.884338, lon.=19.671556, Alt.=1906.422852m. Speed=0.288000m/h.</desc>
<speed>0.080000</speed>
</trkpt>
<trkpt lat="42.884338" lon="19.671564">
<ele>1905.547852</ele>
<time>2012-04-30T16:44:30Z</time>
<desc>lat.=42.884338, lon.=19.671564, Alt.=1905.547852m. Speed=0.108000m/h.</desc>
<speed>0.030000</speed>
</trkpt>
<trkpt lat="42.884338" lon="19.671562">
<ele>1905.610352</ele>
<time>2012-04-30T16:44:35Z</time>
<desc>lat.=42.884338, lon.=19.671562, Alt.=1905.610352m. Speed=0.288000m/h.</desc>
<speed>0.080000</speed>
</trkpt>
<trkpt lat="42.884335" lon="19.671560">
<ele>1905.704102</ele>
<time>2012-04-30T16:44:40Z</time>
<desc>lat.=42.884335, lon.=19.671560, Alt.=1905.704102m. Speed=0.252000m/h.</desc>
<speed>0.070000</speed>
</trkpt>
<trkpt lat="42.884335" lon="19.671558">
<ele>1905.735352</ele>
<time>2012-04-30T16:44:45Z</time>
<desc>lat.=42.884335, lon.=19.671558, Alt.=1905.735352m. Speed=0.720000m/h.</desc>
<speed>0.200000</speed>
</trkpt>
<trkpt lat="42.884319" lon="19.671516">
<ele>1905.954102</ele>
<time>2012-04-30T16:44:50Z</time>
<desc>lat.=42.884319, lon.=19.671516, Alt.=1905.954102m. Speed=4.068000m/h.</desc>
<speed>1.130000</speed>
</trkpt>
<trkpt lat="42.884327" lon="19.671471">
<ele>1905.735352</ele>
<time>2012-04-30T16:44:55Z</time>
<desc>lat.=42.884327, lon.=19.671471, Alt.=1905.735352m. Speed=1.116000m/h.</desc>
<speed>0.310000</speed>
</trkpt>
<trkpt lat="42.884331" lon="19.671446">
<ele>1905.172852</ele>
<time>2012-04-30T16:45:00Z</time>
<desc>lat.=42.884331, lon.=19.671446, Alt.=1905.172852m. Speed=1.332000m/h.</desc>
<speed>0.370000</speed>
</trkpt>
<trkpt lat="42.884319" lon="19.671413">
<ele>1904.766602</ele>
<time>2012-04-30T16:45:05Z</time>
<desc>lat.=42.884319, lon.=19.671413, Alt.=1904.766602m. Speed=1.692000m/h.</desc>
<speed>0.470000</speed>
</trkpt>
<trkpt lat="42.884315" lon="19.671398">
<ele>1904.016602</ele>
<time>2012-04-30T16:45:10Z</time>
<desc>lat.=42.884315, lon.=19.671398, Alt.=1904.016602m. Speed=1.512000m/h.</desc>
<speed>0.420000</speed>
</trkpt>
<trkpt lat="42.884312" lon="19.671362">
<ele>1903.829102</ele>
<time>2012-04-30T16:45:15Z</time>
<desc>lat.=42.884312, lon.=19.671362, Alt.=1903.829102m. Speed=2.268000m/h.</desc>
<speed>0.630000</speed>
</trkpt>
<trkpt lat="42.884289" lon="19.671331">
<ele>1902.891602</ele>
<time>2012-04-30T16:45:20Z</time>
<desc>lat.=42.884289, lon.=19.671331, Alt.=1902.891602m. Speed=3.024000m/h.</desc>
<speed>0.840000</speed>
</trkpt>
<trkpt lat="42.884270" lon="19.671289">
<ele>1902.016602</ele>
<time>2012-04-30T16:45:25Z</time>
<desc>lat.=42.884270, lon.=19.671289, Alt.=1902.016602m. Speed=3.276000m/h.</desc>
<speed>0.910000</speed>
</trkpt>
<trkpt lat="42.884251" lon="19.671249">
<ele>1900.922852</ele>
<time>2012-04-30T16:45:30Z</time>
<desc>lat.=42.884251, lon.=19.671249, Alt.=1900.922852m. Speed=1.908000m/h.</desc>
<speed>0.530000</speed>
</trkpt>
<trkpt lat="42.884251" lon="19.671209">
<ele>1899.485352</ele>
<time>2012-04-30T16:45:35Z</time>
<desc>lat.=42.884251, lon.=19.671209, Alt.=1899.485352m. Speed=1.404000m/h.</desc>
<speed>0.390000</speed>
</trkpt>
<trkpt lat="42.884277" lon="19.671186">
<ele>1898.204102</ele>
<time>2012-04-30T16:45:40Z</time>
<desc>lat.=42.884277, lon.=19.671186, Alt.=1898.204102m. Speed=0.900000m/h.</desc>
<speed>0.250000</speed>
</trkpt>
<trkpt lat="42.884262" lon="19.671158">
<ele>1897.329102</ele>
<time>2012-04-30T16:45:45Z</time>
<desc>lat.=42.884262, lon.=19.671158, Alt.=1897.329102m. Speed=1.908000m/h.</desc>
<speed>0.530000</speed>
</trkpt>
<trkpt lat="42.884224" lon="19.671097">
<ele>1896.329102</ele>
<time>2012-04-30T16:45:50Z</time>
<desc>lat.=42.884224, lon.=19.671097, Alt.=1896.329102m. Speed=4.032000m/h.</desc>
<speed>1.120000</speed>
</trkpt>
<trkpt lat="42.884232" lon="19.671034">
<ele>1895.735352</ele>
<time>2012-04-30T16:45:55Z</time>
<desc>lat.=42.884232, lon.=19.671034, Alt.=1895.735352m. Speed=4.428000m/h.</desc>
<speed>1.230000</speed>
</trkpt>
<trkpt lat="42.884209" lon="19.670986">
<ele>1895.329102</ele>
<time>2012-04-30T16:46:00Z</time>
<desc>lat.=42.884209, lon.=19.670986, Alt.=1895.329102m. Speed=3.708000m/h.</desc>
<speed>1.030000</speed>
</trkpt>
<trkpt lat="42.884178" lon="19.670942">
<ele>1894.829102</ele>
<time>2012-04-30T16:46:05Z</time>
<desc>lat.=42.884178, lon.=19.670942, Alt.=1894.829102m. Speed=3.204000m/h.</desc>
<speed>0.890000</speed>
</trkpt>
<trkpt lat="42.884155" lon="19.670897">
<ele>1894.547852</ele>
<time>2012-04-30T16:46:10Z</time>
<desc>lat.=42.884155, lon.=19.670897, Alt.=1894.547852m. Speed=2.232000m/h.</desc>
<speed>0.620000</speed>
</trkpt>
<trkpt lat="42.884132" lon="19.670876">
<ele>1894.079102</ele>
<time>2012-04-30T16:46:15Z</time>
<desc>lat.=42.884132, lon.=19.670876, Alt.=1894.079102m. Speed=3.276000m/h.</desc>
<speed>0.910000</speed>
</trkpt>
<trkpt lat="42.884125" lon="19.670864">
<ele>1893.829102</ele>
<time>2012-04-30T16:46:20Z</time>
<desc>lat.=42.884125, lon.=19.670864, Alt.=1893.829102m. Speed=0.828000m/h.</desc>
<speed>0.230000</speed>
</trkpt>
<trkpt lat="42.884121" lon="19.670841">
<ele>1893.454102</ele>
<time>2012-04-30T16:46:25Z</time>
<desc>lat.=42.884121, lon.=19.670841, Alt.=1893.454102m. Speed=2.304000m/h.</desc>
<speed>0.640000</speed>
</trkpt>
<trkpt lat="42.884090" lon="19.670811">
<ele>1893.297852</ele>
<time>2012-04-30T16:46:30Z</time>
<desc>lat.=42.884090, lon.=19.670811, Alt.=1893.297852m. Speed=2.340000m/h.</desc>
<speed>0.650000</speed>
</trkpt>
<trkpt lat="42.884060" lon="19.670778">
<ele>1893.110352</ele>
<time>2012-04-30T16:46:35Z</time>
<desc>lat.=42.884060, lon.=19.670778, Alt.=1893.110352m. Speed=3.060000m/h.</desc>
<speed>0.850000</speed>
</trkpt>
<trkpt lat="42.884045" lon="19.670776">
<ele>1892.985352</ele>
<time>2012-04-30T16:46:40Z</time>
<desc>lat.=42.884045, lon.=19.670776, Alt.=1892.985352m. Speed=0.072000m/h.</desc>
<speed>0.020000</speed>
</trkpt>
<trkpt lat="42.884041" lon="19.670776">
<ele>1892.829102</ele>
<time>2012-04-30T16:46:45Z</time>
<desc>lat.=42.884041, lon.=19.670776, Alt.=1892.829102m. Speed=1.836000m/h.</desc>
<speed>0.510000</speed>
</trkpt>
<trkpt lat="42.884022" lon="19.670782">
<ele>1891.141602</ele>
<time>2012-04-30T16:46:50Z</time>
<desc>lat.=42.884022, lon.=19.670782, Alt.=1891.141602m. Speed=1.476000m/h.</desc>
<speed>0.410000</speed>
</trkpt>
<trkpt lat="42.884003" lon="19.670801">
<ele>1889.672852</ele>
<time>2012-04-30T16:46:55Z</time>
<desc>lat.=42.884003, lon.=19.670801, Alt.=1889.672852m. Speed=2.268000m/h.</desc>
<speed>0.630000</speed>
</trkpt>
<trkpt lat="42.883995" lon="19.670818">
<ele>1888.360352</ele>
<time>2012-04-30T16:47:00Z</time>
<desc>lat.=42.883995, lon.=19.670818, Alt.=1888.360352m. Speed=1.008000m/h.</desc>
<speed>0.280000</speed>
</trkpt>
<trkpt lat="42.883991" lon="19.670832">
<ele>1887.485352</ele>
<time>2012-04-30T16:47:05Z</time>
<desc>lat.=42.883991, lon.=19.670832, Alt.=1887.485352m. Speed=0.792000m/h.</desc>
<speed>0.220000</speed>
</trkpt>
<trkpt lat="42.883953" lon="19.670841">
<ele>1886.485352</ele>
<time>2012-04-30T16:47:10Z</time>
<desc>lat.=42.883953, lon.=19.670841, Alt.=1886.485352m. Speed=2.448000m/h.</desc>
<speed>0.680000</speed>
</trkpt>
<trkpt lat="42.883926" lon="19.670866">
<ele>1885.485352</ele>
<time>2012-04-30T16:47:15Z</time>
<desc>lat.=42.883926, lon.=19.670866, Alt.=1885.485352m. Speed=2.268000m/h.</desc>
<speed>0.630000</speed>
</trkpt>
<trkpt lat="42.883907" lon="19.670895">
<ele>1884.079102</ele>
<time>2012-04-30T16:47:20Z</time>
<desc>lat.=42.883907, lon.=19.670895, Alt.=1884.079102m. Speed=1.296000m/h.</desc>
<speed>0.360000</speed>
</trkpt>
<trkpt lat="42.883884" lon="19.670919">
<ele>1882.266602</ele>
<time>2012-04-30T16:47:25Z</time>
<desc>lat.=42.883884, lon.=19.670919, Alt.=1882.266602m. Speed=2.556000m/h.</desc>
<speed>0.710000</speed>
</trkpt>
<trkpt lat="42.883862" lon="19.670950">
<ele>1880.860352</ele>
<time>2012-04-30T16:47:30Z</time>
<desc>lat.=42.883862, lon.=19.670950, Alt.=1880.860352m. Speed=2.016000m/h.</desc>
<speed>0.560000</speed>
</trkpt>
<trkpt lat="42.883839" lon="19.670973">
<ele>1879.579102</ele>
<time>2012-04-30T16:47:35Z</time>
<desc>lat.=42.883839, lon.=19.670973, Alt.=1879.579102m. Speed=1.260000m/h.</desc>
<speed>0.350000</speed>
</trkpt>
<trkpt lat="42.883842" lon="19.670984">
<ele>1878.422852</ele>
<time>2012-04-30T16:47:40Z</time>
<desc>lat.=42.883842, lon.=19.670984, Alt.=1878.422852m. Speed=0.036000m/h.</desc>
<speed>0.010000</speed>
</trkpt>
<trkpt lat="42.883842" lon="19.670990">
<ele>1878.297852</ele>
<time>2012-04-30T16:47:45Z</time>
<desc>lat.=42.883842, lon.=19.670990, Alt.=1878.297852m. Speed=1.188000m/h.</desc>
<speed>0.330000</speed>
</trkpt>
<trkpt lat="42.883820" lon="19.671013">
<ele>1878.360352</ele>
<time>2012-04-30T16:47:50Z</time>
<desc>lat.=42.883820, lon.=19.671013, Alt.=1878.360352m. Speed=2.232000m/h.</desc>
<speed>0.620000</speed>
</trkpt>
<trkpt lat="42.883789" lon="19.671040">
<ele>1877.329102</ele>
<time>2012-04-30T16:47:55Z</time>
<desc>lat.=42.883789, lon.=19.671040, Alt.=1877.329102m. Speed=2.808000m/h.</desc>
<speed>0.780000</speed>
</trkpt>
<trkpt lat="42.883766" lon="19.671061">
<ele>1876.360352</ele>
<time>2012-04-30T16:48:00Z</time>
<desc>lat.=42.883766, lon.=19.671061, Alt.=1876.360352m. Speed=2.232000m/h.</desc>
<speed>0.620000</speed>
</trkpt>
<trkpt lat="42.883739" lon="19.671074">
<ele>1875.454102</ele>
<time>2012-04-30T16:48:05Z</time>
<desc>lat.=42.883739, lon.=19.671074, Alt.=1875.454102m. Speed=2.088000m/h.</desc>
<speed>0.580000</speed>
</trkpt>
<trkpt lat="42.883713" lon="19.671095">
<ele>1874.641602</ele>
<time>2012-04-30T16:48:10Z</time>
<desc>lat.=42.883713, lon.=19.671095, Alt.=1874.641602m. Speed=2.664000m/h.</desc>
<speed>0.740000</speed>
</trkpt>
<trkpt lat="42.883698" lon="19.671103">
<ele>1873.860352</ele>
<time>2012-04-30T16:48:15Z</time>
<desc>lat.=42.883698, lon.=19.671103, Alt.=1873.860352m. Speed=1.296000m/h.</desc>
<speed>0.360000</speed>
</trkpt>
<trkpt lat="42.883667" lon="19.671108">
<ele>1873.047852</ele>
<time>2012-04-30T16:48:20Z</time>
<desc>lat.=42.883667, lon.=19.671108, Alt.=1873.047852m. Speed=1.404000m/h.</desc>
<speed>0.390000</speed>
</trkpt>
<trkpt lat="42.883671" lon="19.671118">
<ele>1872.047852</ele>
<time>2012-04-30T16:48:25Z</time>
<desc>lat.=42.883671, lon.=19.671118, Alt.=1872.047852m. Speed=2.376000m/h.</desc>
<speed>0.660000</speed>
</trkpt>
<trkpt lat="42.883656" lon="19.671148">
<ele>1870.891602</ele>
<time>2012-04-30T16:48:30Z</time>
<desc>lat.=42.883656, lon.=19.671148, Alt.=1870.891602m. Speed=2.916000m/h.</desc>
<speed>0.810000</speed>
</trkpt>
<trkpt lat="42.883652" lon="19.671188">
<ele>1869.547852</ele>
<time>2012-04-30T16:48:35Z</time>
<desc>lat.=42.883652, lon.=19.671188, Alt.=1869.547852m. Speed=0.864000m/h.</desc>
<speed>0.240000</speed>
</trkpt>
<trkpt lat="42.883633" lon="19.671234">
<ele>1868.141602</ele>
<time>2012-04-30T16:48:40Z</time>
<desc>lat.=42.883633, lon.=19.671234, Alt.=1868.141602m. Speed=3.096000m/h.</desc>
<speed>0.860000</speed>
</trkpt>
<trkpt lat="42.883614" lon="19.671255">
<ele>1867.641602</ele>
<time>2012-04-30T16:48:45Z</time>
<desc>lat.=42.883614, lon.=19.671255, Alt.=1867.641602m. Speed=2.592000m/h.</desc>
<speed>0.720000</speed>
</trkpt>
<trkpt lat="42.883591" lon="19.671259">
<ele>1867.422852</ele>
<time>2012-04-30T16:48:50Z</time>
<desc>lat.=42.883591, lon.=19.671259, Alt.=1867.422852m. Speed=1.224000m/h.</desc>
<speed>0.340000</speed>
</trkpt>
<trkpt lat="42.883572" lon="19.671251">
<ele>1867.172852</ele>
<time>2012-04-30T16:48:55Z</time>
<desc>lat.=42.883572, lon.=19.671251, Alt.=1867.172852m. Speed=1.476000m/h.</desc>
<speed>0.410000</speed>
</trkpt>
<trkpt lat="42.883549" lon="19.671272">
<ele>1866.735352</ele>
<time>2012-04-30T16:49:00Z</time>
<desc>lat.=42.883549, lon.=19.671272, Alt.=1866.735352m. Speed=1.620000m/h.</desc>
<speed>0.450000</speed>
</trkpt>
<trkpt lat="42.883530" lon="19.671280">
<ele>1866.329102</ele>
<time>2012-04-30T16:49:05Z</time>
<desc>lat.=42.883530, lon.=19.671280, Alt.=1866.329102m. Speed=1.260000m/h.</desc>
<speed>0.350000</speed>
</trkpt>
<trkpt lat="42.883495" lon="19.671286">
<ele>1866.016602</ele>
<time>2012-04-30T16:49:10Z</time>
<desc>lat.=42.883495, lon.=19.671286, Alt.=1866.016602m. Speed=2.052000m/h.</desc>
<speed>0.570000</speed>
</trkpt>
<trkpt lat="42.883476" lon="19.671299">
<ele>1865.704102</ele>
<time>2012-04-30T16:49:15Z</time>
<desc>lat.=42.883476, lon.=19.671299, Alt.=1865.704102m. Speed=1.872000m/h.</desc>
<speed>0.520000</speed>
</trkpt>
<trkpt lat="42.883438" lon="19.671310">
<ele>1865.235352</ele>
<time>2012-04-30T16:49:20Z</time>
<desc>lat.=42.883438, lon.=19.671310, Alt.=1865.235352m. Speed=1.188000m/h.</desc>
<speed>0.330000</speed>
</trkpt>
<trkpt lat="42.883427" lon="19.671324">
<ele>1864.079102</ele>
<time>2012-04-30T16:49:25Z</time>
<desc>lat.=42.883427, lon.=19.671324, Alt.=1864.079102m. Speed=1.152000m/h.</desc>
<speed>0.320000</speed>
</trkpt>
<trkpt lat="42.883411" lon="19.671322">
<ele>1863.204102</ele>
<time>2012-04-30T16:49:30Z</time>
<desc>lat.=42.883411, lon.=19.671322, Alt.=1863.204102m. Speed=1.080000m/h.</desc>
<speed>0.300000</speed>
</trkpt>
<trkpt lat="42.883404" lon="19.671310">
<ele>1862.297852</ele>
<time>2012-04-30T16:49:35Z</time>
<desc>lat.=42.883404, lon.=19.671310, Alt.=1862.297852m. Speed=1.296000m/h.</desc>
<speed>0.360000</speed>
</trkpt>
<trkpt lat="42.883385" lon="19.671293">
<ele>1861.641602</ele>
<time>2012-04-30T16:49:40Z</time>
<desc>lat.=42.883385, lon.=19.671293, Alt.=1861.641602m. Speed=2.232000m/h.</desc>
<speed>0.620000</speed>
</trkpt>
<trkpt lat="42.883381" lon="19.671274">
<ele>1860.422852</ele>
<time>2012-04-30T16:49:45Z</time>
<desc>lat.=42.883381, lon.=19.671274, Alt.=1860.422852m. Speed=1.152000m/h.</desc>
<speed>0.320000</speed>
</trkpt>
<trkpt lat="42.883369" lon="19.671257">
<ele>1859.329102</ele>
<time>2012-04-30T16:49:50Z</time>
<desc>lat.=42.883369, lon.=19.671257, Alt.=1859.329102m. Speed=2.988000m/h.</desc>
<speed>0.830000</speed>
</trkpt>
<trkpt lat="42.883343" lon="19.671238">
<ele>1858.266602</ele>
<time>2012-04-30T16:49:55Z</time>
<desc>lat.=42.883343, lon.=19.671238, Alt.=1858.266602m. Speed=2.052000m/h.</desc>
<speed>0.570000</speed>
</trkpt>
<trkpt lat="42.883312" lon="19.671240">
<ele>1857.110352</ele>
<time>2012-04-30T16:50:00Z</time>
<desc>lat.=42.883312, lon.=19.671240, Alt.=1857.110352m. Speed=2.916000m/h.</desc>
<speed>0.810000</speed>
</trkpt>
<trkpt lat="42.883278" lon="19.671236">
<ele>1855.829102</ele>
<time>2012-04-30T16:50:05Z</time>
<desc>lat.=42.883278, lon.=19.671236, Alt.=1855.829102m. Speed=2.304000m/h.</desc>
<speed>0.640000</speed>
</trkpt>
<trkpt lat="42.883251" lon="19.671295">
<ele>1852.766602</ele>
<time>2012-04-30T16:50:10Z</time>
<desc>lat.=42.883251, lon.=19.671295, Alt.=1852.766602m. Speed=4.320000m/h.</desc>
<speed>1.200000</speed>
</trkpt>
<trkpt lat="42.883263" lon="19.671324">
<ele>1851.110352</ele>
<time>2012-04-30T16:50:15Z</time>
<desc>lat.=42.883263, lon.=19.671324, Alt.=1851.110352m. Speed=3.492000m/h.</desc>
<speed>0.970000</speed>
</trkpt>
<trkpt lat="42.883259" lon="19.671366">
<ele>1848.454102</ele>
<time>2012-04-30T16:50:20Z</time>
<desc>lat.=42.883259, lon.=19.671366, Alt.=1848.454102m. Speed=3.852000m/h.</desc>
<speed>1.070000</speed>
</trkpt>
<trkpt lat="42.883251" lon="19.671413">
<ele>1844.266602</ele>
<time>2012-04-30T16:50:25Z</time>
<desc>lat.=42.883251, lon.=19.671413, Alt.=1844.266602m. Speed=3.240000m/h.</desc>
<speed>0.900000</speed>
</trkpt>
<trkpt lat="42.883240" lon="19.671448">
<ele>1841.766602</ele>
<time>2012-04-30T16:50:30Z</time>
<desc>lat.=42.883240, lon.=19.671448, Alt.=1841.766602m. Speed=0.936000m/h.</desc>
<speed>0.260000</speed>
</trkpt>
<trkpt lat="42.883236" lon="19.671457">
<ele>1840.360352</ele>
<time>2012-04-30T16:50:35Z</time>
<desc>lat.=42.883236, lon.=19.671457, Alt.=1840.360352m. Speed=0.072000m/h.</desc>
<speed>0.020000</speed>
</trkpt>
<trkpt lat="42.883228" lon="19.671478">
<ele>1838.891602</ele>
<time>2012-04-30T16:50:40Z</time>
<desc>lat.=42.883228, lon.=19.671478, Alt.=1838.891602m. Speed=5.652000m/h.</desc>
<speed>1.570000</speed>
</trkpt>
<trkpt lat="42.883209" lon="19.671539">
<ele>1837.954102</ele>
<time>2012-04-30T16:50:45Z</time>
<desc>lat.=42.883209, lon.=19.671539, Alt.=1837.954102m. Speed=3.528000m/h.</desc>
<speed>0.980000</speed>
</trkpt>
<trkpt lat="42.883190" lon="19.671579">
<ele>1837.766602</ele>
<time>2012-04-30T16:50:50Z</time>
<desc>lat.=42.883190, lon.=19.671579, Alt.=1837.766602m. Speed=5.544000m/h.</desc>
<speed>1.540000</speed>
</trkpt>
<trkpt lat="42.883167" lon="19.671694">
<ele>1835.579102</ele>
<time>2012-04-30T16:50:55Z</time>
<desc>lat.=42.883167, lon.=19.671694, Alt.=1835.579102m. Speed=6.588000m/h.</desc>
<speed>1.830000</speed>
</trkpt>
<trkpt lat="42.883167" lon="19.671768">
<ele>1834.204102</ele>
<time>2012-04-30T16:51:00Z</time>
<desc>lat.=42.883167, lon.=19.671768, Alt.=1834.204102m. Speed=0.612000m/h.</desc>
<speed>0.170000</speed>
</trkpt>
<trkpt lat="42.883163" lon="19.671791">
<ele>1833.610352</ele>
<time>2012-04-30T16:51:05Z</time>
<desc>lat.=42.883163, lon.=19.671791, Alt.=1833.610352m. Speed=7.380000m/h.</desc>
<speed>2.050000</speed>
</trkpt>
<trkpt lat="42.883163" lon="19.671886">
<ele>1832.797852</ele>
<time>2012-04-30T16:51:10Z</time>
<desc>lat.=42.883163, lon.=19.671886, Alt.=1832.797852m. Speed=5.400000m/h.</desc>
<speed>1.500000</speed>
</trkpt>
<trkpt lat="42.883171" lon="19.671974">
<ele>1832.235352</ele>
<time>2012-04-30T16:51:15Z</time>
<desc>lat.=42.883171, lon.=19.671974, Alt.=1832.235352m. Speed=2.772000m/h.</desc>
<speed>0.770000</speed>
</trkpt>
<trkpt lat="42.883148" lon="19.672068">
<ele>1832.047852</ele>
<time>2012-04-30T16:51:20Z</time>
<desc>lat.=42.883148, lon.=19.672068, Alt.=1832.047852m. Speed=3.420000m/h.</desc>
<speed>0.950000</speed>
</trkpt>
<trkpt lat="42.883118" lon="19.672108">
<ele>1831.579102</ele>
<time>2012-04-30T16:51:25Z</time>
<desc>lat.=42.883118, lon.=19.672108, Alt.=1831.579102m. Speed=3.240000m/h.</desc>
<speed>0.900000</speed>
</trkpt>
<trkpt lat="42.883114" lon="19.672125">
<ele>1831.329102</ele>
<time>2012-04-30T16:51:30Z</time>
<desc>lat.=42.883114, lon.=19.672125, Alt.=1831.329102m. Speed=0.072000m/h.</desc>
<speed>0.020000</speed>
</trkpt>
<trkpt lat="42.883118" lon="19.672144">
<ele>1831.485352</ele>
<time>2012-04-30T16:51:35Z</time>
<desc>lat.=42.883118, lon.=19.672144, Alt.=1831.485352m. Speed=1.188000m/h.</desc>
<speed>0.330000</speed>
</trkpt>
<trkpt lat="42.883121" lon="19.672146">
<ele>1832.422852</ele>
<time>2012-04-30T16:51:40Z</time>
<desc>lat.=42.883121, lon.=19.672146, Alt.=1832.422852m. Speed=0.072000m/h.</desc>
<speed>0.020000</speed>
</trkpt>
<trkpt lat="42.883118" lon="19.672144">
<ele>1832.454102</ele>
<time>2012-04-30T16:51:45Z</time>
<desc>lat.=42.883118, lon.=19.672144, Alt.=1832.454102m. Speed=0.000000m/h.</desc>
<speed>0.000000</speed>
</trkpt>
<trkpt lat="42.883118" lon="19.672144">
<ele>1832.516602</ele>
<time>2012-04-30T16:51:50Z</time>
<desc>lat.=42.883118, lon.=19.672144, Alt.=1832.516602m. Speed=0.180000m/h.</desc>
<speed>0.050000</speed>
</trkpt>
<trkpt lat="42.883118" lon="19.672144">
<ele>1832.516602</ele>
<time>2012-04-30T16:51:55Z</time>
<desc>lat.=42.883118, lon.=19.672144, Alt.=1832.516602m. Speed=0.252000m/h.</desc>
<speed>0.070000</speed>
</trkpt>
<trkpt lat="42.883114" lon="19.672146">
<ele>1832.954102</ele>
<time>2012-04-30T16:52:00Z</time>
<desc>lat.=42.883114, lon.=19.672146, Alt.=1832.954102m. Speed=0.036000m/h.</desc>
<speed>0.010000</speed>
</trkpt>
<trkpt lat="42.883106" lon="19.672165">
<ele>1833.954102</ele>
<time>2012-04-30T16:52:05Z</time>
<desc>lat.=42.883106, lon.=19.672165, Alt.=1833.954102m. Speed=1.296000m/h.</desc>
<speed>0.360000</speed>
</trkpt>
<trkpt lat="42.883110" lon="19.672171">
<ele>1834.141602</ele>
<time>2012-04-30T16:52:10Z</time>
<desc>lat.=42.883110, lon.=19.672171, Alt.=1834.141602m. Speed=1.656000m/h.</desc>
<speed>0.460000</speed>
</trkpt>
<trkpt lat="42.883125" lon="19.672203">
<ele>1834.829102</ele>
<time>2012-04-30T16:52:15Z</time>
<desc>lat.=42.883125, lon.=19.672203, Alt.=1834.829102m. Speed=2.196000m/h.</desc>
<speed>0.610000</speed>
</trkpt>
<trkpt lat="42.883133" lon="19.672226">
<ele>1835.547852</ele>
<time>2012-04-30T16:52:20Z</time>
<desc>lat.=42.883133, lon.=19.672226, Alt.=1835.547852m. Speed=3.492000m/h.</desc>
<speed>0.970000</speed>
</trkpt>
<trkpt lat="42.883133" lon="19.672253">
<ele>1835.672852</ele>
<time>2012-04-30T16:52:25Z</time>
<desc>lat.=42.883133, lon.=19.672253, Alt.=1835.672852m. Speed=1.224000m/h.</desc>
<speed>0.340000</speed>
</trkpt>
<trkpt lat="42.883125" lon="19.672274">
<ele>1836.516602</ele>
<time>2012-04-30T16:52:30Z</time>
<desc>lat.=42.883125, lon.=19.672274, Alt.=1836.516602m. Speed=0.288000m/h.</desc>
<speed>0.080000</speed>
</trkpt>
<trkpt lat="42.883129" lon="19.672310">
<ele>1836.797852</ele>
<time>2012-04-30T16:52:35Z</time>
<desc>lat.=42.883129, lon.=19.672310, Alt.=1836.797852m. Speed=1.548000m/h.</desc>
<speed>0.430000</speed>
</trkpt>
<trkpt lat="42.883137" lon="19.672373">
<ele>1837.110352</ele>
<time>2012-04-30T16:52:40Z</time>
<desc>lat.=42.883137, lon.=19.672373, Alt.=1837.110352m. Speed=3.060000m/h.</desc>
<speed>0.850000</speed>
</trkpt>
<trkpt lat="42.883125" lon="19.672468">
<ele>1836.891602</ele>
<time>2012-04-30T16:52:45Z</time>
<desc>lat.=42.883125, lon.=19.672468, Alt.=1836.891602m. Speed=5.148000m/h.</desc>
<speed>1.430000</speed>
</trkpt>
<trkpt lat="42.883144" lon="19.672573">
<ele>1837.047852</ele>
<time>2012-04-30T16:52:50Z</time>
<desc>lat.=42.883144, lon.=19.672573, Alt.=1837.047852m. Speed=5.436000m/h.</desc>
<speed>1.510000</speed>
</trkpt>
<trkpt lat="42.883144" lon="19.672661">
<ele>1836.610352</ele>
<time>2012-04-30T16:52:55Z</time>
<desc>lat.=42.883144, lon.=19.672661, Alt.=1836.610352m. Speed=5.436000m/h.</desc>
<speed>1.510000</speed>
</trkpt>
<trkpt lat="42.883171" lon="19.672726">
<ele>1836.141602</ele>
<time>2012-04-30T16:53:00Z</time>
<desc>lat.=42.883171, lon.=19.672726, Alt.=1836.141602m. Speed=3.672000m/h.</desc>
<speed>1.020000</speed>
</trkpt>
<trkpt lat="42.883194" lon="19.672773">
<ele>1835.579102</ele>
<time>2012-04-30T16:53:05Z</time>
<desc>lat.=42.883194, lon.=19.672773, Alt.=1835.579102m. Speed=4.536000m/h.</desc>
<speed>1.260000</speed>
</trkpt>
<trkpt lat="42.883209" lon="19.672798">
<ele>1833.891602</ele>
<time>2012-04-30T16:53:10Z</time>
<desc>lat.=42.883209, lon.=19.672798, Alt.=1833.891602m. Speed=3.204000m/h.</desc>
<speed>0.890000</speed>
</trkpt>
<trkpt lat="42.883263" lon="19.672987">
<ele>1828.422852</ele>
<time>2012-04-30T16:53:15Z</time>
<desc>lat.=42.883263, lon.=19.672987, Alt.=1828.422852m. Speed=17.063999m/h.</desc>
<speed>4.740000</speed>
</trkpt>
<trkpt lat="42.883350" lon="19.673223">
<ele>1824.391602</ele>
<time>2012-04-30T16:53:20Z</time>
<desc>lat.=42.883350, lon.=19.673223, Alt.=1824.391602m. Speed=12.960000m/h.</desc>
<speed>3.600000</speed>
</trkpt>
<trkpt lat="42.883450" lon="19.673496">
<ele>1821.547852</ele>
<time>2012-04-30T16:53:25Z</time>
<desc>lat.=42.883450, lon.=19.673496, Alt.=1821.547852m. Speed=17.676001m/h.</desc>
<speed>4.910000</speed>
</trkpt>
<trkpt lat="42.883541" lon="19.673845">
<ele>1818.547852</ele>
<time>2012-04-30T16:53:30Z</time>
<desc>lat.=42.883541, lon.=19.673845, Alt.=1818.547852m. Speed=22.104000m/h.</desc>
<speed>6.140000</speed>
</trkpt>
<trkpt lat="42.883556" lon="19.674078">
<ele>1816.329102</ele>
<time>2012-04-30T16:53:35Z</time>
<desc>lat.=42.883556, lon.=19.674078, Alt.=1816.329102m. Speed=8.784000m/h.</desc>
<speed>2.440000</speed>
</trkpt>
<trkpt lat="42.883533" lon="19.674269">
<ele>1813.891602</ele>
<time>2012-04-30T16:53:40Z</time>
<desc>lat.=42.883533, lon.=19.674269, Alt.=1813.891602m. Speed=10.224000m/h.</desc>
<speed>2.840000</speed>
</trkpt>
<trkpt lat="42.883533" lon="19.674379">
<ele>1811.579102</ele>
<time>2012-04-30T16:53:45Z</time>
<desc>lat.=42.883533, lon.=19.674379, Alt.=1811.579102m. Speed=7.596000m/h.</desc>
<speed>2.110000</speed>
</trkpt>
<trkpt lat="42.883518" lon="19.674467">
<ele>1809.172852</ele>
<time>2012-04-30T16:53:50Z</time>
<desc>lat.=42.883518, lon.=19.674467, Alt.=1809.172852m. Speed=6.336000m/h.</desc>
<speed>1.760000</speed>
</trkpt>
<trkpt lat="42.883488" lon="19.674473">
<ele>1808.547852</ele>
<time>2012-04-30T16:53:55Z</time>
<desc>lat.=42.883488, lon.=19.674473, Alt.=1808.547852m. Speed=2.484000m/h.</desc>
<speed>0.690000</speed>
</trkpt>
<trkpt lat="42.883465" lon="19.674511">
<ele>1808.079102</ele>
<time>2012-04-30T16:54:00Z</time>
<desc>lat.=42.883465, lon.=19.674511, Alt.=1808.079102m. Speed=0.396000m/h.</desc>
<speed>0.110000</speed>
</trkpt>
<trkpt lat="42.883465" lon="19.674515">
<ele>1807.985352</ele>
<time>2012-04-30T16:54:05Z</time>
<desc>lat.=42.883465, lon.=19.674515, Alt.=1807.985352m. Speed=2.412000m/h.</desc>
<speed>0.670000</speed>
</trkpt>
<trkpt lat="42.883457" lon="19.674526">
<ele>1807.735352</ele>
<time>2012-04-30T16:54:10Z</time>
<desc>lat.=42.883457, lon.=19.674526, Alt.=1807.735352m. Speed=0.072000m/h.</desc>
<speed>0.020000</speed>
</trkpt>
<trkpt lat="42.883450" lon="19.674538">
<ele>1807.516602</ele>
<time>2012-04-30T16:54:15Z</time>
<desc>lat.=42.883450, lon.=19.674538, Alt.=1807.516602m. Speed=0.576000m/h.</desc>
<speed>0.160000</speed>
</trkpt>
<trkpt lat="42.883438" lon="19.674541">
<ele>1807.485352</ele>
<time>2012-04-30T16:54:20Z</time>
<desc>lat.=42.883438, lon.=19.674541, Alt.=1807.485352m. Speed=0.072000m/h.</desc>
<speed>0.020000</speed>
</trkpt>
<trkpt lat="42.883423" lon="19.674555">
<ele>1806.860352</ele>
<time>2012-04-30T16:54:25Z</time>
<desc>lat.=42.883423, lon.=19.674555, Alt.=1806.860352m. Speed=5.112000m/h.</desc>
<speed>1.420000</speed>
</trkpt>
<trkpt lat="42.883434" lon="19.674618">
<ele>1806.141602</ele>
<time>2012-04-30T16:54:30Z</time>
<desc>lat.=42.883434, lon.=19.674618, Alt.=1806.141602m. Speed=1.260000m/h.</desc>
<speed>0.350000</speed>
</trkpt>
<trkpt lat="42.883446" lon="19.674610">
<ele>1805.547852</ele>
<time>2012-04-30T16:54:35Z</time>
<desc>lat.=42.883446, lon.=19.674610, Alt.=1805.547852m. Speed=0.036000m/h.</desc>
<speed>0.010000</speed>
</trkpt>
<trkpt lat="42.883446" lon="19.674610">
<ele>1805.516602</ele>
<time>2012-04-30T16:54:40Z</time>
<desc>lat.=42.883446, lon.=19.674610, Alt.=1805.516602m. Speed=0.000000m/h.</desc>
<speed>0.000000</speed>
</trkpt>
<trkpt lat="42.883446" lon="19.674610">
<ele>1805.516602</ele>
<time>2012-04-30T16:54:45Z</time>
<desc>lat.=42.883446, lon.=19.674610, Alt.=1805.516602m. Speed=0.036000m/h.</desc>
<speed>0.010000</speed>
</trkpt>
<trkpt lat="42.883446" lon="19.674610">
<ele>1805.485352</ele>
<time>2012-04-30T16:54:50Z</time>
<desc>lat.=42.883446, lon.=19.674610, Alt.=1805.485352m. Speed=0.504000m/h.</desc>
<speed>0.140000</speed>
</trkpt>
<trkpt lat="42.883453" lon="19.674606">
<ele>1804.672852</ele>
<time>2012-04-30T16:54:55Z</time>
<desc>lat.=42.883453, lon.=19.674606, Alt.=1804.672852m. Speed=0.072000m/h.</desc>
<speed>0.020000</speed>
</trkpt>
<trkpt lat="42.883453" lon="19.674606">
<ele>1804.641602</ele>
<time>2012-04-30T16:55:00Z</time>
<desc>lat.=42.883453, lon.=19.674606, Alt.=1804.641602m. Speed=0.000000m/h.</desc>
<speed>0.000000</speed>
</trkpt>
<trkpt lat="42.883457" lon="19.674606">
<ele>1804.641602</ele>
<time>2012-04-30T16:55:05Z</time>
<desc>lat.=42.883457, lon.=19.674606, Alt.=1804.641602m. Speed=0.000000m/h.</desc>
<speed>0.000000</speed>
</trkpt>
<trkpt lat="42.883457" lon="19.674606">
<ele>1804.610352</ele>
<time>2012-04-30T16:55:10Z</time>
<desc>lat.=42.883457, lon.=19.674606, Alt.=1804.610352m. Speed=0.000000m/h.</desc>
<speed>0.000000</speed>
</trkpt>
<trkpt lat="42.883457" lon="19.674606">
<ele>1804.579102</ele>
<time>2012-04-30T16:55:15Z</time>
<desc>lat.=42.883457, lon.=19.674606, Alt.=1804.579102m. Speed=0.000000m/h.</desc>
<speed>0.000000</speed>
</trkpt>
<trkpt lat="42.883457" lon="19.674606">
<ele>1804.547852</ele>
<time>2012-04-30T16:55:20Z</time>
<desc>lat.=42.883457, lon.=19.674606, Alt.=1804.547852m. Speed=0.072000m/h.</desc>
<speed>0.020000</speed>
</trkpt>
<trkpt lat="42.883457" lon="19.674606">
<ele>1804.547852</ele>
<time>2012-04-30T16:55:25Z</time>
<desc>lat.=42.883457, lon.=19.674606, Alt.=1804.547852m. Speed=0.036000m/h.</desc>
<speed>0.010000</speed>
</trkpt>
<trkpt lat="42.883457" lon="19.674606">
<ele>1804.516602</ele>
<time>2012-04-30T16:55:30Z</time>
<desc>lat.=42.883457, lon.=19.674606, Alt.=1804.516602m. Speed=0.036000m/h.</desc>
<speed>0.010000</speed>
</trkpt>
<trkpt lat="42.883457" lon="19.674606">
<ele>1804.485352</ele>
<time>2012-04-30T16:55:35Z</time>
<desc>lat.=42.883457, lon.=19.674606, Alt.=1804.485352m. Speed=0.684000m/h.</desc>
<speed>0.190000</speed>
</trkpt>
<trkpt lat="42.883476" lon="19.674622">
<ele>1803.610352</ele>
<time>2012-04-30T16:55:40Z</time>
<desc>lat.=42.883476, lon.=19.674622, Alt.=1803.610352m. Speed=1.476000m/h.</desc>
<speed>0.410000</speed>
</trkpt>
<trkpt lat="42.883495" lon="19.674629">
<ele>1803.204102</ele>
<time>2012-04-30T16:55:45Z</time>
<desc>lat.=42.883495, lon.=19.674629, Alt.=1803.204102m. Speed=1.116000m/h.</desc>
<speed>0.310000</speed>
</trkpt>
<trkpt lat="42.883537" lon="19.674650">
<ele>1802.579102</ele>
<time>2012-04-30T16:55:50Z</time>
<desc>lat.=42.883537, lon.=19.674650, Alt.=1802.579102m. Speed=3.744000m/h.</desc>
<speed>1.040000</speed>
</trkpt>
<trkpt lat="42.883591" lon="19.674675">
<ele>1801.641602</ele>
<time>2012-04-30T16:55:55Z</time>
<desc>lat.=42.883591, lon.=19.674675, Alt.=1801.641602m. Speed=3.636000m/h.</desc>
<speed>1.010000</speed>
</trkpt>
<trkpt lat="42.883644" lon="19.674685">
<ele>1800.204102</ele>
<time>2012-04-30T16:56:00Z</time>
<desc>lat.=42.883644, lon.=19.674685, Alt.=1800.204102m. Speed=3.708000m/h.</desc>
<speed>1.030000</speed>
</trkpt>
<trkpt lat="42.883694" lon="19.674702">
<ele>1798.579102</ele>
<time>2012-04-30T16:56:05Z</time>
<desc>lat.=42.883694, lon.=19.674702, Alt.=1798.579102m. Speed=3.024000m/h.</desc>
<speed>0.840000</speed>
</trkpt>
<trkpt lat="42.883728" lon="19.674723">
<ele>1798.547852</ele>
<time>2012-04-30T16:56:10Z</time>
<desc>lat.=42.883728, lon.=19.674723, Alt.=1798.547852m. Speed=1.800000m/h.</desc>
<speed>0.500000</speed>
</trkpt>
<trkpt lat="42.883747" lon="19.674717">
<ele>1797.797852</ele>
<time>2012-04-30T16:56:15Z</time>
<desc>lat.=42.883747, lon.=19.674717, Alt.=1797.797852m. Speed=1.944000m/h.</desc>
<speed>0.540000</speed>
</trkpt>
<trkpt lat="42.883774" lon="19.674715">
<ele>1796.516602</ele>
<time>2012-04-30T16:56:20Z</time>
<desc>lat.=42.883774, lon.=19.674715, Alt.=1796.516602m. Speed=3.564000m/h.</desc>
<speed>0.990000</speed>
</trkpt>
<trkpt lat="42.883797" lon="19.674713">
<ele>1795.579102</ele>
<time>2012-04-30T16:56:25Z</time>
<desc>lat.=42.883797, lon.=19.674713, Alt.=1795.579102m. Speed=2.376000m/h.</desc>
<speed>0.660000</speed>
</trkpt>
<trkpt lat="42.883842" lon="19.674679">
<ele>1793.860352</ele>
<time>2012-04-30T16:56:30Z</time>
<desc>lat.=42.883842, lon.=19.674679, Alt.=1793.860352m. Speed=3.780000m/h.</desc>
<speed>1.050000</speed>
</trkpt>
<trkpt lat="42.883862" lon="19.674669">
<ele>1793.547852</ele>
<time>2012-04-30T16:56:35Z</time>
<desc>lat.=42.883862, lon.=19.674669, Alt.=1793.547852m. Speed=0.144000m/h.</desc>
<speed>0.040000</speed>
</trkpt>
<trkpt lat="42.883930" lon="19.674681">
<ele>1791.641602</ele>
<time>2012-04-30T16:56:40Z</time>
<desc>lat.=42.883930, lon.=19.674681, Alt.=1791.641602m. Speed=9.108000m/h.</desc>
<speed>2.530000</speed>
</trkpt>
<trkpt lat="42.884071" lon="19.674807">
<ele>1789.360352</ele>
<time>2012-04-30T16:56:45Z</time>
<desc>lat.=42.884071, lon.=19.674807, Alt.=1789.360352m. Speed=16.164000m/h.</desc>
<speed>4.490000</speed>
</trkpt>
<trkpt lat="42.884262" lon="19.674931">
<ele>1786.891602</ele>
<time>2012-04-30T16:56:50Z</time>
<desc>lat.=42.884262, lon.=19.674931, Alt.=1786.891602m. Speed=15.588000m/h.</desc>
<speed>4.330000</speed>
</trkpt>
<trkpt lat="42.884342" lon="19.675043">
<ele>1784.672852</ele>
<time>2012-04-30T16:56:55Z</time>
<desc>lat.=42.884342, lon.=19.675043, Alt.=1784.672852m. Speed=2.376000m/h.</desc>
<speed>0.660000</speed>
</trkpt>
<trkpt lat="42.884373" lon="19.675051">
<ele>1783.485352</ele>
<time>2012-04-30T16:57:00Z</time>
<desc>lat.=42.884373, lon.=19.675051, Alt.=1783.485352m. Speed=4.140000m/h.</desc>
<speed>1.150000</speed>
</trkpt>
<trkpt lat="42.884411" lon="19.675070">
<ele>1781.735352</ele>
<time>2012-04-30T16:57:05Z</time>
<desc>lat.=42.884411, lon.=19.675070, Alt.=1781.735352m. Speed=3.672000m/h.</desc>
<speed>1.020000</speed>
</trkpt>
<trkpt lat="42.884392" lon="19.675091">
<ele>1781.704102</ele>
<time>2012-04-30T16:57:10Z</time>
<desc>lat.=42.884392, lon.=19.675091, Alt.=1781.704102m. Speed=0.072000m/h.</desc>
<speed>0.020000</speed>
</trkpt>
<trkpt lat="42.884388" lon="19.675093">
<ele>1781.579102</ele>
<time>2012-04-30T16:57:15Z</time>
<desc>lat.=42.884388, lon.=19.675093, Alt.=1781.579102m. Speed=0.504000m/h.</desc>
<speed>0.140000</speed>
</trkpt>
<trkpt lat="42.884388" lon="19.675097">
<ele>1781.516602</ele>
<time>2012-04-30T16:57:20Z</time>
<desc>lat.=42.884388, lon.=19.675097, Alt.=1781.516602m. Speed=0.648000m/h.</desc>
<speed>0.180000</speed>
</trkpt>
<trkpt lat="42.884392" lon="19.675087">
<ele>1781.454102</ele>
<time>2012-04-30T16:57:25Z</time>
<desc>lat.=42.884392, lon.=19.675087, Alt.=1781.454102m. Speed=0.468000m/h.</desc>
<speed>0.130000</speed>
</trkpt>
<trkpt lat="42.884396" lon="19.675087">
<ele>1781.422852</ele>
<time>2012-04-30T16:57:30Z</time>
<desc>lat.=42.884396, lon.=19.675087, Alt.=1781.422852m. Speed=0.108000m/h.</desc>
<speed>0.030000</speed>
</trkpt>
<trkpt lat="42.884399" lon="19.675087">
<ele>1781.391602</ele>
<time>2012-04-30T16:57:35Z</time>
<desc>lat.=42.884399, lon.=19.675087, Alt.=1781.391602m. Speed=0.000000m/h.</desc>
<speed>0.000000</speed>
</trkpt>
<trkpt lat="42.884399" lon="19.675079">
<ele>1781.329102</ele>
<time>2012-04-30T16:57:40Z</time>
<desc>lat.=42.884399, lon.=19.675079, Alt.=1781.329102m. Speed=0.468000m/h.</desc>
<speed>0.130000</speed>
</trkpt>
<trkpt lat="42.884399" lon="19.675070">
<ele>1781.266602</ele>
<time>2012-04-30T16:57:45Z</time>
<desc>lat.=42.884399, lon.=19.675070, Alt.=1781.266602m. Speed=0.684000m/h.</desc>
<speed>0.190000</speed>
</trkpt>
<trkpt lat="42.884407" lon="19.675062">
<ele>1781.204102</ele>
<time>2012-04-30T16:57:50Z</time>
<desc>lat.=42.884407, lon.=19.675062, Alt.=1781.204102m. Speed=0.684000m/h.</desc>
<speed>0.190000</speed>
</trkpt>
<trkpt lat="42.884449" lon="19.675104">
<ele>1780.704102</ele>
<time>2012-04-30T16:57:55Z</time>
<desc>lat.=42.884449, lon.=19.675104, Alt.=1780.704102m. Speed=6.984000m/h.</desc>
<speed>1.940000</speed>
</trkpt>
<trkpt lat="42.884560" lon="19.675232">
<ele>1779.672852</ele>
<time>2012-04-30T16:58:00Z</time>
<desc>lat.=42.884560, lon.=19.675232, Alt.=1779.672852m. Speed=13.860000m/h.</desc>
<speed>3.850000</speed>
</trkpt>
<trkpt lat="42.884655" lon="19.675472">
<ele>1777.860352</ele>
<time>2012-04-30T16:58:05Z</time>
<desc>lat.=42.884655, lon.=19.675472, Alt.=1777.860352m. Speed=16.056000m/h.</desc>
<speed>4.460000</speed>
</trkpt>
<trkpt lat="42.884655" lon="19.675810">
<ele>1776.110352</ele>
<time>2012-04-30T16:58:10Z</time>
<desc>lat.=42.884655, lon.=19.675810, Alt.=1776.110352m. Speed=21.384001m/h.</desc>
<speed>5.940000</speed>
</trkpt>
<trkpt lat="42.884666" lon="19.676132">
<ele>1774.516602</ele>
<time>2012-04-30T16:58:15Z</time>
<desc>lat.=42.884666, lon.=19.676132, Alt.=1774.516602m. Speed=17.820000m/h.</desc>
<speed>4.950000</speed>
</trkpt>
<trkpt lat="42.884701" lon="19.676319">
<ele>1771.954102</ele>
<time>2012-04-30T16:58:20Z</time>
<desc>lat.=42.884701, lon.=19.676319, Alt.=1771.954102m. Speed=8.964000m/h.</desc>
<speed>2.490000</speed>
</trkpt>
<trkpt lat="42.884705" lon="19.676407">
<ele>1772.516602</ele>
<time>2012-04-30T16:58:25Z</time>
<desc>lat.=42.884705, lon.=19.676407, Alt.=1772.516602m. Speed=4.500000m/h.</desc>
<speed>1.250000</speed>
</trkpt>
<trkpt lat="42.884735" lon="19.676464">
<ele>1771.391602</ele>
<time>2012-04-30T16:58:30Z</time>
<desc>lat.=42.884735, lon.=19.676464, Alt.=1771.391602m. Speed=1.764000m/h.</desc>
<speed>0.490000</speed>
</trkpt>
<trkpt lat="42.884758" lon="19.676476">
<ele>1770.391602</ele>
<time>2012-04-30T16:58:35Z</time>
<desc>lat.=42.884758, lon.=19.676476, Alt.=1770.391602m. Speed=3.096000m/h.</desc>
<speed>0.860000</speed>
</trkpt>
<trkpt lat="42.884777" lon="19.676504">
<ele>1769.360352</ele>
<time>2012-04-30T16:58:40Z</time>
<desc>lat.=42.884777, lon.=19.676504, Alt.=1769.360352m. Speed=1.656000m/h.</desc>
<speed>0.460000</speed>
</trkpt>
<trkpt lat="42.884800" lon="19.676523">
<ele>1768.360352</ele>
<time>2012-04-30T16:58:45Z</time>
<desc>lat.=42.884800, lon.=19.676523, Alt.=1768.360352m. Speed=3.384000m/h.</desc>
<speed>0.940000</speed>
</trkpt>
<trkpt lat="42.884823" lon="19.676554">
<ele>1767.391602</ele>
<time>2012-04-30T16:58:50Z</time>
<desc>lat.=42.884823, lon.=19.676554, Alt.=1767.391602m. Speed=3.024000m/h.</desc>
<speed>0.840000</speed>
</trkpt>
<trkpt lat="42.884899" lon="19.676670">
<ele>1766.704102</ele>
<time>2012-04-30T16:58:55Z</time>
<desc>lat.=42.884899, lon.=19.676670, Alt.=1766.704102m. Speed=5.652000m/h.</desc>
<speed>1.570000</speed>
</trkpt>
<trkpt lat="42.884949" lon="19.676704">
<ele>1765.141602</ele>
<time>2012-04-30T16:59:00Z</time>
<desc>lat.=42.884949, lon.=19.676704, Alt.=1765.141602m. Speed=2.880000m/h.</desc>
<speed>0.800000</speed>
</trkpt>
<trkpt lat="42.885006" lon="19.676727">
<ele>1763.829102</ele>
<time>2012-04-30T16:59:05Z</time>
<desc>lat.=42.885006, lon.=19.676727, Alt.=1763.829102m. Speed=3.852000m/h.</desc>
<speed>1.070000</speed>
</trkpt>
<trkpt lat="42.885056" lon="19.676754">
<ele>1762.985352</ele>
<time>2012-04-30T16:59:10Z</time>
<desc>lat.=42.885056, lon.=19.676754, Alt.=1762.985352m. Speed=3.780000m/h.</desc>
<speed>1.050000</speed>
</trkpt>
<trkpt lat="42.885094" lon="19.676775">
<ele>1761.922852</ele>
<time>2012-04-30T16:59:15Z</time>
<desc>lat.=42.885094, lon.=19.676775, Alt.=1761.922852m. Speed=1.836000m/h.</desc>
<speed>0.510000</speed>
</trkpt>
<trkpt lat="42.885105" lon="19.676773">
<ele>1760.922852</ele>
<time>2012-04-30T16:59:20Z</time>
<desc>lat.=42.885105, lon.=19.676773, Alt.=1760.922852m. Speed=0.540000m/h.</desc>
<speed>0.150000</speed>
</trkpt>
<trkpt lat="42.885139" lon="19.676794">
<ele>1760.579102</ele>
<time>2012-04-30T16:59:25Z</time>
<desc>lat.=42.885139, lon.=19.676794, Alt.=1760.579102m. Speed=4.140000m/h.</desc>
<speed>1.150000</speed>
</trkpt>
<trkpt lat="42.885189" lon="19.676811">
<ele>1760.454102</ele>
<time>2012-04-30T16:59:30Z</time>
<desc>lat.=42.885189, lon.=19.676811, Alt.=1760.454102m. Speed=1.404000m/h.</desc>
<speed>0.390000</speed>
</trkpt>
<trkpt lat="42.885242" lon="19.676783">
<ele>1760.110352</ele>
<time>2012-04-30T16:59:35Z</time>
<desc>lat.=42.885242, lon.=19.676783, Alt.=1760.110352m. Speed=3.816000m/h.</desc>
<speed>1.060000</speed>
</trkpt>
<trkpt lat="42.885303" lon="19.676830">
<ele>1759.391602</ele>
<time>2012-04-30T16:59:40Z</time>
<desc>lat.=42.885303, lon.=19.676830, Alt.=1759.391602m. Speed=4.680000m/h.</desc>
<speed>1.300000</speed>
</trkpt>
<trkpt lat="42.885319" lon="19.676970">
<ele>1759.954102</ele>
<time>2012-04-30T16:59:45Z</time>
<desc>lat.=42.885319, lon.=19.676970, Alt.=1759.954102m. Speed=8.028000m/h.</desc>
<speed>2.230000</speed>
</trkpt>
<trkpt lat="42.885395" lon="19.677122">
<ele>1758.610352</ele>
<time>2012-04-30T16:59:50Z</time>
<desc>lat.=42.885395, lon.=19.677122, Alt.=1758.610352m. Speed=12.600000m/h.</desc>
<speed>3.500000</speed>
</trkpt>
<trkpt lat="42.885426" lon="19.677380">
<ele>1757.922852</ele>
<time>2012-04-30T16:59:55Z</time>
<desc>lat.=42.885426, lon.=19.677380, Alt.=1757.922852m. Speed=15.984000m/h.</desc>
<speed>4.440000</speed>
</trkpt>
<trkpt lat="42.885468" lon="19.677670">
<ele>1755.672852</ele>
<time>2012-04-30T17:00:00Z</time>
<desc>lat.=42.885468, lon.=19.677670, Alt.=1755.672852m. Speed=17.676001m/h.</desc>
<speed>4.910000</speed>
</trkpt>
<trkpt lat="42.885513" lon="19.677935">
<ele>1754.297852</ele>
<time>2012-04-30T17:00:05Z</time>
<desc>lat.=42.885513, lon.=19.677935, Alt.=1754.297852m. Speed=14.328000m/h.</desc>
<speed>3.980000</speed>
</trkpt>
<trkpt lat="42.885590" lon="19.678160">
<ele>1752.610352</ele>
<time>2012-04-30T17:00:10Z</time>
<desc>lat.=42.885590, lon.=19.678160, Alt.=1752.610352m. Speed=10.728000m/h.</desc>
<speed>2.980000</speed>
</trkpt>
<trkpt lat="42.885635" lon="19.678165">
<ele>1750.579102</ele>
<time>2012-04-30T17:00:15Z</time>
<desc>lat.=42.885635, lon.=19.678165, Alt.=1750.579102m. Speed=3.960000m/h.</desc>
<speed>1.100000</speed>
</trkpt>
<trkpt lat="42.885674" lon="19.678246">
<ele>1749.954102</ele>
<time>2012-04-30T17:00:20Z</time>
<desc>lat.=42.885674, lon.=19.678246, Alt.=1749.954102m. Speed=5.472000m/h.</desc>
<speed>1.520000</speed>
</trkpt>
<trkpt lat="42.885735" lon="19.678288">
<ele>1748.141602</ele>
<time>2012-04-30T17:00:25Z</time>
<desc>lat.=42.885735, lon.=19.678288, Alt.=1748.141602m. Speed=3.924000m/h.</desc>
<speed>1.090000</speed>
</trkpt>
<trkpt lat="42.885761" lon="19.678347">
<ele>1746.954102</ele>
<time>2012-04-30T17:00:30Z</time>
<desc>lat.=42.885761, lon.=19.678347, Alt.=1746.954102m. Speed=10.908000m/h.</desc>
<speed>3.030000</speed>
</trkpt>
<trkpt lat="42.885849" lon="19.678541">
<ele>1743.454102</ele>
<time>2012-04-30T17:00:35Z</time>
<desc>lat.=42.885849, lon.=19.678541, Alt.=1743.454102m. Speed=11.988000m/h.</desc>
<speed>3.330000</speed>
</trkpt>
<trkpt lat="42.885918" lon="19.678692">
<ele>1741.579102</ele>
<time>2012-04-30T17:00:40Z</time>
<desc>lat.=42.885918, lon.=19.678692, Alt.=1741.579102m. Speed=8.640000m/h.</desc>
<speed>2.400000</speed>
</trkpt>
<trkpt lat="42.885933" lon="19.678791">
<ele>1741.141602</ele>
<time>2012-04-30T17:00:45Z</time>
<desc>lat.=42.885933, lon.=19.678791, Alt.=1741.141602m. Speed=3.276000m/h.</desc>
<speed>0.910000</speed>
</trkpt>
<trkpt lat="42.885967" lon="19.678877">
<ele>1739.797852</ele>
<time>2012-04-30T17:00:50Z</time>
<desc>lat.=42.885967, lon.=19.678877, Alt.=1739.797852m. Speed=8.496000m/h.</desc>
<speed>2.360000</speed>
</trkpt>
<trkpt lat="42.886005" lon="19.679060">
<ele>1738.485352</ele>
<time>2012-04-30T17:00:55Z</time>
<desc>lat.=42.886005, lon.=19.679060, Alt.=1738.485352m. Speed=12.420000m/h.</desc>
<speed>3.450000</speed>
</trkpt>
<trkpt lat="42.886028" lon="19.679224">
<ele>1737.329102</ele>
<time>2012-04-30T17:01:00Z</time>
<desc>lat.=42.886028, lon.=19.679224, Alt.=1737.329102m. Speed=7.776000m/h.</desc>
<speed>2.160000</speed>
</trkpt>
<trkpt lat="42.886108" lon="19.679358">
<ele>1735.891602</ele>
<time>2012-04-30T17:01:05Z</time>
<desc>lat.=42.886108, lon.=19.679358, Alt.=1735.891602m. Speed=6.660000m/h.</desc>
<speed>1.850000</speed>
</trkpt>
<trkpt lat="42.886211" lon="19.679415">
<ele>1733.829102</ele>
<time>2012-04-30T17:01:10Z</time>
<desc>lat.=42.886211, lon.=19.679415, Alt.=1733.829102m. Speed=8.676000m/h.</desc>
<speed>2.410000</speed>
</trkpt>
<trkpt lat="42.886284" lon="19.679466">
<ele>1731.954102</ele>
<time>2012-04-30T17:01:15Z</time>
<desc>lat.=42.886284, lon.=19.679466, Alt.=1731.954102m. Speed=0.828000m/h.</desc>
<speed>0.230000</speed>
</trkpt>
<trkpt lat="42.886276" lon="19.679468">
<ele>1731.672852</ele>
<time>2012-04-30T17:01:20Z</time>
<desc>lat.=42.886276, lon.=19.679468, Alt.=1731.672852m. Speed=0.108000m/h.</desc>
<speed>0.030000</speed>
</trkpt>
<trkpt lat="42.886272" lon="19.679468">
<ele>1731.547852</ele>
<time>2012-04-30T17:01:25Z</time>
<desc>lat.=42.886272, lon.=19.679468, Alt.=1731.547852m. Speed=0.036000m/h.</desc>
<speed>0.010000</speed>
</trkpt>
<trkpt lat="42.886272" lon="19.679466">
<ele>1731.547852</ele>
<time>2012-04-30T17:01:30Z</time>
<desc>lat.=42.886272, lon.=19.679466, Alt.=1731.547852m. Speed=0.252000m/h.</desc>
<speed>0.070000</speed>
</trkpt>
<trkpt lat="42.886276" lon="19.679468">
<ele>1731.610352</ele>
<time>2012-04-30T17:01:35Z</time>
<desc>lat.=42.886276, lon.=19.679468, Alt.=1731.610352m. Speed=0.288000m/h.</desc>
<speed>0.080000</speed>
</trkpt>
<trkpt lat="42.886295" lon="19.679502">
<ele>1731.610352</ele>
<time>2012-04-30T17:01:40Z</time>
<desc>lat.=42.886295, lon.=19.679502, Alt.=1731.610352m. Speed=6.948000m/h.</desc>
<speed>1.930000</speed>
</trkpt>
<trkpt lat="42.886372" lon="19.679649">
<ele>1732.016602</ele>
<time>2012-04-30T17:01:45Z</time>
<desc>lat.=42.886372, lon.=19.679649, Alt.=1732.016602m. Speed=7.236000m/h.</desc>
<speed>2.010000</speed>
</trkpt>
<trkpt lat="42.886387" lon="19.679697">
<ele>1731.391602</ele>
<time>2012-04-30T17:01:50Z</time>
<desc>lat.=42.886387, lon.=19.679697, Alt.=1731.391602m. Speed=1.440000m/h.</desc>
<speed>0.400000</speed>
</trkpt>
<trkpt lat="42.886333" lon="19.679798">
<ele>1730.266602</ele>
<time>2012-04-30T17:01:55Z</time>
<desc>lat.=42.886333, lon.=19.679798, Alt.=1730.266602m. Speed=7.344000m/h.</desc>
<speed>2.040000</speed>
</trkpt>
<trkpt lat="42.886391" lon="19.679895">
<ele>1729.172852</ele>
<time>2012-04-30T17:02:00Z</time>
<desc>lat.=42.886391, lon.=19.679895, Alt.=1729.172852m. Speed=7.272000m/h.</desc>
<speed>2.020000</speed>
</trkpt>
<trkpt lat="42.886471" lon="19.679970">
<ele>1727.454102</ele>
<time>2012-04-30T17:02:05Z</time>
<desc>lat.=42.886471, lon.=19.679970, Alt.=1727.454102m. Speed=8.532000m/h.</desc>
<speed>2.370000</speed>
</trkpt>
<trkpt lat="42.886547" lon="19.680075">
<ele>1726.016602</ele>
<time>2012-04-30T17:02:10Z</time>
<desc>lat.=42.886547, lon.=19.680075, Alt.=1726.016602m. Speed=8.352000m/h.</desc>
<speed>2.320000</speed>
</trkpt>
<trkpt lat="42.886627" lon="19.680145">
<ele>1723.297852</ele>
<time>2012-04-30T17:02:15Z</time>
<desc>lat.=42.886627, lon.=19.680145, Alt.=1723.297852m. Speed=6.120000m/h.</desc>
<speed>1.700000</speed>
</trkpt>
<trkpt lat="42.886707" lon="19.680254">
<ele>1722.047852</ele>
<time>2012-04-30T17:02:20Z</time>
<desc>lat.=42.886707, lon.=19.680254, Alt.=1722.047852m. Speed=11.808000m/h.</desc>
<speed>3.280000</speed>
</trkpt>
<trkpt lat="42.886787" lon="19.680376">
<ele>1720.485352</ele>
<time>2012-04-30T17:02:25Z</time>
<desc>lat.=42.886787, lon.=19.680376, Alt.=1720.485352m. Speed=9.144000m/h.</desc>
<speed>2.540000</speed>
</trkpt>
<trkpt lat="42.886833" lon="19.680433">
<ele>1717.016602</ele>
<time>2012-04-30T17:02:30Z</time>
<desc>lat.=42.886833, lon.=19.680433, Alt.=1717.016602m. Speed=0.756000m/h.</desc>
<speed>0.210000</speed>
</trkpt>
<trkpt lat="42.886841" lon="19.680441">
<ele>1717.141602</ele>
<time>2012-04-30T17:02:35Z</time>
<desc>lat.=42.886841, lon.=19.680441, Alt.=1717.141602m. Speed=4.068000m/h.</desc>
<speed>1.130000</speed>
</trkpt>
<trkpt lat="42.886845" lon="19.680557">
<ele>1717.547852</ele>
<time>2012-04-30T17:02:40Z</time>
<desc>lat.=42.886845, lon.=19.680557, Alt.=1717.547852m. Speed=9.720000m/h.</desc>
<speed>2.700000</speed>
</trkpt>
<trkpt lat="42.886963" lon="19.680656">
<ele>1715.860352</ele>
<time>2012-04-30T17:02:45Z</time>
<desc>lat.=42.886963, lon.=19.680656, Alt.=1715.860352m. Speed=14.076000m/h.</desc>
<speed>3.910000</speed>
</trkpt>
<trkpt lat="42.887138" lon="19.680773">
<ele>1709.547852</ele>
<time>2012-04-30T17:02:50Z</time>
<desc>lat.=42.887138, lon.=19.680773, Alt.=1709.547852m. Speed=14.004000m/h.</desc>
<speed>3.890000</speed>
</trkpt>
<trkpt lat="42.887283" lon="19.680803">
<ele>1706.110352</ele>
<time>2012-04-30T17:02:55Z</time>
<desc>lat.=42.887283, lon.=19.680803, Alt.=1706.110352m. Speed=7.596000m/h.</desc>
<speed>2.110000</speed>
</trkpt>
<trkpt lat="42.887455" lon="19.680849">
<ele>1703.204102</ele>
<time>2012-04-30T17:03:00Z</time>
<desc>lat.=42.887455, lon.=19.680849, Alt.=1703.204102m. Speed=14.508000m/h.</desc>
<speed>4.030000</speed>
</trkpt>
<trkpt lat="42.887516" lon="19.680975">
<ele>1699.766602</ele>
<time>2012-04-30T17:03:05Z</time>
<desc>lat.=42.887516, lon.=19.680975, Alt.=1699.766602m. Speed=6.228000m/h.</desc>
<speed>1.730000</speed>
</trkpt>
<trkpt lat="42.887520" lon="19.681053">
<ele>1696.422852</ele>
<time>2012-04-30T17:03:10Z</time>
<desc>lat.=42.887520, lon.=19.681053, Alt.=1696.422852m. Speed=5.364000m/h.</desc>
<speed>1.490000</speed>
</trkpt>
<trkpt lat="42.887600" lon="19.681105">
<ele>1692.672852</ele>
<time>2012-04-30T17:03:15Z</time>
<desc>lat.=42.887600, lon.=19.681105, Alt.=1692.672852m. Speed=6.804000m/h.</desc>
<speed>1.890000</speed>
</trkpt>
<trkpt lat="42.887646" lon="19.681152">
<ele>1689.735352</ele>
<time>2012-04-30T17:03:20Z</time>
<desc>lat.=42.887646, lon.=19.681152, Alt.=1689.735352m. Speed=5.760000m/h.</desc>
<speed>1.600000</speed>
</trkpt>
<trkpt lat="42.887703" lon="19.681185">
<ele>1687.047852</ele>
<time>2012-04-30T17:03:25Z</time>
<desc>lat.=42.887703, lon.=19.681185, Alt.=1687.047852m. Speed=1.260000m/h.</desc>
<speed>0.350000</speed>
</trkpt>
<trkpt lat="42.887711" lon="19.681194">
<ele>1684.797852</ele>
<time>2012-04-30T17:03:30Z</time>
<desc>lat.=42.887711, lon.=19.681194, Alt.=1684.797852m. Speed=1.188000m/h.</desc>
<speed>0.330000</speed>
</trkpt>
<trkpt lat="42.887726" lon="19.681211">
<ele>1683.172852</ele>
<time>2012-04-30T17:03:35Z</time>
<desc>lat.=42.887726, lon.=19.681211, Alt.=1683.172852m. Speed=2.880000m/h.</desc>
<speed>0.800000</speed>
</trkpt>
<trkpt lat="42.887749" lon="19.681223">
<ele>1681.672852</ele>
<time>2012-04-30T17:03:40Z</time>
<desc>lat.=42.887749, lon.=19.681223, Alt.=1681.672852m. Speed=3.168000m/h.</desc>
<speed>0.880000</speed>
</trkpt>
<trkpt lat="42.887802" lon="19.681238">
<ele>1680.985352</ele>
<time>2012-04-30T17:03:45Z</time>
<desc>lat.=42.887802, lon.=19.681238, Alt.=1680.985352m. Speed=5.292000m/h.</desc>
<speed>1.470000</speed>
</trkpt>
<trkpt lat="42.887852" lon="19.681215">
<ele>1681.110352</ele>
<time>2012-04-30T17:03:50Z</time>
<desc>lat.=42.887852, lon.=19.681215, Alt.=1681.110352m. Speed=3.168000m/h.</desc>
<speed>0.880000</speed>
</trkpt>
<trkpt lat="42.887905" lon="19.681181">
<ele>1681.735352</ele>
<time>2012-04-30T17:03:55Z</time>
<desc>lat.=42.887905, lon.=19.681181, Alt.=1681.735352m. Speed=3.168000m/h.</desc>
<speed>0.880000</speed>
</trkpt>
<trkpt lat="42.887928" lon="19.681139">
<ele>1682.579102</ele>
<time>2012-04-30T17:04:00Z</time>
<desc>lat.=42.887928, lon.=19.681139, Alt.=1682.579102m. Speed=1.656000m/h.</desc>
<speed>0.460000</speed>
</trkpt>
<trkpt lat="42.887947" lon="19.681116">
<ele>1682.360352</ele>
<time>2012-04-30T17:04:05Z</time>
<desc>lat.=42.887947, lon.=19.681116, Alt.=1682.360352m. Speed=0.684000m/h.</desc>
<speed>0.190000</speed>
</trkpt>
<trkpt lat="42.887959" lon="19.681114">
<ele>1683.235352</ele>
<time>2012-04-30T17:04:10Z</time>
<desc>lat.=42.887959, lon.=19.681114, Alt.=1683.235352m. Speed=0.828000m/h.</desc>
<speed>0.230000</speed>
</trkpt>
<trkpt lat="42.887962" lon="19.681116">
<ele>1684.329102</ele>
<time>2012-04-30T17:04:15Z</time>
<desc>lat.=42.887962, lon.=19.681116, Alt.=1684.329102m. Speed=1.476000m/h.</desc>
<speed>0.410000</speed>
</trkpt>
<trkpt lat="42.888000" lon="19.681051">
<ele>1685.141602</ele>
<time>2012-04-30T17:04:20Z</time>
<desc>lat.=42.888000, lon.=19.681051, Alt.=1685.141602m. Speed=3.024000m/h.</desc>
<speed>0.840000</speed>
</trkpt>
<trkpt lat="42.888046" lon="19.681042">
<ele>1685.266602</ele>
<time>2012-04-30T17:04:25Z</time>
<desc>lat.=42.888046, lon.=19.681042, Alt.=1685.266602m. Speed=2.376000m/h.</desc>
<speed>0.660000</speed>
</trkpt>
<trkpt lat="42.888073" lon="19.681057">
<ele>1685.110352</ele>
<time>2012-04-30T17:04:30Z</time>
<desc>lat.=42.888073, lon.=19.681057, Alt.=1685.110352m. Speed=4.680000m/h.</desc>
<speed>1.300000</speed>
</trkpt>
<trkpt lat="42.888172" lon="19.681080">
<ele>1684.954102</ele>
<time>2012-04-30T17:04:35Z</time>
<desc>lat.=42.888172, lon.=19.681080, Alt.=1684.954102m. Speed=7.884000m/h.</desc>
<speed>2.190000</speed>
</trkpt>
<trkpt lat="42.888252" lon="19.681162">
<ele>1685.672852</ele>
<time>2012-04-30T17:04:40Z</time>
<desc>lat.=42.888252, lon.=19.681162, Alt.=1685.672852m. Speed=8.964000m/h.</desc>
<speed>2.490000</speed>
</trkpt>
<trkpt lat="42.888294" lon="19.681377">
<ele>1686.704102</ele>
<time>2012-04-30T17:04:45Z</time>
<desc>lat.=42.888294, lon.=19.681377, Alt.=1686.704102m. Speed=16.740000m/h.</desc>
<speed>4.650000</speed>
</trkpt>
<trkpt lat="42.888309" lon="19.681694">
<ele>1687.641602</ele>
<time>2012-04-30T17:04:50Z</time>
<desc>lat.=42.888309, lon.=19.681694, Alt.=1687.641602m. Speed=19.296000m/h.</desc>
<speed>5.360000</speed>
</trkpt>
<trkpt lat="42.888332" lon="19.682072">
<ele>1689.047852</ele>
<time>2012-04-30T17:04:55Z</time>
<desc>lat.=42.888332, lon.=19.682072, Alt.=1689.047852m. Speed=21.204000m/h.</desc>
<speed>5.890000</speed>
</trkpt>
<trkpt lat="42.888382" lon="19.682405">
<ele>1689.610352</ele>
<time>2012-04-30T17:05:00Z</time>
<desc>lat.=42.888382, lon.=19.682405, Alt.=1689.610352m. Speed=17.892000m/h.</desc>
<speed>4.970000</speed>
</trkpt>
<trkpt lat="42.888424" lon="19.682636">
<ele>1690.579102</ele>
<time>2012-04-30T17:05:05Z</time>
<desc>lat.=42.888424, lon.=19.682636, Alt.=1690.579102m. Speed=7.812000m/h.</desc>
<speed>2.170000</speed>
</trkpt>
<trkpt lat="42.888458" lon="19.682760">
<ele>1690.985352</ele>
<time>2012-04-30T17:05:10Z</time>
<desc>lat.=42.888458, lon.=19.682760, Alt.=1690.985352m. Speed=7.272000m/h.</desc>
<speed>2.020000</speed>
</trkpt>
<trkpt lat="42.888504" lon="19.682865">
<ele>1690.891602</ele>
<time>2012-04-30T17:05:15Z</time>
<desc>lat.=42.888504, lon.=19.682865, Alt.=1690.891602m. Speed=6.264000m/h.</desc>
<speed>1.740000</speed>
</trkpt>
<trkpt lat="42.888531" lon="19.682974">
<ele>1689.641602</ele>
<time>2012-04-30T17:05:20Z</time>
<desc>lat.=42.888531, lon.=19.682974, Alt.=1689.641602m. Speed=7.992000m/h.</desc>
<speed>2.220000</speed>
</trkpt>
<trkpt lat="42.888573" lon="19.683123">
<ele>1689.141602</ele>
<time>2012-04-30T17:05:25Z</time>
<desc>lat.=42.888573, lon.=19.683123, Alt.=1689.141602m. Speed=9.000000m/h.</desc>
<speed>2.500000</speed>
</trkpt>
<trkpt lat="42.888615" lon="19.683264">
<ele>1686.579102</ele>
<time>2012-04-30T17:05:30Z</time>
<desc>lat.=42.888615, lon.=19.683264, Alt.=1686.579102m. Speed=8.460000m/h.</desc>
<speed>2.350000</speed>
</trkpt>
<trkpt lat="42.888710" lon="19.683403">
<ele>1684.204102</ele>
<time>2012-04-30T17:05:35Z</time>
<desc>lat.=42.888710, lon.=19.683403, Alt.=1684.204102m. Speed=14.472000m/h.</desc>
<speed>4.020000</speed>
</trkpt>
<trkpt lat="42.888874" lon="19.683517">
<ele>1682.016602</ele>
<time>2012-04-30T17:05:40Z</time>
<desc>lat.=42.888874, lon.=19.683517, Alt.=1682.016602m. Speed=12.852000m/h.</desc>
<speed>3.570000</speed>
</trkpt>
<trkpt lat="42.888954" lon="19.683636">
<ele>1680.485352</ele>
<time>2012-04-30T17:05:45Z</time>
<desc>lat.=42.888954, lon.=19.683636, Alt.=1680.485352m. Speed=9.864000m/h.</desc>
<speed>2.740000</speed>
</trkpt>
<trkpt lat="42.889011" lon="19.683809">
<ele>1678.860352</ele>
<time>2012-04-30T17:05:50Z</time>
<desc>lat.=42.889011, lon.=19.683809, Alt.=1678.860352m. Speed=12.276000m/h.</desc>
<speed>3.410000</speed>
</trkpt>
<trkpt lat="42.889088" lon="19.683979">
<ele>1680.422852</ele>
<time>2012-04-30T17:05:55Z</time>
<desc>lat.=42.889088, lon.=19.683979, Alt.=1680.422852m. Speed=9.756000m/h.</desc>
<speed>2.710000</speed>
</trkpt>
<trkpt lat="42.889145" lon="19.684118">
<ele>1681.391602</ele>
<time>2012-04-30T17:06:00Z</time>
<desc>lat.=42.889145, lon.=19.684118, Alt.=1681.391602m. Speed=8.640000m/h.</desc>
<speed>2.400000</speed>
</trkpt>
<trkpt lat="42.889183" lon="19.684231">
<ele>1680.579102</ele>
<time>2012-04-30T17:06:05Z</time>
<desc>lat.=42.889183, lon.=19.684231, Alt.=1680.579102m. Speed=8.640000m/h.</desc>
<speed>2.400000</speed>
</trkpt>
<trkpt lat="42.889191" lon="19.684370">
<ele>1679.266602</ele>
<time>2012-04-30T17:06:10Z</time>
<desc>lat.=42.889191, lon.=19.684370, Alt.=1679.266602m. Speed=7.848000m/h.</desc>
<speed>2.180000</speed>
</trkpt>
<trkpt lat="42.889191" lon="19.684483">
<ele>1678.141602</ele>
<time>2012-04-30T17:06:15Z</time>
<desc>lat.=42.889191, lon.=19.684483, Alt.=1678.141602m. Speed=5.796000m/h.</desc>
<speed>1.610000</speed>
</trkpt>
<trkpt lat="42.889160" lon="19.684563">
<ele>1677.485352</ele>
<time>2012-04-30T17:06:20Z</time>
<desc>lat.=42.889160, lon.=19.684563, Alt.=1677.485352m. Speed=3.240000m/h.</desc>
<speed>0.900000</speed>
</trkpt>
<trkpt lat="42.889164" lon="19.684597">
<ele>1675.485352</ele>
<time>2012-04-30T17:06:25Z</time>
<desc>lat.=42.889164, lon.=19.684597, Alt.=1675.485352m. Speed=4.680000m/h.</desc>
<speed>1.300000</speed>
</trkpt>
<trkpt lat="42.889172" lon="19.684637">
<ele>1675.391602</ele>
<time>2012-04-30T17:06:30Z</time>
<desc>lat.=42.889172, lon.=19.684637, Alt.=1675.391602m. Speed=0.360000m/h.</desc>
<speed>0.100000</speed>
</trkpt>
<trkpt lat="42.889168" lon="19.684643">
<ele>1676.985352</ele>
<time>2012-04-30T17:06:35Z</time>
<desc>lat.=42.889168, lon.=19.684643, Alt.=1676.985352m. Speed=0.144000m/h.</desc>
<speed>0.040000</speed>
</trkpt>
<trkpt lat="42.889168" lon="19.684649">
<ele>1677.016602</ele>
<time>2012-04-30T17:06:40Z</time>
<desc>lat.=42.889168, lon.=19.684649, Alt.=1677.016602m. Speed=0.396000m/h.</desc>
<speed>0.110000</speed>
</trkpt>
<trkpt lat="42.889168" lon="19.684649">
<ele>1677.016602</ele>
<time>2012-04-30T17:06:45Z</time>
<desc>lat.=42.889168, lon.=19.684649, Alt.=1677.016602m. Speed=0.216000m/h.</desc>
<speed>0.060000</speed>
</trkpt>
<trkpt lat="42.889168" lon="19.684649">
<ele>1677.047852</ele>
<time>2012-04-30T17:06:50Z</time>
<desc>lat.=42.889168, lon.=19.684649, Alt.=1677.047852m. Speed=0.180000m/h.</desc>
<speed>0.050000</speed>
</trkpt>
<trkpt lat="42.889168" lon="19.684647">
<ele>1677.079102</ele>
<time>2012-04-30T17:06:55Z</time>
<desc>lat.=42.889168, lon.=19.684647, Alt.=1677.079102m. Speed=0.000000m/h.</desc>
<speed>0.000000</speed>
</trkpt>
<trkpt lat="42.889168" lon="19.684647">
<ele>1677.079102</ele>
<time>2012-04-30T17:07:00Z</time>
<desc>lat.=42.889168, lon.=19.684647, Alt.=1677.079102m. Speed=0.036000m/h.</desc>
<speed>0.010000</speed>
</trkpt>
<trkpt lat="42.889168" lon="19.684647">
<ele>1677.016602</ele>
<time>2012-04-30T17:07:05Z</time>
<desc>lat.=42.889168, lon.=19.684647, Alt.=1677.016602m. Speed=1.116000m/h.</desc>
<speed>0.310000</speed>
</trkpt>
<trkpt lat="42.889191" lon="19.684706">
<ele>1677.110352</ele>
<time>2012-04-30T17:07:10Z</time>
<desc>lat.=42.889191, lon.=19.684706, Alt.=1677.110352m. Speed=4.932000m/h.</desc>
<speed>1.370000</speed>
</trkpt>
<trkpt lat="42.889252" lon="19.684757">
<ele>1675.829102</ele>
<time>2012-04-30T17:07:15Z</time>
<desc>lat.=42.889252, lon.=19.684757, Alt.=1675.829102m. Speed=6.120000m/h.</desc>
<speed>1.700000</speed>
</trkpt>
<trkpt lat="42.889301" lon="19.684809">
<ele>1675.297852</ele>
<time>2012-04-30T17:07:20Z</time>
<desc>lat.=42.889301, lon.=19.684809, Alt.=1675.297852m. Speed=4.716000m/h.</desc>
<speed>1.310000</speed>
</trkpt>
<trkpt lat="42.889328" lon="19.684856">
<ele>1676.485352</ele>
<time>2012-04-30T17:07:25Z</time>
<desc>lat.=42.889328, lon.=19.684856, Alt.=1676.485352m. Speed=2.412000m/h.</desc>
<speed>0.670000</speed>
</trkpt>
<trkpt lat="42.889355" lon="19.684885">
<ele>1677.735352</ele>
<time>2012-04-30T17:07:30Z</time>
<desc>lat.=42.889355, lon.=19.684885, Alt.=1677.735352m. Speed=3.852000m/h.</desc>
<speed>1.070000</speed>
</trkpt>
<trkpt lat="42.889400" lon="19.684965">
<ele>1675.297852</ele>
<time>2012-04-30T17:07:35Z</time>
<desc>lat.=42.889400, lon.=19.684965, Alt.=1675.297852m. Speed=6.300000m/h.</desc>
<speed>1.750000</speed>
</trkpt>
<trkpt lat="42.889400" lon="19.685007">
<ele>1674.797852</ele>
<time>2012-04-30T17:07:40Z</time>
<desc>lat.=42.889400, lon.=19.685007, Alt.=1674.797852m. Speed=0.216000m/h.</desc>
<speed>0.060000</speed>
</trkpt>
<trkpt lat="42.889393" lon="19.685011">
<ele>1674.922852</ele>
<time>2012-04-30T17:07:45Z</time>
<desc>lat.=42.889393, lon.=19.685011, Alt.=1674.922852m. Speed=1.728000m/h.</desc>
<speed>0.480000</speed>
</trkpt>
<trkpt lat="42.889400" lon="19.685009">
<ele>1674.735352</ele>
<time>2012-04-30T17:07:50Z</time>
<desc>lat.=42.889400, lon.=19.685009, Alt.=1674.735352m. Speed=0.540000m/h.</desc>
<speed>0.150000</speed>
</trkpt>
<trkpt lat="42.889404" lon="19.685003">
<ele>1674.579102</ele>
<time>2012-04-30T17:07:55Z</time>
<desc>lat.=42.889404, lon.=19.685003, Alt.=1674.579102m. Speed=0.000000m/h.</desc>
<speed>0.000000</speed>
</trkpt>
<trkpt lat="42.889404" lon="19.685003">
<ele>1674.547852</ele>
<time>2012-04-30T17:08:00Z</time>
<desc>lat.=42.889404, lon.=19.685003, Alt.=1674.547852m. Speed=0.072000m/h.</desc>
<speed>0.020000</speed>
</trkpt>
<trkpt lat="42.889404" lon="19.685003">
<ele>1674.516602</ele>
<time>2012-04-30T17:08:05Z</time>
<desc>lat.=42.889404, lon.=19.685003, Alt.=1674.516602m. Speed=0.036000m/h.</desc>
<speed>0.010000</speed>
</trkpt>
<trkpt lat="42.889404" lon="19.685003">
<ele>1674.516602</ele>
<time>2012-04-30T17:08:10Z</time>
<desc>lat.=42.889404, lon.=19.685003, Alt.=1674.516602m. Speed=0.000000m/h.</desc>
<speed>0.000000</speed>
</trkpt>
<trkpt lat="42.889404" lon="19.685003">
<ele>1674.485352</ele>
<time>2012-04-30T17:08:15Z</time>
<desc>lat.=42.889404, lon.=19.685003, Alt.=1674.485352m. Speed=0.000000m/h.</desc>
<speed>0.000000</speed>
</trkpt>
<trkpt lat="42.889404" lon="19.685003">
<ele>1674.485352</ele>
<time>2012-04-30T17:08:20Z</time>
<desc>lat.=42.889404, lon.=19.685003, Alt.=1674.485352m. Speed=0.000000m/h.</desc>
<speed>0.000000</speed>
</trkpt>
<trkpt lat="42.889404" lon="19.685003">
<ele>1674.516602</ele>
<time>2012-04-30T17:08:25Z</time>
<desc>lat.=42.889404, lon.=19.685003, Alt.=1674.516602m. Speed=0.000000m/h.</desc>
<speed>0.000000</speed>
</trkpt>
<trkpt lat="42.889404" lon="19.685003">
<ele>1674.547852</ele>
<time>2012-04-30T17:08:30Z</time>
<desc>lat.=42.889404, lon.=19.685003, Alt.=1674.547852m. Speed=0.000000m/h.</desc>
<speed>0.000000</speed>
</trkpt>
<trkpt lat="42.889404" lon="19.685003">
<ele>1674.516602</ele>
<time>2012-04-30T17:08:35Z</time>
<desc>lat.=42.889404, lon.=19.685003, Alt.=1674.516602m. Speed=0.036000m/h.</desc>
<speed>0.010000</speed>
</trkpt>
<trkpt lat="42.889404" lon="19.685003">
<ele>1674.579102</ele>
<time>2012-04-30T17:08:40Z</time>
<desc>lat.=42.889404, lon.=19.685003, Alt.=1674.579102m. Speed=0.036000m/h.</desc>
<speed>0.010000</speed>
</trkpt>
<trkpt lat="42.889404" lon="19.685003">
<ele>1674.579102</ele>
<time>2012-04-30T17:08:45Z</time>
<desc>lat.=42.889404, lon.=19.685003, Alt.=1674.579102m. Speed=0.000000m/h.</desc>
<speed>0.000000</speed>
</trkpt>
<trkpt lat="42.889404" lon="19.685003">
<ele>1674.610352</ele>
<time>2012-04-30T17:08:50Z</time>
<desc>lat.=42.889404, lon.=19.685003, Alt.=1674.610352m. Speed=0.000000m/h.</desc>
<speed>0.000000</speed>
</trkpt>
<trkpt lat="42.889404" lon="19.685003">
<ele>1674.641602</ele>
<time>2012-04-30T17:08:55Z</time>
<desc>lat.=42.889404, lon.=19.685003, Alt.=1674.641602m. Speed=0.000000m/h.</desc>
<speed>0.000000</speed>
</trkpt>
<trkpt lat="42.889404" lon="19.685003">
<ele>1674.641602</ele>
<time>2012-04-30T17:09:00Z</time>
<desc>lat.=42.889404, lon.=19.685003, Alt.=1674.641602m. Speed=0.000000m/h.</desc>
<speed>0.000000</speed>
</trkpt>
<trkpt lat="42.889404" lon="19.685003">
<ele>1674.641602</ele>
<time>2012-04-30T17:09:05Z</time>
<desc>lat.=42.889404, lon.=19.685003, Alt.=1674.641602m. Speed=0.000000m/h.</desc>
<speed>0.000000</speed>
</trkpt>
<trkpt lat="42.889404" lon="19.685003">
<ele>1674.672852</ele>
<time>2012-04-30T17:09:10Z</time>
<desc>lat.=42.889404, lon.=19.685003, Alt.=1674.672852m. Speed=0.684000m/h.</desc>
<speed>0.190000</speed>
</trkpt>
<trkpt lat="42.889473" lon="19.685104">
<ele>1673.547852</ele>
<time>2012-04-30T17:09:15Z</time>
<desc>lat.=42.889473, lon.=19.685104, Alt.=1673.547852m. Speed=12.240000m/h.</desc>
<speed>3.400000</speed>
</trkpt>
<trkpt lat="42.889553" lon="19.685238">
<ele>1671.172852</ele>
<time>2012-04-30T17:09:20Z</time>
<desc>lat.=42.889553, lon.=19.685238, Alt.=1671.172852m. Speed=10.152000m/h.</desc>
<speed>2.820000</speed>
</trkpt>
<trkpt lat="42.889641" lon="19.685392">
<ele>1669.047852</ele>
<time>2012-04-30T17:09:25Z</time>
<desc>lat.=42.889641, lon.=19.685392, Alt.=1669.047852m. Speed=12.420000m/h.</desc>
<speed>3.450000</speed>
</trkpt>
<trkpt lat="42.889751" lon="19.685511">
<ele>1667.860352</ele>
<time>2012-04-30T17:09:30Z</time>
<desc>lat.=42.889751, lon.=19.685511, Alt.=1667.860352m. Speed=9.468000m/h.</desc>
<speed>2.630000</speed>
</trkpt>
<trkpt lat="42.889843" lon="19.685572">
<ele>1666.766602</ele>
<time>2012-04-30T17:09:35Z</time>
<desc>lat.=42.889843, lon.=19.685572, Alt.=1666.766602m. Speed=2.916000m/h.</desc>
<speed>0.810000</speed>
</trkpt>
<trkpt lat="42.889912" lon="19.685564">
<ele>1667.172852</ele>
<time>2012-04-30T17:09:40Z</time>
<desc>lat.=42.889912, lon.=19.685564, Alt.=1667.172852m. Speed=8.568000m/h.</desc>
<speed>2.380000</speed>
</trkpt>
<trkpt lat="42.890018" lon="19.685577">
<ele>1666.579102</ele>
<time>2012-04-30T17:09:45Z</time>
<desc>lat.=42.890018, lon.=19.685577, Alt.=1666.579102m. Speed=8.172000m/h.</desc>
<speed>2.270000</speed>
</trkpt>
<trkpt lat="42.890133" lon="19.685596">
<ele>1665.547852</ele>
<time>2012-04-30T17:09:50Z</time>
<desc>lat.=42.890133, lon.=19.685596, Alt.=1665.547852m. Speed=9.252000m/h.</desc>
<speed>2.570000</speed>
</trkpt>
<trkpt lat="42.890186" lon="19.685633">
<ele>1666.266602</ele>
<time>2012-04-30T17:09:55Z</time>
<desc>lat.=42.890186, lon.=19.685633, Alt.=1666.266602m. Speed=1.908000m/h.</desc>
<speed>0.530000</speed>
</trkpt>
<trkpt lat="42.890198" lon="19.685640">
<ele>1667.047852</ele>
<time>2012-04-30T17:10:00Z</time>
<desc>lat.=42.890198, lon.=19.685640, Alt.=1667.047852m. Speed=1.656000m/h.</desc>
<speed>0.460000</speed>
</trkpt>
<trkpt lat="42.890247" lon="19.685692">
<ele>1668.391602</ele>
<time>2012-04-30T17:10:05Z</time>
<desc>lat.=42.890247, lon.=19.685692, Alt.=1668.391602m. Speed=7.776000m/h.</desc>
<speed>2.160000</speed>
</trkpt>
<trkpt lat="42.890327" lon="19.685743">
<ele>1667.297852</ele>
<time>2012-04-30T17:10:10Z</time>
<desc>lat.=42.890327, lon.=19.685743, Alt.=1667.297852m. Speed=7.596000m/h.</desc>
<speed>2.110000</speed>
</trkpt>
<trkpt lat="42.890408" lon="19.685823">
<ele>1665.829102</ele>
<time>2012-04-30T17:10:15Z</time>
<desc>lat.=42.890408, lon.=19.685823, Alt.=1665.829102m. Speed=8.892000m/h.</desc>
<speed>2.470000</speed>
</trkpt>
<trkpt lat="42.890526" lon="19.685953">
<ele>1667.422852</ele>
<time>2012-04-30T17:10:20Z</time>
<desc>lat.=42.890526, lon.=19.685953, Alt.=1667.422852m. Speed=12.600000m/h.</desc>
<speed>3.500000</speed>
</trkpt>
<trkpt lat="42.890625" lon="19.686079">
<ele>1668.141602</ele>
<time>2012-04-30T17:10:25Z</time>
<desc>lat.=42.890625, lon.=19.686079, Alt.=1668.141602m. Speed=8.532000m/h.</desc>
<speed>2.370000</speed>
</trkpt>
<trkpt lat="42.890690" lon="19.686199">
<ele>1666.797852</ele>
<time>2012-04-30T17:10:30Z</time>
<desc>lat.=42.890690, lon.=19.686199, Alt.=1666.797852m. Speed=6.804000m/h.</desc>
<speed>1.890000</speed>
</trkpt>
<trkpt lat="42.890762" lon="19.686333">
<ele>1666.516602</ele>
<time>2012-04-30T17:10:35Z</time>
<desc>lat.=42.890762, lon.=19.686333, Alt.=1666.516602m. Speed=12.276000m/h.</desc>
<speed>3.410000</speed>
</trkpt>
<trkpt lat="42.890835" lon="19.686487">
<ele>1666.454102</ele>
<time>2012-04-30T17:10:40Z</time>
<desc>lat.=42.890835, lon.=19.686487, Alt.=1666.454102m. Speed=7.560000m/h.</desc>
<speed>2.100000</speed>
</trkpt>
<trkpt lat="42.890903" lon="19.686550">
<ele>1666.016602</ele>
<time>2012-04-30T17:10:45Z</time>
<desc>lat.=42.890903, lon.=19.686550, Alt.=1666.016602m. Speed=6.192000m/h.</desc>
<speed>1.720000</speed>
</trkpt>
<trkpt lat="42.890949" lon="19.686558">
<ele>1666.297852</ele>
<time>2012-04-30T17:10:50Z</time>
<desc>lat.=42.890949, lon.=19.686558, Alt.=1666.297852m. Speed=0.288000m/h.</desc>
<speed>0.080000</speed>
</trkpt>
<trkpt lat="42.891026" lon="19.686596">
<ele>1667.485352</ele>
<time>2012-04-30T17:10:55Z</time>
<desc>lat.=42.891026, lon.=19.686596, Alt.=1667.485352m. Speed=10.044000m/h.</desc>
<speed>2.790000</speed>
</trkpt>
<trkpt lat="42.891109" lon="19.686668">
<ele>1668.079102</ele>
<time>2012-04-30T17:11:00Z</time>
<desc>lat.=42.891109, lon.=19.686668, Alt.=1668.079102m. Speed=8.820000m/h.</desc>
<speed>2.450000</speed>
</trkpt>
<trkpt lat="42.891171" lon="19.686796">
<ele>1667.797852</ele>
<time>2012-04-30T17:11:05Z</time>
<desc>lat.=42.891171, lon.=19.686796, Alt.=1667.797852m. Speed=4.536000m/h.</desc>
<speed>1.260000</speed>
</trkpt>
<trkpt lat="42.891228" lon="19.686861">
<ele>1668.735352</ele>
<time>2012-04-30T17:11:10Z</time>
<desc>lat.=42.891228, lon.=19.686861, Alt.=1668.735352m. Speed=1.944000m/h.</desc>
<speed>0.540000</speed>
</trkpt>
<trkpt lat="42.891281" lon="19.686901">
<ele>1669.766602</ele>
<time>2012-04-30T17:11:15Z</time>
<desc>lat.=42.891281, lon.=19.686901, Alt.=1669.766602m. Speed=3.132000m/h.</desc>
<speed>0.870000</speed>
</trkpt>
<trkpt lat="42.891338" lon="19.686935">
<ele>1669.766602</ele>
<time>2012-04-30T17:11:20Z</time>
<desc>lat.=42.891338, lon.=19.686935, Alt.=1669.766602m. Speed=3.492000m/h.</desc>
<speed>0.970000</speed>
</trkpt>
<trkpt lat="42.891418" lon="19.687029">
<ele>1670.829102</ele>
<time>2012-04-30T17:11:25Z</time>
<desc>lat.=42.891418, lon.=19.687029, Alt.=1670.829102m. Speed=5.832000m/h.</desc>
<speed>1.620000</speed>
</trkpt>
<trkpt lat="42.891514" lon="19.687120">
<ele>1669.704102</ele>
<time>2012-04-30T17:11:30Z</time>
<desc>lat.=42.891514, lon.=19.687120, Alt.=1669.704102m. Speed=4.392000m/h.</desc>
<speed>1.220000</speed>
</trkpt>
<trkpt lat="42.891575" lon="19.687180">
<ele>1670.204102</ele>
<time>2012-04-30T17:11:35Z</time>
<desc>lat.=42.891575, lon.=19.687180, Alt.=1670.204102m. Speed=1.224000m/h.</desc>
<speed>0.340000</speed>
</trkpt>
<trkpt lat="42.891663" lon="19.687237">
<ele>1669.891602</ele>
<time>2012-04-30T17:11:40Z</time>
<desc>lat.=42.891663, lon.=19.687237, Alt.=1669.891602m. Speed=3.024000m/h.</desc>
<speed>0.840000</speed>
</trkpt>
<trkpt lat="42.891731" lon="19.687273">
<ele>1669.766602</ele>
<time>2012-04-30T17:11:45Z</time>
<desc>lat.=42.891731, lon.=19.687273, Alt.=1669.766602m. Speed=1.980000m/h.</desc>
<speed>0.550000</speed>
</trkpt>
<trkpt lat="42.891750" lon="19.687302">
<ele>1670.797852</ele>
<time>2012-04-30T17:11:50Z</time>
<desc>lat.=42.891750, lon.=19.687302, Alt.=1670.797852m. Speed=0.144000m/h.</desc>
<speed>0.040000</speed>
</trkpt>
<trkpt lat="42.891750" lon="19.687302">
<ele>1670.485352</ele>
<time>2012-04-30T17:11:55Z</time>
<desc>lat.=42.891750, lon.=19.687302, Alt.=1670.485352m. Speed=0.288000m/h.</desc>
<speed>0.080000</speed>
</trkpt>
<trkpt lat="42.891750" lon="19.687304">
<ele>1670.516602</ele>
<time>2012-04-30T17:12:00Z</time>
<desc>lat.=42.891750, lon.=19.687304, Alt.=1670.516602m. Speed=0.288000m/h.</desc>
<speed>0.080000</speed>
</trkpt>
<trkpt lat="42.891750" lon="19.687304">
<ele>1670.547852</ele>
<time>2012-04-30T17:12:05Z</time>
<desc>lat.=42.891750, lon.=19.687304, Alt.=1670.547852m. Speed=0.108000m/h.</desc>
<speed>0.030000</speed>
</trkpt>
<trkpt lat="42.891750" lon="19.687304">
<ele>1670.547852</ele>
<time>2012-04-30T17:12:10Z</time>
<desc>lat.=42.891750, lon.=19.687304, Alt.=1670.547852m. Speed=0.324000m/h.</desc>
<speed>0.090000</speed>
</trkpt>
<trkpt lat="42.891750" lon="19.687304">
<ele>1670.610352</ele>
<time>2012-04-30T17:12:15Z</time>
<desc>lat.=42.891750, lon.=19.687304, Alt.=1670.610352m. Speed=0.108000m/h.</desc>
<speed>0.030000</speed>
</trkpt>
<trkpt lat="42.891750" lon="19.687304">
<ele>1670.641602</ele>
<time>2012-04-30T17:12:20Z</time>
<desc>lat.=42.891750, lon.=19.687304, Alt.=1670.641602m. Speed=0.072000m/h.</desc>
<speed>0.020000</speed>
</trkpt>
<trkpt lat="42.891750" lon="19.687304">
<ele>1670.672852</ele>
<time>2012-04-30T17:12:25Z</time>
<desc>lat.=42.891750, lon.=19.687304, Alt.=1670.672852m. Speed=0.000000m/h.</desc>
<speed>0.000000</speed>
</trkpt>
<trkpt lat="42.891750" lon="19.687305">
<ele>1670.735352</ele>
<time>2012-04-30T17:12:30Z</time>
<desc>lat.=42.891750, lon.=19.687305, Alt.=1670.735352m. Speed=0.000000m/h.</desc>
<speed>0.000000</speed>
</trkpt>
<trkpt lat="42.891750" lon="19.687305">
<ele>1670.797852</ele>
<time>2012-04-30T17:12:35Z</time>
<desc>lat.=42.891750, lon.=19.687305, Alt.=1670.797852m. Speed=0.072000m/h.</desc>
<speed>0.020000</speed>
</trkpt>
<trkpt lat="42.891773" lon="19.687271">
<ele>1670.641602</ele>
<time>2012-04-30T17:12:40Z</time>
<desc>lat.=42.891773, lon.=19.687271, Alt.=1670.641602m. Speed=5.544000m/h.</desc>
<speed>1.540000</speed>
</trkpt>
<trkpt lat="42.891861" lon="19.687180">
<ele>1670.672852</ele>
<time>2012-04-30T17:12:45Z</time>
<desc>lat.=42.891861, lon.=19.687180, Alt.=1670.672852m. Speed=5.004000m/h.</desc>
<speed>1.390000</speed>
</trkpt>
<trkpt lat="42.891895" lon="19.687107">
<ele>1672.297852</ele>
<time>2012-04-30T17:12:50Z</time>
<desc>lat.=42.891895, lon.=19.687107, Alt.=1672.297852m. Speed=3.888000m/h.</desc>
<speed>1.080000</speed>
</trkpt>
<trkpt lat="42.891926" lon="19.687031">
<ele>1673.485352</ele>
<time>2012-04-30T17:12:55Z</time>
<desc>lat.=42.891926, lon.=19.687031, Alt.=1673.485352m. Speed=0.828000m/h.</desc>
<speed>0.230000</speed>
</trkpt>
<trkpt lat="42.891983" lon="19.686972">
<ele>1673.641602</ele>
<time>2012-04-30T17:13:00Z</time>
<desc>lat.=42.891983, lon.=19.686972, Alt.=1673.641602m. Speed=2.412000m/h.</desc>
<speed>0.670000</speed>
</trkpt>
<trkpt lat="42.891998" lon="19.686962">
<ele>1675.672852</ele>
<time>2012-04-30T17:13:05Z</time>
<desc>lat.=42.891998, lon.=19.686962, Alt.=1675.672852m. Speed=1.188000m/h.</desc>
<speed>0.330000</speed>
</trkpt>
<trkpt lat="42.892036" lon="19.686930">
<ele>1675.766602</ele>
<time>2012-04-30T17:13:10Z</time>
<desc>lat.=42.892036, lon.=19.686930, Alt.=1675.766602m. Speed=1.944000m/h.</desc>
<speed>0.540000</speed>
</trkpt>
<trkpt lat="42.892067" lon="19.686871">
<ele>1676.610352</ele>
<time>2012-04-30T17:13:15Z</time>
<desc>lat.=42.892067, lon.=19.686871, Alt.=1676.610352m. Speed=2.556000m/h.</desc>
<speed>0.710000</speed>
</trkpt>
<trkpt lat="42.892078" lon="19.686827">
<ele>1677.329102</ele>
<time>2012-04-30T17:13:20Z</time>
<desc>lat.=42.892078, lon.=19.686827, Alt.=1677.329102m. Speed=1.512000m/h.</desc>
<speed>0.420000</speed>
</trkpt>
<trkpt lat="42.892071" lon="19.686766">
<ele>1678.172852</ele>
<time>2012-04-30T17:13:25Z</time>
<desc>lat.=42.892071, lon.=19.686766, Alt.=1678.172852m. Speed=1.080000m/h.</desc>
<speed>0.300000</speed>
</trkpt>
<trkpt lat="42.892082" lon="19.686741">
<ele>1679.141602</ele>
<time>2012-04-30T17:13:30Z</time>
<desc>lat.=42.892082, lon.=19.686741, Alt.=1679.141602m. Speed=1.152000m/h.</desc>
<speed>0.320000</speed>
</trkpt>
<trkpt lat="42.892109" lon="19.686689">
<ele>1679.610352</ele>
<time>2012-04-30T17:13:35Z</time>
<desc>lat.=42.892109, lon.=19.686689, Alt.=1679.610352m. Speed=1.440000m/h.</desc>
<speed>0.400000</speed>
</trkpt>
<trkpt lat="42.892155" lon="19.686726">
<ele>1680.047852</ele>
<time>2012-04-30T17:13:40Z</time>
<desc>lat.=42.892155, lon.=19.686726, Alt.=1680.047852m. Speed=2.376000m/h.</desc>
<speed>0.660000</speed>
</trkpt>
<trkpt lat="42.892223" lon="19.686686">
<ele>1680.672852</ele>
<time>2012-04-30T17:13:45Z</time>
<desc>lat.=42.892223, lon.=19.686686, Alt.=1680.672852m. Speed=2.772000m/h.</desc>
<speed>0.770000</speed>
</trkpt>
<trkpt lat="42.892250" lon="19.686615">
<ele>1681.235352</ele>
<time>2012-04-30T17:13:50Z</time>
<desc>lat.=42.892250, lon.=19.686615, Alt.=1681.235352m. Speed=2.808000m/h.</desc>
<speed>0.780000</speed>
</trkpt>
<trkpt lat="42.892292" lon="19.686611">
<ele>1681.797852</ele>
<time>2012-04-30T17:13:55Z</time>
<desc>lat.=42.892292, lon.=19.686611, Alt.=1681.797852m. Speed=1.872000m/h.</desc>
<speed>0.520000</speed>
</trkpt>
<trkpt lat="42.892326" lon="19.686611">
<ele>1682.422852</ele>
<time>2012-04-30T17:14:00Z</time>
<desc>lat.=42.892326, lon.=19.686611, Alt.=1682.422852m. Speed=2.196000m/h.</desc>
<speed>0.610000</speed>
</trkpt>
<trkpt lat="42.892330" lon="19.686621">
<ele>1681.610352</ele>
<time>2012-04-30T17:14:05Z</time>
<desc>lat.=42.892330, lon.=19.686621, Alt.=1681.610352m. Speed=1.224000m/h.</desc>
<speed>0.340000</speed>
</trkpt>
<trkpt lat="42.892372" lon="19.686630">
<ele>1681.766602</ele>
<time>2012-04-30T17:14:10Z</time>
<desc>lat.=42.892372, lon.=19.686630, Alt.=1681.766602m. Speed=1.728000m/h.</desc>
<speed>0.480000</speed>
</trkpt>
<trkpt lat="42.892433" lon="19.686621">
<ele>1681.766602</ele>
<time>2012-04-30T17:14:15Z</time>
<desc>lat.=42.892433, lon.=19.686621, Alt.=1681.766602m. Speed=2.484000m/h.</desc>
<speed>0.690000</speed>
</trkpt>
<trkpt lat="42.892494" lon="19.686592">
<ele>1679.079102</ele>
<time>2012-04-30T17:14:20Z</time>
<desc>lat.=42.892494, lon.=19.686592, Alt.=1679.079102m. Speed=1.944000m/h.</desc>
<speed>0.540000</speed>
</trkpt>
<trkpt lat="42.892513" lon="19.686550">
<ele>1677.766602</ele>
<time>2012-04-30T17:14:25Z</time>
<desc>lat.=42.892513, lon.=19.686550, Alt.=1677.766602m. Speed=1.800000m/h.</desc>
<speed>0.500000</speed>
</trkpt>
<trkpt lat="42.892548" lon="19.686512">
<ele>1675.235352</ele>
<time>2012-04-30T17:14:30Z</time>
<desc>lat.=42.892548, lon.=19.686512, Alt.=1675.235352m. Speed=1.296000m/h.</desc>
<speed>0.360000</speed>
</trkpt>
<trkpt lat="42.892593" lon="19.686522">
<ele>1672.610352</ele>
<time>2012-04-30T17:14:35Z</time>
<desc>lat.=42.892593, lon.=19.686522, Alt.=1672.610352m. Speed=2.772000m/h.</desc>
<speed>0.770000</speed>
</trkpt>
<trkpt lat="42.892597" lon="19.686506">
<ele>1670.547852</ele>
<time>2012-04-30T17:14:40Z</time>
<desc>lat.=42.892597, lon.=19.686506, Alt.=1670.547852m. Speed=2.952000m/h.</desc>
<speed>0.820000</speed>
</trkpt>
<trkpt lat="42.892658" lon="19.686501">
<ele>1670.047852</ele>
<time>2012-04-30T17:14:45Z</time>
<desc>lat.=42.892658, lon.=19.686501, Alt.=1670.047852m. Speed=3.924000m/h.</desc>
<speed>1.090000</speed>
</trkpt>
<trkpt lat="42.892754" lon="19.686443">
<ele>1667.579102</ele>
<time>2012-04-30T17:14:50Z</time>
<desc>lat.=42.892754, lon.=19.686443, Alt.=1667.579102m. Speed=7.416000m/h.</desc>
<speed>2.060000</speed>
</trkpt>
<trkpt lat="42.892845" lon="19.686378">
<ele>1667.454102</ele>
<time>2012-04-30T17:14:55Z</time>
<desc>lat.=42.892845, lon.=19.686378, Alt.=1667.454102m. Speed=5.364000m/h.</desc>
<speed>1.490000</speed>
</trkpt>
<trkpt lat="42.892994" lon="19.686352">
<ele>1665.891602</ele>
<time>2012-04-30T17:15:00Z</time>
<desc>lat.=42.892994, lon.=19.686352, Alt.=1665.891602m. Speed=23.472000m/h.</desc>
<speed>6.520000</speed>
</trkpt>
<trkpt lat="42.893265" lon="19.686432">
<ele>1661.985352</ele>
<time>2012-04-30T17:15:05Z</time>
<desc>lat.=42.893265, lon.=19.686432, Alt.=1661.985352m. Speed=17.532000m/h.</desc>
<speed>4.870000</speed>
</trkpt>
<trkpt lat="42.893345" lon="19.686495">
<ele>1661.235352</ele>
<time>2012-04-30T17:15:10Z</time>
<desc>lat.=42.893345, lon.=19.686495, Alt.=1661.235352m. Speed=0.288000m/h.</desc>
<speed>0.080000</speed>
</trkpt>
<trkpt lat="42.893345" lon="19.686506">
<ele>1660.766602</ele>
<time>2012-04-30T17:15:15Z</time>
<desc>lat.=42.893345, lon.=19.686506, Alt.=1660.766602m. Speed=4.428000m/h.</desc>
<speed>1.230000</speed>
</trkpt>
<trkpt lat="42.893383" lon="19.686550">
<ele>1660.235352</ele>
<time>2012-04-30T17:15:20Z</time>
<desc>lat.=42.893383, lon.=19.686550, Alt.=1660.235352m. Speed=4.572000m/h.</desc>
<speed>1.270000</speed>
</trkpt>
<trkpt lat="42.893421" lon="19.686604">
<ele>1660.016602</ele>
<time>2012-04-30T17:15:25Z</time>
<desc>lat.=42.893421, lon.=19.686604, Alt.=1660.016602m. Speed=2.484000m/h.</desc>
<speed>0.690000</speed>
</trkpt>
<trkpt lat="42.893459" lon="19.686638">
<ele>1659.829102</ele>
<time>2012-04-30T17:15:30Z</time>
<desc>lat.=42.893459, lon.=19.686638, Alt.=1659.829102m. Speed=4.716000m/h.</desc>
<speed>1.310000</speed>
</trkpt>
<trkpt lat="42.893490" lon="19.686686">
<ele>1659.860352</ele>
<time>2012-04-30T17:15:35Z</time>
<desc>lat.=42.893490, lon.=19.686686, Alt.=1659.860352m. Speed=4.644000m/h.</desc>
<speed>1.290000</speed>
</trkpt>
<trkpt lat="42.893532" lon="19.686729">
<ele>1660.047852</ele>
<time>2012-04-30T17:15:40Z</time>
<desc>lat.=42.893532, lon.=19.686729, Alt.=1660.047852m. Speed=5.076000m/h.</desc>
<speed>1.410000</speed>
</trkpt>
<trkpt lat="42.893585" lon="19.686769">
<ele>1659.797852</ele>
<time>2012-04-30T17:15:45Z</time>
<desc>lat.=42.893585, lon.=19.686769, Alt.=1659.797852m. Speed=3.852000m/h.</desc>
<speed>1.070000</speed>
</trkpt>
<trkpt lat="42.893631" lon="19.686798">
<ele>1659.610352</ele>
<time>2012-04-30T17:15:50Z</time>
<desc>lat.=42.893631, lon.=19.686798, Alt.=1659.610352m. Speed=4.428000m/h.</desc>
<speed>1.230000</speed>
</trkpt>
<trkpt lat="42.893684" lon="19.686810">
<ele>1660.485352</ele>
<time>2012-04-30T17:15:55Z</time>
<desc>lat.=42.893684, lon.=19.686810, Alt.=1660.485352m. Speed=4.428000m/h.</desc>
<speed>1.230000</speed>
</trkpt>
<trkpt lat="42.893711" lon="19.686806">
<ele>1661.860352</ele>
<time>2012-04-30T17:16:00Z</time>
<desc>lat.=42.893711, lon.=19.686806, Alt.=1661.860352m. Speed=3.816000m/h.</desc>
<speed>1.060000</speed>
</trkpt>
<trkpt lat="42.893749" lon="19.686779">
<ele>1662.891602</ele>
<time>2012-04-30T17:16:05Z</time>
<desc>lat.=42.893749, lon.=19.686779, Alt.=1662.891602m. Speed=3.672000m/h.</desc>
<speed>1.020000</speed>
</trkpt>
<trkpt lat="42.893791" lon="19.686737">
<ele>1664.110352</ele>
<time>2012-04-30T17:16:10Z</time>
<desc>lat.=42.893791, lon.=19.686737, Alt.=1664.110352m. Speed=4.140000m/h.</desc>
<speed>1.150000</speed>
</trkpt>
<trkpt lat="42.893837" lon="19.686697">
<ele>1664.766602</ele>
<time>2012-04-30T17:16:15Z</time>
<desc>lat.=42.893837, lon.=19.686697, Alt.=1664.766602m. Speed=3.744000m/h.</desc>
<speed>1.040000</speed>
</trkpt>
<trkpt lat="42.893864" lon="19.686655">
<ele>1665.547852</ele>
<time>2012-04-30T17:16:20Z</time>
<desc>lat.=42.893864, lon.=19.686655, Alt.=1665.547852m. Speed=3.168000m/h.</desc>
<speed>0.880000</speed>
</trkpt>
<trkpt lat="42.893902" lon="19.686594">
<ele>1666.141602</ele>
<time>2012-04-30T17:16:25Z</time>
<desc>lat.=42.893902, lon.=19.686594, Alt.=1666.141602m. Speed=4.608000m/h.</desc>
<speed>1.280000</speed>
</trkpt>
<trkpt lat="42.893936" lon="19.686539">
<ele>1666.422852</ele>
<time>2012-04-30T17:16:30Z</time>
<desc>lat.=42.893936, lon.=19.686539, Alt.=1666.422852m. Speed=4.032000m/h.</desc>
<speed>1.120000</speed>
</trkpt>
<trkpt lat="42.893978" lon="19.686487">
<ele>1666.766602</ele>
<time>2012-04-30T17:16:35Z</time>
<desc>lat.=42.893978, lon.=19.686487, Alt.=1666.766602m. Speed=2.664000m/h.</desc>
<speed>0.740000</speed>
</trkpt>
<trkpt lat="42.893997" lon="19.686474">
<ele>1667.141602</ele>
<time>2012-04-30T17:16:40Z</time>
<desc>lat.=42.893997, lon.=19.686474, Alt.=1667.141602m. Speed=0.468000m/h.</desc>
<speed>0.130000</speed>
</trkpt>
<trkpt lat="42.893997" lon="19.686474">
<ele>1667.485352</ele>
<time>2012-04-30T17:16:45Z</time>
<desc>lat.=42.893997, lon.=19.686474, Alt.=1667.485352m. Speed=0.252000m/h.</desc>
<speed>0.070000</speed>
</trkpt>
<trkpt lat="42.893997" lon="19.686478">
<ele>1667.610352</ele>
<time>2012-04-30T17:16:50Z</time>
<desc>lat.=42.893997, lon.=19.686478, Alt.=1667.610352m. Speed=0.072000m/h.</desc>
<speed>0.020000</speed>
</trkpt>
<trkpt lat="42.893997" lon="19.686480">
<ele>1667.641602</ele>
<time>2012-04-30T17:16:55Z</time>
<desc>lat.=42.893997, lon.=19.686480, Alt.=1667.641602m. Speed=0.144000m/h.</desc>
<speed>0.040000</speed>
</trkpt>
<trkpt lat="42.893997" lon="19.686478">
<ele>1667.672852</ele>
<time>2012-04-30T17:17:00Z</time>
<desc>lat.=42.893997, lon.=19.686478, Alt.=1667.672852m. Speed=0.432000m/h.</desc>
<speed>0.120000</speed>
</trkpt>
<trkpt lat="42.893990" lon="19.686478">
<ele>1667.704102</ele>
<time>2012-04-30T17:17:05Z</time>
<desc>lat.=42.893990, lon.=19.686478, Alt.=1667.704102m. Speed=0.252000m/h.</desc>
<speed>0.070000</speed>
</trkpt>
<trkpt lat="42.893990" lon="19.686481">
<ele>1667.766602</ele>
<time>2012-04-30T17:17:10Z</time>
<desc>lat.=42.893990, lon.=19.686481, Alt.=1667.766602m. Speed=0.396000m/h.</desc>
<speed>0.110000</speed>
</trkpt>
<trkpt lat="42.893990" lon="19.686481">
<ele>1667.766602</ele>
<time>2012-04-30T17:17:15Z</time>
<desc>lat.=42.893990, lon.=19.686481, Alt.=1667.766602m. Speed=0.324000m/h.</desc>
<speed>0.090000</speed>
</trkpt>
<trkpt lat="42.893990" lon="19.686480">
<ele>1667.797852</ele>
<time>2012-04-30T17:17:20Z</time>
<desc>lat.=42.893990, lon.=19.686480, Alt.=1667.797852m. Speed=0.288000m/h.</desc>
<speed>0.080000</speed>
</trkpt>
<trkpt lat="42.893986" lon="19.686481">
<ele>1667.797852</ele>
<time>2012-04-30T17:17:25Z</time>
<desc>lat.=42.893986, lon.=19.686481, Alt.=1667.797852m. Speed=0.468000m/h.</desc>
<speed>0.130000</speed>
</trkpt>
<trkpt lat="42.893986" lon="19.686485">
<ele>1667.797852</ele>
<time>2012-04-30T17:17:30Z</time>
<desc>lat.=42.893986, lon.=19.686485, Alt.=1667.797852m. Speed=0.756000m/h.</desc>
<speed>0.210000</speed>
</trkpt>
<trkpt lat="42.893978" lon="19.686485">
<ele>1667.797852</ele>
<time>2012-04-30T17:17:35Z</time>
<desc>lat.=42.893978, lon.=19.686485, Alt.=1667.797852m. Speed=0.396000m/h.</desc>
<speed>0.110000</speed>
</trkpt>
<trkpt lat="42.893974" lon="19.686489">
<ele>1667.797852</ele>
<time>2012-04-30T17:17:40Z</time>
<desc>lat.=42.893974, lon.=19.686489, Alt.=1667.797852m. Speed=0.108000m/h.</desc>
<speed>0.030000</speed>
</trkpt>
<trkpt lat="42.893978" lon="19.686472">
<ele>1667.766602</ele>
<time>2012-04-30T17:17:45Z</time>
<desc>lat.=42.893978, lon.=19.686472, Alt.=1667.766602m. Speed=0.720000m/h.</desc>
<speed>0.200000</speed>
</trkpt>
<trkpt lat="42.893990" lon="19.686468">
<ele>1667.891602</ele>
<time>2012-04-30T17:17:50Z</time>
<desc>lat.=42.893990, lon.=19.686468, Alt.=1667.891602m. Speed=0.288000m/h.</desc>
<speed>0.080000</speed>
</trkpt>
<trkpt lat="42.893986" lon="19.686466">
<ele>1667.891602</ele>
<time>2012-04-30T17:17:55Z</time>
<desc>lat.=42.893986, lon.=19.686466, Alt.=1667.891602m. Speed=0.144000m/h.</desc>
<speed>0.040000</speed>
</trkpt>
<trkpt lat="42.893982" lon="19.686468">
<ele>1667.860352</ele>
<time>2012-04-30T17:18:00Z</time>
<desc>lat.=42.893982, lon.=19.686468, Alt.=1667.860352m. Speed=0.324000m/h.</desc>
<speed>0.090000</speed>
</trkpt>
<trkpt lat="42.893986" lon="19.686468">
<ele>1667.860352</ele>
<time>2012-04-30T17:18:05Z</time>
<desc>lat.=42.893986, lon.=19.686468, Alt.=1667.860352m. Speed=0.252000m/h.</desc>
<speed>0.070000</speed>
</trkpt>
<trkpt lat="42.893974" lon="19.686474">
<ele>1667.704102</ele>
<time>2012-04-30T17:18:10Z</time>
<desc>lat.=42.893974, lon.=19.686474, Alt.=1667.704102m. Speed=0.756000m/h.</desc>
<speed>0.210000</speed>
</trkpt>
<trkpt lat="42.893951" lon="19.686491">
<ele>1667.610352</ele>
<time>2012-04-30T17:18:15Z</time>
<desc>lat.=42.893951, lon.=19.686491, Alt.=1667.610352m. Speed=0.792000m/h.</desc>
<speed>0.220000</speed>
</trkpt>
<trkpt lat="42.893932" lon="19.686508">
<ele>1667.547852</ele>
<time>2012-04-30T17:18:20Z</time>
<desc>lat.=42.893932, lon.=19.686508, Alt.=1667.547852m. Speed=0.756000m/h.</desc>
<speed>0.210000</speed>
</trkpt>
<trkpt lat="42.893917" lon="19.686504">
<ele>1667.547852</ele>
<time>2012-04-30T17:18:25Z</time>
<desc>lat.=42.893917, lon.=19.686504, Alt.=1667.547852m. Speed=0.936000m/h.</desc>
<speed>0.260000</speed>
</trkpt>
<trkpt lat="42.893917" lon="19.686514">
<ele>1667.329102</ele>
<time>2012-04-30T17:18:30Z</time>
<desc>lat.=42.893917, lon.=19.686514, Alt.=1667.329102m. Speed=0.396000m/h.</desc>
<speed>0.110000</speed>
</trkpt>
<trkpt lat="42.893921" lon="19.686516">
<ele>1667.266602</ele>
<time>2012-04-30T17:18:35Z</time>
<desc>lat.=42.893921, lon.=19.686516, Alt.=1667.266602m. Speed=0.936000m/h.</desc>
<speed>0.260000</speed>
</trkpt>
<trkpt lat="42.893932" lon="19.686512">
<ele>1667.172852</ele>
<time>2012-04-30T17:18:40Z</time>
<desc>lat.=42.893932, lon.=19.686512, Alt.=1667.172852m. Speed=1.188000m/h.</desc>
<speed>0.330000</speed>
</trkpt>
<trkpt lat="42.893974" lon="19.686459">
<ele>1666.516602</ele>
<time>2012-04-30T17:18:45Z</time>
<desc>lat.=42.893974, lon.=19.686459, Alt.=1666.516602m. Speed=1.584000m/h.</desc>
<speed>0.440000</speed>
</trkpt>
<trkpt lat="42.893990" lon="19.686409">
<ele>1666.297852</ele>
<time>2012-04-30T17:18:50Z</time>
<desc>lat.=42.893990, lon.=19.686409, Alt.=1666.297852m. Speed=3.960000m/h.</desc>
<speed>1.100000</speed>
</trkpt>
<trkpt lat="42.894039" lon="19.686308">
<ele>1666.204102</ele>
<time>2012-04-30T17:18:55Z</time>
<desc>lat.=42.894039, lon.=19.686308, Alt.=1666.204102m. Speed=5.724000m/h.</desc>
<speed>1.590000</speed>
</trkpt>
<trkpt lat="42.894115" lon="19.686249">
<ele>1664.922852</ele>
<time>2012-04-30T17:19:00Z</time>
<desc>lat.=42.894115, lon.=19.686249, Alt.=1664.922852m. Speed=6.048000m/h.</desc>
<speed>1.680000</speed>
</trkpt>
<trkpt lat="42.894196" lon="19.686125">
<ele>1664.954102</ele>
<time>2012-04-30T17:19:05Z</time>
<desc>lat.=42.894196, lon.=19.686125, Alt.=1664.954102m. Speed=10.296000m/h.</desc>
<speed>2.860000</speed>
</trkpt>
<trkpt lat="42.894222" lon="19.685961">
<ele>1668.672852</ele>
<time>2012-04-30T17:19:10Z</time>
<desc>lat.=42.894222, lon.=19.685961, Alt.=1668.672852m. Speed=9.324000m/h.</desc>
<speed>2.590000</speed>
</trkpt>
<trkpt lat="42.894249" lon="19.685785">
<ele>1669.454102</ele>
<time>2012-04-30T17:19:15Z</time>
<desc>lat.=42.894249, lon.=19.685785, Alt.=1669.454102m. Speed=11.016000m/h.</desc>
<speed>3.060000</speed>
</trkpt>
<trkpt lat="42.894192" lon="19.685591">
<ele>1669.110352</ele>
<time>2012-04-30T17:19:20Z</time>
<desc>lat.=42.894192, lon.=19.685591, Alt.=1669.110352m. Speed=13.680000m/h.</desc>
<speed>3.800000</speed>
</trkpt>
<trkpt lat="42.894176" lon="19.685396">
<ele>1669.860352</ele>
<time>2012-04-30T17:19:25Z</time>
<desc>lat.=42.894176, lon.=19.685396, Alt.=1669.860352m. Speed=8.028000m/h.</desc>
<speed>2.230000</speed>
</trkpt>
<trkpt lat="42.894161" lon="19.685280">
<ele>1669.672852</ele>
<time>2012-04-30T17:19:30Z</time>
<desc>lat.=42.894161, lon.=19.685280, Alt.=1669.672852m. Speed=8.352000m/h.</desc>
<speed>2.320000</speed>
</trkpt>
<trkpt lat="42.894176" lon="19.685144">
<ele>1669.329102</ele>
<time>2012-04-30T17:19:35Z</time>
<desc>lat.=42.894176, lon.=19.685144, Alt.=1669.329102m. Speed=8.280000m/h.</desc>
<speed>2.300000</speed>
</trkpt>
<trkpt lat="42.894180" lon="19.685009">
<ele>1669.266602</ele>
<time>2012-04-30T17:19:40Z</time>
<desc>lat.=42.894180, lon.=19.685009, Alt.=1669.266602m. Speed=9.288000m/h.</desc>
<speed>2.580000</speed>
</trkpt>
<trkpt lat="42.894218" lon="19.684872">
<ele>1670.047852</ele>
<time>2012-04-30T17:19:45Z</time>
<desc>lat.=42.894218, lon.=19.684872, Alt.=1670.047852m. Speed=10.512000m/h.</desc>
<speed>2.920000</speed>
</trkpt>
<trkpt lat="42.894295" lon="19.684786">
<ele>1670.610352</ele>
<time>2012-04-30T17:19:50Z</time>
<desc>lat.=42.894295, lon.=19.684786, Alt.=1670.610352m. Speed=7.812000m/h.</desc>
<speed>2.170000</speed>
</trkpt>
<trkpt lat="42.894333" lon="19.684649">
<ele>1671.079102</ele>
<time>2012-04-30T17:19:55Z</time>
<desc>lat.=42.894333, lon.=19.684649, Alt.=1671.079102m. Speed=8.748000m/h.</desc>
<speed>2.430000</speed>
</trkpt>
<trkpt lat="42.894367" lon="19.684551">
<ele>1671.454102</ele>
<time>2012-04-30T17:20:00Z</time>
<desc>lat.=42.894367, lon.=19.684551, Alt.=1671.454102m. Speed=6.444000m/h.</desc>
<speed>1.790000</speed>
</trkpt>
<trkpt lat="42.894409" lon="19.684465">
<ele>1673.360352</ele>
<time>2012-04-30T17:20:05Z</time>
<desc>lat.=42.894409, lon.=19.684465, Alt.=1673.360352m. Speed=8.208000m/h.</desc>
<speed>2.280000</speed>
</trkpt>
<trkpt lat="42.894440" lon="19.684368">
<ele>1673.172852</ele>
<time>2012-04-30T17:20:10Z</time>
<desc>lat.=42.894440, lon.=19.684368, Alt.=1673.172852m. Speed=5.688000m/h.</desc>
<speed>1.580000</speed>
</trkpt>
<trkpt lat="42.894482" lon="19.684244">
<ele>1671.485352</ele>
<time>2012-04-30T17:20:15Z</time>
<desc>lat.=42.894482, lon.=19.684244, Alt.=1671.485352m. Speed=5.868000m/h.</desc>
<speed>1.630000</speed>
</trkpt>
<trkpt lat="42.894550" lon="19.684189">
<ele>1673.610352</ele>
<time>2012-04-30T17:20:20Z</time>
<desc>lat.=42.894550, lon.=19.684189, Alt.=1673.610352m. Speed=5.868000m/h.</desc>
<speed>1.630000</speed>
</trkpt>
<trkpt lat="42.894604" lon="19.684128">
<ele>1674.985352</ele>
<time>2012-04-30T17:20:25Z</time>
<desc>lat.=42.894604, lon.=19.684128, Alt.=1674.985352m. Speed=5.076000m/h.</desc>
<speed>1.410000</speed>
</trkpt>
<trkpt lat="42.894630" lon="19.684055">
<ele>1675.766602</ele>
<time>2012-04-30T17:20:30Z</time>
<desc>lat.=42.894630, lon.=19.684055, Alt.=1675.766602m. Speed=4.068000m/h.</desc>
<speed>1.130000</speed>
</trkpt>
<trkpt lat="42.894634" lon="19.683954">
<ele>1676.735352</ele>
<time>2012-04-30T17:20:35Z</time>
<desc>lat.=42.894634, lon.=19.683954, Alt.=1676.735352m. Speed=5.472000m/h.</desc>
<speed>1.520000</speed>
</trkpt>
<trkpt lat="42.894646" lon="19.683867">
<ele>1677.454102</ele>
<time>2012-04-30T17:20:40Z</time>
<desc>lat.=42.894646, lon.=19.683867, Alt.=1677.454102m. Speed=5.832000m/h.</desc>
<speed>1.620000</speed>
</trkpt>
<trkpt lat="42.894665" lon="19.683779">
<ele>1677.641602</ele>
<time>2012-04-30T17:20:45Z</time>
<desc>lat.=42.894665, lon.=19.683779, Alt.=1677.641602m. Speed=5.040000m/h.</desc>
<speed>1.400000</speed>
</trkpt>
<trkpt lat="42.894718" lon="19.683718">
<ele>1677.641602</ele>
<time>2012-04-30T17:20:50Z</time>
<desc>lat.=42.894718, lon.=19.683718, Alt.=1677.641602m. Speed=4.752000m/h.</desc>
<speed>1.320000</speed>
</trkpt>
<trkpt lat="42.894714" lon="19.683683">
<ele>1676.485352</ele>
<time>2012-04-30T17:20:55Z</time>
<desc>lat.=42.894714, lon.=19.683683, Alt.=1676.485352m. Speed=0.360000m/h.</desc>
<speed>0.100000</speed>
</trkpt>
<trkpt lat="42.894737" lon="19.683649">
<ele>1676.704102</ele>
<time>2012-04-30T17:21:00Z</time>
<desc>lat.=42.894737, lon.=19.683649, Alt.=1676.704102m. Speed=3.924000m/h.</desc>
<speed>1.090000</speed>
</trkpt>
<trkpt lat="42.894791" lon="19.683615">
<ele>1677.860352</ele>
<time>2012-04-30T17:21:05Z</time>
<desc>lat.=42.894791, lon.=19.683615, Alt.=1677.860352m. Speed=4.572000m/h.</desc>
<speed>1.270000</speed>
</trkpt>
<trkpt lat="42.894833" lon="19.683561">
<ele>1678.797852</ele>
<time>2012-04-30T17:21:10Z</time>
<desc>lat.=42.894833, lon.=19.683561, Alt.=1678.797852m. Speed=3.672000m/h.</desc>
<speed>1.020000</speed>
</trkpt>
<trkpt lat="42.894848" lon="19.683498">
<ele>1680.235352</ele>
<time>2012-04-30T17:21:15Z</time>
<desc>lat.=42.894848, lon.=19.683498, Alt.=1680.235352m. Speed=3.960000m/h.</desc>
<speed>1.100000</speed>
</trkpt>
<trkpt lat="42.894875" lon="19.683464">
<ele>1681.485352</ele>
<time>2012-04-30T17:21:20Z</time>
<desc>lat.=42.894875, lon.=19.683464, Alt.=1681.485352m. Speed=3.240000m/h.</desc>
<speed>0.900000</speed>
</trkpt>
<trkpt lat="42.894932" lon="19.683420">
<ele>1683.422852</ele>
<time>2012-04-30T17:21:25Z</time>
<desc>lat.=42.894932, lon.=19.683420, Alt.=1683.422852m. Speed=2.340000m/h.</desc>
<speed>0.650000</speed>
</trkpt>
<trkpt lat="42.894924" lon="19.683371">
<ele>1684.079102</ele>
<time>2012-04-30T17:21:30Z</time>
<desc>lat.=42.894924, lon.=19.683371, Alt.=1684.079102m. Speed=4.140000m/h.</desc>
<speed>1.150000</speed>
</trkpt>
<trkpt lat="42.894924" lon="19.683315">
<ele>1684.829102</ele>
<time>2012-04-30T17:21:35Z</time>
<desc>lat.=42.894924, lon.=19.683315, Alt.=1684.829102m. Speed=3.600000m/h.</desc>
<speed>1.000000</speed>
</trkpt>
<trkpt lat="42.894917" lon="19.683247">
<ele>1685.329102</ele>
<time>2012-04-30T17:21:40Z</time>
<desc>lat.=42.894917, lon.=19.683247, Alt.=1685.329102m. Speed=2.844000m/h.</desc>
<speed>0.790000</speed>
</trkpt>
<trkpt lat="42.894928" lon="19.683189">
<ele>1685.985352</ele>
<time>2012-04-30T17:21:45Z</time>
<desc>lat.=42.894928, lon.=19.683189, Alt.=1685.985352m. Speed=2.916000m/h.</desc>
<speed>0.810000</speed>
</trkpt>
<trkpt lat="42.894928" lon="19.683132">
<ele>1686.329102</ele>
<time>2012-04-30T17:21:50Z</time>
<desc>lat.=42.894928, lon.=19.683132, Alt.=1686.329102m. Speed=3.528000m/h.</desc>
<speed>0.980000</speed>
</trkpt>
<trkpt lat="42.894909" lon="19.683062">
<ele>1687.110352</ele>
<time>2012-04-30T17:21:55Z</time>
<desc>lat.=42.894909, lon.=19.683062, Alt.=1687.110352m. Speed=4.320000m/h.</desc>
<speed>1.200000</speed>
</trkpt>
<trkpt lat="42.894886" lon="19.682980">
<ele>1687.610352</ele>
<time>2012-04-30T17:22:00Z</time>
<desc>lat.=42.894886, lon.=19.682980, Alt.=1687.610352m. Speed=4.680000m/h.</desc>
<speed>1.300000</speed>
</trkpt>
<trkpt lat="42.894897" lon="19.682892">
<ele>1687.891602</ele>
<time>2012-04-30T17:22:05Z</time>
<desc>lat.=42.894897, lon.=19.682892, Alt.=1687.891602m. Speed=3.240000m/h.</desc>
<speed>0.900000</speed>
</trkpt>
<trkpt lat="42.894901" lon="19.682833">
<ele>1687.954102</ele>
<time>2012-04-30T17:22:10Z</time>
<desc>lat.=42.894901, lon.=19.682833, Alt.=1687.954102m. Speed=3.240000m/h.</desc>
<speed>0.900000</speed>
</trkpt>
<trkpt lat="42.894913" lon="19.682768">
<ele>1688.672852</ele>
<time>2012-04-30T17:22:15Z</time>
<desc>lat.=42.894913, lon.=19.682768, Alt.=1688.672852m. Speed=3.240000m/h.</desc>
<speed>0.900000</speed>
</trkpt>
<trkpt lat="42.894928" lon="19.682693">
<ele>1689.047852</ele>
<time>2012-04-30T17:22:20Z</time>
<desc>lat.=42.894928, lon.=19.682693, Alt.=1689.047852m. Speed=3.888000m/h.</desc>
<speed>1.080000</speed>
</trkpt>
<trkpt lat="42.894936" lon="19.682671">
<ele>1689.110352</ele>
<time>2012-04-30T17:22:25Z</time>
<desc>lat.=42.894936, lon.=19.682671, Alt.=1689.110352m. Speed=0.396000m/h.</desc>
<speed>0.110000</speed>
</trkpt>
<trkpt lat="42.894939" lon="19.682674">
<ele>1689.110352</ele>
<time>2012-04-30T17:22:30Z</time>
<desc>lat.=42.894939, lon.=19.682674, Alt.=1689.110352m. Speed=0.468000m/h.</desc>
<speed>0.130000</speed>
</trkpt>
<trkpt lat="42.894955" lon="19.682653">
<ele>1689.110352</ele>
<time>2012-04-30T17:22:35Z</time>
<desc>lat.=42.894955, lon.=19.682653, Alt.=1689.110352m. Speed=3.276000m/h.</desc>
<speed>0.910000</speed>
</trkpt>
<trkpt lat="42.894985" lon="19.682590">
<ele>1689.204102</ele>
<time>2012-04-30T17:22:40Z</time>
<desc>lat.=42.894985, lon.=19.682590, Alt.=1689.204102m. Speed=5.220000m/h.</desc>
<speed>1.450000</speed>
</trkpt>
<trkpt lat="42.895008" lon="19.682482">
<ele>1689.047852</ele>
<time>2012-04-30T17:22:45Z</time>
<desc>lat.=42.895008, lon.=19.682482, Alt.=1689.047852m. Speed=6.408000m/h.</desc>
<speed>1.780000</speed>
</trkpt>
<trkpt lat="42.895069" lon="19.682367">
<ele>1688.516602</ele>
<time>2012-04-30T17:22:50Z</time>
<desc>lat.=42.895069, lon.=19.682367, Alt.=1688.516602m. Speed=8.496000m/h.</desc>
<speed>2.360000</speed>
</trkpt>
<trkpt lat="42.895130" lon="19.682245">
<ele>1687.860352</ele>
<time>2012-04-30T17:22:55Z</time>
<desc>lat.=42.895130, lon.=19.682245, Alt.=1687.860352m. Speed=10.188000m/h.</desc>
<speed>2.830000</speed>
</trkpt>
<trkpt lat="42.895203" lon="19.682104">
<ele>1687.079102</ele>
<time>2012-04-30T17:23:00Z</time>
<desc>lat.=42.895203, lon.=19.682104, Alt.=1687.079102m. Speed=8.028000m/h.</desc>
<speed>2.230000</speed>
</trkpt>
<trkpt lat="42.895267" lon="19.682016">
<ele>1686.672852</ele>
<time>2012-04-30T17:23:05Z</time>
<desc>lat.=42.895267, lon.=19.682016, Alt.=1686.672852m. Speed=8.784000m/h.</desc>
<speed>2.440000</speed>
</trkpt>
<trkpt lat="42.895271" lon="19.681820">
<ele>1685.891602</ele>
<time>2012-04-30T17:23:10Z</time>
<desc>lat.=42.895271, lon.=19.681820, Alt.=1685.891602m. Speed=9.612000m/h.</desc>
<speed>2.670000</speed>
</trkpt>
<trkpt lat="42.895344" lon="19.681684">
<ele>1685.204102</ele>
<time>2012-04-30T17:23:15Z</time>
<desc>lat.=42.895344, lon.=19.681684, Alt.=1685.204102m. Speed=8.280000m/h.</desc>
<speed>2.300000</speed>
</trkpt>
<trkpt lat="42.895409" lon="19.681528">
<ele>1685.860352</ele>
<time>2012-04-30T17:23:20Z</time>
<desc>lat.=42.895409, lon.=19.681528, Alt.=1685.860352m. Speed=9.612000m/h.</desc>
<speed>2.670000</speed>
</trkpt>
<trkpt lat="42.895470" lon="19.681414">
<ele>1685.422852</ele>
<time>2012-04-30T17:23:25Z</time>
<desc>lat.=42.895470, lon.=19.681414, Alt.=1685.422852m. Speed=9.612000m/h.</desc>
<speed>2.670000</speed>
</trkpt>
<trkpt lat="42.895481" lon="19.681261">
<ele>1684.485352</ele>
<time>2012-04-30T17:23:30Z</time>
<desc>lat.=42.895481, lon.=19.681261, Alt.=1684.485352m. Speed=8.604000m/h.</desc>
<speed>2.390000</speed>
</trkpt>
<trkpt lat="42.895527" lon="19.681128">
<ele>1683.016602</ele>
<time>2012-04-30T17:23:35Z</time>
<desc>lat.=42.895527, lon.=19.681128, Alt.=1683.016602m. Speed=8.964000m/h.</desc>
<speed>2.490000</speed>
</trkpt>
<trkpt lat="42.895584" lon="19.680994">
<ele>1682.172852</ele>
<time>2012-04-30T17:23:40Z</time>
<desc>lat.=42.895584, lon.=19.680994, Alt.=1682.172852m. Speed=9.396000m/h.</desc>
<speed>2.610000</speed>
</trkpt>
<trkpt lat="42.895596" lon="19.680815">
<ele>1683.329102</ele>
<time>2012-04-30T17:23:45Z</time>
<desc>lat.=42.895596, lon.=19.680815, Alt.=1683.329102m. Speed=9.576000m/h.</desc>
<speed>2.660000</speed>
</trkpt>
<trkpt lat="42.895615" lon="19.680637">
<ele>1683.954102</ele>
<time>2012-04-30T17:23:50Z</time>
<desc>lat.=42.895615, lon.=19.680637, Alt.=1683.954102m. Speed=9.252000m/h.</desc>
<speed>2.570000</speed>
</trkpt>
<trkpt lat="42.895653" lon="19.680502">
<ele>1683.891602</ele>
<time>2012-04-30T17:23:55Z</time>
<desc>lat.=42.895653, lon.=19.680502, Alt.=1683.891602m. Speed=10.728000m/h.</desc>
<speed>2.980000</speed>
</trkpt>
<trkpt lat="42.895714" lon="19.680361">
<ele>1682.141602</ele>
<time>2012-04-30T17:24:00Z</time>
<desc>lat.=42.895714, lon.=19.680361, Alt.=1682.141602m. Speed=8.604000m/h.</desc>
<speed>2.390000</speed>
</trkpt>
<trkpt lat="42.895775" lon="19.680246">
<ele>1683.235352</ele>
<time>2012-04-30T17:24:05Z</time>
<desc>lat.=42.895775, lon.=19.680246, Alt.=1683.235352m. Speed=8.568000m/h.</desc>
<speed>2.380000</speed>
</trkpt>
<trkpt lat="42.895805" lon="19.680105">
<ele>1683.704102</ele>
<time>2012-04-30T17:24:10Z</time>
<desc>lat.=42.895805, lon.=19.680105, Alt.=1683.704102m. Speed=10.188000m/h.</desc>
<speed>2.830000</speed>
</trkpt>
<trkpt lat="42.895851" lon="19.679939">
<ele>1683.704102</ele>
<time>2012-04-30T17:24:15Z</time>
<desc>lat.=42.895851, lon.=19.679939, Alt.=1683.704102m. Speed=9.432000m/h.</desc>
<speed>2.620000</speed>
</trkpt>
<trkpt lat="42.895870" lon="19.679813">
<ele>1683.297852</ele>
<time>2012-04-30T17:24:20Z</time>
<desc>lat.=42.895870, lon.=19.679813, Alt.=1683.297852m. Speed=7.092000m/h.</desc>
<speed>1.970000</speed>
</trkpt>
<trkpt lat="42.895889" lon="19.679661">
<ele>1682.829102</ele>
<time>2012-04-30T17:24:25Z</time>
<desc>lat.=42.895889, lon.=19.679661, Alt.=1682.829102m. Speed=8.028000m/h.</desc>
<speed>2.230000</speed>
</trkpt>
<trkpt lat="42.895947" lon="19.679529">
<ele>1683.704102</ele>
<time>2012-04-30T17:24:30Z</time>
<desc>lat.=42.895947, lon.=19.679529, Alt.=1683.704102m. Speed=6.336000m/h.</desc>
<speed>1.760000</speed>
</trkpt>
<trkpt lat="42.896015" lon="19.679398">
<ele>1683.391602</ele>
<time>2012-04-30T17:24:35Z</time>
<desc>lat.=42.896015, lon.=19.679398, Alt.=1683.391602m. Speed=6.948000m/h.</desc>
<speed>1.930000</speed>
</trkpt>
<trkpt lat="42.896023" lon="19.679279">
<ele>1684.079102</ele>
<time>2012-04-30T17:24:40Z</time>
<desc>lat.=42.896023, lon.=19.679279, Alt.=1684.079102m. Speed=8.640000m/h.</desc>
<speed>2.400000</speed>
</trkpt>
<trkpt lat="42.896011" lon="19.679256">
<ele>1683.391602</ele>
<time>2012-04-30T17:24:45Z</time>
<desc>lat.=42.896011, lon.=19.679256, Alt.=1683.391602m. Speed=1.836000m/h.</desc>
<speed>0.510000</speed>
</trkpt>
<trkpt lat="42.896023" lon="19.679213">
<ele>1683.704102</ele>
<time>2012-04-30T17:24:50Z</time>
<desc>lat.=42.896023, lon.=19.679213, Alt.=1683.704102m. Speed=2.988000m/h.</desc>
<speed>0.830000</speed>
</trkpt>
<trkpt lat="42.896072" lon="19.679201">
<ele>1682.079102</ele>
<time>2012-04-30T17:24:55Z</time>
<desc>lat.=42.896072, lon.=19.679201, Alt.=1682.079102m. Speed=1.980000m/h.</desc>
<speed>0.550000</speed>
</trkpt>
<trkpt lat="42.896122" lon="19.679167">
<ele>1681.860352</ele>
<time>2012-04-30T17:25:00Z</time>
<desc>lat.=42.896122, lon.=19.679167, Alt.=1681.860352m. Speed=4.464000m/h.</desc>
<speed>1.240000</speed>
</trkpt>
<trkpt lat="42.896145" lon="19.679085">
<ele>1682.954102</ele>
<time>2012-04-30T17:25:05Z</time>
<desc>lat.=42.896145, lon.=19.679085, Alt.=1682.954102m. Speed=6.372000m/h.</desc>
<speed>1.770000</speed>
</trkpt>
<trkpt lat="42.896221" lon="19.679039">
<ele>1682.204102</ele>
<time>2012-04-30T17:25:10Z</time>
<desc>lat.=42.896221, lon.=19.679039, Alt.=1682.204102m. Speed=3.708000m/h.</desc>
<speed>1.030000</speed>
</trkpt>
<trkpt lat="42.896294" lon="19.679007">
<ele>1681.516602</ele>
<time>2012-04-30T17:25:15Z</time>
<desc>lat.=42.896294, lon.=19.679007, Alt.=1681.516602m. Speed=6.048000m/h.</desc>
<speed>1.680000</speed>
</trkpt>
<trkpt lat="42.896355" lon="19.678940">
<ele>1681.516602</ele>
<time>2012-04-30T17:25:20Z</time>
<desc>lat.=42.896355, lon.=19.678940, Alt.=1681.516602m. Speed=5.724000m/h.</desc>
<speed>1.590000</speed>
</trkpt>
<trkpt lat="42.896412" lon="19.678881">
<ele>1681.360352</ele>
<time>2012-04-30T17:25:25Z</time>
<desc>lat.=42.896412, lon.=19.678881, Alt.=1681.360352m. Speed=7.164000m/h.</desc>
<speed>1.990000</speed>
</trkpt>
<trkpt lat="42.896439" lon="19.678778">
<ele>1682.454102</ele>
<time>2012-04-30T17:25:30Z</time>
<desc>lat.=42.896439, lon.=19.678778, Alt.=1682.454102m. Speed=6.588000m/h.</desc>
<speed>1.830000</speed>
</trkpt>
<trkpt lat="42.896488" lon="19.678694">
<ele>1682.891602</ele>
<time>2012-04-30T17:25:35Z</time>
<desc>lat.=42.896488, lon.=19.678694, Alt.=1682.891602m. Speed=2.124000m/h.</desc>
<speed>0.590000</speed>
</trkpt>
<trkpt lat="42.896519" lon="19.678675">
<ele>1682.641602</ele>
<time>2012-04-30T17:25:40Z</time>
<desc>lat.=42.896519, lon.=19.678675, Alt.=1682.641602m. Speed=2.808000m/h.</desc>
<speed>0.780000</speed>
</trkpt>
<trkpt lat="42.896503" lon="19.678608">
<ele>1682.422852</ele>
<time>2012-04-30T17:25:45Z</time>
<desc>lat.=42.896503, lon.=19.678608, Alt.=1682.422852m. Speed=2.736000m/h.</desc>
<speed>0.760000</speed>
</trkpt>
<trkpt lat="42.896538" lon="19.678572">
<ele>1682.360352</ele>
<time>2012-04-30T17:25:50Z</time>
<desc>lat.=42.896538, lon.=19.678572, Alt.=1682.360352m. Speed=3.312000m/h.</desc>
<speed>0.920000</speed>
</trkpt>
<trkpt lat="42.896576" lon="19.678545">
<ele>1683.579102</ele>
<time>2012-04-30T17:25:55Z</time>
<desc>lat.=42.896576, lon.=19.678545, Alt.=1683.579102m. Speed=3.132000m/h.</desc>
<speed>0.870000</speed>
</trkpt>
<trkpt lat="42.896584" lon="19.678490">
<ele>1684.422852</ele>
<time>2012-04-30T17:26:00Z</time>
<desc>lat.=42.896584, lon.=19.678490, Alt.=1684.422852m. Speed=2.196000m/h.</desc>
<speed>0.610000</speed>
</trkpt>
<trkpt lat="42.896603" lon="19.678410">
<ele>1684.610352</ele>
<time>2012-04-30T17:26:05Z</time>
<desc>lat.=42.896603, lon.=19.678410, Alt.=1684.610352m. Speed=7.884000m/h.</desc>
<speed>2.190000</speed>
</trkpt>
<trkpt lat="42.896641" lon="19.678284">
<ele>1685.047852</ele>
<time>2012-04-30T17:26:10Z</time>
<desc>lat.=42.896641, lon.=19.678284, Alt.=1685.047852m. Speed=8.316000m/h.</desc>
<speed>2.310000</speed>
</trkpt>
<trkpt lat="42.896645" lon="19.678179">
<ele>1686.079102</ele>
<time>2012-04-30T17:26:15Z</time>
<desc>lat.=42.896645, lon.=19.678179, Alt.=1686.079102m. Speed=2.880000m/h.</desc>
<speed>0.800000</speed>
</trkpt>
<trkpt lat="42.896648" lon="19.678146">
<ele>1685.766602</ele>
<time>2012-04-30T17:26:20Z</time>
<desc>lat.=42.896648, lon.=19.678146, Alt.=1685.766602m. Speed=2.232000m/h.</desc>
<speed>0.620000</speed>
</trkpt>
<trkpt lat="42.896629" lon="19.678110">
<ele>1686.922852</ele>
<time>2012-04-30T17:26:25Z</time>
<desc>lat.=42.896629, lon.=19.678110, Alt.=1686.922852m. Speed=0.108000m/h.</desc>
<speed>0.030000</speed>
</trkpt>
<trkpt lat="42.896626" lon="19.678074">
<ele>1687.422852</ele>
<time>2012-04-30T17:26:30Z</time>
<desc>lat.=42.896626, lon.=19.678074, Alt.=1687.422852m. Speed=3.708000m/h.</desc>
<speed>1.030000</speed>
</trkpt>
<trkpt lat="42.896637" lon="19.678011">
<ele>1687.579102</ele>
<time>2012-04-30T17:26:35Z</time>
<desc>lat.=42.896637, lon.=19.678011, Alt.=1687.579102m. Speed=4.608000m/h.</desc>
<speed>1.280000</speed>
</trkpt>
<trkpt lat="42.896656" lon="19.677948">
<ele>1686.985352</ele>
<time>2012-04-30T17:26:40Z</time>
<desc>lat.=42.896656, lon.=19.677948, Alt.=1686.985352m. Speed=4.320000m/h.</desc>
<speed>1.200000</speed>
</trkpt>
<trkpt lat="42.896652" lon="19.677893">
<ele>1686.797852</ele>
<time>2012-04-30T17:26:45Z</time>
<desc>lat.=42.896652, lon.=19.677893, Alt.=1686.797852m. Speed=3.492000m/h.</desc>
<speed>0.970000</speed>
</trkpt>
<trkpt lat="42.896690" lon="19.677830">
<ele>1687.110352</ele>
<time>2012-04-30T17:26:50Z</time>
<desc>lat.=42.896690, lon.=19.677830, Alt.=1687.110352m. Speed=4.500000m/h.</desc>
<speed>1.250000</speed>
</trkpt>
<trkpt lat="42.896683" lon="19.677748">
<ele>1687.360352</ele>
<time>2012-04-30T17:26:55Z</time>
<desc>lat.=42.896683, lon.=19.677748, Alt.=1687.360352m. Speed=4.104000m/h.</desc>
<speed>1.140000</speed>
</trkpt>
<trkpt lat="42.896660" lon="19.677668">
<ele>1687.797852</ele>
<time>2012-04-30T17:27:00Z</time>
<desc>lat.=42.896660, lon.=19.677668, Alt.=1687.797852m. Speed=4.500000m/h.</desc>
<speed>1.250000</speed>
</trkpt>
<trkpt lat="42.896698" lon="19.677608">
<ele>1688.516602</ele>
<time>2012-04-30T17:27:05Z</time>
<desc>lat.=42.896698, lon.=19.677608, Alt.=1688.516602m. Speed=3.888000m/h.</desc>
<speed>1.080000</speed>
</trkpt>
<trkpt lat="42.896740" lon="19.677547">
<ele>1688.547852</ele>
<time>2012-04-30T17:27:10Z</time>
<desc>lat.=42.896740, lon.=19.677547, Alt.=1688.547852m. Speed=4.176000m/h.</desc>
<speed>1.160000</speed>
</trkpt>
<trkpt lat="42.896767" lon="19.677481">
<ele>1688.391602</ele>
<time>2012-04-30T17:27:15Z</time>
<desc>lat.=42.896767, lon.=19.677481, Alt.=1688.391602m. Speed=3.744000m/h.</desc>
<speed>1.040000</speed>
</trkpt>
<trkpt lat="42.896797" lon="19.677431">
<ele>1688.516602</ele>
<time>2012-04-30T17:27:20Z</time>
<desc>lat.=42.896797, lon.=19.677431, Alt.=1688.516602m. Speed=3.240000m/h.</desc>
<speed>0.900000</speed>
</trkpt>
<trkpt lat="42.896809" lon="19.677372">
<ele>1690.141602</ele>
<time>2012-04-30T17:27:25Z</time>
<desc>lat.=42.896809, lon.=19.677372, Alt.=1690.141602m. Speed=3.528000m/h.</desc>
<speed>0.980000</speed>
</trkpt>
<trkpt lat="42.896843" lon="19.677311">
<ele>1689.891602</ele>
<time>2012-04-30T17:27:30Z</time>
<desc>lat.=42.896843, lon.=19.677311, Alt.=1689.891602m. Speed=2.880000m/h.</desc>
<speed>0.800000</speed>
</trkpt>
<trkpt lat="42.896835" lon="19.677301">
<ele>1690.297852</ele>
<time>2012-04-30T17:27:35Z</time>
<desc>lat.=42.896835, lon.=19.677301, Alt.=1690.297852m. Speed=0.252000m/h.</desc>
<speed>0.070000</speed>
</trkpt>
<trkpt lat="42.896839" lon="19.677303">
<ele>1690.547852</ele>
<time>2012-04-30T17:27:40Z</time>
<desc>lat.=42.896839, lon.=19.677303, Alt.=1690.547852m. Speed=0.324000m/h.</desc>
<speed>0.090000</speed>
</trkpt>
<trkpt lat="42.896839" lon="19.677307">
<ele>1690.829102</ele>
<time>2012-04-30T17:27:45Z</time>
<desc>lat.=42.896839, lon.=19.677307, Alt.=1690.829102m. Speed=0.288000m/h.</desc>
<speed>0.080000</speed>
</trkpt>
<trkpt lat="42.896835" lon="19.677311">
<ele>1691.204102</ele>
<time>2012-04-30T17:27:50Z</time>
<desc>lat.=42.896835, lon.=19.677311, Alt.=1691.204102m. Speed=0.360000m/h.</desc>
<speed>0.100000</speed>
</trkpt>
<trkpt lat="42.896828" lon="19.677263">
<ele>1691.297852</ele>
<time>2012-04-30T17:27:55Z</time>
<desc>lat.=42.896828, lon.=19.677263, Alt.=1691.297852m. Speed=6.876000m/h.</desc>
<speed>1.910000</speed>
</trkpt>
<trkpt lat="42.896843" lon="19.677155">
<ele>1691.141602</ele>
<time>2012-04-30T17:28:00Z</time>
<desc>lat.=42.896843, lon.=19.677155, Alt.=1691.141602m. Speed=4.392000m/h.</desc>
<speed>1.220000</speed>
</trkpt>
<trkpt lat="42.896847" lon="19.677050">
<ele>1690.485352</ele>
<time>2012-04-30T17:28:05Z</time>
<desc>lat.=42.896847, lon.=19.677050, Alt.=1690.485352m. Speed=7.128000m/h.</desc>
<speed>1.980000</speed>
</trkpt>
<trkpt lat="42.896877" lon="19.676891">
<ele>1690.610352</ele>
<time>2012-04-30T17:28:10Z</time>
<desc>lat.=42.896877, lon.=19.676891, Alt.=1690.610352m. Speed=11.448000m/h.</desc>
<speed>3.180000</speed>
</trkpt>
<trkpt lat="42.896919" lon="19.676708">
<ele>1689.610352</ele>
<time>2012-04-30T17:28:15Z</time>
<desc>lat.=42.896919, lon.=19.676708, Alt.=1689.610352m. Speed=10.260000m/h.</desc>
<speed>2.850000</speed>
</trkpt>
<trkpt lat="42.896965" lon="19.676540">
<ele>1690.704102</ele>
<time>2012-04-30T17:28:20Z</time>
<desc>lat.=42.896965, lon.=19.676540, Alt.=1690.704102m. Speed=10.944000m/h.</desc>
<speed>3.040000</speed>
</trkpt>
<trkpt lat="42.897007" lon="19.676411">
<ele>1692.672852</ele>
<time>2012-04-30T17:28:25Z</time>
<desc>lat.=42.897007, lon.=19.676411, Alt.=1692.672852m. Speed=7.848000m/h.</desc>
<speed>2.180000</speed>
</trkpt>
<trkpt lat="42.897049" lon="19.676277">
<ele>1693.266602</ele>
<time>2012-04-30T17:28:30Z</time>
<desc>lat.=42.897049, lon.=19.676277, Alt.=1693.266602m. Speed=7.776000m/h.</desc>
<speed>2.160000</speed>
</trkpt>
<trkpt lat="42.897068" lon="19.676151">
<ele>1694.829102</ele>
<time>2012-04-30T17:28:35Z</time>
<desc>lat.=42.897068, lon.=19.676151, Alt.=1694.829102m. Speed=5.616000m/h.</desc>
<speed>1.560000</speed>
</trkpt>
<trkpt lat="42.897083" lon="19.676073">
<ele>1694.922852</ele>
<time>2012-04-30T17:28:40Z</time>
<desc>lat.=42.897083, lon.=19.676073, Alt.=1694.922852m. Speed=5.904000m/h.</desc>
<speed>1.640000</speed>
</trkpt>
<trkpt lat="42.897102" lon="19.675976">
<ele>1695.704102</ele>
<time>2012-04-30T17:28:45Z</time>
<desc>lat.=42.897102, lon.=19.675976, Alt.=1695.704102m. Speed=5.724000m/h.</desc>
<speed>1.590000</speed>
</trkpt>
<trkpt lat="42.897152" lon="19.675903">
<ele>1694.266602</ele>
<time>2012-04-30T17:28:50Z</time>
<desc>lat.=42.897152, lon.=19.675903, Alt.=1694.266602m. Speed=3.960000m/h.</desc>
<speed>1.100000</speed>
</trkpt>
<trkpt lat="42.897190" lon="19.675840">
<ele>1694.360352</ele>
<time>2012-04-30T17:28:55Z</time>
<desc>lat.=42.897190, lon.=19.675840, Alt.=1694.360352m. Speed=1.116000m/h.</desc>
<speed>0.310000</speed>
</trkpt>
<trkpt lat="42.897194" lon="19.675831">
<ele>1693.891602</ele>
<time>2012-04-30T17:29:00Z</time>
<desc>lat.=42.897194, lon.=19.675831, Alt.=1693.891602m. Speed=0.036000m/h.</desc>
<speed>0.010000</speed>
</trkpt>
<trkpt lat="42.897198" lon="19.675829">
<ele>1693.922852</ele>
<time>2012-04-30T17:29:05Z</time>
<desc>lat.=42.897198, lon.=19.675829, Alt.=1693.922852m. Speed=0.108000m/h.</desc>
<speed>0.030000</speed>
</trkpt>
<trkpt lat="42.897198" lon="19.675829">
<ele>1693.891602</ele>
<time>2012-04-30T17:29:10Z</time>
<desc>lat.=42.897198, lon.=19.675829, Alt.=1693.891602m. Speed=0.072000m/h.</desc>
<speed>0.020000</speed>
</trkpt>
<trkpt lat="42.897198" lon="19.675829">
<ele>1693.891602</ele>
<time>2012-04-30T17:29:15Z</time>
<desc>lat.=42.897198, lon.=19.675829, Alt.=1693.891602m. Speed=0.072000m/h.</desc>
<speed>0.020000</speed>
</trkpt>
<trkpt lat="42.897198" lon="19.675825">
<ele>1693.922852</ele>
<time>2012-04-30T17:29:20Z</time>
<desc>lat.=42.897198, lon.=19.675825, Alt.=1693.922852m. Speed=0.072000m/h.</desc>
<speed>0.020000</speed>
</trkpt>
<trkpt lat="42.897202" lon="19.675825">
<ele>1693.922852</ele>
<time>2012-04-30T17:29:25Z</time>
<desc>lat.=42.897202, lon.=19.675825, Alt.=1693.922852m. Speed=0.360000m/h.</desc>
<speed>0.100000</speed>
</trkpt>
<trkpt lat="42.897202" lon="19.675823">
<ele>1693.891602</ele>
<time>2012-04-30T17:29:30Z</time>
<desc>lat.=42.897202, lon.=19.675823, Alt.=1693.891602m. Speed=0.072000m/h.</desc>
<speed>0.020000</speed>
</trkpt>
<trkpt lat="42.897202" lon="19.675823">
<ele>1693.891602</ele>
<time>2012-04-30T17:29:35Z</time>
<desc>lat.=42.897202, lon.=19.675823, Alt.=1693.891602m. Speed=0.144000m/h.</desc>
<speed>0.040000</speed>
</trkpt>
<trkpt lat="42.897202" lon="19.675823">
<ele>1693.860352</ele>
<time>2012-04-30T17:29:40Z</time>
<desc>lat.=42.897202, lon.=19.675823, Alt.=1693.860352m. Speed=0.108000m/h.</desc>
<speed>0.030000</speed>
</trkpt>
<trkpt lat="42.897202" lon="19.675823">
<ele>1693.860352</ele>
<time>2012-04-30T17:29:45Z</time>
<desc>lat.=42.897202, lon.=19.675823, Alt.=1693.860352m. Speed=0.180000m/h.</desc>
<speed>0.050000</speed>
</trkpt>
<trkpt lat="42.897202" lon="19.675821">
<ele>1693.860352</ele>
<time>2012-04-30T17:29:50Z</time>
<desc>lat.=42.897202, lon.=19.675821, Alt.=1693.860352m. Speed=1.764000m/h.</desc>
<speed>0.490000</speed>
</trkpt>
<trkpt lat="42.897205" lon="19.675713">
<ele>1693.360352</ele>
<time>2012-04-30T17:29:55Z</time>
<desc>lat.=42.897205, lon.=19.675713, Alt.=1693.360352m. Speed=10.764000m/h.</desc>
<speed>2.990000</speed>
</trkpt>
<trkpt lat="42.897160" lon="19.675480">
<ele>1692.110352</ele>
<time>2012-04-30T17:30:00Z</time>
<desc>lat.=42.897160, lon.=19.675480, Alt.=1692.110352m. Speed=9.864000m/h.</desc>
<speed>2.740000</speed>
</trkpt>
<trkpt lat="42.897224" lon="19.675318">
<ele>1690.829102</ele>
<time>2012-04-30T17:30:05Z</time>
<desc>lat.=42.897224, lon.=19.675318, Alt.=1690.829102m. Speed=8.100000m/h.</desc>
<speed>2.250000</speed>
</trkpt>
<trkpt lat="42.897324" lon="19.675152">
<ele>1689.297852</ele>
<time>2012-04-30T17:30:10Z</time>
<desc>lat.=42.897324, lon.=19.675152, Alt.=1689.297852m. Speed=13.320000m/h.</desc>
<speed>3.700000</speed>
</trkpt>
<trkpt lat="42.897434" lon="19.674950">
<ele>1687.891602</ele>
<time>2012-04-30T17:30:15Z</time>
<desc>lat.=42.897434, lon.=19.674950, Alt.=1687.891602m. Speed=13.824000m/h.</desc>
<speed>3.840000</speed>
</trkpt>
<trkpt lat="42.897465" lon="19.674728">
<ele>1686.360352</ele>
<time>2012-04-30T17:30:20Z</time>
<desc>lat.=42.897465, lon.=19.674728, Alt.=1686.360352m. Speed=14.508000m/h.</desc>
<speed>4.030000</speed>
</trkpt>
<trkpt lat="42.897511" lon="19.674501">
<ele>1684.266602</ele>
<time>2012-04-30T17:30:25Z</time>
<desc>lat.=42.897511, lon.=19.674501, Alt.=1684.266602m. Speed=10.080000m/h.</desc>
<speed>2.800000</speed>
</trkpt>
<trkpt lat="42.897556" lon="19.674364">
<ele>1684.235352</ele>
<time>2012-04-30T17:30:30Z</time>
<desc>lat.=42.897556, lon.=19.674364, Alt.=1684.235352m. Speed=8.208000m/h.</desc>
<speed>2.280000</speed>
</trkpt>
<trkpt lat="42.897591" lon="19.674255">
<ele>1681.610352</ele>
<time>2012-04-30T17:30:35Z</time>
<desc>lat.=42.897591, lon.=19.674255, Alt.=1681.610352m. Speed=7.668000m/h.</desc>
<speed>2.130000</speed>
</trkpt>
<trkpt lat="42.897610" lon="19.674158">
<ele>1679.079102</ele>
<time>2012-04-30T17:30:40Z</time>
<desc>lat.=42.897610, lon.=19.674158, Alt.=1679.079102m. Speed=6.552000m/h.</desc>
<speed>1.820000</speed>
</trkpt>
<trkpt lat="42.897678" lon="19.674040">
<ele>1677.610352</ele>
<time>2012-04-30T17:30:45Z</time>
<desc>lat.=42.897678, lon.=19.674040, Alt.=1677.610352m. Speed=10.224000m/h.</desc>
<speed>2.840000</speed>
</trkpt>
<trkpt lat="42.897755" lon="19.673931">
<ele>1675.235352</ele>
<time>2012-04-30T17:30:50Z</time>
<desc>lat.=42.897755, lon.=19.673931, Alt.=1675.235352m. Speed=5.796000m/h.</desc>
<speed>1.610000</speed>
</trkpt>
<trkpt lat="42.897785" lon="19.673916">
<ele>1673.235352</ele>
<time>2012-04-30T17:30:55Z</time>
<desc>lat.=42.897785, lon.=19.673916, Alt.=1673.235352m. Speed=1.836000m/h.</desc>
<speed>0.510000</speed>
</trkpt>
<trkpt lat="42.897800" lon="19.673918">
<ele>1672.204102</ele>
<time>2012-04-30T17:31:00Z</time>
<desc>lat.=42.897800, lon.=19.673918, Alt.=1672.204102m. Speed=0.576000m/h.</desc>
<speed>0.160000</speed>
</trkpt>
<trkpt lat="42.897804" lon="19.673920">
<ele>1671.672852</ele>
<time>2012-04-30T17:31:05Z</time>
<desc>lat.=42.897804, lon.=19.673920, Alt.=1671.672852m. Speed=0.288000m/h.</desc>
<speed>0.080000</speed>
</trkpt>
<trkpt lat="42.897808" lon="19.673922">
<ele>1671.485352</ele>
<time>2012-04-30T17:31:10Z</time>
<desc>lat.=42.897808, lon.=19.673922, Alt.=1671.485352m. Speed=0.180000m/h.</desc>
<speed>0.050000</speed>
</trkpt>
<trkpt lat="42.897804" lon="19.673922">
<ele>1671.454102</ele>
<time>2012-04-30T17:31:15Z</time>
<desc>lat.=42.897804, lon.=19.673922, Alt.=1671.454102m. Speed=0.180000m/h.</desc>
<speed>0.050000</speed>
</trkpt>
<trkpt lat="42.897808" lon="19.673922">
<ele>1671.422852</ele>
<time>2012-04-30T17:31:20Z</time>
<desc>lat.=42.897808, lon.=19.673922, Alt.=1671.422852m. Speed=0.396000m/h.</desc>
<speed>0.110000</speed>
</trkpt>
<trkpt lat="42.897816" lon="19.673929">
<ele>1671.454102</ele>
<time>2012-04-30T17:31:25Z</time>
<desc>lat.=42.897816, lon.=19.673929, Alt.=1671.454102m. Speed=1.152000m/h.</desc>
<speed>0.320000</speed>
</trkpt>
<trkpt lat="42.897827" lon="19.673941">
<ele>1671.485352</ele>
<time>2012-04-30T17:31:30Z</time>
<desc>lat.=42.897827, lon.=19.673941, Alt.=1671.485352m. Speed=2.016000m/h.</desc>
<speed>0.560000</speed>
</trkpt>
<trkpt lat="42.897846" lon="19.673954">
<ele>1671.579102</ele>
<time>2012-04-30T17:31:35Z</time>
<desc>lat.=42.897846, lon.=19.673954, Alt.=1671.579102m. Speed=0.900000m/h.</desc>
<speed>0.250000</speed>
</trkpt>
<trkpt lat="42.897850" lon="19.673956">
<ele>1671.641602</ele>
<time>2012-04-30T17:31:40Z</time>
<desc>lat.=42.897850, lon.=19.673956, Alt.=1671.641602m. Speed=4.608000m/h.</desc>
<speed>1.280000</speed>
</trkpt>
<trkpt lat="42.897884" lon="19.673817">
<ele>1673.016602</ele>
<time>2012-04-30T17:31:45Z</time>
<desc>lat.=42.897884, lon.=19.673817, Alt.=1673.016602m. Speed=9.144000m/h.</desc>
<speed>2.540000</speed>
</trkpt>
<trkpt lat="42.897942" lon="19.673689">
<ele>1672.235352</ele>
<time>2012-04-30T17:31:50Z</time>
<desc>lat.=42.897942, lon.=19.673689, Alt.=1672.235352m. Speed=7.812000m/h.</desc>
<speed>2.170000</speed>
</trkpt>
<trkpt lat="42.898014" lon="19.673590">
<ele>1673.766602</ele>
<time>2012-04-30T17:31:55Z</time>
<desc>lat.=42.898014, lon.=19.673590, Alt.=1673.766602m. Speed=8.388000m/h.</desc>
<speed>2.330000</speed>
</trkpt>
<trkpt lat="42.898090" lon="19.673487">
<ele>1673.079102</ele>
<time>2012-04-30T17:32:00Z</time>
<desc>lat.=42.898090, lon.=19.673487, Alt.=1673.079102m. Speed=7.128000m/h.</desc>
<speed>1.980000</speed>
</trkpt>
<trkpt lat="42.898170" lon="19.673378">
<ele>1672.360352</ele>
<time>2012-04-30T17:32:05Z</time>
<desc>lat.=42.898170, lon.=19.673378, Alt.=1672.360352m. Speed=7.524000m/h.</desc>
<speed>2.090000</speed>
</trkpt>
<trkpt lat="42.898228" lon="19.673243">
<ele>1672.391602</ele>
<time>2012-04-30T17:32:10Z</time>
<desc>lat.=42.898228, lon.=19.673243, Alt.=1672.391602m. Speed=6.192000m/h.</desc>
<speed>1.720000</speed>
</trkpt>
<trkpt lat="42.898273" lon="19.673138">
<ele>1673.329102</ele>
<time>2012-04-30T17:32:15Z</time>
<desc>lat.=42.898273, lon.=19.673138, Alt.=1673.329102m. Speed=7.344000m/h.</desc>
<speed>2.040000</speed>
</trkpt>
<trkpt lat="42.898300" lon="19.673018">
<ele>1673.141602</ele>
<time>2012-04-30T17:32:20Z</time>
<desc>lat.=42.898300, lon.=19.673018, Alt.=1673.141602m. Speed=6.444000m/h.</desc>
<speed>1.790000</speed>
</trkpt>
<trkpt lat="42.898338" lon="19.672897">
<ele>1673.391602</ele>
<time>2012-04-30T17:32:25Z</time>
<desc>lat.=42.898338, lon.=19.672897, Alt.=1673.391602m. Speed=7.128000m/h.</desc>
<speed>1.980000</speed>
</trkpt>
<trkpt lat="42.898369" lon="19.672808">
<ele>1674.985352</ele>
<time>2012-04-30T17:32:30Z</time>
<desc>lat.=42.898369, lon.=19.672808, Alt.=1674.985352m. Speed=4.176000m/h.</desc>
<speed>1.160000</speed>
</trkpt>
<trkpt lat="42.898396" lon="19.672728">
<ele>1677.454102</ele>
<time>2012-04-30T17:32:35Z</time>
<desc>lat.=42.898396, lon.=19.672728, Alt.=1677.454102m. Speed=7.200000m/h.</desc>
<speed>2.000000</speed>
</trkpt>
<trkpt lat="42.898438" lon="19.672602">
<ele>1677.735352</ele>
<time>2012-04-30T17:32:40Z</time>
<desc>lat.=42.898438, lon.=19.672602, Alt.=1677.735352m. Speed=7.416000m/h.</desc>
<speed>2.060000</speed>
</trkpt>
<trkpt lat="42.898502" lon="19.672487">
<ele>1675.204102</ele>
<time>2012-04-30T17:32:45Z</time>
<desc>lat.=42.898502, lon.=19.672487, Alt.=1675.204102m. Speed=6.912000m/h.</desc>
<speed>1.920000</speed>
</trkpt>
<trkpt lat="42.898533" lon="19.672365">
<ele>1677.079102</ele>
<time>2012-04-30T17:32:50Z</time>
<desc>lat.=42.898533, lon.=19.672365, Alt.=1677.079102m. Speed=5.688000m/h.</desc>
<speed>1.580000</speed>
</trkpt>
<trkpt lat="42.898575" lon="19.672258">
<ele>1679.829102</ele>
<time>2012-04-30T17:32:55Z</time>
<desc>lat.=42.898575, lon.=19.672258, Alt.=1679.829102m. Speed=8.424000m/h.</desc>
<speed>2.340000</speed>
</trkpt>
<trkpt lat="42.898609" lon="19.672117">
<ele>1680.485352</ele>
<time>2012-04-30T17:33:00Z</time>
<desc>lat.=42.898609, lon.=19.672117, Alt.=1680.485352m. Speed=9.792000m/h.</desc>
<speed>2.720000</speed>
</trkpt>
<trkpt lat="42.898636" lon="19.671961">
<ele>1681.985352</ele>
<time>2012-04-30T17:33:05Z</time>
<desc>lat.=42.898636, lon.=19.671961, Alt.=1681.985352m. Speed=10.476000m/h.</desc>
<speed>2.910000</speed>
</trkpt>
<trkpt lat="42.898663" lon="19.671793">
<ele>1680.329102</ele>
<time>2012-04-30T17:33:10Z</time>
<desc>lat.=42.898663, lon.=19.671793, Alt.=1680.329102m. Speed=8.784000m/h.</desc>
<speed>2.440000</speed>
</trkpt>
<trkpt lat="42.898697" lon="19.671658">
<ele>1681.016602</ele>
<time>2012-04-30T17:33:15Z</time>
<desc>lat.=42.898697, lon.=19.671658, Alt.=1681.016602m. Speed=6.840000m/h.</desc>
<speed>1.900000</speed>
</trkpt>
<trkpt lat="42.898754" lon="19.671541">
<ele>1681.172852</ele>
<time>2012-04-30T17:33:20Z</time>
<desc>lat.=42.898754, lon.=19.671541, Alt.=1681.172852m. Speed=7.128000m/h.</desc>
<speed>1.980000</speed>
</trkpt>
<trkpt lat="42.898796" lon="19.671432">
<ele>1682.266602</ele>
<time>2012-04-30T17:33:25Z</time>
<desc>lat.=42.898796, lon.=19.671432, Alt.=1682.266602m. Speed=6.984000m/h.</desc>
<speed>1.940000</speed>
</trkpt>
<trkpt lat="42.898804" lon="19.671358">
<ele>1684.579102</ele>
<time>2012-04-30T17:33:30Z</time>
<desc>lat.=42.898804, lon.=19.671358, Alt.=1684.579102m. Speed=5.292000m/h.</desc>
<speed>1.470000</speed>
</trkpt>
<trkpt lat="42.898815" lon="19.671299">
<ele>1685.922852</ele>
<time>2012-04-30T17:33:35Z</time>
<desc>lat.=42.898815, lon.=19.671299, Alt.=1685.922852m. Speed=0.144000m/h.</desc>
<speed>0.040000</speed>
</trkpt>
<trkpt lat="42.898815" lon="19.671289">
<ele>1685.454102</ele>
<time>2012-04-30T17:33:40Z</time>
<desc>lat.=42.898815, lon.=19.671289, Alt.=1685.454102m. Speed=0.468000m/h.</desc>
<speed>0.130000</speed>
</trkpt>
<trkpt lat="42.898811" lon="19.671299">
<ele>1685.110352</ele>
<time>2012-04-30T17:33:45Z</time>
<desc>lat.=42.898811, lon.=19.671299, Alt.=1685.110352m. Speed=1.152000m/h.</desc>
<speed>0.320000</speed>
</trkpt>
<trkpt lat="42.898849" lon="19.671259">
<ele>1685.547852</ele>
<time>2012-04-30T17:33:50Z</time>
<desc>lat.=42.898849, lon.=19.671259, Alt.=1685.547852m. Speed=3.564000m/h.</desc>
<speed>0.990000</speed>
</trkpt>
<trkpt lat="42.898888" lon="19.671200">
<ele>1686.454102</ele>
<time>2012-04-30T17:33:55Z</time>
<desc>lat.=42.898888, lon.=19.671200, Alt.=1686.454102m. Speed=5.148000m/h.</desc>
<speed>1.430000</speed>
</trkpt>
<trkpt lat="42.898911" lon="19.671129">
<ele>1686.110352</ele>
<time>2012-04-30T17:34:00Z</time>
<desc>lat.=42.898911, lon.=19.671129, Alt.=1686.110352m. Speed=2.664000m/h.</desc>
<speed>0.740000</speed>
</trkpt>
<trkpt lat="42.898914" lon="19.671072">
<ele>1685.860352</ele>
<time>2012-04-30T17:34:05Z</time>
<desc>lat.=42.898914, lon.=19.671072, Alt.=1685.860352m. Speed=2.772000m/h.</desc>
<speed>0.770000</speed>
</trkpt>
<trkpt lat="42.898914" lon="19.670967">
<ele>1686.266602</ele>
<time>2012-04-30T17:34:10Z</time>
<desc>lat.=42.898914, lon.=19.670967, Alt.=1686.266602m. Speed=6.156000m/h.</desc>
<speed>1.710000</speed>
</trkpt>
<trkpt lat="42.898930" lon="19.670916">
<ele>1686.641602</ele>
<time>2012-04-30T17:34:15Z</time>
<desc>lat.=42.898930, lon.=19.670916, Alt.=1686.641602m. Speed=0.900000m/h.</desc>
<speed>0.250000</speed>
</trkpt>
<trkpt lat="42.898937" lon="19.670916">
<ele>1684.922852</ele>
<time>2012-04-30T17:34:20Z</time>
<desc>lat.=42.898937, lon.=19.670916, Alt.=1684.922852m. Speed=0.036000m/h.</desc>
<speed>0.010000</speed>
</trkpt>
<trkpt lat="42.898937" lon="19.670919">
<ele>1684.891602</ele>
<time>2012-04-30T17:34:25Z</time>
<desc>lat.=42.898937, lon.=19.670919, Alt.=1684.891602m. Speed=0.468000m/h.</desc>
<speed>0.130000</speed>
</trkpt>
<trkpt lat="42.898952" lon="19.670881">
<ele>1684.766602</ele>
<time>2012-04-30T17:34:30Z</time>
<desc>lat.=42.898952, lon.=19.670881, Alt.=1684.766602m. Speed=3.456000m/h.</desc>
<speed>0.960000</speed>
</trkpt>
<trkpt lat="42.898972" lon="19.670816">
<ele>1685.016602</ele>
<time>2012-04-30T17:34:35Z</time>
<desc>lat.=42.898972, lon.=19.670816, Alt.=1685.016602m. Speed=3.924000m/h.</desc>
<speed>1.090000</speed>
</trkpt>
<trkpt lat="42.898983" lon="19.670746">
<ele>1685.610352</ele>
<time>2012-04-30T17:34:40Z</time>
<desc>lat.=42.898983, lon.=19.670746, Alt.=1685.610352m. Speed=4.644000m/h.</desc>
<speed>1.290000</speed>
</trkpt>
<trkpt lat="42.898991" lon="19.670666">
<ele>1684.860352</ele>
<time>2012-04-30T17:34:45Z</time>
<desc>lat.=42.898991, lon.=19.670666, Alt.=1684.860352m. Speed=5.328000m/h.</desc>
<speed>1.480000</speed>
</trkpt>
<trkpt lat="42.898994" lon="19.670612">
<ele>1685.360352</ele>
<time>2012-04-30T17:34:50Z</time>
<desc>lat.=42.898994, lon.=19.670612, Alt.=1685.360352m. Speed=1.980000m/h.</desc>
<speed>0.550000</speed>
</trkpt>
<trkpt lat="42.899029" lon="19.670570">
<ele>1684.172852</ele>
<time>2012-04-30T17:34:55Z</time>
<desc>lat.=42.899029, lon.=19.670570, Alt.=1684.172852m. Speed=4.104000m/h.</desc>
<speed>1.140000</speed>
</trkpt>
<trkpt lat="42.899025" lon="19.670496">
<ele>1684.860352</ele>
<time>2012-04-30T17:35:00Z</time>
<desc>lat.=42.899025, lon.=19.670496, Alt.=1684.860352m. Speed=3.168000m/h.</desc>
<speed>0.880000</speed>
</trkpt>
<trkpt lat="42.899021" lon="19.670446">
<ele>1685.454102</ele>
<time>2012-04-30T17:35:05Z</time>
<desc>lat.=42.899021, lon.=19.670446, Alt.=1685.454102m. Speed=3.024000m/h.</desc>
<speed>0.840000</speed>
</trkpt>
<trkpt lat="42.899036" lon="19.670399">
<ele>1686.047852</ele>
<time>2012-04-30T17:35:10Z</time>
<desc>lat.=42.899036, lon.=19.670399, Alt.=1686.047852m. Speed=2.556000m/h.</desc>
<speed>0.710000</speed>
</trkpt>
<trkpt lat="42.899048" lon="19.670336">
<ele>1686.735352</ele>
<time>2012-04-30T17:35:15Z</time>
<desc>lat.=42.899048, lon.=19.670336, Alt.=1686.735352m. Speed=3.204000m/h.</desc>
<speed>0.890000</speed>
</trkpt>
<trkpt lat="42.899082" lon="19.670246">
<ele>1687.641602</ele>
<time>2012-04-30T17:35:20Z</time>
<desc>lat.=42.899082, lon.=19.670246, Alt.=1687.641602m. Speed=3.240000m/h.</desc>
<speed>0.900000</speed>
</trkpt>
<trkpt lat="42.899101" lon="19.670195">
<ele>1688.422852</ele>
<time>2012-04-30T17:35:25Z</time>
<desc>lat.=42.899101, lon.=19.670195, Alt.=1688.422852m. Speed=3.708000m/h.</desc>
<speed>1.030000</speed>
</trkpt>
<trkpt lat="42.899124" lon="19.670126">
<ele>1689.204102</ele>
<time>2012-04-30T17:35:30Z</time>
<desc>lat.=42.899124, lon.=19.670126, Alt.=1689.204102m. Speed=4.644000m/h.</desc>
<speed>1.290000</speed>
</trkpt>
<trkpt lat="42.899151" lon="19.670059">
<ele>1690.360352</ele>
<time>2012-04-30T17:35:35Z</time>
<desc>lat.=42.899151, lon.=19.670059, Alt.=1690.360352m. Speed=3.276000m/h.</desc>
<speed>0.910000</speed>
</trkpt>
<trkpt lat="42.899181" lon="19.669977">
<ele>1690.922852</ele>
<time>2012-04-30T17:35:40Z</time>
<desc>lat.=42.899181, lon.=19.669977, Alt.=1690.922852m. Speed=2.340000m/h.</desc>
<speed>0.650000</speed>
</trkpt>
<trkpt lat="42.899193" lon="19.669935">
<ele>1691.735352</ele>
<time>2012-04-30T17:35:45Z</time>
<desc>lat.=42.899193, lon.=19.669935, Alt.=1691.735352m. Speed=2.880000m/h.</desc>
<speed>0.800000</speed>
</trkpt>
<trkpt lat="42.899178" lon="19.669939">
<ele>1692.422852</ele>
<time>2012-04-30T17:35:50Z</time>
<desc>lat.=42.899178, lon.=19.669939, Alt.=1692.422852m. Speed=0.108000m/h.</desc>
<speed>0.030000</speed>
</trkpt>
<trkpt lat="42.899178" lon="19.669928">
<ele>1692.704102</ele>
<time>2012-04-30T17:35:55Z</time>
<desc>lat.=42.899178, lon.=19.669928, Alt.=1692.704102m. Speed=0.612000m/h.</desc>
<speed>0.170000</speed>
</trkpt>
<trkpt lat="42.899174" lon="19.669920">
<ele>1693.266602</ele>
<time>2012-04-30T17:36:00Z</time>
<desc>lat.=42.899174, lon.=19.669920, Alt.=1693.266602m. Speed=0.468000m/h.</desc>
<speed>0.130000</speed>
</trkpt>
<trkpt lat="42.899170" lon="19.669912">
<ele>1693.829102</ele>
<time>2012-04-30T17:36:05Z</time>
<desc>lat.=42.899170, lon.=19.669912, Alt.=1693.829102m. Speed=0.468000m/h.</desc>
<speed>0.130000</speed>
</trkpt>
<trkpt lat="42.899166" lon="19.669907">
<ele>1694.422852</ele>
<time>2012-04-30T17:36:10Z</time>
<desc>lat.=42.899166, lon.=19.669907, Alt.=1694.422852m. Speed=0.252000m/h.</desc>
<speed>0.070000</speed>
</trkpt>
<trkpt lat="42.899162" lon="19.669909">
<ele>1694.985352</ele>
<time>2012-04-30T17:36:15Z</time>
<desc>lat.=42.899162, lon.=19.669909, Alt.=1694.985352m. Speed=0.216000m/h.</desc>
<speed>0.060000</speed>
</trkpt>
<trkpt lat="42.899166" lon="19.669914">
<ele>1695.547852</ele>
<time>2012-04-30T17:36:20Z</time>
<desc>lat.=42.899166, lon.=19.669914, Alt.=1695.547852m. Speed=0.648000m/h.</desc>
<speed>0.180000</speed>
</trkpt>
<trkpt lat="42.899170" lon="19.669924">
<ele>1696.047852</ele>
<time>2012-04-30T17:36:25Z</time>
<desc>lat.=42.899170, lon.=19.669924, Alt.=1696.047852m. Speed=0.360000m/h.</desc>
<speed>0.100000</speed>
</trkpt>
<trkpt lat="42.899178" lon="19.669922">
<ele>1696.516602</ele>
<time>2012-04-30T17:36:30Z</time>
<desc>lat.=42.899178, lon.=19.669922, Alt.=1696.516602m. Speed=0.648000m/h.</desc>
<speed>0.180000</speed>
</trkpt>
<trkpt lat="42.899185" lon="19.669912">
<ele>1696.922852</ele>
<time>2012-04-30T17:36:35Z</time>
<desc>lat.=42.899185, lon.=19.669912, Alt.=1696.922852m. Speed=2.772000m/h.</desc>
<speed>0.770000</speed>
</trkpt>
<trkpt lat="42.899227" lon="19.669872">
<ele>1697.829102</ele>
<time>2012-04-30T17:36:40Z</time>
<desc>lat.=42.899227, lon.=19.669872, Alt.=1697.829102m. Speed=4.140000m/h.</desc>
<speed>1.150000</speed>
</trkpt>
<trkpt lat="42.899265" lon="19.669817">
<ele>1697.797852</ele>
<time>2012-04-30T17:36:45Z</time>
<desc>lat.=42.899265, lon.=19.669817, Alt.=1697.797852m. Speed=3.816000m/h.</desc>
<speed>1.060000</speed>
</trkpt>
<trkpt lat="42.899296" lon="19.669754">
<ele>1698.047852</ele>
<time>2012-04-30T17:36:50Z</time>
<desc>lat.=42.899296, lon.=19.669754, Alt.=1698.047852m. Speed=3.348000m/h.</desc>
<speed>0.930000</speed>
</trkpt>
<trkpt lat="42.899284" lon="19.669693">
<ele>1698.579102</ele>
<time>2012-04-30T17:36:55Z</time>
<desc>lat.=42.899284, lon.=19.669693, Alt.=1698.579102m. Speed=2.664000m/h.</desc>
<speed>0.740000</speed>
</trkpt>
<trkpt lat="42.899269" lon="19.669647">
<ele>1698.735352</ele>
<time>2012-04-30T17:37:00Z</time>
<desc>lat.=42.899269, lon.=19.669647, Alt.=1698.735352m. Speed=2.700000m/h.</desc>
<speed>0.750000</speed>
</trkpt>
<trkpt lat="42.899269" lon="19.669607">
<ele>1699.297852</ele>
<time>2012-04-30T17:37:05Z</time>
<desc>lat.=42.899269, lon.=19.669607, Alt.=1699.297852m. Speed=2.448000m/h.</desc>
<speed>0.680000</speed>
</trkpt>
<trkpt lat="42.899273" lon="19.669579">
<ele>1699.954102</ele>
<time>2012-04-30T17:37:10Z</time>
<desc>lat.=42.899273, lon.=19.669579, Alt.=1699.954102m. Speed=1.368000m/h.</desc>
<speed>0.380000</speed>
</trkpt>
<trkpt lat="42.899277" lon="19.669521">
<ele>1700.422852</ele>
<time>2012-04-30T17:37:15Z</time>
<desc>lat.=42.899277, lon.=19.669521, Alt.=1700.422852m. Speed=2.016000m/h.</desc>
<speed>0.560000</speed>
</trkpt>
<trkpt lat="42.899273" lon="19.669470">
<ele>1701.454102</ele>
<time>2012-04-30T17:37:20Z</time>
<desc>lat.=42.899273, lon.=19.669470, Alt.=1701.454102m. Speed=2.592000m/h.</desc>
<speed>0.720000</speed>
</trkpt>
<trkpt lat="42.899273" lon="19.669434">
<ele>1701.954102</ele>
<time>2012-04-30T17:37:25Z</time>
<desc>lat.=42.899273, lon.=19.669434, Alt.=1701.954102m. Speed=2.808000m/h.</desc>
<speed>0.780000</speed>
</trkpt>
<trkpt lat="42.899265" lon="19.669424">
<ele>1701.891602</ele>
<time>2012-04-30T17:37:30Z</time>
<desc>lat.=42.899265, lon.=19.669424, Alt.=1701.891602m. Speed=0.360000m/h.</desc>
<speed>0.100000</speed>
</trkpt>
<trkpt lat="42.899254" lon="19.669394">
<ele>1701.829102</ele>
<time>2012-04-30T17:37:35Z</time>
<desc>lat.=42.899254, lon.=19.669394, Alt.=1701.829102m. Speed=3.312000m/h.</desc>
<speed>0.920000</speed>
</trkpt>
<trkpt lat="42.899265" lon="19.669346">
<ele>1702.016602</ele>
<time>2012-04-30T17:37:40Z</time>
<desc>lat.=42.899265, lon.=19.669346, Alt.=1702.016602m. Speed=2.484000m/h.</desc>
<speed>0.690000</speed>
</trkpt>
<trkpt lat="42.899265" lon="19.669323">
<ele>1701.985352</ele>
<time>2012-04-30T17:37:45Z</time>
<desc>lat.=42.899265, lon.=19.669323, Alt.=1701.985352m. Speed=0.612000m/h.</desc>
<speed>0.170000</speed>
</trkpt>
<trkpt lat="42.899261" lon="19.669317">
<ele>1702.016602</ele>
<time>2012-04-30T17:37:50Z</time>
<desc>lat.=42.899261, lon.=19.669317, Alt.=1702.016602m. Speed=0.504000m/h.</desc>
<speed>0.140000</speed>
</trkpt>
<trkpt lat="42.899258" lon="19.669310">
<ele>1702.079102</ele>
<time>2012-04-30T17:37:55Z</time>
<desc>lat.=42.899258, lon.=19.669310, Alt.=1702.079102m. Speed=0.576000m/h.</desc>
<speed>0.160000</speed>
</trkpt>
<trkpt lat="42.899250" lon="19.669302">
<ele>1702.016602</ele>
<time>2012-04-30T17:38:00Z</time>
<desc>lat.=42.899250, lon.=19.669302, Alt.=1702.016602m. Speed=1.188000m/h.</desc>
<speed>0.330000</speed>
</trkpt>
<trkpt lat="42.899288" lon="19.669289">
<ele>1702.141602</ele>
<time>2012-04-30T17:38:05Z</time>
<desc>lat.=42.899288, lon.=19.669289, Alt.=1702.141602m. Speed=1.332000m/h.</desc>
<speed>0.370000</speed>
</trkpt>
<trkpt lat="42.899300" lon="19.669292">
<ele>1702.547852</ele>
<time>2012-04-30T17:38:10Z</time>
<desc>lat.=42.899300, lon.=19.669292, Alt.=1702.547852m. Speed=1.332000m/h.</desc>
<speed>0.370000</speed>
</trkpt>
<trkpt lat="42.899311" lon="19.669249">
<ele>1702.860352</ele>
<time>2012-04-30T17:38:15Z</time>
<desc>lat.=42.899311, lon.=19.669249, Alt.=1702.860352m. Speed=2.844000m/h.</desc>
<speed>0.790000</speed>
</trkpt>
<trkpt lat="42.899323" lon="19.669210">
<ele>1703.704102</ele>
<time>2012-04-30T17:38:20Z</time>
<desc>lat.=42.899323, lon.=19.669210, Alt.=1703.704102m. Speed=2.484000m/h.</desc>
<speed>0.690000</speed>
</trkpt>
<trkpt lat="42.899323" lon="19.669191">
<ele>1704.047852</ele>
<time>2012-04-30T17:38:25Z</time>
<desc>lat.=42.899323, lon.=19.669191, Alt.=1704.047852m. Speed=1.512000m/h.</desc>
<speed>0.420000</speed>
</trkpt>
<trkpt lat="42.899326" lon="19.669147">
<ele>1704.329102</ele>
<time>2012-04-30T17:38:30Z</time>
<desc>lat.=42.899326, lon.=19.669147, Alt.=1704.329102m. Speed=2.268000m/h.</desc>
<speed>0.630000</speed>
</trkpt>
<trkpt lat="42.899342" lon="19.669107">
<ele>1704.297852</ele>
<time>2012-04-30T17:38:35Z</time>
<desc>lat.=42.899342, lon.=19.669107, Alt.=1704.297852m. Speed=2.304000m/h.</desc>
<speed>0.640000</speed>
</trkpt>
<trkpt lat="42.899376" lon="19.669054">
<ele>1704.704102</ele>
<time>2012-04-30T17:38:40Z</time>
<desc>lat.=42.899376, lon.=19.669054, Alt.=1704.704102m. Speed=2.844000m/h.</desc>
<speed>0.790000</speed>
</trkpt>
<trkpt lat="42.899380" lon="19.669037">
<ele>1705.016602</ele>
<time>2012-04-30T17:38:45Z</time>
<desc>lat.=42.899380, lon.=19.669037, Alt.=1705.016602m. Speed=1.224000m/h.</desc>
<speed>0.340000</speed>
</trkpt>
<trkpt lat="42.899406" lon="19.668993">
<ele>1705.766602</ele>
<time>2012-04-30T17:38:50Z</time>
<desc>lat.=42.899406, lon.=19.668993, Alt.=1705.766602m. Speed=2.340000m/h.</desc>
<speed>0.650000</speed>
</trkpt>
<trkpt lat="42.899406" lon="19.668962">
<ele>1706.360352</ele>
<time>2012-04-30T17:38:55Z</time>
<desc>lat.=42.899406, lon.=19.668962, Alt.=1706.360352m. Speed=2.916000m/h.</desc>
<speed>0.810000</speed>
</trkpt>
<trkpt lat="42.899426" lon="19.668926">
<ele>1707.079102</ele>
<time>2012-04-30T17:39:00Z</time>
<desc>lat.=42.899426, lon.=19.668926, Alt.=1707.079102m. Speed=2.664000m/h.</desc>
<speed>0.740000</speed>
</trkpt>
<trkpt lat="42.899456" lon="19.668894">
<ele>1707.047852</ele>
<time>2012-04-30T17:39:05Z</time>
<desc>lat.=42.899456, lon.=19.668894, Alt.=1707.047852m. Speed=2.844000m/h.</desc>
<speed>0.790000</speed>
</trkpt>
<trkpt lat="42.899487" lon="19.668880">
<ele>1707.766602</ele>
<time>2012-04-30T17:39:10Z</time>
<desc>lat.=42.899487, lon.=19.668880, Alt.=1707.766602m. Speed=2.700000m/h.</desc>
<speed>0.750000</speed>
</trkpt>
<trkpt lat="42.899517" lon="19.668840">
<ele>1708.266602</ele>
<time>2012-04-30T17:39:15Z</time>
<desc>lat.=42.899517, lon.=19.668840, Alt.=1708.266602m. Speed=2.880000m/h.</desc>
<speed>0.800000</speed>
</trkpt>
<trkpt lat="42.899540" lon="19.668797">
<ele>1708.891602</ele>
<time>2012-04-30T17:39:20Z</time>
<desc>lat.=42.899540, lon.=19.668797, Alt.=1708.891602m. Speed=2.772000m/h.</desc>
<speed>0.770000</speed>
</trkpt>
<trkpt lat="42.899567" lon="19.668774">
<ele>1709.391602</ele>
<time>2012-04-30T17:39:25Z</time>
<desc>lat.=42.899567, lon.=19.668774, Alt.=1709.391602m. Speed=3.348000m/h.</desc>
<speed>0.930000</speed>
</trkpt>
<trkpt lat="42.899590" lon="19.668753">
<ele>1709.985352</ele>
<time>2012-04-30T17:39:30Z</time>
<desc>lat.=42.899590, lon.=19.668753, Alt.=1709.985352m. Speed=1.800000m/h.</desc>
<speed>0.500000</speed>
</trkpt>
<trkpt lat="42.899597" lon="19.668749">
<ele>1710.829102</ele>
<time>2012-04-30T17:39:35Z</time>
<desc>lat.=42.899597, lon.=19.668749, Alt.=1710.829102m. Speed=0.900000m/h.</desc>
<speed>0.250000</speed>
</trkpt>
<trkpt lat="42.899620" lon="19.668753">
<ele>1711.610352</ele>
<time>2012-04-30T17:39:40Z</time>
<desc>lat.=42.899620, lon.=19.668753, Alt.=1711.610352m. Speed=2.628000m/h.</desc>
<speed>0.730000</speed>
</trkpt>
<trkpt lat="42.899632" lon="19.668756">
<ele>1712.172852</ele>
<time>2012-04-30T17:39:45Z</time>
<desc>lat.=42.899632, lon.=19.668756, Alt.=1712.172852m. Speed=0.468000m/h.</desc>
<speed>0.130000</speed>
</trkpt>
<trkpt lat="42.899632" lon="19.668756">
<ele>1712.641602</ele>
<time>2012-04-30T17:39:50Z</time>
<desc>lat.=42.899632, lon.=19.668756, Alt.=1712.641602m. Speed=0.036000m/h.</desc>
<speed>0.010000</speed>
</trkpt>
<trkpt lat="42.899635" lon="19.668756">
<ele>1712.860352</ele>
<time>2012-04-30T17:39:55Z</time>
<desc>lat.=42.899635, lon.=19.668756, Alt.=1712.860352m. Speed=0.108000m/h.</desc>
<speed>0.030000</speed>
</trkpt>
<trkpt lat="42.899639" lon="19.668774">
<ele>1712.860352</ele>
<time>2012-04-30T17:40:00Z</time>
<desc>lat.=42.899639, lon.=19.668774, Alt.=1712.860352m. Speed=3.708000m/h.</desc>
<speed>1.030000</speed>
</trkpt>
<trkpt lat="42.899677" lon="19.668840">
<ele>1713.766602</ele>
<time>2012-04-30T17:40:05Z</time>
<desc>lat.=42.899677, lon.=19.668840, Alt.=1713.766602m. Speed=4.068000m/h.</desc>
<speed>1.130000</speed>
</trkpt>
<trkpt lat="42.899723" lon="19.668861">
<ele>1714.297852</ele>
<time>2012-04-30T17:40:10Z</time>
<desc>lat.=42.899723, lon.=19.668861, Alt.=1714.297852m. Speed=3.744000m/h.</desc>
<speed>1.040000</speed>
</trkpt>
<trkpt lat="42.899773" lon="19.668879">
<ele>1714.954102</ele>
<time>2012-04-30T17:40:15Z</time>
<desc>lat.=42.899773, lon.=19.668879, Alt.=1714.954102m. Speed=3.852000m/h.</desc>
<speed>1.070000</speed>
</trkpt>
<trkpt lat="42.899796" lon="19.668871">
<ele>1714.454102</ele>
<time>2012-04-30T17:40:20Z</time>
<desc>lat.=42.899796, lon.=19.668871, Alt.=1714.454102m. Speed=1.044000m/h.</desc>
<speed>0.290000</speed>
</trkpt>
<trkpt lat="42.899807" lon="19.668848">
<ele>1714.516602</ele>
<time>2012-04-30T17:40:25Z</time>
<desc>lat.=42.899807, lon.=19.668848, Alt.=1714.516602m. Speed=1.872000m/h.</desc>
<speed>0.520000</speed>
</trkpt>
<trkpt lat="42.899845" lon="19.668789">
<ele>1715.547852</ele>
<time>2012-04-30T17:40:30Z</time>
<desc>lat.=42.899845, lon.=19.668789, Alt.=1715.547852m. Speed=5.040000m/h.</desc>
<speed>1.400000</speed>
</trkpt>
<trkpt lat="42.899921" lon="19.668655">
<ele>1714.891602</ele>
<time>2012-04-30T17:40:35Z</time>
<desc>lat.=42.899921, lon.=19.668655, Alt.=1714.891602m. Speed=12.600000m/h.</desc>
<speed>3.500000</speed>
</trkpt>
<trkpt lat="42.899982" lon="19.668478">
<ele>1714.204102</ele>
<time>2012-04-30T17:40:40Z</time>
<desc>lat.=42.899982, lon.=19.668478, Alt.=1714.204102m. Speed=6.876000m/h.</desc>
<speed>1.910000</speed>
</trkpt>
<trkpt lat="42.900013" lon="19.668396">
<ele>1713.360352</ele>
<time>2012-04-30T17:40:45Z</time>
<desc>lat.=42.900013, lon.=19.668396, Alt.=1713.360352m. Speed=5.616000m/h.</desc>
<speed>1.560000</speed>
</trkpt>
<trkpt lat="42.900105" lon="19.668243">
<ele>1712.422852</ele>
<time>2012-04-30T17:40:50Z</time>
<desc>lat.=42.900105, lon.=19.668243, Alt.=1712.422852m. Speed=10.296000m/h.</desc>
<speed>2.860000</speed>
</trkpt>
<trkpt lat="42.900204" lon="19.668055">
<ele>1711.454102</ele>
<time>2012-04-30T17:40:55Z</time>
<desc>lat.=42.900204, lon.=19.668055, Alt.=1711.454102m. Speed=14.760000m/h.</desc>
<speed>4.100000</speed>
</trkpt>
<trkpt lat="42.900261" lon="19.667973">
<ele>1710.735352</ele>
<time>2012-04-30T17:41:00Z</time>
<desc>lat.=42.900261, lon.=19.667973, Alt.=1710.735352m. Speed=4.140000m/h.</desc>
<speed>1.150000</speed>
</trkpt>
<trkpt lat="42.900314" lon="19.667927">
<ele>1709.360352</ele>
<time>2012-04-30T17:41:05Z</time>
<desc>lat.=42.900314, lon.=19.667927, Alt.=1709.360352m. Speed=2.160000m/h.</desc>
<speed>0.600000</speed>
</trkpt>
<trkpt lat="42.900379" lon="19.667913">
<ele>1708.860352</ele>
<time>2012-04-30T17:41:10Z</time>
<desc>lat.=42.900379, lon.=19.667913, Alt.=1708.860352m. Speed=4.572000m/h.</desc>
<speed>1.270000</speed>
</trkpt>
<trkpt lat="42.900417" lon="19.667858">
<ele>1708.360352</ele>
<time>2012-04-30T17:41:15Z</time>
<desc>lat.=42.900417, lon.=19.667858, Alt.=1708.360352m. Speed=4.392000m/h.</desc>
<speed>1.220000</speed>
</trkpt>
<trkpt lat="42.900467" lon="19.667849">
<ele>1707.516602</ele>
<time>2012-04-30T17:41:20Z</time>
<desc>lat.=42.900467, lon.=19.667849, Alt.=1707.516602m. Speed=3.276000m/h.</desc>
<speed>0.910000</speed>
</trkpt>
<trkpt lat="42.900444" lon="19.667810">
<ele>1706.610352</ele>
<time>2012-04-30T17:41:25Z</time>
<desc>lat.=42.900444, lon.=19.667810, Alt.=1706.610352m. Speed=1.944000m/h.</desc>
<speed>0.540000</speed>
</trkpt>
<trkpt lat="42.900463" lon="19.667780">
<ele>1705.797852</ele>
<time>2012-04-30T17:41:30Z</time>
<desc>lat.=42.900463, lon.=19.667780, Alt.=1705.797852m. Speed=2.412000m/h.</desc>
<speed>0.670000</speed>
</trkpt>
<trkpt lat="42.900478" lon="19.667747">
<ele>1704.954102</ele>
<time>2012-04-30T17:41:35Z</time>
<desc>lat.=42.900478, lon.=19.667747, Alt.=1704.954102m. Speed=2.340000m/h.</desc>
<speed>0.650000</speed>
</trkpt>
<trkpt lat="42.900497" lon="19.667725">
<ele>1704.172852</ele>
<time>2012-04-30T17:41:40Z</time>
<desc>lat.=42.900497, lon.=19.667725, Alt.=1704.172852m. Speed=1.728000m/h.</desc>
<speed>0.480000</speed>
</trkpt>
<trkpt lat="42.900520" lon="19.667694">
<ele>1703.391602</ele>
<time>2012-04-30T17:41:45Z</time>
<desc>lat.=42.900520, lon.=19.667694, Alt.=1703.391602m. Speed=3.312000m/h.</desc>
<speed>0.920000</speed>
</trkpt>
<trkpt lat="42.900536" lon="19.667641">
<ele>1702.641602</ele>
<time>2012-04-30T17:41:50Z</time>
<desc>lat.=42.900536, lon.=19.667641, Alt.=1702.641602m. Speed=2.844000m/h.</desc>
<speed>0.790000</speed>
</trkpt>
<trkpt lat="42.900536" lon="19.667603">
<ele>1701.922852</ele>
<time>2012-04-30T17:41:55Z</time>
<desc>lat.=42.900536, lon.=19.667603, Alt.=1701.922852m. Speed=2.520000m/h.</desc>
<speed>0.700000</speed>
</trkpt>
<trkpt lat="42.900574" lon="19.667559">
<ele>1701.266602</ele>
<time>2012-04-30T17:42:00Z</time>
<desc>lat.=42.900574, lon.=19.667559, Alt.=1701.266602m. Speed=2.736000m/h.</desc>
<speed>0.760000</speed>
</trkpt>
<trkpt lat="42.900608" lon="19.667524">
<ele>1700.641602</ele>
<time>2012-04-30T17:42:05Z</time>
<desc>lat.=42.900608, lon.=19.667524, Alt.=1700.641602m. Speed=1.728000m/h.</desc>
<speed>0.480000</speed>
</trkpt>
<trkpt lat="42.900616" lon="19.667519">
<ele>1700.235352</ele>
<time>2012-04-30T17:42:10Z</time>
<desc>lat.=42.900616, lon.=19.667519, Alt.=1700.235352m. Speed=0.612000m/h.</desc>
<speed>0.170000</speed>
</trkpt>
<trkpt lat="42.900589" lon="19.667467">
<ele>1699.672852</ele>
<time>2012-04-30T17:42:15Z</time>
<desc>lat.=42.900589, lon.=19.667467, Alt.=1699.672852m. Speed=2.736000m/h.</desc>
<speed>0.760000</speed>
</trkpt>
<trkpt lat="42.900593" lon="19.667381">
<ele>1699.485352</ele>
<time>2012-04-30T17:42:20Z</time>
<desc>lat.=42.900593, lon.=19.667381, Alt.=1699.485352m. Speed=4.536000m/h.</desc>
<speed>1.260000</speed>
</trkpt>
<trkpt lat="42.900646" lon="19.667326">
<ele>1699.329102</ele>
<time>2012-04-30T17:42:25Z</time>
<desc>lat.=42.900646, lon.=19.667326, Alt.=1699.329102m. Speed=1.656000m/h.</desc>
<speed>0.460000</speed>
</trkpt>
<trkpt lat="42.900665" lon="19.667294">
<ele>1699.110352</ele>
<time>2012-04-30T17:42:30Z</time>
<desc>lat.=42.900665, lon.=19.667294, Alt.=1699.110352m. Speed=1.188000m/h.</desc>
<speed>0.330000</speed>
</trkpt>
<trkpt lat="42.900681" lon="19.667246">
<ele>1698.860352</ele>
<time>2012-04-30T17:42:35Z</time>
<desc>lat.=42.900681, lon.=19.667246, Alt.=1698.860352m. Speed=4.968000m/h.</desc>
<speed>1.380000</speed>
</trkpt>
<trkpt lat="42.900761" lon="19.667118">
<ele>1698.391602</ele>
<time>2012-04-30T17:42:40Z</time>
<desc>lat.=42.900761, lon.=19.667118, Alt.=1698.391602m. Speed=6.588000m/h.</desc>
<speed>1.830000</speed>
</trkpt>
<trkpt lat="42.900772" lon="19.667046">
<ele>1697.922852</ele>
<time>2012-04-30T17:42:45Z</time>
<desc>lat.=42.900772, lon.=19.667046, Alt.=1697.922852m. Speed=2.664000m/h.</desc>
<speed>0.740000</speed>
</trkpt>
<trkpt lat="42.900784" lon="19.666996">
<ele>1697.797852</ele>
<time>2012-04-30T17:42:50Z</time>
<desc>lat.=42.900784, lon.=19.666996, Alt.=1697.797852m. Speed=3.024000m/h.</desc>
<speed>0.840000</speed>
</trkpt>
<trkpt lat="42.900818" lon="19.666918">
<ele>1697.391602</ele>
<time>2012-04-30T17:42:55Z</time>
<desc>lat.=42.900818, lon.=19.666918, Alt.=1697.391602m. Speed=4.392000m/h.</desc>
<speed>1.220000</speed>
</trkpt>
<trkpt lat="42.900848" lon="19.666882">
<ele>1697.204102</ele>
<time>2012-04-30T17:43:00Z</time>
<desc>lat.=42.900848, lon.=19.666882, Alt.=1697.204102m. Speed=2.988000m/h.</desc>
<speed>0.830000</speed>
</trkpt>
<trkpt lat="42.900864" lon="19.666847">
<ele>1696.485352</ele>
<time>2012-04-30T17:43:05Z</time>
<desc>lat.=42.900864, lon.=19.666847, Alt.=1696.485352m. Speed=1.836000m/h.</desc>
<speed>0.510000</speed>
</trkpt>
<trkpt lat="42.900883" lon="19.666813">
<ele>1696.141602</ele>
<time>2012-04-30T17:43:10Z</time>
<desc>lat.=42.900883, lon.=19.666813, Alt.=1696.141602m. Speed=2.916000m/h.</desc>
<speed>0.810000</speed>
</trkpt>
<trkpt lat="42.900894" lon="19.666761">
<ele>1695.672852</ele>
<time>2012-04-30T17:43:15Z</time>
<desc>lat.=42.900894, lon.=19.666761, Alt.=1695.672852m. Speed=3.312000m/h.</desc>
<speed>0.920000</speed>
</trkpt>
<trkpt lat="42.900890" lon="19.666718">
<ele>1695.485352</ele>
<time>2012-04-30T17:43:20Z</time>
<desc>lat.=42.900890, lon.=19.666718, Alt.=1695.485352m. Speed=0.396000m/h.</desc>
<speed>0.110000</speed>
</trkpt>
<trkpt lat="42.900883" lon="19.666702">
<ele>1695.422852</ele>
<time>2012-04-30T17:43:25Z</time>
<desc>lat.=42.900883, lon.=19.666702, Alt.=1695.422852m. Speed=0.252000m/h.</desc>
<speed>0.070000</speed>
</trkpt>
<trkpt lat="42.900902" lon="19.666662">
<ele>1695.297852</ele>
<time>2012-04-30T17:43:30Z</time>
<desc>lat.=42.900902, lon.=19.666662, Alt.=1695.297852m. Speed=3.528000m/h.</desc>
<speed>0.980000</speed>
</trkpt>
<trkpt lat="42.900928" lon="19.666605">
<ele>1694.985352</ele>
<time>2012-04-30T17:43:35Z</time>
<desc>lat.=42.900928, lon.=19.666605, Alt.=1694.985352m. Speed=3.024000m/h.</desc>
<speed>0.840000</speed>
</trkpt>
<trkpt lat="42.900944" lon="19.666573">
<ele>1694.829102</ele>
<time>2012-04-30T17:43:40Z</time>
<desc>lat.=42.900944, lon.=19.666573, Alt.=1694.829102m. Speed=3.420000m/h.</desc>
<speed>0.950000</speed>
</trkpt>
<trkpt lat="42.900959" lon="19.666527">
<ele>1694.422852</ele>
<time>2012-04-30T17:43:45Z</time>
<desc>lat.=42.900959, lon.=19.666527, Alt.=1694.422852m. Speed=2.484000m/h.</desc>
<speed>0.690000</speed>
</trkpt>
<trkpt lat="42.900978" lon="19.666418">
<ele>1694.204102</ele>
<time>2012-04-30T17:43:50Z</time>
<desc>lat.=42.900978, lon.=19.666418, Alt.=1694.204102m. Speed=6.444000m/h.</desc>
<speed>1.790000</speed>
</trkpt>
<trkpt lat="42.901024" lon="19.666348">
<ele>1693.454102</ele>
<time>2012-04-30T17:43:55Z</time>
<desc>lat.=42.901024, lon.=19.666348, Alt.=1693.454102m. Speed=4.968000m/h.</desc>
<speed>1.380000</speed>
</trkpt>
<trkpt lat="42.901066" lon="19.666220">
<ele>1691.797852</ele>
<time>2012-04-30T17:44:00Z</time>
<desc>lat.=42.901066, lon.=19.666220, Alt.=1691.797852m. Speed=10.800000m/h.</desc>
<speed>3.000000</speed>
</trkpt>
<trkpt lat="42.901119" lon="19.666100">
<ele>1691.141602</ele>
<time>2012-04-30T17:44:05Z</time>
<desc>lat.=42.901119, lon.=19.666100, Alt.=1691.141602m. Speed=7.236000m/h.</desc>
<speed>2.010000</speed>
</trkpt>
<trkpt lat="42.901123" lon="19.666012">
<ele>1690.047852</ele>
<time>2012-04-30T17:44:10Z</time>
<desc>lat.=42.901123, lon.=19.666012, Alt.=1690.047852m. Speed=4.104000m/h.</desc>
<speed>1.140000</speed>
</trkpt>
<trkpt lat="42.901115" lon="19.665930">
<ele>1689.422852</ele>
<time>2012-04-30T17:44:15Z</time>
<desc>lat.=42.901115, lon.=19.665930, Alt.=1689.422852m. Speed=4.608000m/h.</desc>
<speed>1.280000</speed>
</trkpt>
<trkpt lat="42.901112" lon="19.665867">
<ele>1688.797852</ele>
<time>2012-04-30T17:44:20Z</time>
<desc>lat.=42.901112, lon.=19.665867, Alt.=1688.797852m. Speed=2.304000m/h.</desc>
<speed>0.640000</speed>
</trkpt>
<trkpt lat="42.901104" lon="19.665821">
<ele>1688.172852</ele>
<time>2012-04-30T17:44:25Z</time>
<desc>lat.=42.901104, lon.=19.665821, Alt.=1688.172852m. Speed=2.700000m/h.</desc>
<speed>0.750000</speed>
</trkpt>
<trkpt lat="42.901104" lon="19.665792">
<ele>1687.641602</ele>
<time>2012-04-30T17:44:30Z</time>
<desc>lat.=42.901104, lon.=19.665792, Alt.=1687.641602m. Speed=1.584000m/h.</desc>
<speed>0.440000</speed>
</trkpt>
<trkpt lat="42.901108" lon="19.665785">
<ele>1687.391602</ele>
<time>2012-04-30T17:44:35Z</time>
<desc>lat.=42.901108, lon.=19.665785, Alt.=1687.391602m. Speed=2.988000m/h.</desc>
<speed>0.830000</speed>
</trkpt>
<trkpt lat="42.901146" lon="19.665680">
<ele>1687.235352</ele>
<time>2012-04-30T17:44:40Z</time>
<desc>lat.=42.901146, lon.=19.665680, Alt.=1687.235352m. Speed=5.652000m/h.</desc>
<speed>1.570000</speed>
</trkpt>
<trkpt lat="42.901241" lon="19.665649">
<ele>1687.204102</ele>
<time>2012-04-30T17:44:45Z</time>
<desc>lat.=42.901241, lon.=19.665649, Alt.=1687.204102m. Speed=5.004000m/h.</desc>
<speed>1.390000</speed>
</trkpt>
<trkpt lat="42.901253" lon="19.665632">
<ele>1687.266602</ele>
<time>2012-04-30T17:44:50Z</time>
<desc>lat.=42.901253, lon.=19.665632, Alt.=1687.266602m. Speed=0.396000m/h.</desc>
<speed>0.110000</speed>
</trkpt>
<trkpt lat="42.901245" lon="19.665680">
<ele>1687.547852</ele>
<time>2012-04-30T17:44:55Z</time>
<desc>lat.=42.901245, lon.=19.665680, Alt.=1687.547852m. Speed=0.972000m/h.</desc>
<speed>0.270000</speed>
</trkpt>
<trkpt lat="42.901249" lon="19.665695">
<ele>1687.672852</ele>
<time>2012-04-30T17:45:00Z</time>
<desc>lat.=42.901249, lon.=19.665695, Alt.=1687.672852m. Speed=1.512000m/h.</desc>
<speed>0.420000</speed>
</trkpt>
<trkpt lat="42.901230" lon="19.665697">
<ele>1687.829102</ele>
<time>2012-04-30T17:45:05Z</time>
<desc>lat.=42.901230, lon.=19.665697, Alt.=1687.829102m. Speed=3.132000m/h.</desc>
<speed>0.870000</speed>
</trkpt>
<trkpt lat="42.901230" lon="19.665735">
<ele>1688.016602</ele>
<time>2012-04-30T17:45:10Z</time>
<desc>lat.=42.901230, lon.=19.665735, Alt.=1688.016602m. Speed=0.936000m/h.</desc>
<speed>0.260000</speed>
</trkpt>
<trkpt lat="42.901249" lon="19.665728">
<ele>1688.204102</ele>
<time>2012-04-30T17:45:15Z</time>
<desc>lat.=42.901249, lon.=19.665728, Alt.=1688.204102m. Speed=2.088000m/h.</desc>
<speed>0.580000</speed>
</trkpt>
<trkpt lat="42.901295" lon="19.665716">
<ele>1688.516602</ele>
<time>2012-04-30T17:45:20Z</time>
<desc>lat.=42.901295, lon.=19.665716, Alt.=1688.516602m. Speed=2.952000m/h.</desc>
<speed>0.820000</speed>
</trkpt>
<trkpt lat="42.901333" lon="19.665710">
<ele>1688.922852</ele>
<time>2012-04-30T17:45:25Z</time>
<desc>lat.=42.901333, lon.=19.665710, Alt.=1688.922852m. Speed=1.548000m/h.</desc>
<speed>0.430000</speed>
</trkpt>
<trkpt lat="42.901356" lon="19.665697">
<ele>1689.672852</ele>
<time>2012-04-30T17:45:30Z</time>
<desc>lat.=42.901356, lon.=19.665697, Alt.=1689.672852m. Speed=1.548000m/h.</desc>
<speed>0.430000</speed>
</trkpt>
<trkpt lat="42.901348" lon="19.665623">
<ele>1690.016602</ele>
<time>2012-04-30T17:45:35Z</time>
<desc>lat.=42.901348, lon.=19.665623, Alt.=1690.016602m. Speed=3.384000m/h.</desc>
<speed>0.940000</speed>
</trkpt>
<trkpt lat="42.901314" lon="19.665545">
<ele>1690.954102</ele>
<time>2012-04-30T17:45:40Z</time>
<desc>lat.=42.901314, lon.=19.665545, Alt.=1690.954102m. Speed=4.320000m/h.</desc>
<speed>1.200000</speed>
</trkpt>
<trkpt lat="42.901337" lon="19.665491">
<ele>1692.266602</ele>
<time>2012-04-30T17:45:45Z</time>
<desc>lat.=42.901337, lon.=19.665491, Alt.=1692.266602m. Speed=3.312000m/h.</desc>
<speed>0.920000</speed>
</trkpt>
<trkpt lat="42.901371" lon="19.665480">
<ele>1693.454102</ele>
<time>2012-04-30T17:45:50Z</time>
<desc>lat.=42.901371, lon.=19.665480, Alt.=1693.454102m. Speed=2.484000m/h.</desc>
<speed>0.690000</speed>
</trkpt>
<trkpt lat="42.901417" lon="19.665438">
<ele>1694.360352</ele>
<time>2012-04-30T17:45:55Z</time>
<desc>lat.=42.901417, lon.=19.665438, Alt.=1694.360352m. Speed=4.608000m/h.</desc>
<speed>1.280000</speed>
</trkpt>
<trkpt lat="42.901409" lon="19.665407">
<ele>1695.016602</ele>
<time>2012-04-30T17:46:00Z</time>
<desc>lat.=42.901409, lon.=19.665407, Alt.=1695.016602m. Speed=2.052000m/h.</desc>
<speed>0.570000</speed>
</trkpt>
<trkpt lat="42.901417" lon="19.665386">
<ele>1695.329102</ele>
<time>2012-04-30T17:46:05Z</time>
<desc>lat.=42.901417, lon.=19.665386, Alt.=1695.329102m. Speed=4.392000m/h.</desc>
<speed>1.220000</speed>
</trkpt>
<trkpt lat="42.901470" lon="19.665243">
<ele>1695.610352</ele>
<time>2012-04-30T17:46:10Z</time>
<desc>lat.=42.901470, lon.=19.665243, Alt.=1695.610352m. Speed=5.580000m/h.</desc>
<speed>1.550000</speed>
</trkpt>
<trkpt lat="42.901455" lon="19.665186">
<ele>1696.516602</ele>
<time>2012-04-30T17:46:15Z</time>
<desc>lat.=42.901455, lon.=19.665186, Alt.=1696.516602m. Speed=2.448000m/h.</desc>
<speed>0.680000</speed>
</trkpt>
<trkpt lat="42.901440" lon="19.665180">
<ele>1697.579102</ele>
<time>2012-04-30T17:46:20Z</time>
<desc>lat.=42.901440, lon.=19.665180, Alt.=1697.579102m. Speed=0.396000m/h.</desc>
<speed>0.110000</speed>
</trkpt>
<trkpt lat="42.901405" lon="19.665127">
<ele>1697.985352</ele>
<time>2012-04-30T17:46:25Z</time>
<desc>lat.=42.901405, lon.=19.665127, Alt.=1697.985352m. Speed=1.188000m/h.</desc>
<speed>0.330000</speed>
</trkpt>
<trkpt lat="42.901390" lon="19.665106">
<ele>1697.516602</ele>
<time>2012-04-30T17:46:30Z</time>
<desc>lat.=42.901390, lon.=19.665106, Alt.=1697.516602m. Speed=0.468000m/h.</desc>
<speed>0.130000</speed>
</trkpt>
<trkpt lat="42.901417" lon="19.665106">
<ele>1696.422852</ele>
<time>2012-04-30T17:46:35Z</time>
<desc>lat.=42.901417, lon.=19.665106, Alt.=1696.422852m. Speed=0.360000m/h.</desc>
<speed>0.100000</speed>
</trkpt>
<trkpt lat="42.901421" lon="19.665106">
<ele>1696.391602</ele>
<time>2012-04-30T17:46:40Z</time>
<desc>lat.=42.901421, lon.=19.665106, Alt.=1696.391602m. Speed=1.008000m/h.</desc>
<speed>0.280000</speed>
</trkpt>
<trkpt lat="42.901455" lon="19.665129">
<ele>1696.547852</ele>
<time>2012-04-30T17:46:45Z</time>
<desc>lat.=42.901455, lon.=19.665129, Alt.=1696.547852m. Speed=0.936000m/h.</desc>
<speed>0.260000</speed>
</trkpt>
<trkpt lat="42.901497" lon="19.665146">
<ele>1696.797852</ele>
<time>2012-04-30T17:46:50Z</time>
<desc>lat.=42.901497, lon.=19.665146, Alt.=1696.797852m. Speed=0.504000m/h.</desc>
<speed>0.140000</speed>
</trkpt>
<trkpt lat="42.901497" lon="19.665154">
<ele>1696.672852</ele>
<time>2012-04-30T17:46:55Z</time>
<desc>lat.=42.901497, lon.=19.665154, Alt.=1696.672852m. Speed=0.252000m/h.</desc>
<speed>0.070000</speed>
</trkpt>
<trkpt lat="42.901493" lon="19.665157">
<ele>1696.672852</ele>
<time>2012-04-30T17:47:00Z</time>
<desc>lat.=42.901493, lon.=19.665157, Alt.=1696.672852m. Speed=0.684000m/h.</desc>
<speed>0.190000</speed>
</trkpt>
<trkpt lat="42.901493" lon="19.665163">
<ele>1696.672852</ele>
<time>2012-04-30T17:47:05Z</time>
<desc>lat.=42.901493, lon.=19.665163, Alt.=1696.672852m. Speed=0.360000m/h.</desc>
<speed>0.100000</speed>
</trkpt>
<trkpt lat="42.901493" lon="19.665161">
<ele>1696.672852</ele>
<time>2012-04-30T17:47:10Z</time>
<desc>lat.=42.901493, lon.=19.665161, Alt.=1696.672852m. Speed=0.648000m/h.</desc>
<speed>0.180000</speed>
</trkpt>
<trkpt lat="42.901493" lon="19.665159">
<ele>1696.672852</ele>
<time>2012-04-30T17:47:15Z</time>
<desc>lat.=42.901493, lon.=19.665159, Alt.=1696.672852m. Speed=0.612000m/h.</desc>
<speed>0.170000</speed>
</trkpt>
<trkpt lat="42.901520" lon="19.665215">
<ele>1696.204102</ele>
<time>2012-04-30T17:47:20Z</time>
<desc>lat.=42.901520, lon.=19.665215, Alt.=1696.204102m. Speed=1.188000m/h.</desc>
<speed>0.330000</speed>
</trkpt>
<trkpt lat="42.901512" lon="19.665213">
<ele>1696.422852</ele>
<time>2012-04-30T17:47:25Z</time>
<desc>lat.=42.901512, lon.=19.665213, Alt.=1696.422852m. Speed=0.468000m/h.</desc>
<speed>0.130000</speed>
</trkpt>
<trkpt lat="42.901489" lon="19.665205">
<ele>1696.829102</ele>
<time>2012-04-30T17:47:30Z</time>
<desc>lat.=42.901489, lon.=19.665205, Alt.=1696.829102m. Speed=0.972000m/h.</desc>
<speed>0.270000</speed>
</trkpt>
<trkpt lat="42.901463" lon="19.665173">
<ele>1696.797852</ele>
<time>2012-04-30T17:47:35Z</time>
<desc>lat.=42.901463, lon.=19.665173, Alt.=1696.797852m. Speed=0.900000m/h.</desc>
<speed>0.250000</speed>
</trkpt>
<trkpt lat="42.901447" lon="19.665144">
<ele>1696.735352</ele>
<time>2012-04-30T17:47:40Z</time>
<desc>lat.=42.901447, lon.=19.665144, Alt.=1696.735352m. Speed=0.216000m/h.</desc>
<speed>0.060000</speed>
</trkpt>
<trkpt lat="42.901440" lon="19.665136">
<ele>1696.735352</ele>
<time>2012-04-30T17:47:45Z</time>
<desc>lat.=42.901440, lon.=19.665136, Alt.=1696.735352m. Speed=0.720000m/h.</desc>
<speed>0.200000</speed>
</trkpt>
<trkpt lat="42.901436" lon="19.665133">
<ele>1696.704102</ele>
<time>2012-04-30T17:47:50Z</time>
<desc>lat.=42.901436, lon.=19.665133, Alt.=1696.704102m. Speed=0.396000m/h.</desc>
<speed>0.110000</speed>
</trkpt>
<trkpt lat="42.901443" lon="19.665144">
<ele>1696.641602</ele>
<time>2012-04-30T17:47:55Z</time>
<desc>lat.=42.901443, lon.=19.665144, Alt.=1696.641602m. Speed=0.612000m/h.</desc>
<speed>0.170000</speed>
</trkpt>
<trkpt lat="42.901459" lon="19.665197">
<ele>1695.985352</ele>
<time>2012-04-30T17:48:00Z</time>
<desc>lat.=42.901459, lon.=19.665197, Alt.=1695.985352m. Speed=1.944000m/h.</desc>
<speed>0.540000</speed>
</trkpt>
<trkpt lat="42.901508" lon="19.665192">
<ele>1696.454102</ele>
<time>2012-04-30T17:48:05Z</time>
<desc>lat.=42.901508, lon.=19.665192, Alt.=1696.454102m. Speed=1.944000m/h.</desc>
<speed>0.540000</speed>
</trkpt>
<trkpt lat="42.901524" lon="19.665173">
<ele>1695.297852</ele>
<time>2012-04-30T17:48:10Z</time>
<desc>lat.=42.901524, lon.=19.665173, Alt.=1695.297852m. Speed=1.440000m/h.</desc>
<speed>0.400000</speed>
</trkpt>
<trkpt lat="42.901489" lon="19.665113">
<ele>1695.735352</ele>
<time>2012-04-30T17:48:15Z</time>
<desc>lat.=42.901489, lon.=19.665113, Alt.=1695.735352m. Speed=1.440000m/h.</desc>
<speed>0.400000</speed>
</trkpt>
<trkpt lat="42.901459" lon="19.665054">
<ele>1694.829102</ele>
<time>2012-04-30T17:48:20Z</time>
<desc>lat.=42.901459, lon.=19.665054, Alt.=1694.829102m. Speed=1.692000m/h.</desc>
<speed>0.470000</speed>
</trkpt>
<trkpt lat="42.901424" lon="19.664968">
<ele>1691.985352</ele>
<time>2012-04-30T17:48:25Z</time>
<desc>lat.=42.901424, lon.=19.664968, Alt.=1691.985352m. Speed=1.800000m/h.</desc>
<speed>0.500000</speed>
</trkpt>
<trkpt lat="42.901421" lon="19.664946">
<ele>1690.391602</ele>
<time>2012-04-30T17:48:30Z</time>
<desc>lat.=42.901421, lon.=19.664946, Alt.=1690.391602m. Speed=0.936000m/h.</desc>
<speed>0.260000</speed>
</trkpt>
<trkpt lat="42.901424" lon="19.664951">
<ele>1689.860352</ele>
<time>2012-04-30T17:48:35Z</time>
<desc>lat.=42.901424, lon.=19.664951, Alt.=1689.860352m. Speed=0.396000m/h.</desc>
<speed>0.110000</speed>
</trkpt>
<trkpt lat="42.901424" lon="19.664948">
<ele>1689.797852</ele>
<time>2012-04-30T17:48:40Z</time>
<desc>lat.=42.901424, lon.=19.664948, Alt.=1689.797852m. Speed=1.224000m/h.</desc>
<speed>0.340000</speed>
</trkpt>
<trkpt lat="42.901421" lon="19.664909">
<ele>1689.891602</ele>
<time>2012-04-30T17:48:45Z</time>
<desc>lat.=42.901421, lon.=19.664909, Alt.=1689.891602m. Speed=1.872000m/h.</desc>
<speed>0.520000</speed>
</trkpt>
<trkpt lat="42.901421" lon="19.664867">
<ele>1690.172852</ele>
<time>2012-04-30T17:48:50Z</time>
<desc>lat.=42.901421, lon.=19.664867, Alt.=1690.172852m. Speed=1.800000m/h.</desc>
<speed>0.500000</speed>
</trkpt>
<trkpt lat="42.901402" lon="19.664875">
<ele>1689.704102</ele>
<time>2012-04-30T17:48:55Z</time>
<desc>lat.=42.901402, lon.=19.664875, Alt.=1689.704102m. Speed=0.864000m/h.</desc>
<speed>0.240000</speed>
</trkpt>
<trkpt lat="42.901428" lon="19.664848">
<ele>1689.547852</ele>
<time>2012-04-30T17:49:00Z</time>
<desc>lat.=42.901428, lon.=19.664848, Alt.=1689.547852m. Speed=0.648000m/h.</desc>
<speed>0.180000</speed>
</trkpt>
<trkpt lat="42.901459" lon="19.664841">
<ele>1689.454102</ele>
<time>2012-04-30T17:49:05Z</time>
<desc>lat.=42.901459, lon.=19.664841, Alt.=1689.454102m. Speed=0.180000m/h.</desc>
<speed>0.050000</speed>
</trkpt>
<trkpt lat="42.901459" lon="19.664839">
<ele>1689.391602</ele>
<time>2012-04-30T17:49:10Z</time>
<desc>lat.=42.901459, lon.=19.664839, Alt.=1689.391602m. Speed=1.620000m/h.</desc>
<speed>0.450000</speed>
</trkpt>
<trkpt lat="42.901497" lon="19.664814">
<ele>1687.204102</ele>
<time>2012-04-30T17:49:15Z</time>
<desc>lat.=42.901497, lon.=19.664814, Alt.=1687.204102m. Speed=0.792000m/h.</desc>
<speed>0.220000</speed>
</trkpt>
<trkpt lat="42.901501" lon="19.664799">
<ele>1686.516602</ele>
<time>2012-04-30T17:49:20Z</time>
<desc>lat.=42.901501, lon.=19.664799, Alt.=1686.516602m. Speed=1.224000m/h.</desc>
<speed>0.340000</speed>
</trkpt>
<trkpt lat="42.901470" lon="19.664764">
<ele>1686.297852</ele>
<time>2012-04-30T17:49:25Z</time>
<desc>lat.=42.901470, lon.=19.664764, Alt.=1686.297852m. Speed=1.404000m/h.</desc>
<speed>0.390000</speed>
</trkpt>
<trkpt lat="42.901447" lon="19.664700">
<ele>1685.922852</ele>
<time>2012-04-30T17:49:30Z</time>
<desc>lat.=42.901447, lon.=19.664700, Alt.=1685.922852m. Speed=2.088000m/h.</desc>
<speed>0.580000</speed>
</trkpt>
<trkpt lat="42.901432" lon="19.664652">
<ele>1685.891602</ele>
<time>2012-04-30T17:49:35Z</time>
<desc>lat.=42.901432, lon.=19.664652, Alt.=1685.891602m. Speed=1.440000m/h.</desc>
<speed>0.400000</speed>
</trkpt>
<trkpt lat="42.901413" lon="19.664627">
<ele>1685.860352</ele>
<time>2012-04-30T17:49:40Z</time>
<desc>lat.=42.901413, lon.=19.664627, Alt.=1685.860352m. Speed=1.044000m/h.</desc>
<speed>0.290000</speed>
</trkpt>
<trkpt lat="42.901417" lon="19.664585">
<ele>1685.860352</ele>
<time>2012-04-30T17:49:45Z</time>
<desc>lat.=42.901417, lon.=19.664585, Alt.=1685.860352m. Speed=2.232000m/h.</desc>
<speed>0.620000</speed>
</trkpt>
<trkpt lat="42.901421" lon="19.664547">
<ele>1685.797852</ele>
<time>2012-04-30T17:49:50Z</time>
<desc>lat.=42.901421, lon.=19.664547, Alt.=1685.797852m. Speed=1.836000m/h.</desc>
<speed>0.510000</speed>
</trkpt>
<trkpt lat="42.901463" lon="19.664520">
<ele>1685.672852</ele>
<time>2012-04-30T17:49:55Z</time>
<desc>lat.=42.901463, lon.=19.664520, Alt.=1685.672852m. Speed=1.800000m/h.</desc>
<speed>0.500000</speed>
</trkpt>
<trkpt lat="42.901489" lon="19.664471">
<ele>1685.485352</ele>
<time>2012-04-30T17:50:00Z</time>
<desc>lat.=42.901489, lon.=19.664471, Alt.=1685.485352m. Speed=1.908000m/h.</desc>
<speed>0.530000</speed>
</trkpt>
<trkpt lat="42.901508" lon="19.664444">
<ele>1685.329102</ele>
<time>2012-04-30T17:50:05Z</time>
<desc>lat.=42.901508, lon.=19.664444, Alt.=1685.329102m. Speed=2.772000m/h.</desc>
<speed>0.770000</speed>
</trkpt>
<trkpt lat="42.901524" lon="19.664417">
<ele>1685.266602</ele>
<time>2012-04-30T17:50:10Z</time>
<desc>lat.=42.901524, lon.=19.664417, Alt.=1685.266602m. Speed=1.512000m/h.</desc>
<speed>0.420000</speed>
</trkpt>
<trkpt lat="42.901512" lon="19.664394">
<ele>1685.204102</ele>
<time>2012-04-30T17:50:15Z</time>
<desc>lat.=42.901512, lon.=19.664394, Alt.=1685.204102m. Speed=1.080000m/h.</desc>
<speed>0.300000</speed>
</trkpt>
<trkpt lat="42.901466" lon="19.664394">
<ele>1685.204102</ele>
<time>2012-04-30T17:50:20Z</time>
<desc>lat.=42.901466, lon.=19.664394, Alt.=1685.204102m. Speed=1.188000m/h.</desc>
<speed>0.330000</speed>
</trkpt>
<trkpt lat="42.901482" lon="19.664391">
<ele>1685.235352</ele>
<time>2012-04-30T17:50:25Z</time>
<desc>lat.=42.901482, lon.=19.664391, Alt.=1685.235352m. Speed=0.396000m/h.</desc>
<speed>0.110000</speed>
</trkpt>
<trkpt lat="42.901493" lon="19.664356">
<ele>1684.922852</ele>
<time>2012-04-30T17:50:30Z</time>
<desc>lat.=42.901493, lon.=19.664356, Alt.=1684.922852m. Speed=2.196000m/h.</desc>
<speed>0.610000</speed>
</trkpt>
<trkpt lat="42.901535" lon="19.664341">
<ele>1684.579102</ele>
<time>2012-04-30T17:50:35Z</time>
<desc>lat.=42.901535, lon.=19.664341, Alt.=1684.579102m. Speed=1.548000m/h.</desc>
<speed>0.430000</speed>
</trkpt>
<trkpt lat="42.901512" lon="19.664248">
<ele>1684.297852</ele>
<time>2012-04-30T17:50:40Z</time>
<desc>lat.=42.901512, lon.=19.664248, Alt.=1684.297852m. Speed=3.168000m/h.</desc>
<speed>0.880000</speed>
</trkpt>
<trkpt lat="42.901497" lon="19.664186">
<ele>1684.172852</ele>
<time>2012-04-30T17:50:45Z</time>
<desc>lat.=42.901497, lon.=19.664186, Alt.=1684.172852m. Speed=2.700000m/h.</desc>
<speed>0.750000</speed>
</trkpt>
<trkpt lat="42.901485" lon="19.664129">
<ele>1683.704102</ele>
<time>2012-04-30T17:50:50Z</time>
<desc>lat.=42.901485, lon.=19.664129, Alt.=1683.704102m. Speed=3.240000m/h.</desc>
<speed>0.900000</speed>
</trkpt>
<trkpt lat="42.901451" lon="19.664082">
<ele>1683.485352</ele>
<time>2012-04-30T17:50:55Z</time>
<desc>lat.=42.901451, lon.=19.664082, Alt.=1683.485352m. Speed=1.512000m/h.</desc>
<speed>0.420000</speed>
</trkpt>
<trkpt lat="42.901451" lon="19.664019">
<ele>1683.266602</ele>
<time>2012-04-30T17:51:00Z</time>
<desc>lat.=42.901451, lon.=19.664019, Alt.=1683.266602m. Speed=2.196000m/h.</desc>
<speed>0.610000</speed>
</trkpt>
<trkpt lat="42.901497" lon="19.663946">
<ele>1682.579102</ele>
<time>2012-04-30T17:51:05Z</time>
<desc>lat.=42.901497, lon.=19.663946, Alt.=1682.579102m. Speed=1.692000m/h.</desc>
<speed>0.470000</speed>
</trkpt>
<trkpt lat="42.901482" lon="19.663921">
<ele>1682.360352</ele>
<time>2012-04-30T17:51:10Z</time>
<desc>lat.=42.901482, lon.=19.663921, Alt.=1682.360352m. Speed=2.376000m/h.</desc>
<speed>0.660000</speed>
</trkpt>
<trkpt lat="42.901516" lon="19.663891">
<ele>1681.860352</ele>
<time>2012-04-30T17:51:15Z</time>
<desc>lat.=42.901516, lon.=19.663891, Alt.=1681.860352m. Speed=2.232000m/h.</desc>
<speed>0.620000</speed>
</trkpt>
<trkpt lat="42.901505" lon="19.663830">
<ele>1680.922852</ele>
<time>2012-04-30T17:51:20Z</time>
<desc>lat.=42.901505, lon.=19.663830, Alt.=1680.922852m. Speed=2.232000m/h.</desc>
<speed>0.620000</speed>
</trkpt>
<trkpt lat="42.901516" lon="19.663786">
<ele>1680.110352</ele>
<time>2012-04-30T17:51:25Z</time>
<desc>lat.=42.901516, lon.=19.663786, Alt.=1680.110352m. Speed=2.232000m/h.</desc>
<speed>0.620000</speed>
</trkpt>
<trkpt lat="42.901508" lon="19.663717">
<ele>1679.172852</ele>
<time>2012-04-30T17:51:30Z</time>
<desc>lat.=42.901508, lon.=19.663717, Alt.=1679.172852m. Speed=2.412000m/h.</desc>
<speed>0.670000</speed>
</trkpt>
<trkpt lat="42.901539" lon="19.663677">
<ele>1678.297852</ele>
<time>2012-04-30T17:51:35Z</time>
<desc>lat.=42.901539, lon.=19.663677, Alt.=1678.297852m. Speed=2.304000m/h.</desc>
<speed>0.640000</speed>
</trkpt>
<trkpt lat="42.901546" lon="19.663670">
<ele>1677.141602</ele>
<time>2012-04-30T17:51:40Z</time>
<desc>lat.=42.901546, lon.=19.663670, Alt.=1677.141602m. Speed=2.196000m/h.</desc>
<speed>0.610000</speed>
</trkpt>
<trkpt lat="42.901558" lon="19.663643">
<ele>1676.297852</ele>
<time>2012-04-30T17:51:45Z</time>
<desc>lat.=42.901558, lon.=19.663643, Alt.=1676.297852m. Speed=2.016000m/h.</desc>
<speed>0.560000</speed>
</trkpt>
<trkpt lat="42.901577" lon="19.663578">
<ele>1675.547852</ele>
<time>2012-04-30T17:51:50Z</time>
<desc>lat.=42.901577, lon.=19.663578, Alt.=1675.547852m. Speed=2.592000m/h.</desc>
<speed>0.720000</speed>
</trkpt>
<trkpt lat="42.901577" lon="19.663521">
<ele>1675.110352</ele>
<time>2012-04-30T17:51:55Z</time>
<desc>lat.=42.901577, lon.=19.663521, Alt.=1675.110352m. Speed=2.088000m/h.</desc>
<speed>0.580000</speed>
</trkpt>
<trkpt lat="42.901550" lon="19.663525">
<ele>1674.860352</ele>
<time>2012-04-30T17:52:00Z</time>
<desc>lat.=42.901550, lon.=19.663525, Alt.=1674.860352m. Speed=0.072000m/h.</desc>
<speed>0.020000</speed>
</trkpt>
<trkpt lat="42.901543" lon="19.663527">
<ele>1674.735352</ele>
<time>2012-04-30T17:52:05Z</time>
<desc>lat.=42.901543, lon.=19.663527, Alt.=1674.735352m. Speed=0.504000m/h.</desc>
<speed>0.140000</speed>
</trkpt>
<trkpt lat="42.901546" lon="19.663536">
<ele>1674.672852</ele>
<time>2012-04-30T17:52:10Z</time>
<desc>lat.=42.901546, lon.=19.663536, Alt.=1674.672852m. Speed=0.720000m/h.</desc>
<speed>0.200000</speed>
</trkpt>
<trkpt lat="42.901569" lon="19.663538">
<ele>1674.360352</ele>
<time>2012-04-30T17:52:15Z</time>
<desc>lat.=42.901569, lon.=19.663538, Alt.=1674.360352m. Speed=1.656000m/h.</desc>
<speed>0.460000</speed>
</trkpt>
<trkpt lat="42.901550" lon="19.663498">
<ele>1673.922852</ele>
<time>2012-04-30T17:52:20Z</time>
<desc>lat.=42.901550, lon.=19.663498, Alt.=1673.922852m. Speed=1.296000m/h.</desc>
<speed>0.360000</speed>
</trkpt>
<trkpt lat="42.901535" lon="19.663460">
<ele>1673.797852</ele>
<time>2012-04-30T17:52:25Z</time>
<desc>lat.=42.901535, lon.=19.663460, Alt.=1673.797852m. Speed=0.756000m/h.</desc>
<speed>0.210000</speed>
</trkpt>
<trkpt lat="42.901527" lon="19.663395">
<ele>1673.297852</ele>
<time>2012-04-30T17:52:30Z</time>
<desc>lat.=42.901527, lon.=19.663395, Alt.=1673.297852m. Speed=1.908000m/h.</desc>
<speed>0.530000</speed>
</trkpt>
<trkpt lat="42.901550" lon="19.663322">
<ele>1672.829102</ele>
<time>2012-04-30T17:52:35Z</time>
<desc>lat.=42.901550, lon.=19.663322, Alt.=1672.829102m. Speed=3.852000m/h.</desc>
<speed>1.070000</speed>
</trkpt>
<trkpt lat="42.901596" lon="19.663324">
<ele>1671.422852</ele>
<time>2012-04-30T17:52:40Z</time>
<desc>lat.=42.901596, lon.=19.663324, Alt.=1671.422852m. Speed=5.220000m/h.</desc>
<speed>1.450000</speed>
</trkpt>
<trkpt lat="42.901604" lon="19.663277">
<ele>1669.579102</ele>
<time>2012-04-30T17:52:45Z</time>
<desc>lat.=42.901604, lon.=19.663277, Alt.=1669.579102m. Speed=2.700000m/h.</desc>
<speed>0.750000</speed>
</trkpt>
<trkpt lat="42.901577" lon="19.663239">
<ele>1668.235352</ele>
<time>2012-04-30T17:52:50Z</time>
<desc>lat.=42.901577, lon.=19.663239, Alt.=1668.235352m. Speed=1.620000m/h.</desc>
<speed>0.450000</speed>
</trkpt>
<trkpt lat="42.901539" lon="19.663235">
<ele>1666.672852</ele>
<time>2012-04-30T17:52:55Z</time>
<desc>lat.=42.901539, lon.=19.663235, Alt.=1666.672852m. Speed=1.368000m/h.</desc>
<speed>0.380000</speed>
</trkpt>
<trkpt lat="42.901459" lon="19.663160">
<ele>1666.047852</ele>
<time>2012-04-30T17:53:00Z</time>
<desc>lat.=42.901459, lon.=19.663160, Alt.=1666.047852m. Speed=2.556000m/h.</desc>
<speed>0.710000</speed>
</trkpt>
<trkpt lat="42.901409" lon="19.663128">
<ele>1665.547852</ele>
<time>2012-04-30T17:53:05Z</time>
<desc>lat.=42.901409, lon.=19.663128, Alt.=1665.547852m. Speed=4.356000m/h.</desc>
<speed>1.210000</speed>
</trkpt>
<trkpt lat="42.901398" lon="19.663061">
<ele>1664.610352</ele>
<time>2012-04-30T17:53:10Z</time>
<desc>lat.=42.901398, lon.=19.663061, Alt.=1664.610352m. Speed=0.720000m/h.</desc>
<speed>0.200000</speed>
</trkpt>
<trkpt lat="42.901413" lon="19.663031">
<ele>1664.422852</ele>
<time>2012-04-30T17:53:15Z</time>
<desc>lat.=42.901413, lon.=19.663031, Alt.=1664.422852m. Speed=0.180000m/h.</desc>
<speed>0.050000</speed>
</trkpt>
<trkpt lat="42.901413" lon="19.663034">
<ele>1664.360352</ele>
<time>2012-04-30T17:53:20Z</time>
<desc>lat.=42.901413, lon.=19.663034, Alt.=1664.360352m. Speed=0.180000m/h.</desc>
<speed>0.050000</speed>
</trkpt>
<trkpt lat="42.901413" lon="19.663034">
<ele>1664.329102</ele>
<time>2012-04-30T17:53:25Z</time>
<desc>lat.=42.901413, lon.=19.663034, Alt.=1664.329102m. Speed=0.360000m/h.</desc>
<speed>0.100000</speed>
</trkpt>
<trkpt lat="42.901474" lon="19.662991">
<ele>1663.922852</ele>
<time>2012-04-30T17:53:30Z</time>
<desc>lat.=42.901474, lon.=19.662991, Alt.=1663.922852m. Speed=6.516000m/h.</desc>
<speed>1.810000</speed>
</trkpt>
<trkpt lat="42.901550" lon="19.662884">
<ele>1662.329102</ele>
<time>2012-04-30T17:53:35Z</time>
<desc>lat.=42.901550, lon.=19.662884, Alt.=1662.329102m. Speed=12.456000m/h.</desc>
<speed>3.460000</speed>
</trkpt>
<trkpt lat="42.901638" lon="19.662743">
<ele>1660.047852</ele>
<time>2012-04-30T17:53:40Z</time>
<desc>lat.=42.901638, lon.=19.662743, Alt.=1660.047852m. Speed=8.532000m/h.</desc>
<speed>2.370000</speed>
</trkpt>
<trkpt lat="42.901695" lon="19.662653">
<ele>1658.485352</ele>
<time>2012-04-30T17:53:45Z</time>
<desc>lat.=42.901695, lon.=19.662653, Alt.=1658.485352m. Speed=5.688000m/h.</desc>
<speed>1.580000</speed>
</trkpt>
<trkpt lat="42.901756" lon="19.662575">
<ele>1656.579102</ele>
<time>2012-04-30T17:53:50Z</time>
<desc>lat.=42.901756, lon.=19.662575, Alt.=1656.579102m. Speed=7.272000m/h.</desc>
<speed>2.020000</speed>
</trkpt>
<trkpt lat="42.901829" lon="19.662508">
<ele>1654.016602</ele>
<time>2012-04-30T17:53:55Z</time>
<desc>lat.=42.901829, lon.=19.662508, Alt.=1654.016602m. Speed=8.496000m/h.</desc>
<speed>2.360000</speed>
</trkpt>
<trkpt lat="42.901882" lon="19.662416">
<ele>1651.954102</ele>
<time>2012-04-30T17:54:00Z</time>
<desc>lat.=42.901882, lon.=19.662416, Alt.=1651.954102m. Speed=8.424000m/h.</desc>
<speed>2.340000</speed>
</trkpt>
<trkpt lat="42.901920" lon="19.662291">
<ele>1648.766602</ele>
<time>2012-04-30T17:54:05Z</time>
<desc>lat.=42.901920, lon.=19.662291, Alt.=1648.766602m. Speed=5.580000m/h.</desc>
<speed>1.550000</speed>
</trkpt>
<trkpt lat="42.901958" lon="19.662174">
<ele>1644.141602</ele>
<time>2012-04-30T17:54:10Z</time>
<desc>lat.=42.901958, lon.=19.662174, Alt.=1644.141602m. Speed=11.448000m/h.</desc>
<speed>3.180000</speed>
</trkpt>
<trkpt lat="42.901955" lon="19.662092">
<ele>1641.235352</ele>
<time>2012-04-30T17:54:15Z</time>
<desc>lat.=42.901955, lon.=19.662092, Alt.=1641.235352m. Speed=0.576000m/h.</desc>
<speed>0.160000</speed>
</trkpt>
<trkpt lat="42.901970" lon="19.662075">
<ele>1640.704102</ele>
<time>2012-04-30T17:54:20Z</time>
<desc>lat.=42.901970, lon.=19.662075, Alt.=1640.704102m. Speed=1.224000m/h.</desc>
<speed>0.340000</speed>
</trkpt>
<trkpt lat="42.901955" lon="19.662020">
<ele>1639.829102</ele>
<time>2012-04-30T17:54:25Z</time>
<desc>lat.=42.901955, lon.=19.662020, Alt.=1639.829102m. Speed=2.088000m/h.</desc>
<speed>0.580000</speed>
</trkpt>
<trkpt lat="42.901958" lon="19.661978">
<ele>1639.579102</ele>
<time>2012-04-30T17:54:30Z</time>
<desc>lat.=42.901958, lon.=19.661978, Alt.=1639.579102m. Speed=2.088000m/h.</desc>
<speed>0.580000</speed>
</trkpt>
<trkpt lat="42.901970" lon="19.661913">
<ele>1638.735352</ele>
<time>2012-04-30T17:54:35Z</time>
<desc>lat.=42.901970, lon.=19.661913, Alt.=1638.735352m. Speed=2.592000m/h.</desc>
<speed>0.720000</speed>
</trkpt>
<trkpt lat="42.901974" lon="19.661892">
<ele>1638.110352</ele>
<time>2012-04-30T17:54:40Z</time>
<desc>lat.=42.901974, lon.=19.661892, Alt.=1638.110352m. Speed=1.008000m/h.</desc>
<speed>0.280000</speed>
</trkpt>
<trkpt lat="42.901970" lon="19.661890">
<ele>1637.547852</ele>
<time>2012-04-30T17:54:45Z</time>
<desc>lat.=42.901970, lon.=19.661890, Alt.=1637.547852m. Speed=1.476000m/h.</desc>
<speed>0.410000</speed>
</trkpt>
<trkpt lat="42.901985" lon="19.661785">
<ele>1636.922852</ele>
<time>2012-04-30T17:54:50Z</time>
<desc>lat.=42.901985, lon.=19.661785, Alt.=1636.922852m. Speed=5.544000m/h.</desc>
<speed>1.540000</speed>
</trkpt>
<trkpt lat="42.902008" lon="19.661760">
<ele>1636.735352</ele>
<time>2012-04-30T17:54:55Z</time>
<desc>lat.=42.902008, lon.=19.661760, Alt.=1636.735352m. Speed=0.540000m/h.</desc>
<speed>0.150000</speed>
</trkpt>
<trkpt lat="42.902012" lon="19.661751">
<ele>1636.547852</ele>
<time>2012-04-30T17:55:00Z</time>
<desc>lat.=42.902012, lon.=19.661751, Alt.=1636.547852m. Speed=1.080000m/h.</desc>
<speed>0.300000</speed>
</trkpt>
<trkpt lat="42.902016" lon="19.661737">
<ele>1636.079102</ele>
<time>2012-04-30T17:55:05Z</time>
<desc>lat.=42.902016, lon.=19.661737, Alt.=1636.079102m. Speed=1.044000m/h.</desc>
<speed>0.290000</speed>
</trkpt>
<trkpt lat="42.902039" lon="19.661514">
<ele>1634.610352</ele>
<time>2012-04-30T17:55:10Z</time>
<desc>lat.=42.902039, lon.=19.661514, Alt.=1634.610352m. Speed=14.436000m/h.</desc>
<speed>4.010000</speed>
</trkpt>
<trkpt lat="42.902054" lon="19.661327">
<ele>1632.172852</ele>
<time>2012-04-30T17:55:15Z</time>
<desc>lat.=42.902054, lon.=19.661327, Alt.=1632.172852m. Speed=5.652000m/h.</desc>
<speed>1.570000</speed>
</trkpt>
<trkpt lat="42.902042" lon="19.661287">
<ele>1631.141602</ele>
<time>2012-04-30T17:55:20Z</time>
<desc>lat.=42.902042, lon.=19.661287, Alt.=1631.141602m. Speed=2.376000m/h.</desc>
<speed>0.660000</speed>
</trkpt>
<trkpt lat="42.902035" lon="19.661274">
<ele>1629.735352</ele>
<time>2012-04-30T17:55:25Z</time>
<desc>lat.=42.902035, lon.=19.661274, Alt.=1629.735352m. Speed=0.432000m/h.</desc>
<speed>0.120000</speed>
</trkpt>
<trkpt lat="42.902035" lon="19.661263">
<ele>1629.860352</ele>
<time>2012-04-30T17:55:30Z</time>
<desc>lat.=42.902035, lon.=19.661263, Alt.=1629.860352m. Speed=1.332000m/h.</desc>
<speed>0.370000</speed>
</trkpt>
<trkpt lat="42.902054" lon="19.661253">
<ele>1630.641602</ele>
<time>2012-04-30T17:55:35Z</time>
<desc>lat.=42.902054, lon.=19.661253, Alt.=1630.641602m. Speed=1.044000m/h.</desc>
<speed>0.290000</speed>
</trkpt>
<trkpt lat="42.902065" lon="19.661240">
<ele>1630.829102</ele>
<time>2012-04-30T17:55:40Z</time>
<desc>lat.=42.902065, lon.=19.661240, Alt.=1630.829102m. Speed=1.188000m/h.</desc>
<speed>0.330000</speed>
</trkpt>
<trkpt lat="42.902073" lon="19.661221">
<ele>1631.079102</ele>
<time>2012-04-30T17:55:45Z</time>
<desc>lat.=42.902073, lon.=19.661221, Alt.=1631.079102m. Speed=1.008000m/h.</desc>
<speed>0.280000</speed>
</trkpt>
<trkpt lat="42.902061" lon="19.661226">
<ele>1631.079102</ele>
<time>2012-04-30T17:55:50Z</time>
<desc>lat.=42.902061, lon.=19.661226, Alt.=1631.079102m. Speed=1.404000m/h.</desc>
<speed>0.390000</speed>
</trkpt>
<trkpt lat="42.902054" lon="19.661201">
<ele>1630.954102</ele>
<time>2012-04-30T17:55:55Z</time>
<desc>lat.=42.902054, lon.=19.661201, Alt.=1630.954102m. Speed=2.592000m/h.</desc>
<speed>0.720000</speed>
</trkpt>
<trkpt lat="42.902046" lon="19.661119">
<ele>1631.172852</ele>
<time>2012-04-30T17:56:00Z</time>
<desc>lat.=42.902046, lon.=19.661119, Alt.=1631.172852m. Speed=3.204000m/h.</desc>
<speed>0.890000</speed>
</trkpt>
<trkpt lat="42.902031" lon="19.661055">
<ele>1631.391602</ele>
<time>2012-04-30T17:56:05Z</time>
<desc>lat.=42.902031, lon.=19.661055, Alt.=1631.391602m. Speed=3.492000m/h.</desc>
<speed>0.970000</speed>
</trkpt>
<trkpt lat="42.902016" lon="19.661001">
<ele>1631.547852</ele>
<time>2012-04-30T17:56:10Z</time>
<desc>lat.=42.902016, lon.=19.661001, Alt.=1631.547852m. Speed=3.600000m/h.</desc>
<speed>1.000000</speed>
</trkpt>
<trkpt lat="42.902008" lon="19.660980">
<ele>1631.641602</ele>
<time>2012-04-30T17:56:15Z</time>
<desc>lat.=42.902008, lon.=19.660980, Alt.=1631.641602m. Speed=1.584000m/h.</desc>
<speed>0.440000</speed>
</trkpt>
<trkpt lat="42.902016" lon="19.660984">
<ele>1631.766602</ele>
<time>2012-04-30T17:56:20Z</time>
<desc>lat.=42.902016, lon.=19.660984, Alt.=1631.766602m. Speed=0.144000m/h.</desc>
<speed>0.040000</speed>
</trkpt>
<trkpt lat="42.902016" lon="19.660982">
<ele>1631.985352</ele>
<time>2012-04-30T17:56:25Z</time>
<desc>lat.=42.902016, lon.=19.660982, Alt.=1631.985352m. Speed=0.180000m/h.</desc>
<speed>0.050000</speed>
</trkpt>
<trkpt lat="42.902023" lon="19.660963">
<ele>1632.172852</ele>
<time>2012-04-30T17:56:30Z</time>
<desc>lat.=42.902023, lon.=19.660963, Alt.=1632.172852m. Speed=3.708000m/h.</desc>
<speed>1.030000</speed>
</trkpt>
<trkpt lat="42.902077" lon="19.660942">
<ele>1632.172852</ele>
<time>2012-04-30T17:56:35Z</time>
<desc>lat.=42.902077, lon.=19.660942, Alt.=1632.172852m. Speed=5.652000m/h.</desc>
<speed>1.570000</speed>
</trkpt>
<trkpt lat="42.902126" lon="19.660913">
<ele>1632.172852</ele>
<time>2012-04-30T17:56:40Z</time>
<desc>lat.=42.902126, lon.=19.660913, Alt.=1632.172852m. Speed=4.536000m/h.</desc>
<speed>1.260000</speed>
</trkpt>
<trkpt lat="42.902203" lon="19.660854">
<ele>1632.172852</ele>
<time>2012-04-30T17:56:45Z</time>
<desc>lat.=42.902203, lon.=19.660854, Alt.=1632.172852m. Speed=3.960000m/h.</desc>
<speed>1.100000</speed>
</trkpt>
<trkpt lat="42.902252" lon="19.660763">
<ele>1632.297852</ele>
<time>2012-04-30T17:56:50Z</time>
<desc>lat.=42.902252, lon.=19.660763, Alt.=1632.297852m. Speed=3.708000m/h.</desc>
<speed>1.030000</speed>
</trkpt>
<trkpt lat="42.902283" lon="19.660667">
<ele>1632.329102</ele>
<time>2012-04-30T17:56:55Z</time>
<desc>lat.=42.902283, lon.=19.660667, Alt.=1632.329102m. Speed=4.932000m/h.</desc>
<speed>1.370000</speed>
</trkpt>
<trkpt lat="42.902340" lon="19.660572">
<ele>1632.360352</ele>
<time>2012-04-30T17:57:00Z</time>
<desc>lat.=42.902340, lon.=19.660572, Alt.=1632.360352m. Speed=4.680000m/h.</desc>
<speed>1.300000</speed>
</trkpt>
<trkpt lat="42.902363" lon="19.660484">
<ele>1632.360352</ele>
<time>2012-04-30T17:57:05Z</time>
<desc>lat.=42.902363, lon.=19.660484, Alt.=1632.360352m. Speed=3.204000m/h.</desc>
<speed>0.890000</speed>
</trkpt>
<trkpt lat="42.902470" lon="19.660389">
<ele>1632.579102</ele>
<time>2012-04-30T17:57:10Z</time>
<desc>lat.=42.902470, lon.=19.660389, Alt.=1632.579102m. Speed=7.920000m/h.</desc>
<speed>2.200000</speed>
</trkpt>
<trkpt lat="42.902573" lon="19.660294">
<ele>1633.266602</ele>
<time>2012-04-30T17:57:15Z</time>
<desc>lat.=42.902573, lon.=19.660294, Alt.=1633.266602m. Speed=10.116000m/h.</desc>
<speed>2.810000</speed>
</trkpt>
<trkpt lat="42.902676" lon="19.660181">
<ele>1633.672852</ele>
<time>2012-04-30T17:57:20Z</time>
<desc>lat.=42.902676, lon.=19.660181, Alt.=1633.672852m. Speed=5.220000m/h.</desc>
<speed>1.450000</speed>
</trkpt>
<trkpt lat="42.902752" lon="19.660093">
<ele>1634.360352</ele>
<time>2012-04-30T17:57:25Z</time>
<desc>lat.=42.902752, lon.=19.660093, Alt.=1634.360352m. Speed=9.576000m/h.</desc>
<speed>2.660000</speed>
</trkpt>
<trkpt lat="42.902756" lon="19.660007">
<ele>1634.891602</ele>
<time>2012-04-30T17:57:30Z</time>
<desc>lat.=42.902756, lon.=19.660007, Alt.=1634.891602m. Speed=1.008000m/h.</desc>
<speed>0.280000</speed>
</trkpt>
<trkpt lat="42.902740" lon="19.659994">
<ele>1635.579102</ele>
<time>2012-04-30T17:57:35Z</time>
<desc>lat.=42.902740, lon.=19.659994, Alt.=1635.579102m. Speed=0.504000m/h.</desc>
<speed>0.140000</speed>
</trkpt>
<trkpt lat="42.902740" lon="19.660004">
<ele>1636.579102</ele>
<time>2012-04-30T17:57:40Z</time>
<desc>lat.=42.902740, lon.=19.660004, Alt.=1636.579102m. Speed=0.864000m/h.</desc>
<speed>0.240000</speed>
</trkpt>
<trkpt lat="42.902786" lon="19.660004">
<ele>1637.485352</ele>
<time>2012-04-30T17:57:45Z</time>
<desc>lat.=42.902786, lon.=19.660004, Alt.=1637.485352m. Speed=0.576000m/h.</desc>
<speed>0.160000</speed>
</trkpt>
<trkpt lat="42.902805" lon="19.660007">
<ele>1638.485352</ele>
<time>2012-04-30T17:57:50Z</time>
<desc>lat.=42.902805, lon.=19.660007, Alt.=1638.485352m. Speed=0.180000m/h.</desc>
<speed>0.050000</speed>
</trkpt>
<trkpt lat="42.902821" lon="19.659985">
<ele>1639.110352</ele>
<time>2012-04-30T17:57:55Z</time>
<desc>lat.=42.902821, lon.=19.659985, Alt.=1639.110352m. Speed=3.456000m/h.</desc>
<speed>0.960000</speed>
</trkpt>
<trkpt lat="42.902863" lon="19.659868">
<ele>1639.547852</ele>
<time>2012-04-30T17:58:00Z</time>
<desc>lat.=42.902863, lon.=19.659868, Alt.=1639.547852m. Speed=8.316000m/h.</desc>
<speed>2.310000</speed>
</trkpt>
<trkpt lat="42.902912" lon="19.659754">
<ele>1639.954102</ele>
<time>2012-04-30T17:58:05Z</time>
<desc>lat.=42.902912, lon.=19.659754, Alt.=1639.954102m. Speed=1.116000m/h.</desc>
<speed>0.310000</speed>
</trkpt>
<trkpt lat="42.902901" lon="19.659710">
<ele>1640.141602</ele>
<time>2012-04-30T17:58:10Z</time>
<desc>lat.=42.902901, lon.=19.659710, Alt.=1640.141602m. Speed=1.368000m/h.</desc>
<speed>0.380000</speed>
</trkpt>
<trkpt lat="42.902943" lon="19.659615">
<ele>1640.297852</ele>
<time>2012-04-30T17:58:15Z</time>
<desc>lat.=42.902943, lon.=19.659615, Alt.=1640.297852m. Speed=5.328000m/h.</desc>
<speed>1.480000</speed>
</trkpt>
<trkpt lat="42.902996" lon="19.659494">
<ele>1640.360352</ele>
<time>2012-04-30T17:58:20Z</time>
<desc>lat.=42.902996, lon.=19.659494, Alt.=1640.360352m. Speed=4.140000m/h.</desc>
<speed>1.150000</speed>
</trkpt>
<trkpt lat="42.903027" lon="19.659418">
<ele>1640.610352</ele>
<time>2012-04-30T17:58:25Z</time>
<desc>lat.=42.903027, lon.=19.659418, Alt.=1640.610352m. Speed=2.844000m/h.</desc>
<speed>0.790000</speed>
</trkpt>
<trkpt lat="42.903053" lon="19.659348">
<ele>1640.985352</ele>
<time>2012-04-30T17:58:30Z</time>
<desc>lat.=42.903053, lon.=19.659348, Alt.=1640.985352m. Speed=1.944000m/h.</desc>
<speed>0.540000</speed>
</trkpt>
<trkpt lat="42.903057" lon="19.659264">
<ele>1641.235352</ele>
<time>2012-04-30T17:58:35Z</time>
<desc>lat.=42.903057, lon.=19.659264, Alt.=1641.235352m. Speed=3.384000m/h.</desc>
<speed>0.940000</speed>
</trkpt>
<trkpt lat="42.903130" lon="19.659163">
<ele>1641.297852</ele>
<time>2012-04-30T17:58:40Z</time>
<desc>lat.=42.903130, lon.=19.659163, Alt.=1641.297852m. Speed=3.348000m/h.</desc>
<speed>0.930000</speed>
</trkpt>
<trkpt lat="42.903179" lon="19.659065">
<ele>1641.297852</ele>
<time>2012-04-30T17:58:45Z</time>
<desc>lat.=42.903179, lon.=19.659065, Alt.=1641.297852m. Speed=3.996000m/h.</desc>
<speed>1.110000</speed>
</trkpt>
<trkpt lat="42.903214" lon="19.658981">
<ele>1641.172852</ele>
<time>2012-04-30T17:58:50Z</time>
<desc>lat.=42.903214, lon.=19.658981, Alt.=1641.172852m. Speed=2.448000m/h.</desc>
<speed>0.680000</speed>
</trkpt>
<trkpt lat="42.903259" lon="19.658911">
<ele>1640.985352</ele>
<time>2012-04-30T17:58:55Z</time>
<desc>lat.=42.903259, lon.=19.658911, Alt.=1640.985352m. Speed=2.664000m/h.</desc>
<speed>0.740000</speed>
</trkpt>
<trkpt lat="42.903313" lon="19.658861">
<ele>1641.016602</ele>
<time>2012-04-30T17:59:00Z</time>
<desc>lat.=42.903313, lon.=19.658861, Alt.=1641.016602m. Speed=2.988000m/h.</desc>
<speed>0.830000</speed>
</trkpt>
<trkpt lat="42.903316" lon="19.658817">
<ele>1640.985352</ele>
<time>2012-04-30T17:59:05Z</time>
<desc>lat.=42.903316, lon.=19.658817, Alt.=1640.985352m. Speed=1.980000m/h.</desc>
<speed>0.550000</speed>
</trkpt>
<trkpt lat="42.903316" lon="19.658800">
<ele>1640.672852</ele>
<time>2012-04-30T17:59:10Z</time>
<desc>lat.=42.903316, lon.=19.658800, Alt.=1640.672852m. Speed=0.936000m/h.</desc>
<speed>0.260000</speed>
</trkpt>
<trkpt lat="42.903339" lon="19.658758">
<ele>1640.610352</ele>
<time>2012-04-30T17:59:15Z</time>
<desc>lat.=42.903339, lon.=19.658758, Alt.=1640.610352m. Speed=1.908000m/h.</desc>
<speed>0.530000</speed>
</trkpt>
<trkpt lat="42.903351" lon="19.658768">
<ele>1640.172852</ele>
<time>2012-04-30T17:59:20Z</time>
<desc>lat.=42.903351, lon.=19.658768, Alt.=1640.172852m. Speed=3.564000m/h.</desc>
<speed>0.990000</speed>
</trkpt>
<trkpt lat="42.903408" lon="19.658768">
<ele>1639.829102</ele>
<time>2012-04-30T17:59:25Z</time>
<desc>lat.=42.903408, lon.=19.658768, Alt.=1639.829102m. Speed=2.484000m/h.</desc>
<speed>0.690000</speed>
</trkpt>
<trkpt lat="42.903431" lon="19.658739">
<ele>1639.672852</ele>
<time>2012-04-30T17:59:30Z</time>
<desc>lat.=42.903431, lon.=19.658739, Alt.=1639.672852m. Speed=2.304000m/h.</desc>
<speed>0.640000</speed>
</trkpt>
<trkpt lat="42.903461" lon="19.658718">
<ele>1639.547852</ele>
<time>2012-04-30T17:59:35Z</time>
<desc>lat.=42.903461, lon.=19.658718, Alt.=1639.547852m. Speed=1.728000m/h.</desc>
<speed>0.480000</speed>
</trkpt>
<trkpt lat="42.903519" lon="19.658707">
<ele>1639.391602</ele>
<time>2012-04-30T17:59:40Z</time>
<desc>lat.=42.903519, lon.=19.658707, Alt.=1639.391602m. Speed=3.168000m/h.</desc>
<speed>0.880000</speed>
</trkpt>
<trkpt lat="42.903580" lon="19.658680">
<ele>1639.172852</ele>
<time>2012-04-30T17:59:45Z</time>
<desc>lat.=42.903580, lon.=19.658680, Alt.=1639.172852m. Speed=3.636000m/h.</desc>
<speed>1.010000</speed>
</trkpt>
<trkpt lat="42.903637" lon="19.658665">
<ele>1639.016602</ele>
<time>2012-04-30T17:59:50Z</time>
<desc>lat.=42.903637, lon.=19.658665, Alt.=1639.016602m. Speed=3.024000m/h.</desc>
<speed>0.840000</speed>
</trkpt>
<trkpt lat="42.903664" lon="19.658649">
<ele>1639.172852</ele>
<time>2012-04-30T17:59:55Z</time>
<desc>lat.=42.903664, lon.=19.658649, Alt.=1639.172852m. Speed=1.368000m/h.</desc>
<speed>0.380000</speed>
</trkpt>
<trkpt lat="42.903690" lon="19.658653">
<ele>1639.485352</ele>
<time>2012-04-30T18:00:00Z</time>
<desc>lat.=42.903690, lon.=19.658653, Alt.=1639.485352m. Speed=2.088000m/h.</desc>
<speed>0.580000</speed>
</trkpt>
<trkpt lat="42.903713" lon="19.658653">
<ele>1639.735352</ele>
<time>2012-04-30T18:00:05Z</time>
<desc>lat.=42.903713, lon.=19.658653, Alt.=1639.735352m. Speed=1.116000m/h.</desc>
<speed>0.310000</speed>
</trkpt>
<trkpt lat="42.903744" lon="19.658627">
<ele>1639.610352</ele>
<time>2012-04-30T18:00:10Z</time>
<desc>lat.=42.903744, lon.=19.658627, Alt.=1639.610352m. Speed=2.016000m/h.</desc>
<speed>0.560000</speed>
</trkpt>
<trkpt lat="42.903770" lon="19.658577">
<ele>1639.641602</ele>
<time>2012-04-30T18:00:15Z</time>
<desc>lat.=42.903770, lon.=19.658577, Alt.=1639.641602m. Speed=0.576000m/h.</desc>
<speed>0.160000</speed>
</trkpt>
<trkpt lat="42.903786" lon="19.658558">
<ele>1639.829102</ele>
<time>2012-04-30T18:00:20Z</time>
<desc>lat.=42.903786, lon.=19.658558, Alt.=1639.829102m. Speed=1.404000m/h.</desc>
<speed>0.390000</speed>
</trkpt>
<trkpt lat="42.903816" lon="19.658562">
<ele>1639.891602</ele>
<time>2012-04-30T18:00:25Z</time>
<desc>lat.=42.903816, lon.=19.658562, Alt.=1639.891602m. Speed=0.720000m/h.</desc>
<speed>0.200000</speed>
</trkpt>
<trkpt lat="42.903835" lon="19.658569">
<ele>1639.704102</ele>
<time>2012-04-30T18:00:30Z</time>
<desc>lat.=42.903835, lon.=19.658569, Alt.=1639.704102m. Speed=2.016000m/h.</desc>
<speed>0.560000</speed>
</trkpt>
<trkpt lat="42.903862" lon="19.658571">
<ele>1639.485352</ele>
<time>2012-04-30T18:00:35Z</time>
<desc>lat.=42.903862, lon.=19.658571, Alt.=1639.485352m. Speed=2.556000m/h.</desc>
<speed>0.710000</speed>
</trkpt>
<trkpt lat="42.903919" lon="19.658548">
<ele>1639.422852</ele>
<time>2012-04-30T18:00:40Z</time>
<desc>lat.=42.903919, lon.=19.658548, Alt.=1639.422852m. Speed=3.744000m/h.</desc>
<speed>1.040000</speed>
</trkpt>
<trkpt lat="42.903980" lon="19.658516">
<ele>1638.922852</ele>
<time>2012-04-30T18:00:45Z</time>
<desc>lat.=42.903980, lon.=19.658516, Alt.=1638.922852m. Speed=5.580000m/h.</desc>
<speed>1.550000</speed>
</trkpt>
<trkpt lat="42.904053" lon="19.658493">
<ele>1637.860352</ele>
<time>2012-04-30T18:00:50Z</time>
<desc>lat.=42.904053, lon.=19.658493, Alt.=1637.860352m. Speed=3.852000m/h.</desc>
<speed>1.070000</speed>
</trkpt>
<trkpt lat="42.904114" lon="19.658442">
<ele>1637.047852</ele>
<time>2012-04-30T18:00:55Z</time>
<desc>lat.=42.904114, lon.=19.658442, Alt.=1637.047852m. Speed=2.952000m/h.</desc>
<speed>0.820000</speed>
</trkpt>
<trkpt lat="42.904121" lon="19.658407">
<ele>1635.391602</ele>
<time>2012-04-30T18:01:00Z</time>
<desc>lat.=42.904121, lon.=19.658407, Alt.=1635.391602m. Speed=0.612000m/h.</desc>
<speed>0.170000</speed>
</trkpt>
<trkpt lat="42.904148" lon="19.658350">
<ele>1633.516602</ele>
<time>2012-04-30T18:01:05Z</time>
<desc>lat.=42.904148, lon.=19.658350, Alt.=1633.516602m. Speed=0.612000m/h.</desc>
<speed>0.170000</speed>
</trkpt>
<trkpt lat="42.904148" lon="19.658337">
<ele>1632.579102</ele>
<time>2012-04-30T18:01:10Z</time>
<desc>lat.=42.904148, lon.=19.658337, Alt.=1632.579102m. Speed=1.908000m/h.</desc>
<speed>0.530000</speed>
</trkpt>
<trkpt lat="42.904140" lon="19.658323">
<ele>1631.266602</ele>
<time>2012-04-30T18:01:15Z</time>
<desc>lat.=42.904140, lon.=19.658323, Alt.=1631.266602m. Speed=1.980000m/h.</desc>
<speed>0.550000</speed>
</trkpt>
<trkpt lat="42.904160" lon="19.658312">
<ele>1630.985352</ele>
<time>2012-04-30T18:01:20Z</time>
<desc>lat.=42.904160, lon.=19.658312, Alt.=1630.985352m. Speed=1.836000m/h.</desc>
<speed>0.510000</speed>
</trkpt>
<trkpt lat="42.904171" lon="19.658295">
<ele>1631.204102</ele>
<time>2012-04-30T18:01:25Z</time>
<desc>lat.=42.904171, lon.=19.658295, Alt.=1631.204102m. Speed=1.656000m/h.</desc>
<speed>0.460000</speed>
</trkpt>
<trkpt lat="42.904209" lon="19.658279">
<ele>1630.860352</ele>
<time>2012-04-30T18:01:30Z</time>
<desc>lat.=42.904209, lon.=19.658279, Alt.=1630.860352m. Speed=1.944000m/h.</desc>
<speed>0.540000</speed>
</trkpt>
<trkpt lat="42.904232" lon="19.658264">
<ele>1629.797852</ele>
<time>2012-04-30T18:01:35Z</time>
<desc>lat.=42.904232, lon.=19.658264, Alt.=1629.797852m. Speed=1.584000m/h.</desc>
<speed>0.440000</speed>
</trkpt>
<trkpt lat="42.904255" lon="19.658241">
<ele>1629.204102</ele>
<time>2012-04-30T18:01:40Z</time>
<desc>lat.=42.904255, lon.=19.658241, Alt.=1629.204102m. Speed=1.368000m/h.</desc>
<speed>0.380000</speed>
</trkpt>
<trkpt lat="42.904285" lon="19.658222">
<ele>1629.016602</ele>
<time>2012-04-30T18:01:45Z</time>
<desc>lat.=42.904285, lon.=19.658222, Alt.=1629.016602m. Speed=2.340000m/h.</desc>
<speed>0.650000</speed>
</trkpt>
<trkpt lat="42.904346" lon="19.658150">
<ele>1627.922852</ele>
<time>2012-04-30T18:01:50Z</time>
<desc>lat.=42.904346, lon.=19.658150, Alt.=1627.922852m. Speed=1.872000m/h.</desc>
<speed>0.520000</speed>
</trkpt>
<trkpt lat="42.904366" lon="19.658140">
<ele>1627.422852</ele>
<time>2012-04-30T18:01:55Z</time>
<desc>lat.=42.904366, lon.=19.658140, Alt.=1627.422852m. Speed=1.188000m/h.</desc>
<speed>0.330000</speed>
</trkpt>
<trkpt lat="42.904392" lon="19.658134">
<ele>1627.516602</ele>
<time>2012-04-30T18:02:00Z</time>
<desc>lat.=42.904392, lon.=19.658134, Alt.=1627.516602m. Speed=1.584000m/h.</desc>
<speed>0.440000</speed>
</trkpt>
<trkpt lat="42.904419" lon="19.658033">
<ele>1626.610352</ele>
<time>2012-04-30T18:02:05Z</time>
<desc>lat.=42.904419, lon.=19.658033, Alt.=1626.610352m. Speed=1.800000m/h.</desc>
<speed>0.500000</speed>
</trkpt>
<trkpt lat="42.904453" lon="19.658024">
<ele>1625.891602</ele>
<time>2012-04-30T18:02:10Z</time>
<desc>lat.=42.904453, lon.=19.658024, Alt.=1625.891602m. Speed=2.952000m/h.</desc>
<speed>0.820000</speed>
</trkpt>
<trkpt lat="42.904472" lon="19.657959">
<ele>1624.172852</ele>
<time>2012-04-30T18:02:15Z</time>
<desc>lat.=42.904472, lon.=19.657959, Alt.=1624.172852m. Speed=1.836000m/h.</desc>
<speed>0.510000</speed>
</trkpt>
<trkpt lat="42.904480" lon="19.657932">
<ele>1622.735352</ele>
<time>2012-04-30T18:02:20Z</time>
<desc>lat.=42.904480, lon.=19.657932, Alt.=1622.735352m. Speed=0.756000m/h.</desc>
<speed>0.210000</speed>
</trkpt>
<trkpt lat="42.904488" lon="19.657915">
<ele>1622.266602</ele>
<time>2012-04-30T18:02:25Z</time>
<desc>lat.=42.904488, lon.=19.657915, Alt.=1622.266602m. Speed=2.268000m/h.</desc>
<speed>0.630000</speed>
</trkpt>
<trkpt lat="42.904530" lon="19.657913">
<ele>1621.641602</ele>
<time>2012-04-30T18:02:30Z</time>
<desc>lat.=42.904530, lon.=19.657913, Alt.=1621.641602m. Speed=1.944000m/h.</desc>
<speed>0.540000</speed>
</trkpt>
<trkpt lat="42.904514" lon="19.657913">
<ele>1620.922852</ele>
<time>2012-04-30T18:02:35Z</time>
<desc>lat.=42.904514, lon.=19.657913, Alt.=1620.922852m. Speed=0.432000m/h.</desc>
<speed>0.120000</speed>
</trkpt>
<trkpt lat="42.904514" lon="19.657948">
<ele>1620.204102</ele>
<time>2012-04-30T18:02:40Z</time>
<desc>lat.=42.904514, lon.=19.657948, Alt.=1620.204102m. Speed=0.144000m/h.</desc>
<speed>0.040000</speed>
</trkpt>
<trkpt lat="42.904514" lon="19.657942">
<ele>1620.047852</ele>
<time>2012-04-30T18:02:45Z</time>
<desc>lat.=42.904514, lon.=19.657942, Alt.=1620.047852m. Speed=1.296000m/h.</desc>
<speed>0.360000</speed>
</trkpt>
<trkpt lat="42.904541" lon="19.657972">
<ele>1619.454102</ele>
<time>2012-04-30T18:02:50Z</time>
<desc>lat.=42.904541, lon.=19.657972, Alt.=1619.454102m. Speed=0.612000m/h.</desc>
<speed>0.170000</speed>
</trkpt>
<trkpt lat="42.904545" lon="19.657963">
<ele>1619.204102</ele>
<time>2012-04-30T18:02:55Z</time>
<desc>lat.=42.904545, lon.=19.657963, Alt.=1619.204102m. Speed=1.548000m/h.</desc>
<speed>0.430000</speed>
</trkpt>
<trkpt lat="42.904598" lon="19.657967">
<ele>1617.141602</ele>
<time>2012-04-30T18:03:00Z</time>
<desc>lat.=42.904598, lon.=19.657967, Alt.=1617.141602m. Speed=3.852000m/h.</desc>
<speed>1.070000</speed>
</trkpt>
<trkpt lat="42.904655" lon="19.657974">
<ele>1615.610352</ele>
<time>2012-04-30T18:03:05Z</time>
<desc>lat.=42.904655, lon.=19.657974, Alt.=1615.610352m. Speed=3.096000m/h.</desc>
<speed>0.860000</speed>
</trkpt>
<trkpt lat="42.904652" lon="19.657969">
<ele>1614.797852</ele>
<time>2012-04-30T18:03:10Z</time>
<desc>lat.=42.904652, lon.=19.657969, Alt.=1614.797852m. Speed=0.468000m/h.</desc>
<speed>0.130000</speed>
</trkpt>
<trkpt lat="42.904671" lon="19.657946">
<ele>1613.985352</ele>
<time>2012-04-30T18:03:15Z</time>
<desc>lat.=42.904671, lon.=19.657946, Alt.=1613.985352m. Speed=2.916000m/h.</desc>
<speed>0.810000</speed>
</trkpt>
<trkpt lat="42.904678" lon="19.657892">
<ele>1613.204102</ele>
<time>2012-04-30T18:03:20Z</time>
<desc>lat.=42.904678, lon.=19.657892, Alt.=1613.204102m. Speed=1.404000m/h.</desc>
<speed>0.390000</speed>
</trkpt>
<trkpt lat="42.904716" lon="19.657921">
<ele>1613.422852</ele>
<time>2012-04-30T18:03:25Z</time>
<desc>lat.=42.904716, lon.=19.657921, Alt.=1613.422852m. Speed=0.648000m/h.</desc>
<speed>0.180000</speed>
</trkpt>
<trkpt lat="42.904732" lon="19.657907">
<ele>1612.954102</ele>
<time>2012-04-30T18:03:30Z</time>
<desc>lat.=42.904732, lon.=19.657907, Alt.=1612.954102m. Speed=2.592000m/h.</desc>
<speed>0.720000</speed>
</trkpt>
<trkpt lat="42.904751" lon="19.657873">
<ele>1612.391602</ele>
<time>2012-04-30T18:03:35Z</time>
<desc>lat.=42.904751, lon.=19.657873, Alt.=1612.391602m. Speed=0.792000m/h.</desc>
<speed>0.220000</speed>
</trkpt>
<trkpt lat="42.904751" lon="19.657858">
<ele>1612.235352</ele>
<time>2012-04-30T18:03:40Z</time>
<desc>lat.=42.904751, lon.=19.657858, Alt.=1612.235352m. Speed=1.008000m/h.</desc>
<speed>0.280000</speed>
</trkpt>
<trkpt lat="42.904781" lon="19.657866">
<ele>1612.204102</ele>
<time>2012-04-30T18:03:45Z</time>
<desc>lat.=42.904781, lon.=19.657866, Alt.=1612.204102m. Speed=0.576000m/h.</desc>
<speed>0.160000</speed>
</trkpt>
<trkpt lat="42.904812" lon="19.657837">
<ele>1612.016602</ele>
<time>2012-04-30T18:03:50Z</time>
<desc>lat.=42.904812, lon.=19.657837, Alt.=1612.016602m. Speed=0.360000m/h.</desc>
<speed>0.100000</speed>
</trkpt>
<trkpt lat="42.904850" lon="19.657856">
<ele>1611.985352</ele>
<time>2012-04-30T18:03:55Z</time>
<desc>lat.=42.904850, lon.=19.657856, Alt.=1611.985352m. Speed=2.232000m/h.</desc>
<speed>0.620000</speed>
</trkpt>
<trkpt lat="42.904869" lon="19.657856">
<ele>1612.235352</ele>
<time>2012-04-30T18:04:00Z</time>
<desc>lat.=42.904869, lon.=19.657856, Alt.=1612.235352m. Speed=1.152000m/h.</desc>
<speed>0.320000</speed>
</trkpt>
<trkpt lat="42.904884" lon="19.657850">
<ele>1612.547852</ele>
<time>2012-04-30T18:04:05Z</time>
<desc>lat.=42.904884, lon.=19.657850, Alt.=1612.547852m. Speed=0.864000m/h.</desc>
<speed>0.240000</speed>
</trkpt>
<trkpt lat="42.904892" lon="19.657846">
<ele>1612.860352</ele>
<time>2012-04-30T18:04:10Z</time>
<desc>lat.=42.904892, lon.=19.657846, Alt.=1612.860352m. Speed=1.080000m/h.</desc>
<speed>0.300000</speed>
</trkpt>
<trkpt lat="42.904888" lon="19.657839">
<ele>1612.891602</ele>
<time>2012-04-30T18:04:15Z</time>
<desc>lat.=42.904888, lon.=19.657839, Alt.=1612.891602m. Speed=0.504000m/h.</desc>
<speed>0.140000</speed>
</trkpt>
<trkpt lat="42.904896" lon="19.657839">
<ele>1612.985352</ele>
<time>2012-04-30T18:04:20Z</time>
<desc>lat.=42.904896, lon.=19.657839, Alt.=1612.985352m. Speed=0.540000m/h.</desc>
<speed>0.150000</speed>
</trkpt>
<trkpt lat="42.904896" lon="19.657835">
<ele>1612.985352</ele>
<time>2012-04-30T18:04:25Z</time>
<desc>lat.=42.904896, lon.=19.657835, Alt.=1612.985352m. Speed=0.396000m/h.</desc>
<speed>0.110000</speed>
</trkpt>
<trkpt lat="42.904892" lon="19.657829">
<ele>1612.985352</ele>
<time>2012-04-30T18:04:30Z</time>
<desc>lat.=42.904892, lon.=19.657829, Alt.=1612.985352m. Speed=0.504000m/h.</desc>
<speed>0.140000</speed>
</trkpt>
<trkpt lat="42.904896" lon="19.657822">
<ele>1612.985352</ele>
<time>2012-04-30T18:04:35Z</time>
<desc>lat.=42.904896, lon.=19.657822, Alt.=1612.985352m. Speed=1.152000m/h.</desc>
<speed>0.320000</speed>
</trkpt>
<trkpt lat="42.904900" lon="19.657797">
<ele>1612.766602</ele>
<time>2012-04-30T18:04:40Z</time>
<desc>lat.=42.904900, lon.=19.657797, Alt.=1612.766602m. Speed=1.080000m/h.</desc>
<speed>0.300000</speed>
</trkpt>
<trkpt lat="42.904900" lon="19.657782">
<ele>1612.610352</ele>
<time>2012-04-30T18:04:45Z</time>
<desc>lat.=42.904900, lon.=19.657782, Alt.=1612.610352m. Speed=0.828000m/h.</desc>
<speed>0.230000</speed>
</trkpt>
<trkpt lat="42.904907" lon="19.657776">
<ele>1612.516602</ele>
<time>2012-04-30T18:04:50Z</time>
<desc>lat.=42.904907, lon.=19.657776, Alt.=1612.516602m. Speed=0.936000m/h.</desc>
<speed>0.260000</speed>
</trkpt>
<trkpt lat="42.904922" lon="19.657747">
<ele>1612.391602</ele>
<time>2012-04-30T18:04:55Z</time>
<desc>lat.=42.904922, lon.=19.657747, Alt.=1612.391602m. Speed=0.972000m/h.</desc>
<speed>0.270000</speed>
</trkpt>
<trkpt lat="42.904934" lon="19.657734">
<ele>1612.297852</ele>
<time>2012-04-30T18:05:00Z</time>
<desc>lat.=42.904934, lon.=19.657734, Alt.=1612.297852m. Speed=0.720000m/h.</desc>
<speed>0.200000</speed>
</trkpt>
<trkpt lat="42.904945" lon="19.657730">
<ele>1612.172852</ele>
<time>2012-04-30T18:05:05Z</time>
<desc>lat.=42.904945, lon.=19.657730, Alt.=1612.172852m. Speed=0.828000m/h.</desc>
<speed>0.230000</speed>
</trkpt>
<trkpt lat="42.904961" lon="19.657698">
<ele>1612.110352</ele>
<time>2012-04-30T18:05:10Z</time>
<desc>lat.=42.904961, lon.=19.657698, Alt.=1612.110352m. Speed=0.864000m/h.</desc>
<speed>0.240000</speed>
</trkpt>
<trkpt lat="42.904984" lon="19.657658">
<ele>1612.079102</ele>
<time>2012-04-30T18:05:15Z</time>
<desc>lat.=42.904984, lon.=19.657658, Alt.=1612.079102m. Speed=1.080000m/h.</desc>
<speed>0.300000</speed>
</trkpt>
<trkpt lat="42.904976" lon="19.657642">
<ele>1611.985352</ele>
<time>2012-04-30T18:05:20Z</time>
<desc>lat.=42.904976, lon.=19.657642, Alt.=1611.985352m. Speed=0.360000m/h.</desc>
<speed>0.100000</speed>
</trkpt>
<trkpt lat="42.904980" lon="19.657640">
<ele>1611.860352</ele>
<time>2012-04-30T18:05:25Z</time>
<desc>lat.=42.904980, lon.=19.657640, Alt.=1611.860352m. Speed=0.396000m/h.</desc>
<speed>0.110000</speed>
</trkpt>
<trkpt lat="42.904980" lon="19.657637">
<ele>1611.735352</ele>
<time>2012-04-30T18:05:30Z</time>
<desc>lat.=42.904980, lon.=19.657637, Alt.=1611.735352m. Speed=0.108000m/h.</desc>
<speed>0.030000</speed>
</trkpt>
<trkpt lat="42.904980" lon="19.657637">
<ele>1611.641602</ele>
<time>2012-04-30T18:05:35Z</time>
<desc>lat.=42.904980, lon.=19.657637, Alt.=1611.641602m. Speed=0.612000m/h.</desc>
<speed>0.170000</speed>
</trkpt>
<trkpt lat="42.904991" lon="19.657633">
<ele>1611.516602</ele>
<time>2012-04-30T18:05:40Z</time>
<desc>lat.=42.904991, lon.=19.657633, Alt.=1611.516602m. Speed=0.756000m/h.</desc>
<speed>0.210000</speed>
</trkpt>
<trkpt lat="42.905003" lon="19.657629">
<ele>1611.422852</ele>
<time>2012-04-30T18:05:45Z</time>
<desc>lat.=42.905003, lon.=19.657629, Alt.=1611.422852m. Speed=0.900000m/h.</desc>
<speed>0.250000</speed>
</trkpt>
<trkpt lat="42.905010" lon="19.657627">
<ele>1611.266602</ele>
<time>2012-04-30T18:05:50Z</time>
<desc>lat.=42.905010, lon.=19.657627, Alt.=1611.266602m. Speed=1.296000m/h.</desc>
<speed>0.360000</speed>
</trkpt>
<trkpt lat="42.905022" lon="19.657604">
<ele>1610.954102</ele>
<time>2012-04-30T18:05:55Z</time>
<desc>lat.=42.905022, lon.=19.657604, Alt.=1610.954102m. Speed=1.584000m/h.</desc>
<speed>0.440000</speed>
</trkpt>
<trkpt lat="42.905064" lon="19.657574">
<ele>1610.641602</ele>
<time>2012-04-30T18:06:00Z</time>
<desc>lat.=42.905064, lon.=19.657574, Alt.=1610.641602m. Speed=2.448000m/h.</desc>
<speed>0.680000</speed>
</trkpt>
<trkpt lat="42.905117" lon="19.657526">
<ele>1610.297852</ele>
<time>2012-04-30T18:06:05Z</time>
<desc>lat.=42.905117, lon.=19.657526, Alt.=1610.297852m. Speed=2.880000m/h.</desc>
<speed>0.800000</speed>
</trkpt>
<trkpt lat="42.905170" lon="19.657436">
<ele>1609.985352</ele>
<time>2012-04-30T18:06:10Z</time>
<desc>lat.=42.905170, lon.=19.657436, Alt.=1609.985352m. Speed=4.212000m/h.</desc>
<speed>1.170000</speed>
</trkpt>
<trkpt lat="42.905239" lon="19.657402">
<ele>1609.704102</ele>
<time>2012-04-30T18:06:15Z</time>
<desc>lat.=42.905239, lon.=19.657402, Alt.=1609.704102m. Speed=4.860000m/h.</desc>
<speed>1.350000</speed>
</trkpt>
<trkpt lat="42.905254" lon="19.657263">
<ele>1609.047852</ele>
<time>2012-04-30T18:06:20Z</time>
<desc>lat.=42.905254, lon.=19.657263, Alt.=1609.047852m. Speed=1.080000m/h.</desc>
<speed>0.300000</speed>
</trkpt>
<trkpt lat="42.905254" lon="19.657248">
<ele>1608.672852</ele>
<time>2012-04-30T18:06:25Z</time>
<desc>lat.=42.905254, lon.=19.657248, Alt.=1608.672852m. Speed=0.504000m/h.</desc>
<speed>0.140000</speed>
</trkpt>
<trkpt lat="42.905300" lon="19.657253">
<ele>1608.266602</ele>
<time>2012-04-30T18:06:30Z</time>
<desc>lat.=42.905300, lon.=19.657253, Alt.=1608.266602m. Speed=1.800000m/h.</desc>
<speed>0.500000</speed>
</trkpt>
<trkpt lat="42.905350" lon="19.657251">
<ele>1607.641602</ele>
<time>2012-04-30T18:06:35Z</time>
<desc>lat.=42.905350, lon.=19.657251, Alt.=1607.641602m. Speed=2.052000m/h.</desc>
<speed>0.570000</speed>
</trkpt>
<trkpt lat="42.905396" lon="19.657259">
<ele>1607.047852</ele>
<time>2012-04-30T18:06:40Z</time>
<desc>lat.=42.905396, lon.=19.657259, Alt.=1607.047852m. Speed=1.188000m/h.</desc>
<speed>0.330000</speed>
</trkpt>
<trkpt lat="42.905460" lon="19.657269">
<ele>1606.547852</ele>
<time>2012-04-30T18:06:45Z</time>
<desc>lat.=42.905460, lon.=19.657269, Alt.=1606.547852m. Speed=1.584000m/h.</desc>
<speed>0.440000</speed>
</trkpt>
<trkpt lat="42.905499" lon="19.657267">
<ele>1605.766602</ele>
<time>2012-04-30T18:06:50Z</time>
<desc>lat.=42.905499, lon.=19.657267, Alt.=1605.766602m. Speed=2.304000m/h.</desc>
<speed>0.640000</speed>
</trkpt>
<trkpt lat="42.905483" lon="19.657246">
<ele>1605.047852</ele>
<time>2012-04-30T18:06:55Z</time>
<desc>lat.=42.905483, lon.=19.657246, Alt.=1605.047852m. Speed=0.468000m/h.</desc>
<speed>0.130000</speed>
</trkpt>
<trkpt lat="42.905479" lon="19.657236">
<ele>1604.891602</ele>
<time>2012-04-30T18:07:00Z</time>
<desc>lat.=42.905479, lon.=19.657236, Alt.=1604.891602m. Speed=1.548000m/h.</desc>
<speed>0.430000</speed>
</trkpt>
<trkpt lat="42.905487" lon="19.657217">
<ele>1604.266602</ele>
<time>2012-04-30T18:07:05Z</time>
<desc>lat.=42.905487, lon.=19.657217, Alt.=1604.266602m. Speed=0.972000m/h.</desc>
<speed>0.270000</speed>
</trkpt>
<trkpt lat="42.905506" lon="19.657213">
<ele>1604.235352</ele>
<time>2012-04-30T18:07:10Z</time>
<desc>lat.=42.905506, lon.=19.657213, Alt.=1604.235352m. Speed=0.792000m/h.</desc>
<speed>0.220000</speed>
</trkpt>
<trkpt lat="42.905510" lon="19.657209">
<ele>1604.391602</ele>
<time>2012-04-30T18:07:15Z</time>
<desc>lat.=42.905510, lon.=19.657209, Alt.=1604.391602m. Speed=0.900000m/h.</desc>
<speed>0.250000</speed>
</trkpt>
<trkpt lat="42.905514" lon="19.657200">
<ele>1604.485352</ele>
<time>2012-04-30T18:07:20Z</time>
<desc>lat.=42.905514, lon.=19.657200, Alt.=1604.485352m. Speed=0.540000m/h.</desc>
<speed>0.150000</speed>
</trkpt>
<trkpt lat="42.905495" lon="19.657200">
<ele>1603.422852</ele>
<time>2012-04-30T18:07:25Z</time>
<desc>lat.=42.905495, lon.=19.657200, Alt.=1603.422852m. Speed=0.108000m/h.</desc>
<speed>0.030000</speed>
</trkpt>
<trkpt lat="42.905495" lon="19.657202">
<ele>1603.329102</ele>
<time>2012-04-30T18:07:30Z</time>
<desc>lat.=42.905495, lon.=19.657202, Alt.=1603.329102m. Speed=0.036000m/h.</desc>
<speed>0.010000</speed>
</trkpt>
<trkpt lat="42.905491" lon="19.657200">
<ele>1603.454102</ele>
<time>2012-04-30T18:07:35Z</time>
<desc>lat.=42.905491, lon.=19.657200, Alt.=1603.454102m. Speed=0.072000m/h.</desc>
<speed>0.020000</speed>
</trkpt>
<trkpt lat="42.905491" lon="19.657200">
<ele>1603.516602</ele>
<time>2012-04-30T18:07:40Z</time>
<desc>lat.=42.905491, lon.=19.657200, Alt.=1603.516602m. Speed=0.036000m/h.</desc>
<speed>0.010000</speed>
</trkpt>
<trkpt lat="42.905491" lon="19.657200">
<ele>1603.516602</ele>
<time>2012-04-30T18:07:45Z</time>
<desc>lat.=42.905491, lon.=19.657200, Alt.=1603.516602m. Speed=0.000000m/h.</desc>
<speed>0.000000</speed>
</trkpt>
<trkpt lat="42.905491" lon="19.657200">
<ele>1603.485352</ele>
<time>2012-04-30T18:07:50Z</time>
<desc>lat.=42.905491, lon.=19.657200, Alt.=1603.485352m. Speed=0.360000m/h.</desc>
<speed>0.100000</speed>
</trkpt>
<trkpt lat="42.905502" lon="19.657192">
<ele>1602.391602</ele>
<time>2012-04-30T18:07:55Z</time>
<desc>lat.=42.905502, lon.=19.657192, Alt.=1602.391602m. Speed=0.828000m/h.</desc>
<speed>0.230000</speed>
</trkpt>
<trkpt lat="42.905491" lon="19.657192">
<ele>1600.079102</ele>
<time>2012-04-30T18:08:00Z</time>
<desc>lat.=42.905491, lon.=19.657192, Alt.=1600.079102m. Speed=0.540000m/h.</desc>
<speed>0.150000</speed>
</trkpt>
<trkpt lat="42.905487" lon="19.657194">
<ele>1599.672852</ele>
<time>2012-04-30T18:08:05Z</time>
<desc>lat.=42.905487, lon.=19.657194, Alt.=1599.672852m. Speed=0.252000m/h.</desc>
<speed>0.070000</speed>
</trkpt>
<trkpt lat="42.905483" lon="19.657188">
<ele>1599.204102</ele>
<time>2012-04-30T18:08:10Z</time>
<desc>lat.=42.905483, lon.=19.657188, Alt.=1599.204102m. Speed=1.440000m/h.</desc>
<speed>0.400000</speed>
</trkpt>
<trkpt lat="42.905518" lon="19.657183">
<ele>1597.829102</ele>
<time>2012-04-30T18:08:15Z</time>
<desc>lat.=42.905518, lon.=19.657183, Alt.=1597.829102m. Speed=1.080000m/h.</desc>
<speed>0.300000</speed>
</trkpt>
<trkpt lat="42.905552" lon="19.657175">
<ele>1596.047852</ele>
<time>2012-04-30T18:08:20Z</time>
<desc>lat.=42.905552, lon.=19.657175, Alt.=1596.047852m. Speed=1.404000m/h.</desc>
<speed>0.390000</speed>
</trkpt>
<trkpt lat="42.905575" lon="19.657158">
<ele>1594.516602</ele>
<time>2012-04-30T18:08:25Z</time>
<desc>lat.=42.905575, lon.=19.657158, Alt.=1594.516602m. Speed=1.044000m/h.</desc>
<speed>0.290000</speed>
</trkpt>
<trkpt lat="42.905579" lon="19.657146">
<ele>1593.266602</ele>
<time>2012-04-30T18:08:30Z</time>
<desc>lat.=42.905579, lon.=19.657146, Alt.=1593.266602m. Speed=1.044000m/h.</desc>
<speed>0.290000</speed>
</trkpt>
<trkpt lat="42.905617" lon="19.657179">
<ele>1590.985352</ele>
<time>2012-04-30T18:08:35Z</time>
<desc>lat.=42.905617, lon.=19.657179, Alt.=1590.985352m. Speed=2.052000m/h.</desc>
<speed>0.570000</speed>
</trkpt>
<trkpt lat="42.905663" lon="19.657164">
<ele>1589.329102</ele>
<time>2012-04-30T18:08:40Z</time>
<desc>lat.=42.905663, lon.=19.657164, Alt.=1589.329102m. Speed=3.384000m/h.</desc>
<speed>0.940000</speed>
</trkpt>
<trkpt lat="42.905693" lon="19.657131">
<ele>1586.485352</ele>
<time>2012-04-30T18:08:45Z</time>
<desc>lat.=42.905693, lon.=19.657131, Alt.=1586.485352m. Speed=2.340000m/h.</desc>
<speed>0.650000</speed>
</trkpt>
<trkpt lat="42.905720" lon="19.657127">
<ele>1583.297852</ele>
<time>2012-04-30T18:08:50Z</time>
<desc>lat.=42.905720, lon.=19.657127, Alt.=1583.297852m. Speed=3.672000m/h.</desc>
<speed>1.020000</speed>
</trkpt>
<trkpt lat="42.905796" lon="19.657112">
<ele>1580.954102</ele>
<time>2012-04-30T18:08:55Z</time>
<desc>lat.=42.905796, lon.=19.657112, Alt.=1580.954102m. Speed=5.328000m/h.</desc>
<speed>1.480000</speed>
</trkpt>
<trkpt lat="42.905838" lon="19.657110">
<ele>1577.735352</ele>
<time>2012-04-30T18:09:00Z</time>
<desc>lat.=42.905838, lon.=19.657110, Alt.=1577.735352m. Speed=2.160000m/h.</desc>
<speed>0.600000</speed>
</trkpt>
<trkpt lat="42.905861" lon="19.657122">
<ele>1575.860352</ele>
<time>2012-04-30T18:09:05Z</time>
<desc>lat.=42.905861, lon.=19.657122, Alt.=1575.860352m. Speed=3.564000m/h.</desc>
<speed>0.990000</speed>
</trkpt>
<trkpt lat="42.905952" lon="19.657091">
<ele>1573.579102</ele>
<time>2012-04-30T18:09:10Z</time>
<desc>lat.=42.905952, lon.=19.657091, Alt.=1573.579102m. Speed=6.372000m/h.</desc>
<speed>1.770000</speed>
</trkpt>
<trkpt lat="42.906025" lon="19.657021">
<ele>1571.235352</ele>
<time>2012-04-30T18:09:15Z</time>
<desc>lat.=42.906025, lon.=19.657021, Alt.=1571.235352m. Speed=6.192000m/h.</desc>
<speed>1.720000</speed>
</trkpt>
<trkpt lat="42.906082" lon="19.657021">
<ele>1565.391602</ele>
<time>2012-04-30T18:09:20Z</time>
<desc>lat.=42.906082, lon.=19.657021, Alt.=1565.391602m. Speed=4.608000m/h.</desc>
<speed>1.280000</speed>
</trkpt>
<trkpt lat="42.906143" lon="19.656982">
<ele>1560.016602</ele>
<time>2012-04-30T18:09:25Z</time>
<desc>lat.=42.906143, lon.=19.656982, Alt.=1560.016602m. Speed=5.292000m/h.</desc>
<speed>1.470000</speed>
</trkpt>
<trkpt lat="42.906193" lon="19.656979">
<ele>1557.047852</ele>
<time>2012-04-30T18:09:30Z</time>
<desc>lat.=42.906193, lon.=19.656979, Alt.=1557.047852m. Speed=4.248000m/h.</desc>
<speed>1.180000</speed>
</trkpt>
<trkpt lat="42.906269" lon="19.656967">
<ele>1553.266602</ele>
<time>2012-04-30T18:09:35Z</time>
<desc>lat.=42.906269, lon.=19.656967, Alt.=1553.266602m. Speed=6.732000m/h.</desc>
<speed>1.870000</speed>
</trkpt>
<trkpt lat="42.906342" lon="19.656940">
<ele>1548.672852</ele>
<time>2012-04-30T18:09:40Z</time>
<desc>lat.=42.906342, lon.=19.656940, Alt.=1548.672852m. Speed=1.332000m/h.</desc>
<speed>0.370000</speed>
</trkpt>
<trkpt lat="42.906361" lon="19.656824">
<ele>1547.172852</ele>
<time>2012-04-30T18:09:45Z</time>
<desc>lat.=42.906361, lon.=19.656824, Alt.=1547.172852m. Speed=0.792000m/h.</desc>
<speed>0.220000</speed>
</trkpt>
<trkpt lat="42.906387" lon="19.656801">
<ele>1545.610352</ele>
<time>2012-04-30T18:09:50Z</time>
<desc>lat.=42.906387, lon.=19.656801, Alt.=1545.610352m. Speed=4.284000m/h.</desc>
<speed>1.190000</speed>
</trkpt>
<trkpt lat="42.906425" lon="19.656790">
<ele>1541.860352</ele>
<time>2012-04-30T18:09:55Z</time>
<desc>lat.=42.906425, lon.=19.656790, Alt.=1541.860352m. Speed=3.600000m/h.</desc>
<speed>1.000000</speed>
</trkpt>
<trkpt lat="42.906471" lon="19.656746">
<ele>1539.672852</ele>
<time>2012-04-30T18:10:00Z</time>
<desc>lat.=42.906471, lon.=19.656746, Alt.=1539.672852m. Speed=1.872000m/h.</desc>
<speed>0.520000</speed>
</trkpt>
<trkpt lat="42.906490" lon="19.656706">
<ele>1536.516602</ele>
<time>2012-04-30T18:10:05Z</time>
<desc>lat.=42.906490, lon.=19.656706, Alt.=1536.516602m. Speed=3.780000m/h.</desc>
<speed>1.050000</speed>
</trkpt>
<trkpt lat="42.906494" lon="19.656660">
<ele>1531.422852</ele>
<time>2012-04-30T18:10:10Z</time>
<desc>lat.=42.906494, lon.=19.656660, Alt.=1531.422852m. Speed=0.216000m/h.</desc>
<speed>0.060000</speed>
</trkpt>
<trkpt lat="42.906498" lon="19.656651">
<ele>1530.110352</ele>
<time>2012-04-30T18:10:15Z</time>
<desc>lat.=42.906498, lon.=19.656651, Alt.=1530.110352m. Speed=0.324000m/h.</desc>
<speed>0.090000</speed>
</trkpt>
<trkpt lat="42.906498" lon="19.656654">
<ele>1529.829102</ele>
<time>2012-04-30T18:10:20Z</time>
<desc>lat.=42.906498, lon.=19.656654, Alt.=1529.829102m. Speed=0.432000m/h.</desc>
<speed>0.120000</speed>
</trkpt>
<trkpt lat="42.906494" lon="19.656652">
<ele>1529.610352</ele>
<time>2012-04-30T18:10:25Z</time>
<desc>lat.=42.906494, lon.=19.656652, Alt.=1529.610352m. Speed=0.144000m/h.</desc>
<speed>0.040000</speed>
</trkpt>
<trkpt lat="42.906494" lon="19.656652">
<ele>1529.516602</ele>
<time>2012-04-30T18:10:30Z</time>
<desc>lat.=42.906494, lon.=19.656652, Alt.=1529.516602m. Speed=0.396000m/h.</desc>
<speed>0.110000</speed>
</trkpt>
<trkpt lat="42.906490" lon="19.656649">
<ele>1529.454102</ele>
<time>2012-04-30T18:10:35Z</time>
<desc>lat.=42.906490, lon.=19.656649, Alt.=1529.454102m. Speed=0.036000m/h.</desc>
<speed>0.010000</speed>
</trkpt>
<trkpt lat="42.906490" lon="19.656649">
<ele>1529.329102</ele>
<time>2012-04-30T18:10:40Z</time>
<desc>lat.=42.906490, lon.=19.656649, Alt.=1529.329102m. Speed=0.072000m/h.</desc>
<speed>0.020000</speed>
</trkpt>
<trkpt lat="42.906490" lon="19.656649">
<ele>1529.329102</ele>
<time>2012-04-30T18:10:45Z</time>
<desc>lat.=42.906490, lon.=19.656649, Alt.=1529.329102m. Speed=0.036000m/h.</desc>
<speed>0.010000</speed>
</trkpt>
<trkpt lat="42.906490" lon="19.656649">
<ele>1529.297852</ele>
<time>2012-04-30T18:10:50Z</time>
<desc>lat.=42.906490, lon.=19.656649, Alt.=1529.297852m. Speed=0.036000m/h.</desc>
<speed>0.010000</speed>
</trkpt>
<trkpt lat="42.906490" lon="19.656649">
<ele>1529.266602</ele>
<time>2012-04-30T18:10:55Z</time>
<desc>lat.=42.906490, lon.=19.656649, Alt.=1529.266602m. Speed=0.144000m/h.</desc>
<speed>0.040000</speed>
</trkpt>
<trkpt lat="42.906490" lon="19.656649">
<ele>1529.266602</ele>
<time>2012-04-30T18:11:00Z</time>
<desc>lat.=42.906490, lon.=19.656649, Alt.=1529.266602m. Speed=0.108000m/h.</desc>
<speed>0.030000</speed>
</trkpt>
<trkpt lat="42.906494" lon="19.656639">
<ele>1527.766602</ele>
<time>2012-04-30T18:11:05Z</time>
<desc>lat.=42.906494, lon.=19.656639, Alt.=1527.766602m. Speed=0.180000m/h.</desc>
<speed>0.050000</speed>
</trkpt>
<trkpt lat="42.906559" lon="19.656609">
<ele>1526.516602</ele>
<time>2012-04-30T18:11:10Z</time>
<desc>lat.=42.906559, lon.=19.656609, Alt.=1526.516602m. Speed=10.944000m/h.</desc>
<speed>3.040000</speed>
</trkpt>
<trkpt lat="42.906673" lon="19.656563">
<ele>1524.891602</ele>
<time>2012-04-30T18:11:15Z</time>
<desc>lat.=42.906673, lon.=19.656563, Alt.=1524.891602m. Speed=6.264000m/h.</desc>
<speed>1.740000</speed>
</trkpt>
<trkpt lat="42.906773" lon="19.656517">
<ele>1523.297852</ele>
<time>2012-04-30T18:11:20Z</time>
<desc>lat.=42.906773, lon.=19.656517, Alt.=1523.297852m. Speed=8.280000m/h.</desc>
<speed>2.300000</speed>
</trkpt>
<trkpt lat="42.906853" lon="19.656462">
<ele>1521.360352</ele>
<time>2012-04-30T18:11:25Z</time>
<desc>lat.=42.906853, lon.=19.656462, Alt.=1521.360352m. Speed=8.424000m/h.</desc>
<speed>2.340000</speed>
</trkpt>
<trkpt lat="42.906937" lon="19.656351">
<ele>1518.954102</ele>
<time>2012-04-30T18:11:30Z</time>
<desc>lat.=42.906937, lon.=19.656351, Alt.=1518.954102m. Speed=8.820000m/h.</desc>
<speed>2.450000</speed>
</trkpt>
<trkpt lat="42.906998" lon="19.656296">
<ele>1518.579102</ele>
<time>2012-04-30T18:11:35Z</time>
<desc>lat.=42.906998, lon.=19.656296, Alt.=1518.579102m. Speed=5.652000m/h.</desc>
<speed>1.570000</speed>
</trkpt>
<trkpt lat="42.907078" lon="19.656252">
<ele>1517.079102</ele>
<time>2012-04-30T18:11:40Z</time>
<desc>lat.=42.907078, lon.=19.656252, Alt.=1517.079102m. Speed=6.876000m/h.</desc>
<speed>1.910000</speed>
</trkpt>
<trkpt lat="42.907131" lon="19.656229">
<ele>1514.985352</ele>
<time>2012-04-30T18:11:45Z</time>
<desc>lat.=42.907131, lon.=19.656229, Alt.=1514.985352m. Speed=0.108000m/h.</desc>
<speed>0.030000</speed>
</trkpt>
<trkpt lat="42.907127" lon="19.656227">
<ele>1514.172852</ele>
<time>2012-04-30T18:11:50Z</time>
<desc>lat.=42.907127, lon.=19.656227, Alt.=1514.172852m. Speed=0.108000m/h.</desc>
<speed>0.030000</speed>
</trkpt>
<trkpt lat="42.907127" lon="19.656225">
<ele>1513.954102</ele>
<time>2012-04-30T18:11:55Z</time>
<desc>lat.=42.907127, lon.=19.656225, Alt.=1513.954102m. Speed=0.036000m/h.</desc>
<speed>0.010000</speed>
</trkpt>
<trkpt lat="42.907127" lon="19.656225">
<ele>1513.891602</ele>
<time>2012-04-30T18:12:00Z</time>
<desc>lat.=42.907127, lon.=19.656225, Alt.=1513.891602m. Speed=0.108000m/h.</desc>
<speed>0.030000</speed>
</trkpt>
<trkpt lat="42.907127" lon="19.656225">
<ele>1513.891602</ele>
<time>2012-04-30T18:12:05Z</time>
<desc>lat.=42.907127, lon.=19.656225, Alt.=1513.891602m. Speed=0.252000m/h.</desc>
<speed>0.070000</speed>
</trkpt>
<trkpt lat="42.907246" lon="19.656202">
<ele>1512.516602</ele>
<time>2012-04-30T18:12:10Z</time>
<desc>lat.=42.907246, lon.=19.656202, Alt.=1512.516602m. Speed=14.760000m/h.</desc>
<speed>4.100000</speed>
</trkpt>
<trkpt lat="42.907421" lon="19.656160">
<ele>1510.579102</ele>
<time>2012-04-30T18:12:15Z</time>
<desc>lat.=42.907421, lon.=19.656160, Alt.=1510.579102m. Speed=12.744000m/h.</desc>
<speed>3.540000</speed>
</trkpt>
<trkpt lat="42.907593" lon="19.656126">
<ele>1506.704102</ele>
<time>2012-04-30T18:12:20Z</time>
<desc>lat.=42.907593, lon.=19.656126, Alt.=1506.704102m. Speed=13.392000m/h.</desc>
<speed>3.720000</speed>
</trkpt>
<trkpt lat="42.907745" lon="19.656096">
<ele>1507.016602</ele>
<time>2012-04-30T18:12:25Z</time>
<desc>lat.=42.907745, lon.=19.656096, Alt.=1507.016602m. Speed=10.872000m/h.</desc>
<speed>3.020000</speed>
</trkpt>
<trkpt lat="42.907864" lon="19.656048">
<ele>1503.204102</ele>
<time>2012-04-30T18:12:30Z</time>
<desc>lat.=42.907864, lon.=19.656048, Alt.=1503.204102m. Speed=8.676000m/h.</desc>
<speed>2.410000</speed>
</trkpt>
<trkpt lat="42.907963" lon="19.656040">
<ele>1501.547852</ele>
<time>2012-04-30T18:12:35Z</time>
<desc>lat.=42.907963, lon.=19.656040, Alt.=1501.547852m. Speed=6.012000m/h.</desc>
<speed>1.670000</speed>
</trkpt>
<trkpt lat="42.907982" lon="19.656027">
<ele>1500.079102</ele>
<time>2012-04-30T18:12:40Z</time>
<desc>lat.=42.907982, lon.=19.656027, Alt.=1500.079102m. Speed=2.268000m/h.</desc>
<speed>0.630000</speed>
</trkpt>
<trkpt lat="42.908043" lon="19.656008">
<ele>1499.641602</ele>
<time>2012-04-30T18:12:45Z</time>
<desc>lat.=42.908043, lon.=19.656008, Alt.=1499.641602m. Speed=4.356000m/h.</desc>
<speed>1.210000</speed>
</trkpt>
<trkpt lat="42.908127" lon="19.656019">
<ele>1499.141602</ele>
<time>2012-04-30T18:12:50Z</time>
<desc>lat.=42.908127, lon.=19.656019, Alt.=1499.141602m. Speed=6.660000m/h.</desc>
<speed>1.850000</speed>
</trkpt>
<trkpt lat="42.908195" lon="19.656075">
<ele>1498.079102</ele>
<time>2012-04-30T18:12:55Z</time>
<desc>lat.=42.908195, lon.=19.656075, Alt.=1498.079102m. Speed=5.040000m/h.</desc>
<speed>1.400000</speed>
</trkpt>
<trkpt lat="42.908211" lon="19.656141">
<ele>1496.235352</ele>
<time>2012-04-30T18:13:00Z</time>
<desc>lat.=42.908211, lon.=19.656141, Alt.=1496.235352m. Speed=2.700000m/h.</desc>
<speed>0.750000</speed>
</trkpt>
<trkpt lat="42.908207" lon="19.656179">
<ele>1494.954102</ele>
<time>2012-04-30T18:13:05Z</time>
<desc>lat.=42.908207, lon.=19.656179, Alt.=1494.954102m. Speed=3.744000m/h.</desc>
<speed>1.040000</speed>
</trkpt>
<trkpt lat="42.908215" lon="19.656200">
<ele>1493.891602</ele>
<time>2012-04-30T18:13:10Z</time>
<desc>lat.=42.908215, lon.=19.656200, Alt.=1493.891602m. Speed=0.756000m/h.</desc>
<speed>0.210000</speed>
</trkpt>
<trkpt lat="42.908218" lon="19.656202">
<ele>1493.329102</ele>
<time>2012-04-30T18:13:15Z</time>
<desc>lat.=42.908218, lon.=19.656202, Alt.=1493.329102m. Speed=0.000000m/h.</desc>
<speed>0.000000</speed>
</trkpt>
<trkpt lat="42.908218" lon="19.656202">
<ele>1493.360352</ele>
<time>2012-04-30T18:13:20Z</time>
<desc>lat.=42.908218, lon.=19.656202, Alt.=1493.360352m. Speed=0.036000m/h.</desc>
<speed>0.010000</speed>
</trkpt>
<trkpt lat="42.908218" lon="19.656200">
<ele>1493.391602</ele>
<time>2012-04-30T18:13:25Z</time>
<desc>lat.=42.908218, lon.=19.656200, Alt.=1493.391602m. Speed=0.000000m/h.</desc>
<speed>0.000000</speed>
</trkpt>
<trkpt lat="42.908218" lon="19.656200">
<ele>1493.422852</ele>
<time>2012-04-30T18:13:30Z</time>
<desc>lat.=42.908218, lon.=19.656200, Alt.=1493.422852m. Speed=0.000000m/h.</desc>
<speed>0.000000</speed>
</trkpt>
<trkpt lat="42.908218" lon="19.656214">
<ele>1493.485352</ele>
<time>2012-04-30T18:13:35Z</time>
<desc>lat.=42.908218, lon.=19.656214, Alt.=1493.485352m. Speed=4.248000m/h.</desc>
<speed>1.180000</speed>
</trkpt>
<trkpt lat="42.908211" lon="19.656269">
<ele>1494.422852</ele>
<time>2012-04-30T18:13:40Z</time>
<desc>lat.=42.908211, lon.=19.656269, Alt.=1494.422852m. Speed=2.880000m/h.</desc>
<speed>0.800000</speed>
</trkpt>
<trkpt lat="42.908192" lon="19.656319">
<ele>1491.985352</ele>
<time>2012-04-30T18:13:45Z</time>
<desc>lat.=42.908192, lon.=19.656319, Alt.=1491.985352m. Speed=4.212000m/h.</desc>
<speed>1.170000</speed>
</trkpt>
<trkpt lat="42.908173" lon="19.656401">
<ele>1488.047852</ele>
<time>2012-04-30T18:13:50Z</time>
<desc>lat.=42.908173, lon.=19.656401, Alt.=1488.047852m. Speed=6.264000m/h.</desc>
<speed>1.740000</speed>
</trkpt>
<trkpt lat="42.908207" lon="19.656437">
<ele>1486.329102</ele>
<time>2012-04-30T18:13:55Z</time>
<desc>lat.=42.908207, lon.=19.656437, Alt.=1486.329102m. Speed=2.520000m/h.</desc>
<speed>0.700000</speed>
</trkpt>
<trkpt lat="42.908222" lon="19.656445">
<ele>1485.204102</ele>
<time>2012-04-30T18:14:00Z</time>
<desc>lat.=42.908222, lon.=19.656445, Alt.=1485.204102m. Speed=3.456000m/h.</desc>
<speed>0.960000</speed>
</trkpt>
<trkpt lat="42.908184" lon="19.656511">
<ele>1482.579102</ele>
<time>2012-04-30T18:14:05Z</time>
<desc>lat.=42.908184, lon.=19.656511, Alt.=1482.579102m. Speed=6.660000m/h.</desc>
<speed>1.850000</speed>
</trkpt>
<trkpt lat="42.908207" lon="19.656622">
<ele>1482.516602</ele>
<time>2012-04-30T18:14:10Z</time>
<desc>lat.=42.908207, lon.=19.656622, Alt.=1482.516602m. Speed=8.424000m/h.</desc>
<speed>2.340000</speed>
</trkpt>
<trkpt lat="42.908241" lon="19.656761">
<ele>1483.485352</ele>
<time>2012-04-30T18:14:15Z</time>
<desc>lat.=42.908241, lon.=19.656761, Alt.=1483.485352m. Speed=8.496000m/h.</desc>
<speed>2.360000</speed>
</trkpt>
<trkpt lat="42.908295" lon="19.656879">
<ele>1482.047852</ele>
<time>2012-04-30T18:14:20Z</time>
<desc>lat.=42.908295, lon.=19.656879, Alt.=1482.047852m. Speed=2.484000m/h.</desc>
<speed>0.690000</speed>
</trkpt>
<trkpt lat="42.908310" lon="19.656919">
<ele>1482.860352</ele>
<time>2012-04-30T18:14:25Z</time>
<desc>lat.=42.908310, lon.=19.656919, Alt.=1482.860352m. Speed=2.016000m/h.</desc>
<speed>0.560000</speed>
</trkpt>
<trkpt lat="42.908348" lon="19.656967">
<ele>1483.454102</ele>
<time>2012-04-30T18:14:30Z</time>
<desc>lat.=42.908348, lon.=19.656967, Alt.=1483.454102m. Speed=5.364000m/h.</desc>
<speed>1.490000</speed>
</trkpt>
<trkpt lat="42.908375" lon="19.657017">
<ele>1485.547852</ele>
<time>2012-04-30T18:14:35Z</time>
<desc>lat.=42.908375, lon.=19.657017, Alt.=1485.547852m. Speed=3.852000m/h.</desc>
<speed>1.070000</speed>
</trkpt>
<trkpt lat="42.908424" lon="19.657089">
<ele>1488.610352</ele>
<time>2012-04-30T18:14:40Z</time>
<desc>lat.=42.908424, lon.=19.657089, Alt.=1488.610352m. Speed=5.112000m/h.</desc>
<speed>1.420000</speed>
</trkpt>
<trkpt lat="42.908447" lon="19.657143">
<ele>1492.672852</ele>
<time>2012-04-30T18:14:45Z</time>
<desc>lat.=42.908447, lon.=19.657143, Alt.=1492.672852m. Speed=3.852000m/h.</desc>
<speed>1.070000</speed>
</trkpt>
<trkpt lat="42.908482" lon="19.657230">
<ele>1495.954102</ele>
<time>2012-04-30T18:14:50Z</time>
<desc>lat.=42.908482, lon.=19.657230, Alt.=1495.954102m. Speed=6.336000m/h.</desc>
<speed>1.760000</speed>
</trkpt>
<trkpt lat="42.908470" lon="19.657307">
<ele>1500.579102</ele>
<time>2012-04-30T18:14:55Z</time>
<desc>lat.=42.908470, lon.=19.657307, Alt.=1500.579102m. Speed=6.264000m/h.</desc>
<speed>1.740000</speed>
</trkpt>
<trkpt lat="42.908466" lon="19.657381">
<ele>1503.735352</ele>
<time>2012-04-30T18:15:00Z</time>
<desc>lat.=42.908466, lon.=19.657381, Alt.=1503.735352m. Speed=4.752000m/h.</desc>
<speed>1.320000</speed>
</trkpt>
<trkpt lat="42.908482" lon="19.657434">
<ele>1506.641602</ele>
<time>2012-04-30T18:15:05Z</time>
<desc>lat.=42.908482, lon.=19.657434, Alt.=1506.641602m. Speed=1.800000m/h.</desc>
<speed>0.500000</speed>
</trkpt>
<trkpt lat="42.908463" lon="19.657515">
<ele>1508.079102</ele>
<time>2012-04-30T18:15:10Z</time>
<desc>lat.=42.908463, lon.=19.657515, Alt.=1508.079102m. Speed=3.960000m/h.</desc>
<speed>1.100000</speed>
</trkpt>
<trkpt lat="42.908455" lon="19.657597">
<ele>1510.110352</ele>
<time>2012-04-30T18:15:15Z</time>
<desc>lat.=42.908455, lon.=19.657597, Alt.=1510.110352m. Speed=2.484000m/h.</desc>
<speed>0.690000</speed>
</trkpt>
<trkpt lat="42.908443" lon="19.657610">
<ele>1511.235352</ele>
<time>2012-04-30T18:15:20Z</time>
<desc>lat.=42.908443, lon.=19.657610, Alt.=1511.235352m. Speed=1.296000m/h.</desc>
<speed>0.360000</speed>
</trkpt>
<trkpt lat="42.908432" lon="19.657608">
<ele>1512.516602</ele>
<time>2012-04-30T18:15:25Z</time>
<desc>lat.=42.908432, lon.=19.657608, Alt.=1512.516602m. Speed=2.412000m/h.</desc>
<speed>0.670000</speed>
</trkpt>
<trkpt lat="42.908474" lon="19.657749">
<ele>1514.079102</ele>
<time>2012-04-30T18:15:30Z</time>
<desc>lat.=42.908474, lon.=19.657749, Alt.=1514.079102m. Speed=8.676000m/h.</desc>
<speed>2.410000</speed>
</trkpt>
<trkpt lat="42.908516" lon="19.657898">
<ele>1516.797852</ele>
<time>2012-04-30T18:15:35Z</time>
<desc>lat.=42.908516, lon.=19.657898, Alt.=1516.797852m. Speed=6.012000m/h.</desc>
<speed>1.670000</speed>
</trkpt>
<trkpt lat="42.908607" lon="19.657967">
<ele>1519.735352</ele>
<time>2012-04-30T18:15:40Z</time>
<desc>lat.=42.908607, lon.=19.657967, Alt.=1519.735352m. Speed=7.956000m/h.</desc>
<speed>2.210000</speed>
</trkpt>
<trkpt lat="42.908676" lon="19.657967">
<ele>1522.579102</ele>
<time>2012-04-30T18:15:45Z</time>
<desc>lat.=42.908676, lon.=19.657967, Alt.=1522.579102m. Speed=6.552000m/h.</desc>
<speed>1.820000</speed>
</trkpt>
<trkpt lat="42.908722" lon="19.657932">
<ele>1526.141602</ele>
<time>2012-04-30T18:15:50Z</time>
<desc>lat.=42.908722, lon.=19.657932, Alt.=1526.141602m. Speed=2.340000m/h.</desc>
<speed>0.650000</speed>
</trkpt>
<trkpt lat="42.908806" lon="19.657913">
<ele>1530.485352</ele>
<time>2012-04-30T18:15:55Z</time>
<desc>lat.=42.908806, lon.=19.657913, Alt.=1530.485352m. Speed=6.912000m/h.</desc>
<speed>1.920000</speed>
</trkpt>
<trkpt lat="42.908840" lon="19.657869">
<ele>1535.891602</ele>
<time>2012-04-30T18:16:00Z</time>
<desc>lat.=42.908840, lon.=19.657869, Alt.=1535.891602m. Speed=0.396000m/h.</desc>
<speed>0.110000</speed>
</trkpt>
<trkpt lat="42.908802" lon="19.657856">
<ele>1536.235352</ele>
<time>2012-04-30T18:16:05Z</time>
<desc>lat.=42.908802, lon.=19.657856, Alt.=1536.235352m. Speed=1.980000m/h.</desc>
<speed>0.550000</speed>
</trkpt>
<trkpt lat="42.908829" lon="19.657879">
<ele>1536.829102</ele>
<time>2012-04-30T18:16:10Z</time>
<desc>lat.=42.908829, lon.=19.657879, Alt.=1536.829102m. Speed=0.684000m/h.</desc>
<speed>0.190000</speed>
</trkpt>
<trkpt lat="42.908852" lon="19.657864">
<ele>1537.391602</ele>
<time>2012-04-30T18:16:15Z</time>
<desc>lat.=42.908852, lon.=19.657864, Alt.=1537.391602m. Speed=1.584000m/h.</desc>
<speed>0.440000</speed>
</trkpt>
<trkpt lat="42.908916" lon="19.657841">
<ele>1538.454102</ele>
<time>2012-04-30T18:16:20Z</time>
<desc>lat.=42.908916, lon.=19.657841, Alt.=1538.454102m. Speed=2.664000m/h.</desc>
<speed>0.740000</speed>
</trkpt>
<trkpt lat="42.908939" lon="19.657833">
<ele>1539.485352</ele>
<time>2012-04-30T18:16:25Z</time>
<desc>lat.=42.908939, lon.=19.657833, Alt.=1539.485352m. Speed=1.620000m/h.</desc>
<speed>0.450000</speed>
</trkpt>
<trkpt lat="42.908978" lon="19.657824">
<ele>1540.547852</ele>
<time>2012-04-30T18:16:30Z</time>
<desc>lat.=42.908978, lon.=19.657824, Alt.=1540.547852m. Speed=3.564000m/h.</desc>
<speed>0.990000</speed>
</trkpt>
<trkpt lat="42.909031" lon="19.657824">
<ele>1541.079102</ele>
<time>2012-04-30T18:16:35Z</time>
<desc>lat.=42.909031, lon.=19.657824, Alt.=1541.079102m. Speed=2.124000m/h.</desc>
<speed>0.590000</speed>
</trkpt>
<trkpt lat="42.909084" lon="19.657818">
<ele>1542.047852</ele>
<time>2012-04-30T18:16:40Z</time>
<desc>lat.=42.909084, lon.=19.657818, Alt.=1542.047852m. Speed=2.988000m/h.</desc>
<speed>0.830000</speed>
</trkpt>
<trkpt lat="42.909122" lon="19.657837">
<ele>1542.422852</ele>
<time>2012-04-30T18:16:45Z</time>
<desc>lat.=42.909122, lon.=19.657837, Alt.=1542.422852m. Speed=2.592000m/h.</desc>
<speed>0.720000</speed>
</trkpt>
<trkpt lat="42.909153" lon="19.657822">
<ele>1541.985352</ele>
<time>2012-04-30T18:16:50Z</time>
<desc>lat.=42.909153, lon.=19.657822, Alt.=1541.985352m. Speed=1.116000m/h.</desc>
<speed>0.310000</speed>
</trkpt>
<trkpt lat="42.909164" lon="19.657829">
<ele>1542.235352</ele>
<time>2012-04-30T18:16:55Z</time>
<desc>lat.=42.909164, lon.=19.657829, Alt.=1542.235352m. Speed=1.800000m/h.</desc>
<speed>0.500000</speed>
</trkpt>
<trkpt lat="42.909199" lon="19.657843">
<ele>1542.266602</ele>
<time>2012-04-30T18:17:00Z</time>
<desc>lat.=42.909199, lon.=19.657843, Alt.=1542.266602m. Speed=2.160000m/h.</desc>
<speed>0.600000</speed>
</trkpt>
<trkpt lat="42.909237" lon="19.657831">
<ele>1541.860352</ele>
<time>2012-04-30T18:17:05Z</time>
<desc>lat.=42.909237, lon.=19.657831, Alt.=1541.860352m. Speed=3.168000m/h.</desc>
<speed>0.880000</speed>
</trkpt>
<trkpt lat="42.909264" lon="19.657839">
<ele>1542.297852</ele>
<time>2012-04-30T18:17:10Z</time>
<desc>lat.=42.909264, lon.=19.657839, Alt.=1542.297852m. Speed=2.088000m/h.</desc>
<speed>0.580000</speed>
</trkpt>
<trkpt lat="42.909275" lon="19.657873">
<ele>1541.516602</ele>
<time>2012-04-30T18:17:15Z</time>
<desc>lat.=42.909275, lon.=19.657873, Alt.=1541.516602m. Speed=2.628000m/h.</desc>
<speed>0.730000</speed>
</trkpt>
<trkpt lat="42.909306" lon="19.657885">
<ele>1540.141602</ele>
<time>2012-04-30T18:17:20Z</time>
<desc>lat.=42.909306, lon.=19.657885, Alt.=1540.141602m. Speed=2.556000m/h.</desc>
<speed>0.710000</speed>
</trkpt>
<trkpt lat="42.909355" lon="19.657928">
<ele>1538.704102</ele>
<time>2012-04-30T18:17:25Z</time>
<desc>lat.=42.909355, lon.=19.657928, Alt.=1538.704102m. Speed=2.988000m/h.</desc>
<speed>0.830000</speed>
</trkpt>
<trkpt lat="42.909412" lon="19.657921">
<ele>1536.829102</ele>
<time>2012-04-30T18:17:30Z</time>
<desc>lat.=42.909412, lon.=19.657921, Alt.=1536.829102m. Speed=3.528000m/h.</desc>
<speed>0.980000</speed>
</trkpt>
<trkpt lat="42.909462" lon="19.657896">
<ele>1534.391602</ele>
<time>2012-04-30T18:17:35Z</time>
<desc>lat.=42.909462, lon.=19.657896, Alt.=1534.391602m. Speed=5.976000m/h.</desc>
<speed>1.660000</speed>
</trkpt>
<trkpt lat="42.909515" lon="19.657902">
<ele>1531.422852</ele>
<time>2012-04-30T18:17:40Z</time>
<desc>lat.=42.909515, lon.=19.657902, Alt.=1531.422852m. Speed=3.924000m/h.</desc>
<speed>1.090000</speed>
</trkpt>
<trkpt lat="42.909580" lon="19.657925">
<ele>1528.547852</ele>
<time>2012-04-30T18:17:45Z</time>
<desc>lat.=42.909580, lon.=19.657925, Alt.=1528.547852m. Speed=6.228000m/h.</desc>
<speed>1.730000</speed>
</trkpt>
<trkpt lat="42.909641" lon="19.657949">
<ele>1526.829102</ele>
<time>2012-04-30T18:17:50Z</time>
<desc>lat.=42.909641, lon.=19.657949, Alt.=1526.829102m. Speed=5.040000m/h.</desc>
<speed>1.400000</speed>
</trkpt>
<trkpt lat="42.909698" lon="19.657946">
<ele>1527.172852</ele>
<time>2012-04-30T18:17:55Z</time>
<desc>lat.=42.909698, lon.=19.657946, Alt.=1527.172852m. Speed=2.232000m/h.</desc>
<speed>0.620000</speed>
</trkpt>
<trkpt lat="42.909737" lon="19.657919">
<ele>1526.985352</ele>
<time>2012-04-30T18:18:00Z</time>
<desc>lat.=42.909737, lon.=19.657919, Alt.=1526.985352m. Speed=3.348000m/h.</desc>
<speed>0.930000</speed>
</trkpt>
<trkpt lat="42.909782" lon="19.657890">
<ele>1528.297852</ele>
<time>2012-04-30T18:18:05Z</time>
<desc>lat.=42.909782, lon.=19.657890, Alt.=1528.297852m. Speed=3.312000m/h.</desc>
<speed>0.920000</speed>
</trkpt>
<trkpt lat="42.909832" lon="19.657866">
<ele>1530.079102</ele>
<time>2012-04-30T18:18:10Z</time>
<desc>lat.=42.909832, lon.=19.657866, Alt.=1530.079102m. Speed=4.248000m/h.</desc>
<speed>1.180000</speed>
</trkpt>
<trkpt lat="42.909882" lon="19.657848">
<ele>1530.454102</ele>
<time>2012-04-30T18:18:15Z</time>
<desc>lat.=42.909882, lon.=19.657848, Alt.=1530.454102m. Speed=4.572000m/h.</desc>
<speed>1.270000</speed>
</trkpt>
<trkpt lat="42.909920" lon="19.657824">
<ele>1531.172852</ele>
<time>2012-04-30T18:18:20Z</time>
<desc>lat.=42.909920, lon.=19.657824, Alt.=1531.172852m. Speed=1.548000m/h.</desc>
<speed>0.430000</speed>
</trkpt>
<trkpt lat="42.909954" lon="19.657803">
<ele>1531.860352</ele>
<time>2012-04-30T18:18:25Z</time>
<desc>lat.=42.909954, lon.=19.657803, Alt.=1531.860352m. Speed=2.484000m/h.</desc>
<speed>0.690000</speed>
</trkpt>
<trkpt lat="42.909985" lon="19.657778">
<ele>1533.047852</ele>
<time>2012-04-30T18:18:30Z</time>
<desc>lat.=42.909985, lon.=19.657778, Alt.=1533.047852m. Speed=2.952000m/h.</desc>
<speed>0.820000</speed>
</trkpt>
<trkpt lat="42.910007" lon="19.657747">
<ele>1534.360352</ele>
<time>2012-04-30T18:18:35Z</time>
<desc>lat.=42.910007, lon.=19.657747, Alt.=1534.360352m. Speed=2.232000m/h.</desc>
<speed>0.620000</speed>
</trkpt>
<trkpt lat="42.910038" lon="19.657726">
<ele>1535.735352</ele>
<time>2012-04-30T18:18:40Z</time>
<desc>lat.=42.910038, lon.=19.657726, Alt.=1535.735352m. Speed=2.160000m/h.</desc>
<speed>0.600000</speed>
</trkpt>
<trkpt lat="42.910076" lon="19.657724">
<ele>1537.141602</ele>
<time>2012-04-30T18:18:45Z</time>
<desc>lat.=42.910076, lon.=19.657724, Alt.=1537.141602m. Speed=2.196000m/h.</desc>
<speed>0.610000</speed>
</trkpt>
<trkpt lat="42.910103" lon="19.657734">
<ele>1538.610352</ele>
<time>2012-04-30T18:18:50Z</time>
<desc>lat.=42.910103, lon.=19.657734, Alt.=1538.610352m. Speed=1.980000m/h.</desc>
<speed>0.550000</speed>
</trkpt>
<trkpt lat="42.910122" lon="19.657726">
<ele>1539.485352</ele>
<time>2012-04-30T18:18:55Z</time>
<desc>lat.=42.910122, lon.=19.657726, Alt.=1539.485352m. Speed=1.512000m/h.</desc>
<speed>0.420000</speed>
</trkpt>
<trkpt lat="42.910149" lon="19.657713">
<ele>1540.016602</ele>
<time>2012-04-30T18:19:00Z</time>
<desc>lat.=42.910149, lon.=19.657713, Alt.=1540.016602m. Speed=1.548000m/h.</desc>
<speed>0.430000</speed>
</trkpt>
<trkpt lat="42.910168" lon="19.657686">
<ele>1540.454102</ele>
<time>2012-04-30T18:19:05Z</time>
<desc>lat.=42.910168, lon.=19.657686, Alt.=1540.454102m. Speed=1.512000m/h.</desc>
<speed>0.420000</speed>
</trkpt>
<trkpt lat="42.910187" lon="19.657692">
<ele>1541.079102</ele>
<time>2012-04-30T18:19:10Z</time>
<desc>lat.=42.910187, lon.=19.657692, Alt.=1541.079102m. Speed=1.188000m/h.</desc>
<speed>0.330000</speed>
</trkpt>
<trkpt lat="42.910225" lon="19.657705">
<ele>1541.672852</ele>
<time>2012-04-30T18:19:15Z</time>
<desc>lat.=42.910225, lon.=19.657705, Alt.=1541.672852m. Speed=1.836000m/h.</desc>
<speed>0.510000</speed>
</trkpt>
<trkpt lat="42.910240" lon="19.657724">
<ele>1542.266602</ele>
<time>2012-04-30T18:19:20Z</time>
<desc>lat.=42.910240, lon.=19.657724, Alt.=1542.266602m. Speed=1.548000m/h.</desc>
<speed>0.430000</speed>
</trkpt>
<trkpt lat="42.910278" lon="19.657766">
<ele>1542.860352</ele>
<time>2012-04-30T18:19:25Z</time>
<desc>lat.=42.910278, lon.=19.657766, Alt.=1542.860352m. Speed=2.016000m/h.</desc>
<speed>0.560000</speed>
</trkpt>
<trkpt lat="42.910316" lon="19.657806">
<ele>1543.485352</ele>
<time>2012-04-30T18:19:30Z</time>
<desc>lat.=42.910316, lon.=19.657806, Alt.=1543.485352m. Speed=2.736000m/h.</desc>
<speed>0.760000</speed>
</trkpt>
<trkpt lat="42.910362" lon="19.657822">
<ele>1544.047852</ele>
<time>2012-04-30T18:19:35Z</time>
<desc>lat.=42.910362, lon.=19.657822, Alt.=1544.047852m. Speed=2.700000m/h.</desc>
<speed>0.750000</speed>
</trkpt>
<trkpt lat="42.910404" lon="19.657833">
<ele>1544.516602</ele>
<time>2012-04-30T18:19:40Z</time>
<desc>lat.=42.910404, lon.=19.657833, Alt.=1544.516602m. Speed=2.340000m/h.</desc>
<speed>0.650000</speed>
</trkpt>
<trkpt lat="42.910427" lon="19.657841">
<ele>1544.954102</ele>
<time>2012-04-30T18:19:45Z</time>
<desc>lat.=42.910427, lon.=19.657841, Alt.=1544.954102m. Speed=2.052000m/h.</desc>
<speed>0.570000</speed>
</trkpt>
<trkpt lat="42.910442" lon="19.657825">
<ele>1545.454102</ele>
<time>2012-04-30T18:19:50Z</time>
<desc>lat.=42.910442, lon.=19.657825, Alt.=1545.454102m. Speed=1.800000m/h.</desc>
<speed>0.500000</speed>
</trkpt>
<trkpt lat="42.910450" lon="19.657806">
<ele>1545.922852</ele>
<time>2012-04-30T18:19:55Z</time>
<desc>lat.=42.910450, lon.=19.657806, Alt.=1545.922852m. Speed=1.224000m/h.</desc>
<speed>0.340000</speed>
</trkpt>
<trkpt lat="42.910446" lon="19.657801">
<ele>1546.360352</ele>
<time>2012-04-30T18:20:00Z</time>
<desc>lat.=42.910446, lon.=19.657801, Alt.=1546.360352m. Speed=0.504000m/h.</desc>
<speed>0.140000</speed>
</trkpt>
<trkpt lat="42.910446" lon="19.657808">
<ele>1546.797852</ele>
<time>2012-04-30T18:20:05Z</time>
<desc>lat.=42.910446, lon.=19.657808, Alt.=1546.797852m. Speed=0.432000m/h.</desc>
<speed>0.120000</speed>
</trkpt>
<trkpt lat="42.910446" lon="19.657818">
<ele>1547.266602</ele>
<time>2012-04-30T18:20:10Z</time>
<desc>lat.=42.910446, lon.=19.657818, Alt.=1547.266602m. Speed=0.540000m/h.</desc>
<speed>0.150000</speed>
</trkpt>
<trkpt lat="42.910442" lon="19.657825">
<ele>1547.704102</ele>
<time>2012-04-30T18:20:15Z</time>
<desc>lat.=42.910442, lon.=19.657825, Alt.=1547.704102m. Speed=0.324000m/h.</desc>
<speed>0.090000</speed>
</trkpt>
<trkpt lat="42.910439" lon="19.657822">
<ele>1548.141602</ele>
<time>2012-04-30T18:20:20Z</time>
<desc>lat.=42.910439, lon.=19.657822, Alt.=1548.141602m. Speed=0.540000m/h.</desc>
<speed>0.150000</speed>
</trkpt>
<trkpt lat="42.910439" lon="19.657808">
<ele>1548.516602</ele>
<time>2012-04-30T18:20:25Z</time>
<desc>lat.=42.910439, lon.=19.657808, Alt.=1548.516602m. Speed=0.972000m/h.</desc>
<speed>0.270000</speed>
</trkpt>
<trkpt lat="42.910397" lon="19.657724">
<ele>1548.704102</ele>
<time>2012-04-30T18:20:30Z</time>
<desc>lat.=42.910397, lon.=19.657724, Alt.=1548.704102m. Speed=1.584000m/h.</desc>
<speed>0.440000</speed>
</trkpt>
<trkpt lat="42.910397" lon="19.657722">
<ele>1548.829102</ele>
<time>2012-04-30T18:20:35Z</time>
<desc>lat.=42.910397, lon.=19.657722, Alt.=1548.829102m. Speed=0.936000m/h.</desc>
<speed>0.260000</speed>
</trkpt>
<trkpt lat="42.910393" lon="19.657709">
<ele>1549.079102</ele>
<time>2012-04-30T18:20:40Z</time>
<desc>lat.=42.910393, lon.=19.657709, Alt.=1549.079102m. Speed=0.828000m/h.</desc>
<speed>0.230000</speed>
</trkpt>
<trkpt lat="42.910393" lon="19.657700">
<ele>1549.454102</ele>
<time>2012-04-30T18:20:45Z</time>
<desc>lat.=42.910393, lon.=19.657700, Alt.=1549.454102m. Speed=0.396000m/h.</desc>
<speed>0.110000</speed>
</trkpt>
<trkpt lat="42.910397" lon="19.657696">
<ele>1549.797852</ele>
<time>2012-04-30T18:20:50Z</time>
<desc>lat.=42.910397, lon.=19.657696, Alt.=1549.797852m. Speed=0.792000m/h.</desc>
<speed>0.220000</speed>
</trkpt>
<trkpt lat="42.910431" lon="19.657726">
<ele>1550.110352</ele>
<time>2012-04-30T18:20:55Z</time>
<desc>lat.=42.910431, lon.=19.657726, Alt.=1550.110352m. Speed=1.656000m/h.</desc>
<speed>0.460000</speed>
</trkpt>
<trkpt lat="42.910461" lon="19.657778">
<ele>1550.360352</ele>
<time>2012-04-30T18:21:00Z</time>
<desc>lat.=42.910461, lon.=19.657778, Alt.=1550.360352m. Speed=2.124000m/h.</desc>
<speed>0.590000</speed>
</trkpt>
<trkpt lat="42.910480" lon="19.657793">
<ele>1550.985352</ele>
<time>2012-04-30T18:21:05Z</time>
<desc>lat.=42.910480, lon.=19.657793, Alt.=1550.985352m. Speed=2.016000m/h.</desc>
<speed>0.560000</speed>
</trkpt>
<trkpt lat="42.910519" lon="19.657833">
<ele>1551.172852</ele>
<time>2012-04-30T18:21:10Z</time>
<desc>lat.=42.910519, lon.=19.657833, Alt.=1551.172852m. Speed=2.232000m/h.</desc>
<speed>0.620000</speed>
</trkpt>
<trkpt lat="42.910553" lon="19.657856">
<ele>1551.829102</ele>
<time>2012-04-30T18:21:15Z</time>
<desc>lat.=42.910553, lon.=19.657856, Alt.=1551.829102m. Speed=1.836000m/h.</desc>
<speed>0.510000</speed>
</trkpt>
<trkpt lat="42.910580" lon="19.657875">
<ele>1551.579102</ele>
<time>2012-04-30T18:21:20Z</time>
<desc>lat.=42.910580, lon.=19.657875, Alt.=1551.579102m. Speed=1.476000m/h.</desc>
<speed>0.410000</speed>
</trkpt>
<trkpt lat="42.910564" lon="19.657879">
<ele>1551.266602</ele>
<time>2012-04-30T18:21:25Z</time>
<desc>lat.=42.910564, lon.=19.657879, Alt.=1551.266602m. Speed=0.648000m/h.</desc>
<speed>0.180000</speed>
</trkpt>
<trkpt lat="42.910580" lon="19.657892">
<ele>1550.672852</ele>
<time>2012-04-30T18:21:30Z</time>
<desc>lat.=42.910580, lon.=19.657892, Alt.=1550.672852m. Speed=0.468000m/h.</desc>
<speed>0.130000</speed>
</trkpt>
<trkpt lat="42.910583" lon="19.657894">
<ele>1550.766602</ele>
<time>2012-04-30T18:21:35Z</time>
<desc>lat.=42.910583, lon.=19.657894, Alt.=1550.766602m. Speed=0.108000m/h.</desc>
<speed>0.030000</speed>
</trkpt>
<trkpt lat="42.910583" lon="19.657894">
<ele>1550.735352</ele>
<time>2012-04-30T18:21:40Z</time>
<desc>lat.=42.910583, lon.=19.657894, Alt.=1550.735352m. Speed=0.216000m/h.</desc>
<speed>0.060000</speed>
</trkpt>
<trkpt lat="42.910591" lon="19.657896">
<ele>1550.579102</ele>
<time>2012-04-30T18:21:45Z</time>
<desc>lat.=42.910591, lon.=19.657896, Alt.=1550.579102m. Speed=0.756000m/h.</desc>
<speed>0.210000</speed>
</trkpt>
<trkpt lat="42.910603" lon="19.657898">
<ele>1550.422852</ele>
<time>2012-04-30T18:21:50Z</time>
<desc>lat.=42.910603, lon.=19.657898, Alt.=1550.422852m. Speed=0.936000m/h.</desc>
<speed>0.260000</speed>
</trkpt>
<trkpt lat="42.910614" lon="19.657894">
<ele>1550.204102</ele>
<time>2012-04-30T18:21:55Z</time>
<desc>lat.=42.910614, lon.=19.657894, Alt.=1550.204102m. Speed=0.972000m/h.</desc>
<speed>0.270000</speed>
</trkpt>
<trkpt lat="42.910625" lon="19.657890">
<ele>1549.954102</ele>
<time>2012-04-30T18:22:00Z</time>
<desc>lat.=42.910625, lon.=19.657890, Alt.=1549.954102m. Speed=0.792000m/h.</desc>
<speed>0.220000</speed>
</trkpt>
<trkpt lat="42.910629" lon="19.657885">
<ele>1549.704102</ele>
<time>2012-04-30T18:22:05Z</time>
<desc>lat.=42.910629, lon.=19.657885, Alt.=1549.704102m. Speed=0.468000m/h.</desc>
<speed>0.130000</speed>
</trkpt>
<trkpt lat="42.910637" lon="19.657881">
<ele>1549.422852</ele>
<time>2012-04-30T18:22:10Z</time>
<desc>lat.=42.910637, lon.=19.657881, Alt.=1549.422852m. Speed=0.468000m/h.</desc>
<speed>0.130000</speed>
</trkpt>
<trkpt lat="42.910637" lon="19.657877">
<ele>1549.110352</ele>
<time>2012-04-30T18:22:15Z</time>
<desc>lat.=42.910637, lon.=19.657877, Alt.=1549.110352m. Speed=0.324000m/h.</desc>
<speed>0.090000</speed>
</trkpt>
<trkpt lat="42.910633" lon="19.657869">
<ele>1548.797852</ele>
<time>2012-04-30T18:22:20Z</time>
<desc>lat.=42.910633, lon.=19.657869, Alt.=1548.797852m. Speed=0.576000m/h.</desc>
<speed>0.160000</speed>
</trkpt>
<trkpt lat="42.910625" lon="19.657866">
<ele>1548.266602</ele>
<time>2012-04-30T18:22:25Z</time>
<desc>lat.=42.910625, lon.=19.657866, Alt.=1548.266602m. Speed=0.936000m/h.</desc>
<speed>0.260000</speed>
</trkpt>
<trkpt lat="42.910622" lon="19.657875">
<ele>1544.204102</ele>
<time>2012-04-30T18:22:30Z</time>
<desc>lat.=42.910622, lon.=19.657875, Alt.=1544.204102m. Speed=0.936000m/h.</desc>
<speed>0.260000</speed>
</trkpt>
<trkpt lat="42.910618" lon="19.657869">
<ele>1542.454102</ele>
<time>2012-04-30T18:22:35Z</time>
<desc>lat.=42.910618, lon.=19.657869, Alt.=1542.454102m. Speed=0.144000m/h.</desc>
<speed>0.040000</speed>
</trkpt>
<trkpt lat="42.910618" lon="19.657871">
<ele>1541.391602</ele>
<time>2012-04-30T18:22:40Z</time>
<desc>lat.=42.910618, lon.=19.657871, Alt.=1541.391602m. Speed=0.396000m/h.</desc>
<speed>0.110000</speed>
</trkpt>
<trkpt lat="42.910618" lon="19.657864">
<ele>1540.016602</ele>
<time>2012-04-30T18:22:45Z</time>
<desc>lat.=42.910618, lon.=19.657864, Alt.=1540.016602m. Speed=0.504000m/h.</desc>
<speed>0.140000</speed>
</trkpt>
<trkpt lat="42.910606" lon="19.657852">
<ele>1537.516602</ele>
<time>2012-04-30T18:22:50Z</time>
<desc>lat.=42.910606, lon.=19.657852, Alt.=1537.516602m. Speed=1.152000m/h.</desc>
<speed>0.320000</speed>
</trkpt>
<trkpt lat="42.910576" lon="19.657793">
<ele>1533.329102</ele>
<time>2012-04-30T18:22:55Z</time>
<desc>lat.=42.910576, lon.=19.657793, Alt.=1533.329102m. Speed=2.124000m/h.</desc>
<speed>0.590000</speed>
</trkpt>
<trkpt lat="42.910538" lon="19.657766">
<ele>1531.360352</ele>
<time>2012-04-30T18:23:00Z</time>
<desc>lat.=42.910538, lon.=19.657766, Alt.=1531.360352m. Speed=2.736000m/h.</desc>
<speed>0.760000</speed>
</trkpt>
<trkpt lat="42.910503" lon="19.657730">
<ele>1529.016602</ele>
<time>2012-04-30T18:23:05Z</time>
<desc>lat.=42.910503, lon.=19.657730, Alt.=1529.016602m. Speed=3.456000m/h.</desc>
<speed>0.960000</speed>
</trkpt>
<trkpt lat="42.910458" lon="19.657742">
<ele>1526.766602</ele>
<time>2012-04-30T18:23:10Z</time>
<desc>lat.=42.910458, lon.=19.657742, Alt.=1526.766602m. Speed=3.564000m/h.</desc>
<speed>0.990000</speed>
</trkpt>
<trkpt lat="42.910416" lon="19.657713">
<ele>1524.860352</ele>
<time>2012-04-30T18:23:15Z</time>
<desc>lat.=42.910416, lon.=19.657713, Alt.=1524.860352m. Speed=3.852000m/h.</desc>
<speed>1.070000</speed>
</trkpt>
<trkpt lat="42.910339" lon="19.657652">
<ele>1523.610352</ele>
<time>2012-04-30T18:23:20Z</time>
<desc>lat.=42.910339, lon.=19.657652, Alt.=1523.610352m. Speed=4.320000m/h.</desc>
<speed>1.200000</speed>
</trkpt>
<trkpt lat="42.910301" lon="19.657612">
<ele>1522.422852</ele>
<time>2012-04-30T18:23:25Z</time>
<desc>lat.=42.910301, lon.=19.657612, Alt.=1522.422852m. Speed=3.996000m/h.</desc>
<speed>1.110000</speed>
</trkpt>
<trkpt lat="42.910259" lon="19.657555">
<ele>1520.579102</ele>
<time>2012-04-30T18:23:30Z</time>
<desc>lat.=42.910259, lon.=19.657555, Alt.=1520.579102m. Speed=4.320000m/h.</desc>
<speed>1.200000</speed>
</trkpt>
<trkpt lat="42.910225" lon="19.657516">
<ele>1519.391602</ele>
<time>2012-04-30T18:23:35Z</time>
<desc>lat.=42.910225, lon.=19.657516, Alt.=1519.391602m. Speed=3.888000m/h.</desc>
<speed>1.080000</speed>
</trkpt>
<trkpt lat="42.910164" lon="19.657499">
<ele>1518.422852</ele>
<time>2012-04-30T18:23:40Z</time>
<desc>lat.=42.910164, lon.=19.657499, Alt.=1518.422852m. Speed=2.772000m/h.</desc>
<speed>0.770000</speed>
</trkpt>
<trkpt lat="42.910095" lon="19.657551">
<ele>1516.860352</ele>
<time>2012-04-30T18:23:45Z</time>
<desc>lat.=42.910095, lon.=19.657551, Alt.=1516.860352m. Speed=4.428000m/h.</desc>
<speed>1.230000</speed>
</trkpt>
<trkpt lat="42.910011" lon="19.657600">
<ele>1512.922852</ele>
<time>2012-04-30T18:23:50Z</time>
<desc>lat.=42.910011, lon.=19.657600, Alt.=1512.922852m. Speed=5.256000m/h.</desc>
<speed>1.460000</speed>
</trkpt>
<trkpt lat="42.909966" lon="19.657654">
<ele>1509.672852</ele>
<time>2012-04-30T18:23:55Z</time>
<desc>lat.=42.909966, lon.=19.657654, Alt.=1509.672852m. Speed=5.040000m/h.</desc>
<speed>1.400000</speed>
</trkpt>
<trkpt lat="42.909935" lon="19.657679">
<ele>1506.516602</ele>
<time>2012-04-30T18:24:00Z</time>
<desc>lat.=42.909935, lon.=19.657679, Alt.=1506.516602m. Speed=4.248000m/h.</desc>
<speed>1.180000</speed>
</trkpt>
<trkpt lat="42.909893" lon="19.657700">
<ele>1503.110352</ele>
<time>2012-04-30T18:24:05Z</time>
<desc>lat.=42.909893, lon.=19.657700, Alt.=1503.110352m. Speed=1.440000m/h.</desc>
<speed>0.400000</speed>
</trkpt>
<trkpt lat="42.909828" lon="19.657707">
<ele>1501.860352</ele>
<time>2012-04-30T18:24:10Z</time>
<desc>lat.=42.909828, lon.=19.657707, Alt.=1501.860352m. Speed=4.428000m/h.</desc>
<speed>1.230000</speed>
</trkpt>
<trkpt lat="42.909786" lon="19.657757">
<ele>1500.204102</ele>
<time>2012-04-30T18:24:15Z</time>
<desc>lat.=42.909786, lon.=19.657757, Alt.=1500.204102m. Speed=3.672000m/h.</desc>
<speed>1.020000</speed>
</trkpt>
<trkpt lat="42.909767" lon="19.657812">
<ele>1498.954102</ele>
<time>2012-04-30T18:24:20Z</time>
<desc>lat.=42.909767, lon.=19.657812, Alt.=1498.954102m. Speed=5.076000m/h.</desc>
<speed>1.410000</speed>
</trkpt>
<trkpt lat="42.909733" lon="19.657856">
<ele>1496.672852</ele>
<time>2012-04-30T18:24:25Z</time>
<desc>lat.=42.909733, lon.=19.657856, Alt.=1496.672852m. Speed=5.004000m/h.</desc>
<speed>1.390000</speed>
</trkpt>
<trkpt lat="42.909698" lon="19.657875">
<ele>1493.360352</ele>
<time>2012-04-30T18:24:30Z</time>
<desc>lat.=42.909698, lon.=19.657875, Alt.=1493.360352m. Speed=0.180000m/h.</desc>
<speed>0.050000</speed>
</trkpt>
<trkpt lat="42.909718" lon="19.657898">
<ele>1492.297852</ele>
<time>2012-04-30T18:24:35Z</time>
<desc>lat.=42.909718, lon.=19.657898, Alt.=1492.297852m. Speed=1.044000m/h.</desc>
<speed>0.290000</speed>
</trkpt>
<trkpt lat="42.909718" lon="19.657907">
<ele>1490.891602</ele>
<time>2012-04-30T18:24:40Z</time>
<desc>lat.=42.909718, lon.=19.657907, Alt.=1490.891602m. Speed=0.900000m/h.</desc>
<speed>0.250000</speed>
</trkpt>
<trkpt lat="42.909710" lon="19.657917">
<ele>1489.485352</ele>
<time>2012-04-30T18:24:45Z</time>
<desc>lat.=42.909710, lon.=19.657917, Alt.=1489.485352m. Speed=0.792000m/h.</desc>
<speed>0.220000</speed>
</trkpt>
<trkpt lat="42.909702" lon="19.657915">
<ele>1488.141602</ele>
<time>2012-04-30T18:24:50Z</time>
<desc>lat.=42.909702, lon.=19.657915, Alt.=1488.141602m. Speed=1.548000m/h.</desc>
<speed>0.430000</speed>
</trkpt>
<trkpt lat="42.909698" lon="19.657885">
<ele>1486.204102</ele>
<time>2012-04-30T18:24:55Z</time>
<desc>lat.=42.909698, lon.=19.657885, Alt.=1486.204102m. Speed=1.620000m/h.</desc>
<speed>0.450000</speed>
</trkpt>
<trkpt lat="42.909683" lon="19.657825">
<ele>1484.610352</ele>
<time>2012-04-30T18:25:00Z</time>
<desc>lat.=42.909683, lon.=19.657825, Alt.=1484.610352m. Speed=3.708000m/h.</desc>
<speed>1.030000</speed>
</trkpt>
<trkpt lat="42.909698" lon="19.657764">
<ele>1482.985352</ele>
<time>2012-04-30T18:25:05Z</time>
<desc>lat.=42.909698, lon.=19.657764, Alt.=1482.985352m. Speed=3.060000m/h.</desc>
<speed>0.850000</speed>
</trkpt>
<trkpt lat="42.909718" lon="19.657703">
<ele>1480.829102</ele>
<time>2012-04-30T18:25:10Z</time>
<desc>lat.=42.909718, lon.=19.657703, Alt.=1480.829102m. Speed=3.528000m/h.</desc>
<speed>0.980000</speed>
</trkpt>
<trkpt lat="42.909725" lon="19.657633">
<ele>1479.391602</ele>
<time>2012-04-30T18:25:15Z</time>
<desc>lat.=42.909725, lon.=19.657633, Alt.=1479.391602m. Speed=3.852000m/h.</desc>
<speed>1.070000</speed>
</trkpt>
<trkpt lat="42.909740" lon="19.657570">
<ele>1478.235352</ele>
<time>2012-04-30T18:25:20Z</time>
<desc>lat.=42.909740, lon.=19.657570, Alt.=1478.235352m. Speed=4.284000m/h.</desc>
<speed>1.190000</speed>
</trkpt>
<trkpt lat="42.909775" lon="19.657532">
<ele>1476.860352</ele>
<time>2012-04-30T18:25:25Z</time>
<desc>lat.=42.909775, lon.=19.657532, Alt.=1476.860352m. Speed=2.808000m/h.</desc>
<speed>0.780000</speed>
</trkpt>
<trkpt lat="42.909790" lon="19.657475">
<ele>1476.016602</ele>
<time>2012-04-30T18:25:30Z</time>
<desc>lat.=42.909790, lon.=19.657475, Alt.=1476.016602m. Speed=3.384000m/h.</desc>
<speed>0.940000</speed>
</trkpt>
<trkpt lat="42.909817" lon="19.657413">
<ele>1474.766602</ele>
<time>2012-04-30T18:25:35Z</time>
<desc>lat.=42.909817, lon.=19.657413, Alt.=1474.766602m. Speed=4.644000m/h.</desc>
<speed>1.290000</speed>
</trkpt>
<trkpt lat="42.909859" lon="19.657377">
<ele>1473.766602</ele>
<time>2012-04-30T18:25:40Z</time>
<desc>lat.=42.909859, lon.=19.657377, Alt.=1473.766602m. Speed=3.924000m/h.</desc>
<speed>1.090000</speed>
</trkpt>
<trkpt lat="42.909901" lon="19.657333">
<ele>1473.204102</ele>
<time>2012-04-30T18:25:45Z</time>
<desc>lat.=42.909901, lon.=19.657333, Alt.=1473.204102m. Speed=3.312000m/h.</desc>
<speed>0.920000</speed>
</trkpt>
<trkpt lat="42.909943" lon="19.657310">
<ele>1472.454102</ele>
<time>2012-04-30T18:25:50Z</time>
<desc>lat.=42.909943, lon.=19.657310, Alt.=1472.454102m. Speed=2.808000m/h.</desc>
<speed>0.780000</speed>
</trkpt>
<trkpt lat="42.910011" lon="19.657207">
<ele>1472.172852</ele>
<time>2012-04-30T18:25:55Z</time>
<desc>lat.=42.910011, lon.=19.657207, Alt.=1472.172852m. Speed=10.404000m/h.</desc>
<speed>2.890000</speed>
</trkpt>
<trkpt lat="42.910099" lon="19.657116">
<ele>1472.672852</ele>
<time>2012-04-30T18:26:00Z</time>
<desc>lat.=42.910099, lon.=19.657116, Alt.=1472.672852m. Speed=9.036000m/h.</desc>
<speed>2.510000</speed>
</trkpt>
<trkpt lat="42.910179" lon="19.657030">
<ele>1472.641602</ele>
<time>2012-04-30T18:26:05Z</time>
<desc>lat.=42.910179, lon.=19.657030, Alt.=1472.641602m. Speed=9.576000m/h.</desc>
<speed>2.660000</speed>
</trkpt>
<trkpt lat="42.910316" lon="19.656988">
<ele>1475.047852</ele>
<time>2012-04-30T18:26:10Z</time>
<desc>lat.=42.910316, lon.=19.656988, Alt.=1475.047852m. Speed=8.424000m/h.</desc>
<speed>2.340000</speed>
</trkpt>
<trkpt lat="42.910408" lon="19.656902">
<ele>1476.704102</ele>
<time>2012-04-30T18:26:15Z</time>
<desc>lat.=42.910408, lon.=19.656902, Alt.=1476.704102m. Speed=7.164000m/h.</desc>
<speed>1.990000</speed>
</trkpt>
<trkpt lat="42.910519" lon="19.656818">
<ele>1479.610352</ele>
<time>2012-04-30T18:26:20Z</time>
<desc>lat.=42.910519, lon.=19.656818, Alt.=1479.610352m. Speed=10.620000m/h.</desc>
<speed>2.950000</speed>
</trkpt>
<trkpt lat="42.910652" lon="19.656708">
<ele>1481.985352</ele>
<time>2012-04-30T18:26:25Z</time>
<desc>lat.=42.910652, lon.=19.656708, Alt.=1481.985352m. Speed=11.772000m/h.</desc>
<speed>3.270000</speed>
</trkpt>
<trkpt lat="42.910736" lon="19.656610">
<ele>1485.797852</ele>
<time>2012-04-30T18:26:30Z</time>
<desc>lat.=42.910736, lon.=19.656610, Alt.=1485.797852m. Speed=5.688000m/h.</desc>
<speed>1.580000</speed>
</trkpt>
<trkpt lat="42.910786" lon="19.656551">
<ele>1488.891602</ele>
<time>2012-04-30T18:26:35Z</time>
<desc>lat.=42.910786, lon.=19.656551, Alt.=1488.891602m. Speed=2.628000m/h.</desc>
<speed>0.730000</speed>
</trkpt>
<trkpt lat="42.910831" lon="19.656490">
<ele>1490.391602</ele>
<time>2012-04-30T18:26:40Z</time>
<desc>lat.=42.910831, lon.=19.656490, Alt.=1490.391602m. Speed=5.616000m/h.</desc>
<speed>1.560000</speed>
</trkpt>
<trkpt lat="42.910862" lon="19.656397">
<ele>1491.516602</ele>
<time>2012-04-30T18:26:45Z</time>
<desc>lat.=42.910862, lon.=19.656397, Alt.=1491.516602m. Speed=4.572000m/h.</desc>
<speed>1.270000</speed>
</trkpt>
<trkpt lat="42.910889" lon="19.656403">
<ele>1493.454102</ele>
<time>2012-04-30T18:26:50Z</time>
<desc>lat.=42.910889, lon.=19.656403, Alt.=1493.454102m. Speed=0.324000m/h.</desc>
<speed>0.090000</speed>
</trkpt>
<trkpt lat="42.910892" lon="19.656406">
<ele>1494.735352</ele>
<time>2012-04-30T18:26:55Z</time>
<desc>lat.=42.910892, lon.=19.656406, Alt.=1494.735352m. Speed=0.612000m/h.</desc>
<speed>0.170000</speed>
</trkpt>
<trkpt lat="42.910896" lon="19.656404">
<ele>1496.016602</ele>
<time>2012-04-30T18:27:00Z</time>
<desc>lat.=42.910896, lon.=19.656404, Alt.=1496.016602m. Speed=0.504000m/h.</desc>
<speed>0.140000</speed>
</trkpt>
<trkpt lat="42.910892" lon="19.656385">
<ele>1497.047852</ele>
<time>2012-04-30T18:27:05Z</time>
<desc>lat.=42.910892, lon.=19.656385, Alt.=1497.047852m. Speed=1.008000m/h.</desc>
<speed>0.280000</speed>
</trkpt>
<trkpt lat="42.910892" lon="19.656359">
<ele>1496.829102</ele>
<time>2012-04-30T18:27:10Z</time>
<desc>lat.=42.910892, lon.=19.656359, Alt.=1496.829102m. Speed=0.864000m/h.</desc>
<speed>0.240000</speed>
</trkpt>
<trkpt lat="42.910969" lon="19.656370">
<ele>1493.360352</ele>
<time>2012-04-30T18:27:15Z</time>
<desc>lat.=42.910969, lon.=19.656370, Alt.=1493.360352m. Speed=3.924000m/h.</desc>
<speed>1.090000</speed>
</trkpt>
<trkpt lat="42.911003" lon="19.656349">
<ele>1493.922852</ele>
<time>2012-04-30T18:27:20Z</time>
<desc>lat.=42.911003, lon.=19.656349, Alt.=1493.922852m. Speed=2.232000m/h.</desc>
<speed>0.620000</speed>
</trkpt>
<trkpt lat="42.911041" lon="19.656343">
<ele>1493.016602</ele>
<time>2012-04-30T18:27:25Z</time>
<desc>lat.=42.911041, lon.=19.656343, Alt.=1493.016602m. Speed=3.528000m/h.</desc>
<speed>0.980000</speed>
</trkpt>
<trkpt lat="42.911098" lon="19.656292">
<ele>1491.829102</ele>
<time>2012-04-30T18:27:30Z</time>
<desc>lat.=42.911098, lon.=19.656292, Alt.=1491.829102m. Speed=4.536000m/h.</desc>
<speed>1.260000</speed>
</trkpt>
<trkpt lat="42.911125" lon="19.656267">
<ele>1491.954102</ele>
<time>2012-04-30T18:27:35Z</time>
<desc>lat.=42.911125, lon.=19.656267, Alt.=1491.954102m. Speed=2.484000m/h.</desc>
<speed>0.690000</speed>
</trkpt>
<trkpt lat="42.911152" lon="19.656239">
<ele>1491.954102</ele>
<time>2012-04-30T18:27:40Z</time>
<desc>lat.=42.911152, lon.=19.656239, Alt.=1491.954102m. Speed=2.340000m/h.</desc>
<speed>0.650000</speed>
</trkpt>
<trkpt lat="42.911171" lon="19.656193">
<ele>1492.047852</ele>
<time>2012-04-30T18:27:45Z</time>
<desc>lat.=42.911171, lon.=19.656193, Alt.=1492.047852m. Speed=2.124000m/h.</desc>
<speed>0.590000</speed>
</trkpt>
<trkpt lat="42.911194" lon="19.656141">
<ele>1492.047852</ele>
<time>2012-04-30T18:27:50Z</time>
<desc>lat.=42.911194, lon.=19.656141, Alt.=1492.047852m. Speed=2.844000m/h.</desc>
<speed>0.790000</speed>
</trkpt>
<trkpt lat="42.911240" lon="19.656115">
<ele>1492.079102</ele>
<time>2012-04-30T18:27:55Z</time>
<desc>lat.=42.911240, lon.=19.656115, Alt.=1492.079102m. Speed=3.276000m/h.</desc>
<speed>0.910000</speed>
</trkpt>
<trkpt lat="42.911278" lon="19.656090">
<ele>1492.110352</ele>
<time>2012-04-30T18:28:00Z</time>
<desc>lat.=42.911278, lon.=19.656090, Alt.=1492.110352m. Speed=3.060000m/h.</desc>
<speed>0.850000</speed>
</trkpt>
<trkpt lat="42.911312" lon="19.656048">
<ele>1490.641602</ele>
<time>2012-04-30T18:28:05Z</time>
<desc>lat.=42.911312, lon.=19.656048, Alt.=1490.641602m. Speed=2.376000m/h.</desc>
<speed>0.660000</speed>
</trkpt>
<trkpt lat="42.911350" lon="19.656000">
<ele>1490.797852</ele>
<time>2012-04-30T18:28:10Z</time>
<desc>lat.=42.911350, lon.=19.656000, Alt.=1490.797852m. Speed=3.132000m/h.</desc>
<speed>0.870000</speed>
</trkpt>
<trkpt lat="42.911427" lon="19.655973">
<ele>1490.079102</ele>
<time>2012-04-30T18:28:15Z</time>
<desc>lat.=42.911427, lon.=19.655973, Alt.=1490.079102m. Speed=3.060000m/h.</desc>
<speed>0.850000</speed>
</trkpt>
<trkpt lat="42.911465" lon="19.655920">
<ele>1489.360352</ele>
<time>2012-04-30T18:28:20Z</time>
<desc>lat.=42.911465, lon.=19.655920, Alt.=1489.360352m. Speed=3.240000m/h.</desc>
<speed>0.900000</speed>
</trkpt>
<trkpt lat="42.911507" lon="19.655905">
<ele>1488.704102</ele>
<time>2012-04-30T18:28:25Z</time>
<desc>lat.=42.911507, lon.=19.655905, Alt.=1488.704102m. Speed=3.456000m/h.</desc>
<speed>0.960000</speed>
</trkpt>
<trkpt lat="42.911537" lon="19.655859">
<ele>1488.016602</ele>
<time>2012-04-30T18:28:30Z</time>
<desc>lat.=42.911537, lon.=19.655859, Alt.=1488.016602m. Speed=3.132000m/h.</desc>
<speed>0.870000</speed>
</trkpt>
<trkpt lat="42.911583" lon="19.655830">
<ele>1487.454102</ele>
<time>2012-04-30T18:28:35Z</time>
<desc>lat.=42.911583, lon.=19.655830, Alt.=1487.454102m. Speed=1.836000m/h.</desc>
<speed>0.510000</speed>
</trkpt>
<trkpt lat="42.911617" lon="19.655815">
<ele>1487.079102</ele>
<time>2012-04-30T18:28:40Z</time>
<desc>lat.=42.911617, lon.=19.655815, Alt.=1487.079102m. Speed=1.188000m/h.</desc>
<speed>0.330000</speed>
</trkpt>
<trkpt lat="42.911633" lon="19.655754">
<ele>1484.954102</ele>
<time>2012-04-30T18:28:45Z</time>
<desc>lat.=42.911633, lon.=19.655754, Alt.=1484.954102m. Speed=0.720000m/h.</desc>
<speed>0.200000</speed>
</trkpt>
<trkpt lat="42.911636" lon="19.655741">
<ele>1484.579102</ele>
<time>2012-04-30T18:28:50Z</time>
<desc>lat.=42.911636, lon.=19.655741, Alt.=1484.579102m. Speed=0.720000m/h.</desc>
<speed>0.200000</speed>
</trkpt>
<trkpt lat="42.911644" lon="19.655733">
<ele>1484.516602</ele>
<time>2012-04-30T18:28:55Z</time>
<desc>lat.=42.911644, lon.=19.655733, Alt.=1484.516602m. Speed=0.252000m/h.</desc>
<speed>0.070000</speed>
</trkpt>
<trkpt lat="42.911644" lon="19.655729">
<ele>1484.485352</ele>
<time>2012-04-30T18:29:00Z</time>
<desc>lat.=42.911644, lon.=19.655729, Alt.=1484.485352m. Speed=0.576000m/h.</desc>
<speed>0.160000</speed>
</trkpt>
<trkpt lat="42.911652" lon="19.655716">
<ele>1483.110352</ele>
<time>2012-04-30T18:29:05Z</time>
<desc>lat.=42.911652, lon.=19.655716, Alt.=1483.110352m. Speed=1.656000m/h.</desc>
<speed>0.460000</speed>
</trkpt>
<trkpt lat="42.911701" lon="19.655680">
<ele>1481.860352</ele>
<time>2012-04-30T18:29:10Z</time>
<desc>lat.=42.911701, lon.=19.655680, Alt.=1481.860352m. Speed=3.888000m/h.</desc>
<speed>1.080000</speed>
</trkpt>
<trkpt lat="42.911751" lon="19.655634">
<ele>1480.391602</ele>
<time>2012-04-30T18:29:15Z</time>
<desc>lat.=42.911751, lon.=19.655634, Alt.=1480.391602m. Speed=3.852000m/h.</desc>
<speed>1.070000</speed>
</trkpt>
<trkpt lat="42.911774" lon="19.655579">
<ele>1478.516602</ele>
<time>2012-04-30T18:29:20Z</time>
<desc>lat.=42.911774, lon.=19.655579, Alt.=1478.516602m. Speed=4.464000m/h.</desc>
<speed>1.240000</speed>
</trkpt>
<trkpt lat="42.911827" lon="19.655544">
<ele>1476.797852</ele>
<time>2012-04-30T18:29:25Z</time>
<desc>lat.=42.911827, lon.=19.655544, Alt.=1476.797852m. Speed=5.004000m/h.</desc>
<speed>1.390000</speed>
</trkpt>
<trkpt lat="42.911877" lon="19.655499">
<ele>1475.579102</ele>
<time>2012-04-30T18:29:30Z</time>
<desc>lat.=42.911877, lon.=19.655499, Alt.=1475.579102m. Speed=6.012000m/h.</desc>
<speed>1.670000</speed>
</trkpt>
<trkpt lat="42.911938" lon="19.655462">
<ele>1471.672852</ele>
<time>2012-04-30T18:29:35Z</time>
<desc>lat.=42.911938, lon.=19.655462, Alt.=1471.672852m. Speed=3.492000m/h.</desc>
<speed>0.970000</speed>
</trkpt>
<trkpt lat="42.911976" lon="19.655436">
<ele>1470.797852</ele>
<time>2012-04-30T18:29:40Z</time>
<desc>lat.=42.911976, lon.=19.655436, Alt.=1470.797852m. Speed=1.656000m/h.</desc>
<speed>0.460000</speed>
</trkpt>
<trkpt lat="42.911995" lon="19.655399">
<ele>1469.641602</ele>
<time>2012-04-30T18:29:45Z</time>
<desc>lat.=42.911995, lon.=19.655399, Alt.=1469.641602m. Speed=2.016000m/h.</desc>
<speed>0.560000</speed>
</trkpt>
<trkpt lat="42.912033" lon="19.655361">
<ele>1467.266602</ele>
<time>2012-04-30T18:29:50Z</time>
<desc>lat.=42.912033, lon.=19.655361, Alt.=1467.266602m. Speed=2.880000m/h.</desc>
<speed>0.800000</speed>
</trkpt>
<trkpt lat="42.912090" lon="19.655342">
<ele>1462.922852</ele>
<time>2012-04-30T18:29:55Z</time>
<desc>lat.=42.912090, lon.=19.655342, Alt.=1462.922852m. Speed=4.068000m/h.</desc>
<speed>1.130000</speed>
</trkpt>
<trkpt lat="42.912121" lon="19.655319">
<ele>1461.360352</ele>
<time>2012-04-30T18:30:00Z</time>
<desc>lat.=42.912121, lon.=19.655319, Alt.=1461.360352m. Speed=0.432000m/h.</desc>
<speed>0.120000</speed>
</trkpt>
<trkpt lat="42.912121" lon="19.655300">
<ele>1459.672852</ele>
<time>2012-04-30T18:30:05Z</time>
<desc>lat.=42.912121, lon.=19.655300, Alt.=1459.672852m. Speed=0.612000m/h.</desc>
<speed>0.170000</speed>
</trkpt>
<trkpt lat="42.912125" lon="19.655294">
<ele>1458.266602</ele>
<time>2012-04-30T18:30:10Z</time>
<desc>lat.=42.912125, lon.=19.655294, Alt.=1458.266602m. Speed=1.044000m/h.</desc>
<speed>0.290000</speed>
</trkpt>
<trkpt lat="42.912136" lon="19.655289">
<ele>1456.704102</ele>
<time>2012-04-30T18:30:15Z</time>
<desc>lat.=42.912136, lon.=19.655289, Alt.=1456.704102m. Speed=1.476000m/h.</desc>
<speed>0.410000</speed>
</trkpt>
<trkpt lat="42.912174" lon="19.655256">
<ele>1455.485352</ele>
<time>2012-04-30T18:30:20Z</time>
<desc>lat.=42.912174, lon.=19.655256, Alt.=1455.485352m. Speed=2.412000m/h.</desc>
<speed>0.670000</speed>
</trkpt>
<trkpt lat="42.912193" lon="19.655212">
<ele>1454.110352</ele>
<time>2012-04-30T18:30:25Z</time>
<desc>lat.=42.912193, lon.=19.655212, Alt.=1454.110352m. Speed=1.800000m/h.</desc>
<speed>0.500000</speed>
</trkpt>
<trkpt lat="42.912216" lon="19.655188">
<ele>1452.766602</ele>
<time>2012-04-30T18:30:30Z</time>
<desc>lat.=42.912216, lon.=19.655188, Alt.=1452.766602m. Speed=1.440000m/h.</desc>
<speed>0.400000</speed>
</trkpt>
<trkpt lat="42.912266" lon="19.655167">
<ele>1451.079102</ele>
<time>2012-04-30T18:30:35Z</time>
<desc>lat.=42.912266, lon.=19.655167, Alt.=1451.079102m. Speed=3.420000m/h.</desc>
<speed>0.950000</speed>
</trkpt>
<trkpt lat="42.912323" lon="19.655136">
<ele>1449.610352</ele>
<time>2012-04-30T18:30:40Z</time>
<desc>lat.=42.912323, lon.=19.655136, Alt.=1449.610352m. Speed=3.852000m/h.</desc>
<speed>1.070000</speed>
</trkpt>
<trkpt lat="42.912369" lon="19.655128">
<ele>1447.547852</ele>
<time>2012-04-30T18:30:45Z</time>
<desc>lat.=42.912369, lon.=19.655128, Alt.=1447.547852m. Speed=2.772000m/h.</desc>
<speed>0.770000</speed>
</trkpt>
<trkpt lat="42.912388" lon="19.655083">
<ele>1446.704102</ele>
<time>2012-04-30T18:30:50Z</time>
<desc>lat.=42.912388, lon.=19.655083, Alt.=1446.704102m. Speed=2.160000m/h.</desc>
<speed>0.600000</speed>
</trkpt>
<trkpt lat="42.912403" lon="19.655033">
<ele>1444.797852</ele>
<time>2012-04-30T18:30:55Z</time>
<desc>lat.=42.912403, lon.=19.655033, Alt.=1444.797852m. Speed=2.664000m/h.</desc>
<speed>0.740000</speed>
</trkpt>
<trkpt lat="42.912418" lon="19.655010">
<ele>1443.266602</ele>
<time>2012-04-30T18:31:00Z</time>
<desc>lat.=42.912418, lon.=19.655010, Alt.=1443.266602m. Speed=2.844000m/h.</desc>
<speed>0.790000</speed>
</trkpt>
<trkpt lat="42.912415" lon="19.654959">
<ele>1442.391602</ele>
<time>2012-04-30T18:31:05Z</time>
<desc>lat.=42.912415, lon.=19.654959, Alt.=1442.391602m. Speed=2.304000m/h.</desc>
<speed>0.640000</speed>
</trkpt>
<trkpt lat="42.912449" lon="19.654942">
<ele>1440.954102</ele>
<time>2012-04-30T18:31:10Z</time>
<desc>lat.=42.912449, lon.=19.654942, Alt.=1440.954102m. Speed=2.376000m/h.</desc>
<speed>0.660000</speed>
</trkpt>
<trkpt lat="42.912483" lon="19.654919">
<ele>1439.891602</ele>
<time>2012-04-30T18:31:15Z</time>
<desc>lat.=42.912483, lon.=19.654919, Alt.=1439.891602m. Speed=3.348000m/h.</desc>
<speed>0.930000</speed>
</trkpt>
<trkpt lat="42.912518" lon="19.654888">
<ele>1438.891602</ele>
<time>2012-04-30T18:31:20Z</time>
<desc>lat.=42.912518, lon.=19.654888, Alt.=1438.891602m. Speed=3.240000m/h.</desc>
<speed>0.900000</speed>
</trkpt>
<trkpt lat="42.912571" lon="19.654884">
<ele>1438.047852</ele>
<time>2012-04-30T18:31:25Z</time>
<desc>lat.=42.912571, lon.=19.654884, Alt.=1438.047852m. Speed=2.592000m/h.</desc>
<speed>0.720000</speed>
</trkpt>
<trkpt lat="42.912617" lon="19.654890">
<ele>1437.141602</ele>
<time>2012-04-30T18:31:30Z</time>
<desc>lat.=42.912617, lon.=19.654890, Alt.=1437.141602m. Speed=1.872000m/h.</desc>
<speed>0.520000</speed>
</trkpt>
<trkpt lat="42.912670" lon="19.654905">
<ele>1436.610352</ele>
<time>2012-04-30T18:31:35Z</time>
<desc>lat.=42.912670, lon.=19.654905, Alt.=1436.610352m. Speed=2.808000m/h.</desc>
<speed>0.780000</speed>
</trkpt>
<trkpt lat="42.912731" lon="19.654911">
<ele>1435.891602</ele>
<time>2012-04-30T18:31:40Z</time>
<desc>lat.=42.912731, lon.=19.654911, Alt.=1435.891602m. Speed=3.816000m/h.</desc>
<speed>1.060000</speed>
</trkpt>
<trkpt lat="42.912769" lon="19.654930">
<ele>1435.266602</ele>
<time>2012-04-30T18:31:45Z</time>
<desc>lat.=42.912769, lon.=19.654930, Alt.=1435.266602m. Speed=2.844000m/h.</desc>
<speed>0.790000</speed>
</trkpt>
<trkpt lat="42.912792" lon="19.654945">
<ele>1434.610352</ele>
<time>2012-04-30T18:31:50Z</time>
<desc>lat.=42.912792, lon.=19.654945, Alt.=1434.610352m. Speed=1.800000m/h.</desc>
<speed>0.500000</speed>
</trkpt>
<trkpt lat="42.912807" lon="19.654966">
<ele>1434.016602</ele>
<time>2012-04-30T18:31:55Z</time>
<desc>lat.=42.912807, lon.=19.654966, Alt.=1434.016602m. Speed=1.692000m/h.</desc>
<speed>0.470000</speed>
</trkpt>
<trkpt lat="42.912827" lon="19.654993">
<ele>1433.266602</ele>
<time>2012-04-30T18:32:00Z</time>
<desc>lat.=42.912827, lon.=19.654993, Alt.=1433.266602m. Speed=1.188000m/h.</desc>
<speed>0.330000</speed>
</trkpt>
<trkpt lat="42.912819" lon="19.654997">
<ele>1432.704102</ele>
<time>2012-04-30T18:32:05Z</time>
<desc>lat.=42.912819, lon.=19.654997, Alt.=1432.704102m. Speed=0.936000m/h.</desc>
<speed>0.260000</speed>
</trkpt>
<trkpt lat="42.912811" lon="19.654987">
<ele>1432.079102</ele>
<time>2012-04-30T18:32:10Z</time>
<desc>lat.=42.912811, lon.=19.654987, Alt.=1432.079102m. Speed=0.612000m/h.</desc>
<speed>0.170000</speed>
</trkpt>
<trkpt lat="42.912823" lon="19.655006">
<ele>1431.454102</ele>
<time>2012-04-30T18:32:15Z</time>
<desc>lat.=42.912823, lon.=19.655006, Alt.=1431.454102m. Speed=4.392000m/h.</desc>
<speed>1.220000</speed>
</trkpt>
<trkpt lat="42.912842" lon="19.655050">
<ele>1430.891602</ele>
<time>2012-04-30T18:32:20Z</time>
<desc>lat.=42.912842, lon.=19.655050, Alt.=1430.891602m. Speed=2.304000m/h.</desc>
<speed>0.640000</speed>
</trkpt>
<trkpt lat="42.912853" lon="19.655073">
<ele>1430.360352</ele>
<time>2012-04-30T18:32:25Z</time>
<desc>lat.=42.912853, lon.=19.655073, Alt.=1430.360352m. Speed=1.620000m/h.</desc>
<speed>0.450000</speed>
</trkpt>
<trkpt lat="42.912853" lon="19.655094">
<ele>1429.860352</ele>
<time>2012-04-30T18:32:30Z</time>
<desc>lat.=42.912853, lon.=19.655094, Alt.=1429.860352m. Speed=0.576000m/h.</desc>
<speed>0.160000</speed>
</trkpt>
<trkpt lat="42.912857" lon="19.655138">
<ele>1429.672852</ele>
<time>2012-04-30T18:32:35Z</time>
<desc>lat.=42.912857, lon.=19.655138, Alt.=1429.672852m. Speed=1.620000m/h.</desc>
<speed>0.450000</speed>
</trkpt>
<trkpt lat="42.913025" lon="19.655334">
<ele>1429.297852</ele>
<time>2012-04-30T18:32:40Z</time>
<desc>lat.=42.913025, lon.=19.655334, Alt.=1429.297852m. Speed=4.824000m/h.</desc>
<speed>1.340000</speed>
</trkpt>
<trkpt lat="42.913090" lon="19.655365">
<ele>1428.204102</ele>
<time>2012-04-30T18:32:45Z</time>
<desc>lat.=42.913090, lon.=19.655365, Alt.=1428.204102m. Speed=2.664000m/h.</desc>
<speed>0.740000</speed>
</trkpt>
<trkpt lat="42.913216" lon="19.655369">
<ele>1426.516602</ele>
<time>2012-04-30T18:32:50Z</time>
<desc>lat.=42.913216, lon.=19.655369, Alt.=1426.516602m. Speed=4.176000m/h.</desc>
<speed>1.160000</speed>
</trkpt>
<trkpt lat="42.913265" lon="19.655352">
<ele>1424.922852</ele>
<time>2012-04-30T18:32:55Z</time>
<desc>lat.=42.913265, lon.=19.655352, Alt.=1424.922852m. Speed=5.940000m/h.</desc>
<speed>1.650000</speed>
</trkpt>
<trkpt lat="42.913326" lon="19.655239">
<ele>1423.735352</ele>
<time>2012-04-30T18:33:00Z</time>
<desc>lat.=42.913326, lon.=19.655239, Alt.=1423.735352m. Speed=6.624000m/h.</desc>
<speed>1.840000</speed>
</trkpt>
<trkpt lat="42.913387" lon="19.655193">
<ele>1422.547852</ele>
<time>2012-04-30T18:33:05Z</time>
<desc>lat.=42.913387, lon.=19.655193, Alt.=1422.547852m. Speed=4.212000m/h.</desc>
<speed>1.170000</speed>
</trkpt>
<trkpt lat="42.913448" lon="19.655128">
<ele>1421.547852</ele>
<time>2012-04-30T18:33:10Z</time>
<desc>lat.=42.913448, lon.=19.655128, Alt.=1421.547852m. Speed=5.184000m/h.</desc>
<speed>1.440000</speed>
</trkpt>
<trkpt lat="42.913506" lon="19.655088">
<ele>1420.485352</ele>
<time>2012-04-30T18:33:15Z</time>
<desc>lat.=42.913506, lon.=19.655088, Alt.=1420.485352m. Speed=4.284000m/h.</desc>
<speed>1.190000</speed>
</trkpt>
<trkpt lat="42.913578" lon="19.655033">
<ele>1419.485352</ele>
<time>2012-04-30T18:33:20Z</time>
<desc>lat.=42.913578, lon.=19.655033, Alt.=1419.485352m. Speed=6.696000m/h.</desc>
<speed>1.860000</speed>
</trkpt>
<trkpt lat="42.913670" lon="19.654943">
<ele>1418.797852</ele>
<time>2012-04-30T18:33:25Z</time>
<desc>lat.=42.913670, lon.=19.654943, Alt.=1418.797852m. Speed=0.468000m/h.</desc>
<speed>0.130000</speed>
</trkpt>
<trkpt lat="42.913673" lon="19.654932">
<ele>1419.297852</ele>
<time>2012-04-30T18:33:30Z</time>
<desc>lat.=42.913673, lon.=19.654932, Alt.=1419.297852m. Speed=0.396000m/h.</desc>
<speed>0.110000</speed>
</trkpt>
<trkpt lat="42.913673" lon="19.654934">
<ele>1419.266602</ele>
<time>2012-04-30T18:33:35Z</time>
<desc>lat.=42.913673, lon.=19.654934, Alt.=1419.266602m. Speed=0.216000m/h.</desc>
<speed>0.060000</speed>
</trkpt>
<trkpt lat="42.913673" lon="19.654932">
<ele>1419.235352</ele>
<time>2012-04-30T18:33:40Z</time>
<desc>lat.=42.913673, lon.=19.654932, Alt.=1419.235352m. Speed=0.288000m/h.</desc>
<speed>0.080000</speed>
</trkpt>
<trkpt lat="42.913670" lon="19.654934">
<ele>1419.204102</ele>
<time>2012-04-30T18:33:45Z</time>
<desc>lat.=42.913670, lon.=19.654934, Alt.=1419.204102m. Speed=0.252000m/h.</desc>
<speed>0.070000</speed>
</trkpt>
<trkpt lat="42.913670" lon="19.654928">
<ele>1419.172852</ele>
<time>2012-04-30T18:33:50Z</time>
<desc>lat.=42.913670, lon.=19.654928, Alt.=1419.172852m. Speed=0.936000m/h.</desc>
<speed>0.260000</speed>
</trkpt>
<trkpt lat="42.913662" lon="19.654922">
<ele>1419.172852</ele>
<time>2012-04-30T18:33:55Z</time>
<desc>lat.=42.913662, lon.=19.654922, Alt.=1419.172852m. Speed=0.360000m/h.</desc>
<speed>0.100000</speed>
</trkpt>
<trkpt lat="42.913658" lon="19.654924">
<ele>1419.204102</ele>
<time>2012-04-30T18:34:00Z</time>
<desc>lat.=42.913658, lon.=19.654924, Alt.=1419.204102m. Speed=0.684000m/h.</desc>
<speed>0.190000</speed>
</trkpt>
<trkpt lat="42.913658" lon="19.654932">
<ele>1419.266602</ele>
<time>2012-04-30T18:34:05Z</time>
<desc>lat.=42.913658, lon.=19.654932, Alt.=1419.266602m. Speed=0.252000m/h.</desc>
<speed>0.070000</speed>
</trkpt>
<trkpt lat="42.913658" lon="19.654940">
<ele>1419.329102</ele>
<time>2012-04-30T18:34:10Z</time>
<desc>lat.=42.913658, lon.=19.654940, Alt.=1419.329102m. Speed=0.468000m/h.</desc>
<speed>0.130000</speed>
</trkpt>
<trkpt lat="42.913658" lon="19.654945">
<ele>1419.454102</ele>
<time>2012-04-30T18:34:15Z</time>
<desc>lat.=42.913658, lon.=19.654945, Alt.=1419.454102m. Speed=0.216000m/h.</desc>
<speed>0.060000</speed>
</trkpt>
<trkpt lat="42.913662" lon="19.654943">
<ele>1419.547852</ele>
<time>2012-04-30T18:34:20Z</time>
<desc>lat.=42.913662, lon.=19.654943, Alt.=1419.547852m. Speed=0.324000m/h.</desc>
<speed>0.090000</speed>
</trkpt>
<trkpt lat="42.913662" lon="19.654938">
<ele>1419.610352</ele>
<time>2012-04-30T18:34:25Z</time>
<desc>lat.=42.913662, lon.=19.654938, Alt.=1419.610352m. Speed=0.468000m/h.</desc>
<speed>0.130000</speed>
</trkpt>
<trkpt lat="42.913662" lon="19.654926">
<ele>1419.610352</ele>
<time>2012-04-30T18:34:30Z</time>
<desc>lat.=42.913662, lon.=19.654926, Alt.=1419.610352m. Speed=0.864000m/h.</desc>
<speed>0.240000</speed>
</trkpt>
<trkpt lat="42.913662" lon="19.654921">
<ele>1419.610352</ele>
<time>2012-04-30T18:34:35Z</time>
<desc>lat.=42.913662, lon.=19.654921, Alt.=1419.610352m. Speed=0.288000m/h.</desc>
<speed>0.080000</speed>
</trkpt>
<trkpt lat="42.913666" lon="19.654917">
<ele>1419.579102</ele>
<time>2012-04-30T18:34:40Z</time>
<desc>lat.=42.913666, lon.=19.654917, Alt.=1419.579102m. Speed=0.252000m/h.</desc>
<speed>0.070000</speed>
</trkpt>
<trkpt lat="42.913666" lon="19.654917">
<ele>1419.516602</ele>
<time>2012-04-30T18:34:45Z</time>
<desc>lat.=42.913666, lon.=19.654917, Alt.=1419.516602m. Speed=1.116000m/h.</desc>
<speed>0.310000</speed>
</trkpt>
<trkpt lat="42.913651" lon="19.654877">
<ele>1419.797852</ele>
<time>2012-04-30T18:34:50Z</time>
<desc>lat.=42.913651, lon.=19.654877, Alt.=1419.797852m. Speed=0.396000m/h.</desc>
<speed>0.110000</speed>
</trkpt>
<trkpt lat="42.913647" lon="19.654879">
<ele>1419.829102</ele>
<time>2012-04-30T18:34:55Z</time>
<desc>lat.=42.913647, lon.=19.654879, Alt.=1419.829102m. Speed=0.288000m/h.</desc>
<speed>0.080000</speed>
</trkpt>
<trkpt lat="42.913647" lon="19.654879">
<ele>1419.891602</ele>
<time>2012-04-30T18:35:00Z</time>
<desc>lat.=42.913647, lon.=19.654879, Alt.=1419.891602m. Speed=0.540000m/h.</desc>
<speed>0.150000</speed>
</trkpt>
<trkpt lat="42.913643" lon="19.654875">
<ele>1419.860352</ele>
<time>2012-04-30T18:35:05Z</time>
<desc>lat.=42.913643, lon.=19.654875, Alt.=1419.860352m. Speed=0.324000m/h.</desc>
<speed>0.090000</speed>
</trkpt>
<trkpt lat="42.913643" lon="19.654873">
<ele>1419.860352</ele>
<time>2012-04-30T18:35:10Z</time>
<desc>lat.=42.913643, lon.=19.654873, Alt.=1419.860352m. Speed=0.252000m/h.</desc>
<speed>0.070000</speed>
</trkpt>
<trkpt lat="42.913643" lon="19.654867">
<ele>1419.829102</ele>
<time>2012-04-30T18:35:15Z</time>
<desc>lat.=42.913643, lon.=19.654867, Alt.=1419.829102m. Speed=0.324000m/h.</desc>
<speed>0.090000</speed>
</trkpt>
<trkpt lat="42.913643" lon="19.654863">
<ele>1419.829102</ele>
<time>2012-04-30T18:35:20Z</time>
<desc>lat.=42.913643, lon.=19.654863, Alt.=1419.829102m. Speed=0.180000m/h.</desc>
<speed>0.050000</speed>
</trkpt>
<trkpt lat="42.913643" lon="19.654863">
<ele>1419.829102</ele>
<time>2012-04-30T18:35:25Z</time>
<desc>lat.=42.913643, lon.=19.654863, Alt.=1419.829102m. Speed=0.504000m/h.</desc>
<speed>0.140000</speed>
</trkpt>
<trkpt lat="42.913639" lon="19.654861">
<ele>1419.672852</ele>
<time>2012-04-30T18:35:30Z</time>
<desc>lat.=42.913639, lon.=19.654861, Alt.=1419.672852m. Speed=0.036000m/h.</desc>
<speed>0.010000</speed>
</trkpt>
<trkpt lat="42.913635" lon="19.654860">
<ele>1419.391602</ele>
<time>2012-04-30T18:35:35Z</time>
<desc>lat.=42.913635, lon.=19.654860, Alt.=1419.391602m. Speed=0.432000m/h.</desc>
<speed>0.120000</speed>
</trkpt>
<trkpt lat="42.913631" lon="19.654860">
<ele>1419.079102</ele>
<time>2012-04-30T18:35:40Z</time>
<desc>lat.=42.913631, lon.=19.654860, Alt.=1419.079102m. Speed=0.432000m/h.</desc>
<speed>0.120000</speed>
</trkpt>
<trkpt lat="42.913631" lon="19.654858">
<ele>1418.672852</ele>
<time>2012-04-30T18:35:45Z</time>
<desc>lat.=42.913631, lon.=19.654858, Alt.=1418.672852m. Speed=0.108000m/h.</desc>
<speed>0.030000</speed>
</trkpt>
<trkpt lat="42.913631" lon="19.654856">
<ele>1418.297852</ele>
<time>2012-04-30T18:35:50Z</time>
<desc>lat.=42.913631, lon.=19.654856, Alt.=1418.297852m. Speed=0.612000m/h.</desc>
<speed>0.170000</speed>
</trkpt>
<trkpt lat="42.913628" lon="19.654856">
<ele>1418.016602</ele>
<time>2012-04-30T18:35:55Z</time>
<desc>lat.=42.913628, lon.=19.654856, Alt.=1418.016602m. Speed=0.432000m/h.</desc>
<speed>0.120000</speed>
</trkpt>
<trkpt lat="42.913631" lon="19.654856">
<ele>1417.954102</ele>
<time>2012-04-30T18:36:00Z</time>
<desc>lat.=42.913631, lon.=19.654856, Alt.=1417.954102m. Speed=0.072000m/h.</desc>
<speed>0.020000</speed>
</trkpt>
<trkpt lat="42.913631" lon="19.654856">
<ele>1417.922852</ele>
<time>2012-04-30T18:36:05Z</time>
<desc>lat.=42.913631, lon.=19.654856, Alt.=1417.922852m. Speed=0.036000m/h.</desc>
<speed>0.010000</speed>
</trkpt>
<trkpt lat="42.913631" lon="19.654856">
<ele>1417.891602</ele>
<time>2012-04-30T18:36:10Z</time>
<desc>lat.=42.913631, lon.=19.654856, Alt.=1417.891602m. Speed=0.288000m/h.</desc>
<speed>0.080000</speed>
</trkpt>
<trkpt lat="42.913631" lon="19.654856">
<ele>1417.860352</ele>
<time>2012-04-30T18:36:15Z</time>
<desc>lat.=42.913631, lon.=19.654856, Alt.=1417.860352m. Speed=0.000000m/h.</desc>
<speed>0.000000</speed>
</trkpt>
<trkpt lat="42.913631" lon="19.654854">
<ele>1417.891602</ele>
<time>2012-04-30T18:36:20Z</time>
<desc>lat.=42.913631, lon.=19.654854, Alt.=1417.891602m. Speed=0.036000m/h.</desc>
<speed>0.010000</speed>
</trkpt>
<trkpt lat="42.913631" lon="19.654854">
<ele>1417.891602</ele>
<time>2012-04-30T18:36:25Z</time>
<desc>lat.=42.913631, lon.=19.654854, Alt.=1417.891602m. Speed=0.072000m/h.</desc>
<speed>0.020000</speed>
</trkpt>
<trkpt lat="42.913631" lon="19.654854">
<ele>1417.860352</ele>
<time>2012-04-30T18:36:30Z</time>
<desc>lat.=42.913631, lon.=19.654854, Alt.=1417.860352m. Speed=0.036000m/h.</desc>
<speed>0.010000</speed>
</trkpt>
<trkpt lat="42.913631" lon="19.654854">
<ele>1417.829102</ele>
<time>2012-04-30T18:36:35Z</time>
<desc>lat.=42.913631, lon.=19.654854, Alt.=1417.829102m. Speed=0.072000m/h.</desc>
<speed>0.020000</speed>
</trkpt>
<trkpt lat="42.913631" lon="19.654854">
<ele>1417.860352</ele>
<time>2012-04-30T18:36:40Z</time>
<desc>lat.=42.913631, lon.=19.654854, Alt.=1417.860352m. Speed=0.000000m/h.</desc>
<speed>0.000000</speed>
</trkpt>
<trkpt lat="42.913631" lon="19.654854">
<ele>1417.922852</ele>
<time>2012-04-30T18:36:45Z</time>
<desc>lat.=42.913631, lon.=19.654854, Alt.=1417.922852m. Speed=0.036000m/h.</desc>
<speed>0.010000</speed>
</trkpt>
<trkpt lat="42.913631" lon="19.654854">
<ele>1417.922852</ele>
<time>2012-04-30T18:36:50Z</time>
<desc>lat.=42.913631, lon.=19.654854, Alt.=1417.922852m. Speed=0.036000m/h.</desc>
<speed>0.010000</speed>
</trkpt>
<trkpt lat="42.913631" lon="19.654854">
<ele>1417.954102</ele>
<time>2012-04-30T18:36:55Z</time>
<desc>lat.=42.913631, lon.=19.654854, Alt.=1417.954102m. Speed=0.288000m/h.</desc>
<speed>0.080000</speed>
</trkpt>
<trkpt lat="42.913635" lon="19.654854">
<ele>1417.954102</ele>
<time>2012-04-30T18:37:00Z</time>
<desc>lat.=42.913635, lon.=19.654854, Alt.=1417.954102m. Speed=0.648000m/h.</desc>
<speed>0.180000</speed>
</trkpt>
<trkpt lat="42.913666" lon="19.654835">
<ele>1419.016602</ele>
<time>2012-04-30T18:37:05Z</time>
<desc>lat.=42.913666, lon.=19.654835, Alt.=1419.016602m. Speed=3.276000m/h.</desc>
<speed>0.910000</speed>
</trkpt>
<trkpt lat="42.913738" lon="19.654800">
<ele>1417.360352</ele>
<time>2012-04-30T18:37:10Z</time>
<desc>lat.=42.913738, lon.=19.654800, Alt.=1417.360352m. Speed=3.492000m/h.</desc>
<speed>0.970000</speed>
</trkpt>
<trkpt lat="42.913803" lon="19.654751">
<ele>1416.547852</ele>
<time>2012-04-30T18:37:15Z</time>
<desc>lat.=42.913803, lon.=19.654751, Alt.=1416.547852m. Speed=2.160000m/h.</desc>
<speed>0.600000</speed>
</trkpt>
<trkpt lat="42.913841" lon="19.654720">
<ele>1416.360352</ele>
<time>2012-04-30T18:37:20Z</time>
<desc>lat.=42.913841, lon.=19.654720, Alt.=1416.360352m. Speed=1.620000m/h.</desc>
<speed>0.450000</speed>
</trkpt>
<trkpt lat="42.913853" lon="19.654684">
<ele>1416.047852</ele>
<time>2012-04-30T18:37:25Z</time>
<desc>lat.=42.913853, lon.=19.654684, Alt.=1416.047852m. Speed=1.008000m/h.</desc>
<speed>0.280000</speed>
</trkpt>
<trkpt lat="42.913857" lon="19.654671">
<ele>1415.922852</ele>
<time>2012-04-30T18:37:30Z</time>
<desc>lat.=42.913857, lon.=19.654671, Alt.=1415.922852m. Speed=0.576000m/h.</desc>
<speed>0.160000</speed>
</trkpt>
<trkpt lat="42.913872" lon="19.654636">
<ele>1416.047852</ele>
<time>2012-04-30T18:37:35Z</time>
<desc>lat.=42.913872, lon.=19.654636, Alt.=1416.047852m. Speed=1.368000m/h.</desc>
<speed>0.380000</speed>
</trkpt>
<trkpt lat="42.913914" lon="19.654598">
<ele>1416.172852</ele>
<time>2012-04-30T18:37:40Z</time>
<desc>lat.=42.913914, lon.=19.654598, Alt.=1416.172852m. Speed=2.340000m/h.</desc>
<speed>0.650000</speed>
</trkpt>
<trkpt lat="42.913937" lon="19.654543">
<ele>1415.797852</ele>
<time>2012-04-30T18:37:45Z</time>
<desc>lat.=42.913937, lon.=19.654543, Alt.=1415.797852m. Speed=1.980000m/h.</desc>
<speed>0.550000</speed>
</trkpt>
<trkpt lat="42.913933" lon="19.654535">
<ele>1415.985352</ele>
<time>2012-04-30T18:37:50Z</time>
<desc>lat.=42.913933, lon.=19.654535, Alt.=1415.985352m. Speed=0.612000m/h.</desc>
<speed>0.170000</speed>
</trkpt>
<trkpt lat="42.913933" lon="19.654533">
<ele>1416.172852</ele>
<time>2012-04-30T18:37:55Z</time>
<desc>lat.=42.913933, lon.=19.654533, Alt.=1416.172852m. Speed=0.540000m/h.</desc>
<speed>0.150000</speed>
</trkpt>
<trkpt lat="42.913933" lon="19.654503">
<ele>1416.266602</ele>
<time>2012-04-30T18:38:00Z</time>
<desc>lat.=42.913933, lon.=19.654503, Alt.=1416.266602m. Speed=1.260000m/h.</desc>
<speed>0.350000</speed>
</trkpt>
<trkpt lat="42.913933" lon="19.654472">
<ele>1416.204102</ele>
<time>2012-04-30T18:38:05Z</time>
<desc>lat.=42.913933, lon.=19.654472, Alt.=1416.204102m. Speed=0.756000m/h.</desc>
<speed>0.210000</speed>
</trkpt>
<trkpt lat="42.913940" lon="19.654459">
<ele>1416.172852</ele>
<time>2012-04-30T18:38:10Z</time>
<desc>lat.=42.913940, lon.=19.654459, Alt.=1416.172852m. Speed=0.432000m/h.</desc>
<speed>0.120000</speed>
</trkpt>
<trkpt lat="42.913940" lon="19.654459">
<ele>1416.172852</ele>
<time>2012-04-30T18:38:15Z</time>
<desc>lat.=42.913940, lon.=19.654459, Alt.=1416.172852m. Speed=1.116000m/h.</desc>
<speed>0.310000</speed>
</trkpt>
<trkpt lat="42.913921" lon="19.654461">
<ele>1415.579102</ele>
<time>2012-04-30T18:38:20Z</time>
<desc>lat.=42.913921, lon.=19.654461, Alt.=1415.579102m. Speed=0.396000m/h.</desc>
<speed>0.110000</speed>
</trkpt>
<trkpt lat="42.913933" lon="19.654463">
<ele>1415.641602</ele>
<time>2012-04-30T18:38:25Z</time>
<desc>lat.=42.913933, lon.=19.654463, Alt.=1415.641602m. Speed=1.080000m/h.</desc>
<speed>0.300000</speed>
</trkpt>
<trkpt lat="42.913956" lon="19.654442">
<ele>1415.766602</ele>
<time>2012-04-30T18:38:30Z</time>
<desc>lat.=42.913956, lon.=19.654442, Alt.=1415.766602m. Speed=1.152000m/h.</desc>
<speed>0.320000</speed>
</trkpt>
<trkpt lat="42.913990" lon="19.654442">
<ele>1415.360352</ele>
<time>2012-04-30T18:38:35Z</time>
<desc>lat.=42.913990, lon.=19.654442, Alt.=1415.360352m. Speed=2.160000m/h.</desc>
<speed>0.600000</speed>
</trkpt>
<trkpt lat="42.914009" lon="19.654413">
<ele>1413.454102</ele>
<time>2012-04-30T18:38:40Z</time>
<desc>lat.=42.914009, lon.=19.654413, Alt.=1413.454102m. Speed=1.620000m/h.</desc>
<speed>0.450000</speed>
</trkpt>
<trkpt lat="42.914021" lon="19.654385">
<ele>1413.391602</ele>
<time>2012-04-30T18:38:45Z</time>
<desc>lat.=42.914021, lon.=19.654385, Alt.=1413.391602m. Speed=0.828000m/h.</desc>
<speed>0.230000</speed>
</trkpt>
<trkpt lat="42.914021" lon="19.654352">
<ele>1413.204102</ele>
<time>2012-04-30T18:38:50Z</time>
<desc>lat.=42.914021, lon.=19.654352, Alt.=1413.204102m. Speed=0.720000m/h.</desc>
<speed>0.200000</speed>
</trkpt>
<trkpt lat="42.914036" lon="19.654331">
<ele>1413.079102</ele>
<time>2012-04-30T18:38:55Z</time>
<desc>lat.=42.914036, lon.=19.654331, Alt.=1413.079102m. Speed=0.144000m/h.</desc>
<speed>0.040000</speed>
</trkpt>
<trkpt lat="42.914047" lon="19.654339">
<ele>1412.829102</ele>
<time>2012-04-30T18:39:00Z</time>
<desc>lat.=42.914047, lon.=19.654339, Alt.=1412.829102m. Speed=0.684000m/h.</desc>
<speed>0.190000</speed>
</trkpt>
<trkpt lat="42.914051" lon="19.654337">
<ele>1412.672852</ele>
<time>2012-04-30T18:39:05Z</time>
<desc>lat.=42.914051, lon.=19.654337, Alt.=1412.672852m. Speed=0.756000m/h.</desc>
<speed>0.210000</speed>
</trkpt>
<trkpt lat="42.914059" lon="19.654333">
<ele>1412.547852</ele>
<time>2012-04-30T18:39:10Z</time>
<desc>lat.=42.914059, lon.=19.654333, Alt.=1412.547852m. Speed=0.360000m/h.</desc>
<speed>0.100000</speed>
</trkpt>
<trkpt lat="42.914066" lon="19.654329">
<ele>1412.516602</ele>
<time>2012-04-30T18:39:15Z</time>
<desc>lat.=42.914066, lon.=19.654329, Alt.=1412.516602m. Speed=1.116000m/h.</desc>
<speed>0.310000</speed>
</trkpt>
<trkpt lat="42.914143" lon="19.654381">
<ele>1411.704102</ele>
<time>2012-04-30T18:39:20Z</time>
<desc>lat.=42.914143, lon.=19.654381, Alt.=1411.704102m. Speed=2.556000m/h.</desc>
<speed>0.710000</speed>
</trkpt>
<trkpt lat="42.914188" lon="19.654375">
<ele>1410.766602</ele>
<time>2012-04-30T18:39:25Z</time>
<desc>lat.=42.914188, lon.=19.654375, Alt.=1410.766602m. Speed=2.628000m/h.</desc>
<speed>0.730000</speed>
</trkpt>
<trkpt lat="42.914150" lon="19.654354">
<ele>1410.954102</ele>
<time>2012-04-30T18:39:30Z</time>
<desc>lat.=42.914150, lon.=19.654354, Alt.=1410.954102m. Speed=0.972000m/h.</desc>
<speed>0.270000</speed>
</trkpt>
<trkpt lat="42.914154" lon="19.654316">
<ele>1411.079102</ele>
<time>2012-04-30T18:39:35Z</time>
<desc>lat.=42.914154, lon.=19.654316, Alt.=1411.079102m. Speed=2.088000m/h.</desc>
<speed>0.580000</speed>
</trkpt>
<trkpt lat="42.914192" lon="19.654295">
<ele>1411.172852</ele>
<time>2012-04-30T18:39:40Z</time>
<desc>lat.=42.914192, lon.=19.654295, Alt.=1411.172852m. Speed=2.016000m/h.</desc>
<speed>0.560000</speed>
</trkpt>
<trkpt lat="42.914219" lon="19.654179">
<ele>1409.766602</ele>
<time>2012-04-30T18:39:45Z</time>
<desc>lat.=42.914219, lon.=19.654179, Alt.=1409.766602m. Speed=6.012000m/h.</desc>
<speed>1.670000</speed>
</trkpt>
<trkpt lat="42.914253" lon="19.654089">
<ele>1409.016602</ele>
<time>2012-04-30T18:39:50Z</time>
<desc>lat.=42.914253, lon.=19.654089, Alt.=1409.016602m. Speed=1.944000m/h.</desc>
<speed>0.540000</speed>
</trkpt>
<trkpt lat="42.914303" lon="19.654022">
<ele>1409.422852</ele>
<time>2012-04-30T18:39:55Z</time>
<desc>lat.=42.914303, lon.=19.654022, Alt.=1409.422852m. Speed=5.508000m/h.</desc>
<speed>1.530000</speed>
</trkpt>
<trkpt lat="42.914356" lon="19.653900">
<ele>1409.610352</ele>
<time>2012-04-30T18:40:00Z</time>
<desc>lat.=42.914356, lon.=19.653900, Alt.=1409.610352m. Speed=4.752000m/h.</desc>
<speed>1.320000</speed>
</trkpt>
<trkpt lat="42.914433" lon="19.653891">
<ele>1410.266602</ele>
<time>2012-04-30T18:40:05Z</time>
<desc>lat.=42.914433, lon.=19.653891, Alt.=1410.266602m. Speed=4.644000m/h.</desc>
<speed>1.290000</speed>
</trkpt>
<trkpt lat="42.914494" lon="19.653788">
<ele>1412.610352</ele>
<time>2012-04-30T18:40:10Z</time>
<desc>lat.=42.914494, lon.=19.653788, Alt.=1412.610352m. Speed=6.660000m/h.</desc>
<speed>1.850000</speed>
</trkpt>
<trkpt lat="42.914551" lon="19.653700">
<ele>1412.922852</ele>
<time>2012-04-30T18:40:15Z</time>
<desc>lat.=42.914551, lon.=19.653700, Alt.=1412.922852m. Speed=6.156000m/h.</desc>
<speed>1.710000</speed>
</trkpt>
<trkpt lat="42.914608" lon="19.653599">
<ele>1413.485352</ele>
<time>2012-04-30T18:40:20Z</time>
<desc>lat.=42.914608, lon.=19.653599, Alt.=1413.485352m. Speed=7.164000m/h.</desc>
<speed>1.990000</speed>
</trkpt>
<trkpt lat="42.914658" lon="19.653490">
<ele>1413.204102</ele>
<time>2012-04-30T18:40:25Z</time>
<desc>lat.=42.914658, lon.=19.653490, Alt.=1413.204102m. Speed=7.272000m/h.</desc>
<speed>2.020000</speed>
</trkpt>
<trkpt lat="42.914707" lon="19.653353">
<ele>1412.329102</ele>
<time>2012-04-30T18:40:30Z</time>
<desc>lat.=42.914707, lon.=19.653353, Alt.=1412.329102m. Speed=6.840000m/h.</desc>
<speed>1.900000</speed>
</trkpt>
<trkpt lat="42.914803" lon="19.653221">
<ele>1409.922852</ele>
<time>2012-04-30T18:40:35Z</time>
<desc>lat.=42.914803, lon.=19.653221, Alt.=1409.922852m. Speed=6.228000m/h.</desc>
<speed>1.730000</speed>
</trkpt>
<trkpt lat="42.914890" lon="19.653105">
<ele>1407.829102</ele>
<time>2012-04-30T18:40:40Z</time>
<desc>lat.=42.914890, lon.=19.653105, Alt.=1407.829102m. Speed=8.352000m/h.</desc>
<speed>2.320000</speed>
</trkpt>
<trkpt lat="42.914944" lon="19.652950">
<ele>1405.641602</ele>
<time>2012-04-30T18:40:45Z</time>
<desc>lat.=42.914944, lon.=19.652950, Alt.=1405.641602m. Speed=6.048000m/h.</desc>
<speed>1.680000</speed>
</trkpt>
<trkpt lat="42.915031" lon="19.652855">
<ele>1403.891602</ele>
<time>2012-04-30T18:40:50Z</time>
<desc>lat.=42.915031, lon.=19.652855, Alt.=1403.891602m. Speed=7.272000m/h.</desc>
<speed>2.020000</speed>
</trkpt>
<trkpt lat="42.915127" lon="19.652763">
<ele>1400.735352</ele>
<time>2012-04-30T18:40:55Z</time>
<desc>lat.=42.915127, lon.=19.652763, Alt.=1400.735352m. Speed=4.968000m/h.</desc>
<speed>1.380000</speed>
</trkpt>
<trkpt lat="42.915207" lon="19.652725">
<ele>1397.860352</ele>
<time>2012-04-30T18:41:00Z</time>
<desc>lat.=42.915207, lon.=19.652725, Alt.=1397.860352m. Speed=1.080000m/h.</desc>
<speed>0.300000</speed>
</trkpt>
<trkpt lat="42.915257" lon="19.652702">
<ele>1395.954102</ele>
<time>2012-04-30T18:41:05Z</time>
<desc>lat.=42.915257, lon.=19.652702, Alt.=1395.954102m. Speed=4.284000m/h.</desc>
<speed>1.190000</speed>
</trkpt>
<trkpt lat="42.915306" lon="19.652674">
<ele>1392.204102</ele>
<time>2012-04-30T18:41:10Z</time>
<desc>lat.=42.915306, lon.=19.652674, Alt.=1392.204102m. Speed=4.068000m/h.</desc>
<speed>1.130000</speed>
</trkpt>
<trkpt lat="42.915356" lon="19.652555">
<ele>1387.235352</ele>
<time>2012-04-30T18:41:15Z</time>
<desc>lat.=42.915356, lon.=19.652555, Alt.=1387.235352m. Speed=6.912000m/h.</desc>
<speed>1.920000</speed>
</trkpt>
<trkpt lat="42.915382" lon="19.652414">
<ele>1384.735352</ele>
<time>2012-04-30T18:41:20Z</time>
<desc>lat.=42.915382, lon.=19.652414, Alt.=1384.735352m. Speed=7.596000m/h.</desc>
<speed>2.110000</speed>
</trkpt>
<trkpt lat="42.915440" lon="19.652233">
<ele>1379.141602</ele>
<time>2012-04-30T18:41:25Z</time>
<desc>lat.=42.915440, lon.=19.652233, Alt.=1379.141602m. Speed=7.272000m/h.</desc>
<speed>2.020000</speed>
</trkpt>
<trkpt lat="42.915493" lon="19.652117">
<ele>1377.266602</ele>
<time>2012-04-30T18:41:30Z</time>
<desc>lat.=42.915493, lon.=19.652117, Alt.=1377.266602m. Speed=6.552000m/h.</desc>
<speed>1.820000</speed>
</trkpt>
<trkpt lat="42.915562" lon="19.652000">
<ele>1370.329102</ele>
<time>2012-04-30T18:41:35Z</time>
<desc>lat.=42.915562, lon.=19.652000, Alt.=1370.329102m. Speed=6.660000m/h.</desc>
<speed>1.850000</speed>
</trkpt>
<trkpt lat="42.915573" lon="19.651958">
<ele>1368.110352</ele>
<time>2012-04-30T18:41:40Z</time>
<desc>lat.=42.915573, lon.=19.651958, Alt.=1368.110352m. Speed=0.576000m/h.</desc>
<speed>0.160000</speed>
</trkpt>
<trkpt lat="42.915577" lon="19.651962">
<ele>1367.735352</ele>
<time>2012-04-30T18:41:45Z</time>
<desc>lat.=42.915577, lon.=19.651962, Alt.=1367.735352m. Speed=0.108000m/h.</desc>
<speed>0.030000</speed>
</trkpt>
<trkpt lat="42.915573" lon="19.651960">
<ele>1367.547852</ele>
<time>2012-04-30T18:41:50Z</time>
<desc>lat.=42.915573, lon.=19.651960, Alt.=1367.547852m. Speed=0.144000m/h.</desc>
<speed>0.040000</speed>
</trkpt>
<trkpt lat="42.915573" lon="19.651960">
<ele>1367.547852</ele>
<time>2012-04-30T18:41:55Z</time>
<desc>lat.=42.915573, lon.=19.651960, Alt.=1367.547852m. Speed=0.216000m/h.</desc>
<speed>0.060000</speed>
</trkpt>
<trkpt lat="42.915573" lon="19.651960">
<ele>1367.547852</ele>
<time>2012-04-30T18:42:00Z</time>
<desc>lat.=42.915573, lon.=19.651960, Alt.=1367.547852m. Speed=0.144000m/h.</desc>
<speed>0.040000</speed>
</trkpt>
<trkpt lat="42.915573" lon="19.651960">
<ele>1367.516602</ele>
<time>2012-04-30T18:42:05Z</time>
<desc>lat.=42.915573, lon.=19.651960, Alt.=1367.516602m. Speed=0.108000m/h.</desc>
<speed>0.030000</speed>
</trkpt>
<trkpt lat="42.915569" lon="19.651960">
<ele>1367.547852</ele>
<time>2012-04-30T18:42:10Z</time>
<desc>lat.=42.915569, lon.=19.651960, Alt.=1367.547852m. Speed=0.000000m/h.</desc>
<speed>0.000000</speed>
</trkpt>
<trkpt lat="42.915573" lon="19.651962">
<ele>1367.610352</ele>
<time>2012-04-30T18:42:15Z</time>
<desc>lat.=42.915573, lon.=19.651962, Alt.=1367.610352m. Speed=0.144000m/h.</desc>
<speed>0.040000</speed>
</trkpt>
<trkpt lat="42.915573" lon="19.651962">
<ele>1367.641602</ele>
<time>2012-04-30T18:42:20Z</time>
<desc>lat.=42.915573, lon.=19.651962, Alt.=1367.641602m. Speed=0.144000m/h.</desc>
<speed>0.040000</speed>
</trkpt>
<trkpt lat="42.915573" lon="19.651964">
<ele>1367.641602</ele>
<time>2012-04-30T18:42:25Z</time>
<desc>lat.=42.915573, lon.=19.651964, Alt.=1367.641602m. Speed=0.072000m/h.</desc>
<speed>0.020000</speed>
</trkpt>
<trkpt lat="42.915573" lon="19.651964">
<ele>1367.641602</ele>
<time>2012-04-30T18:42:30Z</time>
<desc>lat.=42.915573, lon.=19.651964, Alt.=1367.641602m. Speed=0.036000m/h.</desc>
<speed>0.010000</speed>
</trkpt>
<trkpt lat="42.915573" lon="19.651964">
<ele>1367.610352</ele>
<time>2012-04-30T18:42:35Z</time>
<desc>lat.=42.915573, lon.=19.651964, Alt.=1367.610352m. Speed=0.072000m/h.</desc>
<speed>0.020000</speed>
</trkpt>
<trkpt lat="42.915573" lon="19.651964">
<ele>1367.547852</ele>
<time>2012-04-30T18:42:40Z</time>
<desc>lat.=42.915573, lon.=19.651964, Alt.=1367.547852m. Speed=0.108000m/h.</desc>
<speed>0.030000</speed>
</trkpt>
<trkpt lat="42.915573" lon="19.651964">
<ele>1367.485352</ele>
<time>2012-04-30T18:42:45Z</time>
<desc>lat.=42.915573, lon.=19.651964, Alt.=1367.485352m. Speed=0.144000m/h.</desc>
<speed>0.040000</speed>
</trkpt>
<trkpt lat="42.915573" lon="19.651964">
<ele>1367.454102</ele>
<time>2012-04-30T18:42:50Z</time>
<desc>lat.=42.915573, lon.=19.651964, Alt.=1367.454102m. Speed=0.144000m/h.</desc>
<speed>0.040000</speed>
</trkpt>
<trkpt lat="42.915611" lon="19.651917">
<ele>1366.704102</ele>
<time>2012-04-30T18:42:55Z</time>
<desc>lat.=42.915611, lon.=19.651917, Alt.=1366.704102m. Speed=6.948000m/h.</desc>
<speed>1.930000</speed>
</trkpt>
<trkpt lat="42.915665" lon="19.651794">
<ele>1363.641602</ele>
<time>2012-04-30T18:43:00Z</time>
<desc>lat.=42.915665, lon.=19.651794, Alt.=1363.641602m. Speed=6.372000m/h.</desc>
<speed>1.770000</speed>
</trkpt>
<trkpt lat="42.915710" lon="19.651701">
<ele>1359.579102</ele>
<time>2012-04-30T18:43:05Z</time>
<desc>lat.=42.915710, lon.=19.651701, Alt.=1359.579102m. Speed=6.048000m/h.</desc>
<speed>1.680000</speed>
</trkpt>
<trkpt lat="42.915730" lon="19.651598">
<ele>1355.954102</ele>
<time>2012-04-30T18:43:10Z</time>
<desc>lat.=42.915730, lon.=19.651598, Alt.=1355.954102m. Speed=3.564000m/h.</desc>
<speed>0.990000</speed>
</trkpt>
<trkpt lat="42.915726" lon="19.651443">
<ele>1353.235352</ele>
<time>2012-04-30T18:43:15Z</time>
<desc>lat.=42.915726, lon.=19.651443, Alt.=1353.235352m. Speed=5.148000m/h.</desc>
<speed>1.430000</speed>
</trkpt>
<trkpt lat="42.915775" lon="19.651350">
<ele>1350.079102</ele>
<time>2012-04-30T18:43:20Z</time>
<desc>lat.=42.915775, lon.=19.651350, Alt.=1350.079102m. Speed=7.308000m/h.</desc>
<speed>2.030000</speed>
</trkpt>
<trkpt lat="42.915840" lon="19.651272">
<ele>1347.579102</ele>
<time>2012-04-30T18:43:25Z</time>
<desc>lat.=42.915840, lon.=19.651272, Alt.=1347.579102m. Speed=7.056000m/h.</desc>
<speed>1.960000</speed>
</trkpt>
<trkpt lat="42.915909" lon="19.651171">
<ele>1347.391602</ele>
<time>2012-04-30T18:43:30Z</time>
<desc>lat.=42.915909, lon.=19.651171, Alt.=1347.391602m. Speed=6.120000m/h.</desc>
<speed>1.700000</speed>
</trkpt>
<trkpt lat="42.915958" lon="19.651062">
<ele>1345.172852</ele>
<time>2012-04-30T18:43:35Z</time>
<desc>lat.=42.915958, lon.=19.651062, Alt.=1345.172852m. Speed=7.560000m/h.</desc>
<speed>2.100000</speed>
</trkpt>
<trkpt lat="42.916019" lon="19.650988">
<ele>1343.704102</ele>
<time>2012-04-30T18:43:40Z</time>
<desc>lat.=42.916019, lon.=19.650988, Alt.=1343.704102m. Speed=6.840000m/h.</desc>
<speed>1.900000</speed>
</trkpt>
<trkpt lat="42.916100" lon="19.650881">
<ele>1345.266602</ele>
<time>2012-04-30T18:43:45Z</time>
<desc>lat.=42.916100, lon.=19.650881, Alt.=1345.266602m. Speed=7.956000m/h.</desc>
<speed>2.210000</speed>
</trkpt>
<trkpt lat="42.916161" lon="19.650778">
<ele>1345.016602</ele>
<time>2012-04-30T18:43:50Z</time>
<desc>lat.=42.916161, lon.=19.650778, Alt.=1345.016602m. Speed=7.452000m/h.</desc>
<speed>2.070000</speed>
</trkpt>
<trkpt lat="42.916241" lon="19.650692">
<ele>1343.297852</ele>
<time>2012-04-30T18:43:55Z</time>
<desc>lat.=42.916241, lon.=19.650692, Alt.=1343.297852m. Speed=9.216000m/h.</desc>
<speed>2.560000</speed>
</trkpt>
<trkpt lat="42.916309" lon="19.650536">
<ele>1340.047852</ele>
<time>2012-04-30T18:44:00Z</time>
<desc>lat.=42.916309, lon.=19.650536, Alt.=1340.047852m. Speed=8.460000m/h.</desc>
<speed>2.350000</speed>
</trkpt>
<trkpt lat="42.916374" lon="19.650421">
<ele>1337.579102</ele>
<time>2012-04-30T18:44:05Z</time>
<desc>lat.=42.916374, lon.=19.650421, Alt.=1337.579102m. Speed=3.132000m/h.</desc>
<speed>0.870000</speed>
</trkpt>
<trkpt lat="42.916348" lon="19.650408">
<ele>1337.485352</ele>
<time>2012-04-30T18:44:10Z</time>
<desc>lat.=42.916348, lon.=19.650408, Alt.=1337.485352m. Speed=0.900000m/h.</desc>
<speed>0.250000</speed>
</trkpt>
<trkpt lat="42.916328" lon="19.650375">
<ele>1338.329102</ele>
<time>2012-04-30T18:44:15Z</time>
<desc>lat.=42.916328, lon.=19.650375, Alt.=1338.329102m. Speed=0.972000m/h.</desc>
<speed>0.270000</speed>
</trkpt>
<trkpt lat="42.916309" lon="19.650347">
<ele>1338.891602</ele>
<time>2012-04-30T18:44:20Z</time>
<desc>lat.=42.916309, lon.=19.650347, Alt.=1338.891602m. Speed=1.404000m/h.</desc>
<speed>0.390000</speed>
</trkpt>
<trkpt lat="42.916290" lon="19.650297">
<ele>1339.235352</ele>
<time>2012-04-30T18:44:25Z</time>
<desc>lat.=42.916290, lon.=19.650297, Alt.=1339.235352m. Speed=1.800000m/h.</desc>
<speed>0.500000</speed>
</trkpt>
<trkpt lat="42.916279" lon="19.650291">
<ele>1340.922852</ele>
<time>2012-04-30T18:44:30Z</time>
<desc>lat.=42.916279, lon.=19.650291, Alt.=1340.922852m. Speed=0.180000m/h.</desc>
<speed>0.050000</speed>
</trkpt>
<trkpt lat="42.916279" lon="19.650291">
<ele>1342.141602</ele>
<time>2012-04-30T18:44:35Z</time>
<desc>lat.=42.916279, lon.=19.650291, Alt.=1342.141602m. Speed=0.144000m/h.</desc>
<speed>0.040000</speed>
</trkpt>
<trkpt lat="42.916279" lon="19.650291">
<ele>1342.547852</ele>
<time>2012-04-30T18:44:40Z</time>
<desc>lat.=42.916279, lon.=19.650291, Alt.=1342.547852m. Speed=0.756000m/h.</desc>
<speed>0.210000</speed>
</trkpt>
<trkpt lat="42.916298" lon="19.650303">
<ele>1341.860352</ele>
<time>2012-04-30T18:44:45Z</time>
<desc>lat.=42.916298, lon.=19.650303, Alt.=1341.860352m. Speed=0.864000m/h.</desc>
<speed>0.240000</speed>
</trkpt>
<trkpt lat="42.916328" lon="19.650274">
<ele>1341.391602</ele>
<time>2012-04-30T18:44:50Z</time>
<desc>lat.=42.916328, lon.=19.650274, Alt.=1341.391602m. Speed=4.104000m/h.</desc>
<speed>1.140000</speed>
</trkpt>
<trkpt lat="42.916409" lon="19.650274">
<ele>1338.672852</ele>
<time>2012-04-30T18:44:55Z</time>
<desc>lat.=42.916409, lon.=19.650274, Alt.=1338.672852m. Speed=5.040000m/h.</desc>
<speed>1.400000</speed>
</trkpt>
<trkpt lat="42.916443" lon="19.650183">
<ele>1338.579102</ele>
<time>2012-04-30T18:45:00Z</time>
<desc>lat.=42.916443, lon.=19.650183, Alt.=1338.579102m. Speed=4.896000m/h.</desc>
<speed>1.360000</speed>
</trkpt>
<trkpt lat="42.916470" lon="19.650099">
<ele>1337.797852</ele>
<time>2012-04-30T18:45:05Z</time>
<desc>lat.=42.916470, lon.=19.650099, Alt.=1337.797852m. Speed=4.212000m/h.</desc>
<speed>1.170000</speed>
</trkpt>
<trkpt lat="42.916489" lon="19.649988">
<ele>1337.485352</ele>
<time>2012-04-30T18:45:10Z</time>
<desc>lat.=42.916489, lon.=19.649988, Alt.=1337.485352m. Speed=5.508000m/h.</desc>
<speed>1.530000</speed>
</trkpt>
<trkpt lat="42.916473" lon="19.649923">
<ele>1338.329102</ele>
<time>2012-04-30T18:45:15Z</time>
<desc>lat.=42.916473, lon.=19.649923, Alt.=1338.329102m. Speed=5.328000m/h.</desc>
<speed>1.480000</speed>
</trkpt>
<trkpt lat="42.916504" lon="19.649815">
<ele>1337.547852</ele>
<time>2012-04-30T18:45:20Z</time>
<desc>lat.=42.916504, lon.=19.649815, Alt.=1337.547852m. Speed=3.636000m/h.</desc>
<speed>1.010000</speed>
</trkpt>
<trkpt lat="42.916553" lon="19.649775">
<ele>1337.610352</ele>
<time>2012-04-30T18:45:25Z</time>
<desc>lat.=42.916553, lon.=19.649775, Alt.=1337.610352m. Speed=4.824000m/h.</desc>
<speed>1.340000</speed>
</trkpt>
<trkpt lat="42.916630" lon="19.649715">
<ele>1337.922852</ele>
<time>2012-04-30T18:45:30Z</time>
<desc>lat.=42.916630, lon.=19.649715, Alt.=1337.922852m. Speed=3.888000m/h.</desc>
<speed>1.080000</speed>
</trkpt>
<trkpt lat="42.916626" lon="19.649683">
<ele>1338.485352</ele>
<time>2012-04-30T18:45:35Z</time>
<desc>lat.=42.916626, lon.=19.649683, Alt.=1338.485352m. Speed=2.772000m/h.</desc>
<speed>0.770000</speed>
</trkpt>
<trkpt lat="42.916637" lon="19.649672">
<ele>1339.422852</ele>
<time>2012-04-30T18:45:40Z</time>
<desc>lat.=42.916637, lon.=19.649672, Alt.=1339.422852m. Speed=6.444000m/h.</desc>
<speed>1.790000</speed>
</trkpt>
<trkpt lat="42.916679" lon="19.649624">
<ele>1340.016602</ele>
<time>2012-04-30T18:45:45Z</time>
<desc>lat.=42.916679, lon.=19.649624, Alt.=1340.016602m. Speed=4.680000m/h.</desc>
<speed>1.300000</speed>
</trkpt>
<trkpt lat="42.916691" lon="19.649509">
<ele>1340.704102</ele>
<time>2012-04-30T18:45:50Z</time>
<desc>lat.=42.916691, lon.=19.649509, Alt.=1340.704102m. Speed=3.960000m/h.</desc>
<speed>1.100000</speed>
</trkpt>
<trkpt lat="42.916729" lon="19.649437">
<ele>1341.297852</ele>
<time>2012-04-30T18:45:55Z</time>
<desc>lat.=42.916729, lon.=19.649437, Alt.=1341.297852m. Speed=2.376000m/h.</desc>
<speed>0.660000</speed>
</trkpt>
<trkpt lat="42.916763" lon="19.649406">
<ele>1341.985352</ele>
<time>2012-04-30T18:46:00Z</time>
<desc>lat.=42.916763, lon.=19.649406, Alt.=1341.985352m. Speed=1.116000m/h.</desc>
<speed>0.310000</speed>
</trkpt>
<trkpt lat="42.916763" lon="19.649368">
<ele>1342.922852</ele>
<time>2012-04-30T18:46:05Z</time>
<desc>lat.=42.916763, lon.=19.649368, Alt.=1342.922852m. Speed=2.268000m/h.</desc>
<speed>0.630000</speed>
</trkpt>
<trkpt lat="42.916790" lon="19.649305">
<ele>1343.829102</ele>
<time>2012-04-30T18:46:10Z</time>
<desc>lat.=42.916790, lon.=19.649305, Alt.=1343.829102m. Speed=2.268000m/h.</desc>
<speed>0.630000</speed>
</trkpt>
<trkpt lat="42.916862" lon="19.649275">
<ele>1344.766602</ele>
<time>2012-04-30T18:46:15Z</time>
<desc>lat.=42.916862, lon.=19.649275, Alt.=1344.766602m. Speed=3.168000m/h.</desc>
<speed>0.880000</speed>
</trkpt>
<trkpt lat="42.916924" lon="19.649256">
<ele>1345.860352</ele>
<time>2012-04-30T18:46:20Z</time>
<desc>lat.=42.916924, lon.=19.649256, Alt.=1345.860352m. Speed=3.240000m/h.</desc>
<speed>0.900000</speed>
</trkpt>
<trkpt lat="42.917007" lon="19.649204">
<ele>1346.454102</ele>
<time>2012-04-30T18:46:25Z</time>
<desc>lat.=42.917007, lon.=19.649204, Alt.=1346.454102m. Speed=4.320000m/h.</desc>
<speed>1.200000</speed>
</trkpt>
<trkpt lat="42.917030" lon="19.649019">
<ele>1347.391602</ele>
<time>2012-04-30T18:46:30Z</time>
<desc>lat.=42.917030, lon.=19.649019, Alt.=1347.391602m. Speed=5.760000m/h.</desc>
<speed>1.600000</speed>
</trkpt>
<trkpt lat="42.917088" lon="19.648949">
<ele>1348.610352</ele>
<time>2012-04-30T18:46:35Z</time>
<desc>lat.=42.917088, lon.=19.648949, Alt.=1348.610352m. Speed=5.148000m/h.</desc>
<speed>1.430000</speed>
</trkpt>
<trkpt lat="42.917152" lon="19.648886">
<ele>1349.579102</ele>
<time>2012-04-30T18:46:40Z</time>
<desc>lat.=42.917152, lon.=19.648886, Alt.=1349.579102m. Speed=6.012000m/h.</desc>
<speed>1.670000</speed>
</trkpt>
<trkpt lat="42.917221" lon="19.648855">
<ele>1350.110352</ele>
<time>2012-04-30T18:46:45Z</time>
<desc>lat.=42.917221, lon.=19.648855, Alt.=1350.110352m. Speed=5.472000m/h.</desc>
<speed>1.520000</speed>
</trkpt>
<trkpt lat="42.917259" lon="19.648771">
<ele>1350.266602</ele>
<time>2012-04-30T18:46:50Z</time>
<desc>lat.=42.917259, lon.=19.648771, Alt.=1350.266602m. Speed=1.548000m/h.</desc>
<speed>0.430000</speed>
</trkpt>
<trkpt lat="42.917301" lon="19.648722">
<ele>1350.172852</ele>
<time>2012-04-30T18:46:55Z</time>
<desc>lat.=42.917301, lon.=19.648722, Alt.=1350.172852m. Speed=6.984000m/h.</desc>
<speed>1.940000</speed>
</trkpt>
<trkpt lat="42.917408" lon="19.648663">
<ele>1347.985352</ele>
<time>2012-04-30T18:47:00Z</time>
<desc>lat.=42.917408, lon.=19.648663, Alt.=1347.985352m. Speed=5.328000m/h.</desc>
<speed>1.480000</speed>
</trkpt>
<trkpt lat="42.917492" lon="19.648561">
<ele>1343.422852</ele>
<time>2012-04-30T18:47:05Z</time>
<desc>lat.=42.917492, lon.=19.648561, Alt.=1343.422852m. Speed=6.264000m/h.</desc>
<speed>1.740000</speed>
</trkpt>
<trkpt lat="42.917568" lon="19.648495">
<ele>1341.547852</ele>
<time>2012-04-30T18:47:10Z</time>
<desc>lat.=42.917568, lon.=19.648495, Alt.=1341.547852m. Speed=4.068000m/h.</desc>
<speed>1.130000</speed>
</trkpt>
<trkpt lat="42.917645" lon="19.648491">
<ele>1340.891602</ele>
<time>2012-04-30T18:47:15Z</time>
<desc>lat.=42.917645, lon.=19.648491, Alt.=1340.891602m. Speed=7.272000m/h.</desc>
<speed>2.020000</speed>
</trkpt>
<trkpt lat="42.917664" lon="19.648493">
<ele>1341.235352</ele>
<time>2012-04-30T18:47:20Z</time>
<desc>lat.=42.917664, lon.=19.648493, Alt.=1341.235352m. Speed=0.180000m/h.</desc>
<speed>0.050000</speed>
</trkpt>
<trkpt lat="42.917656" lon="19.648497">
<ele>1341.829102</ele>
<time>2012-04-30T18:47:25Z</time>
<desc>lat.=42.917656, lon.=19.648497, Alt.=1341.829102m. Speed=0.072000m/h.</desc>
<speed>0.020000</speed>
</trkpt>
<trkpt lat="42.917656" lon="19.648497">
<ele>1341.860352</ele>
<time>2012-04-30T18:47:30Z</time>
<desc>lat.=42.917656, lon.=19.648497, Alt.=1341.860352m. Speed=0.000000m/h.</desc>
<speed>0.000000</speed>
</trkpt>
<trkpt lat="42.917656" lon="19.648499">
<ele>1341.891602</ele>
<time>2012-04-30T18:47:35Z</time>
<desc>lat.=42.917656, lon.=19.648499, Alt.=1341.891602m. Speed=0.036000m/h.</desc>
<speed>0.010000</speed>
</trkpt>
<trkpt lat="42.917660" lon="19.648514">
<ele>1342.360352</ele>
<time>2012-04-30T18:47:40Z</time>
<desc>lat.=42.917660, lon.=19.648514, Alt.=1342.360352m. Speed=0.252000m/h.</desc>
<speed>0.070000</speed>
</trkpt>
<trkpt lat="42.917667" lon="19.648523">
<ele>1342.329102</ele>
<time>2012-04-30T18:47:45Z</time>
<desc>lat.=42.917667, lon.=19.648523, Alt.=1342.329102m. Speed=0.000000m/h.</desc>
<speed>0.000000</speed>
</trkpt>
<trkpt lat="42.917667" lon="19.648523">
<ele>1342.360352</ele>
<time>2012-04-30T18:47:50Z</time>
<desc>lat.=42.917667, lon.=19.648523, Alt.=1342.360352m. Speed=0.036000m/h.</desc>
<speed>0.010000</speed>
</trkpt>
<trkpt lat="42.917671" lon="19.648527">
<ele>1342.047852</ele>
<time>2012-04-30T18:47:55Z</time>
<desc>lat.=42.917671, lon.=19.648527, Alt.=1342.047852m. Speed=2.592000m/h.</desc>
<speed>0.720000</speed>
</trkpt>
<trkpt lat="42.917713" lon="19.648520">
<ele>1341.704102</ele>
<time>2012-04-30T18:48:00Z</time>
<desc>lat.=42.917713, lon.=19.648520, Alt.=1341.704102m. Speed=5.292000m/h.</desc>
<speed>1.470000</speed>
</trkpt>
<trkpt lat="42.917824" lon="19.648472">
<ele>1341.641602</ele>
<time>2012-04-30T18:48:05Z</time>
<desc>lat.=42.917824, lon.=19.648472, Alt.=1341.641602m. Speed=10.512000m/h.</desc>
<speed>2.920000</speed>
</trkpt>
<trkpt lat="42.917915" lon="19.648384">
<ele>1340.735352</ele>
<time>2012-04-30T18:48:10Z</time>
<desc>lat.=42.917915, lon.=19.648384, Alt.=1340.735352m. Speed=4.824000m/h.</desc>
<speed>1.340000</speed>
</trkpt>
<trkpt lat="42.917961" lon="19.648266">
<ele>1340.110352</ele>
<time>2012-04-30T18:48:15Z</time>
<desc>lat.=42.917961, lon.=19.648266, Alt.=1340.110352m. Speed=2.592000m/h.</desc>
<speed>0.720000</speed>
</trkpt>
<trkpt lat="42.918106" lon="19.648197">
<ele>1337.704102</ele>
<time>2012-04-30T18:48:20Z</time>
<desc>lat.=42.918106, lon.=19.648197, Alt.=1337.704102m. Speed=7.560000m/h.</desc>
<speed>2.100000</speed>
</trkpt>
<trkpt lat="42.918217" lon="19.648182">
<ele>1336.172852</ele>
<time>2012-04-30T18:48:25Z</time>
<desc>lat.=42.918217, lon.=19.648182, Alt.=1336.172852m. Speed=8.280000m/h.</desc>
<speed>2.300000</speed>
</trkpt>
<trkpt lat="42.918289" lon="19.648159">
<ele>1333.547852</ele>
<time>2012-04-30T18:48:30Z</time>
<desc>lat.=42.918289, lon.=19.648159, Alt.=1333.547852m. Speed=8.604000m/h.</desc>
<speed>2.390000</speed>
</trkpt>
<trkpt lat="42.918354" lon="19.648119">
<ele>1328.766602</ele>
<time>2012-04-30T18:48:35Z</time>
<desc>lat.=42.918354, lon.=19.648119, Alt.=1328.766602m. Speed=7.056000m/h.</desc>
<speed>1.960000</speed>
</trkpt>
<trkpt lat="42.918442" lon="19.648073">
<ele>1323.235352</ele>
<time>2012-04-30T18:48:40Z</time>
<desc>lat.=42.918442, lon.=19.648073, Alt.=1323.235352m. Speed=5.580000m/h.</desc>
<speed>1.550000</speed>
</trkpt>
<trkpt lat="42.918480" lon="19.647936">
<ele>1320.891602</ele>
<time>2012-04-30T18:48:45Z</time>
<desc>lat.=42.918480, lon.=19.647936, Alt.=1320.891602m. Speed=5.400000m/h.</desc>
<speed>1.500000</speed>
</trkpt>
<trkpt lat="42.918514" lon="19.647917">
<ele>1319.797852</ele>
<time>2012-04-30T18:48:50Z</time>
<desc>lat.=42.918514, lon.=19.647917, Alt.=1319.797852m. Speed=2.628000m/h.</desc>
<speed>0.730000</speed>
</trkpt>
<trkpt lat="42.918560" lon="19.647900">
<ele>1318.610352</ele>
<time>2012-04-30T18:48:55Z</time>
<desc>lat.=42.918560, lon.=19.647900, Alt.=1318.610352m. Speed=5.148000m/h.</desc>
<speed>1.430000</speed>
</trkpt>
<trkpt lat="42.918621" lon="19.647863">
<ele>1317.391602</ele>
<time>2012-04-30T18:49:00Z</time>
<desc>lat.=42.918621, lon.=19.647863, Alt.=1317.391602m. Speed=5.580000m/h.</desc>
<speed>1.550000</speed>
</trkpt>
<trkpt lat="42.918671" lon="19.647850">
<ele>1315.985352</ele>
<time>2012-04-30T18:49:05Z</time>
<desc>lat.=42.918671, lon.=19.647850, Alt.=1315.985352m. Speed=3.348000m/h.</desc>
<speed>0.930000</speed>
</trkpt>
<trkpt lat="42.918705" lon="19.647856">
<ele>1317.266602</ele>
<time>2012-04-30T18:49:10Z</time>
<desc>lat.=42.918705, lon.=19.647856, Alt.=1317.266602m. Speed=3.672000m/h.</desc>
<speed>1.020000</speed>
</trkpt>
<trkpt lat="42.918747" lon="19.647858">
<ele>1320.235352</ele>
<time>2012-04-30T18:49:15Z</time>
<desc>lat.=42.918747, lon.=19.647858, Alt.=1320.235352m. Speed=4.320000m/h.</desc>
<speed>1.200000</speed>
</trkpt>
<trkpt lat="42.918777" lon="19.647820">
<ele>1322.360352</ele>
<time>2012-04-30T18:49:20Z</time>
<desc>lat.=42.918777, lon.=19.647820, Alt.=1322.360352m. Speed=3.600000m/h.</desc>
<speed>1.000000</speed>
</trkpt>
<trkpt lat="42.918812" lon="19.647793">
<ele>1324.141602</ele>
<time>2012-04-30T18:49:25Z</time>
<desc>lat.=42.918812, lon.=19.647793, Alt.=1324.141602m. Speed=3.240000m/h.</desc>
<speed>0.900000</speed>
</trkpt>
<trkpt lat="42.918854" lon="19.647772">
<ele>1325.766602</ele>
<time>2012-04-30T18:49:30Z</time>
<desc>lat.=42.918854, lon.=19.647772, Alt.=1325.766602m. Speed=4.212000m/h.</desc>
<speed>1.170000</speed>
</trkpt>
<trkpt lat="42.918903" lon="19.647758">
<ele>1326.735352</ele>
<time>2012-04-30T18:49:35Z</time>
<desc>lat.=42.918903, lon.=19.647758, Alt.=1326.735352m. Speed=5.004000m/h.</desc>
<speed>1.390000</speed>
</trkpt>
<trkpt lat="42.918922" lon="19.647741">
<ele>1326.922852</ele>
<time>2012-04-30T18:49:40Z</time>
<desc>lat.=42.918922, lon.=19.647741, Alt.=1326.922852m. Speed=0.612000m/h.</desc>
<speed>0.170000</speed>
</trkpt>
<trkpt lat="42.918961" lon="19.647732">
<ele>1326.329102</ele>
<time>2012-04-30T18:49:45Z</time>
<desc>lat.=42.918961, lon.=19.647732, Alt.=1326.329102m. Speed=1.944000m/h.</desc>
<speed>0.540000</speed>
</trkpt>
<trkpt lat="42.919018" lon="19.647732">
<ele>1326.172852</ele>
<time>2012-04-30T18:49:50Z</time>
<desc>lat.=42.919018, lon.=19.647732, Alt.=1326.172852m. Speed=2.484000m/h.</desc>
<speed>0.690000</speed>
</trkpt>
<trkpt lat="42.919083" lon="19.647734">
<ele>1326.172852</ele>
<time>2012-04-30T18:49:55Z</time>
<desc>lat.=42.919083, lon.=19.647734, Alt.=1326.172852m. Speed=3.348000m/h.</desc>
<speed>0.930000</speed>
</trkpt>
<trkpt lat="42.919140" lon="19.647747">
<ele>1325.860352</ele>
<time>2012-04-30T18:50:00Z</time>
<desc>lat.=42.919140, lon.=19.647747, Alt.=1325.860352m. Speed=3.024000m/h.</desc>
<speed>0.840000</speed>
</trkpt>
<trkpt lat="42.919186" lon="19.647713">
<ele>1325.672852</ele>
<time>2012-04-30T18:50:05Z</time>
<desc>lat.=42.919186, lon.=19.647713, Alt.=1325.672852m. Speed=3.636000m/h.</desc>
<speed>1.010000</speed>
</trkpt>
<trkpt lat="42.919197" lon="19.647614">
<ele>1325.641602</ele>
<time>2012-04-30T18:50:10Z</time>
<desc>lat.=42.919197, lon.=19.647614, Alt.=1325.641602m. Speed=3.384000m/h.</desc>
<speed>0.940000</speed>
</trkpt>
<trkpt lat="42.919235" lon="19.647602">
<ele>1325.954102</ele>
<time>2012-04-30T18:50:15Z</time>
<desc>lat.=42.919235, lon.=19.647602, Alt.=1325.954102m. Speed=2.124000m/h.</desc>
<speed>0.590000</speed>
</trkpt>
<trkpt lat="42.919258" lon="19.647594">
<ele>1325.985352</ele>
<time>2012-04-30T18:50:20Z</time>
<desc>lat.=42.919258, lon.=19.647594, Alt.=1325.985352m. Speed=1.008000m/h.</desc>
<speed>0.280000</speed>
</trkpt>
<trkpt lat="42.919281" lon="19.647587">
<ele>1325.547852</ele>
<time>2012-04-30T18:50:25Z</time>
<desc>lat.=42.919281, lon.=19.647587, Alt.=1325.547852m. Speed=1.944000m/h.</desc>
<speed>0.540000</speed>
</trkpt>
<trkpt lat="42.919357" lon="19.647606">
<ele>1325.391602</ele>
<time>2012-04-30T18:50:30Z</time>
<desc>lat.=42.919357, lon.=19.647606, Alt.=1325.391602m. Speed=5.076000m/h.</desc>
<speed>1.410000</speed>
</trkpt>
<trkpt lat="42.919426" lon="19.647619">
<ele>1325.672852</ele>
<time>2012-04-30T18:50:35Z</time>
<desc>lat.=42.919426, lon.=19.647619, Alt.=1325.672852m. Speed=6.012000m/h.</desc>
<speed>1.670000</speed>
</trkpt>
<trkpt lat="42.919483" lon="19.647589">
<ele>1326.047852</ele>
<time>2012-04-30T18:50:40Z</time>
<desc>lat.=42.919483, lon.=19.647589, Alt.=1326.047852m. Speed=4.500000m/h.</desc>
<speed>1.250000</speed>
</trkpt>
<trkpt lat="42.919525" lon="19.647554">
<ele>1327.016602</ele>
<time>2012-04-30T18:50:45Z</time>
<desc>lat.=42.919525, lon.=19.647554, Alt.=1327.016602m. Speed=4.140000m/h.</desc>
<speed>1.150000</speed>
</trkpt>
<trkpt lat="42.919563" lon="19.647470">
<ele>1327.454102</ele>
<time>2012-04-30T18:50:50Z</time>
<desc>lat.=42.919563, lon.=19.647470, Alt.=1327.454102m. Speed=4.860000m/h.</desc>
<speed>1.350000</speed>
</trkpt>
<trkpt lat="42.919617" lon="19.647438">
<ele>1327.735352</ele>
<time>2012-04-30T18:50:55Z</time>
<desc>lat.=42.919617, lon.=19.647438, Alt.=1327.735352m. Speed=4.968000m/h.</desc>
<speed>1.380000</speed>
</trkpt>
<trkpt lat="42.919651" lon="19.647373">
<ele>1328.454102</ele>
<time>2012-04-30T18:51:00Z</time>
<desc>lat.=42.919651, lon.=19.647373, Alt.=1328.454102m. Speed=5.904000m/h.</desc>
<speed>1.640000</speed>
</trkpt>
<trkpt lat="42.919708" lon="19.647356">
<ele>1328.922852</ele>
<time>2012-04-30T18:51:05Z</time>
<desc>lat.=42.919708, lon.=19.647356, Alt.=1328.922852m. Speed=3.816000m/h.</desc>
<speed>1.060000</speed>
</trkpt>
<trkpt lat="42.919750" lon="19.647360">
<ele>1328.891602</ele>
<time>2012-04-30T18:51:10Z</time>
<desc>lat.=42.919750, lon.=19.647360, Alt.=1328.891602m. Speed=4.104000m/h.</desc>
<speed>1.140000</speed>
</trkpt>
<trkpt lat="42.919777" lon="19.647329">
<ele>1331.391602</ele>
<time>2012-04-30T18:51:15Z</time>
<desc>lat.=42.919777, lon.=19.647329, Alt.=1331.391602m. Speed=4.248000m/h.</desc>
<speed>1.180000</speed>
</trkpt>
<trkpt lat="42.919796" lon="19.647287">
<ele>1332.985352</ele>
<time>2012-04-30T18:51:20Z</time>
<desc>lat.=42.919796, lon.=19.647287, Alt.=1332.985352m. Speed=2.628000m/h.</desc>
<speed>0.730000</speed>
</trkpt>
<trkpt lat="42.919815" lon="19.647263">
<ele>1334.172852</ele>
<time>2012-04-30T18:51:25Z</time>
<desc>lat.=42.919815, lon.=19.647263, Alt.=1334.172852m. Speed=1.980000m/h.</desc>
<speed>0.550000</speed>
</trkpt>
<trkpt lat="42.919846" lon="19.647236">
<ele>1334.641602</ele>
<time>2012-04-30T18:51:30Z</time>
<desc>lat.=42.919846, lon.=19.647236, Alt.=1334.641602m. Speed=3.528000m/h.</desc>
<speed>0.980000</speed>
</trkpt>
<trkpt lat="42.919857" lon="19.647238">
<ele>1334.235352</ele>
<time>2012-04-30T18:51:35Z</time>
<desc>lat.=42.919857, lon.=19.647238, Alt.=1334.235352m. Speed=2.880000m/h.</desc>
<speed>0.800000</speed>
</trkpt>
<trkpt lat="42.919849" lon="19.647297">
<ele>1333.141602</ele>
<time>2012-04-30T18:51:40Z</time>
<desc>lat.=42.919849, lon.=19.647297, Alt.=1333.141602m. Speed=2.520000m/h.</desc>
<speed>0.700000</speed>
</trkpt>
<trkpt lat="42.919857" lon="19.647348">
<ele>1331.922852</ele>
<time>2012-04-30T18:51:45Z</time>
<desc>lat.=42.919857, lon.=19.647348, Alt.=1331.922852m. Speed=2.628000m/h.</desc>
<speed>0.730000</speed>
</trkpt>
<trkpt lat="42.919872" lon="19.647423">
<ele>1332.641602</ele>
<time>2012-04-30T18:51:50Z</time>
<desc>lat.=42.919872, lon.=19.647423, Alt.=1332.641602m. Speed=3.276000m/h.</desc>
<speed>0.910000</speed>
</trkpt>
<trkpt lat="42.919880" lon="19.647488">
<ele>1333.110352</ele>
<time>2012-04-30T18:51:55Z</time>
<desc>lat.=42.919880, lon.=19.647488, Alt.=1333.110352m. Speed=2.592000m/h.</desc>
<speed>0.720000</speed>
</trkpt>
<trkpt lat="42.919903" lon="19.647539">
<ele>1334.641602</ele>
<time>2012-04-30T18:52:00Z</time>
<desc>lat.=42.919903, lon.=19.647539, Alt.=1334.641602m. Speed=3.204000m/h.</desc>
<speed>0.890000</speed>
</trkpt>
<trkpt lat="42.919884" lon="19.647629">
<ele>1337.204102</ele>
<time>2012-04-30T18:52:05Z</time>
<desc>lat.=42.919884, lon.=19.647629, Alt.=1337.204102m. Speed=2.880000m/h.</desc>
<speed>0.800000</speed>
</trkpt>
<trkpt lat="42.919907" lon="19.647617">
<ele>1338.610352</ele>
<time>2012-04-30T18:52:10Z</time>
<desc>lat.=42.919907, lon.=19.647617, Alt.=1338.610352m. Speed=0.180000m/h.</desc>
<speed>0.050000</speed>
</trkpt>
<trkpt lat="42.919968" lon="19.647591">
<ele>1339.547852</ele>
<time>2012-04-30T18:52:15Z</time>
<desc>lat.=42.919968, lon.=19.647591, Alt.=1339.547852m. Speed=5.364000m/h.</desc>
<speed>1.490000</speed>
</trkpt>
<trkpt lat="42.920021" lon="19.647552">
<ele>1341.422852</ele>
<time>2012-04-30T18:52:20Z</time>
<desc>lat.=42.920021, lon.=19.647552, Alt.=1341.422852m. Speed=1.728000m/h.</desc>
<speed>0.480000</speed>
</trkpt>
<trkpt lat="42.920010" lon="19.647554">
<ele>1341.735352</ele>
<time>2012-04-30T18:52:25Z</time>
<desc>lat.=42.920010, lon.=19.647554, Alt.=1341.735352m. Speed=0.144000m/h.</desc>
<speed>0.040000</speed>
</trkpt>
<trkpt lat="42.920052" lon="19.647518">
<ele>1342.047852</ele>
<time>2012-04-30T18:52:30Z</time>
<desc>lat.=42.920052, lon.=19.647518, Alt.=1342.047852m. Speed=2.736000m/h.</desc>
<speed>0.760000</speed>
</trkpt>
<trkpt lat="42.920124" lon="19.647455">
<ele>1342.235352</ele>
<time>2012-04-30T18:52:35Z</time>
<desc>lat.=42.920124, lon.=19.647455, Alt.=1342.235352m. Speed=3.672000m/h.</desc>
<speed>1.020000</speed>
</trkpt>
<trkpt lat="42.920174" lon="19.647408">
<ele>1342.672852</ele>
<time>2012-04-30T18:52:40Z</time>
<desc>lat.=42.920174, lon.=19.647408, Alt.=1342.672852m. Speed=3.600000m/h.</desc>
<speed>1.000000</speed>
</trkpt>
<trkpt lat="42.920231" lon="19.647329">
<ele>1341.766602</ele>
<time>2012-04-30T18:52:45Z</time>
<desc>lat.=42.920231, lon.=19.647329, Alt.=1341.766602m. Speed=4.212000m/h.</desc>
<speed>1.170000</speed>
</trkpt>
<trkpt lat="42.920284" lon="19.647272">
<ele>1340.735352</ele>
<time>2012-04-30T18:52:50Z</time>
<desc>lat.=42.920284, lon.=19.647272, Alt.=1340.735352m. Speed=4.212000m/h.</desc>
<speed>1.170000</speed>
</trkpt>
<trkpt lat="42.920361" lon="19.647230">
<ele>1340.235352</ele>
<time>2012-04-30T18:52:55Z</time>
<desc>lat.=42.920361, lon.=19.647230, Alt.=1340.235352m. Speed=0.396000m/h.</desc>
<speed>0.110000</speed>
</trkpt>
<trkpt lat="42.920425" lon="19.647171">
<ele>1339.829102</ele>
<time>2012-04-30T18:53:00Z</time>
<desc>lat.=42.920425, lon.=19.647171, Alt.=1339.829102m. Speed=3.744000m/h.</desc>
<speed>1.040000</speed>
</trkpt>
<trkpt lat="42.920483" lon="19.647057">
<ele>1338.454102</ele>
<time>2012-04-30T18:53:05Z</time>
<desc>lat.=42.920483, lon.=19.647057, Alt.=1338.454102m. Speed=4.716000m/h.</desc>
<speed>1.310000</speed>
</trkpt>
<trkpt lat="42.920532" lon="19.646973">
<ele>1337.235352</ele>
<time>2012-04-30T18:53:10Z</time>
<desc>lat.=42.920532, lon.=19.646973, Alt.=1337.235352m. Speed=4.284000m/h.</desc>
<speed>1.190000</speed>
</trkpt>
<trkpt lat="42.920620" lon="19.646931">
<ele>1335.485352</ele>
<time>2012-04-30T18:53:15Z</time>
<desc>lat.=42.920620, lon.=19.646931, Alt.=1335.485352m. Speed=6.048000m/h.</desc>
<speed>1.680000</speed>
</trkpt>
<trkpt lat="42.920700" lon="19.646868">
<ele>1335.766602</ele>
<time>2012-04-30T18:53:20Z</time>
<desc>lat.=42.920700, lon.=19.646868, Alt.=1335.766602m. Speed=7.704000m/h.</desc>
<speed>2.140000</speed>
</trkpt>
<trkpt lat="42.920750" lon="19.646807">
<ele>1335.329102</ele>
<time>2012-04-30T18:53:25Z</time>
<desc>lat.=42.920750, lon.=19.646807, Alt.=1335.329102m. Speed=5.292000m/h.</desc>
<speed>1.470000</speed>
</trkpt>
<trkpt lat="42.920784" lon="19.646767">
<ele>1337.204102</ele>
<time>2012-04-30T18:53:30Z</time>
<desc>lat.=42.920784, lon.=19.646767, Alt.=1337.204102m. Speed=1.224000m/h.</desc>
<speed>0.340000</speed>
</trkpt>
<trkpt lat="42.920818" lon="19.646729">
<ele>1337.266602</ele>
<time>2012-04-30T18:53:35Z</time>
<desc>lat.=42.920818, lon.=19.646729, Alt.=1337.266602m. Speed=3.744000m/h.</desc>
<speed>1.040000</speed>
</trkpt>
<trkpt lat="42.920853" lon="19.646702">
<ele>1337.829102</ele>
<time>2012-04-30T18:53:40Z</time>
<desc>lat.=42.920853, lon.=19.646702, Alt.=1337.829102m. Speed=1.476000m/h.</desc>
<speed>0.410000</speed>
</trkpt>
<trkpt lat="42.920898" lon="19.646704">
<ele>1337.641602</ele>
<time>2012-04-30T18:53:45Z</time>
<desc>lat.=42.920898, lon.=19.646704, Alt.=1337.641602m. Speed=4.500000m/h.</desc>
<speed>1.250000</speed>
</trkpt>
<trkpt lat="42.920952" lon="19.646671">
<ele>1338.516602</ele>
<time>2012-04-30T18:53:50Z</time>
<desc>lat.=42.920952, lon.=19.646671, Alt.=1338.516602m. Speed=4.428000m/h.</desc>
<speed>1.230000</speed>
</trkpt>
<trkpt lat="42.920998" lon="19.646633">
<ele>1340.829102</ele>
<time>2012-04-30T18:53:55Z</time>
<desc>lat.=42.920998, lon.=19.646633, Alt.=1340.829102m. Speed=4.680000m/h.</desc>
<speed>1.300000</speed>
</trkpt>
<trkpt lat="42.921047" lon="19.646597">
<ele>1343.829102</ele>
<time>2012-04-30T18:54:00Z</time>
<desc>lat.=42.921047, lon.=19.646597, Alt.=1343.829102m. Speed=4.140000m/h.</desc>
<speed>1.150000</speed>
</trkpt>
<trkpt lat="42.921074" lon="19.646585">
<ele>1348.235352</ele>
<time>2012-04-30T18:54:05Z</time>
<desc>lat.=42.921074, lon.=19.646585, Alt.=1348.235352m. Speed=4.356000m/h.</desc>
<speed>1.210000</speed>
</trkpt>
<trkpt lat="42.921120" lon="19.646612">
<ele>1352.516602</ele>
<time>2012-04-30T18:54:10Z</time>
<desc>lat.=42.921120, lon.=19.646612, Alt.=1352.516602m. Speed=4.212000m/h.</desc>
<speed>1.170000</speed>
</trkpt>
<trkpt lat="42.921146" lon="19.646557">
<ele>1353.922852</ele>
<time>2012-04-30T18:54:15Z</time>
<desc>lat.=42.921146, lon.=19.646557, Alt.=1353.922852m. Speed=4.392000m/h.</desc>
<speed>1.220000</speed>
</trkpt>
<trkpt lat="42.921188" lon="19.646509">
<ele>1353.485352</ele>
<time>2012-04-30T18:54:20Z</time>
<desc>lat.=42.921188, lon.=19.646509, Alt.=1353.485352m. Speed=4.572000m/h.</desc>
<speed>1.270000</speed>
</trkpt>
<trkpt lat="42.921223" lon="19.646471">
<ele>1352.797852</ele>
<time>2012-04-30T18:54:25Z</time>
<desc>lat.=42.921223, lon.=19.646471, Alt.=1352.797852m. Speed=3.096000m/h.</desc>
<speed>0.860000</speed>
</trkpt>
<trkpt lat="42.921261" lon="19.646433">
<ele>1352.766602</ele>
<time>2012-04-30T18:54:30Z</time>
<desc>lat.=42.921261, lon.=19.646433, Alt.=1352.766602m. Speed=3.456000m/h.</desc>
<speed>0.960000</speed>
</trkpt>
<trkpt lat="42.921322" lon="19.646400">
<ele>1353.235352</ele>
<time>2012-04-30T18:54:35Z</time>
<desc>lat.=42.921322, lon.=19.646400, Alt.=1353.235352m. Speed=7.056000m/h.</desc>
<speed>1.960000</speed>
</trkpt>
<trkpt lat="42.921345" lon="19.646345">
<ele>1355.047852</ele>
<time>2012-04-30T18:54:40Z</time>
<desc>lat.=42.921345, lon.=19.646345, Alt.=1355.047852m. Speed=3.744000m/h.</desc>
<speed>1.040000</speed>
</trkpt>
<trkpt lat="42.921371" lon="19.646286">
<ele>1355.766602</ele>
<time>2012-04-30T18:54:45Z</time>
<desc>lat.=42.921371, lon.=19.646286, Alt.=1355.766602m. Speed=3.888000m/h.</desc>
<speed>1.080000</speed>
</trkpt>
<trkpt lat="42.921398" lon="19.646265">
<ele>1357.266602</ele>
<time>2012-04-30T18:54:50Z</time>
<desc>lat.=42.921398, lon.=19.646265, Alt.=1357.266602m. Speed=0.720000m/h.</desc>
<speed>0.200000</speed>
</trkpt>
<trkpt lat="42.921459" lon="19.646273">
<ele>1357.485352</ele>
<time>2012-04-30T18:54:55Z</time>
<desc>lat.=42.921459, lon.=19.646273, Alt.=1357.485352m. Speed=6.264000m/h.</desc>
<speed>1.740000</speed>
</trkpt>
<trkpt lat="42.921524" lon="19.646229">
<ele>1360.235352</ele>
<time>2012-04-30T18:55:00Z</time>
<desc>lat.=42.921524, lon.=19.646229, Alt.=1360.235352m. Speed=10.008000m/h.</desc>
<speed>2.780000</speed>
</trkpt>
<trkpt lat="42.921589" lon="19.646198">
<ele>1360.735352</ele>
<time>2012-04-30T18:55:05Z</time>
<desc>lat.=42.921589, lon.=19.646198, Alt.=1360.735352m. Speed=5.472000m/h.</desc>
<speed>1.520000</speed>
</trkpt>
<trkpt lat="42.921627" lon="19.646103">
<ele>1359.766602</ele>
<time>2012-04-30T18:55:10Z</time>
<desc>lat.=42.921627, lon.=19.646103, Alt.=1359.766602m. Speed=4.248000m/h.</desc>
<speed>1.180000</speed>
</trkpt>
<trkpt lat="42.921673" lon="19.646051">
<ele>1360.079102</ele>
<time>2012-04-30T18:55:15Z</time>
<desc>lat.=42.921673, lon.=19.646051, Alt.=1360.079102m. Speed=0.108000m/h.</desc>
<speed>0.030000</speed>
</trkpt>
<trkpt lat="42.921688" lon="19.646040">
<ele>1361.172852</ele>
<time>2012-04-30T18:55:20Z</time>
<desc>lat.=42.921688, lon.=19.646040, Alt.=1361.172852m. Speed=4.140000m/h.</desc>
<speed>1.150000</speed>
</trkpt>
<trkpt lat="42.921738" lon="19.646015">
<ele>1360.704102</ele>
<time>2012-04-30T18:55:25Z</time>
<desc>lat.=42.921738, lon.=19.646015, Alt.=1360.704102m. Speed=3.888000m/h.</desc>
<speed>1.080000</speed>
</trkpt>
<trkpt lat="42.921761" lon="19.645950">
<ele>1361.485352</ele>
<time>2012-04-30T18:55:30Z</time>
<desc>lat.=42.921761, lon.=19.645950, Alt.=1361.485352m. Speed=3.132000m/h.</desc>
<speed>0.870000</speed>
</trkpt>
<trkpt lat="42.921776" lon="19.645905">
<ele>1361.579102</ele>
<time>2012-04-30T18:55:35Z</time>
<desc>lat.=42.921776, lon.=19.645905, Alt.=1361.579102m. Speed=2.736000m/h.</desc>
<speed>0.760000</speed>
</trkpt>
<trkpt lat="42.921814" lon="19.645866">
<ele>1361.641602</ele>
<time>2012-04-30T18:55:40Z</time>
<desc>lat.=42.921814, lon.=19.645866, Alt.=1361.641602m. Speed=5.256000m/h.</desc>
<speed>1.460000</speed>
</trkpt>
<trkpt lat="42.921852" lon="19.645779">
<ele>1361.672852</ele>
<time>2012-04-30T18:55:45Z</time>
<desc>lat.=42.921852, lon.=19.645779, Alt.=1361.672852m. Speed=5.652000m/h.</desc>
<speed>1.570000</speed>
</trkpt>
<trkpt lat="42.921894" lon="19.645725">
<ele>1362.641602</ele>
<time>2012-04-30T18:55:50Z</time>
<desc>lat.=42.921894, lon.=19.645725, Alt.=1362.641602m. Speed=4.968000m/h.</desc>
<speed>1.380000</speed>
</trkpt>
<trkpt lat="42.921963" lon="19.645699">
<ele>1362.016602</ele>
<time>2012-04-30T18:55:55Z</time>
<desc>lat.=42.921963, lon.=19.645699, Alt.=1362.016602m. Speed=4.356000m/h.</desc>
<speed>1.210000</speed>
</trkpt>
<trkpt lat="42.922031" lon="19.645702">
<ele>1360.797852</ele>
<time>2012-04-30T18:56:00Z</time>
<desc>lat.=42.922031, lon.=19.645702, Alt.=1360.797852m. Speed=6.264000m/h.</desc>
<speed>1.740000</speed>
</trkpt>
<trkpt lat="42.922134" lon="19.645689">
<ele>1359.610352</ele>
<time>2012-04-30T18:56:05Z</time>
<desc>lat.=42.922134, lon.=19.645689, Alt.=1359.610352m. Speed=9.144000m/h.</desc>
<speed>2.540000</speed>
</trkpt>
<trkpt lat="42.922215" lon="19.645615">
<ele>1357.360352</ele>
<time>2012-04-30T18:56:10Z</time>
<desc>lat.=42.922215, lon.=19.645615, Alt.=1357.360352m. Speed=5.904000m/h.</desc>
<speed>1.640000</speed>
</trkpt>
<trkpt lat="42.922241" lon="19.645502">
<ele>1355.704102</ele>
<time>2012-04-30T18:56:15Z</time>
<desc>lat.=42.922241, lon.=19.645502, Alt.=1355.704102m. Speed=5.796000m/h.</desc>
<speed>1.610000</speed>
</trkpt>
<trkpt lat="42.922314" lon="19.645412">
<ele>1354.047852</ele>
<time>2012-04-30T18:56:20Z</time>
<desc>lat.=42.922314, lon.=19.645412, Alt.=1354.047852m. Speed=6.876000m/h.</desc>
<speed>1.910000</speed>
</trkpt>
<trkpt lat="42.922371" lon="19.645302">
<ele>1353.297852</ele>
<time>2012-04-30T18:56:25Z</time>
<desc>lat.=42.922371, lon.=19.645302, Alt.=1353.297852m. Speed=5.040000m/h.</desc>
<speed>1.400000</speed>
</trkpt>
<trkpt lat="42.922432" lon="19.645243">
<ele>1353.454102</ele>
<time>2012-04-30T18:56:30Z</time>
<desc>lat.=42.922432, lon.=19.645243, Alt.=1353.454102m. Speed=4.824000m/h.</desc>
<speed>1.340000</speed>
</trkpt>
<trkpt lat="42.922493" lon="19.645176">
<ele>1352.922852</ele>
<time>2012-04-30T18:56:35Z</time>
<desc>lat.=42.922493, lon.=19.645176, Alt.=1352.922852m. Speed=4.680000m/h.</desc>
<speed>1.300000</speed>
</trkpt>
<trkpt lat="42.922577" lon="19.645126">
<ele>1352.797852</ele>
<time>2012-04-30T18:56:40Z</time>
<desc>lat.=42.922577, lon.=19.645126, Alt.=1352.797852m. Speed=5.184000m/h.</desc>
<speed>1.440000</speed>
</trkpt>
<trkpt lat="42.922649" lon="19.645073">
<ele>1353.610352</ele>
<time>2012-04-30T18:56:45Z</time>
<desc>lat.=42.922649, lon.=19.645073, Alt.=1353.610352m. Speed=4.500000m/h.</desc>
<speed>1.250000</speed>
</trkpt>
<trkpt lat="42.922703" lon="19.645042">
<ele>1355.047852</ele>
<time>2012-04-30T18:56:50Z</time>
<desc>lat.=42.922703, lon.=19.645042, Alt.=1355.047852m. Speed=0.360000m/h.</desc>
<speed>0.100000</speed>
</trkpt>
<trkpt lat="42.922729" lon="19.645018">
<ele>1355.672852</ele>
<time>2012-04-30T18:56:55Z</time>
<desc>lat.=42.922729, lon.=19.645018, Alt.=1355.672852m. Speed=3.960000m/h.</desc>
<speed>1.100000</speed>
</trkpt>
<trkpt lat="42.922779" lon="19.644970">
<ele>1356.172852</ele>
<time>2012-04-30T18:57:00Z</time>
<desc>lat.=42.922779, lon.=19.644970, Alt.=1356.172852m. Speed=4.968000m/h.</desc>
<speed>1.380000</speed>
</trkpt>
<trkpt lat="42.922794" lon="19.644962">
<ele>1357.235352</ele>
<time>2012-04-30T18:57:05Z</time>
<desc>lat.=42.922794, lon.=19.644962, Alt.=1357.235352m. Speed=3.420000m/h.</desc>
<speed>0.950000</speed>
</trkpt>
<trkpt lat="42.922836" lon="19.644958">
<ele>1357.454102</ele>
<time>2012-04-30T18:57:10Z</time>
<desc>lat.=42.922836, lon.=19.644958, Alt.=1357.454102m. Speed=4.536000m/h.</desc>
<speed>1.260000</speed>
</trkpt>
<trkpt lat="42.922871" lon="19.644968">
<ele>1358.954102</ele>
<time>2012-04-30T18:57:15Z</time>
<desc>lat.=42.922871, lon.=19.644968, Alt.=1358.954102m. Speed=2.016000m/h.</desc>
<speed>0.560000</speed>
</trkpt>
<trkpt lat="42.922886" lon="19.644968">
<ele>1359.985352</ele>
<time>2012-04-30T18:57:20Z</time>
<desc>lat.=42.922886, lon.=19.644968, Alt.=1359.985352m. Speed=0.144000m/h.</desc>
<speed>0.040000</speed>
</trkpt>
<trkpt lat="42.922882" lon="19.644981">
<ele>1360.172852</ele>
<time>2012-04-30T18:57:25Z</time>
<desc>lat.=42.922882, lon.=19.644981, Alt.=1360.172852m. Speed=0.252000m/h.</desc>
<speed>0.070000</speed>
</trkpt>
<trkpt lat="42.922890" lon="19.644987">
<ele>1360.141602</ele>
<time>2012-04-30T18:57:30Z</time>
<desc>lat.=42.922890, lon.=19.644987, Alt.=1360.141602m. Speed=0.828000m/h.</desc>
<speed>0.230000</speed>
</trkpt>
<trkpt lat="42.922882" lon="19.644976">
<ele>1360.297852</ele>
<time>2012-04-30T18:57:35Z</time>
<desc>lat.=42.922882, lon.=19.644976, Alt.=1360.297852m. Speed=0.072000m/h.</desc>
<speed>0.020000</speed>
</trkpt>
<trkpt lat="42.922882" lon="19.644970">
<ele>1360.141602</ele>
<time>2012-04-30T18:57:40Z</time>
<desc>lat.=42.922882, lon.=19.644970, Alt.=1360.141602m. Speed=0.072000m/h.</desc>
<speed>0.020000</speed>
</trkpt>
<trkpt lat="42.922882" lon="19.644970">
<ele>1360.110352</ele>
<time>2012-04-30T18:57:45Z</time>
<desc>lat.=42.922882, lon.=19.644970, Alt.=1360.110352m. Speed=0.108000m/h.</desc>
<speed>0.030000</speed>
</trkpt>
<trkpt lat="42.922882" lon="19.644970">
<ele>1360.047852</ele>
<time>2012-04-30T18:57:50Z</time>
<desc>lat.=42.922882, lon.=19.644970, Alt.=1360.047852m. Speed=0.036000m/h.</desc>
<speed>0.010000</speed>
</trkpt>
<trkpt lat="42.922882" lon="19.644970">
<ele>1360.079102</ele>
<time>2012-04-30T18:57:55Z</time>
<desc>lat.=42.922882, lon.=19.644970, Alt.=1360.079102m. Speed=0.108000m/h.</desc>
<speed>0.030000</speed>
</trkpt>
<trkpt lat="42.922882" lon="19.644970">
<ele>1360.079102</ele>
<time>2012-04-30T18:58:00Z</time>
<desc>lat.=42.922882, lon.=19.644970, Alt.=1360.079102m. Speed=0.036000m/h.</desc>
<speed>0.010000</speed>
</trkpt>
<trkpt lat="42.922882" lon="19.644968">
<ele>1360.079102</ele>
<time>2012-04-30T18:58:05Z</time>
<desc>lat.=42.922882, lon.=19.644968, Alt.=1360.079102m. Speed=0.036000m/h.</desc>
<speed>0.010000</speed>
</trkpt>
<trkpt lat="42.922882" lon="19.644968">
<ele>1360.079102</ele>
<time>2012-04-30T18:58:10Z</time>
<desc>lat.=42.922882, lon.=19.644968, Alt.=1360.079102m. Speed=0.000000m/h.</desc>
<speed>0.000000</speed>
</trkpt>
<trkpt lat="42.922882" lon="19.644968">
<ele>1360.079102</ele>
<time>2012-04-30T18:58:15Z</time>
<desc>lat.=42.922882, lon.=19.644968, Alt.=1360.079102m. Speed=0.000000m/h.</desc>
<speed>0.000000</speed>
</trkpt>
<trkpt lat="42.922882" lon="19.644968">
<ele>1360.110352</ele>
<time>2012-04-30T18:58:20Z</time>
<desc>lat.=42.922882, lon.=19.644968, Alt.=1360.110352m. Speed=0.216000m/h.</desc>
<speed>0.060000</speed>
</trkpt>
<trkpt lat="42.922878" lon="19.644968">
<ele>1360.110352</ele>
<time>2012-04-30T18:58:25Z</time>
<desc>lat.=42.922878, lon.=19.644968, Alt.=1360.110352m. Speed=0.072000m/h.</desc>
<speed>0.020000</speed>
</trkpt>
<trkpt lat="42.922878" lon="19.644968">
<ele>1360.110352</ele>
<time>2012-04-30T18:58:30Z</time>
<desc>lat.=42.922878, lon.=19.644968, Alt.=1360.110352m. Speed=0.000000m/h.</desc>
<speed>0.000000</speed>
</trkpt>
<trkpt lat="42.922878" lon="19.644968">
<ele>1360.141602</ele>
<time>2012-04-30T18:58:35Z</time>
<desc>lat.=42.922878, lon.=19.644968, Alt.=1360.141602m. Speed=0.072000m/h.</desc>
<speed>0.020000</speed>
</trkpt>
<trkpt lat="42.922878" lon="19.644968">
<ele>1360.141602</ele>
<time>2012-04-30T18:58:40Z</time>
<desc>lat.=42.922878, lon.=19.644968, Alt.=1360.141602m. Speed=0.072000m/h.</desc>
<speed>0.020000</speed>
</trkpt>
<trkpt lat="42.922878" lon="19.644968">
<ele>1360.172852</ele>
<time>2012-04-30T18:58:45Z</time>
<desc>lat.=42.922878, lon.=19.644968, Alt.=1360.172852m. Speed=0.072000m/h.</desc>
<speed>0.020000</speed>
</trkpt>
<trkpt lat="42.922878" lon="19.644968">
<ele>1360.204102</ele>
<time>2012-04-30T18:58:50Z</time>
<desc>lat.=42.922878, lon.=19.644968, Alt.=1360.204102m. Speed=0.036000m/h.</desc>
<speed>0.010000</speed>
</trkpt>
<trkpt lat="42.922882" lon="19.644966">
<ele>1360.204102</ele>
<time>2012-04-30T18:58:55Z</time>
<desc>lat.=42.922882, lon.=19.644966, Alt.=1360.204102m. Speed=0.072000m/h.</desc>
<speed>0.020000</speed>
</trkpt>
<trkpt lat="42.922882" lon="19.644966">
<ele>1360.204102</ele>
<time>2012-04-30T18:59:00Z</time>
<desc>lat.=42.922882, lon.=19.644966, Alt.=1360.204102m. Speed=0.000000m/h.</desc>
<speed>0.000000</speed>
</trkpt>
<trkpt lat="42.922882" lon="19.644966">
<ele>1360.204102</ele>
<time>2012-04-30T18:59:05Z</time>
<desc>lat.=42.922882, lon.=19.644966, Alt.=1360.204102m. Speed=0.036000m/h.</desc>
<speed>0.010000</speed>
</trkpt>
<trkpt lat="42.922882" lon="19.644966">
<ele>1360.172852</ele>
<time>2012-04-30T18:59:10Z</time>
<desc>lat.=42.922882, lon.=19.644966, Alt.=1360.172852m. Speed=0.000000m/h.</desc>
<speed>0.000000</speed>
</trkpt>
<trkpt lat="42.922882" lon="19.644964">
<ele>1360.172852</ele>
<time>2012-04-30T18:59:15Z</time>
<desc>lat.=42.922882, lon.=19.644964, Alt.=1360.172852m. Speed=0.072000m/h.</desc>
<speed>0.020000</speed>
</trkpt>
<trkpt lat="42.922882" lon="19.644964">
<ele>1360.110352</ele>
<time>2012-04-30T18:59:20Z</time>
<desc>lat.=42.922882, lon.=19.644964, Alt.=1360.110352m. Speed=0.108000m/h.</desc>
<speed>0.030000</speed>
</trkpt>
<trkpt lat="42.922882" lon="19.644964">
<ele>1360.110352</ele>
<time>2012-04-30T18:59:25Z</time>
<desc>lat.=42.922882, lon.=19.644964, Alt.=1360.110352m. Speed=0.036000m/h.</desc>
<speed>0.010000</speed>
</trkpt>
<trkpt lat="42.922882" lon="19.644964">
<ele>1360.110352</ele>
<time>2012-04-30T18:59:30Z</time>
<desc>lat.=42.922882, lon.=19.644964, Alt.=1360.110352m. Speed=0.036000m/h.</desc>
<speed>0.010000</speed>
</trkpt>
<trkpt lat="42.922882" lon="19.644964">
<ele>1360.141602</ele>
<time>2012-04-30T18:59:35Z</time>
<desc>lat.=42.922882, lon.=19.644964, Alt.=1360.141602m. Speed=0.000000m/h.</desc>
<speed>0.000000</speed>
</trkpt>
<trkpt lat="42.922882" lon="19.644964">
<ele>1360.204102</ele>
<time>2012-04-30T18:59:40Z</time>
<desc>lat.=42.922882, lon.=19.644964, Alt.=1360.204102m. Speed=0.252000m/h.</desc>
<speed>0.070000</speed>
</trkpt>
<trkpt lat="42.922882" lon="19.644964">
<ele>1360.172852</ele>
<time>2012-04-30T18:59:45Z</time>
<desc>lat.=42.922882, lon.=19.644964, Alt.=1360.172852m. Speed=0.072000m/h.</desc>
<speed>0.020000</speed>
</trkpt>
<trkpt lat="42.922878" lon="19.644964">
<ele>1360.204102</ele>
<time>2012-04-30T18:59:50Z</time>
<desc>lat.=42.922878, lon.=19.644964, Alt.=1360.204102m. Speed=0.000000m/h.</desc>
<speed>0.000000</speed>
</trkpt>
<trkpt lat="42.922878" lon="19.644962">
<ele>1360.204102</ele>
<time>2012-04-30T18:59:55Z</time>
<desc>lat.=42.922878, lon.=19.644962, Alt.=1360.204102m. Speed=0.000000m/h.</desc>
<speed>0.000000</speed>
</trkpt>
<trkpt lat="42.922878" lon="19.644962">
<ele>1360.172852</ele>
<time>2012-04-30T19:00:00Z</time>
<desc>lat.=42.922878, lon.=19.644962, Alt.=1360.172852m. Speed=0.000000m/h.</desc>
<speed>0.000000</speed>
</trkpt>
<trkpt lat="42.922878" lon="19.644962">
<ele>1360.172852</ele>
<time>2012-04-30T19:00:05Z</time>
<desc>lat.=42.922878, lon.=19.644962, Alt.=1360.172852m. Speed=0.000000m/h.</desc>
<speed>0.000000</speed>
</trkpt>
<trkpt lat="42.922878" lon="19.644962">
<ele>1360.172852</ele>
<time>2012-04-30T19:00:10Z</time>
<desc>lat.=42.922878, lon.=19.644962, Alt.=1360.172852m. Speed=0.036000m/h.</desc>
<speed>0.010000</speed>
</trkpt>
<trkpt lat="42.922878" lon="19.644962">
<ele>1360.141602</ele>
<time>2012-04-30T19:00:15Z</time>
<desc>lat.=42.922878, lon.=19.644962, Alt.=1360.141602m. Speed=0.036000m/h.</desc>
<speed>0.010000</speed>
</trkpt>
<trkpt lat="42.922878" lon="19.644962">
<ele>1360.110352</ele>
<time>2012-04-30T19:00:20Z</time>
<desc>lat.=42.922878, lon.=19.644962, Alt.=1360.110352m. Speed=0.000000m/h.</desc>
<speed>0.000000</speed>
</trkpt>
<trkpt lat="42.922878" lon="19.644962">
<ele>1360.079102</ele>
<time>2012-04-30T19:00:25Z</time>
<desc>lat.=42.922878, lon.=19.644962, Alt.=1360.079102m. Speed=0.000000m/h.</desc>
<speed>0.000000</speed>
</trkpt>
<trkpt lat="42.922878" lon="19.644962">
<ele>1360.079102</ele>
<time>2012-04-30T19:00:30Z</time>
<desc>lat.=42.922878, lon.=19.644962, Alt.=1360.079102m. Speed=0.000000m/h.</desc>
<speed>0.000000</speed>
</trkpt>
<trkpt lat="42.922878" lon="19.644962">
<ele>1360.047852</ele>
<time>2012-04-30T19:00:35Z</time>
<desc>lat.=42.922878, lon.=19.644962, Alt.=1360.047852m. Speed=0.000000m/h.</desc>
<speed>0.000000</speed>
</trkpt>
<trkpt lat="42.922878" lon="19.644962">
<ele>1360.016602</ele>
<time>2012-04-30T19:00:40Z</time>
<desc>lat.=42.922878, lon.=19.644962, Alt.=1360.016602m. Speed=0.072000m/h.</desc>
<speed>0.020000</speed>
</trkpt>
<trkpt lat="42.922878" lon="19.644960">
<ele>1360.016602</ele>
<time>2012-04-30T19:00:45Z</time>
<desc>lat.=42.922878, lon.=19.644960, Alt.=1360.016602m. Speed=0.108000m/h.</desc>
<speed>0.030000</speed>
</trkpt>
<trkpt lat="42.922890" lon="19.644968">
<ele>1360.141602</ele>
<time>2012-04-30T19:00:50Z</time>
<desc>lat.=42.922890, lon.=19.644968, Alt.=1360.141602m. Speed=0.648000m/h.</desc>
<speed>0.180000</speed>
</trkpt>
<trkpt lat="42.922939" lon="19.644976">
<ele>1360.360352</ele>
<time>2012-04-30T19:00:55Z</time>
<desc>lat.=42.922939, lon.=19.644976, Alt.=1360.360352m. Speed=5.220000m/h.</desc>
<speed>1.450000</speed>
</trkpt>
<trkpt lat="42.922989" lon="19.644972">
<ele>1362.391602</ele>
<time>2012-04-30T19:01:00Z</time>
<desc>lat.=42.922989, lon.=19.644972, Alt.=1362.391602m. Speed=2.232000m/h.</desc>
<speed>0.620000</speed>
</trkpt>
<trkpt lat="42.923031" lon="19.644951">
<ele>1364.891602</ele>
<time>2012-04-30T19:01:05Z</time>
<desc>lat.=42.923031, lon.=19.644951, Alt.=1364.891602m. Speed=2.700000m/h.</desc>
<speed>0.750000</speed>
</trkpt>
<trkpt lat="42.923103" lon="19.644861">
<ele>1366.172852</ele>
<time>2012-04-30T19:01:10Z</time>
<desc>lat.=42.923103, lon.=19.644861, Alt.=1366.172852m. Speed=5.760000m/h.</desc>
<speed>1.600000</speed>
</trkpt>
<trkpt lat="42.923164" lon="19.644819">
<ele>1367.235352</ele>
<time>2012-04-30T19:01:15Z</time>
<desc>lat.=42.923164, lon.=19.644819, Alt.=1367.235352m. Speed=5.544000m/h.</desc>
<speed>1.540000</speed>
</trkpt>
<trkpt lat="42.923206" lon="19.644781">
<ele>1369.079102</ele>
<time>2012-04-30T19:01:20Z</time>
<desc>lat.=42.923206, lon.=19.644781, Alt.=1369.079102m. Speed=3.960000m/h.</desc>
<speed>1.100000</speed>
</trkpt>
<trkpt lat="42.923275" lon="19.644737">
<ele>1370.547852</ele>
<time>2012-04-30T19:01:25Z</time>
<desc>lat.=42.923275, lon.=19.644737, Alt.=1370.547852m. Speed=6.408000m/h.</desc>
<speed>1.780000</speed>
</trkpt>
<trkpt lat="42.923367" lon="19.644657">
<ele>1371.016602</ele>
<time>2012-04-30T19:01:30Z</time>
<desc>lat.=42.923367, lon.=19.644657, Alt.=1371.016602m. Speed=7.164000m/h.</desc>
<speed>1.990000</speed>
</trkpt>
<trkpt lat="42.923424" lon="19.644579">
<ele>1370.735352</ele>
<time>2012-04-30T19:01:35Z</time>
<desc>lat.=42.923424, lon.=19.644579, Alt.=1370.735352m. Speed=6.372000m/h.</desc>
<speed>1.770000</speed>
</trkpt>
<trkpt lat="42.923447" lon="19.644545">
<ele>1373.360352</ele>
<time>2012-04-30T19:01:40Z</time>
<desc>lat.=42.923447, lon.=19.644545, Alt.=1373.360352m. Speed=0.360000m/h.</desc>
<speed>0.100000</speed>
</trkpt>
<trkpt lat="42.923462" lon="19.644512">
<ele>1373.297852</ele>
<time>2012-04-30T19:01:45Z</time>
<desc>lat.=42.923462, lon.=19.644512, Alt.=1373.297852m. Speed=5.508000m/h.</desc>
<speed>1.530000</speed>
</trkpt>
<trkpt lat="42.923485" lon="19.644459">
<ele>1373.016602</ele>
<time>2012-04-30T19:01:50Z</time>
<desc>lat.=42.923485, lon.=19.644459, Alt.=1373.016602m. Speed=3.708000m/h.</desc>
<speed>1.030000</speed>
</trkpt>
<trkpt lat="42.923527" lon="19.644373">
<ele>1371.141602</ele>
<time>2012-04-30T19:01:55Z</time>
<desc>lat.=42.923527, lon.=19.644373, Alt.=1371.141602m. Speed=6.156000m/h.</desc>
<speed>1.710000</speed>
</trkpt>
<trkpt lat="42.923569" lon="19.644299">
<ele>1369.891602</ele>
<time>2012-04-30T19:02:00Z</time>
<desc>lat.=42.923569, lon.=19.644299, Alt.=1369.891602m. Speed=6.120000m/h.</desc>
<speed>1.700000</speed>
</trkpt>
<trkpt lat="42.923599" lon="19.644203">
<ele>1369.860352</ele>
<time>2012-04-30T19:02:05Z</time>
<desc>lat.=42.923599, lon.=19.644203, Alt.=1369.860352m. Speed=6.048000m/h.</desc>
<speed>1.680000</speed>
</trkpt>
<trkpt lat="42.923641" lon="19.644106">
<ele>1372.079102</ele>
<time>2012-04-30T19:02:10Z</time>
<desc>lat.=42.923641, lon.=19.644106, Alt.=1372.079102m. Speed=6.588000m/h.</desc>
<speed>1.830000</speed>
</trkpt>
<trkpt lat="42.923683" lon="19.644014">
<ele>1373.735352</ele>
<time>2012-04-30T19:02:15Z</time>
<desc>lat.=42.923683, lon.=19.644014, Alt.=1373.735352m. Speed=5.436000m/h.</desc>
<speed>1.510000</speed>
</trkpt>
<trkpt lat="42.923725" lon="19.643948">
<ele>1374.454102</ele>
<time>2012-04-30T19:02:20Z</time>
<desc>lat.=42.923725, lon.=19.643948, Alt.=1374.454102m. Speed=4.752000m/h.</desc>
<speed>1.320000</speed>
</trkpt>
<trkpt lat="42.923763" lon="19.643892">
<ele>1374.360352</ele>
<time>2012-04-30T19:02:25Z</time>
<desc>lat.=42.923763, lon.=19.643892, Alt.=1374.360352m. Speed=5.508000m/h.</desc>
<speed>1.530000</speed>
</trkpt>
<trkpt lat="42.923813" lon="19.643822">
<ele>1374.735352</ele>
<time>2012-04-30T19:02:30Z</time>
<desc>lat.=42.923813, lon.=19.643822, Alt.=1374.735352m. Speed=5.580000m/h.</desc>
<speed>1.550000</speed>
</trkpt>
<trkpt lat="42.923878" lon="19.643755">
<ele>1374.485352</ele>
<time>2012-04-30T19:02:35Z</time>
<desc>lat.=42.923878, lon.=19.643755, Alt.=1374.485352m. Speed=3.204000m/h.</desc>
<speed>0.890000</speed>
</trkpt>
<trkpt lat="42.923870" lon="19.643745">
<ele>1374.141602</ele>
<time>2012-04-30T19:02:40Z</time>
<desc>lat.=42.923870, lon.=19.643745, Alt.=1374.141602m. Speed=0.180000m/h.</desc>
<speed>0.050000</speed>
</trkpt>
<trkpt lat="42.923874" lon="19.643744">
<ele>1373.891602</ele>
<time>2012-04-30T19:02:45Z</time>
<desc>lat.=42.923874, lon.=19.643744, Alt.=1373.891602m. Speed=3.816000m/h.</desc>
<speed>1.060000</speed>
</trkpt>
<trkpt lat="42.923908" lon="19.643711">
<ele>1373.891602</ele>
<time>2012-04-30T19:02:50Z</time>
<desc>lat.=42.923908, lon.=19.643711, Alt.=1373.891602m. Speed=5.652000m/h.</desc>
<speed>1.570000</speed>
</trkpt>
<trkpt lat="42.923962" lon="19.643658">
<ele>1374.047852</ele>
<time>2012-04-30T19:02:55Z</time>
<desc>lat.=42.923962, lon.=19.643658, Alt.=1374.047852m. Speed=5.040000m/h.</desc>
<speed>1.400000</speed>
</trkpt>
<trkpt lat="42.924015" lon="19.643595">
<ele>1374.047852</ele>
<time>2012-04-30T19:03:00Z</time>
<desc>lat.=42.924015, lon.=19.643595, Alt.=1374.047852m. Speed=5.868000m/h.</desc>
<speed>1.630000</speed>
</trkpt>
<trkpt lat="42.924068" lon="19.643576">
<ele>1374.172852</ele>
<time>2012-04-30T19:03:05Z</time>
<desc>lat.=42.924068, lon.=19.643576, Alt.=1374.172852m. Speed=5.724000m/h.</desc>
<speed>1.590000</speed>
</trkpt>
<trkpt lat="42.924118" lon="19.643585">
<ele>1374.735352</ele>
<time>2012-04-30T19:03:10Z</time>
<desc>lat.=42.924118, lon.=19.643585, Alt.=1374.735352m. Speed=1.296000m/h.</desc>
<speed>0.360000</speed>
</trkpt>
<trkpt lat="42.924149" lon="19.643597">
<ele>1374.266602</ele>
<time>2012-04-30T19:03:15Z</time>
<desc>lat.=42.924149, lon.=19.643597, Alt.=1374.266602m. Speed=6.696000m/h.</desc>
<speed>1.860000</speed>
</trkpt>
<trkpt lat="42.924221" lon="19.643606">
<ele>1373.079102</ele>
<time>2012-04-30T19:03:20Z</time>
<desc>lat.=42.924221, lon.=19.643606, Alt.=1373.079102m. Speed=5.472000m/h.</desc>
<speed>1.520000</speed>
</trkpt>
<trkpt lat="42.924286" lon="19.643583">
<ele>1374.954102</ele>
<time>2012-04-30T19:03:25Z</time>
<desc>lat.=42.924286, lon.=19.643583, Alt.=1374.954102m. Speed=5.544000m/h.</desc>
<speed>1.540000</speed>
</trkpt>
<trkpt lat="42.924355" lon="19.643543">
<ele>1377.235352</ele>
<time>2012-04-30T19:03:30Z</time>
<desc>lat.=42.924355, lon.=19.643543, Alt.=1377.235352m. Speed=4.716000m/h.</desc>
<speed>1.310000</speed>
</trkpt>
<trkpt lat="42.924412" lon="19.643496">
<ele>1379.079102</ele>
<time>2012-04-30T19:03:35Z</time>
<desc>lat.=42.924412, lon.=19.643496, Alt.=1379.079102m. Speed=5.796000m/h.</desc>
<speed>1.610000</speed>
</trkpt>
<trkpt lat="42.924488" lon="19.643480">
<ele>1379.891602</ele>
<time>2012-04-30T19:03:40Z</time>
<desc>lat.=42.924488, lon.=19.643480, Alt.=1379.891602m. Speed=4.572000m/h.</desc>
<speed>1.270000</speed>
</trkpt>
<trkpt lat="42.924549" lon="19.643467">
<ele>1378.579102</ele>
<time>2012-04-30T19:03:45Z</time>
<desc>lat.=42.924549, lon.=19.643467, Alt.=1378.579102m. Speed=7.812000m/h.</desc>
<speed>2.170000</speed>
</trkpt>
<trkpt lat="42.924614" lon="19.643429">
<ele>1378.516602</ele>
<time>2012-04-30T19:03:50Z</time>
<desc>lat.=42.924614, lon.=19.643429, Alt.=1378.516602m. Speed=5.256000m/h.</desc>
<speed>1.460000</speed>
</trkpt>
<trkpt lat="42.924702" lon="19.643366">
<ele>1377.454102</ele>
<time>2012-04-30T19:03:55Z</time>
<desc>lat.=42.924702, lon.=19.643366, Alt.=1377.454102m. Speed=5.868000m/h.</desc>
<speed>1.630000</speed>
</trkpt>
<trkpt lat="42.924755" lon="19.643324">
<ele>1376.672852</ele>
<time>2012-04-30T19:04:00Z</time>
<desc>lat.=42.924755, lon.=19.643324, Alt.=1376.672852m. Speed=4.536000m/h.</desc>
<speed>1.260000</speed>
</trkpt>
<trkpt lat="42.924835" lon="19.643324">
<ele>1376.672852</ele>
<time>2012-04-30T19:04:05Z</time>
<desc>lat.=42.924835, lon.=19.643324, Alt.=1376.672852m. Speed=5.148000m/h.</desc>
<speed>1.430000</speed>
</trkpt>
<trkpt lat="42.924900" lon="19.643312">
<ele>1376.172852</ele>
<time>2012-04-30T19:04:10Z</time>
<desc>lat.=42.924900, lon.=19.643312, Alt.=1376.172852m. Speed=5.868000m/h.</desc>
<speed>1.630000</speed>
</trkpt>
<trkpt lat="42.924953" lon="19.643291">
<ele>1375.704102</ele>
<time>2012-04-30T19:04:15Z</time>
<desc>lat.=42.924953, lon.=19.643291, Alt.=1375.704102m. Speed=6.156000m/h.</desc>
<speed>1.710000</speed>
</trkpt>
<trkpt lat="42.924988" lon="19.643253">
<ele>1377.485352</ele>
<time>2012-04-30T19:04:20Z</time>
<desc>lat.=42.924988, lon.=19.643253, Alt.=1377.485352m. Speed=5.508000m/h.</desc>
<speed>1.530000</speed>
</trkpt>
<trkpt lat="42.925064" lon="19.643230">
<ele>1376.735352</ele>
<time>2012-04-30T19:04:25Z</time>
<desc>lat.=42.925064, lon.=19.643230, Alt.=1376.735352m. Speed=5.076000m/h.</desc>
<speed>1.410000</speed>
</trkpt>
<trkpt lat="42.925121" lon="19.643230">
<ele>1377.235352</ele>
<time>2012-04-30T19:04:30Z</time>
<desc>lat.=42.925121, lon.=19.643230, Alt.=1377.235352m. Speed=4.752000m/h.</desc>
<speed>1.320000</speed>
</trkpt>
<trkpt lat="42.925198" lon="19.643211">
<ele>1376.391602</ele>
<time>2012-04-30T19:04:35Z</time>
<desc>lat.=42.925198, lon.=19.643211, Alt.=1376.391602m. Speed=3.204000m/h.</desc>
<speed>0.890000</speed>
</trkpt>
<trkpt lat="42.925262" lon="19.643183">
<ele>1375.016602</ele>
<time>2012-04-30T19:04:40Z</time>
<desc>lat.=42.925262, lon.=19.643183, Alt.=1375.016602m. Speed=5.256000m/h.</desc>
<speed>1.460000</speed>
</trkpt>
<trkpt lat="42.925320" lon="19.643164">
<ele>1373.610352</ele>
<time>2012-04-30T19:04:45Z</time>
<desc>lat.=42.925320, lon.=19.643164, Alt.=1373.610352m. Speed=5.436000m/h.</desc>
<speed>1.510000</speed>
</trkpt>
<trkpt lat="42.925369" lon="19.643158">
<ele>1373.516602</ele>
<time>2012-04-30T19:04:50Z</time>
<desc>lat.=42.925369, lon.=19.643158, Alt.=1373.516602m. Speed=4.536000m/h.</desc>
<speed>1.260000</speed>
</trkpt>
<trkpt lat="42.925426" lon="19.643137">
<ele>1373.485352</ele>
<time>2012-04-30T19:04:55Z</time>
<desc>lat.=42.925426, lon.=19.643137, Alt.=1373.485352m. Speed=4.788000m/h.</desc>
<speed>1.330000</speed>
</trkpt>
<trkpt lat="42.925465" lon="19.643126">
<ele>1377.766602</ele>
<time>2012-04-30T19:05:00Z</time>
<desc>lat.=42.925465, lon.=19.643126, Alt.=1377.766602m. Speed=4.860000m/h.</desc>
<speed>1.350000</speed>
</trkpt>
<trkpt lat="42.925503" lon="19.643108">
<ele>1379.422852</ele>
<time>2012-04-30T19:05:05Z</time>
<desc>lat.=42.925503, lon.=19.643108, Alt.=1379.422852m. Speed=4.680000m/h.</desc>
<speed>1.300000</speed>
</trkpt>
<trkpt lat="42.925579" lon="19.643084">
<ele>1381.047852</ele>
<time>2012-04-30T19:05:10Z</time>
<desc>lat.=42.925579, lon.=19.643084, Alt.=1381.047852m. Speed=9.576000m/h.</desc>
<speed>2.660000</speed>
</trkpt>
<trkpt lat="42.925674" lon="19.643061">
<ele>1382.829102</ele>
<time>2012-04-30T19:05:15Z</time>
<desc>lat.=42.925674, lon.=19.643061, Alt.=1382.829102m. Speed=5.004000m/h.</desc>
<speed>1.390000</speed>
</trkpt>
<trkpt lat="42.925705" lon="19.643063">
<ele>1382.579102</ele>
<time>2012-04-30T19:05:20Z</time>
<desc>lat.=42.925705, lon.=19.643063, Alt.=1382.579102m. Speed=0.180000m/h.</desc>
<speed>0.050000</speed>
</trkpt>
<trkpt lat="42.925705" lon="19.643057">
<ele>1382.704102</ele>
<time>2012-04-30T19:05:25Z</time>
<desc>lat.=42.925705, lon.=19.643057, Alt.=1382.704102m. Speed=0.036000m/h.</desc>
<speed>0.010000</speed>
</trkpt>
<trkpt lat="42.925705" lon="19.643055">
<ele>1382.735352</ele>
<time>2012-04-30T19:05:30Z</time>
<desc>lat.=42.925705, lon.=19.643055, Alt.=1382.735352m. Speed=0.720000m/h.</desc>
<speed>0.200000</speed>
</trkpt>
<trkpt lat="42.925709" lon="19.643057">
<ele>1382.954102</ele>
<time>2012-04-30T19:05:35Z</time>
<desc>lat.=42.925709, lon.=19.643057, Alt.=1382.954102m. Speed=0.108000m/h.</desc>
<speed>0.030000</speed>
</trkpt>
<trkpt lat="42.925709" lon="19.643057">
<ele>1383.047852</ele>
<time>2012-04-30T19:05:40Z</time>
<desc>lat.=42.925709, lon.=19.643057, Alt.=1383.047852m. Speed=0.000000m/h.</desc>
<speed>0.000000</speed>
</trkpt>
<trkpt lat="42.925709" lon="19.643057">
<ele>1383.016602</ele>
<time>2012-04-30T19:05:45Z</time>
<desc>lat.=42.925709, lon.=19.643057, Alt.=1383.016602m. Speed=0.072000m/h.</desc>
<speed>0.020000</speed>
</trkpt>
<trkpt lat="42.925724" lon="19.643047">
<ele>1383.391602</ele>
<time>2012-04-30T19:05:50Z</time>
<desc>lat.=42.925724, lon.=19.643047, Alt.=1383.391602m. Speed=1.728000m/h.</desc>
<speed>0.480000</speed>
</trkpt>
<trkpt lat="42.925758" lon="19.642994">
<ele>1383.297852</ele>
<time>2012-04-30T19:05:55Z</time>
<desc>lat.=42.925758, lon.=19.642994, Alt.=1383.297852m. Speed=3.744000m/h.</desc>
<speed>1.040000</speed>
</trkpt>
<trkpt lat="42.925827" lon="19.642962">
<ele>1382.797852</ele>
<time>2012-04-30T19:06:00Z</time>
<desc>lat.=42.925827, lon.=19.642962, Alt.=1382.797852m. Speed=5.040000m/h.</desc>
<speed>1.400000</speed>
</trkpt>
<trkpt lat="42.925896" lon="19.642981">
<ele>1382.422852</ele>
<time>2012-04-30T19:06:05Z</time>
<desc>lat.=42.925896, lon.=19.642981, Alt.=1382.422852m. Speed=3.564000m/h.</desc>
<speed>0.990000</speed>
</trkpt>
<trkpt lat="42.925957" lon="19.643028">
<ele>1380.922852</ele>
<time>2012-04-30T19:06:10Z</time>
<desc>lat.=42.925957, lon.=19.643028, Alt.=1380.922852m. Speed=3.744000m/h.</desc>
<speed>1.040000</speed>
</trkpt>
<trkpt lat="42.926022" lon="19.643019">
<ele>1377.735352</ele>
<time>2012-04-30T19:06:15Z</time>
<desc>lat.=42.926022, lon.=19.643019, Alt.=1377.735352m. Speed=4.644000m/h.</desc>
<speed>1.290000</speed>
</trkpt>
<trkpt lat="42.926105" lon="19.642908">
<ele>1378.641602</ele>
<time>2012-04-30T19:06:20Z</time>
<desc>lat.=42.926105, lon.=19.642908, Alt.=1378.641602m. Speed=7.668000m/h.</desc>
<speed>2.130000</speed>
</trkpt>
<trkpt lat="42.926193" lon="19.642876">
<ele>1376.735352</ele>
<time>2012-04-30T19:06:25Z</time>
<desc>lat.=42.926193, lon.=19.642876, Alt.=1376.735352m. Speed=7.380000m/h.</desc>
<speed>2.050000</speed>
</trkpt>
<trkpt lat="42.926281" lon="19.642832">
<ele>1374.360352</ele>
<time>2012-04-30T19:06:30Z</time>
<desc>lat.=42.926281, lon.=19.642832, Alt.=1374.360352m. Speed=7.632000m/h.</desc>
<speed>2.120000</speed>
</trkpt>
<trkpt lat="42.926357" lon="19.642790">
<ele>1375.016602</ele>
<time>2012-04-30T19:06:35Z</time>
<desc>lat.=42.926357, lon.=19.642790, Alt.=1375.016602m. Speed=6.588000m/h.</desc>
<speed>1.830000</speed>
</trkpt>
<trkpt lat="42.926414" lon="19.642782">
<ele>1378.172852</ele>
<time>2012-04-30T19:06:40Z</time>
<desc>lat.=42.926414, lon.=19.642782, Alt.=1378.172852m. Speed=5.760000m/h.</desc>
<speed>1.600000</speed>
</trkpt>
<trkpt lat="42.926487" lon="19.642740">
<ele>1379.329102</ele>
<time>2012-04-30T19:06:45Z</time>
<desc>lat.=42.926487, lon.=19.642740, Alt.=1379.329102m. Speed=6.048000m/h.</desc>
<speed>1.680000</speed>
</trkpt>
<trkpt lat="42.926537" lon="19.642694">
<ele>1381.204102</ele>
<time>2012-04-30T19:06:50Z</time>
<desc>lat.=42.926537, lon.=19.642694, Alt.=1381.204102m. Speed=6.732000m/h.</desc>
<speed>1.870000</speed>
</trkpt>
<trkpt lat="42.926601" lon="19.642643">
<ele>1381.954102</ele>
<time>2012-04-30T19:06:55Z</time>
<desc>lat.=42.926601, lon.=19.642643, Alt.=1381.954102m. Speed=6.480000m/h.</desc>
<speed>1.800000</speed>
</trkpt>
<trkpt lat="42.926666" lon="19.642607">
<ele>1383.454102</ele>
<time>2012-04-30T19:07:00Z</time>
<desc>lat.=42.926666, lon.=19.642607, Alt.=1383.454102m. Speed=5.400000m/h.</desc>
<speed>1.500000</speed>
</trkpt>
<trkpt lat="42.926723" lon="19.642555">
<ele>1384.766602</ele>
<time>2012-04-30T19:07:05Z</time>
<desc>lat.=42.926723, lon.=19.642555, Alt.=1384.766602m. Speed=1.008000m/h.</desc>
<speed>0.280000</speed>
</trkpt>
<trkpt lat="42.926762" lon="19.642515">
<ele>1384.891602</ele>
<time>2012-04-30T19:07:10Z</time>
<desc>lat.=42.926762, lon.=19.642515, Alt.=1384.891602m. Speed=4.320000m/h.</desc>
<speed>1.200000</speed>
</trkpt>
<trkpt lat="42.926826" lon="19.642483">
<ele>1385.797852</ele>
<time>2012-04-30T19:07:15Z</time>
<desc>lat.=42.926826, lon.=19.642483, Alt.=1385.797852m. Speed=5.292000m/h.</desc>
<speed>1.470000</speed>
</trkpt>
<trkpt lat="42.926884" lon="19.642414">
<ele>1386.954102</ele>
<time>2012-04-30T19:07:20Z</time>
<desc>lat.=42.926884, lon.=19.642414, Alt.=1386.954102m. Speed=6.372000m/h.</desc>
<speed>1.770000</speed>
</trkpt>
<trkpt lat="42.926960" lon="19.642347">
<ele>1387.985352</ele>
<time>2012-04-30T19:07:25Z</time>
<desc>lat.=42.926960, lon.=19.642347, Alt.=1387.985352m. Speed=7.632000m/h.</desc>
<speed>2.120000</speed>
</trkpt>
<trkpt lat="42.927059" lon="19.642271">
<ele>1388.610352</ele>
<time>2012-04-30T19:07:30Z</time>
<desc>lat.=42.927059, lon.=19.642271, Alt.=1388.610352m. Speed=8.748000m/h.</desc>
<speed>2.430000</speed>
</trkpt>
<trkpt lat="42.927177" lon="19.642233">
<ele>1386.422852</ele>
<time>2012-04-30T19:07:35Z</time>
<desc>lat.=42.927177, lon.=19.642233, Alt.=1386.422852m. Speed=7.992000m/h.</desc>
<speed>2.220000</speed>
</trkpt>
<trkpt lat="42.927277" lon="19.642160">
<ele>1384.641602</ele>
<time>2012-04-30T19:07:40Z</time>
<desc>lat.=42.927277, lon.=19.642160, Alt.=1384.641602m. Speed=9.720000m/h.</desc>
<speed>2.700000</speed>
</trkpt>
<trkpt lat="42.927383" lon="19.642063">
<ele>1384.922852</ele>
<time>2012-04-30T19:07:45Z</time>
<desc>lat.=42.927383, lon.=19.642063, Alt.=1384.922852m. Speed=11.232000m/h.</desc>
<speed>3.120000</speed>
</trkpt>
<trkpt lat="42.927486" lon="19.641916">
<ele>1385.579102</ele>
<time>2012-04-30T19:07:50Z</time>
<desc>lat.=42.927486, lon.=19.641916, Alt.=1385.579102m. Speed=10.368000m/h.</desc>
<speed>2.880000</speed>
</trkpt>
<trkpt lat="42.927559" lon="19.641834">
<ele>1386.329102</ele>
<time>2012-04-30T19:07:55Z</time>
<desc>lat.=42.927559, lon.=19.641834, Alt.=1386.329102m. Speed=5.868000m/h.</desc>
<speed>1.630000</speed>
</trkpt>
<trkpt lat="42.927662" lon="19.641756">
<ele>1386.704102</ele>
<time>2012-04-30T19:08:00Z</time>
<desc>lat.=42.927662, lon.=19.641756, Alt.=1386.704102m. Speed=11.304000m/h.</desc>
<speed>3.140000</speed>
</trkpt>
<trkpt lat="42.927769" lon="19.641693">
<ele>1386.860352</ele>
<time>2012-04-30T19:08:05Z</time>
<desc>lat.=42.927769, lon.=19.641693, Alt.=1386.860352m. Speed=8.136000m/h.</desc>
<speed>2.260000</speed>
</trkpt>
<trkpt lat="42.927879" lon="19.641630">
<ele>1386.829102</ele>
<time>2012-04-30T19:08:10Z</time>
<desc>lat.=42.927879, lon.=19.641630, Alt.=1386.829102m. Speed=8.568000m/h.</desc>
<speed>2.380000</speed>
</trkpt>
<trkpt lat="42.927975" lon="19.641586">
<ele>1388.172852</ele>
<time>2012-04-30T19:08:15Z</time>
<desc>lat.=42.927975, lon.=19.641586, Alt.=1388.172852m. Speed=7.128000m/h.</desc>
<speed>1.980000</speed>
</trkpt>
<trkpt lat="42.928070" lon="19.641562">
<ele>1388.454102</ele>
<time>2012-04-30T19:08:20Z</time>
<desc>lat.=42.928070, lon.=19.641562, Alt.=1388.454102m. Speed=8.388000m/h.</desc>
<speed>2.330000</speed>
</trkpt>
<trkpt lat="42.928177" lon="19.641497">
<ele>1385.235352</ele>
<time>2012-04-30T19:08:25Z</time>
<desc>lat.=42.928177, lon.=19.641497, Alt.=1385.235352m. Speed=9.360000m/h.</desc>
<speed>2.600000</speed>
</trkpt>
<trkpt lat="42.928318" lon="19.641449">
<ele>1382.891602</ele>
<time>2012-04-30T19:08:30Z</time>
<desc>lat.=42.928318, lon.=19.641449, Alt.=1382.891602m. Speed=11.808000m/h.</desc>
<speed>3.280000</speed>
</trkpt>
<trkpt lat="42.928444" lon="19.641329">
<ele>1380.079102</ele>
<time>2012-04-30T19:08:35Z</time>
<desc>lat.=42.928444, lon.=19.641329, Alt.=1380.079102m. Speed=14.688000m/h.</desc>
<speed>4.080000</speed>
</trkpt>
<trkpt lat="42.928642" lon="19.641233">
<ele>1377.922852</ele>
<time>2012-04-30T19:08:40Z</time>
<desc>lat.=42.928642, lon.=19.641233, Alt.=1377.922852m. Speed=16.920000m/h.</desc>
<speed>4.700000</speed>
</trkpt>
<trkpt lat="42.928787" lon="19.641113">
<ele>1378.204102</ele>
<time>2012-04-30T19:08:45Z</time>
<desc>lat.=42.928787, lon.=19.641113, Alt.=1378.204102m. Speed=15.228000m/h.</desc>
<speed>4.230000</speed>
</trkpt>
<trkpt lat="42.928944" lon="19.640957">
<ele>1378.047852</ele>
<time>2012-04-30T19:08:50Z</time>
<desc>lat.=42.928944, lon.=19.640957, Alt.=1378.047852m. Speed=16.416000m/h.</desc>
<speed>4.560000</speed>
</trkpt>
<trkpt lat="42.929092" lon="19.640804">
<ele>1376.391602</ele>
<time>2012-04-30T19:08:55Z</time>
<desc>lat.=42.929092, lon.=19.640804, Alt.=1376.391602m. Speed=15.048000m/h.</desc>
<speed>4.180000</speed>
</trkpt>
<trkpt lat="42.929226" lon="19.640701">
<ele>1376.547852</ele>
<time>2012-04-30T19:09:00Z</time>
<desc>lat.=42.929226, lon.=19.640701, Alt.=1376.547852m. Speed=12.060000m/h.</desc>
<speed>3.350000</speed>
</trkpt>
<trkpt lat="42.929333" lon="19.640608">
<ele>1375.579102</ele>
<time>2012-04-30T19:09:05Z</time>
<desc>lat.=42.929333, lon.=19.640608, Alt.=1375.579102m. Speed=10.116000m/h.</desc>
<speed>2.810000</speed>
</trkpt>
<trkpt lat="42.929436" lon="19.640469">
<ele>1376.579102</ele>
<time>2012-04-30T19:09:10Z</time>
<desc>lat.=42.929436, lon.=19.640469, Alt.=1376.579102m. Speed=11.628000m/h.</desc>
<speed>3.230000</speed>
</trkpt>
<trkpt lat="42.929550" lon="19.640352">
<ele>1377.235352</ele>
<time>2012-04-30T19:09:15Z</time>
<desc>lat.=42.929550, lon.=19.640352, Alt.=1377.235352m. Speed=13.644000m/h.</desc>
<speed>3.790000</speed>
</trkpt>
<trkpt lat="42.929680" lon="19.640261">
<ele>1376.016602</ele>
<time>2012-04-30T19:09:20Z</time>
<desc>lat.=42.929680, lon.=19.640261, Alt.=1376.016602m. Speed=9.828000m/h.</desc>
<speed>2.730000</speed>
</trkpt>
<trkpt lat="42.929756" lon="19.640182">
<ele>1375.235352</ele>
<time>2012-04-30T19:09:25Z</time>
<desc>lat.=42.929756, lon.=19.640182, Alt.=1375.235352m. Speed=7.344000m/h.</desc>
<speed>2.040000</speed>
</trkpt>
<trkpt lat="42.929760" lon="19.640150">
<ele>1378.047852</ele>
<time>2012-04-30T19:09:30Z</time>
<desc>lat.=42.929760, lon.=19.640150, Alt.=1378.047852m. Speed=0.108000m/h.</desc>
<speed>0.030000</speed>
</trkpt>
<trkpt lat="42.929760" lon="19.640150">
<ele>1377.954102</ele>
<time>2012-04-30T19:09:35Z</time>
<desc>lat.=42.929760, lon.=19.640150, Alt.=1377.954102m. Speed=1.548000m/h.</desc>
<speed>0.430000</speed>
</trkpt>
<trkpt lat="42.929764" lon="19.640142">
<ele>1377.641602</ele>
<time>2012-04-30T19:09:40Z</time>
<desc>lat.=42.929764, lon.=19.640142, Alt.=1377.641602m. Speed=0.144000m/h.</desc>
<speed>0.040000</speed>
</trkpt>
<trkpt lat="42.929764" lon="19.640142">
<ele>1377.610352</ele>
<time>2012-04-30T19:09:45Z</time>
<desc>lat.=42.929764, lon.=19.640142, Alt.=1377.610352m. Speed=0.036000m/h.</desc>
<speed>0.010000</speed>
</trkpt>
<trkpt lat="42.929764" lon="19.640142">
<ele>1377.610352</ele>
<time>2012-04-30T19:09:50Z</time>
<desc>lat.=42.929764, lon.=19.640142, Alt.=1377.610352m. Speed=0.000000m/h.</desc>
<speed>0.000000</speed>
</trkpt>
<trkpt lat="42.929764" lon="19.640144">
<ele>1377.641602</ele>
<time>2012-04-30T19:09:55Z</time>
<desc>lat.=42.929764, lon.=19.640144, Alt.=1377.641602m. Speed=0.000000m/h.</desc>
<speed>0.000000</speed>
</trkpt>
<trkpt lat="42.929764" lon="19.640144">
<ele>1377.641602</ele>
<time>2012-04-30T19:10:00Z</time>
<desc>lat.=42.929764, lon.=19.640144, Alt.=1377.641602m. Speed=0.000000m/h.</desc>
<speed>0.000000</speed>
</trkpt>
<trkpt lat="42.929764" lon="19.640146">
<ele>1377.641602</ele>
<time>2012-04-30T19:10:05Z</time>
<desc>lat.=42.929764, lon.=19.640146, Alt.=1377.641602m. Speed=0.072000m/h.</desc>
<speed>0.020000</speed>
</trkpt>
<trkpt lat="42.929764" lon="19.640146">
<ele>1377.641602</ele>
<time>2012-04-30T19:10:10Z</time>
<desc>lat.=42.929764, lon.=19.640146, Alt.=1377.641602m. Speed=0.000000m/h.</desc>
<speed>0.000000</speed>
</trkpt>
<trkpt lat="42.929764" lon="19.640146">
<ele>1377.641602</ele>
<time>2012-04-30T19:10:15Z</time>
<desc>lat.=42.929764, lon.=19.640146, Alt.=1377.641602m. Speed=0.000000m/h.</desc>
<speed>0.000000</speed>
</trkpt>
<trkpt lat="42.929764" lon="19.640148">
<ele>1377.610352</ele>
<time>2012-04-30T19:10:20Z</time>
<desc>lat.=42.929764, lon.=19.640148, Alt.=1377.610352m. Speed=0.000000m/h.</desc>
<speed>0.000000</speed>
</trkpt>
<trkpt lat="42.929764" lon="19.640148">
<ele>1377.547852</ele>
<time>2012-04-30T19:10:25Z</time>
<desc>lat.=42.929764, lon.=19.640148, Alt.=1377.547852m. Speed=0.648000m/h.</desc>
<speed>0.180000</speed>
</trkpt>
<trkpt lat="42.929760" lon="19.640150">
<ele>1377.422852</ele>
<time>2012-04-30T19:10:30Z</time>
<desc>lat.=42.929760, lon.=19.640150, Alt.=1377.422852m. Speed=2.484000m/h.</desc>
<speed>0.690000</speed>
</trkpt>
<trkpt lat="42.929855" lon="19.640120">
<ele>1377.735352</ele>
<time>2012-04-30T19:10:35Z</time>
<desc>lat.=42.929855, lon.=19.640120, Alt.=1377.735352m. Speed=9.072000m/h.</desc>
<speed>2.520000</speed>
</trkpt>
<trkpt lat="42.929893" lon="19.640120">
<ele>1378.672852</ele>
<time>2012-04-30T19:10:40Z</time>
<desc>lat.=42.929893, lon.=19.640120, Alt.=1378.672852m. Speed=0.468000m/h.</desc>
<speed>0.130000</speed>
</trkpt>
<trkpt lat="42.929897" lon="19.640121">
<ele>1378.860352</ele>
<time>2012-04-30T19:10:45Z</time>
<desc>lat.=42.929897, lon.=19.640121, Alt.=1378.860352m. Speed=0.108000m/h.</desc>
<speed>0.030000</speed>
</trkpt>
<trkpt lat="42.929897" lon="19.640120">
<ele>1378.985352</ele>
<time>2012-04-30T19:10:50Z</time>
<desc>lat.=42.929897, lon.=19.640120, Alt.=1378.985352m. Speed=0.504000m/h.</desc>
<speed>0.140000</speed>
</trkpt>
<trkpt lat="42.929893" lon="19.640116">
<ele>1379.110352</ele>
<time>2012-04-30T19:10:55Z</time>
<desc>lat.=42.929893, lon.=19.640116, Alt.=1379.110352m. Speed=0.036000m/h.</desc>
<speed>0.010000</speed>
</trkpt>
<trkpt lat="42.929893" lon="19.640118">
<ele>1379.172852</ele>
<time>2012-04-30T19:11:00Z</time>
<desc>lat.=42.929893, lon.=19.640118, Alt.=1379.172852m. Speed=0.108000m/h.</desc>
<speed>0.030000</speed>
</trkpt>
<trkpt lat="42.929893" lon="19.640118">
<ele>1379.172852</ele>
<time>2012-04-30T19:11:05Z</time>
<desc>lat.=42.929893, lon.=19.640118, Alt.=1379.172852m. Speed=0.000000m/h.</desc>
<speed>0.000000</speed>
</trkpt>
<trkpt lat="42.929893" lon="19.640116">
<ele>1379.172852</ele>
<time>2012-04-30T19:11:10Z</time>
<desc>lat.=42.929893, lon.=19.640116, Alt.=1379.172852m. Speed=1.620000m/h.</desc>
<speed>0.450000</speed>
</trkpt>
<trkpt lat="42.930016" lon="19.640131">
<ele>1379.704102</ele>
<time>2012-04-30T19:11:15Z</time>
<desc>lat.=42.930016, lon.=19.640131, Alt.=1379.704102m. Speed=13.824000m/h.</desc>
<speed>3.840000</speed>
</trkpt>
<trkpt lat="42.930206" lon="19.640173">
<ele>1380.047852</ele>
<time>2012-04-30T19:11:20Z</time>
<desc>lat.=42.930206, lon.=19.640173, Alt.=1380.047852m. Speed=15.732000m/h.</desc>
<speed>4.370000</speed>
</trkpt>
<trkpt lat="42.930359" lon="19.640223">
<ele>1380.235352</ele>
<time>2012-04-30T19:11:25Z</time>
<desc>lat.=42.930359, lon.=19.640223, Alt.=1380.235352m. Speed=11.340000m/h.</desc>
<speed>3.150000</speed>
</trkpt>
<trkpt lat="42.930508" lon="19.640293">
<ele>1378.422852</ele>
<time>2012-04-30T19:11:30Z</time>
<desc>lat.=42.930508, lon.=19.640293, Alt.=1378.422852m. Speed=13.860000m/h.</desc>
<speed>3.850000</speed>
</trkpt>
<trkpt lat="42.930679" lon="19.640312">
<ele>1377.985352</ele>
<time>2012-04-30T19:11:35Z</time>
<desc>lat.=42.930679, lon.=19.640312, Alt.=1377.985352m. Speed=12.528000m/h.</desc>
<speed>3.480000</speed>
</trkpt>
<trkpt lat="42.930843" lon="19.640253">
<ele>1377.891602</ele>
<time>2012-04-30T19:11:40Z</time>
<desc>lat.=42.930843, lon.=19.640253, Alt.=1377.891602m. Speed=13.500000m/h.</desc>
<speed>3.750000</speed>
</trkpt>
<trkpt lat="42.931019" lon="19.640173">
<ele>1378.422852</ele>
<time>2012-04-30T19:11:45Z</time>
<desc>lat.=42.931019, lon.=19.640173, Alt.=1378.422852m. Speed=12.024000m/h.</desc>
<speed>3.340000</speed>
</trkpt>
<trkpt lat="42.931107" lon="19.640169">
<ele>1378.547852</ele>
<time>2012-04-30T19:11:50Z</time>
<desc>lat.=42.931107, lon.=19.640169, Alt.=1378.547852m. Speed=6.480000m/h.</desc>
<speed>1.800000</speed>
</trkpt>
<trkpt lat="42.931175" lon="19.640171">
<ele>1378.329102</ele>
<time>2012-04-30T19:11:55Z</time>
<desc>lat.=42.931175, lon.=19.640171, Alt.=1378.329102m. Speed=4.716000m/h.</desc>
<speed>1.310000</speed>
</trkpt>
<trkpt lat="42.931240" lon="19.640135">
<ele>1379.610352</ele>
<time>2012-04-30T19:12:00Z</time>
<desc>lat.=42.931240, lon.=19.640135, Alt.=1379.610352m. Speed=6.480000m/h.</desc>
<speed>1.800000</speed>
</trkpt>
<trkpt lat="42.931301" lon="19.640093">
<ele>1380.922852</ele>
<time>2012-04-30T19:12:05Z</time>
<desc>lat.=42.931301, lon.=19.640093, Alt.=1380.922852m. Speed=5.652000m/h.</desc>
<speed>1.570000</speed>
</trkpt>
<trkpt lat="42.931366" lon="19.640049">
<ele>1382.516602</ele>
<time>2012-04-30T19:12:10Z</time>
<desc>lat.=42.931366, lon.=19.640049, Alt.=1382.516602m. Speed=5.004000m/h.</desc>
<speed>1.390000</speed>
</trkpt>
<trkpt lat="42.931435" lon="19.640007">
<ele>1383.516602</ele>
<time>2012-04-30T19:12:15Z</time>
<desc>lat.=42.931435, lon.=19.640007, Alt.=1383.516602m. Speed=6.768000m/h.</desc>
<speed>1.880000</speed>
</trkpt>
<trkpt lat="42.931526" lon="19.640001">
<ele>1384.610352</ele>
<time>2012-04-30T19:12:20Z</time>
<desc>lat.=42.931526, lon.=19.640001, Alt.=1384.610352m. Speed=6.876000m/h.</desc>
<speed>1.910000</speed>
</trkpt>
<trkpt lat="42.931610" lon="19.640047">
<ele>1385.860352</ele>
<time>2012-04-30T19:12:25Z</time>
<desc>lat.=42.931610, lon.=19.640047, Alt.=1385.860352m. Speed=4.572000m/h.</desc>
<speed>1.270000</speed>
</trkpt>
<trkpt lat="42.931747" lon="19.640087">
<ele>1386.829102</ele>
<time>2012-04-30T19:12:30Z</time>
<desc>lat.=42.931747, lon.=19.640087, Alt.=1386.829102m. Speed=6.192000m/h.</desc>
<speed>1.720000</speed>
</trkpt>
<trkpt lat="42.931843" lon="19.640062">
<ele>1387.266602</ele>
<time>2012-04-30T19:12:35Z</time>
<desc>lat.=42.931843, lon.=19.640062, Alt.=1387.266602m. Speed=5.148000m/h.</desc>
<speed>1.430000</speed>
</trkpt>
<trkpt lat="42.931969" lon="19.640074">
<ele>1388.360352</ele>
<time>2012-04-30T19:12:40Z</time>
<desc>lat.=42.931969, lon.=19.640074, Alt.=1388.360352m. Speed=7.344000m/h.</desc>
<speed>2.040000</speed>
</trkpt>
<trkpt lat="42.932037" lon="19.640091">
<ele>1388.579102</ele>
<time>2012-04-30T19:12:45Z</time>
<desc>lat.=42.932037, lon.=19.640091, Alt.=1388.579102m. Speed=4.176000m/h.</desc>
<speed>1.160000</speed>
</trkpt>
<trkpt lat="42.932148" lon="19.640110">
<ele>1387.954102</ele>
<time>2012-04-30T19:12:50Z</time>
<desc>lat.=42.932148, lon.=19.640110, Alt.=1387.954102m. Speed=7.560000m/h.</desc>
<speed>2.100000</speed>
</trkpt>
<trkpt lat="42.932220" lon="19.640093">
<ele>1387.016602</ele>
<time>2012-04-30T19:12:55Z</time>
<desc>lat.=42.932220, lon.=19.640093, Alt.=1387.016602m. Speed=4.824000m/h.</desc>
<speed>1.340000</speed>
</trkpt>
<trkpt lat="42.932281" lon="19.640064">
<ele>1386.422852</ele>
<time>2012-04-30T19:13:00Z</time>
<desc>lat.=42.932281, lon.=19.640064, Alt.=1386.422852m. Speed=3.888000m/h.</desc>
<speed>1.080000</speed>
</trkpt>
<trkpt lat="42.932377" lon="19.640024">
<ele>1385.579102</ele>
<time>2012-04-30T19:13:05Z</time>
<desc>lat.=42.932377, lon.=19.640024, Alt.=1385.579102m. Speed=4.104000m/h.</desc>
<speed>1.140000</speed>
</trkpt>
<trkpt lat="42.932491" lon="19.639963">
<ele>1384.172852</ele>
<time>2012-04-30T19:13:10Z</time>
<desc>lat.=42.932491, lon.=19.639963, Alt.=1384.172852m. Speed=7.020000m/h.</desc>
<speed>1.950000</speed>
</trkpt>
<trkpt lat="42.932579" lon="19.639931">
<ele>1382.954102</ele>
<time>2012-04-30T19:13:15Z</time>
<desc>lat.=42.932579, lon.=19.639931, Alt.=1382.954102m. Speed=6.948000m/h.</desc>
<speed>1.930000</speed>
</trkpt>
<trkpt lat="42.932693" lon="19.639902">
<ele>1381.954102</ele>
<time>2012-04-30T19:13:20Z</time>
<desc>lat.=42.932693, lon.=19.639902, Alt.=1381.954102m. Speed=3.168000m/h.</desc>
<speed>0.880000</speed>
</trkpt>
<trkpt lat="42.932823" lon="19.639872">
<ele>1380.985352</ele>
<time>2012-04-30T19:13:25Z</time>
<desc>lat.=42.932823, lon.=19.639872, Alt.=1380.985352m. Speed=2.988000m/h.</desc>
<speed>0.830000</speed>
</trkpt>
<trkpt lat="42.933022" lon="19.639790">
<ele>1381.016602</ele>
<time>2012-04-30T19:13:30Z</time>
<desc>lat.=42.933022, lon.=19.639790, Alt.=1381.016602m. Speed=6.084000m/h.</desc>
<speed>1.690000</speed>
</trkpt>
<trkpt lat="42.933159" lon="19.639755">
<ele>1381.172852</ele>
<time>2012-04-30T19:13:35Z</time>
<desc>lat.=42.933159, lon.=19.639755, Alt.=1381.172852m. Speed=6.228000m/h.</desc>
<speed>1.730000</speed>
</trkpt>
<trkpt lat="42.933319" lon="19.639715">
<ele>1379.922852</ele>
<time>2012-04-30T19:13:40Z</time>
<desc>lat.=42.933319, lon.=19.639715, Alt.=1379.922852m. Speed=10.620000m/h.</desc>
<speed>2.950000</speed>
</trkpt>
<trkpt lat="42.933475" lon="19.639694">
<ele>1378.829102</ele>
<time>2012-04-30T19:13:45Z</time>
<desc>lat.=42.933475, lon.=19.639694, Alt.=1378.829102m. Speed=7.848000m/h.</desc>
<speed>2.180000</speed>
</trkpt>
<trkpt lat="42.933594" lon="19.639656">
<ele>1377.516602</ele>
<time>2012-04-30T19:13:50Z</time>
<desc>lat.=42.933594, lon.=19.639656, Alt.=1377.516602m. Speed=13.716000m/h.</desc>
<speed>3.810000</speed>
</trkpt>
<trkpt lat="42.933704" lon="19.639639">
<ele>1376.547852</ele>
<time>2012-04-30T19:13:55Z</time>
<desc>lat.=42.933704, lon.=19.639639, Alt.=1376.547852m. Speed=6.732000m/h.</desc>
<speed>1.870000</speed>
</trkpt>
<trkpt lat="42.933819" lon="19.639637">
<ele>1375.547852</ele>
<time>2012-04-30T19:14:00Z</time>
<desc>lat.=42.933819, lon.=19.639637, Alt.=1375.547852m. Speed=7.632000m/h.</desc>
<speed>2.120000</speed>
</trkpt>
<trkpt lat="42.933922" lon="19.639668">
<ele>1374.954102</ele>
<time>2012-04-30T19:14:05Z</time>
<desc>lat.=42.933922, lon.=19.639668, Alt.=1374.954102m. Speed=5.796000m/h.</desc>
<speed>1.610000</speed>
</trkpt>
<trkpt lat="42.934113" lon="19.639629">
<ele>1374.547852</ele>
<time>2012-04-30T19:14:10Z</time>
<desc>lat.=42.934113, lon.=19.639629, Alt.=1374.547852m. Speed=8.208000m/h.</desc>
<speed>2.280000</speed>
</trkpt>
<trkpt lat="42.934319" lon="19.639647">
<ele>1373.172852</ele>
<time>2012-04-30T19:14:15Z</time>
<desc>lat.=42.934319, lon.=19.639647, Alt.=1373.172852m. Speed=13.068000m/h.</desc>
<speed>3.630000</speed>
</trkpt>
<trkpt lat="42.934406" lon="19.639679">
<ele>1371.891602</ele>
<time>2012-04-30T19:14:20Z</time>
<desc>lat.=42.934406, lon.=19.639679, Alt.=1371.891602m. Speed=2.304000m/h.</desc>
<speed>0.640000</speed>
</trkpt>
<trkpt lat="42.934452" lon="19.639671">
<ele>1370.610352</ele>
<time>2012-04-30T19:14:25Z</time>
<desc>lat.=42.934452, lon.=19.639671, Alt.=1370.610352m. Speed=3.816000m/h.</desc>
<speed>1.060000</speed>
</trkpt>
<trkpt lat="42.934597" lon="19.639660">
<ele>1368.891602</ele>
<time>2012-04-30T19:14:30Z</time>
<desc>lat.=42.934597, lon.=19.639660, Alt.=1368.891602m. Speed=9.828000m/h.</desc>
<speed>2.730000</speed>
</trkpt>
<trkpt lat="42.934704" lon="19.639685">
<ele>1367.735352</ele>
<time>2012-04-30T19:14:35Z</time>
<desc>lat.=42.934704, lon.=19.639685, Alt.=1367.735352m. Speed=3.888000m/h.</desc>
<speed>1.080000</speed>
</trkpt>
<trkpt lat="42.934834" lon="19.639669">
<ele>1366.391602</ele>
<time>2012-04-30T19:14:40Z</time>
<desc>lat.=42.934834, lon.=19.639669, Alt.=1366.391602m. Speed=5.760000m/h.</desc>
<speed>1.600000</speed>
</trkpt>
<trkpt lat="42.934895" lon="19.639683">
<ele>1365.954102</ele>
<time>2012-04-30T19:14:45Z</time>
<desc>lat.=42.934895, lon.=19.639683, Alt.=1365.954102m. Speed=2.412000m/h.</desc>
<speed>0.670000</speed>
</trkpt>
<trkpt lat="42.935104" lon="19.639549">
<ele>1364.329102</ele>
<time>2012-04-30T19:14:50Z</time>
<desc>lat.=42.935104, lon.=19.639549, Alt.=1364.329102m. Speed=10.080000m/h.</desc>
<speed>2.800000</speed>
</trkpt>
<trkpt lat="42.935223" lon="19.639462">
<ele>1362.797852</ele>
<time>2012-04-30T19:14:55Z</time>
<desc>lat.=42.935223, lon.=19.639462, Alt.=1362.797852m. Speed=7.092000m/h.</desc>
<speed>1.970000</speed>
</trkpt>
<trkpt lat="42.935360" lon="19.639368">
<ele>1362.766602</ele>
<time>2012-04-30T19:15:00Z</time>
<desc>lat.=42.935360, lon.=19.639368, Alt.=1362.766602m. Speed=5.904000m/h.</desc>
<speed>1.640000</speed>
</trkpt>
<trkpt lat="42.935432" lon="19.639256">
<ele>1364.579102</ele>
<time>2012-04-30T19:15:05Z</time>
<desc>lat.=42.935432, lon.=19.639256, Alt.=1364.579102m. Speed=7.488000m/h.</desc>
<speed>2.080000</speed>
</trkpt>
<trkpt lat="42.935509" lon="19.639137">
<ele>1363.610352</ele>
<time>2012-04-30T19:15:10Z</time>
<desc>lat.=42.935509, lon.=19.639137, Alt.=1363.610352m. Speed=8.352000m/h.</desc>
<speed>2.320000</speed>
</trkpt>
<trkpt lat="42.935596" lon="19.639013">
<ele>1362.235352</ele>
<time>2012-04-30T19:15:15Z</time>
<desc>lat.=42.935596, lon.=19.639013, Alt.=1362.235352m. Speed=9.288000m/h.</desc>
<speed>2.580000</speed>
</trkpt>
<trkpt lat="42.935661" lon="19.638872">
<ele>1360.891602</ele>
<time>2012-04-30T19:15:20Z</time>
<desc>lat.=42.935661, lon.=19.638872, Alt.=1360.891602m. Speed=7.128000m/h.</desc>
<speed>1.980000</speed>
</trkpt>
<trkpt lat="42.935722" lon="19.638830">
<ele>1359.110352</ele>
<time>2012-04-30T19:15:25Z</time>
<desc>lat.=42.935722, lon.=19.638830, Alt.=1359.110352m. Speed=2.628000m/h.</desc>
<speed>0.730000</speed>
</trkpt>
<trkpt lat="42.935722" lon="19.638798">
<ele>1357.891602</ele>
<time>2012-04-30T19:15:30Z</time>
<desc>lat.=42.935722, lon.=19.638798, Alt.=1357.891602m. Speed=0.828000m/h.</desc>
<speed>0.230000</speed>
</trkpt>
<trkpt lat="42.935745" lon="19.638727">
<ele>1357.329102</ele>
<time>2012-04-30T19:15:35Z</time>
<desc>lat.=42.935745, lon.=19.638727, Alt.=1357.329102m. Speed=6.768000m/h.</desc>
<speed>1.880000</speed>
</trkpt>
<trkpt lat="42.935841" lon="19.638641">
<ele>1356.672852</ele>
<time>2012-04-30T19:15:40Z</time>
<desc>lat.=42.935841, lon.=19.638641, Alt.=1356.672852m. Speed=8.820000m/h.</desc>
<speed>2.450000</speed>
</trkpt>
<trkpt lat="42.935940" lon="19.638523">
<ele>1356.516602</ele>
<time>2012-04-30T19:15:45Z</time>
<desc>lat.=42.935940, lon.=19.638523, Alt.=1356.516602m. Speed=10.728000m/h.</desc>
<speed>2.980000</speed>
</trkpt>
<trkpt lat="42.936028" lon="19.638428">
<ele>1357.672852</ele>
<time>2012-04-30T19:15:50Z</time>
<desc>lat.=42.936028, lon.=19.638428, Alt.=1357.672852m. Speed=8.028000m/h.</desc>
<speed>2.230000</speed>
</trkpt>
<trkpt lat="42.936104" lon="19.638367">
<ele>1359.422852</ele>
<time>2012-04-30T19:15:55Z</time>
<desc>lat.=42.936104, lon.=19.638367, Alt.=1359.422852m. Speed=5.400000m/h.</desc>
<speed>1.500000</speed>
</trkpt>
<trkpt lat="42.936161" lon="19.638348">
<ele>1359.954102</ele>
<time>2012-04-30T19:16:00Z</time>
<desc>lat.=42.936161, lon.=19.638348, Alt.=1359.954102m. Speed=3.924000m/h.</desc>
<speed>1.090000</speed>
</trkpt>
<trkpt lat="42.936218" lon="19.638338">
<ele>1360.204102</ele>
<time>2012-04-30T19:16:05Z</time>
<desc>lat.=42.936218, lon.=19.638338, Alt.=1360.204102m. Speed=2.628000m/h.</desc>
<speed>0.730000</speed>
</trkpt>
<trkpt lat="42.936253" lon="19.638323">
<ele>1361.141602</ele>
<time>2012-04-30T19:16:10Z</time>
<desc>lat.=42.936253, lon.=19.638323, Alt.=1361.141602m. Speed=5.148000m/h.</desc>
<speed>1.430000</speed>
</trkpt>
<trkpt lat="42.936306" lon="19.638237">
<ele>1361.547852</ele>
<time>2012-04-30T19:16:15Z</time>
<desc>lat.=42.936306, lon.=19.638237, Alt.=1361.547852m. Speed=5.940000m/h.</desc>
<speed>1.650000</speed>
</trkpt>
<trkpt lat="42.936401" lon="19.638176">
<ele>1361.016602</ele>
<time>2012-04-30T19:16:20Z</time>
<desc>lat.=42.936401, lon.=19.638176, Alt.=1361.016602m. Speed=7.344000m/h.</desc>
<speed>2.040000</speed>
</trkpt>
<trkpt lat="42.936466" lon="19.638100">
<ele>1360.891602</ele>
<time>2012-04-30T19:16:25Z</time>
<desc>lat.=42.936466, lon.=19.638100, Alt.=1360.891602m. Speed=6.048000m/h.</desc>
<speed>1.680000</speed>
</trkpt>
<trkpt lat="42.936493" lon="19.638044">
<ele>1360.329102</ele>
<time>2012-04-30T19:16:30Z</time>
<desc>lat.=42.936493, lon.=19.638044, Alt.=1360.329102m. Speed=0.684000m/h.</desc>
<speed>0.190000</speed>
</trkpt>
<trkpt lat="42.936501" lon="19.638039">
<ele>1359.360352</ele>
<time>2012-04-30T19:16:35Z</time>
<desc>lat.=42.936501, lon.=19.638039, Alt.=1359.360352m. Speed=0.252000m/h.</desc>
<speed>0.070000</speed>
</trkpt>
<trkpt lat="42.936501" lon="19.638039">
<ele>1359.047852</ele>
<time>2012-04-30T19:16:40Z</time>
<desc>lat.=42.936501, lon.=19.638039, Alt.=1359.047852m. Speed=0.036000m/h.</desc>
<speed>0.010000</speed>
</trkpt>
<trkpt lat="42.936501" lon="19.638039">
<ele>1358.891602</ele>
<time>2012-04-30T19:16:45Z</time>
<desc>lat.=42.936501, lon.=19.638039, Alt.=1358.891602m. Speed=0.000000m/h.</desc>
<speed>0.000000</speed>
</trkpt>
<trkpt lat="42.936501" lon="19.638039">
<ele>1358.797852</ele>
<time>2012-04-30T19:16:50Z</time>
<desc>lat.=42.936501, lon.=19.638039, Alt.=1358.797852m. Speed=0.108000m/h.</desc>
<speed>0.030000</speed>
</trkpt>
<trkpt lat="42.936501" lon="19.638039">
<ele>1358.766602</ele>
<time>2012-04-30T19:16:55Z</time>
<desc>lat.=42.936501, lon.=19.638039, Alt.=1358.766602m. Speed=0.432000m/h.</desc>
<speed>0.120000</speed>
</trkpt>
<trkpt lat="42.936550" lon="19.637993">
<ele>1358.110352</ele>
<time>2012-04-30T19:17:00Z</time>
<desc>lat.=42.936550, lon.=19.637993, Alt.=1358.110352m. Speed=10.512000m/h.</desc>
<speed>2.920000</speed>
</trkpt>
<trkpt lat="42.936649" lon="19.637901">
<ele>1356.766602</ele>
<time>2012-04-30T19:17:05Z</time>
<desc>lat.=42.936649, lon.=19.637901, Alt.=1356.766602m. Speed=8.244000m/h.</desc>
<speed>2.290000</speed>
</trkpt>
<trkpt lat="42.936733" lon="19.637825">
<ele>1356.141602</ele>
<time>2012-04-30T19:17:10Z</time>
<desc>lat.=42.936733, lon.=19.637825, Alt.=1356.141602m. Speed=5.508000m/h.</desc>
<speed>1.530000</speed>
</trkpt>
<trkpt lat="42.936810" lon="19.637745">
<ele>1355.360352</ele>
<time>2012-04-30T19:17:15Z</time>
<desc>lat.=42.936810, lon.=19.637745, Alt.=1355.360352m. Speed=4.464000m/h.</desc>
<speed>1.240000</speed>
</trkpt>
<trkpt lat="42.936890" lon="19.637693">
<ele>1354.391602</ele>
<time>2012-04-30T19:17:20Z</time>
<desc>lat.=42.936890, lon.=19.637693, Alt.=1354.391602m. Speed=7.020000m/h.</desc>
<speed>1.950000</speed>
</trkpt>
<trkpt lat="42.936974" lon="19.637602">
<ele>1354.579102</ele>
<time>2012-04-30T19:17:25Z</time>
<desc>lat.=42.936974, lon.=19.637602, Alt.=1354.579102m. Speed=7.200000m/h.</desc>
<speed>2.000000</speed>
</trkpt>
<trkpt lat="42.937054" lon="19.637514">
<ele>1355.266602</ele>
<time>2012-04-30T19:17:30Z</time>
<desc>lat.=42.937054, lon.=19.637514, Alt.=1355.266602m. Speed=7.416000m/h.</desc>
<speed>2.060000</speed>
</trkpt>
<trkpt lat="42.937130" lon="19.637432">
<ele>1358.235352</ele>
<time>2012-04-30T19:17:35Z</time>
<desc>lat.=42.937130, lon.=19.637432, Alt.=1358.235352m. Speed=6.552000m/h.</desc>
<speed>1.820000</speed>
</trkpt>
<trkpt lat="42.937202" lon="19.637403">
<ele>1359.766602</ele>
<time>2012-04-30T19:17:40Z</time>
<desc>lat.=42.937202, lon.=19.637403, Alt.=1359.766602m. Speed=6.372000m/h.</desc>
<speed>1.770000</speed>
</trkpt>
<trkpt lat="42.937271" lon="19.637358">
<ele>1360.391602</ele>
<time>2012-04-30T19:17:45Z</time>
<desc>lat.=42.937271, lon.=19.637358, Alt.=1360.391602m. Speed=6.768000m/h.</desc>
<speed>1.880000</speed>
</trkpt>
<trkpt lat="42.937317" lon="19.637304">
<ele>1361.672852</ele>
<time>2012-04-30T19:17:50Z</time>
<desc>lat.=42.937317, lon.=19.637304, Alt.=1361.672852m. Speed=0.108000m/h.</desc>
<speed>0.030000</speed>
</trkpt>
<trkpt lat="42.937321" lon="19.637280">
<ele>1365.047852</ele>
<time>2012-04-30T19:17:55Z</time>
<desc>lat.=42.937321, lon.=19.637280, Alt.=1365.047852m. Speed=0.828000m/h.</desc>
<speed>0.230000</speed>
</trkpt>
<trkpt lat="42.937363" lon="19.637220">
<ele>1366.079102</ele>
<time>2012-04-30T19:18:00Z</time>
<desc>lat.=42.937363, lon.=19.637220, Alt.=1366.079102m. Speed=9.072000m/h.</desc>
<speed>2.520000</speed>
</trkpt>
<trkpt lat="42.937439" lon="19.637110">
<ele>1367.047852</ele>
<time>2012-04-30T19:18:05Z</time>
<desc>lat.=42.937439, lon.=19.637110, Alt.=1367.047852m. Speed=9.108000m/h.</desc>
<speed>2.530000</speed>
</trkpt>
<trkpt lat="42.937508" lon="19.636986">
<ele>1368.579102</ele>
<time>2012-04-30T19:18:10Z</time>
<desc>lat.=42.937508, lon.=19.636986, Alt.=1368.579102m. Speed=10.008000m/h.</desc>
<speed>2.780000</speed>
</trkpt>
<trkpt lat="42.937595" lon="19.636841">
<ele>1368.110352</ele>
<time>2012-04-30T19:18:15Z</time>
<desc>lat.=42.937595, lon.=19.636841, Alt.=1368.110352m. Speed=13.032000m/h.</desc>
<speed>3.620000</speed>
</trkpt>
<trkpt lat="42.937702" lon="19.636683">
<ele>1369.079102</ele>
<time>2012-04-30T19:18:20Z</time>
<desc>lat.=42.937702, lon.=19.636683, Alt.=1369.079102m. Speed=12.456000m/h.</desc>
<speed>3.460000</speed>
</trkpt>
<trkpt lat="42.937794" lon="19.636518">
<ele>1370.329102</ele>
<time>2012-04-30T19:18:25Z</time>
<desc>lat.=42.937794, lon.=19.636518, Alt.=1370.329102m. Speed=10.908000m/h.</desc>
<speed>3.030000</speed>
</trkpt>
<trkpt lat="42.937866" lon="19.636351">
<ele>1376.579102</ele>
<time>2012-04-30T19:18:30Z</time>
<desc>lat.=42.937866, lon.=19.636351, Alt.=1376.579102m. Speed=10.440000m/h.</desc>
<speed>2.900000</speed>
</trkpt>
<trkpt lat="42.937996" lon="19.636244">
<ele>1379.547852</ele>
<time>2012-04-30T19:18:35Z</time>
<desc>lat.=42.937996, lon.=19.636244, Alt.=1379.547852m. Speed=11.844000m/h.</desc>
<speed>3.290000</speed>
</trkpt>
<trkpt lat="42.938133" lon="19.636204">
<ele>1384.016602</ele>
<time>2012-04-30T19:18:40Z</time>
<desc>lat.=42.938133, lon.=19.636204, Alt.=1384.016602m. Speed=10.440000m/h.</desc>
<speed>2.900000</speed>
</trkpt>
<trkpt lat="42.938282" lon="19.636168">
<ele>1385.860352</ele>
<time>2012-04-30T19:18:45Z</time>
<desc>lat.=42.938282, lon.=19.636168, Alt.=1385.860352m. Speed=8.964000m/h.</desc>
<speed>2.490000</speed>
</trkpt>
<trkpt lat="42.938404" lon="19.636147">
<ele>1385.422852</ele>
<time>2012-04-30T19:18:50Z</time>
<desc>lat.=42.938404, lon.=19.636147, Alt.=1385.422852m. Speed=10.800000m/h.</desc>
<speed>3.000000</speed>
</trkpt>
<trkpt lat="42.938545" lon="19.636118">
<ele>1384.329102</ele>
<time>2012-04-30T19:18:55Z</time>
<desc>lat.=42.938545, lon.=19.636118, Alt.=1384.329102m. Speed=9.360000m/h.</desc>
<speed>2.600000</speed>
</trkpt>
<trkpt lat="42.938694" lon="19.636150">
<ele>1387.141602</ele>
<time>2012-04-30T19:19:00Z</time>
<desc>lat.=42.938694, lon.=19.636150, Alt.=1387.141602m. Speed=11.952000m/h.</desc>
<speed>3.320000</speed>
</trkpt>
<trkpt lat="42.938824" lon="19.636194">
<ele>1388.266602</ele>
<time>2012-04-30T19:19:05Z</time>
<desc>lat.=42.938824, lon.=19.636194, Alt.=1388.266602m. Speed=10.764000m/h.</desc>
<speed>2.990000</speed>
</trkpt>
<trkpt lat="42.938931" lon="19.636246">
<ele>1390.360352</ele>
<time>2012-04-30T19:19:10Z</time>
<desc>lat.=42.938931, lon.=19.636246, Alt.=1390.360352m. Speed=7.452000m/h.</desc>
<speed>2.070000</speed>
</trkpt>
<trkpt lat="42.939049" lon="19.636345">
<ele>1392.297852</ele>
<time>2012-04-30T19:19:15Z</time>
<desc>lat.=42.939049, lon.=19.636345, Alt.=1392.297852m. Speed=9.144000m/h.</desc>
<speed>2.540000</speed>
</trkpt>
<trkpt lat="42.939186" lon="19.636408">
<ele>1393.672852</ele>
<time>2012-04-30T19:19:20Z</time>
<desc>lat.=42.939186, lon.=19.636408, Alt.=1393.672852m. Speed=7.056000m/h.</desc>
<speed>1.960000</speed>
</trkpt>
<trkpt lat="42.939262" lon="19.636421">
<ele>1394.735352</ele>
<time>2012-04-30T19:19:25Z</time>
<desc>lat.=42.939262, lon.=19.636421, Alt.=1394.735352m. Speed=3.384000m/h.</desc>
<speed>0.940000</speed>
</trkpt>
<trkpt lat="42.939369" lon="19.636436">
<ele>1396.266602</ele>
<time>2012-04-30T19:19:30Z</time>
<desc>lat.=42.939369, lon.=19.636436, Alt.=1396.266602m. Speed=9.720000m/h.</desc>
<speed>2.700000</speed>
</trkpt>
<trkpt lat="42.939545" lon="19.636351">
<ele>1396.422852</ele>
<time>2012-04-30T19:19:35Z</time>
<desc>lat.=42.939545, lon.=19.636351, Alt.=1396.422852m. Speed=12.204000m/h.</desc>
<speed>3.390000</speed>
</trkpt>
<trkpt lat="42.939693" lon="19.636221">
<ele>1396.329102</ele>
<time>2012-04-30T19:19:40Z</time>
<desc>lat.=42.939693, lon.=19.636221, Alt.=1396.329102m. Speed=13.464000m/h.</desc>
<speed>3.740000</speed>
</trkpt>
<trkpt lat="42.939857" lon="19.636097">
<ele>1395.891602</ele>
<time>2012-04-30T19:19:45Z</time>
<desc>lat.=42.939857, lon.=19.636097, Alt.=1395.891602m. Speed=10.512000m/h.</desc>
<speed>2.920000</speed>
</trkpt>
<trkpt lat="42.940010" lon="19.635965">
<ele>1394.704102</ele>
<time>2012-04-30T19:19:50Z</time>
<desc>lat.=42.940010, lon.=19.635965, Alt.=1394.704102m. Speed=11.448000m/h.</desc>
<speed>3.180000</speed>
</trkpt>
<trkpt lat="42.940113" lon="19.635868">
<ele>1394.047852</ele>
<time>2012-04-30T19:19:55Z</time>
<desc>lat.=42.940113, lon.=19.635868, Alt.=1394.047852m. Speed=6.228000m/h.</desc>
<speed>1.730000</speed>
</trkpt>
<trkpt lat="42.940182" lon="19.635790">
<ele>1391.610352</ele>
<time>2012-04-30T19:20:00Z</time>
<desc>lat.=42.940182, lon.=19.635790, Alt.=1391.610352m. Speed=6.408000m/h.</desc>
<speed>1.780000</speed>
</trkpt>
<trkpt lat="42.940228" lon="19.635712">
<ele>1389.985352</ele>
<time>2012-04-30T19:20:05Z</time>
<desc>lat.=42.940228, lon.=19.635712, Alt.=1389.985352m. Speed=8.064000m/h.</desc>
<speed>2.240000</speed>
</trkpt>
<trkpt lat="42.940369" lon="19.635630">
<ele>1387.735352</ele>
<time>2012-04-30T19:20:10Z</time>
<desc>lat.=42.940369, lon.=19.635630, Alt.=1387.735352m. Speed=10.440000m/h.</desc>
<speed>2.900000</speed>
</trkpt>
<trkpt lat="42.940475" lon="19.635550">
<ele>1386.047852</ele>
<time>2012-04-30T19:20:15Z</time>
<desc>lat.=42.940475, lon.=19.635550, Alt.=1386.047852m. Speed=5.256000m/h.</desc>
<speed>1.460000</speed>
</trkpt>
<trkpt lat="42.940559" lon="19.635530">
<ele>1383.547852</ele>
<time>2012-04-30T19:20:20Z</time>
<desc>lat.=42.940559, lon.=19.635530, Alt.=1383.547852m. Speed=7.416000m/h.</desc>
<speed>2.060000</speed>
</trkpt>
<trkpt lat="42.940636" lon="19.635487">
<ele>1381.860352</ele>
<time>2012-04-30T19:20:25Z</time>
<desc>lat.=42.940636, lon.=19.635487, Alt.=1381.860352m. Speed=6.876000m/h.</desc>
<speed>1.910000</speed>
</trkpt>
<trkpt lat="42.940742" lon="19.635447">
<ele>1379.641602</ele>
<time>2012-04-30T19:20:30Z</time>
<desc>lat.=42.940742, lon.=19.635447, Alt.=1379.641602m. Speed=11.628000m/h.</desc>
<speed>3.230000</speed>
</trkpt>
<trkpt lat="42.940865" lon="19.635378">
<ele>1377.610352</ele>
<time>2012-04-30T19:20:35Z</time>
<desc>lat.=42.940865, lon.=19.635378, Alt.=1377.610352m. Speed=1.620000m/h.</desc>
<speed>0.450000</speed>
</trkpt>
<trkpt lat="42.940922" lon="19.635351">
<ele>1375.985352</ele>
<time>2012-04-30T19:20:40Z</time>
<desc>lat.=42.940922, lon.=19.635351, Alt.=1375.985352m. Speed=8.280000m/h.</desc>
<speed>2.300000</speed>
</trkpt>
<trkpt lat="42.941032" lon="19.635294">
<ele>1372.516602</ele>
<time>2012-04-30T19:20:45Z</time>
<desc>lat.=42.941032, lon.=19.635294, Alt.=1372.516602m. Speed=5.184000m/h.</desc>
<speed>1.440000</speed>
</trkpt>
<trkpt lat="42.941143" lon="19.635241">
<ele>1368.672852</ele>
<time>2012-04-30T19:20:50Z</time>
<desc>lat.=42.941143, lon.=19.635241, Alt.=1368.672852m. Speed=8.100000m/h.</desc>
<speed>2.250000</speed>
</trkpt>
<trkpt lat="42.941269" lon="19.635187">
<ele>1365.391602</ele>
<time>2012-04-30T19:20:55Z</time>
<desc>lat.=42.941269, lon.=19.635187, Alt.=1365.391602m. Speed=8.928000m/h.</desc>
<speed>2.480000</speed>
</trkpt>
<trkpt lat="42.941395" lon="19.635120">
<ele>1362.610352</ele>
<time>2012-04-30T19:21:00Z</time>
<desc>lat.=42.941395, lon.=19.635120, Alt.=1362.610352m. Speed=5.508000m/h.</desc>
<speed>1.530000</speed>
</trkpt>
<trkpt lat="42.941494" lon="19.635046">
<ele>1358.454102</ele>
<time>2012-04-30T19:21:05Z</time>
<desc>lat.=42.941494, lon.=19.635046, Alt.=1358.454102m. Speed=7.812000m/h.</desc>
<speed>2.170000</speed>
</trkpt>
<trkpt lat="42.941570" lon="19.634954">
<ele>1355.485352</ele>
<time>2012-04-30T19:21:10Z</time>
<desc>lat.=42.941570, lon.=19.634954, Alt.=1355.485352m. Speed=7.128000m/h.</desc>
<speed>1.980000</speed>
</trkpt>
<trkpt lat="42.941620" lon="19.634876">
<ele>1353.329102</ele>
<time>2012-04-30T19:21:15Z</time>
<desc>lat.=42.941620, lon.=19.634876, Alt.=1353.329102m. Speed=3.528000m/h.</desc>
<speed>0.980000</speed>
</trkpt>
<trkpt lat="42.941677" lon="19.634815">
<ele>1353.047852</ele>
<time>2012-04-30T19:21:20Z</time>
<desc>lat.=42.941677, lon.=19.634815, Alt.=1353.047852m. Speed=5.148000m/h.</desc>
<speed>1.430000</speed>
</trkpt>
<trkpt lat="42.941719" lon="19.634735">
<ele>1352.329102</ele>
<time>2012-04-30T19:21:25Z</time>
<desc>lat.=42.941719, lon.=19.634735, Alt.=1352.329102m. Speed=2.988000m/h.</desc>
<speed>0.830000</speed>
</trkpt>
<trkpt lat="42.941772" lon="19.634747">
<ele>1352.141602</ele>
<time>2012-04-30T19:21:30Z</time>
<desc>lat.=42.941772, lon.=19.634747, Alt.=1352.141602m. Speed=0.900000m/h.</desc>
<speed>0.250000</speed>
</trkpt>
<trkpt lat="42.941772" lon="19.634727">
<ele>1351.391602</ele>
<time>2012-04-30T19:21:35Z</time>
<desc>lat.=42.941772, lon.=19.634727, Alt.=1351.391602m. Speed=0.288000m/h.</desc>
<speed>0.080000</speed>
</trkpt>
<trkpt lat="42.941772" lon="19.634729">
<ele>1351.204102</ele>
<time>2012-04-30T19:21:40Z</time>
<desc>lat.=42.941772, lon.=19.634729, Alt.=1351.204102m. Speed=0.504000m/h.</desc>
<speed>0.140000</speed>
</trkpt>
<trkpt lat="42.941772" lon="19.634735">
<ele>1351.141602</ele>
<time>2012-04-30T19:21:45Z</time>
<desc>lat.=42.941772, lon.=19.634735, Alt.=1351.141602m. Speed=0.252000m/h.</desc>
<speed>0.070000</speed>
</trkpt>
<trkpt lat="42.941811" lon="19.634672">
<ele>1351.922852</ele>
<time>2012-04-30T19:21:50Z</time>
<desc>lat.=42.941811, lon.=19.634672, Alt.=1351.922852m. Speed=7.344000m/h.</desc>
<speed>2.040000</speed>
</trkpt>
<trkpt lat="42.941906" lon="19.634571">
<ele>1352.485352</ele>
<time>2012-04-30T19:21:55Z</time>
<desc>lat.=42.941906, lon.=19.634571, Alt.=1352.485352m. Speed=8.100000m/h.</desc>
<speed>2.250000</speed>
</trkpt>
<trkpt lat="42.941971" lon="19.634466">
<ele>1352.297852</ele>
<time>2012-04-30T19:22:00Z</time>
<desc>lat.=42.941971, lon.=19.634466, Alt.=1352.297852m. Speed=7.056000m/h.</desc>
<speed>1.960000</speed>
</trkpt>
<trkpt lat="42.942055" lon="19.634384">
<ele>1352.079102</ele>
<time>2012-04-30T19:22:05Z</time>
<desc>lat.=42.942055, lon.=19.634384, Alt.=1352.079102m. Speed=6.300000m/h.</desc>
<speed>1.750000</speed>
</trkpt>
<trkpt lat="42.942093" lon="19.634367">
<ele>1353.797852</ele>
<time>2012-04-30T19:22:10Z</time>
<desc>lat.=42.942093, lon.=19.634367, Alt.=1353.797852m. Speed=1.764000m/h.</desc>
<speed>0.490000</speed>
</trkpt>
<trkpt lat="42.942123" lon="19.634308">
<ele>1353.579102</ele>
<time>2012-04-30T19:22:15Z</time>
<desc>lat.=42.942123, lon.=19.634308, Alt.=1353.579102m. Speed=4.968000m/h.</desc>
<speed>1.380000</speed>
</trkpt>
<trkpt lat="42.942158" lon="19.634253">
<ele>1352.860352</ele>
<time>2012-04-30T19:22:20Z</time>
<desc>lat.=42.942158, lon.=19.634253, Alt.=1352.860352m. Speed=2.016000m/h.</desc>
<speed>0.560000</speed>
</trkpt>
<trkpt lat="42.942230" lon="19.634184">
<ele>1352.329102</ele>
<time>2012-04-30T19:22:25Z</time>
<desc>lat.=42.942230, lon.=19.634184, Alt.=1352.329102m. Speed=1.692000m/h.</desc>
<speed>0.470000</speed>
</trkpt>
<trkpt lat="42.942326" lon="19.634068">
<ele>1352.172852</ele>
<time>2012-04-30T19:22:30Z</time>
<desc>lat.=42.942326, lon.=19.634068, Alt.=1352.172852m. Speed=10.044000m/h.</desc>
<speed>2.790000</speed>
</trkpt>
<trkpt lat="42.942440" lon="19.633942">
<ele>1351.641602</ele>
<time>2012-04-30T19:22:35Z</time>
<desc>lat.=42.942440, lon.=19.633942, Alt.=1351.641602m. Speed=8.964000m/h.</desc>
<speed>2.490000</speed>
</trkpt>
<trkpt lat="42.942509" lon="19.633833">
<ele>1352.079102</ele>
<time>2012-04-30T19:22:40Z</time>
<desc>lat.=42.942509, lon.=19.633833, Alt.=1352.079102m. Speed=5.796000m/h.</desc>
<speed>1.610000</speed>
</trkpt>
<trkpt lat="42.942562" lon="19.633688">
<ele>1350.829102</ele>
<time>2012-04-30T19:22:45Z</time>
<desc>lat.=42.942562, lon.=19.633688, Alt.=1350.829102m. Speed=8.208000m/h.</desc>
<speed>2.280000</speed>
</trkpt>
<trkpt lat="42.942665" lon="19.633558">
<ele>1348.266602</ele>
<time>2012-04-30T19:22:50Z</time>
<desc>lat.=42.942665, lon.=19.633558, Alt.=1348.266602m. Speed=9.684000m/h.</desc>
<speed>2.690000</speed>
</trkpt>
<trkpt lat="42.942749" lon="19.633417">
<ele>1345.766602</ele>
<time>2012-04-30T19:22:55Z</time>
<desc>lat.=42.942749, lon.=19.633417, Alt.=1345.766602m. Speed=11.412000m/h.</desc>
<speed>3.170000</speed>
</trkpt>
<trkpt lat="42.942837" lon="19.633320">
<ele>1345.891602</ele>
<time>2012-04-30T19:23:00Z</time>
<desc>lat.=42.942837, lon.=19.633320, Alt.=1345.891602m. Speed=9.720000m/h.</desc>
<speed>2.700000</speed>
</trkpt>
<trkpt lat="42.942902" lon="19.633196">
<ele>1346.610352</ele>
<time>2012-04-30T19:23:05Z</time>
<desc>lat.=42.942902, lon.=19.633196, Alt.=1346.610352m. Speed=5.760000m/h.</desc>
<speed>1.600000</speed>
</trkpt>
<trkpt lat="42.942986" lon="19.633059">
<ele>1342.985352</ele>
<time>2012-04-30T19:23:10Z</time>
<desc>lat.=42.942986, lon.=19.633059, Alt.=1342.985352m. Speed=8.712000m/h.</desc>
<speed>2.420000</speed>
</trkpt>
<trkpt lat="42.943104" lon="19.632910">
<ele>1339.172852</ele>
<time>2012-04-30T19:23:15Z</time>
<desc>lat.=42.943104, lon.=19.632910, Alt.=1339.172852m. Speed=12.672000m/h.</desc>
<speed>3.520000</speed>
</trkpt>
<trkpt lat="42.943214" lon="19.632719">
<ele>1340.547852</ele>
<time>2012-04-30T19:23:20Z</time>
<desc>lat.=42.943214, lon.=19.632719, Alt.=1340.547852m. Speed=13.176000m/h.</desc>
<speed>3.660000</speed>
</trkpt>
<trkpt lat="42.943321" lon="19.632542">
<ele>1338.235352</ele>
<time>2012-04-30T19:23:25Z</time>
<desc>lat.=42.943321, lon.=19.632542, Alt.=1338.235352m. Speed=11.736000m/h.</desc>
<speed>3.260000</speed>
</trkpt>
<trkpt lat="42.943405" lon="19.632401">
<ele>1340.829102</ele>
<time>2012-04-30T19:23:30Z</time>
<desc>lat.=42.943405, lon.=19.632401, Alt.=1340.829102m. Speed=12.060000m/h.</desc>
<speed>3.350000</speed>
</trkpt>
<trkpt lat="42.943512" lon="19.632271">
<ele>1339.547852</ele>
<time>2012-04-30T19:23:35Z</time>
<desc>lat.=42.943512, lon.=19.632271, Alt.=1339.547852m. Speed=12.600000m/h.</desc>
<speed>3.500000</speed>
</trkpt>
<trkpt lat="42.943623" lon="19.632154">
<ele>1338.422852</ele>
<time>2012-04-30T19:23:40Z</time>
<desc>lat.=42.943623, lon.=19.632154, Alt.=1338.422852m. Speed=10.404000m/h.</desc>
<speed>2.890000</speed>
</trkpt>
<trkpt lat="42.943691" lon="19.632078">
<ele>1337.172852</ele>
<time>2012-04-30T19:23:45Z</time>
<desc>lat.=42.943691, lon.=19.632078, Alt.=1337.172852m. Speed=5.076000m/h.</desc>
<speed>1.410000</speed>
</trkpt>
<trkpt lat="42.943775" lon="19.632010">
<ele>1337.360352</ele>
<time>2012-04-30T19:23:50Z</time>
<desc>lat.=42.943775, lon.=19.632010, Alt.=1337.360352m. Speed=3.024000m/h.</desc>
<speed>0.840000</speed>
</trkpt>
<trkpt lat="42.943813" lon="19.631990">
<ele>1338.047852</ele>
<time>2012-04-30T19:23:55Z</time>
<desc>lat.=42.943813, lon.=19.631990, Alt.=1338.047852m. Speed=2.916000m/h.</desc>
<speed>0.810000</speed>
</trkpt>
<trkpt lat="42.943886" lon="19.631931">
<ele>1337.204102</ele>
<time>2012-04-30T19:24:00Z</time>
<desc>lat.=42.943886, lon.=19.631931, Alt.=1337.204102m. Speed=7.380000m/h.</desc>
<speed>2.050000</speed>
</trkpt>
<trkpt lat="42.944004" lon="19.631823">
<ele>1334.860352</ele>
<time>2012-04-30T19:24:05Z</time>
<desc>lat.=42.944004, lon.=19.631823, Alt.=1334.860352m. Speed=11.592000m/h.</desc>
<speed>3.220000</speed>
</trkpt>
<trkpt lat="42.944118" lon="19.631697">
<ele>1334.610352</ele>
<time>2012-04-30T19:24:10Z</time>
<desc>lat.=42.944118, lon.=19.631697, Alt.=1334.610352m. Speed=11.448000m/h.</desc>
<speed>3.180000</speed>
</trkpt>
<trkpt lat="42.944237" lon="19.631586">
<ele>1332.954102</ele>
<time>2012-04-30T19:24:15Z</time>
<desc>lat.=42.944237, lon.=19.631586, Alt.=1332.954102m. Speed=11.196000m/h.</desc>
<speed>3.110000</speed>
</trkpt>
<trkpt lat="42.944347" lon="19.631443">
<ele>1330.766602</ele>
<time>2012-04-30T19:24:20Z</time>
<desc>lat.=42.944347, lon.=19.631443, Alt.=1330.766602m. Speed=10.368000m/h.</desc>
<speed>2.880000</speed>
</trkpt>
<trkpt lat="42.944427" lon="19.631317">
<ele>1327.204102</ele>
<time>2012-04-30T19:24:25Z</time>
<desc>lat.=42.944427, lon.=19.631317, Alt.=1327.204102m. Speed=9.576000m/h.</desc>
<speed>2.660000</speed>
</trkpt>
<trkpt lat="42.944492" lon="19.631222">
<ele>1324.860352</ele>
<time>2012-04-30T19:24:30Z</time>
<desc>lat.=42.944492, lon.=19.631222, Alt.=1324.860352m. Speed=6.660000m/h.</desc>
<speed>1.850000</speed>
</trkpt>
<trkpt lat="42.944553" lon="19.631136">
<ele>1323.485352</ele>
<time>2012-04-30T19:24:35Z</time>
<desc>lat.=42.944553, lon.=19.631136, Alt.=1323.485352m. Speed=6.552000m/h.</desc>
<speed>1.820000</speed>
</trkpt>
<trkpt lat="42.944633" lon="19.631058">
<ele>1320.360352</ele>
<time>2012-04-30T19:24:40Z</time>
<desc>lat.=42.944633, lon.=19.631058, Alt.=1320.360352m. Speed=6.660000m/h.</desc>
<speed>1.850000</speed>
</trkpt>
<trkpt lat="42.944668" lon="19.630997">
<ele>1317.735352</ele>
<time>2012-04-30T19:24:45Z</time>
<desc>lat.=42.944668, lon.=19.630997, Alt.=1317.735352m. Speed=4.788000m/h.</desc>
<speed>1.330000</speed>
</trkpt>
<trkpt lat="42.944706" lon="19.630913">
<ele>1316.235352</ele>
<time>2012-04-30T19:24:50Z</time>
<desc>lat.=42.944706, lon.=19.630913, Alt.=1316.235352m. Speed=5.796000m/h.</desc>
<speed>1.610000</speed>
</trkpt>
<trkpt lat="42.944710" lon="19.630789">
<ele>1313.860352</ele>
<time>2012-04-30T19:24:55Z</time>
<desc>lat.=42.944710, lon.=19.630789, Alt.=1313.860352m. Speed=9.108000m/h.</desc>
<speed>2.530000</speed>
</trkpt>
<trkpt lat="42.944687" lon="19.630598">
<ele>1312.329102</ele>
<time>2012-04-30T19:25:00Z</time>
<desc>lat.=42.944687, lon.=19.630598, Alt.=1312.329102m. Speed=13.176000m/h.</desc>
<speed>3.660000</speed>
</trkpt>
<trkpt lat="42.944645" lon="19.630398">
<ele>1310.922852</ele>
<time>2012-04-30T19:25:05Z</time>
<desc>lat.=42.944645, lon.=19.630398, Alt.=1310.922852m. Speed=10.296000m/h.</desc>
<speed>2.860000</speed>
</trkpt>
<trkpt lat="42.944649" lon="19.630239">
<ele>1312.766602</ele>
<time>2012-04-30T19:25:10Z</time>
<desc>lat.=42.944649, lon.=19.630239, Alt.=1312.766602m. Speed=7.920000m/h.</desc>
<speed>2.200000</speed>
</trkpt>
<trkpt lat="42.944641" lon="19.630072">
<ele>1311.454102</ele>
<time>2012-04-30T19:25:15Z</time>
<desc>lat.=42.944641, lon.=19.630072, Alt.=1311.454102m. Speed=11.772000m/h.</desc>
<speed>3.270000</speed>
</trkpt>
<trkpt lat="42.944618" lon="19.629860">
<ele>1310.610352</ele>
<time>2012-04-30T19:25:20Z</time>
<desc>lat.=42.944618, lon.=19.629860, Alt.=1310.610352m. Speed=10.116000m/h.</desc>
<speed>2.810000</speed>
</trkpt>
<trkpt lat="42.944588" lon="19.629772">
<ele>1312.047852</ele>
<time>2012-04-30T19:25:25Z</time>
<desc>lat.=42.944588, lon.=19.629772, Alt.=1312.047852m. Speed=0.360000m/h.</desc>
<speed>0.100000</speed>
</trkpt>
<trkpt lat="42.944588" lon="19.629770">
<ele>1312.141602</ele>
<time>2012-04-30T19:25:30Z</time>
<desc>lat.=42.944588, lon.=19.629770, Alt.=1312.141602m. Speed=0.576000m/h.</desc>
<speed>0.160000</speed>
</trkpt>
<trkpt lat="42.944592" lon="19.629772">
<ele>1312.204102</ele>
<time>2012-04-30T19:25:35Z</time>
<desc>lat.=42.944592, lon.=19.629772, Alt.=1312.204102m. Speed=1.044000m/h.</desc>
<speed>0.290000</speed>
</trkpt>
<trkpt lat="42.944595" lon="19.629774">
<ele>1312.204102</ele>
<time>2012-04-30T19:25:40Z</time>
<desc>lat.=42.944595, lon.=19.629774, Alt.=1312.204102m. Speed=0.144000m/h.</desc>
<speed>0.040000</speed>
</trkpt>
<trkpt lat="42.944595" lon="19.629776">
<ele>1312.235352</ele>
<time>2012-04-30T19:25:45Z</time>
<desc>lat.=42.944595, lon.=19.629776, Alt.=1312.235352m. Speed=0.108000m/h.</desc>
<speed>0.030000</speed>
</trkpt>
<trkpt lat="42.944592" lon="19.629776">
<ele>1312.110352</ele>
<time>2012-04-30T19:25:50Z</time>
<desc>lat.=42.944592, lon.=19.629776, Alt.=1312.110352m. Speed=0.000000m/h.</desc>
<speed>0.000000</speed>
</trkpt>
<trkpt lat="42.944592" lon="19.629776">
<ele>1312.047852</ele>
<time>2012-04-30T19:25:55Z</time>
<desc>lat.=42.944592, lon.=19.629776, Alt.=1312.047852m. Speed=0.000000m/h.</desc>
<speed>0.000000</speed>
</trkpt>
<trkpt lat="42.944592" lon="19.629776">
<ele>1312.016602</ele>
<time>2012-04-30T19:26:00Z</time>
<desc>lat.=42.944592, lon.=19.629776, Alt.=1312.016602m. Speed=0.000000m/h.</desc>
<speed>0.000000</speed>
</trkpt>
<trkpt lat="42.944592" lon="19.629776">
<ele>1311.985352</ele>
<time>2012-04-30T19:26:05Z</time>
<desc>lat.=42.944592, lon.=19.629776, Alt.=1311.985352m. Speed=0.000000m/h.</desc>
<speed>0.000000</speed>
</trkpt>
<trkpt lat="42.944592" lon="19.629776">
<ele>1311.954102</ele>
<time>2012-04-30T19:26:10Z</time>
<desc>lat.=42.944592, lon.=19.629776, Alt.=1311.954102m. Speed=0.000000m/h.</desc>
<speed>0.000000</speed>
</trkpt>
<trkpt lat="42.944592" lon="19.629776">
<ele>1311.922852</ele>
<time>2012-04-30T19:26:15Z</time>
<desc>lat.=42.944592, lon.=19.629776, Alt.=1311.922852m. Speed=0.036000m/h.</desc>
<speed>0.010000</speed>
</trkpt>
<trkpt lat="42.944592" lon="19.629776">
<ele>1311.922852</ele>
<time>2012-04-30T19:26:20Z</time>
<desc>lat.=42.944592, lon.=19.629776, Alt.=1311.922852m. Speed=0.036000m/h.</desc>
<speed>0.010000</speed>
</trkpt>
<trkpt lat="42.944592" lon="19.629778">
<ele>1311.922852</ele>
<time>2012-04-30T19:26:25Z</time>
<desc>lat.=42.944592, lon.=19.629778, Alt.=1311.922852m. Speed=0.000000m/h.</desc>
<speed>0.000000</speed>
</trkpt>
<trkpt lat="42.944592" lon="19.629778">
<ele>1311.922852</ele>
<time>2012-04-30T19:26:30Z</time>
<desc>lat.=42.944592, lon.=19.629778, Alt.=1311.922852m. Speed=0.036000m/h.</desc>
<speed>0.010000</speed>
</trkpt>
<trkpt lat="42.944592" lon="19.629778">
<ele>1311.922852</ele>
<time>2012-04-30T19:26:35Z</time>
<desc>lat.=42.944592, lon.=19.629778, Alt.=1311.922852m. Speed=0.036000m/h.</desc>
<speed>0.010000</speed>
</trkpt>
<trkpt lat="42.944592" lon="19.629778">
<ele>1311.891602</ele>
<time>2012-04-30T19:26:40Z</time>
<desc>lat.=42.944592, lon.=19.629778, Alt.=1311.891602m. Speed=0.000000m/h.</desc>
<speed>0.000000</speed>
</trkpt>
<trkpt lat="42.944592" lon="19.629778">
<ele>1311.922852</ele>
<time>2012-04-30T19:26:45Z</time>
<desc>lat.=42.944592, lon.=19.629778, Alt.=1311.922852m. Speed=0.324000m/h.</desc>
<speed>0.090000</speed>
</trkpt>
<trkpt lat="42.944592" lon="19.629778">
<ele>1311.922852</ele>
<time>2012-04-30T19:26:50Z</time>
<desc>lat.=42.944592, lon.=19.629778, Alt.=1311.922852m. Speed=0.072000m/h.</desc>
<speed>0.020000</speed>
</trkpt>
<trkpt lat="42.944592" lon="19.629778">
<ele>1311.954102</ele>
<time>2012-04-30T19:26:55Z</time>
<desc>lat.=42.944592, lon.=19.629778, Alt.=1311.954102m. Speed=0.144000m/h.</desc>
<speed>0.040000</speed>
</trkpt>
<trkpt lat="42.944592" lon="19.629780">
<ele>1312.016602</ele>
<time>2012-04-30T19:27:00Z</time>
<desc>lat.=42.944592, lon.=19.629780, Alt.=1312.016602m. Speed=0.000000m/h.</desc>
<speed>0.000000</speed>
</trkpt>
<trkpt lat="42.944588" lon="19.629745">
<ele>1311.860352</ele>
<time>2012-04-30T19:27:05Z</time>
<desc>lat.=42.944588, lon.=19.629745, Alt.=1311.860352m. Speed=7.344000m/h.</desc>
<speed>2.040000</speed>
</trkpt>
<trkpt lat="42.944550" lon="19.629539">
<ele>1309.735352</ele>
<time>2012-04-30T19:27:10Z</time>
<desc>lat.=42.944550, lon.=19.629539, Alt.=1309.735352m. Speed=12.996000m/h.</desc>
<speed>3.610000</speed>
</trkpt>
<trkpt lat="42.944538" lon="19.629335">
<ele>1307.454102</ele>
<time>2012-04-30T19:27:15Z</time>
<desc>lat.=42.944538, lon.=19.629335, Alt.=1307.454102m. Speed=10.872000m/h.</desc>
<speed>3.020000</speed>
</trkpt>
<trkpt lat="42.944519" lon="19.629076">
<ele>1304.860352</ele>
<time>2012-04-30T19:27:20Z</time>
<desc>lat.=42.944519, lon.=19.629076, Alt.=1304.860352m. Speed=14.796000m/h.</desc>
<speed>4.110000</speed>
</trkpt>
<trkpt lat="42.944557" lon="19.628826">
<ele>1299.672852</ele>
<time>2012-04-30T19:27:25Z</time>
<desc>lat.=42.944557, lon.=19.628826, Alt.=1299.672852m. Speed=14.544000m/h.</desc>
<speed>4.040000</speed>
</trkpt>
<trkpt lat="42.944668" lon="19.628595">
<ele>1296.579102</ele>
<time>2012-04-30T19:27:30Z</time>
<desc>lat.=42.944668, lon.=19.628595, Alt.=1296.579102m. Speed=14.256000m/h.</desc>
<speed>3.960000</speed>
</trkpt>
<trkpt lat="42.944767" lon="19.628428">
<ele>1297.266602</ele>
<time>2012-04-30T19:27:35Z</time>
<desc>lat.=42.944767, lon.=19.628428, Alt.=1297.266602m. Speed=12.420000m/h.</desc>
<speed>3.450000</speed>
</trkpt>
<trkpt lat="42.944851" lon="19.628235">
<ele>1296.485352</ele>
<time>2012-04-30T19:27:40Z</time>
<desc>lat.=42.944851, lon.=19.628235, Alt.=1296.485352m. Speed=13.680000m/h.</desc>
<speed>3.800000</speed>
</trkpt>
<trkpt lat="42.944782" lon="19.628063">
<ele>1295.891602</ele>
<time>2012-04-30T19:27:45Z</time>
<desc>lat.=42.944782, lon.=19.628063, Alt.=1295.891602m. Speed=10.080000m/h.</desc>
<speed>2.800000</speed>
</trkpt>
<trkpt lat="42.944687" lon="19.628071">
<ele>1294.360352</ele>
<time>2012-04-30T19:27:50Z</time>
<desc>lat.=42.944687, lon.=19.628071, Alt.=1294.360352m. Speed=0.648000m/h.</desc>
<speed>0.180000</speed>
</trkpt>
<trkpt lat="42.944675" lon="19.628056">
<ele>1295.235352</ele>
<time>2012-04-30T19:27:55Z</time>
<desc>lat.=42.944675, lon.=19.628056, Alt.=1295.235352m. Speed=0.144000m/h.</desc>
<speed>0.040000</speed>
</trkpt>
<trkpt lat="42.944675" lon="19.628057">
<ele>1295.110352</ele>
<time>2012-04-30T19:28:00Z</time>
<desc>lat.=42.944675, lon.=19.628057, Alt.=1295.110352m. Speed=0.072000m/h.</desc>
<speed>0.020000</speed>
</trkpt>
<trkpt lat="42.944675" lon="19.628057">
<ele>1295.047852</ele>
<time>2012-04-30T19:28:05Z</time>
<desc>lat.=42.944675, lon.=19.628057, Alt.=1295.047852m. Speed=0.036000m/h.</desc>
<speed>0.010000</speed>
</trkpt>
<trkpt lat="42.944675" lon="19.628057">
<ele>1295.047852</ele>
<time>2012-04-30T19:28:10Z</time>
<desc>lat.=42.944675, lon.=19.628057, Alt.=1295.047852m. Speed=0.036000m/h.</desc>
<speed>0.010000</speed>
</trkpt>
<trkpt lat="42.944675" lon="19.628057">
<ele>1294.954102</ele>
<time>2012-04-30T19:28:15Z</time>
<desc>lat.=42.944675, lon.=19.628057, Alt.=1294.954102m. Speed=0.072000m/h.</desc>
<speed>0.020000</speed>
</trkpt>
<trkpt lat="42.944675" lon="19.628059">
<ele>1294.829102</ele>
<time>2012-04-30T19:28:20Z</time>
<desc>lat.=42.944675, lon.=19.628059, Alt.=1294.829102m. Speed=0.072000m/h.</desc>
<speed>0.020000</speed>
</trkpt>
<trkpt lat="42.944656" lon="19.628054">
<ele>1294.704102</ele>
<time>2012-04-30T19:28:25Z</time>
<desc>lat.=42.944656, lon.=19.628054, Alt.=1294.704102m. Speed=5.904000m/h.</desc>
<speed>1.640000</speed>
</trkpt>
<trkpt lat="42.944565" lon="19.628059">
<ele>1295.204102</ele>
<time>2012-04-30T19:28:30Z</time>
<desc>lat.=42.944565, lon.=19.628059, Alt.=1295.204102m. Speed=6.840000m/h.</desc>
<speed>1.900000</speed>
</trkpt>
<trkpt lat="42.944466" lon="19.628136">
<ele>1293.766602</ele>
<time>2012-04-30T19:28:35Z</time>
<desc>lat.=42.944466, lon.=19.628136, Alt.=1293.766602m. Speed=11.268000m/h.</desc>
<speed>3.130000</speed>
</trkpt>
<trkpt lat="42.944332" lon="19.628256">
<ele>1290.829102</ele>
<time>2012-04-30T19:28:40Z</time>
<desc>lat.=42.944332, lon.=19.628256, Alt.=1290.829102m. Speed=10.980000m/h.</desc>
<speed>3.050000</speed>
</trkpt>
<trkpt lat="42.944202" lon="19.628416">
<ele>1287.610352</ele>
<time>2012-04-30T19:28:45Z</time>
<desc>lat.=42.944202, lon.=19.628416, Alt.=1287.610352m. Speed=12.888000m/h.</desc>
<speed>3.580000</speed>
</trkpt>
<trkpt lat="42.944061" lon="19.628590">
<ele>1284.860352</ele>
<time>2012-04-30T19:28:50Z</time>
<desc>lat.=42.944061, lon.=19.628590, Alt.=1284.860352m. Speed=15.408000m/h.</desc>
<speed>4.280000</speed>
</trkpt>
<trkpt lat="42.943958" lon="19.628750">
<ele>1282.016602</ele>
<time>2012-04-30T19:28:55Z</time>
<desc>lat.=42.943958, lon.=19.628750, Alt.=1282.016602m. Speed=10.152000m/h.</desc>
<speed>2.820000</speed>
</trkpt>
<trkpt lat="42.943878" lon="19.628870">
<ele>1279.891602</ele>
<time>2012-04-30T19:29:00Z</time>
<desc>lat.=42.943878, lon.=19.628870, Alt.=1279.891602m. Speed=10.116000m/h.</desc>
<speed>2.810000</speed>
</trkpt>
<trkpt lat="42.943794" lon="19.629049">
<ele>1277.516602</ele>
<time>2012-04-30T19:29:05Z</time>
<desc>lat.=42.943794, lon.=19.629049, Alt.=1277.516602m. Speed=13.464000m/h.</desc>
<speed>3.740000</speed>
</trkpt>
<trkpt lat="42.943703" lon="19.629293">
<ele>1275.891602</ele>
<time>2012-04-30T19:29:10Z</time>
<desc>lat.=42.943703, lon.=19.629293, Alt.=1275.891602m. Speed=14.148000m/h.</desc>
<speed>3.930000</speed>
</trkpt>
<trkpt lat="42.943626" lon="19.629530">
<ele>1274.016602</ele>
<time>2012-04-30T19:29:15Z</time>
<desc>lat.=42.943626, lon.=19.629530, Alt.=1274.016602m. Speed=15.516000m/h.</desc>
<speed>4.310000</speed>
</trkpt>
<trkpt lat="42.943508" lon="19.629734">
<ele>1271.766602</ele>
<time>2012-04-30T19:29:20Z</time>
<desc>lat.=42.943508, lon.=19.629734, Alt.=1271.766602m. Speed=17.028000m/h.</desc>
<speed>4.730000</speed>
</trkpt>
<trkpt lat="42.943348" lon="19.629911">
<ele>1270.454102</ele>
<time>2012-04-30T19:29:25Z</time>
<desc>lat.=42.943348, lon.=19.629911, Alt.=1270.454102m. Speed=15.372000m/h.</desc>
<speed>4.270000</speed>
</trkpt>
<trkpt lat="42.943180" lon="19.630056">
<ele>1268.829102</ele>
<time>2012-04-30T19:29:30Z</time>
<desc>lat.=42.943180, lon.=19.630056, Alt.=1268.829102m. Speed=15.552000m/h.</desc>
<speed>4.320000</speed>
</trkpt>
<trkpt lat="42.943161" lon="19.630114">
<ele>1269.204102</ele>
<time>2012-04-30T19:29:35Z</time>
<desc>lat.=42.943161, lon.=19.630114, Alt.=1269.204102m. Speed=1.440000m/h.</desc>
<speed>0.400000</speed>
</trkpt>
<trkpt lat="42.943157" lon="19.630129">
<ele>1268.829102</ele>
<time>2012-04-30T19:29:40Z</time>
<desc>lat.=42.943157, lon.=19.630129, Alt.=1268.829102m. Speed=0.216000m/h.</desc>
<speed>0.060000</speed>
</trkpt>
<trkpt lat="42.943161" lon="19.630131">
<ele>1268.766602</ele>
<time>2012-04-30T19:29:45Z</time>
<desc>lat.=42.943161, lon.=19.630131, Alt.=1268.766602m. Speed=0.036000m/h.</desc>
<speed>0.010000</speed>
</trkpt>
<trkpt lat="42.943161" lon="19.630133">
<ele>1268.735352</ele>
<time>2012-04-30T19:29:50Z</time>
<desc>lat.=42.943161, lon.=19.630133, Alt.=1268.735352m. Speed=0.036000m/h.</desc>
<speed>0.010000</speed>
</trkpt>
<trkpt lat="42.943161" lon="19.630133">
<ele>1268.797852</ele>
<time>2012-04-30T19:29:55Z</time>
<desc>lat.=42.943161, lon.=19.630133, Alt.=1268.797852m. Speed=0.108000m/h.</desc>
<speed>0.030000</speed>
</trkpt>
<trkpt lat="42.943161" lon="19.630133">
<ele>1268.797852</ele>
<time>2012-04-30T19:30:00Z</time>
<desc>lat.=42.943161, lon.=19.630133, Alt.=1268.797852m. Speed=0.000000m/h.</desc>
<speed>0.000000</speed>
</trkpt>
<trkpt lat="42.943157" lon="19.630133">
<ele>1268.797852</ele>
<time>2012-04-30T19:30:05Z</time>
<desc>lat.=42.943157, lon.=19.630133, Alt.=1268.797852m. Speed=0.000000m/h.</desc>
<speed>0.000000</speed>
</trkpt>
<trkpt lat="42.943157" lon="19.630133">
<ele>1268.797852</ele>
<time>2012-04-30T19:30:10Z</time>
<desc>lat.=42.943157, lon.=19.630133, Alt.=1268.797852m. Speed=0.000000m/h.</desc>
<speed>0.000000</speed>
</trkpt>
<trkpt lat="42.943157" lon="19.630133">
<ele>1268.797852</ele>
<time>2012-04-30T19:30:15Z</time>
<desc>lat.=42.943157, lon.=19.630133, Alt.=1268.797852m. Speed=0.036000m/h.</desc>
<speed>0.010000</speed>
</trkpt>
<trkpt lat="42.943157" lon="19.630133">
<ele>1268.829102</ele>
<time>2012-04-30T19:30:20Z</time>
<desc>lat.=42.943157, lon.=19.630133, Alt.=1268.829102m. Speed=0.036000m/h.</desc>
<speed>0.010000</speed>
</trkpt>
<trkpt lat="42.943157" lon="19.630135">
<ele>1268.891602</ele>
<time>2012-04-30T19:30:25Z</time>
<desc>lat.=42.943157, lon.=19.630135, Alt.=1268.891602m. Speed=0.108000m/h.</desc>
<speed>0.030000</speed>
</trkpt>
<trkpt lat="42.943157" lon="19.630135">
<ele>1268.922852</ele>
<time>2012-04-30T19:30:30Z</time>
<desc>lat.=42.943157, lon.=19.630135, Alt.=1268.922852m. Speed=0.108000m/h.</desc>
<speed>0.030000</speed>
</trkpt>
<trkpt lat="42.943157" lon="19.630135">
<ele>1268.922852</ele>
<time>2012-04-30T19:30:35Z</time>
<desc>lat.=42.943157, lon.=19.630135, Alt.=1268.922852m. Speed=0.216000m/h.</desc>
<speed>0.060000</speed>
</trkpt>
<trkpt lat="42.943157" lon="19.630135">
<ele>1268.954102</ele>
<time>2012-04-30T19:30:40Z</time>
<desc>lat.=42.943157, lon.=19.630135, Alt.=1268.954102m. Speed=0.036000m/h.</desc>
<speed>0.010000</speed>
</trkpt>
<trkpt lat="42.943157" lon="19.630135">
<ele>1268.922852</ele>
<time>2012-04-30T19:30:45Z</time>
<desc>lat.=42.943157, lon.=19.630135, Alt.=1268.922852m. Speed=0.216000m/h.</desc>
<speed>0.060000</speed>
</trkpt>
<trkpt lat="42.943123" lon="19.630194">
<ele>1269.610352</ele>
<time>2012-04-30T19:30:50Z</time>
<desc>lat.=42.943123, lon.=19.630194, Alt.=1269.610352m. Speed=7.632000m/h.</desc>
<speed>2.120000</speed>
</trkpt>
<trkpt lat="42.942982" lon="19.630289">
<ele>1271.610352</ele>
<time>2012-04-30T19:30:55Z</time>
<desc>lat.=42.942982, lon.=19.630289, Alt.=1271.610352m. Speed=13.356000m/h.</desc>
<speed>3.710000</speed>
</trkpt>
<trkpt lat="42.942822" lon="19.630337">
<ele>1272.891602</ele>
<time>2012-04-30T19:31:00Z</time>
<desc>lat.=42.942822, lon.=19.630337, Alt.=1272.891602m. Speed=14.652000m/h.</desc>
<speed>4.070000</speed>
</trkpt>
<trkpt lat="42.942631" lon="19.630335">
<ele>1273.547852</ele>
<time>2012-04-30T19:31:05Z</time>
<desc>lat.=42.942631, lon.=19.630335, Alt.=1273.547852m. Speed=15.120000m/h.</desc>
<speed>4.200000</speed>
</trkpt>
<trkpt lat="42.942455" lon="19.630354">
<ele>1272.422852</ele>
<time>2012-04-30T19:31:10Z</time>
<desc>lat.=42.942455, lon.=19.630354, Alt.=1272.422852m. Speed=14.256000m/h.</desc>
<speed>3.960000</speed>
</trkpt>
<trkpt lat="42.942249" lon="19.630383">
<ele>1270.985352</ele>
<time>2012-04-30T19:31:15Z</time>
<desc>lat.=42.942249, lon.=19.630383, Alt.=1270.985352m. Speed=15.264000m/h.</desc>
<speed>4.240000</speed>
</trkpt>
<trkpt lat="42.942142" lon="19.630411">
<ele>1265.829102</ele>
<time>2012-04-30T19:31:20Z</time>
<desc>lat.=42.942142, lon.=19.630411, Alt.=1265.829102m. Speed=5.904000m/h.</desc>
<speed>1.640000</speed>
</trkpt>
<trkpt lat="42.942181" lon="19.630312">
<ele>1262.297852</ele>
<time>2012-04-30T19:31:25Z</time>
<desc>lat.=42.942181, lon.=19.630312, Alt.=1262.297852m. Speed=11.304000m/h.</desc>
<speed>3.140000</speed>
</trkpt>
<trkpt lat="42.942230" lon="19.630106">
<ele>1260.547852</ele>
<time>2012-04-30T19:31:30Z</time>
<desc>lat.=42.942230, lon.=19.630106, Alt.=1260.547852m. Speed=12.780000m/h.</desc>
<speed>3.550000</speed>
</trkpt>
<trkpt lat="42.942284" lon="19.629948">
<ele>1259.422852</ele>
<time>2012-04-30T19:31:35Z</time>
<desc>lat.=42.942284, lon.=19.629948, Alt.=1259.422852m. Speed=7.200000m/h.</desc>
<speed>2.000000</speed>
</trkpt>
<trkpt lat="42.942337" lon="19.629780">
<ele>1255.204102</ele>
<time>2012-04-30T19:31:40Z</time>
<desc>lat.=42.942337, lon.=19.629780, Alt.=1255.204102m. Speed=13.824000m/h.</desc>
<speed>3.840000</speed>
</trkpt>
<trkpt lat="42.942482" lon="19.629610">
<ele>1251.829102</ele>
<time>2012-04-30T19:31:45Z</time>
<desc>lat.=42.942482, lon.=19.629610, Alt.=1251.829102m. Speed=15.516000m/h.</desc>
<speed>4.310000</speed>
</trkpt>
<trkpt lat="42.942654" lon="19.629442">
<ele>1249.641602</ele>
<time>2012-04-30T19:31:50Z</time>
<desc>lat.=42.942654, lon.=19.629442, Alt.=1249.641602m. Speed=19.260000m/h.</desc>
<speed>5.350000</speed>
</trkpt>
<trkpt lat="42.942760" lon="19.629139">
<ele>1248.110352</ele>
<time>2012-04-30T19:31:55Z</time>
<desc>lat.=42.942760, lon.=19.629139, Alt.=1248.110352m. Speed=15.192000m/h.</desc>
<speed>4.220000</speed>
</trkpt>
<trkpt lat="42.942829" lon="19.628893">
<ele>1246.985352</ele>
<time>2012-04-30T19:32:00Z</time>
<desc>lat.=42.942829, lon.=19.628893, Alt.=1246.985352m. Speed=14.976000m/h.</desc>
<speed>4.160000</speed>
</trkpt>
<trkpt lat="42.942989" lon="19.628696">
<ele>1245.016602</ele>
<time>2012-04-30T19:32:05Z</time>
<desc>lat.=42.942989, lon.=19.628696, Alt.=1245.016602m. Speed=14.652000m/h.</desc>
<speed>4.070000</speed>
</trkpt>
<trkpt lat="42.943130" lon="19.628538">
<ele>1242.766602</ele>
<time>2012-04-30T19:32:10Z</time>
<desc>lat.=42.943130, lon.=19.628538, Alt.=1242.766602m. Speed=17.316000m/h.</desc>
<speed>4.810000</speed>
</trkpt>
<trkpt lat="42.943260" lon="19.628325">
<ele>1240.204102</ele>
<time>2012-04-30T19:32:15Z</time>
<desc>lat.=42.943260, lon.=19.628325, Alt.=1240.204102m. Speed=15.732000m/h.</desc>
<speed>4.370000</speed>
</trkpt>
<trkpt lat="42.943363" lon="19.628113">
<ele>1237.766602</ele>
<time>2012-04-30T19:32:20Z</time>
<desc>lat.=42.943363, lon.=19.628113, Alt.=1237.766602m. Speed=14.040000m/h.</desc>
<speed>3.900000</speed>
</trkpt>
<trkpt lat="42.943447" lon="19.627947">
<ele>1234.766602</ele>
<time>2012-04-30T19:32:25Z</time>
<desc>lat.=42.943447, lon.=19.627947, Alt.=1234.766602m. Speed=13.644000m/h.</desc>
<speed>3.790000</speed>
</trkpt>
<trkpt lat="42.943409" lon="19.627613">
<ele>1232.422852</ele>
<time>2012-04-30T19:32:30Z</time>
<desc>lat.=42.943409, lon.=19.627613, Alt.=1232.422852m. Speed=16.740000m/h.</desc>
<speed>4.650000</speed>
</trkpt>
<trkpt lat="42.943451" lon="19.627333">
<ele>1230.704102</ele>
<time>2012-04-30T19:32:35Z</time>
<desc>lat.=42.943451, lon.=19.627333, Alt.=1230.704102m. Speed=14.868000m/h.</desc>
<speed>4.130000</speed>
</trkpt>
<trkpt lat="42.943600" lon="19.627159">
<ele>1227.704102</ele>
<time>2012-04-30T19:32:40Z</time>
<desc>lat.=42.943600, lon.=19.627159, Alt.=1227.704102m. Speed=14.220000m/h.</desc>
<speed>3.950000</speed>
</trkpt>
<trkpt lat="42.943741" lon="19.626959">
<ele>1226.516602</ele>
<time>2012-04-30T19:32:45Z</time>
<desc>lat.=42.943741, lon.=19.626959, Alt.=1226.516602m. Speed=17.351999m/h.</desc>
<speed>4.820000</speed>
</trkpt>
<trkpt lat="42.943855" lon="19.626717">
<ele>1225.922852</ele>
<time>2012-04-30T19:32:50Z</time>
<desc>lat.=42.943855, lon.=19.626717, Alt.=1225.922852m. Speed=16.488001m/h.</desc>
<speed>4.580000</speed>
</trkpt>
<trkpt lat="42.943958" lon="19.626474">
<ele>1224.297852</ele>
<time>2012-04-30T19:32:55Z</time>
<desc>lat.=42.943958, lon.=19.626474, Alt.=1224.297852m. Speed=16.379999m/h.</desc>
<speed>4.550000</speed>
</trkpt>
<trkpt lat="42.944057" lon="19.626236">
<ele>1222.547852</ele>
<time>2012-04-30T19:33:00Z</time>
<desc>lat.=42.944057, lon.=19.626236, Alt.=1222.547852m. Speed=15.732000m/h.</desc>
<speed>4.370000</speed>
</trkpt>
<trkpt lat="42.944122" lon="19.626020">
<ele>1220.610352</ele>
<time>2012-04-30T19:33:05Z</time>
<desc>lat.=42.944122, lon.=19.626020, Alt.=1220.610352m. Speed=11.664000m/h.</desc>
<speed>3.240000</speed>
</trkpt>
<trkpt lat="42.944218" lon="19.625799">
<ele>1219.266602</ele>
<time>2012-04-30T19:33:10Z</time>
<desc>lat.=42.944218, lon.=19.625799, Alt.=1219.266602m. Speed=14.904000m/h.</desc>
<speed>4.140000</speed>
</trkpt>
<trkpt lat="42.944324" lon="19.625576">
<ele>1216.454102</ele>
<time>2012-04-30T19:33:15Z</time>
<desc>lat.=42.944324, lon.=19.625576, Alt.=1216.454102m. Speed=13.464000m/h.</desc>
<speed>3.740000</speed>
</trkpt>
<trkpt lat="42.944408" lon="19.625385">
<ele>1214.266602</ele>
<time>2012-04-30T19:33:20Z</time>
<desc>lat.=42.944408, lon.=19.625385, Alt.=1214.266602m. Speed=13.932000m/h.</desc>
<speed>3.870000</speed>
</trkpt>
<trkpt lat="42.944527" lon="19.625237">
<ele>1212.329102</ele>
<time>2012-04-30T19:33:25Z</time>
<desc>lat.=42.944527, lon.=19.625237, Alt.=1212.329102m. Speed=10.368000m/h.</desc>
<speed>2.880000</speed>
</trkpt>
<trkpt lat="42.944633" lon="19.625126">
<ele>1211.641602</ele>
<time>2012-04-30T19:33:30Z</time>
<desc>lat.=42.944633, lon.=19.625126, Alt.=1211.641602m. Speed=11.160000m/h.</desc>
<speed>3.100000</speed>
</trkpt>
<trkpt lat="42.944740" lon="19.625074">
<ele>1209.454102</ele>
<time>2012-04-30T19:33:35Z</time>
<desc>lat.=42.944740, lon.=19.625074, Alt.=1209.454102m. Speed=7.776000m/h.</desc>
<speed>2.160000</speed>
</trkpt>
<trkpt lat="42.944881" lon="19.625029">
<ele>1207.422852</ele>
<time>2012-04-30T19:33:40Z</time>
<desc>lat.=42.944881, lon.=19.625029, Alt.=1207.422852m. Speed=9.540000m/h.</desc>
<speed>2.650000</speed>
</trkpt>
<trkpt lat="42.944958" lon="19.625019">
<ele>1206.360352</ele>
<time>2012-04-30T19:33:45Z</time>
<desc>lat.=42.944958, lon.=19.625019, Alt.=1206.360352m. Speed=7.452000m/h.</desc>
<speed>2.070000</speed>
</trkpt>
<trkpt lat="42.945080" lon="19.625071">
<ele>1205.454102</ele>
<time>2012-04-30T19:33:50Z</time>
<desc>lat.=42.945080, lon.=19.625071, Alt.=1205.454102m. Speed=10.764000m/h.</desc>
<speed>2.990000</speed>
</trkpt>
<trkpt lat="42.945206" lon="19.625099">
<ele>1204.860352</ele>
<time>2012-04-30T19:33:55Z</time>
<desc>lat.=42.945206, lon.=19.625099, Alt.=1204.860352m. Speed=6.264000m/h.</desc>
<speed>1.740000</speed>
</trkpt>
<trkpt lat="42.945320" lon="19.625038">
<ele>1203.766602</ele>
<time>2012-04-30T19:34:00Z</time>
<desc>lat.=42.945320, lon.=19.625038, Alt.=1203.766602m. Speed=7.344000m/h.</desc>
<speed>2.040000</speed>
</trkpt>
<trkpt lat="42.945606" lon="19.624897">
<ele>1198.235352</ele>
<time>2012-04-30T19:34:05Z</time>
<desc>lat.=42.945606, lon.=19.624897, Alt.=1198.235352m. Speed=19.980000m/h.</desc>
<speed>5.550000</speed>
</trkpt>
<trkpt lat="42.945835" lon="19.624662">
<ele>1194.047852</ele>
<time>2012-04-30T19:34:10Z</time>
<desc>lat.=42.945835, lon.=19.624662, Alt.=1194.047852m. Speed=14.940000m/h.</desc>
<speed>4.150000</speed>
</trkpt>
<trkpt lat="42.945896" lon="19.624628">
<ele>1192.047852</ele>
<time>2012-04-30T19:34:15Z</time>
<desc>lat.=42.945896, lon.=19.624628, Alt.=1192.047852m. Speed=0.720000m/h.</desc>
<speed>0.200000</speed>
</trkpt>
<trkpt lat="42.945889" lon="19.624628">
<ele>1191.641602</ele>
<time>2012-04-30T19:34:20Z</time>
<desc>lat.=42.945889, lon.=19.624628, Alt.=1191.641602m. Speed=0.504000m/h.</desc>
<speed>0.140000</speed>
</trkpt>
<trkpt lat="42.945896" lon="19.624632">
<ele>1191.422852</ele>
<time>2012-04-30T19:34:25Z</time>
<desc>lat.=42.945896, lon.=19.624632, Alt.=1191.422852m. Speed=1.080000m/h.</desc>
<speed>0.300000</speed>
</trkpt>
<trkpt lat="42.945923" lon="19.624638">
<ele>1191.391602</ele>
<time>2012-04-30T19:34:30Z</time>
<desc>lat.=42.945923, lon.=19.624638, Alt.=1191.391602m. Speed=3.024000m/h.</desc>
<speed>0.840000</speed>
</trkpt>
<trkpt lat="42.945953" lon="19.624655">
<ele>1191.422852</ele>
<time>2012-04-30T19:34:35Z</time>
<desc>lat.=42.945953, lon.=19.624655, Alt.=1191.422852m. Speed=1.008000m/h.</desc>
<speed>0.280000</speed>
</trkpt>
<trkpt lat="42.945961" lon="19.624660">
<ele>1191.454102</ele>
<time>2012-04-30T19:34:40Z</time>
<desc>lat.=42.945961, lon.=19.624660, Alt.=1191.454102m. Speed=0.396000m/h.</desc>
<speed>0.110000</speed>
</trkpt>
<trkpt lat="42.945972" lon="19.624668">
<ele>1191.454102</ele>
<time>2012-04-30T19:34:45Z</time>
<desc>lat.=42.945972, lon.=19.624668, Alt.=1191.454102m. Speed=0.972000m/h.</desc>
<speed>0.270000</speed>
</trkpt>
<trkpt lat="42.945984" lon="19.624674">
<ele>1191.485352</ele>
<time>2012-04-30T19:34:50Z</time>
<desc>lat.=42.945984, lon.=19.624674, Alt.=1191.485352m. Speed=0.756000m/h.</desc>
<speed>0.210000</speed>
</trkpt>
<trkpt lat="42.945995" lon="19.624681">
<ele>1191.454102</ele>
<time>2012-04-30T19:34:55Z</time>
<desc>lat.=42.945995, lon.=19.624681, Alt.=1191.454102m. Speed=1.692000m/h.</desc>
<speed>0.470000</speed>
</trkpt>
<trkpt lat="42.946018" lon="19.624695">
<ele>1191.454102</ele>
<time>2012-04-30T19:35:00Z</time>
<desc>lat.=42.946018, lon.=19.624695, Alt.=1191.454102m. Speed=1.008000m/h.</desc>
<speed>0.280000</speed>
</trkpt>
<trkpt lat="42.946026" lon="19.624699">
<ele>1191.391602</ele>
<time>2012-04-30T19:35:05Z</time>
<desc>lat.=42.946026, lon.=19.624699, Alt.=1191.391602m. Speed=0.468000m/h.</desc>
<speed>0.130000</speed>
</trkpt>
<trkpt lat="42.946033" lon="19.624702">
<ele>1191.329102</ele>
<time>2012-04-30T19:35:10Z</time>
<desc>lat.=42.946033, lon.=19.624702, Alt.=1191.329102m. Speed=0.360000m/h.</desc>
<speed>0.100000</speed>
</trkpt>
<trkpt lat="42.946041" lon="19.624704">
<ele>1191.266602</ele>
<time>2012-04-30T19:35:15Z</time>
<desc>lat.=42.946041, lon.=19.624704, Alt.=1191.266602m. Speed=1.656000m/h.</desc>
<speed>0.460000</speed>
</trkpt>
<trkpt lat="42.946091" lon="19.624722">
<ele>1189.985352</ele>
<time>2012-04-30T19:35:20Z</time>
<desc>lat.=42.946091, lon.=19.624722, Alt.=1189.985352m. Speed=7.956000m/h.</desc>
<speed>2.210000</speed>
</trkpt>
<trkpt lat="42.946133" lon="19.624758">
<ele>1188.172852</ele>
<time>2012-04-30T19:35:25Z</time>
<desc>lat.=42.946133, lon.=19.624758, Alt.=1188.172852m. Speed=3.852000m/h.</desc>
<speed>1.070000</speed>
</trkpt>
<trkpt lat="42.946178" lon="19.624846">
<ele>1186.141602</ele>
<time>2012-04-30T19:35:30Z</time>
<desc>lat.=42.946178, lon.=19.624846, Alt.=1186.141602m. Speed=5.760000m/h.</desc>
<speed>1.600000</speed>
</trkpt>
<trkpt lat="42.946289" lon="19.624863">
<ele>1186.797852</ele>
<time>2012-04-30T19:35:35Z</time>
<desc>lat.=42.946289, lon.=19.624863, Alt.=1186.797852m. Speed=6.984000m/h.</desc>
<speed>1.940000</speed>
</trkpt>
<trkpt lat="42.946369" lon="19.624868">
<ele>1189.329102</ele>
<time>2012-04-30T19:35:40Z</time>
<desc>lat.=42.946369, lon.=19.624868, Alt.=1189.329102m. Speed=7.596000m/h.</desc>
<speed>2.110000</speed>
</trkpt>
<trkpt lat="42.946453" lon="19.624884">
<ele>1190.797852</ele>
<time>2012-04-30T19:35:45Z</time>
<desc>lat.=42.946453, lon.=19.624884, Alt.=1190.797852m. Speed=3.744000m/h.</desc>
<speed>1.040000</speed>
</trkpt>
<trkpt lat="42.946564" lon="19.624889">
<ele>1190.922852</ele>
<time>2012-04-30T19:35:50Z</time>
<desc>lat.=42.946564, lon.=19.624889, Alt.=1190.922852m. Speed=7.920000m/h.</desc>
<speed>2.200000</speed>
</trkpt>
<trkpt lat="42.946743" lon="19.624973">
<ele>1192.360352</ele>
<time>2012-04-30T19:35:55Z</time>
<desc>lat.=42.946743, lon.=19.624973, Alt.=1192.360352m. Speed=8.820000m/h.</desc>
<speed>2.450000</speed>
</trkpt>
<trkpt lat="42.946812" lon="19.625071">
<ele>1191.672852</ele>
<time>2012-04-30T19:36:00Z</time>
<desc>lat.=42.946812, lon.=19.625071, Alt.=1191.672852m. Speed=6.156000m/h.</desc>
<speed>1.710000</speed>
</trkpt>
<trkpt lat="42.946873" lon="19.625116">
<ele>1194.610352</ele>
<time>2012-04-30T19:36:05Z</time>
<desc>lat.=42.946873, lon.=19.625116, Alt.=1194.610352m. Speed=3.960000m/h.</desc>
<speed>1.100000</speed>
</trkpt>
<trkpt lat="42.946949" lon="19.625076">
<ele>1195.829102</ele>
<time>2012-04-30T19:36:10Z</time>
<desc>lat.=42.946949, lon.=19.625076, Alt.=1195.829102m. Speed=5.256000m/h.</desc>
<speed>1.460000</speed>
</trkpt>
<trkpt lat="42.947041" lon="19.625031">
<ele>1195.297852</ele>
<time>2012-04-30T19:36:15Z</time>
<desc>lat.=42.947041, lon.=19.625031, Alt.=1195.297852m. Speed=4.680000m/h.</desc>
<speed>1.300000</speed>
</trkpt>
<trkpt lat="42.947144" lon="19.624966">
<ele>1195.141602</ele>
<time>2012-04-30T19:36:20Z</time>
<desc>lat.=42.947144, lon.=19.624966, Alt.=1195.141602m. Speed=9.324000m/h.</desc>
<speed>2.590000</speed>
</trkpt>
<trkpt lat="42.947308" lon="19.624952">
<ele>1194.454102</ele>
<time>2012-04-30T19:36:25Z</time>
<desc>lat.=42.947308, lon.=19.624952, Alt.=1194.454102m. Speed=12.564000m/h.</desc>
<speed>3.490000</speed>
</trkpt>
<trkpt lat="42.947498" lon="19.624912">
<ele>1197.016602</ele>
<time>2012-04-30T19:36:30Z</time>
<desc>lat.=42.947498, lon.=19.624912, Alt.=1197.016602m. Speed=17.676001m/h.</desc>
<speed>4.910000</speed>
</trkpt>
<trkpt lat="42.947632" lon="19.624775">
<ele>1196.516602</ele>
<time>2012-04-30T19:36:35Z</time>
<desc>lat.=42.947632, lon.=19.624775, Alt.=1196.516602m. Speed=14.760000m/h.</desc>
<speed>4.100000</speed>
</trkpt>
<trkpt lat="42.947735" lon="19.624516">
<ele>1195.547852</ele>
<time>2012-04-30T19:36:40Z</time>
<desc>lat.=42.947735, lon.=19.624516, Alt.=1195.547852m. Speed=17.604000m/h.</desc>
<speed>4.890000</speed>
</trkpt>
<trkpt lat="42.947826" lon="19.624252">
<ele>1196.329102</ele>
<time>2012-04-30T19:36:45Z</time>
<desc>lat.=42.947826, lon.=19.624252, Alt.=1196.329102m. Speed=12.132000m/h.</desc>
<speed>3.370000</speed>
</trkpt>
<trkpt lat="42.947861" lon="19.624069">
<ele>1197.266602</ele>
<time>2012-04-30T19:36:50Z</time>
<desc>lat.=42.947861, lon.=19.624069, Alt.=1197.266602m. Speed=11.412000m/h.</desc>
<speed>3.170000</speed>
</trkpt>
<trkpt lat="42.947960" lon="19.623875">
<ele>1197.391602</ele>
<time>2012-04-30T19:36:55Z</time>
<desc>lat.=42.947960, lon.=19.623875, Alt.=1197.391602m. Speed=13.356000m/h.</desc>
<speed>3.710000</speed>
</trkpt>
<trkpt lat="42.948025" lon="19.623671">
<ele>1197.579102</ele>
<time>2012-04-30T19:37:00Z</time>
<desc>lat.=42.948025, lon.=19.623671, Alt.=1197.579102m. Speed=15.156000m/h.</desc>
<speed>4.210000</speed>
</trkpt>
<trkpt lat="42.948090" lon="19.623457">
<ele>1195.454102</ele>
<time>2012-04-30T19:37:05Z</time>
<desc>lat.=42.948090, lon.=19.623457, Alt.=1195.454102m. Speed=14.328000m/h.</desc>
<speed>3.980000</speed>
</trkpt>
<trkpt lat="42.948242" lon="19.623285">
<ele>1194.516602</ele>
<time>2012-04-30T19:37:10Z</time>
<desc>lat.=42.948242, lon.=19.623285, Alt.=1194.516602m. Speed=16.056000m/h.</desc>
<speed>4.460000</speed>
</trkpt>
<trkpt lat="42.948410" lon="19.623142">
<ele>1192.641602</ele>
<time>2012-04-30T19:37:15Z</time>
<desc>lat.=42.948410, lon.=19.623142, Alt.=1192.641602m. Speed=15.804000m/h.</desc>
<speed>4.390000</speed>
</trkpt>
<trkpt lat="42.948528" lon="19.622978">
<ele>1190.422852</ele>
<time>2012-04-30T19:37:20Z</time>
<desc>lat.=42.948528, lon.=19.622978, Alt.=1190.422852m. Speed=12.636000m/h.</desc>
<speed>3.510000</speed>
</trkpt>
<trkpt lat="42.948662" lon="19.622755">
<ele>1188.235352</ele>
<time>2012-04-30T19:37:25Z</time>
<desc>lat.=42.948662, lon.=19.622755, Alt.=1188.235352m. Speed=16.524000m/h.</desc>
<speed>4.590000</speed>
</trkpt>
<trkpt lat="42.948750" lon="19.622417">
<ele>1185.610352</ele>
<time>2012-04-30T19:37:30Z</time>
<desc>lat.=42.948750, lon.=19.622417, Alt.=1185.610352m. Speed=21.996000m/h.</desc>
<speed>6.110000</speed>
</trkpt>
<trkpt lat="42.948784" lon="19.621983">
<ele>1182.079102</ele>
<time>2012-04-30T19:37:35Z</time>
<desc>lat.=42.948784, lon.=19.621983, Alt.=1182.079102m. Speed=19.440001m/h.</desc>
<speed>5.400000</speed>
</trkpt>
<trkpt lat="42.948837" lon="19.621696">
<ele>1179.297852</ele>
<time>2012-04-30T19:37:40Z</time>
<desc>lat.=42.948837, lon.=19.621696, Alt.=1179.297852m. Speed=18.648001m/h.</desc>
<speed>5.180000</speed>
</trkpt>
<trkpt lat="42.948841" lon="19.621435">
<ele>1176.454102</ele>
<time>2012-04-30T19:37:45Z</time>
<desc>lat.=42.948841, lon.=19.621435, Alt.=1176.454102m. Speed=13.896000m/h.</desc>
<speed>3.860000</speed>
</trkpt>
<trkpt lat="42.948856" lon="19.621172">
<ele>1173.266602</ele>
<time>2012-04-30T19:37:50Z</time>
<desc>lat.=42.948856, lon.=19.621172, Alt.=1173.266602m. Speed=15.588000m/h.</desc>
<speed>4.330000</speed>
</trkpt>
<trkpt lat="42.948868" lon="19.620909">
<ele>1170.672852</ele>
<time>2012-04-30T19:37:55Z</time>
<desc>lat.=42.948868, lon.=19.620909, Alt.=1170.672852m. Speed=15.768000m/h.</desc>
<speed>4.380000</speed>
</trkpt>
<trkpt lat="42.948875" lon="19.620783">
<ele>1168.454102</ele>
<time>2012-04-30T19:38:00Z</time>
<desc>lat.=42.948875, lon.=19.620783, Alt.=1168.454102m. Speed=0.720000m/h.</desc>
<speed>0.200000</speed>
</trkpt>
<trkpt lat="42.948879" lon="19.620783">
<ele>1168.266602</ele>
<time>2012-04-30T19:38:05Z</time>
<desc>lat.=42.948879, lon.=19.620783, Alt.=1168.266602m. Speed=0.828000m/h.</desc>
<speed>0.230000</speed>
</trkpt>
<trkpt lat="42.948887" lon="19.620789">
<ele>1168.235352</ele>
<time>2012-04-30T19:38:10Z</time>
<desc>lat.=42.948887, lon.=19.620789, Alt.=1168.235352m. Speed=0.432000m/h.</desc>
<speed>0.120000</speed>
</trkpt>
<trkpt lat="42.948822" lon="19.620672">
<ele>1168.079102</ele>
<time>2012-04-30T19:38:15Z</time>
<desc>lat.=42.948822, lon.=19.620672, Alt.=1168.079102m. Speed=13.896000m/h.</desc>
<speed>3.860000</speed>
</trkpt>
<trkpt lat="42.948780" lon="19.620451">
<ele>1167.547852</ele>
<time>2012-04-30T19:38:20Z</time>
<desc>lat.=42.948780, lon.=19.620451, Alt.=1167.547852m. Speed=13.140000m/h.</desc>
<speed>3.650000</speed>
</trkpt>
<trkpt lat="42.948788" lon="19.620247">
<ele>1166.141602</ele>
<time>2012-04-30T19:38:25Z</time>
<desc>lat.=42.948788, lon.=19.620247, Alt.=1166.141602m. Speed=9.864000m/h.</desc>
<speed>2.740000</speed>
</trkpt>
<trkpt lat="42.948715" lon="19.620104">
<ele>1164.297852</ele>
<time>2012-04-30T19:38:30Z</time>
<desc>lat.=42.948715, lon.=19.620104, Alt.=1164.297852m. Speed=10.728000m/h.</desc>
<speed>2.980000</speed>
</trkpt>
<trkpt lat="42.948547" lon="19.619978">
<ele>1162.360352</ele>
<time>2012-04-30T19:38:35Z</time>
<desc>lat.=42.948547, lon.=19.619978, Alt.=1162.360352m. Speed=14.760000m/h.</desc>
<speed>4.100000</speed>
</trkpt>
<trkpt lat="42.948387" lon="19.619823">
<ele>1160.454102</ele>
<time>2012-04-30T19:38:40Z</time>
<desc>lat.=42.948387, lon.=19.619823, Alt.=1160.454102m. Speed=12.924000m/h.</desc>
<speed>3.590000</speed>
</trkpt>
<trkpt lat="42.948257" lon="19.619621">
<ele>1158.141602</ele>
<time>2012-04-30T19:38:45Z</time>
<desc>lat.=42.948257, lon.=19.619621, Alt.=1158.141602m. Speed=14.616000m/h.</desc>
<speed>4.060000</speed>
</trkpt>
<trkpt lat="42.948116" lon="19.619459">
<ele>1155.860352</ele>
<time>2012-04-30T19:38:50Z</time>
<desc>lat.=42.948116, lon.=19.619459, Alt.=1155.860352m. Speed=12.528000m/h.</desc>
<speed>3.480000</speed>
</trkpt>
<trkpt lat="42.947971" lon="19.619326">
<ele>1152.797852</ele>
<time>2012-04-30T19:38:55Z</time>
<desc>lat.=42.947971, lon.=19.619326, Alt.=1152.797852m. Speed=12.132000m/h.</desc>
<speed>3.370000</speed>
</trkpt>
<trkpt lat="42.947834" lon="19.619207">
<ele>1150.360352</ele>
<time>2012-04-30T19:39:00Z</time>
<desc>lat.=42.947834, lon.=19.619207, Alt.=1150.360352m. Speed=13.464000m/h.</desc>
<speed>3.740000</speed>
</trkpt>
<trkpt lat="42.947693" lon="19.619175">
<ele>1147.829102</ele>
<time>2012-04-30T19:39:05Z</time>
<desc>lat.=42.947693, lon.=19.619175, Alt.=1147.829102m. Speed=10.800000m/h.</desc>
<speed>3.000000</speed>
</trkpt>
<trkpt lat="42.947582" lon="19.619116">
<ele>1144.547852</ele>
<time>2012-04-30T19:39:10Z</time>
<desc>lat.=42.947582, lon.=19.619116, Alt.=1144.547852m. Speed=6.876000m/h.</desc>
<speed>1.910000</speed>
</trkpt>
<trkpt lat="42.947586" lon="19.619062">
<ele>1144.579102</ele>
<time>2012-04-30T19:39:15Z</time>
<desc>lat.=42.947586, lon.=19.619062, Alt.=1144.579102m. Speed=0.432000m/h.</desc>
<speed>0.120000</speed>
</trkpt>
<trkpt lat="42.947590" lon="19.619068">
<ele>1144.704102</ele>
<time>2012-04-30T19:39:20Z</time>
<desc>lat.=42.947590, lon.=19.619068, Alt.=1144.704102m. Speed=0.072000m/h.</desc>
<speed>0.020000</speed>
</trkpt>
<trkpt lat="42.947586" lon="19.619068">
<ele>1144.610352</ele>
<time>2012-04-30T19:39:25Z</time>
<desc>lat.=42.947586, lon.=19.619068, Alt.=1144.610352m. Speed=0.000000m/h.</desc>
<speed>0.000000</speed>
</trkpt>
<trkpt lat="42.947586" lon="19.619070">
<ele>1144.704102</ele>
<time>2012-04-30T19:39:30Z</time>
<desc>lat.=42.947586, lon.=19.619070, Alt.=1144.704102m. Speed=0.360000m/h.</desc>
<speed>0.100000</speed>
</trkpt>
<trkpt lat="42.947582" lon="19.619068">
<ele>1144.641602</ele>
<time>2012-04-30T19:39:35Z</time>
<desc>lat.=42.947582, lon.=19.619068, Alt.=1144.641602m. Speed=0.072000m/h.</desc>
<speed>0.020000</speed>
</trkpt>
<trkpt lat="42.947582" lon="19.619068">
<ele>1144.610352</ele>
<time>2012-04-30T19:39:40Z</time>
<desc>lat.=42.947582, lon.=19.619068, Alt.=1144.610352m. Speed=0.612000m/h.</desc>
<speed>0.170000</speed>
</trkpt>
<trkpt lat="42.947582" lon="19.619066">
<ele>1144.672852</ele>
<time>2012-04-30T19:39:45Z</time>
<desc>lat.=42.947582, lon.=19.619066, Alt.=1144.672852m. Speed=0.036000m/h.</desc>
<speed>0.010000</speed>
</trkpt>
<trkpt lat="42.947586" lon="19.619066">
<ele>1144.672852</ele>
<time>2012-04-30T19:39:50Z</time>
<desc>lat.=42.947586, lon.=19.619066, Alt.=1144.672852m. Speed=0.000000m/h.</desc>
<speed>0.000000</speed>
</trkpt>
<trkpt lat="42.947586" lon="19.619066">
<ele>1144.672852</ele>
<time>2012-04-30T19:39:55Z</time>
<desc>lat.=42.947586, lon.=19.619066, Alt.=1144.672852m. Speed=0.000000m/h.</desc>
<speed>0.000000</speed>
</trkpt>
<trkpt lat="42.947582" lon="19.619066">
<ele>1144.672852</ele>
<time>2012-04-30T19:40:00Z</time>
<desc>lat.=42.947582, lon.=19.619066, Alt.=1144.672852m. Speed=0.000000m/h.</desc>
<speed>0.000000</speed>
</trkpt>
<trkpt lat="42.947582" lon="19.619066">
<ele>1144.672852</ele>
<time>2012-04-30T19:40:05Z</time>
<desc>lat.=42.947582, lon.=19.619066, Alt.=1144.672852m. Speed=0.000000m/h.</desc>
<speed>0.000000</speed>
</trkpt>
<trkpt lat="42.947586" lon="19.619068">
<ele>1144.704102</ele>
<time>2012-04-30T19:40:10Z</time>
<desc>lat.=42.947586, lon.=19.619068, Alt.=1144.704102m. Speed=0.036000m/h.</desc>
<speed>0.010000</speed>
</trkpt>
<trkpt lat="42.947586" lon="19.619068">
<ele>1144.735352</ele>
<time>2012-04-30T19:40:15Z</time>
<desc>lat.=42.947586, lon.=19.619068, Alt.=1144.735352m. Speed=0.000000m/h.</desc>
<speed>0.000000</speed>
</trkpt>
<trkpt lat="42.947586" lon="19.619068">
<ele>1144.735352</ele>
<time>2012-04-30T19:40:20Z</time>
<desc>lat.=42.947586, lon.=19.619068, Alt.=1144.735352m. Speed=0.072000m/h.</desc>
<speed>0.020000</speed>
</trkpt>
<trkpt lat="42.947586" lon="19.619068">
<ele>1144.797852</ele>
<time>2012-04-30T19:40:25Z</time>
<desc>lat.=42.947586, lon.=19.619068, Alt.=1144.797852m. Speed=0.072000m/h.</desc>
<speed>0.020000</speed>
</trkpt>
<trkpt lat="42.947586" lon="19.619062">
<ele>1144.766602</ele>
<time>2012-04-30T19:40:30Z</time>
<desc>lat.=42.947586, lon.=19.619062, Alt.=1144.766602m. Speed=4.716000m/h.</desc>
<speed>1.310000</speed>
</trkpt>
<trkpt lat="42.947647" lon="19.618975">
<ele>1143.610352</ele>
<time>2012-04-30T19:40:35Z</time>
<desc>lat.=42.947647, lon.=19.618975, Alt.=1143.610352m. Speed=9.756000m/h.</desc>
<speed>2.710000</speed>
</trkpt>
<trkpt lat="42.947781" lon="19.618923">
<ele>1141.922852</ele>
<time>2012-04-30T19:40:40Z</time>
<desc>lat.=42.947781, lon.=19.618923, Alt.=1141.922852m. Speed=11.196000m/h.</desc>
<speed>3.110000</speed>
</trkpt>
<trkpt lat="42.947868" lon="19.618963">
<ele>1141.360352</ele>
<time>2012-04-30T19:40:45Z</time>
<desc>lat.=42.947868, lon.=19.618963, Alt.=1141.360352m. Speed=7.920000m/h.</desc>
<speed>2.200000</speed>
</trkpt>
<trkpt lat="42.947979" lon="19.618895">
<ele>1138.360352</ele>
<time>2012-04-30T19:40:50Z</time>
<desc>lat.=42.947979, lon.=19.618895, Alt.=1138.360352m. Speed=5.112000m/h.</desc>
<speed>1.420000</speed>
</trkpt>
<trkpt lat="42.947971" lon="19.618784">
<ele>1136.172852</ele>
<time>2012-04-30T19:40:55Z</time>
<desc>lat.=42.947971, lon.=19.618784, Alt.=1136.172852m. Speed=8.784000m/h.</desc>
<speed>2.440000</speed>
</trkpt>
<trkpt lat="42.947884" lon="19.618643">
<ele>1134.297852</ele>
<time>2012-04-30T19:41:00Z</time>
<desc>lat.=42.947884, lon.=19.618643, Alt.=1134.297852m. Speed=12.024000m/h.</desc>
<speed>3.340000</speed>
</trkpt>
<trkpt lat="42.947754" lon="19.618507">
<ele>1131.641602</ele>
<time>2012-04-30T19:41:05Z</time>
<desc>lat.=42.947754, lon.=19.618507, Alt.=1131.641602m. Speed=10.836000m/h.</desc>
<speed>3.010000</speed>
</trkpt>
<trkpt lat="42.947628" lon="19.618418">
<ele>1128.641602</ele>
<time>2012-04-30T19:41:10Z</time>
<desc>lat.=42.947628, lon.=19.618418, Alt.=1128.641602m. Speed=11.088000m/h.</desc>
<speed>3.080000</speed>
</trkpt>
<trkpt lat="42.947514" lon="19.618317">
<ele>1128.079102</ele>
<time>2012-04-30T19:41:15Z</time>
<desc>lat.=42.947514, lon.=19.618317, Alt.=1128.079102m. Speed=12.276000m/h.</desc>
<speed>3.410000</speed>
</trkpt>
<trkpt lat="42.947361" lon="19.618231">
<ele>1126.079102</ele>
<time>2012-04-30T19:41:20Z</time>
<desc>lat.=42.947361, lon.=19.618231, Alt.=1126.079102m. Speed=12.168000m/h.</desc>
<speed>3.380000</speed>
</trkpt>
<trkpt lat="42.947216" lon="19.618156">
<ele>1124.235352</ele>
<time>2012-04-30T19:41:25Z</time>
<desc>lat.=42.947216, lon.=19.618156, Alt.=1124.235352m. Speed=10.080000m/h.</desc>
<speed>2.800000</speed>
</trkpt>
<trkpt lat="42.947132" lon="19.618032">
<ele>1123.360352</ele>
<time>2012-04-30T19:41:30Z</time>
<desc>lat.=42.947132, lon.=19.618032, Alt.=1123.360352m. Speed=9.468000m/h.</desc>
<speed>2.630000</speed>
</trkpt>
<trkpt lat="42.947186" lon="19.617918">
<ele>1121.547852</ele>
<time>2012-04-30T19:41:35Z</time>
<desc>lat.=42.947186, lon.=19.617918, Alt.=1121.547852m. Speed=11.880000m/h.</desc>
<speed>3.300000</speed>
</trkpt>
<trkpt lat="42.947289" lon="19.617846">
<ele>1119.891602</ele>
<time>2012-04-30T19:41:40Z</time>
<desc>lat.=42.947289, lon.=19.617846, Alt.=1119.891602m. Speed=9.504000m/h.</desc>
<speed>2.640000</speed>
</trkpt>
<trkpt lat="42.947308" lon="19.617678">
<ele>1116.672852</ele>
<time>2012-04-30T19:41:45Z</time>
<desc>lat.=42.947308, lon.=19.617678, Alt.=1116.672852m. Speed=11.628000m/h.</desc>
<speed>3.230000</speed>
</trkpt>
<trkpt lat="42.947250" lon="19.617493">
<ele>1113.579102</ele>
<time>2012-04-30T19:41:50Z</time>
<desc>lat.=42.947250, lon.=19.617493, Alt.=1113.579102m. Speed=10.656000m/h.</desc>
<speed>2.960000</speed>
</trkpt>
<trkpt lat="42.947243" lon="19.617285">
<ele>1113.235352</ele>
<time>2012-04-30T19:41:55Z</time>
<desc>lat.=42.947243, lon.=19.617285, Alt.=1113.235352m. Speed=11.772000m/h.</desc>
<speed>3.270000</speed>
</trkpt>
<trkpt lat="42.947243" lon="19.617096">
<ele>1111.672852</ele>
<time>2012-04-30T19:42:00Z</time>
<desc>lat.=42.947243, lon.=19.617096, Alt.=1111.672852m. Speed=11.160000m/h.</desc>
<speed>3.100000</speed>
</trkpt>
<trkpt lat="42.947227" lon="19.616898">
<ele>1110.797852</ele>
<time>2012-04-30T19:42:05Z</time>
<desc>lat.=42.947227, lon.=19.616898, Alt.=1110.797852m. Speed=12.096000m/h.</desc>
<speed>3.360000</speed>
</trkpt>
<trkpt lat="42.947170" lon="19.616728">
<ele>1109.485352</ele>
<time>2012-04-30T19:42:10Z</time>
<desc>lat.=42.947170, lon.=19.616728, Alt.=1109.485352m. Speed=8.028000m/h.</desc>
<speed>2.230000</speed>
</trkpt>
<trkpt lat="42.947094" lon="19.616552">
<ele>1107.391602</ele>
<time>2012-04-30T19:42:15Z</time>
<desc>lat.=42.947094, lon.=19.616552, Alt.=1107.391602m. Speed=11.520000m/h.</desc>
<speed>3.200000</speed>
</trkpt>
<trkpt lat="42.947010" lon="19.616385">
<ele>1104.672852</ele>
<time>2012-04-30T19:42:20Z</time>
<desc>lat.=42.947010, lon.=19.616385, Alt.=1104.672852m. Speed=11.016000m/h.</desc>
<speed>3.060000</speed>
</trkpt>
<trkpt lat="42.946953" lon="19.616196">
<ele>1102.360352</ele>
<time>2012-04-30T19:42:25Z</time>
<desc>lat.=42.946953, lon.=19.616196, Alt.=1102.360352m. Speed=12.240000m/h.</desc>
<speed>3.400000</speed>
</trkpt>
<trkpt lat="42.946899" lon="19.616016">
<ele>1100.297852</ele>
<time>2012-04-30T19:42:30Z</time>
<desc>lat.=42.946899, lon.=19.616016, Alt.=1100.297852m. Speed=10.476000m/h.</desc>
<speed>2.910000</speed>
</trkpt>
<trkpt lat="42.946877" lon="19.615805">
<ele>1097.079102</ele>
<time>2012-04-30T19:42:35Z</time>
<desc>lat.=42.946877, lon.=19.615805, Alt.=1097.079102m. Speed=11.736000m/h.</desc>
<speed>3.260000</speed>
</trkpt>
<trkpt lat="42.946884" lon="19.615602">
<ele>1095.297852</ele>
<time>2012-04-30T19:42:40Z</time>
<desc>lat.=42.946884, lon.=19.615602, Alt.=1095.297852m. Speed=13.896000m/h.</desc>
<speed>3.860000</speed>
</trkpt>
<trkpt lat="42.946918" lon="19.615417">
<ele>1093.829102</ele>
<time>2012-04-30T19:42:45Z</time>
<desc>lat.=42.946918, lon.=19.615417, Alt.=1093.829102m. Speed=11.304000m/h.</desc>
<speed>3.140000</speed>
</trkpt>
<trkpt lat="42.946873" lon="19.615152">
<ele>1093.360352</ele>
<time>2012-04-30T19:42:50Z</time>
<desc>lat.=42.946873, lon.=19.615152, Alt.=1093.360352m. Speed=15.444000m/h.</desc>
<speed>4.290000</speed>
</trkpt>
<trkpt lat="42.946800" lon="19.614866">
<ele>1093.391602</ele>
<time>2012-04-30T19:42:55Z</time>
<desc>lat.=42.946800, lon.=19.614866, Alt.=1093.391602m. Speed=16.920000m/h.</desc>
<speed>4.700000</speed>
</trkpt>
<trkpt lat="42.946701" lon="19.614616">
<ele>1093.172852</ele>
<time>2012-04-30T19:43:00Z</time>
<desc>lat.=42.946701, lon.=19.614616, Alt.=1093.172852m. Speed=14.832000m/h.</desc>
<speed>4.120000</speed>
</trkpt>
<trkpt lat="42.946640" lon="19.614407">
<ele>1093.016602</ele>
<time>2012-04-30T19:43:05Z</time>
<desc>lat.=42.946640, lon.=19.614407, Alt.=1093.016602m. Speed=10.332000m/h.</desc>
<speed>2.870000</speed>
</trkpt>
<trkpt lat="42.946560" lon="19.614193">
<ele>1092.204102</ele>
<time>2012-04-30T19:43:10Z</time>
<desc>lat.=42.946560, lon.=19.614193, Alt.=1092.204102m. Speed=16.128000m/h.</desc>
<speed>4.480000</speed>
</trkpt>
<trkpt lat="42.946510" lon="19.613943">
<ele>1091.047852</ele>
<time>2012-04-30T19:43:15Z</time>
<desc>lat.=42.946510, lon.=19.613943, Alt.=1091.047852m. Speed=14.112000m/h.</desc>
<speed>3.920000</speed>
</trkpt>
<trkpt lat="42.946522" lon="19.613689">
<ele>1092.266602</ele>
<time>2012-04-30T19:43:20Z</time>
<desc>lat.=42.946522, lon.=19.613689, Alt.=1092.266602m. Speed=13.824000m/h.</desc>
<speed>3.840000</speed>
</trkpt>
<trkpt lat="42.946537" lon="19.613531">
<ele>1094.360352</ele>
<time>2012-04-30T19:43:25Z</time>
<desc>lat.=42.946537, lon.=19.613531, Alt.=1094.360352m. Speed=8.532000m/h.</desc>
<speed>2.370000</speed>
</trkpt>
<trkpt lat="42.946548" lon="19.613396">
<ele>1096.547852</ele>
<time>2012-04-30T19:43:30Z</time>
<desc>lat.=42.946548, lon.=19.613396, Alt.=1096.547852m. Speed=8.316000m/h.</desc>
<speed>2.310000</speed>
</trkpt>
<trkpt lat="42.946560" lon="19.613300">
<ele>1098.485352</ele>
<time>2012-04-30T19:43:35Z</time>
<desc>lat.=42.946560, lon.=19.613300, Alt.=1098.485352m. Speed=5.328000m/h.</desc>
<speed>1.480000</speed>
</trkpt>
<trkpt lat="42.946579" lon="19.613232">
<ele>1099.985352</ele>
<time>2012-04-30T19:43:40Z</time>
<desc>lat.=42.946579, lon.=19.613232, Alt.=1099.985352m. Speed=3.888000m/h.</desc>
<speed>1.080000</speed>
</trkpt>
<trkpt lat="42.946602" lon="19.613167">
<ele>1100.204102</ele>
<time>2012-04-30T19:43:45Z</time>
<desc>lat.=42.946602, lon.=19.613167, Alt.=1100.204102m. Speed=4.536000m/h.</desc>
<speed>1.260000</speed>
</trkpt>
<trkpt lat="42.946602" lon="19.613115">
<ele>1100.610352</ele>
<time>2012-04-30T19:43:50Z</time>
<desc>lat.=42.946602, lon.=19.613115, Alt.=1100.610352m. Speed=4.860000m/h.</desc>
<speed>1.350000</speed>
</trkpt>
<trkpt lat="42.946625" lon="19.613037">
<ele>1101.922852</ele>
<time>2012-04-30T19:43:55Z</time>
<desc>lat.=42.946625, lon.=19.613037, Alt.=1101.922852m. Speed=5.652000m/h.</desc>
<speed>1.570000</speed>
</trkpt>
<trkpt lat="42.946671" lon="19.612953">
<ele>1102.922852</ele>
<time>2012-04-30T19:44:00Z</time>
<desc>lat.=42.946671, lon.=19.612953, Alt.=1102.922852m. Speed=6.336000m/h.</desc>
<speed>1.760000</speed>
</trkpt>
<trkpt lat="42.946716" lon="19.612860">
<ele>1102.579102</ele>
<time>2012-04-30T19:44:05Z</time>
<desc>lat.=42.946716, lon.=19.612860, Alt.=1102.579102m. Speed=6.480000m/h.</desc>
<speed>1.800000</speed>
</trkpt>
<trkpt lat="42.946766" lon="19.612791">
<ele>1104.172852</ele>
<time>2012-04-30T19:44:10Z</time>
<desc>lat.=42.946766, lon.=19.612791, Alt.=1104.172852m. Speed=6.660000m/h.</desc>
<speed>1.850000</speed>
</trkpt>
<trkpt lat="42.946827" lon="19.612720">
<ele>1104.985352</ele>
<time>2012-04-30T19:44:15Z</time>
<desc>lat.=42.946827, lon.=19.612720, Alt.=1104.985352m. Speed=7.632000m/h.</desc>
<speed>2.120000</speed>
</trkpt>
<trkpt lat="42.946899" lon="19.612637">
<ele>1105.891602</ele>
<time>2012-04-30T19:44:20Z</time>
<desc>lat.=42.946899, lon.=19.612637, Alt.=1105.891602m. Speed=8.208000m/h.</desc>
<speed>2.280000</speed>
</trkpt>
<trkpt lat="42.946976" lon="19.612560">
<ele>1106.547852</ele>
<time>2012-04-30T19:44:25Z</time>
<desc>lat.=42.946976, lon.=19.612560, Alt.=1106.547852m. Speed=7.488000m/h.</desc>
<speed>2.080000</speed>
</trkpt>
<trkpt lat="42.947052" lon="19.612488">
<ele>1107.672852</ele>
<time>2012-04-30T19:44:30Z</time>
<desc>lat.=42.947052, lon.=19.612488, Alt.=1107.672852m. Speed=7.200000m/h.</desc>
<speed>2.000000</speed>
</trkpt>
<trkpt lat="42.947113" lon="19.612410">
<ele>1107.516602</ele>
<time>2012-04-30T19:44:35Z</time>
<desc>lat.=42.947113, lon.=19.612410, Alt.=1107.516602m. Speed=4.140000m/h.</desc>
<speed>1.150000</speed>
</trkpt>
<trkpt lat="42.947109" lon="19.612392">
<ele>1106.516602</ele>
<time>2012-04-30T19:44:40Z</time>
<desc>lat.=42.947109, lon.=19.612392, Alt.=1106.516602m. Speed=0.036000m/h.</desc>
<speed>0.010000</speed>
</trkpt>
<trkpt lat="42.947109" lon="19.612391">
<ele>1106.454102</ele>
<time>2012-04-30T19:44:45Z</time>
<desc>lat.=42.947109, lon.=19.612391, Alt.=1106.454102m. Speed=0.144000m/h.</desc>
<speed>0.040000</speed>
</trkpt>
<trkpt lat="42.947113" lon="19.612389">
<ele>1106.329102</ele>
<time>2012-04-30T19:44:50Z</time>
<desc>lat.=42.947113, lon.=19.612389, Alt.=1106.329102m. Speed=0.252000m/h.</desc>
<speed>0.070000</speed>
</trkpt>
<trkpt lat="42.947155" lon="19.612349">
<ele>1106.141602</ele>
<time>2012-04-30T19:44:55Z</time>
<desc>lat.=42.947155, lon.=19.612349, Alt.=1106.141602m. Speed=5.976000m/h.</desc>
<speed>1.660000</speed>
</trkpt>
<trkpt lat="42.947231" lon="19.612240">
<ele>1105.891602</ele>
<time>2012-04-30T19:45:00Z</time>
<desc>lat.=42.947231, lon.=19.612240, Alt.=1105.891602m. Speed=9.576000m/h.</desc>
<speed>2.660000</speed>
</trkpt>
<trkpt lat="42.947315" lon="19.612104">
<ele>1105.266602</ele>
<time>2012-04-30T19:45:05Z</time>
<desc>lat.=42.947315, lon.=19.612104, Alt.=1105.266602m. Speed=9.540000m/h.</desc>
<speed>2.650000</speed>
</trkpt>
<trkpt lat="42.947414" lon="19.611996">
<ele>1105.079102</ele>
<time>2012-04-30T19:45:10Z</time>
<desc>lat.=42.947414, lon.=19.611996, Alt.=1105.079102m. Speed=9.900000m/h.</desc>
<speed>2.750000</speed>
</trkpt>
<trkpt lat="42.947529" lon="19.611887">
<ele>1104.672852</ele>
<time>2012-04-30T19:45:15Z</time>
<desc>lat.=42.947529, lon.=19.611887, Alt.=1104.672852m. Speed=10.440000m/h.</desc>
<speed>2.900000</speed>
</trkpt>
<trkpt lat="42.947639" lon="19.611755">
<ele>1103.891602</ele>
<time>2012-04-30T19:45:20Z</time>
<desc>lat.=42.947639, lon.=19.611755, Alt.=1103.891602m. Speed=12.528000m/h.</desc>
<speed>3.480000</speed>
</trkpt>
<trkpt lat="42.947746" lon="19.611610">
<ele>1102.829102</ele>
<time>2012-04-30T19:45:25Z</time>
<desc>lat.=42.947746, lon.=19.611610, Alt.=1102.829102m. Speed=12.420000m/h.</desc>
<speed>3.450000</speed>
</trkpt>
<trkpt lat="42.947830" lon="19.611439">
<ele>1102.141602</ele>
<time>2012-04-30T19:45:30Z</time>
<desc>lat.=42.947830, lon.=19.611439, Alt.=1102.141602m. Speed=12.708000m/h.</desc>
<speed>3.530000</speed>
</trkpt>
<trkpt lat="42.947937" lon="19.611246">
<ele>1101.579102</ele>
<time>2012-04-30T19:45:35Z</time>
<desc>lat.=42.947937, lon.=19.611246, Alt.=1101.579102m. Speed=12.348000m/h.</desc>
<speed>3.430000</speed>
</trkpt>
<trkpt lat="42.948097" lon="19.611170">
<ele>1100.610352</ele>
<time>2012-04-30T19:45:40Z</time>
<desc>lat.=42.948097, lon.=19.611170, Alt.=1100.610352m. Speed=13.176000m/h.</desc>
<speed>3.660000</speed>
</trkpt>
<trkpt lat="42.948277" lon="19.611080">
<ele>1100.266602</ele>
<time>2012-04-30T19:45:45Z</time>
<desc>lat.=42.948277, lon.=19.611080, Alt.=1100.266602m. Speed=14.508000m/h.</desc>
<speed>4.030000</speed>
</trkpt>
<trkpt lat="42.948402" lon="19.610937">
<ele>1101.454102</ele>
<time>2012-04-30T19:45:50Z</time>
<desc>lat.=42.948402, lon.=19.610937, Alt.=1101.454102m. Speed=12.168000m/h.</desc>
<speed>3.380000</speed>
</trkpt>
<trkpt lat="42.948505" lon="19.610826">
<ele>1102.735352</ele>
<time>2012-04-30T19:45:55Z</time>
<desc>lat.=42.948505, lon.=19.610826, Alt.=1102.735352m. Speed=10.692000m/h.</desc>
<speed>2.970000</speed>
</trkpt>
<trkpt lat="42.948601" lon="19.610722">
<ele>1103.797852</ele>
<time>2012-04-30T19:46:00Z</time>
<desc>lat.=42.948601, lon.=19.610722, Alt.=1103.797852m. Speed=9.540000m/h.</desc>
<speed>2.650000</speed>
</trkpt>
<trkpt lat="42.948681" lon="19.610615">
<ele>1104.954102</ele>
<time>2012-04-30T19:46:05Z</time>
<desc>lat.=42.948681, lon.=19.610615, Alt.=1104.954102m. Speed=9.180000m/h.</desc>
<speed>2.550000</speed>
</trkpt>
<trkpt lat="42.948727" lon="19.610474">
<ele>1105.422852</ele>
<time>2012-04-30T19:46:10Z</time>
<desc>lat.=42.948727, lon.=19.610474, Alt.=1105.422852m. Speed=9.000000m/h.</desc>
<speed>2.500000</speed>
</trkpt>
<trkpt lat="42.948727" lon="19.610329">
<ele>1107.235352</ele>
<time>2012-04-30T19:46:15Z</time>
<desc>lat.=42.948727, lon.=19.610329, Alt.=1107.235352m. Speed=10.620000m/h.</desc>
<speed>2.950000</speed>
</trkpt>
<trkpt lat="42.948673" lon="19.610195">
<ele>1108.797852</ele>
<time>2012-04-30T19:46:20Z</time>
<desc>lat.=42.948673, lon.=19.610195, Alt.=1108.797852m. Speed=7.884000m/h.</desc>
<speed>2.190000</speed>
</trkpt>
<trkpt lat="42.948593" lon="19.610052">
<ele>1109.985352</ele>
<time>2012-04-30T19:46:25Z</time>
<desc>lat.=42.948593, lon.=19.610052, Alt.=1109.985352m. Speed=14.256000m/h.</desc>
<speed>3.960000</speed>
</trkpt>
<trkpt lat="42.948601" lon="19.609875">
<ele>1111.454102</ele>
<time>2012-04-30T19:46:30Z</time>
<desc>lat.=42.948601, lon.=19.609875, Alt.=1111.454102m. Speed=11.520000m/h.</desc>
<speed>3.200000</speed>
</trkpt>
<trkpt lat="42.948631" lon="19.609663">
<ele>1112.579102</ele>
<time>2012-04-30T19:46:35Z</time>
<desc>lat.=42.948631, lon.=19.609663, Alt.=1112.579102m. Speed=13.032000m/h.</desc>
<speed>3.620000</speed>
</trkpt>
<trkpt lat="42.948689" lon="19.609442">
<ele>1115.860352</ele>
<time>2012-04-30T19:46:40Z</time>
<desc>lat.=42.948689, lon.=19.609442, Alt.=1115.860352m. Speed=9.756000m/h.</desc>
<speed>2.710000</speed>
</trkpt>
<trkpt lat="42.948685" lon="19.609228">
<ele>1119.172852</ele>
<time>2012-04-30T19:46:45Z</time>
<desc>lat.=42.948685, lon.=19.609228, Alt.=1119.172852m. Speed=14.004000m/h.</desc>
<speed>3.890000</speed>
</trkpt>
<trkpt lat="42.948685" lon="19.609018">
<ele>1122.204102</ele>
<time>2012-04-30T19:46:50Z</time>
<desc>lat.=42.948685, lon.=19.609018, Alt.=1122.204102m. Speed=12.024000m/h.</desc>
<speed>3.340000</speed>
</trkpt>
<trkpt lat="42.948711" lon="19.608818">
<ele>1123.891602</ele>
<time>2012-04-30T19:46:55Z</time>
<desc>lat.=42.948711, lon.=19.608818, Alt.=1123.891602m. Speed=7.020000m/h.</desc>
<speed>1.950000</speed>
</trkpt>
<trkpt lat="42.948719" lon="19.608675">
<ele>1125.829102</ele>
<time>2012-04-30T19:47:00Z</time>
<desc>lat.=42.948719, lon.=19.608675, Alt.=1125.829102m. Speed=9.432000m/h.</desc>
<speed>2.620000</speed>
</trkpt>
<trkpt lat="42.948738" lon="19.608513">
<ele>1127.266602</ele>
<time>2012-04-30T19:47:05Z</time>
<desc>lat.=42.948738, lon.=19.608513, Alt.=1127.266602m. Speed=8.856000m/h.</desc>
<speed>2.460000</speed>
</trkpt>
<trkpt lat="42.948742" lon="19.608376">
<ele>1128.891602</ele>
<time>2012-04-30T19:47:10Z</time>
<desc>lat.=42.948742, lon.=19.608376, Alt.=1128.891602m. Speed=9.000000m/h.</desc>
<speed>2.500000</speed>
</trkpt>
<trkpt lat="42.948765" lon="19.608213">
<ele>1130.235352</ele>
<time>2012-04-30T19:47:15Z</time>
<desc>lat.=42.948765, lon.=19.608213, Alt.=1130.235352m. Speed=11.268000m/h.</desc>
<speed>3.130000</speed>
</trkpt>
<trkpt lat="42.948772" lon="19.608034">
<ele>1131.360352</ele>
<time>2012-04-30T19:47:20Z</time>
<desc>lat.=42.948772, lon.=19.608034, Alt.=1131.360352m. Speed=11.916000m/h.</desc>
<speed>3.310000</speed>
</trkpt>
<trkpt lat="42.948788" lon="19.607924">
<ele>1130.485352</ele>
<time>2012-04-30T19:47:25Z</time>
<desc>lat.=42.948788, lon.=19.607924, Alt.=1130.485352m. Speed=3.960000m/h.</desc>
<speed>1.100000</speed>
</trkpt>
<trkpt lat="42.948879" lon="19.607817">
<ele>1132.329102</ele>
<time>2012-04-30T19:47:30Z</time>
<desc>lat.=42.948879, lon.=19.607817, Alt.=1132.329102m. Speed=15.768000m/h.</desc>
<speed>4.380000</speed>
</trkpt>
<trkpt lat="42.948994" lon="19.607544">
<ele>1134.172852</ele>
<time>2012-04-30T19:47:35Z</time>
<desc>lat.=42.948994, lon.=19.607544, Alt.=1134.172852m. Speed=19.115999m/h.</desc>
<speed>5.310000</speed>
</trkpt>
<trkpt lat="42.949070" lon="19.607159">
<ele>1136.079102</ele>
<time>2012-04-30T19:47:40Z</time>
<desc>lat.=42.949070, lon.=19.607159, Alt.=1136.079102m. Speed=15.732000m/h.</desc>
<speed>4.370000</speed>
</trkpt>
<trkpt lat="42.949177" lon="19.607012">
<ele>1136.391602</ele>
<time>2012-04-30T19:47:45Z</time>
<desc>lat.=42.949177, lon.=19.607012, Alt.=1136.391602m. Speed=10.368000m/h.</desc>
<speed>2.880000</speed>
</trkpt>
<trkpt lat="42.949326" lon="19.606863">
<ele>1136.704102</ele>
<time>2012-04-30T19:47:50Z</time>
<desc>lat.=42.949326, lon.=19.606863, Alt.=1136.704102m. Speed=13.320000m/h.</desc>
<speed>3.700000</speed>
</trkpt>
<trkpt lat="42.949402" lon="19.606655">
<ele>1135.735352</ele>
<time>2012-04-30T19:47:55Z</time>
<desc>lat.=42.949402, lon.=19.606655, Alt.=1135.735352m. Speed=8.892000m/h.</desc>
<speed>2.470000</speed>
</trkpt>
<trkpt lat="42.949432" lon="19.606491">
<ele>1137.360352</ele>
<time>2012-04-30T19:48:00Z</time>
<desc>lat.=42.949432, lon.=19.606491, Alt.=1137.360352m. Speed=9.756000m/h.</desc>
<speed>2.710000</speed>
</trkpt>
<trkpt lat="42.949383" lon="19.606329">
<ele>1133.735352</ele>
<time>2012-04-30T19:48:05Z</time>
<desc>lat.=42.949383, lon.=19.606329, Alt.=1133.735352m. Speed=8.460000m/h.</desc>
<speed>2.350000</speed>
</trkpt>
<trkpt lat="42.949295" lon="19.606207">
<ele>1133.204102</ele>
<time>2012-04-30T19:48:10Z</time>
<desc>lat.=42.949295, lon.=19.606207, Alt.=1133.204102m. Speed=8.820000m/h.</desc>
<speed>2.450000</speed>
</trkpt>
<trkpt lat="42.949245" lon="19.606094">
<ele>1131.641602</ele>
<time>2012-04-30T19:48:15Z</time>
<desc>lat.=42.949245, lon.=19.606094, Alt.=1131.641602m. Speed=6.840000m/h.</desc>
<speed>1.900000</speed>
</trkpt>
<trkpt lat="42.949169" lon="19.605997">
<ele>1133.047852</ele>
<time>2012-04-30T19:48:20Z</time>
<desc>lat.=42.949169, lon.=19.605997, Alt.=1133.047852m. Speed=7.740000m/h.</desc>
<speed>2.150000</speed>
</trkpt>
<trkpt lat="42.949074" lon="19.605925">
<ele>1132.985352</ele>
<time>2012-04-30T19:48:25Z</time>
<desc>lat.=42.949074, lon.=19.605925, Alt.=1132.985352m. Speed=8.676000m/h.</desc>
<speed>2.410000</speed>
</trkpt>
<trkpt lat="42.948986" lon="19.605837">
<ele>1132.891602</ele>
<time>2012-04-30T19:48:30Z</time>
<desc>lat.=42.948986, lon.=19.605837, Alt.=1132.891602m. Speed=8.640000m/h.</desc>
<speed>2.400000</speed>
</trkpt>
<trkpt lat="42.948917" lon="19.605757">
<ele>1132.985352</ele>
<time>2012-04-30T19:48:35Z</time>
<desc>lat.=42.948917, lon.=19.605757, Alt.=1132.985352m. Speed=5.436000m/h.</desc>
<speed>1.510000</speed>
</trkpt>
<trkpt lat="42.948914" lon="19.605713">
<ele>1133.985352</ele>
<time>2012-04-30T19:48:40Z</time>
<desc>lat.=42.948914, lon.=19.605713, Alt.=1133.985352m. Speed=0.504000m/h.</desc>
<speed>0.140000</speed>
</trkpt>
<trkpt lat="42.948925" lon="19.605711">
<ele>1134.172852</ele>
<time>2012-04-30T19:48:45Z</time>
<desc>lat.=42.948925, lon.=19.605711, Alt.=1134.172852m. Speed=0.108000m/h.</desc>
<speed>0.030000</speed>
</trkpt>
<trkpt lat="42.948921" lon="19.605709">
<ele>1134.079102</ele>
<time>2012-04-30T19:48:50Z</time>
<desc>lat.=42.948921, lon.=19.605709, Alt.=1134.079102m. Speed=0.540000m/h.</desc>
<speed>0.150000</speed>
</trkpt>
<trkpt lat="42.948917" lon="19.605705">
<ele>1133.954102</ele>
<time>2012-04-30T19:48:55Z</time>
<desc>lat.=42.948917, lon.=19.605705, Alt.=1133.954102m. Speed=0.756000m/h.</desc>
<speed>0.210000</speed>
</trkpt>
<trkpt lat="42.948910" lon="19.605703">
<ele>1133.922852</ele>
<time>2012-04-30T19:49:00Z</time>
<desc>lat.=42.948910, lon.=19.605703, Alt.=1133.922852m. Speed=0.396000m/h.</desc>
<speed>0.110000</speed>
</trkpt>
<trkpt lat="42.948910" lon="19.605701">
<ele>1133.891602</ele>
<time>2012-04-30T19:49:05Z</time>
<desc>lat.=42.948910, lon.=19.605701, Alt.=1133.891602m. Speed=0.180000m/h.</desc>
<speed>0.050000</speed>
</trkpt>
<trkpt lat="42.948910" lon="19.605703">
<ele>1133.891602</ele>
<time>2012-04-30T19:49:10Z</time>
<desc>lat.=42.948910, lon.=19.605703, Alt.=1133.891602m. Speed=0.324000m/h.</desc>
<speed>0.090000</speed>
</trkpt>
<trkpt lat="42.948914" lon="19.605703">
<ele>1133.860352</ele>
<time>2012-04-30T19:49:15Z</time>
<desc>lat.=42.948914, lon.=19.605703, Alt.=1133.860352m. Speed=0.144000m/h.</desc>
<speed>0.040000</speed>
</trkpt>
<trkpt lat="42.948914" lon="19.605703">
<ele>1133.860352</ele>
<time>2012-04-30T19:49:20Z</time>
<desc>lat.=42.948914, lon.=19.605703, Alt.=1133.860352m. Speed=0.144000m/h.</desc>
<speed>0.040000</speed>
</trkpt>
<trkpt lat="42.948914" lon="19.605703">
<ele>1133.860352</ele>
<time>2012-04-30T19:49:25Z</time>
<desc>lat.=42.948914, lon.=19.605703, Alt.=1133.860352m. Speed=0.072000m/h.</desc>
<speed>0.020000</speed>
</trkpt>
<trkpt lat="42.948914" lon="19.605703">
<ele>1133.860352</ele>
<time>2012-04-30T19:49:30Z</time>
<desc>lat.=42.948914, lon.=19.605703, Alt.=1133.860352m. Speed=0.000000m/h.</desc>
<speed>0.000000</speed>
</trkpt>
<trkpt lat="42.948914" lon="19.605703">
<ele>1133.797852</ele>
<time>2012-04-30T19:49:35Z</time>
<desc>lat.=42.948914, lon.=19.605703, Alt.=1133.797852m. Speed=0.180000m/h.</desc>
<speed>0.050000</speed>
</trkpt>
<trkpt lat="42.948914" lon="19.605703">
<ele>1133.766602</ele>
<time>2012-04-30T19:49:40Z</time>
<desc>lat.=42.948914, lon.=19.605703, Alt.=1133.766602m. Speed=0.000000m/h.</desc>
<speed>0.000000</speed>
</trkpt>
<trkpt lat="42.948914" lon="19.605701">
<ele>1133.766602</ele>
<time>2012-04-30T19:49:45Z</time>
<desc>lat.=42.948914, lon.=19.605701, Alt.=1133.766602m. Speed=0.000000m/h.</desc>
<speed>0.000000</speed>
</trkpt>
<trkpt lat="42.948914" lon="19.605701">
<ele>1133.735352</ele>
<time>2012-04-30T19:49:50Z</time>
<desc>lat.=42.948914, lon.=19.605701, Alt.=1133.735352m. Speed=0.036000m/h.</desc>
<speed>0.010000</speed>
</trkpt>
<trkpt lat="42.948914" lon="19.605701">
<ele>1133.766602</ele>
<time>2012-04-30T19:49:55Z</time>
<desc>lat.=42.948914, lon.=19.605701, Alt.=1133.766602m. Speed=0.252000m/h.</desc>
<speed>0.070000</speed>
</trkpt>
<trkpt lat="42.948914" lon="19.605701">
<ele>1133.735352</ele>
<time>2012-04-30T19:50:00Z</time>
<desc>lat.=42.948914, lon.=19.605701, Alt.=1133.735352m. Speed=0.000000m/h.</desc>
<speed>0.000000</speed>
</trkpt>
<trkpt lat="42.948914" lon="19.605701">
<ele>1133.704102</ele>
<time>2012-04-30T19:50:05Z</time>
<desc>lat.=42.948914, lon.=19.605701, Alt.=1133.704102m. Speed=0.072000m/h.</desc>
<speed>0.020000</speed>
</trkpt>
<trkpt lat="42.948914" lon="19.605701">
<ele>1133.672852</ele>
<time>2012-04-30T19:50:10Z</time>
<desc>lat.=42.948914, lon.=19.605701, Alt.=1133.672852m. Speed=0.108000m/h.</desc>
<speed>0.030000</speed>
</trkpt>
<trkpt lat="42.948914" lon="19.605701">
<ele>1133.672852</ele>
<time>2012-04-30T19:50:15Z</time>
<desc>lat.=42.948914, lon.=19.605701, Alt.=1133.672852m. Speed=0.144000m/h.</desc>
<speed>0.040000</speed>
</trkpt>
<trkpt lat="42.948910" lon="19.605701">
<ele>1133.704102</ele>
<time>2012-04-30T19:50:20Z</time>
<desc>lat.=42.948910, lon.=19.605701, Alt.=1133.704102m. Speed=0.072000m/h.</desc>
<speed>0.020000</speed>
</trkpt>
<trkpt lat="42.948914" lon="19.605701">
<ele>1133.704102</ele>
<time>2012-04-30T19:50:25Z</time>
<desc>lat.=42.948914, lon.=19.605701, Alt.=1133.704102m. Speed=0.000000m/h.</desc>
<speed>0.000000</speed>
</trkpt>
<trkpt lat="42.948914" lon="19.605701">
<ele>1133.704102</ele>
<time>2012-04-30T19:50:30Z</time>
<desc>lat.=42.948914, lon.=19.605701, Alt.=1133.704102m. Speed=0.000000m/h.</desc>
<speed>0.000000</speed>
</trkpt>
<trkpt lat="42.948914" lon="19.605701">
<ele>1133.735352</ele>
<time>2012-04-30T19:50:35Z</time>
<desc>lat.=42.948914, lon.=19.605701, Alt.=1133.735352m. Speed=0.000000m/h.</desc>
<speed>0.000000</speed>
</trkpt>
<trkpt lat="42.948910" lon="19.605701">
<ele>1133.766602</ele>
<time>2012-04-30T19:50:40Z</time>
<desc>lat.=42.948910, lon.=19.605701, Alt.=1133.766602m. Speed=0.000000m/h.</desc>
<speed>0.000000</speed>
</trkpt>
<trkpt lat="42.948914" lon="19.605703">
<ele>1133.797852</ele>
<time>2012-04-30T19:50:45Z</time>
<desc>lat.=42.948914, lon.=19.605703, Alt.=1133.797852m. Speed=0.036000m/h.</desc>
<speed>0.010000</speed>
</trkpt>
<trkpt lat="42.948914" lon="19.605703">
<ele>1133.829102</ele>
<time>2012-04-30T19:50:50Z</time>
<desc>lat.=42.948914, lon.=19.605703, Alt.=1133.829102m. Speed=0.036000m/h.</desc>
<speed>0.010000</speed>
</trkpt>
<trkpt lat="42.948914" lon="19.605703">
<ele>1133.829102</ele>
<time>2012-04-30T19:50:55Z</time>
<desc>lat.=42.948914, lon.=19.605703, Alt.=1133.829102m. Speed=0.000000m/h.</desc>
<speed>0.000000</speed>
</trkpt>
<trkpt lat="42.948914" lon="19.605703">
<ele>1133.829102</ele>
<time>2012-04-30T19:51:00Z</time>
<desc>lat.=42.948914, lon.=19.605703, Alt.=1133.829102m. Speed=0.000000m/h.</desc>
<speed>0.000000</speed>
</trkpt>
<trkpt lat="42.948914" lon="19.605703">
<ele>1133.797852</ele>
<time>2012-04-30T19:51:05Z</time>
<desc>lat.=42.948914, lon.=19.605703, Alt.=1133.797852m. Speed=0.216000m/h.</desc>
<speed>0.060000</speed>
</trkpt>
<trkpt lat="42.948902" lon="19.605677">
<ele>1133.485352</ele>
<time>2012-04-30T19:51:10Z</time>
<desc>lat.=42.948902, lon.=19.605677, Alt.=1133.485352m. Speed=6.840000m/h.</desc>
<speed>1.900000</speed>
</trkpt>
<trkpt lat="42.948807" lon="19.605574">
<ele>1131.454102</ele>
<time>2012-04-30T19:51:15Z</time>
<desc>lat.=42.948807, lon.=19.605574, Alt.=1131.454102m. Speed=10.008000m/h.</desc>
<speed>2.780000</speed>
</trkpt>
<trkpt lat="42.948708" lon="19.605442">
<ele>1129.204102</ele>
<time>2012-04-30T19:51:20Z</time>
<desc>lat.=42.948708, lon.=19.605442, Alt.=1129.204102m. Speed=11.772000m/h.</desc>
<speed>3.270000</speed>
</trkpt>
<trkpt lat="42.948574" lon="19.605284">
<ele>1127.485352</ele>
<time>2012-04-30T19:51:25Z</time>
<desc>lat.=42.948574, lon.=19.605284, Alt.=1127.485352m. Speed=15.732000m/h.</desc>
<speed>4.370000</speed>
</trkpt>
<trkpt lat="42.948460" lon="19.605051">
<ele>1126.860352</ele>
<time>2012-04-30T19:51:30Z</time>
<desc>lat.=42.948460, lon.=19.605051, Alt.=1126.860352m. Speed=15.840000m/h.</desc>
<speed>4.400000</speed>
</trkpt>
<trkpt lat="42.948318" lon="19.604847">
<ele>1126.204102</ele>
<time>2012-04-30T19:51:35Z</time>
<desc>lat.=42.948318, lon.=19.604847, Alt.=1126.204102m. Speed=15.984000m/h.</desc>
<speed>4.440000</speed>
</trkpt>
<trkpt lat="42.948128" lon="19.604649">
<ele>1124.891602</ele>
<time>2012-04-30T19:51:40Z</time>
<desc>lat.=42.948128, lon.=19.604649, Alt.=1124.891602m. Speed=18.576000m/h.</desc>
<speed>5.160000</speed>
</trkpt>
<trkpt lat="42.947964" lon="19.604425">
<ele>1123.547852</ele>
<time>2012-04-30T19:51:45Z</time>
<desc>lat.=42.947964, lon.=19.604425, Alt.=1123.547852m. Speed=17.856001m/h.</desc>
<speed>4.960000</speed>
</trkpt>
<trkpt lat="42.947826" lon="19.604227">
<ele>1124.516602</ele>
<time>2012-04-30T19:51:50Z</time>
<desc>lat.=42.947826, lon.=19.604227, Alt.=1124.516602m. Speed=12.384000m/h.</desc>
<speed>3.440000</speed>
</trkpt>
<trkpt lat="42.947723" lon="19.604065">
<ele>1124.579102</ele>
<time>2012-04-30T19:51:55Z</time>
<desc>lat.=42.947723, lon.=19.604065, Alt.=1124.579102m. Speed=12.564000m/h.</desc>
<speed>3.490000</speed>
</trkpt>
<trkpt lat="42.947628" lon="19.603903">
<ele>1126.297852</ele>
<time>2012-04-30T19:52:00Z</time>
<desc>lat.=42.947628, lon.=19.603903, Alt.=1126.297852m. Speed=13.752000m/h.</desc>
<speed>3.820000</speed>
</trkpt>
<trkpt lat="42.947525" lon="19.603714">
<ele>1128.610352</ele>
<time>2012-04-30T19:52:05Z</time>
<desc>lat.=42.947525, lon.=19.603714, Alt.=1128.610352m. Speed=15.408000m/h.</desc>
<speed>4.280000</speed>
</trkpt>
<trkpt lat="42.947392" lon="19.603464">
<ele>1129.641602</ele>
<time>2012-04-30T19:52:10Z</time>
<desc>lat.=42.947392, lon.=19.603464, Alt.=1129.641602m. Speed=20.016001m/h.</desc>
<speed>5.560000</speed>
</trkpt>
<trkpt lat="42.947258" lon="19.603176">
<ele>1129.954102</ele>
<time>2012-04-30T19:52:15Z</time>
<desc>lat.=42.947258, lon.=19.603176, Alt.=1129.954102m. Speed=18.035999m/h.</desc>
<speed>5.010000</speed>
</trkpt>
<trkpt lat="42.947128" lon="19.602915">
<ele>1128.204102</ele>
<time>2012-04-30T19:52:20Z</time>
<desc>lat.=42.947128, lon.=19.602915, Alt.=1128.204102m. Speed=18.827999m/h.</desc>
<speed>5.230000</speed>
</trkpt>
<trkpt lat="42.946968" lon="19.602646">
<ele>1126.391602</ele>
<time>2012-04-30T19:52:25Z</time>
<desc>lat.=42.946968, lon.=19.602646, Alt.=1126.391602m. Speed=19.007999m/h.</desc>
<speed>5.280000</speed>
</trkpt>
<trkpt lat="42.946808" lon="19.602407">
<ele>1123.704102</ele>
<time>2012-04-30T19:52:30Z</time>
<desc>lat.=42.946808, lon.=19.602407, Alt.=1123.704102m. Speed=18.719999m/h.</desc>
<speed>5.200000</speed>
</trkpt>
<trkpt lat="42.946671" lon="19.602158">
<ele>1121.672852</ele>
<time>2012-04-30T19:52:35Z</time>
<desc>lat.=42.946671, lon.=19.602158, Alt.=1121.672852m. Speed=16.200001m/h.</desc>
<speed>4.500000</speed>
</trkpt>
<trkpt lat="42.946548" lon="19.601969">
<ele>1119.766602</ele>
<time>2012-04-30T19:52:40Z</time>
<desc>lat.=42.946548, lon.=19.601969, Alt.=1119.766602m. Speed=12.816000m/h.</desc>
<speed>3.560000</speed>
</trkpt>
<trkpt lat="42.946419" lon="19.601871">
<ele>1117.704102</ele>
<time>2012-04-30T19:52:45Z</time>
<desc>lat.=42.946419, lon.=19.601871, Alt.=1117.704102m. Speed=12.780000m/h.</desc>
<speed>3.550000</speed>
</trkpt>
<trkpt lat="42.946301" lon="19.601755">
<ele>1114.016602</ele>
<time>2012-04-30T19:52:50Z</time>
<desc>lat.=42.946301, lon.=19.601755, Alt.=1114.016602m. Speed=12.132000m/h.</desc>
<speed>3.370000</speed>
</trkpt>
<trkpt lat="42.946362" lon="19.601624">
<ele>1111.797852</ele>
<time>2012-04-30T19:52:55Z</time>
<desc>lat.=42.946362, lon.=19.601624, Alt.=1111.797852m. Speed=11.160000m/h.</desc>
<speed>3.100000</speed>
</trkpt>
<trkpt lat="42.946529" lon="19.601614">
<ele>1109.891602</ele>
<time>2012-04-30T19:53:00Z</time>
<desc>lat.=42.946529, lon.=19.601614, Alt.=1109.891602m. Speed=15.840000m/h.</desc>
<speed>4.400000</speed>
</trkpt>
<trkpt lat="42.946766" lon="19.601665">
<ele>1108.735352</ele>
<time>2012-04-30T19:53:05Z</time>
<desc>lat.=42.946766, lon.=19.601665, Alt.=1108.735352m. Speed=19.799999m/h.</desc>
<speed>5.500000</speed>
</trkpt>
<trkpt lat="42.946995" lon="19.601717">
<ele>1107.016602</ele>
<time>2012-04-30T19:53:10Z</time>
<desc>lat.=42.946995, lon.=19.601717, Alt.=1107.016602m. Speed=17.927999m/h.</desc>
<speed>4.980000</speed>
</trkpt>
<trkpt lat="42.947208" lon="19.601816">
<ele>1103.735352</ele>
<time>2012-04-30T19:53:15Z</time>
<desc>lat.=42.947208, lon.=19.601816, Alt.=1103.735352m. Speed=18.360001m/h.</desc>
<speed>5.100000</speed>
</trkpt>
<trkpt lat="42.947433" lon="19.601963">
<ele>1101.485352</ele>
<time>2012-04-30T19:53:20Z</time>
<desc>lat.=42.947433, lon.=19.601963, Alt.=1101.485352m. Speed=20.591999m/h.</desc>
<speed>5.720000</speed>
</trkpt>
<trkpt lat="42.947647" lon="19.602123">
<ele>1098.329102</ele>
<time>2012-04-30T19:53:25Z</time>
<desc>lat.=42.947647, lon.=19.602123, Alt.=1098.329102m. Speed=18.288000m/h.</desc>
<speed>5.080000</speed>
</trkpt>
<trkpt lat="42.947823" lon="19.602272">
<ele>1096.235352</ele>
<time>2012-04-30T19:53:30Z</time>
<desc>lat.=42.947823, lon.=19.602272, Alt.=1096.235352m. Speed=15.912000m/h.</desc>
<speed>4.420000</speed>
</trkpt>
<trkpt lat="42.947971" lon="19.602497">
<ele>1093.922852</ele>
<time>2012-04-30T19:53:34Z</time>
<desc>lat.=42.947971, lon.=19.602497, Alt.=1093.922852m. Speed=18.936001m/h.</desc>
<speed>5.260000</speed>
</trkpt>
<trkpt lat="42.948040" lon="19.602779">
<ele>1092.329102</ele>
<time>2012-04-30T19:53:40Z</time>
<desc>lat.=42.948040, lon.=19.602779, Alt.=1092.329102m. Speed=15.192000m/h.</desc>
<speed>4.220000</speed>
</trkpt>
<trkpt lat="42.948166" lon="19.603006">
<ele>1091.016602</ele>
<time>2012-04-30T19:53:45Z</time>
<desc>lat.=42.948166, lon.=19.603006, Alt.=1091.016602m. Speed=15.516000m/h.</desc>
<speed>4.310000</speed>
</trkpt>
<trkpt lat="42.948318" lon="19.603130">
<ele>1091.891602</ele>
<time>2012-04-30T19:53:50Z</time>
<desc>lat.=42.948318, lon.=19.603130, Alt.=1091.891602m. Speed=16.632000m/h.</desc>
<speed>4.620000</speed>
</trkpt>
<trkpt lat="42.948475" lon="19.603245">
<ele>1091.204102</ele>
<time>2012-04-30T19:53:55Z</time>
<desc>lat.=42.948475, lon.=19.603245, Alt.=1091.204102m. Speed=11.412000m/h.</desc>
<speed>3.170000</speed>
</trkpt>
<trkpt lat="42.948612" lon="19.603394">
<ele>1090.047852</ele>
<time>2012-04-30T19:54:00Z</time>
<desc>lat.=42.948612, lon.=19.603394, Alt.=1090.047852m. Speed=12.744000m/h.</desc>
<speed>3.540000</speed>
</trkpt>
<trkpt lat="42.948769" lon="19.603542">
<ele>1087.954102</ele>
<time>2012-04-30T19:54:05Z</time>
<desc>lat.=42.948769, lon.=19.603542, Alt.=1087.954102m. Speed=16.559999m/h.</desc>
<speed>4.600000</speed>
</trkpt>
<trkpt lat="42.948933" lon="19.603676">
<ele>1086.297852</ele>
<time>2012-04-30T19:54:10Z</time>
<desc>lat.=42.948933, lon.=19.603676, Alt.=1086.297852m. Speed=11.196000m/h.</desc>
<speed>3.110000</speed>
</trkpt>
<trkpt lat="42.949059" lon="19.603790">
<ele>1085.329102</ele>
<time>2012-04-30T19:54:15Z</time>
<desc>lat.=42.949059, lon.=19.603790, Alt.=1085.329102m. Speed=13.644000m/h.</desc>
<speed>3.790000</speed>
</trkpt>
<trkpt lat="42.949196" lon="19.603928">
<ele>1084.329102</ele>
<time>2012-04-30T19:54:20Z</time>
<desc>lat.=42.949196, lon.=19.603928, Alt.=1084.329102m. Speed=13.788000m/h.</desc>
<speed>3.830000</speed>
</trkpt>
<trkpt lat="42.949375" lon="19.604042">
<ele>1082.735352</ele>
<time>2012-04-30T19:54:25Z</time>
<desc>lat.=42.949375, lon.=19.604042, Alt.=1082.735352m. Speed=14.112000m/h.</desc>
<speed>3.920000</speed>
</trkpt>
<trkpt lat="42.949528" lon="19.604147">
<ele>1081.110352</ele>
<time>2012-04-30T19:54:30Z</time>
<desc>lat.=42.949528, lon.=19.604147, Alt.=1081.110352m. Speed=14.400000m/h.</desc>
<speed>4.000000</speed>
</trkpt>
<trkpt lat="42.949703" lon="19.604277">
<ele>1078.704102</ele>
<time>2012-04-30T19:54:35Z</time>
<desc>lat.=42.949703, lon.=19.604277, Alt.=1078.704102m. Speed=17.532000m/h.</desc>
<speed>4.870000</speed>
</trkpt>
<trkpt lat="42.949883" lon="19.604395">
<ele>1076.641602</ele>
<time>2012-04-30T19:54:40Z</time>
<desc>lat.=42.949883, lon.=19.604395, Alt.=1076.641602m. Speed=17.784000m/h.</desc>
<speed>4.940000</speed>
</trkpt>
<trkpt lat="42.950108" lon="19.604410">
<ele>1074.704102</ele>
<time>2012-04-30T19:54:45Z</time>
<desc>lat.=42.950108, lon.=19.604410, Alt.=1074.704102m. Speed=18.864000m/h.</desc>
<speed>5.240000</speed>
</trkpt>
<trkpt lat="42.950367" lon="19.604507">
<ele>1071.735352</ele>
<time>2012-04-30T19:54:50Z</time>
<desc>lat.=42.950367, lon.=19.604507, Alt.=1071.735352m. Speed=21.059999m/h.</desc>
<speed>5.850000</speed>
</trkpt>
<trkpt lat="42.950615" lon="19.604546">
<ele>1069.547852</ele>
<time>2012-04-30T19:54:55Z</time>
<desc>lat.=42.950615, lon.=19.604546, Alt.=1069.547852m. Speed=16.488001m/h.</desc>
<speed>4.580000</speed>
</trkpt>
<trkpt lat="42.950848" lon="19.604570">
<ele>1067.516602</ele>
<time>2012-04-30T19:55:00Z</time>
<desc>lat.=42.950848, lon.=19.604570, Alt.=1067.516602m. Speed=19.944000m/h.</desc>
<speed>5.540000</speed>
</trkpt>
<trkpt lat="42.951122" lon="19.604630">
<ele>1064.266602</ele>
<time>2012-04-30T19:55:05Z</time>
<desc>lat.=42.951122, lon.=19.604630, Alt.=1064.266602m. Speed=20.628000m/h.</desc>
<speed>5.730000</speed>
</trkpt>
<trkpt lat="42.951336" lon="19.604652">
<ele>1062.735352</ele>
<time>2012-04-30T19:55:10Z</time>
<desc>lat.=42.951336, lon.=19.604652, Alt.=1062.735352m. Speed=16.848000m/h.</desc>
<speed>4.680000</speed>
</trkpt>
<trkpt lat="42.951534" lon="19.604721">
<ele>1061.204102</ele>
<time>2012-04-30T19:55:15Z</time>
<desc>lat.=42.951534, lon.=19.604721, Alt.=1061.204102m. Speed=17.892000m/h.</desc>
<speed>4.970000</speed>
</trkpt>
<trkpt lat="42.951668" lon="19.604959">
<ele>1060.704102</ele>
<time>2012-04-30T19:55:20Z</time>
<desc>lat.=42.951668, lon.=19.604959, Alt.=1060.704102m. Speed=20.052000m/h.</desc>
<speed>5.570000</speed>
</trkpt>
<trkpt lat="42.951717" lon="19.605274">
<ele>1060.329102</ele>
<time>2012-04-30T19:55:25Z</time>
<desc>lat.=42.951717, lon.=19.605274, Alt.=1060.329102m. Speed=16.200001m/h.</desc>
<speed>4.500000</speed>
</trkpt>
<trkpt lat="42.951756" lon="19.605558">
<ele>1060.016602</ele>
<time>2012-04-30T19:55:30Z</time>
<desc>lat.=42.951756, lon.=19.605558, Alt.=1060.016602m. Speed=18.000000m/h.</desc>
<speed>5.000000</speed>
</trkpt>
<trkpt lat="42.951797" lon="19.605816">
<ele>1059.422852</ele>
<time>2012-04-30T19:55:35Z</time>
<desc>lat.=42.951797, lon.=19.605816, Alt.=1059.422852m. Speed=13.248000m/h.</desc>
<speed>3.680000</speed>
</trkpt>
<trkpt lat="42.951832" lon="19.606022">
<ele>1058.110352</ele>
<time>2012-04-30T19:55:40Z</time>
<desc>lat.=42.951832, lon.=19.606022, Alt.=1058.110352m. Speed=10.440000m/h.</desc>
<speed>2.900000</speed>
</trkpt>
<trkpt lat="42.951931" lon="19.606052">
<ele>1055.860352</ele>
<time>2012-04-30T19:55:45Z</time>
<desc>lat.=42.951931, lon.=19.606052, Alt.=1055.860352m. Speed=10.836000m/h.</desc>
<speed>3.010000</speed>
</trkpt>
<trkpt lat="42.951939" lon="19.605806">
<ele>1056.922852</ele>
<time>2012-04-30T19:55:50Z</time>
<desc>lat.=42.951939, lon.=19.605806, Alt.=1056.922852m. Speed=16.308001m/h.</desc>
<speed>4.530000</speed>
</trkpt>
<trkpt lat="42.951950" lon="19.605515">
<ele>1057.047852</ele>
<time>2012-04-30T19:55:55Z</time>
<desc>lat.=42.951950, lon.=19.605515, Alt.=1057.047852m. Speed=16.524000m/h.</desc>
<speed>4.590000</speed>
</trkpt>
<trkpt lat="42.951984" lon="19.605206">
<ele>1056.079102</ele>
<time>2012-04-30T19:56:00Z</time>
<desc>lat.=42.951984, lon.=19.605206, Alt.=1056.079102m. Speed=17.100000m/h.</desc>
<speed>4.750000</speed>
</trkpt>
<trkpt lat="42.952038" lon="19.604897">
<ele>1056.016602</ele>
<time>2012-04-30T19:56:05Z</time>
<desc>lat.=42.952038, lon.=19.604897, Alt.=1056.016602m. Speed=17.604000m/h.</desc>
<speed>4.890000</speed>
</trkpt>
<trkpt lat="42.952129" lon="19.604637">
<ele>1054.672852</ele>
<time>2012-04-30T19:56:10Z</time>
<desc>lat.=42.952129, lon.=19.604637, Alt.=1054.672852m. Speed=17.532000m/h.</desc>
<speed>4.870000</speed>
</trkpt>
<trkpt lat="42.952202" lon="19.604345">
<ele>1053.454102</ele>
<time>2012-04-30T19:56:15Z</time>
<desc>lat.=42.952202, lon.=19.604345, Alt.=1053.454102m. Speed=19.115999m/h.</desc>
<speed>5.310000</speed>
</trkpt>
<trkpt lat="42.952236" lon="19.604050">
<ele>1052.329102</ele>
<time>2012-04-30T19:56:20Z</time>
<desc>lat.=42.952236, lon.=19.604050, Alt.=1052.329102m. Speed=16.344000m/h.</desc>
<speed>4.540000</speed>
</trkpt>
<trkpt lat="42.952263" lon="19.603792">
<ele>1050.641602</ele>
<time>2012-04-30T19:56:25Z</time>
<desc>lat.=42.952263, lon.=19.603792, Alt.=1050.641602m. Speed=11.340000m/h.</desc>
<speed>3.150000</speed>
</trkpt>
<trkpt lat="42.952225" lon="19.603638">
<ele>1049.141602</ele>
<time>2012-04-30T19:56:30Z</time>
<desc>lat.=42.952225, lon.=19.603638, Alt.=1049.141602m. Speed=8.568000m/h.</desc>
<speed>2.380000</speed>
</trkpt>
<trkpt lat="42.952190" lon="19.603523">
<ele>1048.610352</ele>
<time>2012-04-30T19:56:35Z</time>
<desc>lat.=42.952190, lon.=19.603523, Alt.=1048.610352m. Speed=8.100000m/h.</desc>
<speed>2.250000</speed>
</trkpt>
<trkpt lat="42.952175" lon="19.603329">
<ele>1046.860352</ele>
<time>2012-04-30T19:56:40Z</time>
<desc>lat.=42.952175, lon.=19.603329, Alt.=1046.860352m. Speed=14.040000m/h.</desc>
<speed>3.900000</speed>
</trkpt>
<trkpt lat="42.952267" lon="19.603123">
<ele>1045.547852</ele>
<time>2012-04-30T19:56:45Z</time>
<desc>lat.=42.952267, lon.=19.603123, Alt.=1045.547852m. Speed=15.048000m/h.</desc>
<speed>4.180000</speed>
</trkpt>
<trkpt lat="42.952370" lon="19.602879">
<ele>1043.860352</ele>
<time>2012-04-30T19:56:50Z</time>
<desc>lat.=42.952370, lon.=19.602879, Alt.=1043.860352m. Speed=17.172001m/h.</desc>
<speed>4.770000</speed>
</trkpt>
<trkpt lat="42.952457" lon="19.602621">
<ele>1041.485352</ele>
<time>2012-04-30T19:56:55Z</time>
<desc>lat.=42.952457, lon.=19.602621, Alt.=1041.485352m. Speed=15.876000m/h.</desc>
<speed>4.410000</speed>
</trkpt>
<trkpt lat="42.952579" lon="19.602413">
<ele>1039.985352</ele>
<time>2012-04-30T19:57:00Z</time>
<desc>lat.=42.952579, lon.=19.602413, Alt.=1039.985352m. Speed=15.336000m/h.</desc>
<speed>4.260000</speed>
</trkpt>
<trkpt lat="42.952740" lon="19.602243">
<ele>1039.047852</ele>
<time>2012-04-30T19:57:05Z</time>
<desc>lat.=42.952740, lon.=19.602243, Alt.=1039.047852m. Speed=15.336000m/h.</desc>
<speed>4.260000</speed>
</trkpt>
<trkpt lat="42.952908" lon="19.602053">
<ele>1038.047852</ele>
<time>2012-04-30T19:57:10Z</time>
<desc>lat.=42.952908, lon.=19.602053, Alt.=1038.047852m. Speed=15.660000m/h.</desc>
<speed>4.350000</speed>
</trkpt>
<trkpt lat="42.953064" lon="19.601988">
<ele>1036.329102</ele>
<time>2012-04-30T19:57:15Z</time>
<desc>lat.=42.953064, lon.=19.601988, Alt.=1036.329102m. Speed=12.564000m/h.</desc>
<speed>3.490000</speed>
</trkpt>
<trkpt lat="42.953224" lon="19.602144">
<ele>1029.360352</ele>
<time>2012-04-30T19:57:20Z</time>
<desc>lat.=42.953224, lon.=19.602144, Alt.=1029.360352m. Speed=9.648000m/h.</desc>
<speed>2.680000</speed>
</trkpt>
<trkpt lat="42.953323" lon="19.602051">
<ele>1026.985352</ele>
<time>2012-04-30T19:57:25Z</time>
<desc>lat.=42.953323, lon.=19.602051, Alt.=1026.985352m. Speed=11.304000m/h.</desc>
<speed>3.140000</speed>
</trkpt>
<trkpt lat="42.953316" lon="19.601824">
<ele>1025.579102</ele>
<time>2012-04-30T19:57:30Z</time>
<desc>lat.=42.953316, lon.=19.601824, Alt.=1025.579102m. Speed=14.832000m/h.</desc>
<speed>4.120000</speed>
</trkpt>
<trkpt lat="42.953274" lon="19.601574">
<ele>1024.579102</ele>
<time>2012-04-30T19:57:35Z</time>
<desc>lat.=42.953274, lon.=19.601574, Alt.=1024.579102m. Speed=12.420000m/h.</desc>
<speed>3.450000</speed>
</trkpt>
<trkpt lat="42.953327" lon="19.601381">
<ele>1022.586426</ele>
<time>2012-04-30T19:57:40Z</time>
<desc>lat.=42.953327, lon.=19.601381, Alt.=1022.586426m. Speed=14.544000m/h.</desc>
<speed>4.040000</speed>
</trkpt>
<trkpt lat="42.953472" lon="19.601206">
<ele>1020.789551</ele>
<time>2012-04-30T19:57:45Z</time>
<desc>lat.=42.953472, lon.=19.601206, Alt.=1020.789551m. Speed=15.912000m/h.</desc>
<speed>4.420000</speed>
</trkpt>
<trkpt lat="42.953613" lon="19.601009">
<ele>1019.352051</ele>
<time>2012-04-30T19:57:50Z</time>
<desc>lat.=42.953613, lon.=19.601009, Alt.=1019.352051m. Speed=19.332001m/h.</desc>
<speed>5.370000</speed>
</trkpt>
<trkpt lat="42.953701" lon="19.600643">
<ele>1017.023926</ele>
<time>2012-04-30T19:57:55Z</time>
<desc>lat.=42.953701, lon.=19.600643, Alt.=1017.023926m. Speed=21.924000m/h.</desc>
<speed>6.090000</speed>
</trkpt>
<trkpt lat="42.953724" lon="19.600277">
<ele>1014.117676</ele>
<time>2012-04-30T19:58:00Z</time>
<desc>lat.=42.953724, lon.=19.600277, Alt.=1014.117676m. Speed=16.775999m/h.</desc>
<speed>4.660000</speed>
</trkpt>
<trkpt lat="42.953800" lon="19.600088">
<ele>1011.945801</ele>
<time>2012-04-30T19:58:05Z</time>
<desc>lat.=42.953800, lon.=19.600088, Alt.=1011.945801m. Speed=10.404000m/h.</desc>
<speed>2.890000</speed>
</trkpt>
<trkpt lat="42.953918" lon="19.599913">
<ele>1008.664551</ele>
<time>2012-04-30T19:58:10Z</time>
<desc>lat.=42.953918, lon.=19.599913, Alt.=1008.664551m. Speed=14.256000m/h.</desc>
<speed>3.960000</speed>
</trkpt>
<trkpt lat="42.953995" lon="19.599676">
<ele>1006.320801</ele>
<time>2012-04-30T19:58:15Z</time>
<desc>lat.=42.953995, lon.=19.599676, Alt.=1006.320801m. Speed=15.768000m/h.</desc>
<speed>4.380000</speed>
</trkpt>
<trkpt lat="42.954079" lon="19.599440">
<ele>1003.305176</ele>
<time>2012-04-30T19:58:20Z</time>
<desc>lat.=42.954079, lon.=19.599440, Alt.=1003.305176m. Speed=16.128000m/h.</desc>
<speed>4.480000</speed>
</trkpt>
<trkpt lat="42.954170" lon="19.599215">
<ele>1001.758301</ele>
<time>2012-04-30T19:58:25Z</time>
<desc>lat.=42.954170, lon.=19.599215, Alt.=1001.758301m. Speed=13.932000m/h.</desc>
<speed>3.870000</speed>
</trkpt>
<trkpt lat="42.954266" lon="19.598978">
<ele>999.242676</ele>
<time>2012-04-30T19:58:30Z</time>
<desc>lat.=42.954266, lon.=19.598978, Alt.=999.242676m. Speed=18.972000m/h.</desc>
<speed>5.270000</speed>
</trkpt>
<trkpt lat="42.954380" lon="19.598728">
<ele>997.508301</ele>
<time>2012-04-30T19:58:35Z</time>
<desc>lat.=42.954380, lon.=19.598728, Alt.=997.508301m. Speed=15.264000m/h.</desc>
<speed>4.240000</speed>
</trkpt>
<trkpt lat="42.954472" lon="19.598526">
<ele>996.023926</ele>
<time>2012-04-30T19:58:40Z</time>
<desc>lat.=42.954472, lon.=19.598526, Alt.=996.023926m. Speed=12.312000m/h.</desc>
<speed>3.420000</speed>
</trkpt>
<trkpt lat="42.954590" lon="19.598289">
<ele>993.914551</ele>
<time>2012-04-30T19:58:45Z</time>
<desc>lat.=42.954590, lon.=19.598289, Alt.=993.914551m. Speed=16.524000m/h.</desc>
<speed>4.590000</speed>
</trkpt>
<trkpt lat="42.954697" lon="19.598112">
<ele>991.539551</ele>
<time>2012-04-30T19:58:50Z</time>
<desc>lat.=42.954697, lon.=19.598112, Alt.=991.539551m. Speed=10.836000m/h.</desc>
<speed>3.010000</speed>
</trkpt>
<trkpt lat="42.954796" lon="19.597893">
<ele>989.711426</ele>
<time>2012-04-30T19:58:55Z</time>
<desc>lat.=42.954796, lon.=19.597893, Alt.=989.711426m. Speed=18.576000m/h.</desc>
<speed>5.160000</speed>
</trkpt>
<trkpt lat="42.954903" lon="19.597626">
<ele>987.680176</ele>
<time>2012-04-30T19:59:00Z</time>
<desc>lat.=42.954903, lon.=19.597626, Alt.=987.680176m. Speed=16.344000m/h.</desc>
<speed>4.540000</speed>
</trkpt>
<trkpt lat="42.954971" lon="19.597380">
<ele>984.914551</ele>
<time>2012-04-30T19:59:05Z</time>
<desc>lat.=42.954971, lon.=19.597380, Alt.=984.914551m. Speed=15.048000m/h.</desc>
<speed>4.180000</speed>
</trkpt>
<trkpt lat="42.955059" lon="19.597166">
<ele>982.055176</ele>
<time>2012-04-30T19:59:10Z</time>
<desc>lat.=42.955059, lon.=19.597166, Alt.=982.055176m. Speed=15.408000m/h.</desc>
<speed>4.280000</speed>
</trkpt>
<trkpt lat="42.955154" lon="19.596979">
<ele>980.273926</ele>
<time>2012-04-30T19:59:15Z</time>
<desc>lat.=42.955154, lon.=19.596979, Alt.=980.273926m. Speed=9.324000m/h.</desc>
<speed>2.590000</speed>
</trkpt>
<trkpt lat="42.955204" lon="19.596861">
<ele>979.961426</ele>
<time>2012-04-30T19:59:20Z</time>
<desc>lat.=42.955204, lon.=19.596861, Alt.=979.961426m. Speed=8.064000m/h.</desc>
<speed>2.240000</speed>
</trkpt>
<trkpt lat="42.955280" lon="19.596691">
<ele>979.023926</ele>
<time>2012-04-30T19:59:25Z</time>
<desc>lat.=42.955280, lon.=19.596691, Alt.=979.023926m. Speed=12.132000m/h.</desc>
<speed>3.370000</speed>
</trkpt>
<trkpt lat="42.955391" lon="19.596479">
<ele>977.508301</ele>
<time>2012-04-30T19:59:30Z</time>
<desc>lat.=42.955391, lon.=19.596479, Alt.=977.508301m. Speed=14.436000m/h.</desc>
<speed>4.010000</speed>
</trkpt>
<trkpt lat="42.955524" lon="19.596289">
<ele>974.477051</ele>
<time>2012-04-30T19:59:35Z</time>
<desc>lat.=42.955524, lon.=19.596289, Alt.=974.477051m. Speed=14.724000m/h.</desc>
<speed>4.090000</speed>
</trkpt>
<trkpt lat="42.955639" lon="19.596069">
<ele>970.633301</ele>
<time>2012-04-30T19:59:40Z</time>
<desc>lat.=42.955639, lon.=19.596069, Alt.=970.633301m. Speed=16.632000m/h.</desc>
<speed>4.620000</speed>
</trkpt>
<trkpt lat="42.955799" lon="19.595875">
<ele>966.805176</ele>
<time>2012-04-30T19:59:45Z</time>
<desc>lat.=42.955799, lon.=19.595875, Alt.=966.805176m. Speed=16.740000m/h.</desc>
<speed>4.650000</speed>
</trkpt>
<trkpt lat="42.955933" lon="19.595663">
<ele>963.992676</ele>
<time>2012-04-30T19:59:50Z</time>
<desc>lat.=42.955933, lon.=19.595663, Alt.=963.992676m. Speed=17.172001m/h.</desc>
<speed>4.770000</speed>
</trkpt>
<trkpt lat="42.956020" lon="19.595459">
<ele>960.633301</ele>
<time>2012-04-30T19:59:55Z</time>
<desc>lat.=42.956020, lon.=19.595459, Alt.=960.633301m. Speed=11.160000m/h.</desc>
<speed>3.100000</speed>
</trkpt>
<trkpt lat="42.956070" lon="19.595404">
<ele>959.555176</ele>
<time>2012-04-30T20:00:00Z</time>
<desc>lat.=42.956070, lon.=19.595404, Alt.=959.555176m. Speed=0.684000m/h.</desc>
<speed>0.190000</speed>
</trkpt>
<trkpt lat="42.956078" lon="19.595404">
<ele>959.164551</ele>
<time>2012-04-30T20:00:05Z</time>
<desc>lat.=42.956078, lon.=19.595404, Alt.=959.164551m. Speed=0.072000m/h.</desc>
<speed>0.020000</speed>
</trkpt>
<trkpt lat="42.956078" lon="19.595404">
<ele>959.148926</ele>
<time>2012-04-30T20:00:10Z</time>
<desc>lat.=42.956078, lon.=19.595404, Alt.=959.148926m. Speed=0.036000m/h.</desc>
<speed>0.010000</speed>
</trkpt>
<trkpt lat="42.956078" lon="19.595404">
<ele>959.102051</ele>
<time>2012-04-30T20:00:15Z</time>
<desc>lat.=42.956078, lon.=19.595404, Alt.=959.102051m. Speed=0.036000m/h.</desc>
<speed>0.010000</speed>
</trkpt>
<trkpt lat="42.956085" lon="19.595392">
<ele>959.070801</ele>
<time>2012-04-30T20:00:20Z</time>
<desc>lat.=42.956085, lon.=19.595392, Alt.=959.070801m. Speed=5.076000m/h.</desc>
<speed>1.410000</speed>
</trkpt>
<trkpt lat="42.956184" lon="19.595310">
<ele>960.602051</ele>
<time>2012-04-30T20:00:25Z</time>
<desc>lat.=42.956184, lon.=19.595310, Alt.=960.602051m. Speed=7.884000m/h.</desc>
<speed>2.190000</speed>
</trkpt>
<trkpt lat="42.956291" lon="19.595173">
<ele>962.383301</ele>
<time>2012-04-30T20:00:30Z</time>
<desc>lat.=42.956291, lon.=19.595173, Alt.=962.383301m. Speed=10.008000m/h.</desc>
<speed>2.780000</speed>
</trkpt>
<trkpt lat="42.956421" lon="19.595015">
<ele>965.070801</ele>
<time>2012-04-30T20:00:35Z</time>
<desc>lat.=42.956421, lon.=19.595015, Alt.=965.070801m. Speed=8.892000m/h.</desc>
<speed>2.470000</speed>
</trkpt>
<trkpt lat="42.956562" lon="19.594868">
<ele>966.711426</ele>
<time>2012-04-30T20:00:40Z</time>
<desc>lat.=42.956562, lon.=19.594868, Alt.=966.711426m. Speed=14.580000m/h.</desc>
<speed>4.050000</speed>
</trkpt>
<trkpt lat="42.956753" lon="19.594847">
<ele>965.211426</ele>
<time>2012-04-30T20:00:45Z</time>
<desc>lat.=42.956753, lon.=19.594847, Alt.=965.211426m. Speed=13.824000m/h.</desc>
<speed>3.840000</speed>
</trkpt>
<trkpt lat="42.956944" lon="19.594898">
<ele>961.836426</ele>
<time>2012-04-30T20:00:50Z</time>
<desc>lat.=42.956944, lon.=19.594898, Alt.=961.836426m. Speed=13.860000m/h.</desc>
<speed>3.850000</speed>
</trkpt>
<trkpt lat="42.957123" lon="19.594725">
<ele>955.945801</ele>
<time>2012-04-30T20:00:55Z</time>
<desc>lat.=42.957123, lon.=19.594725, Alt.=955.945801m. Speed=16.164000m/h.</desc>
<speed>4.490000</speed>
</trkpt>
<trkpt lat="42.957088" lon="19.594524">
<ele>945.414551</ele>
<time>2012-04-30T20:01:00Z</time>
<desc>lat.=42.957088, lon.=19.594524, Alt.=945.414551m. Speed=14.580000m/h.</desc>
<speed>4.050000</speed>
</trkpt>
<trkpt lat="42.956886" lon="19.594488">
<ele>939.148926</ele>
<time>2012-04-30T20:01:05Z</time>
<desc>lat.=42.956886, lon.=19.594488, Alt.=939.148926m. Speed=18.827999m/h.</desc>
<speed>5.230000</speed>
</trkpt>
<trkpt lat="42.956608" lon="19.594446">
<ele>935.555176</ele>
<time>2012-04-30T20:01:10Z</time>
<desc>lat.=42.956608, lon.=19.594446, Alt.=935.555176m. Speed=18.143999m/h.</desc>
<speed>5.040000</speed>
</trkpt>
<trkpt lat="42.956352" lon="19.594442">
<ele>931.680176</ele>
<time>2012-04-30T20:01:15Z</time>
<desc>lat.=42.956352, lon.=19.594442, Alt.=931.680176m. Speed=21.851999m/h.</desc>
<speed>6.070000</speed>
</trkpt>
<trkpt lat="42.956085" lon="19.594475">
<ele>928.898926</ele>
<time>2012-04-30T20:01:20Z</time>
<desc>lat.=42.956085, lon.=19.594475, Alt.=928.898926m. Speed=20.771999m/h.</desc>
<speed>5.770000</speed>
</trkpt>
<trkpt lat="42.955891" lon="19.594383">
<ele>925.383301</ele>
<time>2012-04-30T20:01:25Z</time>
<desc>lat.=42.955891, lon.=19.594383, Alt.=925.383301m. Speed=12.060000m/h.</desc>
<speed>3.350000</speed>
</trkpt>
<trkpt lat="42.955872" lon="19.594164">
<ele>924.055176</ele>
<time>2012-04-30T20:01:30Z</time>
<desc>lat.=42.955872, lon.=19.594164, Alt.=924.055176m. Speed=15.084000m/h.</desc>
<speed>4.190000</speed>
</trkpt>
<trkpt lat="42.955910" lon="19.593967">
<ele>920.711426</ele>
<time>2012-04-30T20:01:35Z</time>
<desc>lat.=42.955910, lon.=19.593967, Alt.=920.711426m. Speed=12.348000m/h.</desc>
<speed>3.430000</speed>
</trkpt>
<trkpt lat="42.955944" lon="19.593790">
<ele>916.695801</ele>
<time>2012-04-30T20:01:40Z</time>
<desc>lat.=42.955944, lon.=19.593790, Alt.=916.695801m. Speed=14.832000m/h.</desc>
<speed>4.120000</speed>
</trkpt>
<trkpt lat="42.955963" lon="19.593493">
<ele>913.117676</ele>
<time>2012-04-30T20:01:45Z</time>
<desc>lat.=42.955963, lon.=19.593493, Alt.=913.117676m. Speed=21.348000m/h.</desc>
<speed>5.930000</speed>
</trkpt>
<trkpt lat="42.956059" lon="19.593170">
<ele>908.305176</ele>
<time>2012-04-30T20:01:50Z</time>
<desc>lat.=42.956059, lon.=19.593170, Alt.=908.305176m. Speed=23.760000m/h.</desc>
<speed>6.600000</speed>
</trkpt>
<trkpt lat="42.956188" lon="19.592821">
<ele>903.836426</ele>
<time>2012-04-30T20:01:55Z</time>
<desc>lat.=42.956188, lon.=19.592821, Alt.=903.836426m. Speed=22.284000m/h.</desc>
<speed>6.190000</speed>
</trkpt>
<trkpt lat="42.956249" lon="19.592524">
<ele>900.727051</ele>
<time>2012-04-30T20:02:00Z</time>
<desc>lat.=42.956249, lon.=19.592524, Alt.=900.727051m. Speed=16.992001m/h.</desc>
<speed>4.720000</speed>
</trkpt>
<trkpt lat="42.956257" lon="19.592257">
<ele>897.430176</ele>
<time>2012-04-30T20:02:05Z</time>
<desc>lat.=42.956257, lon.=19.592257, Alt.=897.430176m. Speed=14.652000m/h.</desc>
<speed>4.070000</speed>
</trkpt>
<trkpt lat="42.956287" lon="19.591969">
<ele>894.539551</ele>
<time>2012-04-30T20:02:10Z</time>
<desc>lat.=42.956287, lon.=19.591969, Alt.=894.539551m. Speed=17.280001m/h.</desc>
<speed>4.800000</speed>
</trkpt>
<trkpt lat="42.956356" lon="19.591726">
<ele>891.242676</ele>
<time>2012-04-30T20:02:15Z</time>
<desc>lat.=42.956356, lon.=19.591726, Alt.=891.242676m. Speed=14.004000m/h.</desc>
<speed>3.890000</speed>
</trkpt>
<trkpt lat="42.956417" lon="19.591490">
<ele>888.711426</ele>
<time>2012-04-30T20:02:20Z</time>
<desc>lat.=42.956417, lon.=19.591490, Alt.=888.711426m. Speed=14.076000m/h.</desc>
<speed>3.910000</speed>
</trkpt>
<trkpt lat="42.956486" lon="19.591284">
<ele>886.820801</ele>
<time>2012-04-30T20:02:25Z</time>
<desc>lat.=42.956486, lon.=19.591284, Alt.=886.820801m. Speed=13.392000m/h.</desc>
<speed>3.720000</speed>
</trkpt>
<trkpt lat="42.956627" lon="19.591135">
<ele>884.867676</ele>
<time>2012-04-30T20:02:30Z</time>
<desc>lat.=42.956627, lon.=19.591135, Alt.=884.867676m. Speed=15.156000m/h.</desc>
<speed>4.210000</speed>
</trkpt>
<trkpt lat="42.956745" lon="19.590961">
<ele>882.305176</ele>
<time>2012-04-30T20:02:35Z</time>
<desc>lat.=42.956745, lon.=19.590961, Alt.=882.305176m. Speed=23.148001m/h.</desc>
<speed>6.430000</speed>
</trkpt>
<trkpt lat="42.956963" lon="19.590839">
<ele>879.227051</ele>
<time>2012-04-30T20:02:40Z</time>
<desc>lat.=42.956963, lon.=19.590839, Alt.=879.227051m. Speed=16.596001m/h.</desc>
<speed>4.610000</speed>
</trkpt>
<trkpt lat="42.957165" lon="19.590721">
<ele>876.133301</ele>
<time>2012-04-30T20:02:45Z</time>
<desc>lat.=42.957165, lon.=19.590721, Alt.=876.133301m. Speed=15.696000m/h.</desc>
<speed>4.360000</speed>
</trkpt>
<trkpt lat="42.957344" lon="19.590611">
<ele>873.352051</ele>
<time>2012-04-30T20:02:50Z</time>
<desc>lat.=42.957344, lon.=19.590611, Alt.=873.352051m. Speed=17.388000m/h.</desc>
<speed>4.830000</speed>
</trkpt>
<trkpt lat="42.957588" lon="19.590498">
<ele>868.273926</ele>
<time>2012-04-30T20:02:55Z</time>
<desc>lat.=42.957588, lon.=19.590498, Alt.=868.273926m. Speed=25.271999m/h.</desc>
<speed>7.020000</speed>
</trkpt>
<trkpt lat="42.957806" lon="19.590450">
<ele>866.820801</ele>
<time>2012-04-30T20:03:00Z</time>
<desc>lat.=42.957806, lon.=19.590450, Alt.=866.820801m. Speed=13.032000m/h.</desc>
<speed>3.620000</speed>
</trkpt>
<trkpt lat="42.957905" lon="19.590303">
<ele>865.820801</ele>
<time>2012-04-30T20:03:05Z</time>
<desc>lat.=42.957905, lon.=19.590303, Alt.=865.820801m. Speed=10.512000m/h.</desc>
<speed>2.920000</speed>
</trkpt>
<trkpt lat="42.958015" lon="19.590170">
<ele>863.492676</ele>
<time>2012-04-30T20:03:10Z</time>
<desc>lat.=42.958015, lon.=19.590170, Alt.=863.492676m. Speed=9.936000m/h.</desc>
<speed>2.760000</speed>
</trkpt>
<trkpt lat="42.958126" lon="19.590088">
<ele>861.961426</ele>
<time>2012-04-30T20:03:15Z</time>
<desc>lat.=42.958126, lon.=19.590088, Alt.=861.961426m. Speed=5.256000m/h.</desc>
<speed>1.460000</speed>
</trkpt>
<trkpt lat="42.958149" lon="19.590092">
<ele>861.930176</ele>
<time>2012-04-30T20:03:20Z</time>
<desc>lat.=42.958149, lon.=19.590092, Alt.=861.930176m. Speed=0.072000m/h.</desc>
<speed>0.020000</speed>
</trkpt>
<trkpt lat="42.958149" lon="19.590092">
<ele>861.977051</ele>
<time>2012-04-30T20:03:25Z</time>
<desc>lat.=42.958149, lon.=19.590092, Alt.=861.977051m. Speed=0.000000m/h.</desc>
<speed>0.000000</speed>
</trkpt>
<trkpt lat="42.958149" lon="19.590092">
<ele>862.008301</ele>
<time>2012-04-30T20:03:30Z</time>
<desc>lat.=42.958149, lon.=19.590092, Alt.=862.008301m. Speed=0.000000m/h.</desc>
<speed>0.000000</speed>
</trkpt>
<trkpt lat="42.958153" lon="19.590090">
<ele>861.961426</ele>
<time>2012-04-30T20:03:35Z</time>
<desc>lat.=42.958153, lon.=19.590090, Alt.=861.961426m. Speed=4.392000m/h.</desc>
<speed>1.220000</speed>
</trkpt>
<trkpt lat="42.958248" lon="19.590080">
<ele>860.008301</ele>
<time>2012-04-30T20:03:40Z</time>
<desc>lat.=42.958248, lon.=19.590080, Alt.=860.008301m. Speed=13.932000m/h.</desc>
<speed>3.870000</speed>
</trkpt>
<trkpt lat="42.958420" lon="19.590078">
<ele>859.102051</ele>
<time>2012-04-30T20:03:45Z</time>
<desc>lat.=42.958420, lon.=19.590078, Alt.=859.102051m. Speed=13.248000m/h.</desc>
<speed>3.680000</speed>
</trkpt>
<trkpt lat="42.958572" lon="19.590166">
<ele>859.055176</ele>
<time>2012-04-30T20:03:50Z</time>
<desc>lat.=42.958572, lon.=19.590166, Alt.=859.055176m. Speed=13.284000m/h.</desc>
<speed>3.690000</speed>
</trkpt>
<trkpt lat="42.958687" lon="19.590281">
<ele>859.242676</ele>
<time>2012-04-30T20:03:55Z</time>
<desc>lat.=42.958687, lon.=19.590281, Alt.=859.242676m. Speed=12.852000m/h.</desc>
<speed>3.570000</speed>
</trkpt>
<trkpt lat="42.958817" lon="19.590399">
<ele>858.961426</ele>
<time>2012-04-30T20:04:00Z</time>
<desc>lat.=42.958817, lon.=19.590399, Alt.=858.961426m. Speed=14.400000m/h.</desc>
<speed>4.000000</speed>
</trkpt>
<trkpt lat="42.958965" lon="19.590553">
<ele>859.711426</ele>
<time>2012-04-30T20:04:05Z</time>
<desc>lat.=42.958965, lon.=19.590553, Alt.=859.711426m. Speed=15.444000m/h.</desc>
<speed>4.290000</speed>
</trkpt>
<trkpt lat="42.959095" lon="19.590731">
<ele>860.242676</ele>
<time>2012-04-30T20:04:10Z</time>
<desc>lat.=42.959095, lon.=19.590731, Alt.=860.242676m. Speed=13.608000m/h.</desc>
<speed>3.780000</speed>
</trkpt>
<trkpt lat="42.959190" lon="19.590900">
<ele>859.820801</ele>
<time>2012-04-30T20:04:15Z</time>
<desc>lat.=42.959190, lon.=19.590900, Alt.=859.820801m. Speed=14.148000m/h.</desc>
<speed>3.930000</speed>
</trkpt>
<trkpt lat="42.959267" lon="19.591133">
<ele>859.883301</ele>
<time>2012-04-30T20:04:20Z</time>
<desc>lat.=42.959267, lon.=19.591133, Alt.=859.883301m. Speed=15.768000m/h.</desc>
<speed>4.380000</speed>
</trkpt>
<trkpt lat="42.959320" lon="19.591375">
<ele>861.820801</ele>
<time>2012-04-30T20:04:25Z</time>
<desc>lat.=42.959320, lon.=19.591375, Alt.=861.820801m. Speed=17.784000m/h.</desc>
<speed>4.940000</speed>
</trkpt>
<trkpt lat="42.959381" lon="19.591656">
<ele>863.070801</ele>
<time>2012-04-30T20:04:30Z</time>
<desc>lat.=42.959381, lon.=19.591656, Alt.=863.070801m. Speed=17.927999m/h.</desc>
<speed>4.980000</speed>
</trkpt>
<trkpt lat="42.959404" lon="19.591949">
<ele>865.305176</ele>
<time>2012-04-30T20:04:35Z</time>
<desc>lat.=42.959404, lon.=19.591949, Alt.=865.305176m. Speed=16.452000m/h.</desc>
<speed>4.570000</speed>
</trkpt>
<trkpt lat="42.959435" lon="19.592226">
<ele>864.773926</ele>
<time>2012-04-30T20:04:40Z</time>
<desc>lat.=42.959435, lon.=19.592226, Alt.=864.773926m. Speed=15.048000m/h.</desc>
<speed>4.180000</speed>
</trkpt>
<trkpt lat="42.959427" lon="19.592447">
<ele>864.883301</ele>
<time>2012-04-30T20:04:45Z</time>
<desc>lat.=42.959427, lon.=19.592447, Alt.=864.883301m. Speed=12.708000m/h.</desc>
<speed>3.530000</speed>
</trkpt>
<trkpt lat="42.959373" lon="19.592730">
<ele>865.555176</ele>
<time>2012-04-30T20:04:50Z</time>
<desc>lat.=42.959373, lon.=19.592730, Alt.=865.555176m. Speed=19.656000m/h.</desc>
<speed>5.460000</speed>
</trkpt>
<trkpt lat="42.959293" lon="19.593077">
<ele>865.805176</ele>
<time>2012-04-30T20:04:55Z</time>
<desc>lat.=42.959293, lon.=19.593077, Alt.=865.805176m. Speed=22.320000m/h.</desc>
<speed>6.200000</speed>
</trkpt>
<trkpt lat="42.959240" lon="19.593445">
<ele>864.867676</ele>
<time>2012-04-30T20:05:00Z</time>
<desc>lat.=42.959240, lon.=19.593445, Alt.=864.867676m. Speed=19.332001m/h.</desc>
<speed>5.370000</speed>
</trkpt>
<trkpt lat="42.959248" lon="19.593765">
<ele>865.117676</ele>
<time>2012-04-30T20:05:05Z</time>
<desc>lat.=42.959248, lon.=19.593765, Alt.=865.117676m. Speed=17.712000m/h.</desc>
<speed>4.920000</speed>
</trkpt>
<trkpt lat="42.959290" lon="19.594023">
<ele>865.398926</ele>
<time>2012-04-30T20:05:10Z</time>
<desc>lat.=42.959290, lon.=19.594023, Alt.=865.398926m. Speed=15.300000m/h.</desc>
<speed>4.250000</speed>
</trkpt>
<trkpt lat="42.959351" lon="19.594276">
<ele>865.180176</ele>
<time>2012-04-30T20:05:15Z</time>
<desc>lat.=42.959351, lon.=19.594276, Alt.=865.180176m. Speed=16.416000m/h.</desc>
<speed>4.560000</speed>
</trkpt>
<trkpt lat="42.959358" lon="19.594660">
<ele>862.148926</ele>
<time>2012-04-30T20:05:20Z</time>
<desc>lat.=42.959358, lon.=19.594660, Alt.=862.148926m. Speed=26.028000m/h.</desc>
<speed>7.230000</speed>
</trkpt>
<trkpt lat="42.959305" lon="19.595127">
<ele>859.164551</ele>
<time>2012-04-30T20:05:25Z</time>
<desc>lat.=42.959305, lon.=19.595127, Alt.=859.164551m. Speed=26.964001m/h.</desc>
<speed>7.490000</speed>
</trkpt>
<trkpt lat="42.959278" lon="19.595612">
<ele>855.852051</ele>
<time>2012-04-30T20:05:30Z</time>
<desc>lat.=42.959278, lon.=19.595612, Alt.=855.852051m. Speed=28.728001m/h.</desc>
<speed>7.980000</speed>
</trkpt>
<trkpt lat="42.959160" lon="19.596039">
<ele>852.680176</ele>
<time>2012-04-30T20:05:35Z</time>
<desc>lat.=42.959160, lon.=19.596039, Alt.=852.680176m. Speed=24.840000m/h.</desc>
<speed>6.900000</speed>
</trkpt>
<trkpt lat="42.958992" lon="19.596405">
<ele>850.836426</ele>
<time>2012-04-30T20:05:40Z</time>
<desc>lat.=42.958992, lon.=19.596405, Alt.=850.836426m. Speed=25.200001m/h.</desc>
<speed>7.000000</speed>
</trkpt>
<trkpt lat="42.958900" lon="19.596922">
<ele>848.617676</ele>
<time>2012-04-30T20:05:45Z</time>
<desc>lat.=42.958900, lon.=19.596922, Alt.=848.617676m. Speed=33.624001m/h.</desc>
<speed>9.340000</speed>
</trkpt>
<trkpt lat="42.958794" lon="19.597466">
<ele>844.398926</ele>
<time>2012-04-30T20:05:50Z</time>
<desc>lat.=42.958794, lon.=19.597466, Alt.=844.398926m. Speed=35.063999m/h.</desc>
<speed>9.740000</speed>
</trkpt>
<trkpt lat="42.958736" lon="19.597982">
<ele>841.836426</ele>
<time>2012-04-30T20:05:55Z</time>
<desc>lat.=42.958736, lon.=19.597982, Alt.=841.836426m. Speed=26.676001m/h.</desc>
<speed>7.410000</speed>
</trkpt>
<trkpt lat="42.958839" lon="19.598366">
<ele>841.930176</ele>
<time>2012-04-30T20:06:00Z</time>
<desc>lat.=42.958839, lon.=19.598366, Alt.=841.930176m. Speed=17.568001m/h.</desc>
<speed>4.880000</speed>
</trkpt>
<trkpt lat="42.959034" lon="19.598463">
<ele>841.633301</ele>
<time>2012-04-30T20:06:05Z</time>
<desc>lat.=42.959034, lon.=19.598463, Alt.=841.633301m. Speed=11.448000m/h.</desc>
<speed>3.180000</speed>
</trkpt>
<trkpt lat="42.959148" lon="19.598324">
<ele>842.180176</ele>
<time>2012-04-30T20:06:10Z</time>
<desc>lat.=42.959148, lon.=19.598324, Alt.=842.180176m. Speed=12.564000m/h.</desc>
<speed>3.490000</speed>
</trkpt>
<trkpt lat="42.959232" lon="19.598143">
<ele>842.227051</ele>
<time>2012-04-30T20:06:15Z</time>
<desc>lat.=42.959232, lon.=19.598143, Alt.=842.227051m. Speed=10.080000m/h.</desc>
<speed>2.800000</speed>
</trkpt>
<trkpt lat="42.959301" lon="19.598024">
<ele>843.148926</ele>
<time>2012-04-30T20:06:20Z</time>
<desc>lat.=42.959301, lon.=19.598024, Alt.=843.148926m. Speed=10.332000m/h.</desc>
<speed>2.870000</speed>
</trkpt>
<trkpt lat="42.959396" lon="19.597851">
<ele>843.195801</ele>
<time>2012-04-30T20:06:25Z</time>
<desc>lat.=42.959396, lon.=19.597851, Alt.=843.195801m. Speed=15.624000m/h.</desc>
<speed>4.340000</speed>
</trkpt>
<trkpt lat="42.959526" lon="19.597572">
<ele>843.055176</ele>
<time>2012-04-30T20:06:30Z</time>
<desc>lat.=42.959526, lon.=19.597572, Alt.=843.055176m. Speed=20.844000m/h.</desc>
<speed>5.790000</speed>
</trkpt>
<trkpt lat="42.959656" lon="19.597216">
<ele>842.320801</ele>
<time>2012-04-30T20:06:35Z</time>
<desc>lat.=42.959656, lon.=19.597216, Alt.=842.320801m. Speed=24.480000m/h.</desc>
<speed>6.800000</speed>
</trkpt>
<trkpt lat="42.959785" lon="19.596825">
<ele>841.508301</ele>
<time>2012-04-30T20:06:40Z</time>
<desc>lat.=42.959785, lon.=19.596825, Alt.=841.508301m. Speed=25.632000m/h.</desc>
<speed>7.120000</speed>
</trkpt>
<trkpt lat="42.959911" lon="19.596399">
<ele>841.242676</ele>
<time>2012-04-30T20:06:45Z</time>
<desc>lat.=42.959911, lon.=19.596399, Alt.=841.242676m. Speed=27.396000m/h.</desc>
<speed>7.610000</speed>
</trkpt>
<trkpt lat="42.960049" lon="19.595959">
<ele>840.336426</ele>
<time>2012-04-30T20:06:50Z</time>
<desc>lat.=42.960049, lon.=19.595959, Alt.=840.336426m. Speed=28.764000m/h.</desc>
<speed>7.990000</speed>
</trkpt>
<trkpt lat="42.960190" lon="19.595499">
<ele>839.492676</ele>
<time>2012-04-30T20:06:55Z</time>
<desc>lat.=42.960190, lon.=19.595499, Alt.=839.492676m. Speed=29.340000m/h.</desc>
<speed>8.150000</speed>
</trkpt>
<trkpt lat="42.960304" lon="19.595026">
<ele>838.430176</ele>
<time>2012-04-30T20:07:00Z</time>
<desc>lat.=42.960304, lon.=19.595026, Alt.=838.430176m. Speed=28.152000m/h.</desc>
<speed>7.820000</speed>
</trkpt>
<trkpt lat="42.960396" lon="19.594553">
<ele>836.992676</ele>
<time>2012-04-30T20:07:05Z</time>
<desc>lat.=42.960396, lon.=19.594553, Alt.=836.992676m. Speed=28.511999m/h.</desc>
<speed>7.920000</speed>
</trkpt>
<trkpt lat="42.960537" lon="19.594107">
<ele>835.352051</ele>
<time>2012-04-30T20:07:10Z</time>
<desc>lat.=42.960537, lon.=19.594107, Alt.=835.352051m. Speed=27.468000m/h.</desc>
<speed>7.630000</speed>
</trkpt>
<trkpt lat="42.960632" lon="19.593723">
<ele>835.758301</ele>
<time>2012-04-30T20:07:15Z</time>
<desc>lat.=42.960632, lon.=19.593723, Alt.=835.758301m. Speed=20.952000m/h.</desc>
<speed>5.820000</speed>
</trkpt>
<trkpt lat="42.960686" lon="19.593374">
<ele>836.820801</ele>
<time>2012-04-30T20:07:20Z</time>
<desc>lat.=42.960686, lon.=19.593374, Alt.=836.820801m. Speed=19.656000m/h.</desc>
<speed>5.460000</speed>
</trkpt>
<trkpt lat="42.960754" lon="19.593067">
<ele>838.508301</ele>
<time>2012-04-30T20:07:25Z</time>
<desc>lat.=42.960754, lon.=19.593067, Alt.=838.508301m. Speed=18.431999m/h.</desc>
<speed>5.120000</speed>
</trkpt>
<trkpt lat="42.960728" lon="19.592703">
<ele>840.461426</ele>
<time>2012-04-30T20:07:30Z</time>
<desc>lat.=42.960728, lon.=19.592703, Alt.=840.461426m. Speed=34.020000m/h.</desc>
<speed>9.450000</speed>
</trkpt>
<trkpt lat="42.960800" lon="19.592394">
<ele>838.367676</ele>
<time>2012-04-30T20:07:35Z</time>
<desc>lat.=42.960800, lon.=19.592394, Alt.=838.367676m. Speed=14.472000m/h.</desc>
<speed>4.020000</speed>
</trkpt>
<trkpt lat="42.960808" lon="19.592108">
<ele>835.758301</ele>
<time>2012-04-30T20:07:40Z</time>
<desc>lat.=42.960808, lon.=19.592108, Alt.=835.758301m. Speed=18.719999m/h.</desc>
<speed>5.200000</speed>
</trkpt>
<trkpt lat="42.960770" lon="19.591873">
<ele>832.273926</ele>
<time>2012-04-30T20:07:45Z</time>
<desc>lat.=42.960770, lon.=19.591873, Alt.=832.273926m. Speed=16.920000m/h.</desc>
<speed>4.700000</speed>
</trkpt>
<trkpt lat="42.960667" lon="19.591555">
<ele>829.633301</ele>
<time>2012-04-30T20:07:50Z</time>
<desc>lat.=42.960667, lon.=19.591555, Alt.=829.633301m. Speed=17.604000m/h.</desc>
<speed>4.890000</speed>
</trkpt>
<trkpt lat="42.960636" lon="19.591213">
<ele>827.523926</ele>
<time>2012-04-30T20:07:55Z</time>
<desc>lat.=42.960636, lon.=19.591213, Alt.=827.523926m. Speed=18.108000m/h.</desc>
<speed>5.030000</speed>
</trkpt>
<trkpt lat="42.960640" lon="19.590986">
<ele>825.570801</ele>
<time>2012-04-30T20:08:00Z</time>
<desc>lat.=42.960640, lon.=19.590986, Alt.=825.570801m. Speed=10.584000m/h.</desc>
<speed>2.940000</speed>
</trkpt>
<trkpt lat="42.960556" lon="19.590693">
<ele>824.633301</ele>
<time>2012-04-30T20:08:05Z</time>
<desc>lat.=42.960556, lon.=19.590693, Alt.=824.633301m. Speed=19.440001m/h.</desc>
<speed>5.400000</speed>
</trkpt>
<trkpt lat="42.960480" lon="19.590403">
<ele>824.273926</ele>
<time>2012-04-30T20:08:10Z</time>
<desc>lat.=42.960480, lon.=19.590403, Alt.=824.273926m. Speed=21.492001m/h.</desc>
<speed>5.970000</speed>
</trkpt>
<trkpt lat="42.960381" lon="19.590084">
<ele>822.680176</ele>
<time>2012-04-30T20:08:15Z</time>
<desc>lat.=42.960381, lon.=19.590084, Alt.=822.680176m. Speed=20.412001m/h.</desc>
<speed>5.670000</speed>
</trkpt>
<trkpt lat="42.960316" lon="19.589760">
<ele>821.727051</ele>
<time>2012-04-30T20:08:20Z</time>
<desc>lat.=42.960316, lon.=19.589760, Alt.=821.727051m. Speed=20.556000m/h.</desc>
<speed>5.710000</speed>
</trkpt>
<trkpt lat="42.960281" lon="19.589413">
<ele>820.883301</ele>
<time>2012-04-30T20:08:25Z</time>
<desc>lat.=42.960281, lon.=19.589413, Alt.=820.883301m. Speed=19.728001m/h.</desc>
<speed>5.480000</speed>
</trkpt>
<trkpt lat="42.960255" lon="19.589054">
<ele>820.508301</ele>
<time>2012-04-30T20:08:30Z</time>
<desc>lat.=42.960255, lon.=19.589054, Alt.=820.508301m. Speed=21.167999m/h.</desc>
<speed>5.880000</speed>
</trkpt>
<trkpt lat="42.960236" lon="19.588688">
<ele>819.727051</ele>
<time>2012-04-30T20:08:35Z</time>
<desc>lat.=42.960236, lon.=19.588688, Alt.=819.727051m. Speed=21.204000m/h.</desc>
<speed>5.890000</speed>
</trkpt>
<trkpt lat="42.960217" lon="19.588329">
<ele>819.320801</ele>
<time>2012-04-30T20:08:40Z</time>
<desc>lat.=42.960217, lon.=19.588329, Alt.=819.320801m. Speed=20.628000m/h.</desc>
<speed>5.730000</speed>
</trkpt>
<trkpt lat="42.960190" lon="19.587986">
<ele>819.336426</ele>
<time>2012-04-30T20:08:45Z</time>
<desc>lat.=42.960190, lon.=19.587986, Alt.=819.336426m. Speed=20.340000m/h.</desc>
<speed>5.650000</speed>
</trkpt>
<trkpt lat="42.960091" lon="19.587660">
<ele>818.289551</ele>
<time>2012-04-30T20:08:50Z</time>
<desc>lat.=42.960091, lon.=19.587660, Alt.=818.289551m. Speed=20.988001m/h.</desc>
<speed>5.830000</speed>
</trkpt>
<trkpt lat="42.959965" lon="19.587336">
<ele>816.664551</ele>
<time>2012-04-30T20:08:55Z</time>
<desc>lat.=42.959965, lon.=19.587336, Alt.=816.664551m. Speed=18.035999m/h.</desc>
<speed>5.010000</speed>
</trkpt>
<trkpt lat="42.959846" lon="19.587082">
<ele>816.320801</ele>
<time>2012-04-30T20:09:00Z</time>
<desc>lat.=42.959846, lon.=19.587082, Alt.=816.320801m. Speed=15.552000m/h.</desc>
<speed>4.320000</speed>
</trkpt>
<trkpt lat="42.959721" lon="19.586843">
<ele>817.055176</ele>
<time>2012-04-30T20:09:05Z</time>
<desc>lat.=42.959721, lon.=19.586843, Alt.=817.055176m. Speed=16.667999m/h.</desc>
<speed>4.630000</speed>
</trkpt>
<trkpt lat="42.959599" lon="19.586597">
<ele>816.555176</ele>
<time>2012-04-30T20:09:10Z</time>
<desc>lat.=42.959599, lon.=19.586597, Alt.=816.555176m. Speed=16.559999m/h.</desc>
<speed>4.600000</speed>
</trkpt>
<trkpt lat="42.959530" lon="19.586378">
<ele>816.602051</ele>
<time>2012-04-30T20:09:15Z</time>
<desc>lat.=42.959530, lon.=19.586378, Alt.=816.602051m. Speed=11.124000m/h.</desc>
<speed>3.090000</speed>
</trkpt>
<trkpt lat="42.959538" lon="19.586321">
<ele>816.945801</ele>
<time>2012-04-30T20:09:20Z</time>
<desc>lat.=42.959538, lon.=19.586321, Alt.=816.945801m. Speed=0.396000m/h.</desc>
<speed>0.110000</speed>
</trkpt>
<trkpt lat="42.959538" lon="19.586319">
<ele>816.727051</ele>
<time>2012-04-30T20:09:25Z</time>
<desc>lat.=42.959538, lon.=19.586319, Alt.=816.727051m. Speed=0.144000m/h.</desc>
<speed>0.040000</speed>
</trkpt>
<trkpt lat="42.959538" lon="19.586317">
<ele>816.711426</ele>
<time>2012-04-30T20:09:30Z</time>
<desc>lat.=42.959538, lon.=19.586317, Alt.=816.711426m. Speed=0.000000m/h.</desc>
<speed>0.000000</speed>
</trkpt>
<trkpt lat="42.959538" lon="19.586317">
<ele>816.711426</ele>
<time>2012-04-30T20:09:35Z</time>
<desc>lat.=42.959538, lon.=19.586317, Alt.=816.711426m. Speed=0.000000m/h.</desc>
<speed>0.000000</speed>
</trkpt>
<trkpt lat="42.959538" lon="19.586317">
<ele>816.727051</ele>
<time>2012-04-30T20:09:40Z</time>
<desc>lat.=42.959538, lon.=19.586317, Alt.=816.727051m. Speed=0.036000m/h.</desc>
<speed>0.010000</speed>
</trkpt>
<trkpt lat="42.959538" lon="19.586317">
<ele>816.742676</ele>
<time>2012-04-30T20:09:45Z</time>
<desc>lat.=42.959538, lon.=19.586317, Alt.=816.742676m. Speed=0.036000m/h.</desc>
<speed>0.010000</speed>
</trkpt>
<trkpt lat="42.959538" lon="19.586317">
<ele>816.742676</ele>
<time>2012-04-30T20:09:50Z</time>
<desc>lat.=42.959538, lon.=19.586317, Alt.=816.742676m. Speed=0.036000m/h.</desc>
<speed>0.010000</speed>
</trkpt>
<trkpt lat="42.959538" lon="19.586317">
<ele>816.727051</ele>
<time>2012-04-30T20:09:55Z</time>
<desc>lat.=42.959538, lon.=19.586317, Alt.=816.727051m. Speed=0.036000m/h.</desc>
<speed>0.010000</speed>
</trkpt>
<trkpt lat="42.959538" lon="19.586317">
<ele>816.711426</ele>
<time>2012-04-30T20:10:00Z</time>
<desc>lat.=42.959538, lon.=19.586317, Alt.=816.711426m. Speed=0.000000m/h.</desc>
<speed>0.000000</speed>
</trkpt>
<trkpt lat="42.959538" lon="19.586317">
<ele>816.680176</ele>
<time>2012-04-30T20:10:05Z</time>
<desc>lat.=42.959538, lon.=19.586317, Alt.=816.680176m. Speed=0.108000m/h.</desc>
<speed>0.030000</speed>
</trkpt>
<trkpt lat="42.959518" lon="19.586323">
<ele>816.727051</ele>
<time>2012-04-30T20:10:10Z</time>
<desc>lat.=42.959518, lon.=19.586323, Alt.=816.727051m. Speed=3.132000m/h.</desc>
<speed>0.870000</speed>
</trkpt>
<trkpt lat="42.959518" lon="19.586329">
<ele>817.023926</ele>
<time>2012-04-30T20:10:15Z</time>
<desc>lat.=42.959518, lon.=19.586329, Alt.=817.023926m. Speed=0.180000m/h.</desc>
<speed>0.050000</speed>
</trkpt>
<trkpt lat="42.959511" lon="19.586336">
<ele>817.164551</ele>
<time>2012-04-30T20:10:20Z</time>
<desc>lat.=42.959511, lon.=19.586336, Alt.=817.164551m. Speed=0.180000m/h.</desc>
<speed>0.050000</speed>
</trkpt>
<trkpt lat="42.959511" lon="19.586336">
<ele>817.148926</ele>
<time>2012-04-30T20:10:25Z</time>
<desc>lat.=42.959511, lon.=19.586336, Alt.=817.148926m. Speed=0.072000m/h.</desc>
<speed>0.020000</speed>
</trkpt>
<trkpt lat="42.959507" lon="19.586334">
<ele>817.117676</ele>
<time>2012-04-30T20:10:30Z</time>
<desc>lat.=42.959507, lon.=19.586334, Alt.=817.117676m. Speed=1.944000m/h.</desc>
<speed>0.540000</speed>
</trkpt>
<trkpt lat="42.959499" lon="19.586329">
<ele>817.367676</ele>
<time>2012-04-30T20:10:35Z</time>
<desc>lat.=42.959499, lon.=19.586329, Alt.=817.367676m. Speed=0.144000m/h.</desc>
<speed>0.040000</speed>
</trkpt>
<trkpt lat="42.959499" lon="19.586329">
<ele>817.383301</ele>
<time>2012-04-30T20:10:40Z</time>
<desc>lat.=42.959499, lon.=19.586329, Alt.=817.383301m. Speed=0.036000m/h.</desc>
<speed>0.010000</speed>
</trkpt>
<trkpt lat="42.959499" lon="19.586329">
<ele>817.398926</ele>
<time>2012-04-30T20:10:45Z</time>
<desc>lat.=42.959499, lon.=19.586329, Alt.=817.398926m. Speed=0.036000m/h.</desc>
<speed>0.010000</speed>
</trkpt>
<trkpt lat="42.959499" lon="19.586329">
<ele>817.398926</ele>
<time>2012-04-30T20:10:50Z</time>
<desc>lat.=42.959499, lon.=19.586329, Alt.=817.398926m. Speed=0.000000m/h.</desc>
<speed>0.000000</speed>
</trkpt>
<trkpt lat="42.959534" lon="19.586287">
<ele>817.773926</ele>
<time>2012-04-30T20:10:55Z</time>
<desc>lat.=42.959534, lon.=19.586287, Alt.=817.773926m. Speed=7.920000m/h.</desc>
<speed>2.200000</speed>
</trkpt>
<trkpt lat="42.959633" lon="19.586132">
<ele>818.055176</ele>
<time>2012-04-30T20:11:00Z</time>
<desc>lat.=42.959633, lon.=19.586132, Alt.=818.055176m. Speed=12.528000m/h.</desc>
<speed>3.480000</speed>
</trkpt>
<trkpt lat="42.959702" lon="19.585960">
<ele>818.461426</ele>
<time>2012-04-30T20:11:05Z</time>
<desc>lat.=42.959702, lon.=19.585960, Alt.=818.461426m. Speed=10.188000m/h.</desc>
<speed>2.830000</speed>
</trkpt>
<trkpt lat="42.959770" lon="19.585829">
<ele>818.820801</ele>
<time>2012-04-30T20:11:10Z</time>
<desc>lat.=42.959770, lon.=19.585829, Alt.=818.820801m. Speed=9.252000m/h.</desc>
<speed>2.570000</speed>
</trkpt>
<trkpt lat="42.959812" lon="19.585699">
<ele>819.305176</ele>
<time>2012-04-30T20:11:15Z</time>
<desc>lat.=42.959812, lon.=19.585699, Alt.=819.305176m. Speed=9.216000m/h.</desc>
<speed>2.560000</speed>
</trkpt>
<trkpt lat="42.959854" lon="19.585552">
<ele>819.523926</ele>
<time>2012-04-30T20:11:20Z</time>
<desc>lat.=42.959854, lon.=19.585552, Alt.=819.523926m. Speed=10.908000m/h.</desc>
<speed>3.030000</speed>
</trkpt>
<trkpt lat="42.959911" lon="19.585386">
<ele>819.648926</ele>
<time>2012-04-30T20:11:25Z</time>
<desc>lat.=42.959911, lon.=19.585386, Alt.=819.648926m. Speed=10.764000m/h.</desc>
<speed>2.990000</speed>
</trkpt>
<trkpt lat="42.959991" lon="19.585232">
<ele>819.133301</ele>
<time>2012-04-30T20:11:30Z</time>
<desc>lat.=42.959991, lon.=19.585232, Alt.=819.133301m. Speed=11.340000m/h.</desc>
<speed>3.150000</speed>
</trkpt>
<trkpt lat="42.960052" lon="19.585005">
<ele>819.430176</ele>
<time>2012-04-30T20:11:35Z</time>
<desc>lat.=42.960052, lon.=19.585005, Alt.=819.430176m. Speed=17.496000m/h.</desc>
<speed>4.860000</speed>
</trkpt>
<trkpt lat="42.960125" lon="19.584705">
<ele>819.461426</ele>
<time>2012-04-30T20:11:40Z</time>
<desc>lat.=42.960125, lon.=19.584705, Alt.=819.461426m. Speed=18.648001m/h.</desc>
<speed>5.180000</speed>
</trkpt>
<trkpt lat="42.960167" lon="19.584379">
<ele>819.773926</ele>
<time>2012-04-30T20:11:45Z</time>
<desc>lat.=42.960167, lon.=19.584379, Alt.=819.773926m. Speed=19.656000m/h.</desc>
<speed>5.460000</speed>
</trkpt>
<trkpt lat="42.960178" lon="19.584024">
<ele>819.508301</ele>
<time>2012-04-30T20:11:50Z</time>
<desc>lat.=42.960178, lon.=19.584024, Alt.=819.508301m. Speed=21.059999m/h.</desc>
<speed>5.850000</speed>
</trkpt>
<trkpt lat="42.960129" lon="19.583647">
<ele>819.117676</ele>
<time>2012-04-30T20:11:55Z</time>
<desc>lat.=42.960129, lon.=19.583647, Alt.=819.117676m. Speed=22.535999m/h.</desc>
<speed>6.260000</speed>
</trkpt>
<trkpt lat="42.960182" lon="19.583254">
<ele>820.008301</ele>
<time>2012-04-30T20:12:00Z</time>
<desc>lat.=42.960182, lon.=19.583254, Alt.=820.008301m. Speed=23.760000m/h.</desc>
<speed>6.600000</speed>
</trkpt>
<trkpt lat="42.960224" lon="19.582838">
<ele>820.164551</ele>
<time>2012-04-30T20:12:05Z</time>
<desc>lat.=42.960224, lon.=19.582838, Alt.=820.164551m. Speed=24.516001m/h.</desc>
<speed>6.810000</speed>
</trkpt>
<trkpt lat="42.960270" lon="19.582424">
<ele>819.602051</ele>
<time>2012-04-30T20:12:10Z</time>
<desc>lat.=42.960270, lon.=19.582424, Alt.=819.602051m. Speed=23.436001m/h.</desc>
<speed>6.510000</speed>
</trkpt>
<trkpt lat="42.960308" lon="19.582041">
<ele>820.195801</ele>
<time>2012-04-30T20:12:15Z</time>
<desc>lat.=42.960308, lon.=19.582041, Alt.=820.195801m. Speed=20.412001m/h.</desc>
<speed>5.670000</speed>
</trkpt>
<trkpt lat="42.960358" lon="19.581726">
<ele>820.992676</ele>
<time>2012-04-30T20:12:20Z</time>
<desc>lat.=42.960358, lon.=19.581726, Alt.=820.992676m. Speed=18.792000m/h.</desc>
<speed>5.220000</speed>
</trkpt>
<trkpt lat="42.960358" lon="19.581425">
<ele>820.586426</ele>
<time>2012-04-30T20:12:25Z</time>
<desc>lat.=42.960358, lon.=19.581425, Alt.=820.586426m. Speed=17.892000m/h.</desc>
<speed>4.970000</speed>
</trkpt>
<trkpt lat="42.960304" lon="19.581131">
<ele>819.273926</ele>
<time>2012-04-30T20:12:30Z</time>
<desc>lat.=42.960304, lon.=19.581131, Alt.=819.273926m. Speed=15.048000m/h.</desc>
<speed>4.180000</speed>
</trkpt>
<trkpt lat="42.960232" lon="19.580868">
<ele>817.867676</ele>
<time>2012-04-30T20:12:35Z</time>
<desc>lat.=42.960232, lon.=19.580868, Alt.=817.867676m. Speed=20.520000m/h.</desc>
<speed>5.700000</speed>
</trkpt>
<trkpt lat="42.960068" lon="19.580572">
<ele>817.477051</ele>
<time>2012-04-30T20:12:40Z</time>
<desc>lat.=42.960068, lon.=19.580572, Alt.=817.477051m. Speed=20.916000m/h.</desc>
<speed>5.810000</speed>
</trkpt>
<trkpt lat="42.959888" lon="19.580269">
<ele>814.992676</ele>
<time>2012-04-30T20:12:45Z</time>
<desc>lat.=42.959888, lon.=19.580269, Alt.=814.992676m. Speed=23.544001m/h.</desc>
<speed>6.540000</speed>
</trkpt>
<trkpt lat="42.959732" lon="19.579918">
<ele>813.117676</ele>
<time>2012-04-30T20:12:50Z</time>
<desc>lat.=42.959732, lon.=19.579918, Alt.=813.117676m. Speed=24.120001m/h.</desc>
<speed>6.700000</speed>
</trkpt>
<trkpt lat="42.959644" lon="19.579548">
<ele>813.133301</ele>
<time>2012-04-30T20:12:55Z</time>
<desc>lat.=42.959644, lon.=19.579548, Alt.=813.133301m. Speed=22.896000m/h.</desc>
<speed>6.360000</speed>
</trkpt>
<trkpt lat="42.959682" lon="19.579180">
<ele>814.008301</ele>
<time>2012-04-30T20:13:00Z</time>
<desc>lat.=42.959682, lon.=19.579180, Alt.=814.008301m. Speed=20.736000m/h.</desc>
<speed>5.760000</speed>
</trkpt>
<trkpt lat="42.959724" lon="19.578848">
<ele>815.164551</ele>
<time>2012-04-30T20:13:05Z</time>
<desc>lat.=42.959724, lon.=19.578848, Alt.=815.164551m. Speed=20.087999m/h.</desc>
<speed>5.580000</speed>
</trkpt>
<trkpt lat="42.959751" lon="19.578518">
<ele>814.633301</ele>
<time>2012-04-30T20:13:10Z</time>
<desc>lat.=42.959751, lon.=19.578518, Alt.=814.633301m. Speed=17.676001m/h.</desc>
<speed>4.910000</speed>
</trkpt>
<trkpt lat="42.959766" lon="19.578264">
<ele>815.242676</ele>
<time>2012-04-30T20:13:15Z</time>
<desc>lat.=42.959766, lon.=19.578264, Alt.=815.242676m. Speed=12.816000m/h.</desc>
<speed>3.560000</speed>
</trkpt>
<trkpt lat="42.959694" lon="19.578163">
<ele>814.758301</ele>
<time>2012-04-30T20:13:20Z</time>
<desc>lat.=42.959694, lon.=19.578163, Alt.=814.758301m. Speed=5.076000m/h.</desc>
<speed>1.410000</speed>
</trkpt>
<trkpt lat="42.959610" lon="19.578133">
<ele>815.539551</ele>
<time>2012-04-30T20:13:25Z</time>
<desc>lat.=42.959610, lon.=19.578133, Alt.=815.539551m. Speed=8.532000m/h.</desc>
<speed>2.370000</speed>
</trkpt>
<trkpt lat="42.959480" lon="19.578102">
<ele>815.555176</ele>
<time>2012-04-30T20:13:30Z</time>
<desc>lat.=42.959480, lon.=19.578102, Alt.=815.555176m. Speed=12.636000m/h.</desc>
<speed>3.510000</speed>
</trkpt>
<trkpt lat="42.959312" lon="19.578062">
<ele>816.148926</ele>
<time>2012-04-30T20:13:35Z</time>
<desc>lat.=42.959312, lon.=19.578062, Alt.=816.148926m. Speed=15.876000m/h.</desc>
<speed>4.410000</speed>
</trkpt>
<trkpt lat="42.959148" lon="19.578028">
<ele>816.664551</ele>
<time>2012-04-30T20:13:40Z</time>
<desc>lat.=42.959148, lon.=19.578028, Alt.=816.664551m. Speed=9.792000m/h.</desc>
<speed>2.720000</speed>
</trkpt>
<trkpt lat="42.959068" lon="19.577999">
<ele>816.805176</ele>
<time>2012-04-30T20:13:45Z</time>
<desc>lat.=42.959068, lon.=19.577999, Alt.=816.805176m. Speed=6.012000m/h.</desc>
<speed>1.670000</speed>
</trkpt>
<trkpt lat="42.958927" lon="19.577984">
<ele>816.836426</ele>
<time>2012-04-30T20:13:50Z</time>
<desc>lat.=42.958927, lon.=19.577984, Alt.=816.836426m. Speed=15.732000m/h.</desc>
<speed>4.370000</speed>
</trkpt>
<trkpt lat="42.958740" lon="19.577950">
<ele>817.523926</ele>
<time>2012-04-30T20:13:55Z</time>
<desc>lat.=42.958740, lon.=19.577950, Alt.=817.523926m. Speed=13.644000m/h.</desc>
<speed>3.790000</speed>
</trkpt>
<trkpt lat="42.958588" lon="19.577944">
<ele>818.211426</ele>
<time>2012-04-30T20:14:00Z</time>
<desc>lat.=42.958588, lon.=19.577944, Alt.=818.211426m. Speed=10.188000m/h.</desc>
<speed>2.830000</speed>
</trkpt>
<trkpt lat="42.958481" lon="19.578043">
<ele>817.867676</ele>
<time>2012-04-30T20:14:05Z</time>
<desc>lat.=42.958481, lon.=19.578043, Alt.=817.867676m. Speed=10.188000m/h.</desc>
<speed>2.830000</speed>
</trkpt>
<trkpt lat="42.958447" lon="19.578199">
<ele>816.070801</ele>
<time>2012-04-30T20:14:10Z</time>
<desc>lat.=42.958447, lon.=19.578199, Alt.=816.070801m. Speed=8.064000m/h.</desc>
<speed>2.240000</speed>
</trkpt>
<trkpt lat="42.958393" lon="19.578259">
<ele>815.398926</ele>
<time>2012-04-30T20:14:15Z</time>
<desc>lat.=42.958393, lon.=19.578259, Alt.=815.398926m. Speed=1.728000m/h.</desc>
<speed>0.480000</speed>
</trkpt>
<trkpt lat="42.958408" lon="19.578253">
<ele>815.180176</ele>
<time>2012-04-30T20:14:20Z</time>
<desc>lat.=42.958408, lon.=19.578253, Alt.=815.180176m. Speed=0.108000m/h.</desc>
<speed>0.030000</speed>
</trkpt>
<trkpt lat="42.958408" lon="19.578253">
<ele>815.039551</ele>
<time>2012-04-30T20:14:25Z</time>
<desc>lat.=42.958408, lon.=19.578253, Alt.=815.039551m. Speed=0.036000m/h.</desc>
<speed>0.010000</speed>
</trkpt>
<trkpt lat="42.958408" lon="19.578253">
<ele>815.039551</ele>
<time>2012-04-30T20:14:30Z</time>
<desc>lat.=42.958408, lon.=19.578253, Alt.=815.039551m. Speed=0.036000m/h.</desc>
<speed>0.010000</speed>
</trkpt>
<trkpt lat="42.958408" lon="19.578253">
<ele>815.195801</ele>
<time>2012-04-30T20:14:35Z</time>
<desc>lat.=42.958408, lon.=19.578253, Alt.=815.195801m. Speed=0.000000m/h.</desc>
<speed>0.000000</speed>
</trkpt>
<trkpt lat="42.958408" lon="19.578253">
<ele>815.164551</ele>
<time>2012-04-30T20:14:40Z</time>
<desc>lat.=42.958408, lon.=19.578253, Alt.=815.164551m. Speed=0.000000m/h.</desc>
<speed>0.000000</speed>
</trkpt>
<trkpt lat="42.958408" lon="19.578253">
<ele>815.133301</ele>
<time>2012-04-30T20:14:45Z</time>
<desc>lat.=42.958408, lon.=19.578253, Alt.=815.133301m. Speed=0.000000m/h.</desc>
<speed>0.000000</speed>
</trkpt>
<trkpt lat="42.958408" lon="19.578253">
<ele>815.086426</ele>
<time>2012-04-30T20:14:50Z</time>
<desc>lat.=42.958408, lon.=19.578253, Alt.=815.086426m. Speed=0.000000m/h.</desc>
<speed>0.000000</speed>
</trkpt>
<trkpt lat="42.958408" lon="19.578253">
<ele>815.055176</ele>
<time>2012-04-30T20:14:55Z</time>
<desc>lat.=42.958408, lon.=19.578253, Alt.=815.055176m. Speed=0.216000m/h.</desc>
<speed>0.060000</speed>
</trkpt>
<trkpt lat="42.958408" lon="19.578253">
<ele>815.055176</ele>
<time>2012-04-30T20:15:00Z</time>
<desc>lat.=42.958408, lon.=19.578253, Alt.=815.055176m. Speed=0.000000m/h.</desc>
<speed>0.000000</speed>
</trkpt>
<trkpt lat="42.958408" lon="19.578253">
<ele>815.039551</ele>
<time>2012-04-30T20:15:05Z</time>
<desc>lat.=42.958408, lon.=19.578253, Alt.=815.039551m. Speed=0.000000m/h.</desc>
<speed>0.000000</speed>
</trkpt>
<trkpt lat="42.958408" lon="19.578253">
<ele>815.023926</ele>
<time>2012-04-30T20:15:10Z</time>
<desc>lat.=42.958408, lon.=19.578253, Alt.=815.023926m. Speed=0.144000m/h.</desc>
<speed>0.040000</speed>
</trkpt>
<trkpt lat="42.958408" lon="19.578253">
<ele>815.008301</ele>
<time>2012-04-30T20:15:15Z</time>
<desc>lat.=42.958408, lon.=19.578253, Alt.=815.008301m. Speed=0.036000m/h.</desc>
<speed>0.010000</speed>
</trkpt>
<trkpt lat="42.958408" lon="19.578253">
<ele>815.008301</ele>
<time>2012-04-30T20:15:20Z</time>
<desc>lat.=42.958408, lon.=19.578253, Alt.=815.008301m. Speed=0.144000m/h.</desc>
<speed>0.040000</speed>
</trkpt>
<trkpt lat="42.958408" lon="19.578253">
<ele>815.008301</ele>
<time>2012-04-30T20:15:25Z</time>
<desc>lat.=42.958408, lon.=19.578253, Alt.=815.008301m. Speed=0.144000m/h.</desc>
<speed>0.040000</speed>
</trkpt>
<trkpt lat="42.958408" lon="19.578253">
<ele>815.023926</ele>
<time>2012-04-30T20:15:30Z</time>
<desc>lat.=42.958408, lon.=19.578253, Alt.=815.023926m. Speed=0.000000m/h.</desc>
<speed>0.000000</speed>
</trkpt>
<trkpt lat="42.958408" lon="19.578255">
<ele>815.023926</ele>
<time>2012-04-30T20:15:35Z</time>
<desc>lat.=42.958408, lon.=19.578255, Alt.=815.023926m. Speed=0.036000m/h.</desc>
<speed>0.010000</speed>
</trkpt>
<trkpt lat="42.958408" lon="19.578255">
<ele>815.023926</ele>
<time>2012-04-30T20:15:40Z</time>
<desc>lat.=42.958408, lon.=19.578255, Alt.=815.023926m. Speed=0.000000m/h.</desc>
<speed>0.000000</speed>
</trkpt>
<trkpt lat="42.958408" lon="19.578255">
<ele>815.023926</ele>
<time>2012-04-30T20:15:45Z</time>
<desc>lat.=42.958408, lon.=19.578255, Alt.=815.023926m. Speed=0.036000m/h.</desc>
<speed>0.010000</speed>
</trkpt>
</trkseg>
</trk>
</gpx>